<?xml version="1.0" encoding="UTF-8" standalone="no" ?>
<gpx xmlns="http://www.topografix.com/GPX/1/1" xmlns:xsi="http://www.w3.org/2001/XMLSchema-instance" xsi:schemaLocation="http://www.topografix.com/GPX/1/1 http://www.topografix.com/GPX/1/1/gpx.xsd" version="1.1" creator="VisuGPX - https://www.visugpx.com">
  <metadata>
    <name>Sortie ASV VTT 2017-05-07</name>
    <desc><![CDATA[Sortie avec mes amis de l'ASV VTT en Spé Sequoia, Gravel.]]></desc>
  </metadata>
  <trk>
    <name><![CDATA[Sortie ASV VTT 2017-05-07_1]]></name>
    <trkseg>
      <trkpt lat="47.80162" lon="2.13618">
        <ele>93</ele>
        <time>2017-05-07T06:48:59.373Z</time>
      </trkpt>
      <trkpt lat="47.80162" lon="2.13618">
        <ele>93</ele>
        <time>2017-05-07T06:49:00.390Z</time>
      </trkpt>
      <trkpt lat="47.80157" lon="2.13621">
        <ele>93</ele>
        <time>2017-05-07T06:49:01.389Z</time>
      </trkpt>
      <trkpt lat="47.80156" lon="2.13622">
        <ele>93</ele>
        <time>2017-05-07T06:49:02.390Z</time>
      </trkpt>
      <trkpt lat="47.80156" lon="2.13622">
        <ele>93</ele>
        <time>2017-05-07T06:49:03.393Z</time>
      </trkpt>
      <trkpt lat="47.80154" lon="2.13625">
        <ele>92</ele>
        <time>2017-05-07T06:49:04.359Z</time>
      </trkpt>
      <trkpt lat="47.80152" lon="2.13627">
        <ele>92</ele>
        <time>2017-05-07T06:49:05.357Z</time>
      </trkpt>
      <trkpt lat="47.80152" lon="2.13627">
        <ele>92</ele>
        <time>2017-05-07T06:49:06.393Z</time>
      </trkpt>
      <trkpt lat="47.8015" lon="2.13632">
        <ele>92</ele>
        <time>2017-05-07T06:49:07.392Z</time>
      </trkpt>
      <trkpt lat="47.8015" lon="2.13632">
        <ele>92</ele>
        <time>2017-05-07T06:49:08.389Z</time>
      </trkpt>
      <trkpt lat="47.80148" lon="2.13636">
        <ele>92</ele>
        <time>2017-05-07T06:49:09.394Z</time>
      </trkpt>
      <trkpt lat="47.80148" lon="2.13636">
        <ele>92</ele>
        <time>2017-05-07T06:49:10.390Z</time>
      </trkpt>
      <trkpt lat="47.80147" lon="2.13641">
        <ele>92</ele>
        <time>2017-05-07T06:49:11.391Z</time>
      </trkpt>
      <trkpt lat="47.80147" lon="2.13641">
        <ele>92</ele>
        <time>2017-05-07T06:49:12.391Z</time>
      </trkpt>
      <trkpt lat="47.80145" lon="2.13646">
        <ele>93</ele>
        <time>2017-05-07T06:49:13.367Z</time>
      </trkpt>
      <trkpt lat="47.80145" lon="2.13646">
        <ele>93</ele>
        <time>2017-05-07T06:49:14.364Z</time>
      </trkpt>
      <trkpt lat="47.80144" lon="2.13651">
        <ele>94</ele>
        <time>2017-05-07T06:49:15.361Z</time>
      </trkpt>
      <trkpt lat="47.80144" lon="2.13651">
        <ele>94</ele>
        <time>2017-05-07T06:49:16.359Z</time>
      </trkpt>
      <trkpt lat="47.80141" lon="2.13655">
        <ele>93</ele>
        <time>2017-05-07T06:49:17.389Z</time>
      </trkpt>
      <trkpt lat="47.80141" lon="2.13655">
        <ele>93</ele>
        <time>2017-05-07T06:49:18.389Z</time>
      </trkpt>
      <trkpt lat="47.80136" lon="2.13656">
        <ele>93</ele>
        <time>2017-05-07T06:49:19.388Z</time>
      </trkpt>
      <trkpt lat="47.80133" lon="2.13656">
        <ele>93</ele>
        <time>2017-05-07T06:49:20.389Z</time>
      </trkpt>
      <trkpt lat="47.80133" lon="2.13656">
        <ele>93</ele>
        <time>2017-05-07T06:49:21.386Z</time>
      </trkpt>
      <trkpt lat="47.80127" lon="2.13656">
        <ele>93</ele>
        <time>2017-05-07T06:49:22.389Z</time>
      </trkpt>
      <trkpt lat="47.80127" lon="2.13656">
        <ele>93</ele>
        <time>2017-05-07T06:49:23.387Z</time>
      </trkpt>
      <trkpt lat="47.80122" lon="2.13659">
        <ele>94</ele>
        <time>2017-05-07T06:49:24.390Z</time>
      </trkpt>
      <trkpt lat="47.8012" lon="2.13662">
        <ele>94</ele>
        <time>2017-05-07T06:49:25.388Z</time>
      </trkpt>
      <trkpt lat="47.8012" lon="2.13662">
        <ele>94</ele>
        <time>2017-05-07T06:49:26.376Z</time>
      </trkpt>
      <trkpt lat="47.80117" lon="2.1367">
        <ele>94</ele>
        <time>2017-05-07T06:49:27.388Z</time>
      </trkpt>
      <trkpt lat="47.80117" lon="2.1367">
        <ele>94</ele>
        <time>2017-05-07T06:49:28.384Z</time>
      </trkpt>
      <trkpt lat="47.80115" lon="2.13679">
        <ele>94</ele>
        <time>2017-05-07T06:49:29.391Z</time>
      </trkpt>
      <trkpt lat="47.80115" lon="2.13679">
        <ele>94</ele>
        <time>2017-05-07T06:49:30.385Z</time>
      </trkpt>
      <trkpt lat="47.80112" lon="2.13689">
        <ele>95</ele>
        <time>2017-05-07T06:49:31.384Z</time>
      </trkpt>
      <trkpt lat="47.80112" lon="2.13689">
        <ele>95</ele>
        <time>2017-05-07T06:49:32.384Z</time>
      </trkpt>
      <trkpt lat="47.80109" lon="2.13698">
        <ele>96</ele>
        <time>2017-05-07T06:49:33.364Z</time>
      </trkpt>
      <trkpt lat="47.80109" lon="2.13698">
        <ele>96</ele>
        <time>2017-05-07T06:49:34.394Z</time>
      </trkpt>
      <trkpt lat="47.80108" lon="2.13707">
        <ele>96</ele>
        <time>2017-05-07T06:49:35.387Z</time>
      </trkpt>
      <trkpt lat="47.80108" lon="2.13707">
        <ele>96</ele>
        <time>2017-05-07T06:49:36.383Z</time>
      </trkpt>
      <trkpt lat="47.80107" lon="2.13717">
        <ele>97</ele>
        <time>2017-05-07T06:49:37.382Z</time>
      </trkpt>
      <trkpt lat="47.80107" lon="2.13722">
        <ele>97</ele>
        <time>2017-05-07T06:49:38.388Z</time>
      </trkpt>
      <trkpt lat="47.80106" lon="2.13727">
        <ele>98</ele>
        <time>2017-05-07T06:49:39.390Z</time>
      </trkpt>
      <trkpt lat="47.80106" lon="2.13727">
        <ele>98</ele>
        <time>2017-05-07T06:49:40.384Z</time>
      </trkpt>
      <trkpt lat="47.80105" lon="2.13737">
        <ele>97</ele>
        <time>2017-05-07T06:49:41.385Z</time>
      </trkpt>
      <trkpt lat="47.80105" lon="2.13737">
        <ele>97</ele>
        <time>2017-05-07T06:49:42.384Z</time>
      </trkpt>
      <trkpt lat="47.80105" lon="2.13745">
        <ele>98</ele>
        <time>2017-05-07T06:49:43.387Z</time>
      </trkpt>
      <trkpt lat="47.80105" lon="2.13745">
        <ele>98</ele>
        <time>2017-05-07T06:49:44.385Z</time>
      </trkpt>
      <trkpt lat="47.80104" lon="2.13754">
        <ele>98</ele>
        <time>2017-05-07T06:49:45.388Z</time>
      </trkpt>
      <trkpt lat="47.80104" lon="2.13754">
        <ele>98</ele>
        <time>2017-05-07T06:49:46.386Z</time>
      </trkpt>
      <trkpt lat="47.80105" lon="2.13761">
        <ele>99</ele>
        <time>2017-05-07T06:49:47.390Z</time>
      </trkpt>
      <trkpt lat="47.80105" lon="2.13766">
        <ele>99</ele>
        <time>2017-05-07T06:49:48.388Z</time>
      </trkpt>
      <trkpt lat="47.80105" lon="2.13766">
        <ele>99</ele>
        <time>2017-05-07T06:49:49.386Z</time>
      </trkpt>
      <trkpt lat="47.80104" lon="2.13773">
        <ele>102</ele>
        <time>2017-05-07T06:49:50.389Z</time>
      </trkpt>
      <trkpt lat="47.80104" lon="2.13773">
        <ele>102</ele>
        <time>2017-05-07T06:49:51.382Z</time>
      </trkpt>
      <trkpt lat="47.80103" lon="2.13783">
        <ele>103</ele>
        <time>2017-05-07T06:49:52.385Z</time>
      </trkpt>
      <trkpt lat="47.80103" lon="2.13783">
        <ele>103</ele>
        <time>2017-05-07T06:49:53.393Z</time>
      </trkpt>
      <trkpt lat="47.80104" lon="2.13793">
        <ele>104</ele>
        <time>2017-05-07T06:49:54.385Z</time>
      </trkpt>
      <trkpt lat="47.80104" lon="2.13793">
        <ele>104</ele>
        <time>2017-05-07T06:49:55.385Z</time>
      </trkpt>
      <trkpt lat="47.80107" lon="2.13801">
        <ele>106</ele>
        <time>2017-05-07T06:49:56.388Z</time>
      </trkpt>
      <trkpt lat="47.80108" lon="2.13806">
        <ele>106</ele>
        <time>2017-05-07T06:49:57.374Z</time>
      </trkpt>
      <trkpt lat="47.80108" lon="2.13806">
        <ele>106</ele>
        <time>2017-05-07T06:49:58.384Z</time>
      </trkpt>
      <trkpt lat="47.8011" lon="2.13816">
        <ele>107</ele>
        <time>2017-05-07T06:49:59.362Z</time>
      </trkpt>
      <trkpt lat="47.80111" lon="2.13821">
        <ele>107</ele>
        <time>2017-05-07T06:50:00.359Z</time>
      </trkpt>
      <trkpt lat="47.80111" lon="2.13821">
        <ele>107</ele>
        <time>2017-05-07T06:50:01.387Z</time>
      </trkpt>
      <trkpt lat="47.80113" lon="2.13831">
        <ele>107</ele>
        <time>2017-05-07T06:50:02.390Z</time>
      </trkpt>
      <trkpt lat="47.80113" lon="2.13831">
        <ele>107</ele>
        <time>2017-05-07T06:50:03.383Z</time>
      </trkpt>
      <trkpt lat="47.80114" lon="2.13841">
        <ele>107</ele>
        <time>2017-05-07T06:50:04.386Z</time>
      </trkpt>
      <trkpt lat="47.80114" lon="2.13841">
        <ele>107</ele>
        <time>2017-05-07T06:50:05.366Z</time>
      </trkpt>
      <trkpt lat="47.80116" lon="2.13851">
        <ele>107</ele>
        <time>2017-05-07T06:50:06.356Z</time>
      </trkpt>
      <trkpt lat="47.80116" lon="2.13851">
        <ele>107</ele>
        <time>2017-05-07T06:50:07.387Z</time>
      </trkpt>
      <trkpt lat="47.80119" lon="2.1386">
        <ele>107</ele>
        <time>2017-05-07T06:50:08.388Z</time>
      </trkpt>
      <trkpt lat="47.80119" lon="2.1386">
        <ele>107</ele>
        <time>2017-05-07T06:50:09.382Z</time>
      </trkpt>
      <trkpt lat="47.80121" lon="2.13869">
        <ele>107</ele>
        <time>2017-05-07T06:50:10.388Z</time>
      </trkpt>
      <trkpt lat="47.80122" lon="2.13873">
        <ele>108</ele>
        <time>2017-05-07T06:50:11.389Z</time>
      </trkpt>
      <trkpt lat="47.80122" lon="2.13873">
        <ele>108</ele>
        <time>2017-05-07T06:50:12.385Z</time>
      </trkpt>
      <trkpt lat="47.80125" lon="2.13881">
        <ele>108</ele>
        <time>2017-05-07T06:50:13.392Z</time>
      </trkpt>
      <trkpt lat="47.80125" lon="2.13881">
        <ele>108</ele>
        <time>2017-05-07T06:50:14.385Z</time>
      </trkpt>
      <trkpt lat="47.80127" lon="2.1389">
        <ele>109</ele>
        <time>2017-05-07T06:50:15.387Z</time>
      </trkpt>
      <trkpt lat="47.80128" lon="2.13895">
        <ele>108</ele>
        <time>2017-05-07T06:50:16.388Z</time>
      </trkpt>
      <trkpt lat="47.8013" lon="2.13899">
        <ele>108</ele>
        <time>2017-05-07T06:50:17.388Z</time>
      </trkpt>
      <trkpt lat="47.8013" lon="2.13899">
        <ele>108</ele>
        <time>2017-05-07T06:50:18.382Z</time>
      </trkpt>
      <trkpt lat="47.80133" lon="2.13909">
        <ele>108</ele>
        <time>2017-05-07T06:50:19.388Z</time>
      </trkpt>
      <trkpt lat="47.80133" lon="2.13909">
        <ele>108</ele>
        <time>2017-05-07T06:50:20.382Z</time>
      </trkpt>
      <trkpt lat="47.80136" lon="2.13918">
        <ele>108</ele>
        <time>2017-05-07T06:50:21.389Z</time>
      </trkpt>
      <trkpt lat="47.80136" lon="2.13918">
        <ele>108</ele>
        <time>2017-05-07T06:50:22.383Z</time>
      </trkpt>
      <trkpt lat="47.80138" lon="2.13927">
        <ele>107</ele>
        <time>2017-05-07T06:50:23.364Z</time>
      </trkpt>
      <trkpt lat="47.80138" lon="2.13927">
        <ele>107</ele>
        <time>2017-05-07T06:50:24.392Z</time>
      </trkpt>
      <trkpt lat="47.80141" lon="2.13936">
        <ele>107</ele>
        <time>2017-05-07T06:50:25.391Z</time>
      </trkpt>
      <trkpt lat="47.80141" lon="2.13936">
        <ele>107</ele>
        <time>2017-05-07T06:50:26.384Z</time>
      </trkpt>
      <trkpt lat="47.80143" lon="2.13945">
        <ele>106</ele>
        <time>2017-05-07T06:50:27.393Z</time>
      </trkpt>
      <trkpt lat="47.80143" lon="2.13945">
        <ele>106</ele>
        <time>2017-05-07T06:50:28.385Z</time>
      </trkpt>
      <trkpt lat="47.80144" lon="2.13954">
        <ele>106</ele>
        <time>2017-05-07T06:50:29.389Z</time>
      </trkpt>
      <trkpt lat="47.80144" lon="2.13954">
        <ele>106</ele>
        <time>2017-05-07T06:50:30.386Z</time>
      </trkpt>
      <trkpt lat="47.80145" lon="2.13964">
        <ele>106</ele>
        <time>2017-05-07T06:50:31.392Z</time>
      </trkpt>
      <trkpt lat="47.80145" lon="2.13964">
        <ele>106</ele>
        <time>2017-05-07T06:50:32.355Z</time>
      </trkpt>
      <trkpt lat="47.80145" lon="2.13972">
        <ele>106</ele>
        <time>2017-05-07T06:50:33.369Z</time>
      </trkpt>
      <trkpt lat="47.80145" lon="2.13977">
        <ele>106</ele>
        <time>2017-05-07T06:50:34.389Z</time>
      </trkpt>
      <trkpt lat="47.80145" lon="2.13977">
        <ele>106</ele>
        <time>2017-05-07T06:50:35.385Z</time>
      </trkpt>
      <trkpt lat="47.80147" lon="2.13985">
        <ele>106</ele>
        <time>2017-05-07T06:50:36.388Z</time>
      </trkpt>
      <trkpt lat="47.80148" lon="2.1399">
        <ele>106</ele>
        <time>2017-05-07T06:50:37.391Z</time>
      </trkpt>
      <trkpt lat="47.80148" lon="2.1399">
        <ele>106</ele>
        <time>2017-05-07T06:50:38.379Z</time>
      </trkpt>
      <trkpt lat="47.80152" lon="2.13997">
        <ele>107</ele>
        <time>2017-05-07T06:50:39.368Z</time>
      </trkpt>
      <trkpt lat="47.80152" lon="2.13997">
        <ele>107</ele>
        <time>2017-05-07T06:50:40.356Z</time>
      </trkpt>
      <trkpt lat="47.80157" lon="2.14">
        <ele>107</ele>
        <time>2017-05-07T06:50:41.389Z</time>
      </trkpt>
      <trkpt lat="47.80157" lon="2.14">
        <ele>107</ele>
        <time>2017-05-07T06:50:42.384Z</time>
      </trkpt>
      <trkpt lat="47.80162" lon="2.14003">
        <ele>108</ele>
        <time>2017-05-07T06:50:43.363Z</time>
      </trkpt>
      <trkpt lat="47.80162" lon="2.14003">
        <ele>108</ele>
        <time>2017-05-07T06:50:44.356Z</time>
      </trkpt>
      <trkpt lat="47.80167" lon="2.14005">
        <ele>109</ele>
        <time>2017-05-07T06:50:45.389Z</time>
      </trkpt>
      <trkpt lat="47.8017" lon="2.14006">
        <ele>109</ele>
        <time>2017-05-07T06:50:46.388Z</time>
      </trkpt>
      <trkpt lat="47.8017" lon="2.14006">
        <ele>109</ele>
        <time>2017-05-07T06:50:47.385Z</time>
      </trkpt>
      <trkpt lat="47.80175" lon="2.14005">
        <ele>108</ele>
        <time>2017-05-07T06:50:48.390Z</time>
      </trkpt>
      <trkpt lat="47.80178" lon="2.14006">
        <ele>108</ele>
        <time>2017-05-07T06:50:49.356Z</time>
      </trkpt>
      <trkpt lat="47.80178" lon="2.14006">
        <ele>108</ele>
        <time>2017-05-07T06:50:50.387Z</time>
      </trkpt>
      <trkpt lat="47.80184" lon="2.1401">
        <ele>108</ele>
        <time>2017-05-07T06:50:51.390Z</time>
      </trkpt>
      <trkpt lat="47.80184" lon="2.1401">
        <ele>108</ele>
        <time>2017-05-07T06:50:52.385Z</time>
      </trkpt>
      <trkpt lat="47.8019" lon="2.14014">
        <ele>108</ele>
        <time>2017-05-07T06:50:53.363Z</time>
      </trkpt>
      <trkpt lat="47.8019" lon="2.14014">
        <ele>108</ele>
        <time>2017-05-07T06:50:54.392Z</time>
      </trkpt>
      <trkpt lat="47.80197" lon="2.14018">
        <ele>108</ele>
        <time>2017-05-07T06:50:55.392Z</time>
      </trkpt>
      <trkpt lat="47.80197" lon="2.14018">
        <ele>108</ele>
        <time>2017-05-07T06:50:56.386Z</time>
      </trkpt>
      <trkpt lat="47.80203" lon="2.14022">
        <ele>108</ele>
        <time>2017-05-07T06:50:57.390Z</time>
      </trkpt>
      <trkpt lat="47.80207" lon="2.14024">
        <ele>107</ele>
        <time>2017-05-07T06:50:58.390Z</time>
      </trkpt>
      <trkpt lat="47.80207" lon="2.14024">
        <ele>107</ele>
        <time>2017-05-07T06:50:59.380Z</time>
      </trkpt>
      <trkpt lat="47.80214" lon="2.1403">
        <ele>107</ele>
        <time>2017-05-07T06:51:00.361Z</time>
      </trkpt>
      <trkpt lat="47.80217" lon="2.14032">
        <ele>106</ele>
        <time>2017-05-07T06:51:01.392Z</time>
      </trkpt>
      <trkpt lat="47.80217" lon="2.14032">
        <ele>106</ele>
        <time>2017-05-07T06:51:02.384Z</time>
      </trkpt>
      <trkpt lat="47.80224" lon="2.14037">
        <ele>106</ele>
        <time>2017-05-07T06:51:03.389Z</time>
      </trkpt>
      <trkpt lat="47.80224" lon="2.14037">
        <ele>106</ele>
        <time>2017-05-07T06:51:04.387Z</time>
      </trkpt>
      <trkpt lat="47.80231" lon="2.14042">
        <ele>105</ele>
        <time>2017-05-07T06:51:05.388Z</time>
      </trkpt>
      <trkpt lat="47.80231" lon="2.14042">
        <ele>105</ele>
        <time>2017-05-07T06:51:06.386Z</time>
      </trkpt>
      <trkpt lat="47.80239" lon="2.14049">
        <ele>105</ele>
        <time>2017-05-07T06:51:07.362Z</time>
      </trkpt>
      <trkpt lat="47.80239" lon="2.14049">
        <ele>105</ele>
        <time>2017-05-07T06:51:08.361Z</time>
      </trkpt>
      <trkpt lat="47.80248" lon="2.14054">
        <ele>105</ele>
        <time>2017-05-07T06:51:09.356Z</time>
      </trkpt>
      <trkpt lat="47.80248" lon="2.14054">
        <ele>105</ele>
        <time>2017-05-07T06:51:10.386Z</time>
      </trkpt>
      <trkpt lat="47.80258" lon="2.1406">
        <ele>105</ele>
        <time>2017-05-07T06:51:11.390Z</time>
      </trkpt>
      <trkpt lat="47.80262" lon="2.14062">
        <ele>105</ele>
        <time>2017-05-07T06:51:12.388Z</time>
      </trkpt>
      <trkpt lat="47.80262" lon="2.14062">
        <ele>105</ele>
        <time>2017-05-07T06:51:13.387Z</time>
      </trkpt>
      <trkpt lat="47.80271" lon="2.14069">
        <ele>104</ele>
        <time>2017-05-07T06:51:14.391Z</time>
      </trkpt>
      <trkpt lat="47.80276" lon="2.14072">
        <ele>104</ele>
        <time>2017-05-07T06:51:15.388Z</time>
      </trkpt>
      <trkpt lat="47.80276" lon="2.14072">
        <ele>104</ele>
        <time>2017-05-07T06:51:16.379Z</time>
      </trkpt>
      <trkpt lat="47.80286" lon="2.14078">
        <ele>104</ele>
        <time>2017-05-07T06:51:17.364Z</time>
      </trkpt>
      <trkpt lat="47.80286" lon="2.14078">
        <ele>104</ele>
        <time>2017-05-07T06:51:18.355Z</time>
      </trkpt>
      <trkpt lat="47.80295" lon="2.14085">
        <ele>104</ele>
        <time>2017-05-07T06:51:19.390Z</time>
      </trkpt>
      <trkpt lat="47.80295" lon="2.14085">
        <ele>104</ele>
        <time>2017-05-07T06:51:20.382Z</time>
      </trkpt>
      <trkpt lat="47.80304" lon="2.14091">
        <ele>104</ele>
        <time>2017-05-07T06:51:21.385Z</time>
      </trkpt>
      <trkpt lat="47.80304" lon="2.14091">
        <ele>104</ele>
        <time>2017-05-07T06:51:22.385Z</time>
      </trkpt>
      <trkpt lat="47.80313" lon="2.14097">
        <ele>104</ele>
        <time>2017-05-07T06:51:23.366Z</time>
      </trkpt>
      <trkpt lat="47.80313" lon="2.14097">
        <ele>104</ele>
        <time>2017-05-07T06:51:24.394Z</time>
      </trkpt>
      <trkpt lat="47.80322" lon="2.14103">
        <ele>104</ele>
        <time>2017-05-07T06:51:25.392Z</time>
      </trkpt>
      <trkpt lat="47.80322" lon="2.14103">
        <ele>104</ele>
        <time>2017-05-07T06:51:26.385Z</time>
      </trkpt>
      <trkpt lat="47.80331" lon="2.14109">
        <ele>104</ele>
        <time>2017-05-07T06:51:27.391Z</time>
      </trkpt>
      <trkpt lat="47.80331" lon="2.14109">
        <ele>104</ele>
        <time>2017-05-07T06:51:28.385Z</time>
      </trkpt>
      <trkpt lat="47.8034" lon="2.14115">
        <ele>103</ele>
        <time>2017-05-07T06:51:29.356Z</time>
      </trkpt>
      <trkpt lat="47.8034" lon="2.14115">
        <ele>103</ele>
        <time>2017-05-07T06:51:30.386Z</time>
      </trkpt>
      <trkpt lat="47.80351" lon="2.14122">
        <ele>103</ele>
        <time>2017-05-07T06:51:31.393Z</time>
      </trkpt>
      <trkpt lat="47.80351" lon="2.14122">
        <ele>103</ele>
        <time>2017-05-07T06:51:32.358Z</time>
      </trkpt>
      <trkpt lat="47.80361" lon="2.14129">
        <ele>103</ele>
        <time>2017-05-07T06:51:33.375Z</time>
      </trkpt>
      <trkpt lat="47.80361" lon="2.14129">
        <ele>103</ele>
        <time>2017-05-07T06:51:34.367Z</time>
      </trkpt>
      <trkpt lat="47.80371" lon="2.14137">
        <ele>102</ele>
        <time>2017-05-07T06:51:35.359Z</time>
      </trkpt>
      <trkpt lat="47.80371" lon="2.14137">
        <ele>102</ele>
        <time>2017-05-07T06:51:36.389Z</time>
      </trkpt>
      <trkpt lat="47.80382" lon="2.14144">
        <ele>102</ele>
        <time>2017-05-07T06:51:37.392Z</time>
      </trkpt>
      <trkpt lat="47.80382" lon="2.14144">
        <ele>102</ele>
        <time>2017-05-07T06:51:38.385Z</time>
      </trkpt>
      <trkpt lat="47.80393" lon="2.14153">
        <ele>102</ele>
        <time>2017-05-07T06:51:39.390Z</time>
      </trkpt>
      <trkpt lat="47.80393" lon="2.14153">
        <ele>102</ele>
        <time>2017-05-07T06:51:40.385Z</time>
      </trkpt>
      <trkpt lat="47.80404" lon="2.14164">
        <ele>102</ele>
        <time>2017-05-07T06:51:41.389Z</time>
      </trkpt>
      <trkpt lat="47.80404" lon="2.14164">
        <ele>102</ele>
        <time>2017-05-07T06:51:42.384Z</time>
      </trkpt>
      <trkpt lat="47.80414" lon="2.14175">
        <ele>102</ele>
        <time>2017-05-07T06:51:43.364Z</time>
      </trkpt>
      <trkpt lat="47.80414" lon="2.14175">
        <ele>102</ele>
        <time>2017-05-07T06:51:44.394Z</time>
      </trkpt>
      <trkpt lat="47.80425" lon="2.14186">
        <ele>103</ele>
        <time>2017-05-07T06:51:45.390Z</time>
      </trkpt>
      <trkpt lat="47.80425" lon="2.14186">
        <ele>103</ele>
        <time>2017-05-07T06:51:46.382Z</time>
      </trkpt>
      <trkpt lat="47.80437" lon="2.14197">
        <ele>102</ele>
        <time>2017-05-07T06:51:47.389Z</time>
      </trkpt>
      <trkpt lat="47.80437" lon="2.14197">
        <ele>102</ele>
        <time>2017-05-07T06:51:48.384Z</time>
      </trkpt>
      <trkpt lat="47.80449" lon="2.14207">
        <ele>102</ele>
        <time>2017-05-07T06:51:49.390Z</time>
      </trkpt>
      <trkpt lat="47.80449" lon="2.14207">
        <ele>102</ele>
        <time>2017-05-07T06:51:50.384Z</time>
      </trkpt>
      <trkpt lat="47.8046" lon="2.14218">
        <ele>102</ele>
        <time>2017-05-07T06:51:51.391Z</time>
      </trkpt>
      <trkpt lat="47.8046" lon="2.14218">
        <ele>102</ele>
        <time>2017-05-07T06:51:52.392Z</time>
      </trkpt>
      <trkpt lat="47.80471" lon="2.1423">
        <ele>102</ele>
        <time>2017-05-07T06:51:53.366Z</time>
      </trkpt>
      <trkpt lat="47.80471" lon="2.1423">
        <ele>102</ele>
        <time>2017-05-07T06:51:54.355Z</time>
      </trkpt>
      <trkpt lat="47.80482" lon="2.1424">
        <ele>102</ele>
        <time>2017-05-07T06:51:55.393Z</time>
      </trkpt>
      <trkpt lat="47.80482" lon="2.1424">
        <ele>102</ele>
        <time>2017-05-07T06:51:56.384Z</time>
      </trkpt>
      <trkpt lat="47.80493" lon="2.14251">
        <ele>102</ele>
        <time>2017-05-07T06:51:57.389Z</time>
      </trkpt>
      <trkpt lat="47.80493" lon="2.14251">
        <ele>102</ele>
        <time>2017-05-07T06:51:58.385Z</time>
      </trkpt>
      <trkpt lat="47.80503" lon="2.14262">
        <ele>101</ele>
        <time>2017-05-07T06:51:59.369Z</time>
      </trkpt>
      <trkpt lat="47.80503" lon="2.14262">
        <ele>101</ele>
        <time>2017-05-07T06:52:00.373Z</time>
      </trkpt>
      <trkpt lat="47.80514" lon="2.14272">
        <ele>101</ele>
        <time>2017-05-07T06:52:01.362Z</time>
      </trkpt>
      <trkpt lat="47.80514" lon="2.14272">
        <ele>101</ele>
        <time>2017-05-07T06:52:02.390Z</time>
      </trkpt>
      <trkpt lat="47.80523" lon="2.14283">
        <ele>101</ele>
        <time>2017-05-07T06:52:03.365Z</time>
      </trkpt>
      <trkpt lat="47.80526" lon="2.14287">
        <ele>101</ele>
        <time>2017-05-07T06:52:04.361Z</time>
      </trkpt>
      <trkpt lat="47.80526" lon="2.14287">
        <ele>101</ele>
        <time>2017-05-07T06:52:05.390Z</time>
      </trkpt>
      <trkpt lat="47.80533" lon="2.14295">
        <ele>101</ele>
        <time>2017-05-07T06:52:06.390Z</time>
      </trkpt>
      <trkpt lat="47.80538" lon="2.14299">
        <ele>101</ele>
        <time>2017-05-07T06:52:07.392Z</time>
      </trkpt>
      <trkpt lat="47.80538" lon="2.14299">
        <ele>101</ele>
        <time>2017-05-07T06:52:08.385Z</time>
      </trkpt>
      <trkpt lat="47.80544" lon="2.14306">
        <ele>101</ele>
        <time>2017-05-07T06:52:09.364Z</time>
      </trkpt>
      <trkpt lat="47.80544" lon="2.14306">
        <ele>101</ele>
        <time>2017-05-07T06:52:10.393Z</time>
      </trkpt>
      <trkpt lat="47.80547" lon="2.14315">
        <ele>101</ele>
        <time>2017-05-07T06:52:11.390Z</time>
      </trkpt>
      <trkpt lat="47.80547" lon="2.14315">
        <ele>101</ele>
        <time>2017-05-07T06:52:12.385Z</time>
      </trkpt>
      <trkpt lat="47.80547" lon="2.14329">
        <ele>100</ele>
        <time>2017-05-07T06:52:13.364Z</time>
      </trkpt>
      <trkpt lat="47.80547" lon="2.14329">
        <ele>100</ele>
        <time>2017-05-07T06:52:14.356Z</time>
      </trkpt>
      <trkpt lat="47.80547" lon="2.14344">
        <ele>100</ele>
        <time>2017-05-07T06:52:15.391Z</time>
      </trkpt>
      <trkpt lat="47.80547" lon="2.14344">
        <ele>100</ele>
        <time>2017-05-07T06:52:16.385Z</time>
      </trkpt>
      <trkpt lat="47.80546" lon="2.1436">
        <ele>100</ele>
        <time>2017-05-07T06:52:17.389Z</time>
      </trkpt>
      <trkpt lat="47.80546" lon="2.1436">
        <ele>100</ele>
        <time>2017-05-07T06:52:18.393Z</time>
      </trkpt>
      <trkpt lat="47.80544" lon="2.14375">
        <ele>100</ele>
        <time>2017-05-07T06:52:19.391Z</time>
      </trkpt>
      <trkpt lat="47.80544" lon="2.14375">
        <ele>100</ele>
        <time>2017-05-07T06:52:20.383Z</time>
      </trkpt>
      <trkpt lat="47.80541" lon="2.1439">
        <ele>100</ele>
        <time>2017-05-07T06:52:21.391Z</time>
      </trkpt>
      <trkpt lat="47.80541" lon="2.1439">
        <ele>100</ele>
        <time>2017-05-07T06:52:22.386Z</time>
      </trkpt>
      <trkpt lat="47.8054" lon="2.14405">
        <ele>101</ele>
        <time>2017-05-07T06:52:23.389Z</time>
      </trkpt>
      <trkpt lat="47.80539" lon="2.14413">
        <ele>100</ele>
        <time>2017-05-07T06:52:24.390Z</time>
      </trkpt>
      <trkpt lat="47.80538" lon="2.1442">
        <ele>100</ele>
        <time>2017-05-07T06:52:25.392Z</time>
      </trkpt>
      <trkpt lat="47.80538" lon="2.1442">
        <ele>100</ele>
        <time>2017-05-07T06:52:26.384Z</time>
      </trkpt>
      <trkpt lat="47.80536" lon="2.14434">
        <ele>100</ele>
        <time>2017-05-07T06:52:27.390Z</time>
      </trkpt>
      <trkpt lat="47.80535" lon="2.14442">
        <ele>100</ele>
        <time>2017-05-07T06:52:28.390Z</time>
      </trkpt>
      <trkpt lat="47.80535" lon="2.14442">
        <ele>100</ele>
        <time>2017-05-07T06:52:29.386Z</time>
      </trkpt>
      <trkpt lat="47.80534" lon="2.14456">
        <ele>100</ele>
        <time>2017-05-07T06:52:30.388Z</time>
      </trkpt>
      <trkpt lat="47.80533" lon="2.14463">
        <ele>100</ele>
        <time>2017-05-07T06:52:31.356Z</time>
      </trkpt>
      <trkpt lat="47.80533" lon="2.14463">
        <ele>100</ele>
        <time>2017-05-07T06:52:32.386Z</time>
      </trkpt>
      <trkpt lat="47.80531" lon="2.14477">
        <ele>100</ele>
        <time>2017-05-07T06:52:33.365Z</time>
      </trkpt>
      <trkpt lat="47.80531" lon="2.14477">
        <ele>100</ele>
        <time>2017-05-07T06:52:34.393Z</time>
      </trkpt>
      <trkpt lat="47.8053" lon="2.14492">
        <ele>100</ele>
        <time>2017-05-07T06:52:35.391Z</time>
      </trkpt>
      <trkpt lat="47.8053" lon="2.14492">
        <ele>100</ele>
        <time>2017-05-07T06:52:36.394Z</time>
      </trkpt>
      <trkpt lat="47.80528" lon="2.14507">
        <ele>100</ele>
        <time>2017-05-07T06:52:37.392Z</time>
      </trkpt>
      <trkpt lat="47.80528" lon="2.14507">
        <ele>100</ele>
        <time>2017-05-07T06:52:38.385Z</time>
      </trkpt>
      <trkpt lat="47.80526" lon="2.14523">
        <ele>99</ele>
        <time>2017-05-07T06:52:39.365Z</time>
      </trkpt>
      <trkpt lat="47.80525" lon="2.14531">
        <ele>99</ele>
        <time>2017-05-07T06:52:40.394Z</time>
      </trkpt>
      <trkpt lat="47.80525" lon="2.14531">
        <ele>99</ele>
        <time>2017-05-07T06:52:41.385Z</time>
      </trkpt>
      <trkpt lat="47.80523" lon="2.14547">
        <ele>99</ele>
        <time>2017-05-07T06:52:42.374Z</time>
      </trkpt>
      <trkpt lat="47.80522" lon="2.14555">
        <ele>99</ele>
        <time>2017-05-07T06:52:43.367Z</time>
      </trkpt>
      <trkpt lat="47.80522" lon="2.14555">
        <ele>99</ele>
        <time>2017-05-07T06:52:44.365Z</time>
      </trkpt>
      <trkpt lat="47.80521" lon="2.1457">
        <ele>99</ele>
        <time>2017-05-07T06:52:45.395Z</time>
      </trkpt>
      <trkpt lat="47.80521" lon="2.1457">
        <ele>99</ele>
        <time>2017-05-07T06:52:46.355Z</time>
      </trkpt>
      <trkpt lat="47.80519" lon="2.14584">
        <ele>99</ele>
        <time>2017-05-07T06:52:47.391Z</time>
      </trkpt>
      <trkpt lat="47.80519" lon="2.14584">
        <ele>99</ele>
        <time>2017-05-07T06:52:48.386Z</time>
      </trkpt>
      <trkpt lat="47.80517" lon="2.14599">
        <ele>99</ele>
        <time>2017-05-07T06:52:49.356Z</time>
      </trkpt>
      <trkpt lat="47.80517" lon="2.14599">
        <ele>99</ele>
        <time>2017-05-07T06:52:50.384Z</time>
      </trkpt>
      <trkpt lat="47.80515" lon="2.14614">
        <ele>99</ele>
        <time>2017-05-07T06:52:51.382Z</time>
      </trkpt>
      <trkpt lat="47.80515" lon="2.14614">
        <ele>99</ele>
        <time>2017-05-07T06:52:52.385Z</time>
      </trkpt>
      <trkpt lat="47.80514" lon="2.14629">
        <ele>99</ele>
        <time>2017-05-07T06:52:53.365Z</time>
      </trkpt>
      <trkpt lat="47.80514" lon="2.14629">
        <ele>99</ele>
        <time>2017-05-07T06:52:54.393Z</time>
      </trkpt>
      <trkpt lat="47.80513" lon="2.14644">
        <ele>99</ele>
        <time>2017-05-07T06:52:55.391Z</time>
      </trkpt>
      <trkpt lat="47.80513" lon="2.14644">
        <ele>99</ele>
        <time>2017-05-07T06:52:56.384Z</time>
      </trkpt>
      <trkpt lat="47.80511" lon="2.14658">
        <ele>99</ele>
        <time>2017-05-07T06:52:57.391Z</time>
      </trkpt>
      <trkpt lat="47.80511" lon="2.14658">
        <ele>99</ele>
        <time>2017-05-07T06:52:58.384Z</time>
      </trkpt>
      <trkpt lat="47.8051" lon="2.14673">
        <ele>100</ele>
        <time>2017-05-07T06:52:59.390Z</time>
      </trkpt>
      <trkpt lat="47.80509" lon="2.1468">
        <ele>100</ele>
        <time>2017-05-07T06:53:00.395Z</time>
      </trkpt>
      <trkpt lat="47.80509" lon="2.14687">
        <ele>100</ele>
        <time>2017-05-07T06:53:01.392Z</time>
      </trkpt>
      <trkpt lat="47.80508" lon="2.14694">
        <ele>100</ele>
        <time>2017-05-07T06:53:02.392Z</time>
      </trkpt>
      <trkpt lat="47.80508" lon="2.14694">
        <ele>100</ele>
        <time>2017-05-07T06:53:03.386Z</time>
      </trkpt>
      <trkpt lat="47.80507" lon="2.14709">
        <ele>100</ele>
        <time>2017-05-07T06:53:04.365Z</time>
      </trkpt>
      <trkpt lat="47.80507" lon="2.14709">
        <ele>100</ele>
        <time>2017-05-07T06:53:05.394Z</time>
      </trkpt>
      <trkpt lat="47.80506" lon="2.14724">
        <ele>100</ele>
        <time>2017-05-07T06:53:06.388Z</time>
      </trkpt>
      <trkpt lat="47.80505" lon="2.14731">
        <ele>99</ele>
        <time>2017-05-07T06:53:07.367Z</time>
      </trkpt>
      <trkpt lat="47.80505" lon="2.14731">
        <ele>99</ele>
        <time>2017-05-07T06:53:08.355Z</time>
      </trkpt>
      <trkpt lat="47.80503" lon="2.14746">
        <ele>99</ele>
        <time>2017-05-07T06:53:09.392Z</time>
      </trkpt>
      <trkpt lat="47.80503" lon="2.14746">
        <ele>99</ele>
        <time>2017-05-07T06:53:10.385Z</time>
      </trkpt>
      <trkpt lat="47.80501" lon="2.14761">
        <ele>98</ele>
        <time>2017-05-07T06:53:11.391Z</time>
      </trkpt>
      <trkpt lat="47.80501" lon="2.14761">
        <ele>98</ele>
        <time>2017-05-07T06:53:12.386Z</time>
      </trkpt>
      <trkpt lat="47.80498" lon="2.14777">
        <ele>98</ele>
        <time>2017-05-07T06:53:13.366Z</time>
      </trkpt>
      <trkpt lat="47.80498" lon="2.14777">
        <ele>98</ele>
        <time>2017-05-07T06:53:14.363Z</time>
      </trkpt>
      <trkpt lat="47.80498" lon="2.14793">
        <ele>98</ele>
        <time>2017-05-07T06:53:15.392Z</time>
      </trkpt>
      <trkpt lat="47.80498" lon="2.14793">
        <ele>98</ele>
        <time>2017-05-07T06:53:16.385Z</time>
      </trkpt>
      <trkpt lat="47.80496" lon="2.1481">
        <ele>97</ele>
        <time>2017-05-07T06:53:17.390Z</time>
      </trkpt>
      <trkpt lat="47.80496" lon="2.1481">
        <ele>97</ele>
        <time>2017-05-07T06:53:18.357Z</time>
      </trkpt>
      <trkpt lat="47.80496" lon="2.14826">
        <ele>97</ele>
        <time>2017-05-07T06:53:19.391Z</time>
      </trkpt>
      <trkpt lat="47.80495" lon="2.14834">
        <ele>97</ele>
        <time>2017-05-07T06:53:20.389Z</time>
      </trkpt>
      <trkpt lat="47.80495" lon="2.14843">
        <ele>97</ele>
        <time>2017-05-07T06:53:21.391Z</time>
      </trkpt>
      <trkpt lat="47.80495" lon="2.14843">
        <ele>97</ele>
        <time>2017-05-07T06:53:22.383Z</time>
      </trkpt>
      <trkpt lat="47.80494" lon="2.14858">
        <ele>97</ele>
        <time>2017-05-07T06:53:23.389Z</time>
      </trkpt>
      <trkpt lat="47.80493" lon="2.14867">
        <ele>97</ele>
        <time>2017-05-07T06:53:24.390Z</time>
      </trkpt>
      <trkpt lat="47.80492" lon="2.14875">
        <ele>97</ele>
        <time>2017-05-07T06:53:25.391Z</time>
      </trkpt>
      <trkpt lat="47.80492" lon="2.14875">
        <ele>97</ele>
        <time>2017-05-07T06:53:26.359Z</time>
      </trkpt>
      <trkpt lat="47.80491" lon="2.14892">
        <ele>96</ele>
        <time>2017-05-07T06:53:27.390Z</time>
      </trkpt>
      <trkpt lat="47.8049" lon="2.149">
        <ele>96</ele>
        <time>2017-05-07T06:53:28.391Z</time>
      </trkpt>
      <trkpt lat="47.8049" lon="2.14909">
        <ele>96</ele>
        <time>2017-05-07T06:53:29.392Z</time>
      </trkpt>
      <trkpt lat="47.8049" lon="2.14909">
        <ele>96</ele>
        <time>2017-05-07T06:53:30.386Z</time>
      </trkpt>
      <trkpt lat="47.80489" lon="2.14925">
        <ele>97</ele>
        <time>2017-05-07T06:53:31.391Z</time>
      </trkpt>
      <trkpt lat="47.80489" lon="2.14925">
        <ele>97</ele>
        <time>2017-05-07T06:53:32.385Z</time>
      </trkpt>
      <trkpt lat="47.80489" lon="2.14942">
        <ele>97</ele>
        <time>2017-05-07T06:53:33.367Z</time>
      </trkpt>
      <trkpt lat="47.80489" lon="2.1495">
        <ele>97</ele>
        <time>2017-05-07T06:53:34.358Z</time>
      </trkpt>
      <trkpt lat="47.80489" lon="2.1495">
        <ele>97</ele>
        <time>2017-05-07T06:53:35.387Z</time>
      </trkpt>
      <trkpt lat="47.80488" lon="2.14966">
        <ele>97</ele>
        <time>2017-05-07T06:53:36.391Z</time>
      </trkpt>
      <trkpt lat="47.80488" lon="2.14974">
        <ele>97</ele>
        <time>2017-05-07T06:53:37.391Z</time>
      </trkpt>
      <trkpt lat="47.80488" lon="2.14974">
        <ele>97</ele>
        <time>2017-05-07T06:53:38.385Z</time>
      </trkpt>
      <trkpt lat="47.80487" lon="2.14991">
        <ele>97</ele>
        <time>2017-05-07T06:53:39.392Z</time>
      </trkpt>
      <trkpt lat="47.80487" lon="2.14991">
        <ele>97</ele>
        <time>2017-05-07T06:53:40.386Z</time>
      </trkpt>
      <trkpt lat="47.80486" lon="2.15006">
        <ele>97</ele>
        <time>2017-05-07T06:53:41.391Z</time>
      </trkpt>
      <trkpt lat="47.80486" lon="2.15014">
        <ele>96</ele>
        <time>2017-05-07T06:53:42.389Z</time>
      </trkpt>
      <trkpt lat="47.80486" lon="2.15014">
        <ele>96</ele>
        <time>2017-05-07T06:53:43.388Z</time>
      </trkpt>
      <trkpt lat="47.80486" lon="2.1503">
        <ele>96</ele>
        <time>2017-05-07T06:53:44.389Z</time>
      </trkpt>
      <trkpt lat="47.80485" lon="2.15039">
        <ele>96</ele>
        <time>2017-05-07T06:53:45.390Z</time>
      </trkpt>
      <trkpt lat="47.80485" lon="2.15039">
        <ele>96</ele>
        <time>2017-05-07T06:53:46.355Z</time>
      </trkpt>
      <trkpt lat="47.80485" lon="2.15057">
        <ele>96</ele>
        <time>2017-05-07T06:53:47.391Z</time>
      </trkpt>
      <trkpt lat="47.80485" lon="2.15057">
        <ele>96</ele>
        <time>2017-05-07T06:53:48.386Z</time>
      </trkpt>
      <trkpt lat="47.80484" lon="2.15077">
        <ele>97</ele>
        <time>2017-05-07T06:53:49.363Z</time>
      </trkpt>
      <trkpt lat="47.80484" lon="2.15077">
        <ele>97</ele>
        <time>2017-05-07T06:53:50.392Z</time>
      </trkpt>
      <trkpt lat="47.80483" lon="2.15096">
        <ele>97</ele>
        <time>2017-05-07T06:53:51.390Z</time>
      </trkpt>
      <trkpt lat="47.80483" lon="2.15096">
        <ele>97</ele>
        <time>2017-05-07T06:53:52.386Z</time>
      </trkpt>
      <trkpt lat="47.80482" lon="2.15117">
        <ele>97</ele>
        <time>2017-05-07T06:53:53.366Z</time>
      </trkpt>
      <trkpt lat="47.80482" lon="2.15127">
        <ele>97</ele>
        <time>2017-05-07T06:53:54.355Z</time>
      </trkpt>
      <trkpt lat="47.80482" lon="2.15127">
        <ele>97</ele>
        <time>2017-05-07T06:53:55.390Z</time>
      </trkpt>
      <trkpt lat="47.80481" lon="2.15148">
        <ele>97</ele>
        <time>2017-05-07T06:53:56.390Z</time>
      </trkpt>
      <trkpt lat="47.80481" lon="2.15158">
        <ele>97</ele>
        <time>2017-05-07T06:53:57.390Z</time>
      </trkpt>
      <trkpt lat="47.80481" lon="2.15169">
        <ele>97</ele>
        <time>2017-05-07T06:53:58.391Z</time>
      </trkpt>
      <trkpt lat="47.80481" lon="2.15169">
        <ele>97</ele>
        <time>2017-05-07T06:53:59.356Z</time>
      </trkpt>
      <trkpt lat="47.8048" lon="2.15189">
        <ele>98</ele>
        <time>2017-05-07T06:54:00.358Z</time>
      </trkpt>
      <trkpt lat="47.8048" lon="2.15199">
        <ele>97</ele>
        <time>2017-05-07T06:54:01.394Z</time>
      </trkpt>
      <trkpt lat="47.8048" lon="2.15199">
        <ele>97</ele>
        <time>2017-05-07T06:54:02.386Z</time>
      </trkpt>
      <trkpt lat="47.80479" lon="2.1522">
        <ele>97</ele>
        <time>2017-05-07T06:54:03.391Z</time>
      </trkpt>
      <trkpt lat="47.80479" lon="2.1522">
        <ele>97</ele>
        <time>2017-05-07T06:54:04.385Z</time>
      </trkpt>
      <trkpt lat="47.80479" lon="2.15242">
        <ele>97</ele>
        <time>2017-05-07T06:54:05.391Z</time>
      </trkpt>
      <trkpt lat="47.80479" lon="2.15242">
        <ele>97</ele>
        <time>2017-05-07T06:54:06.386Z</time>
      </trkpt>
      <trkpt lat="47.80478" lon="2.15265">
        <ele>97</ele>
        <time>2017-05-07T06:54:07.364Z</time>
      </trkpt>
      <trkpt lat="47.80477" lon="2.15277">
        <ele>97</ele>
        <time>2017-05-07T06:54:08.395Z</time>
      </trkpt>
      <trkpt lat="47.80477" lon="2.15277">
        <ele>97</ele>
        <time>2017-05-07T06:54:09.390Z</time>
      </trkpt>
      <trkpt lat="47.80477" lon="2.15301">
        <ele>97</ele>
        <time>2017-05-07T06:54:10.356Z</time>
      </trkpt>
      <trkpt lat="47.80477" lon="2.15301">
        <ele>97</ele>
        <time>2017-05-07T06:54:11.387Z</time>
      </trkpt>
      <trkpt lat="47.80476" lon="2.15323">
        <ele>98</ele>
        <time>2017-05-07T06:54:12.388Z</time>
      </trkpt>
      <trkpt lat="47.80476" lon="2.15334">
        <ele>97</ele>
        <time>2017-05-07T06:54:13.394Z</time>
      </trkpt>
      <trkpt lat="47.80476" lon="2.15334">
        <ele>97</ele>
        <time>2017-05-07T06:54:14.386Z</time>
      </trkpt>
      <trkpt lat="47.80474" lon="2.15356">
        <ele>97</ele>
        <time>2017-05-07T06:54:15.366Z</time>
      </trkpt>
      <trkpt lat="47.80474" lon="2.15356">
        <ele>97</ele>
        <time>2017-05-07T06:54:16.393Z</time>
      </trkpt>
      <trkpt lat="47.80473" lon="2.15379">
        <ele>98</ele>
        <time>2017-05-07T06:54:17.392Z</time>
      </trkpt>
      <trkpt lat="47.80473" lon="2.15379">
        <ele>98</ele>
        <time>2017-05-07T06:54:18.391Z</time>
      </trkpt>
      <trkpt lat="47.80474" lon="2.15403">
        <ele>98</ele>
        <time>2017-05-07T06:54:19.384Z</time>
      </trkpt>
      <trkpt lat="47.80474" lon="2.15403">
        <ele>98</ele>
        <time>2017-05-07T06:54:20.361Z</time>
      </trkpt>
      <trkpt lat="47.80476" lon="2.15427">
        <ele>98</ele>
        <time>2017-05-07T06:54:21.391Z</time>
      </trkpt>
      <trkpt lat="47.80476" lon="2.15427">
        <ele>98</ele>
        <time>2017-05-07T06:54:22.383Z</time>
      </trkpt>
      <trkpt lat="47.8048" lon="2.15452">
        <ele>99</ele>
        <time>2017-05-07T06:54:23.386Z</time>
      </trkpt>
      <trkpt lat="47.8048" lon="2.15452">
        <ele>99</ele>
        <time>2017-05-07T06:54:24.386Z</time>
      </trkpt>
      <trkpt lat="47.80484" lon="2.15475">
        <ele>99</ele>
        <time>2017-05-07T06:54:25.394Z</time>
      </trkpt>
      <trkpt lat="47.80484" lon="2.15475">
        <ele>99</ele>
        <time>2017-05-07T06:54:26.386Z</time>
      </trkpt>
      <trkpt lat="47.80487" lon="2.15497">
        <ele>99</ele>
        <time>2017-05-07T06:54:27.391Z</time>
      </trkpt>
      <trkpt lat="47.80487" lon="2.15497">
        <ele>99</ele>
        <time>2017-05-07T06:54:28.385Z</time>
      </trkpt>
      <trkpt lat="47.80491" lon="2.15518">
        <ele>99</ele>
        <time>2017-05-07T06:54:29.387Z</time>
      </trkpt>
      <trkpt lat="47.80491" lon="2.15518">
        <ele>99</ele>
        <time>2017-05-07T06:54:30.382Z</time>
      </trkpt>
      <trkpt lat="47.80494" lon="2.15538">
        <ele>99</ele>
        <time>2017-05-07T06:54:31.394Z</time>
      </trkpt>
      <trkpt lat="47.80494" lon="2.15538">
        <ele>99</ele>
        <time>2017-05-07T06:54:32.386Z</time>
      </trkpt>
      <trkpt lat="47.80497" lon="2.15557">
        <ele>99</ele>
        <time>2017-05-07T06:54:33.391Z</time>
      </trkpt>
      <trkpt lat="47.80497" lon="2.15557">
        <ele>99</ele>
        <time>2017-05-07T06:54:34.392Z</time>
      </trkpt>
      <trkpt lat="47.805" lon="2.15575">
        <ele>99</ele>
        <time>2017-05-07T06:54:35.393Z</time>
      </trkpt>
      <trkpt lat="47.805" lon="2.15575">
        <ele>99</ele>
        <time>2017-05-07T06:54:36.386Z</time>
      </trkpt>
      <trkpt lat="47.80503" lon="2.15591">
        <ele>99</ele>
        <time>2017-05-07T06:54:37.394Z</time>
      </trkpt>
      <trkpt lat="47.80503" lon="2.15591">
        <ele>99</ele>
        <time>2017-05-07T06:54:38.387Z</time>
      </trkpt>
      <trkpt lat="47.80505" lon="2.15607">
        <ele>98</ele>
        <time>2017-05-07T06:54:39.390Z</time>
      </trkpt>
      <trkpt lat="47.80505" lon="2.15607">
        <ele>98</ele>
        <time>2017-05-07T06:54:40.392Z</time>
      </trkpt>
      <trkpt lat="47.80506" lon="2.15623">
        <ele>98</ele>
        <time>2017-05-07T06:54:41.390Z</time>
      </trkpt>
      <trkpt lat="47.80506" lon="2.15623">
        <ele>98</ele>
        <time>2017-05-07T06:54:42.385Z</time>
      </trkpt>
      <trkpt lat="47.80509" lon="2.15637">
        <ele>98</ele>
        <time>2017-05-07T06:54:43.365Z</time>
      </trkpt>
      <trkpt lat="47.80509" lon="2.15637">
        <ele>98</ele>
        <time>2017-05-07T06:54:44.394Z</time>
      </trkpt>
      <trkpt lat="47.80511" lon="2.15651">
        <ele>98</ele>
        <time>2017-05-07T06:54:45.390Z</time>
      </trkpt>
      <trkpt lat="47.80511" lon="2.15651">
        <ele>98</ele>
        <time>2017-05-07T06:54:46.385Z</time>
      </trkpt>
      <trkpt lat="47.80512" lon="2.15663">
        <ele>97</ele>
        <time>2017-05-07T06:54:47.388Z</time>
      </trkpt>
      <trkpt lat="47.80512" lon="2.15663">
        <ele>97</ele>
        <time>2017-05-07T06:54:48.386Z</time>
      </trkpt>
      <trkpt lat="47.80512" lon="2.15669">
        <ele>97</ele>
        <time>2017-05-07T06:54:49.376Z</time>
      </trkpt>
      <trkpt lat="47.80512" lon="2.15669">
        <ele>97</ele>
        <time>2017-05-07T06:54:50.365Z</time>
      </trkpt>
      <trkpt lat="47.80511" lon="2.15675">
        <ele>98</ele>
        <time>2017-05-07T06:54:51.358Z</time>
      </trkpt>
      <trkpt lat="47.80511" lon="2.15675">
        <ele>98</ele>
        <time>2017-05-07T06:54:52.371Z</time>
      </trkpt>
      <trkpt lat="47.80508" lon="2.15678">
        <ele>97</ele>
        <time>2017-05-07T06:54:53.367Z</time>
      </trkpt>
      <trkpt lat="47.80508" lon="2.15678">
        <ele>97</ele>
        <time>2017-05-07T06:54:54.356Z</time>
      </trkpt>
      <trkpt lat="47.80505" lon="2.15681">
        <ele>97</ele>
        <time>2017-05-07T06:54:55.394Z</time>
      </trkpt>
      <trkpt lat="47.80505" lon="2.15681">
        <ele>97</ele>
        <time>2017-05-07T06:54:56.386Z</time>
      </trkpt>
      <trkpt lat="47.80503" lon="2.15683">
        <ele>98</ele>
        <time>2017-05-07T06:54:57.389Z</time>
      </trkpt>
      <trkpt lat="47.80503" lon="2.15683">
        <ele>98</ele>
        <time>2017-05-07T06:54:58.386Z</time>
      </trkpt>
      <trkpt lat="47.80502" lon="2.15686">
        <ele>98</ele>
        <time>2017-05-07T06:54:59.392Z</time>
      </trkpt>
      <trkpt lat="47.80501" lon="2.15687">
        <ele>98</ele>
        <time>2017-05-07T06:55:00.393Z</time>
      </trkpt>
      <trkpt lat="47.80501" lon="2.15689">
        <ele>99</ele>
        <time>2017-05-07T06:55:01.355Z</time>
      </trkpt>
      <trkpt lat="47.80501" lon="2.15689">
        <ele>99</ele>
        <time>2017-05-07T06:55:02.386Z</time>
      </trkpt>
      <trkpt lat="47.80501" lon="2.15692">
        <ele>99</ele>
        <time>2017-05-07T06:55:03.364Z</time>
      </trkpt>
      <trkpt lat="47.80501" lon="2.15692">
        <ele>99</ele>
        <time>2017-05-07T06:55:04.391Z</time>
      </trkpt>
      <trkpt lat="47.80502" lon="2.15692">
        <ele>99</ele>
        <time>2017-05-07T06:55:05.395Z</time>
      </trkpt>
      <trkpt lat="47.80502" lon="2.15692">
        <ele>99</ele>
        <time>2017-05-07T06:55:06.372Z</time>
      </trkpt>
      <trkpt lat="47.80502" lon="2.15692">
        <ele>99</ele>
        <time>2017-05-07T06:55:07.360Z</time>
      </trkpt>
      <trkpt lat="47.805" lon="2.15704">
        <ele>99</ele>
        <time>2017-05-07T06:55:08.365Z</time>
      </trkpt>
      <trkpt lat="47.805" lon="2.15707">
        <ele>99</ele>
        <time>2017-05-07T06:55:09.365Z</time>
      </trkpt>
      <trkpt lat="47.80499" lon="2.15711">
        <ele>100</ele>
        <time>2017-05-07T06:55:10.370Z</time>
      </trkpt>
      <trkpt lat="47.80499" lon="2.15716">
        <ele>100</ele>
        <time>2017-05-07T06:55:11.376Z</time>
      </trkpt>
      <trkpt lat="47.80499" lon="2.15716">
        <ele>100</ele>
        <time>2017-05-07T06:55:12.365Z</time>
      </trkpt>
      <trkpt lat="47.80498" lon="2.15728">
        <ele>100</ele>
        <time>2017-05-07T06:55:13.363Z</time>
      </trkpt>
      <trkpt lat="47.80497" lon="2.15733">
        <ele>101</ele>
        <time>2017-05-07T06:55:14.360Z</time>
      </trkpt>
      <trkpt lat="47.80497" lon="2.15733">
        <ele>101</ele>
        <time>2017-05-07T06:55:15.390Z</time>
      </trkpt>
      <trkpt lat="47.80495" lon="2.15747">
        <ele>101</ele>
        <time>2017-05-07T06:55:16.378Z</time>
      </trkpt>
      <trkpt lat="47.80495" lon="2.15747">
        <ele>101</ele>
        <time>2017-05-07T06:55:17.366Z</time>
      </trkpt>
      <trkpt lat="47.80492" lon="2.1576">
        <ele>102</ele>
        <time>2017-05-07T06:55:18.364Z</time>
      </trkpt>
      <trkpt lat="47.80492" lon="2.1576">
        <ele>102</ele>
        <time>2017-05-07T06:55:19.359Z</time>
      </trkpt>
      <trkpt lat="47.80488" lon="2.15772">
        <ele>102</ele>
        <time>2017-05-07T06:55:20.367Z</time>
      </trkpt>
      <trkpt lat="47.80485" lon="2.15778">
        <ele>102</ele>
        <time>2017-05-07T06:55:21.365Z</time>
      </trkpt>
      <trkpt lat="47.8048" lon="2.15782">
        <ele>102</ele>
        <time>2017-05-07T06:55:22.369Z</time>
      </trkpt>
      <trkpt lat="47.8048" lon="2.15782">
        <ele>102</ele>
        <time>2017-05-07T06:55:23.359Z</time>
      </trkpt>
      <trkpt lat="47.80473" lon="2.15791">
        <ele>103</ele>
        <time>2017-05-07T06:55:24.367Z</time>
      </trkpt>
      <trkpt lat="47.8047" lon="2.15795">
        <ele>103</ele>
        <time>2017-05-07T06:55:25.363Z</time>
      </trkpt>
      <trkpt lat="47.8047" lon="2.15795">
        <ele>103</ele>
        <time>2017-05-07T06:55:26.376Z</time>
      </trkpt>
      <trkpt lat="47.80462" lon="2.15803">
        <ele>104</ele>
        <time>2017-05-07T06:55:27.366Z</time>
      </trkpt>
      <trkpt lat="47.80459" lon="2.15807">
        <ele>104</ele>
        <time>2017-05-07T06:55:28.368Z</time>
      </trkpt>
      <trkpt lat="47.80459" lon="2.15807">
        <ele>104</ele>
        <time>2017-05-07T06:55:29.360Z</time>
      </trkpt>
      <trkpt lat="47.80454" lon="2.15817">
        <ele>104</ele>
        <time>2017-05-07T06:55:30.365Z</time>
      </trkpt>
      <trkpt lat="47.80454" lon="2.15817">
        <ele>104</ele>
        <time>2017-05-07T06:55:31.362Z</time>
      </trkpt>
      <trkpt lat="47.8045" lon="2.15827">
        <ele>105</ele>
        <time>2017-05-07T06:55:32.362Z</time>
      </trkpt>
      <trkpt lat="47.80449" lon="2.15834">
        <ele>105</ele>
        <time>2017-05-07T06:55:33.367Z</time>
      </trkpt>
      <trkpt lat="47.80448" lon="2.15842">
        <ele>105</ele>
        <time>2017-05-07T06:55:34.369Z</time>
      </trkpt>
      <trkpt lat="47.80448" lon="2.15842">
        <ele>105</ele>
        <time>2017-05-07T06:55:35.360Z</time>
      </trkpt>
      <trkpt lat="47.80447" lon="2.15857">
        <ele>105</ele>
        <time>2017-05-07T06:55:36.387Z</time>
      </trkpt>
      <trkpt lat="47.80447" lon="2.15857">
        <ele>105</ele>
        <time>2017-05-07T06:55:37.374Z</time>
      </trkpt>
      <trkpt lat="47.80443" lon="2.15872">
        <ele>106</ele>
        <time>2017-05-07T06:55:38.364Z</time>
      </trkpt>
      <trkpt lat="47.80443" lon="2.15872">
        <ele>106</ele>
        <time>2017-05-07T06:55:39.359Z</time>
      </trkpt>
      <trkpt lat="47.80439" lon="2.15886">
        <ele>106</ele>
        <time>2017-05-07T06:55:40.368Z</time>
      </trkpt>
      <trkpt lat="47.80439" lon="2.15886">
        <ele>106</ele>
        <time>2017-05-07T06:55:41.360Z</time>
      </trkpt>
      <trkpt lat="47.80434" lon="2.15899">
        <ele>107</ele>
        <time>2017-05-07T06:55:42.367Z</time>
      </trkpt>
      <trkpt lat="47.80434" lon="2.15899">
        <ele>107</ele>
        <time>2017-05-07T06:55:43.360Z</time>
      </trkpt>
      <trkpt lat="47.8043" lon="2.15911">
        <ele>107</ele>
        <time>2017-05-07T06:55:44.364Z</time>
      </trkpt>
      <trkpt lat="47.8043" lon="2.15911">
        <ele>107</ele>
        <time>2017-05-07T06:55:45.362Z</time>
      </trkpt>
      <trkpt lat="47.80426" lon="2.15924">
        <ele>108</ele>
        <time>2017-05-07T06:55:46.368Z</time>
      </trkpt>
      <trkpt lat="47.80426" lon="2.15924">
        <ele>108</ele>
        <time>2017-05-07T06:55:47.360Z</time>
      </trkpt>
      <trkpt lat="47.80421" lon="2.15937">
        <ele>109</ele>
        <time>2017-05-07T06:55:48.364Z</time>
      </trkpt>
      <trkpt lat="47.80421" lon="2.15937">
        <ele>109</ele>
        <time>2017-05-07T06:55:49.359Z</time>
      </trkpt>
      <trkpt lat="47.80417" lon="2.15949">
        <ele>110</ele>
        <time>2017-05-07T06:55:50.366Z</time>
      </trkpt>
      <trkpt lat="47.80414" lon="2.15957">
        <ele>110</ele>
        <time>2017-05-07T06:55:51.366Z</time>
      </trkpt>
      <trkpt lat="47.80414" lon="2.15957">
        <ele>110</ele>
        <time>2017-05-07T06:55:52.363Z</time>
      </trkpt>
      <trkpt lat="47.80409" lon="2.15971">
        <ele>110</ele>
        <time>2017-05-07T06:55:53.362Z</time>
      </trkpt>
      <trkpt lat="47.80409" lon="2.15971">
        <ele>110</ele>
        <time>2017-05-07T06:55:54.358Z</time>
      </trkpt>
      <trkpt lat="47.80406" lon="2.15985">
        <ele>111</ele>
        <time>2017-05-07T06:55:55.364Z</time>
      </trkpt>
      <trkpt lat="47.80406" lon="2.15985">
        <ele>111</ele>
        <time>2017-05-07T06:55:56.360Z</time>
      </trkpt>
      <trkpt lat="47.80403" lon="2.15997">
        <ele>112</ele>
        <time>2017-05-07T06:55:57.363Z</time>
      </trkpt>
      <trkpt lat="47.80402" lon="2.16003">
        <ele>112</ele>
        <time>2017-05-07T06:55:58.368Z</time>
      </trkpt>
      <trkpt lat="47.80402" lon="2.16003">
        <ele>112</ele>
        <time>2017-05-07T06:55:59.359Z</time>
      </trkpt>
      <trkpt lat="47.80401" lon="2.16014">
        <ele>113</ele>
        <time>2017-05-07T06:56:00.366Z</time>
      </trkpt>
      <trkpt lat="47.80401" lon="2.16014">
        <ele>113</ele>
        <time>2017-05-07T06:56:01.359Z</time>
      </trkpt>
      <trkpt lat="47.804" lon="2.16027">
        <ele>114</ele>
        <time>2017-05-07T06:56:02.367Z</time>
      </trkpt>
      <trkpt lat="47.804" lon="2.16027">
        <ele>114</ele>
        <time>2017-05-07T06:56:03.359Z</time>
      </trkpt>
      <trkpt lat="47.80397" lon="2.1604">
        <ele>114</ele>
        <time>2017-05-07T06:56:04.367Z</time>
      </trkpt>
      <trkpt lat="47.80397" lon="2.1604">
        <ele>114</ele>
        <time>2017-05-07T06:56:05.358Z</time>
      </trkpt>
      <trkpt lat="47.80395" lon="2.16053">
        <ele>115</ele>
        <time>2017-05-07T06:56:06.362Z</time>
      </trkpt>
      <trkpt lat="47.80395" lon="2.16053">
        <ele>115</ele>
        <time>2017-05-07T06:56:07.360Z</time>
      </trkpt>
      <trkpt lat="47.80392" lon="2.16067">
        <ele>115</ele>
        <time>2017-05-07T06:56:08.364Z</time>
      </trkpt>
      <trkpt lat="47.80392" lon="2.16067">
        <ele>115</ele>
        <time>2017-05-07T06:56:09.356Z</time>
      </trkpt>
      <trkpt lat="47.8039" lon="2.16081">
        <ele>115</ele>
        <time>2017-05-07T06:56:10.372Z</time>
      </trkpt>
      <trkpt lat="47.8039" lon="2.16081">
        <ele>115</ele>
        <time>2017-05-07T06:56:11.359Z</time>
      </trkpt>
      <trkpt lat="47.80389" lon="2.16094">
        <ele>116</ele>
        <time>2017-05-07T06:56:12.363Z</time>
      </trkpt>
      <trkpt lat="47.80389" lon="2.16094">
        <ele>116</ele>
        <time>2017-05-07T06:56:13.359Z</time>
      </trkpt>
      <trkpt lat="47.80388" lon="2.16106">
        <ele>116</ele>
        <time>2017-05-07T06:56:14.379Z</time>
      </trkpt>
      <trkpt lat="47.80388" lon="2.16106">
        <ele>116</ele>
        <time>2017-05-07T06:56:15.367Z</time>
      </trkpt>
      <trkpt lat="47.80386" lon="2.16118">
        <ele>117</ele>
        <time>2017-05-07T06:56:16.366Z</time>
      </trkpt>
      <trkpt lat="47.80386" lon="2.16118">
        <ele>117</ele>
        <time>2017-05-07T06:56:17.360Z</time>
      </trkpt>
      <trkpt lat="47.80382" lon="2.1613">
        <ele>117</ele>
        <time>2017-05-07T06:56:18.368Z</time>
      </trkpt>
      <trkpt lat="47.80381" lon="2.16136">
        <ele>118</ele>
        <time>2017-05-07T06:56:19.362Z</time>
      </trkpt>
      <trkpt lat="47.80381" lon="2.16136">
        <ele>118</ele>
        <time>2017-05-07T06:56:20.359Z</time>
      </trkpt>
      <trkpt lat="47.80376" lon="2.16152">
        <ele>118</ele>
        <time>2017-05-07T06:56:21.365Z</time>
      </trkpt>
      <trkpt lat="47.80374" lon="2.16164">
        <ele>118</ele>
        <time>2017-05-07T06:56:22.367Z</time>
      </trkpt>
      <trkpt lat="47.80374" lon="2.16164">
        <ele>118</ele>
        <time>2017-05-07T06:56:23.363Z</time>
      </trkpt>
      <trkpt lat="47.8037" lon="2.16183">
        <ele>119</ele>
        <time>2017-05-07T06:56:24.362Z</time>
      </trkpt>
      <trkpt lat="47.8037" lon="2.16183">
        <ele>119</ele>
        <time>2017-05-07T06:56:25.359Z</time>
      </trkpt>
      <trkpt lat="47.80365" lon="2.16199">
        <ele>119</ele>
        <time>2017-05-07T06:56:26.364Z</time>
      </trkpt>
      <trkpt lat="47.80365" lon="2.16199">
        <ele>119</ele>
        <time>2017-05-07T06:56:27.360Z</time>
      </trkpt>
      <trkpt lat="47.80361" lon="2.16215">
        <ele>119</ele>
        <time>2017-05-07T06:56:28.368Z</time>
      </trkpt>
      <trkpt lat="47.80361" lon="2.16215">
        <ele>119</ele>
        <time>2017-05-07T06:56:29.358Z</time>
      </trkpt>
      <trkpt lat="47.8036" lon="2.16229">
        <ele>119</ele>
        <time>2017-05-07T06:56:30.364Z</time>
      </trkpt>
      <trkpt lat="47.8036" lon="2.16229">
        <ele>119</ele>
        <time>2017-05-07T06:56:31.359Z</time>
      </trkpt>
      <trkpt lat="47.80359" lon="2.16241">
        <ele>119</ele>
        <time>2017-05-07T06:56:32.363Z</time>
      </trkpt>
      <trkpt lat="47.80359" lon="2.16241">
        <ele>119</ele>
        <time>2017-05-07T06:56:33.359Z</time>
      </trkpt>
      <trkpt lat="47.80358" lon="2.16252">
        <ele>120</ele>
        <time>2017-05-07T06:56:34.367Z</time>
      </trkpt>
      <trkpt lat="47.80358" lon="2.16252">
        <ele>120</ele>
        <time>2017-05-07T06:56:35.359Z</time>
      </trkpt>
      <trkpt lat="47.80354" lon="2.16262">
        <ele>120</ele>
        <time>2017-05-07T06:56:36.364Z</time>
      </trkpt>
      <trkpt lat="47.80354" lon="2.16262">
        <ele>120</ele>
        <time>2017-05-07T06:56:37.359Z</time>
      </trkpt>
      <trkpt lat="47.80355" lon="2.1627">
        <ele>121</ele>
        <time>2017-05-07T06:56:38.364Z</time>
      </trkpt>
      <trkpt lat="47.80355" lon="2.1627">
        <ele>121</ele>
        <time>2017-05-07T06:56:39.359Z</time>
      </trkpt>
      <trkpt lat="47.80355" lon="2.16275">
        <ele>121</ele>
        <time>2017-05-07T06:56:40.366Z</time>
      </trkpt>
      <trkpt lat="47.80355" lon="2.16275">
        <ele>121</ele>
        <time>2017-05-07T06:56:41.369Z</time>
      </trkpt>
      <trkpt lat="47.80355" lon="2.16281">
        <ele>122</ele>
        <time>2017-05-07T06:56:42.366Z</time>
      </trkpt>
      <trkpt lat="47.80355" lon="2.16281">
        <ele>122</ele>
        <time>2017-05-07T06:56:43.361Z</time>
      </trkpt>
      <trkpt lat="47.80355" lon="2.16284">
        <ele>122</ele>
        <time>2017-05-07T06:56:44.378Z</time>
      </trkpt>
      <trkpt lat="47.80355" lon="2.16284">
        <ele>122</ele>
        <time>2017-05-07T06:56:45.369Z</time>
      </trkpt>
      <trkpt lat="47.80355" lon="2.16285">
        <ele>122</ele>
        <time>2017-05-07T06:56:46.368Z</time>
      </trkpt>
      <trkpt lat="47.80355" lon="2.16285">
        <ele>122</ele>
        <time>2017-05-07T06:56:47.359Z</time>
      </trkpt>
      <trkpt lat="47.80355" lon="2.16285">
        <ele>122</ele>
        <time>2017-05-07T06:56:48.360Z</time>
      </trkpt>
      <trkpt lat="47.80349" lon="2.16305">
        <ele>117</ele>
        <time>2017-05-07T06:56:49.395Z</time>
      </trkpt>
      <trkpt lat="47.80349" lon="2.16305">
        <ele>117</ele>
        <time>2017-05-07T06:56:50.368Z</time>
      </trkpt>
      <trkpt lat="47.80347" lon="2.16311">
        <ele>117</ele>
        <time>2017-05-07T06:56:51.358Z</time>
      </trkpt>
      <trkpt lat="47.80346" lon="2.16314">
        <ele>117</ele>
        <time>2017-05-07T06:56:52.358Z</time>
      </trkpt>
      <trkpt lat="47.80346" lon="2.16314">
        <ele>117</ele>
        <time>2017-05-07T06:56:53.392Z</time>
      </trkpt>
      <trkpt lat="47.80344" lon="2.16322">
        <ele>117</ele>
        <time>2017-05-07T06:56:54.374Z</time>
      </trkpt>
      <trkpt lat="47.80344" lon="2.16322">
        <ele>117</ele>
        <time>2017-05-07T06:56:55.363Z</time>
      </trkpt>
      <trkpt lat="47.80342" lon="2.16331">
        <ele>117</ele>
        <time>2017-05-07T06:56:56.358Z</time>
      </trkpt>
      <trkpt lat="47.80342" lon="2.16331">
        <ele>117</ele>
        <time>2017-05-07T06:56:57.355Z</time>
      </trkpt>
      <trkpt lat="47.8034" lon="2.16339">
        <ele>117</ele>
        <time>2017-05-07T06:56:58.356Z</time>
      </trkpt>
      <trkpt lat="47.8034" lon="2.16339">
        <ele>117</ele>
        <time>2017-05-07T06:56:59.390Z</time>
      </trkpt>
      <trkpt lat="47.80338" lon="2.16348">
        <ele>116</ele>
        <time>2017-05-07T06:57:00.393Z</time>
      </trkpt>
      <trkpt lat="47.80338" lon="2.16348">
        <ele>116</ele>
        <time>2017-05-07T06:57:01.389Z</time>
      </trkpt>
      <trkpt lat="47.80336" lon="2.16358">
        <ele>116</ele>
        <time>2017-05-07T06:57:02.385Z</time>
      </trkpt>
      <trkpt lat="47.80336" lon="2.16358">
        <ele>116</ele>
        <time>2017-05-07T06:57:03.390Z</time>
      </trkpt>
      <trkpt lat="47.80333" lon="2.16369">
        <ele>116</ele>
        <time>2017-05-07T06:57:04.357Z</time>
      </trkpt>
      <trkpt lat="47.80333" lon="2.16369">
        <ele>116</ele>
        <time>2017-05-07T06:57:05.391Z</time>
      </trkpt>
      <trkpt lat="47.80329" lon="2.16381">
        <ele>116</ele>
        <time>2017-05-07T06:57:06.357Z</time>
      </trkpt>
      <trkpt lat="47.80329" lon="2.16381">
        <ele>116</ele>
        <time>2017-05-07T06:57:07.390Z</time>
      </trkpt>
      <trkpt lat="47.80326" lon="2.16396">
        <ele>116</ele>
        <time>2017-05-07T06:57:08.394Z</time>
      </trkpt>
      <trkpt lat="47.80326" lon="2.16396">
        <ele>116</ele>
        <time>2017-05-07T06:57:09.383Z</time>
      </trkpt>
      <trkpt lat="47.80323" lon="2.16408">
        <ele>116</ele>
        <time>2017-05-07T06:57:10.371Z</time>
      </trkpt>
      <trkpt lat="47.80323" lon="2.16408">
        <ele>116</ele>
        <time>2017-05-07T06:57:11.371Z</time>
      </trkpt>
      <trkpt lat="47.8032" lon="2.1642">
        <ele>116</ele>
        <time>2017-05-07T06:57:12.362Z</time>
      </trkpt>
      <trkpt lat="47.8032" lon="2.1642">
        <ele>116</ele>
        <time>2017-05-07T06:57:13.391Z</time>
      </trkpt>
      <trkpt lat="47.80317" lon="2.16432">
        <ele>116</ele>
        <time>2017-05-07T06:57:14.356Z</time>
      </trkpt>
      <trkpt lat="47.80315" lon="2.16439">
        <ele>116</ele>
        <time>2017-05-07T06:57:15.355Z</time>
      </trkpt>
      <trkpt lat="47.80315" lon="2.16439">
        <ele>116</ele>
        <time>2017-05-07T06:57:16.392Z</time>
      </trkpt>
      <trkpt lat="47.80312" lon="2.16452">
        <ele>116</ele>
        <time>2017-05-07T06:57:17.355Z</time>
      </trkpt>
      <trkpt lat="47.80312" lon="2.16452">
        <ele>116</ele>
        <time>2017-05-07T06:57:18.390Z</time>
      </trkpt>
      <trkpt lat="47.80309" lon="2.16464">
        <ele>115</ele>
        <time>2017-05-07T06:57:19.394Z</time>
      </trkpt>
      <trkpt lat="47.80309" lon="2.16464">
        <ele>115</ele>
        <time>2017-05-07T06:57:20.391Z</time>
      </trkpt>
      <trkpt lat="47.80307" lon="2.16479">
        <ele>115</ele>
        <time>2017-05-07T06:57:21.362Z</time>
      </trkpt>
      <trkpt lat="47.80306" lon="2.16486">
        <ele>115</ele>
        <time>2017-05-07T06:57:22.360Z</time>
      </trkpt>
      <trkpt lat="47.80306" lon="2.16486">
        <ele>115</ele>
        <time>2017-05-07T06:57:23.391Z</time>
      </trkpt>
      <trkpt lat="47.80305" lon="2.16501">
        <ele>115</ele>
        <time>2017-05-07T06:57:24.357Z</time>
      </trkpt>
      <trkpt lat="47.80305" lon="2.16501">
        <ele>115</ele>
        <time>2017-05-07T06:57:25.391Z</time>
      </trkpt>
      <trkpt lat="47.80302" lon="2.16513">
        <ele>114</ele>
        <time>2017-05-07T06:57:26.358Z</time>
      </trkpt>
      <trkpt lat="47.80302" lon="2.16513">
        <ele>114</ele>
        <time>2017-05-07T06:57:27.390Z</time>
      </trkpt>
      <trkpt lat="47.80299" lon="2.16525">
        <ele>114</ele>
        <time>2017-05-07T06:57:28.357Z</time>
      </trkpt>
      <trkpt lat="47.80299" lon="2.16525">
        <ele>114</ele>
        <time>2017-05-07T06:57:29.390Z</time>
      </trkpt>
      <trkpt lat="47.80296" lon="2.16538">
        <ele>114</ele>
        <time>2017-05-07T06:57:30.395Z</time>
      </trkpt>
      <trkpt lat="47.80296" lon="2.16538">
        <ele>114</ele>
        <time>2017-05-07T06:57:31.391Z</time>
      </trkpt>
      <trkpt lat="47.80294" lon="2.16553">
        <ele>113</ele>
        <time>2017-05-07T06:57:32.390Z</time>
      </trkpt>
      <trkpt lat="47.80294" lon="2.16553">
        <ele>113</ele>
        <time>2017-05-07T06:57:33.385Z</time>
      </trkpt>
      <trkpt lat="47.80291" lon="2.16569">
        <ele>113</ele>
        <time>2017-05-07T06:57:34.370Z</time>
      </trkpt>
      <trkpt lat="47.80291" lon="2.16569">
        <ele>113</ele>
        <time>2017-05-07T06:57:35.357Z</time>
      </trkpt>
      <trkpt lat="47.80288" lon="2.16584">
        <ele>113</ele>
        <time>2017-05-07T06:57:36.356Z</time>
      </trkpt>
      <trkpt lat="47.80288" lon="2.16584">
        <ele>113</ele>
        <time>2017-05-07T06:57:37.355Z</time>
      </trkpt>
      <trkpt lat="47.80285" lon="2.16598">
        <ele>112</ele>
        <time>2017-05-07T06:57:38.356Z</time>
      </trkpt>
      <trkpt lat="47.80285" lon="2.16598">
        <ele>112</ele>
        <time>2017-05-07T06:57:39.389Z</time>
      </trkpt>
      <trkpt lat="47.80281" lon="2.16613">
        <ele>112</ele>
        <time>2017-05-07T06:57:40.358Z</time>
      </trkpt>
      <trkpt lat="47.80281" lon="2.16613">
        <ele>112</ele>
        <time>2017-05-07T06:57:41.390Z</time>
      </trkpt>
      <trkpt lat="47.80279" lon="2.16627">
        <ele>112</ele>
        <time>2017-05-07T06:57:42.394Z</time>
      </trkpt>
      <trkpt lat="47.80279" lon="2.16627">
        <ele>112</ele>
        <time>2017-05-07T06:57:43.390Z</time>
      </trkpt>
      <trkpt lat="47.80276" lon="2.16643">
        <ele>112</ele>
        <time>2017-05-07T06:57:44.355Z</time>
      </trkpt>
      <trkpt lat="47.80276" lon="2.16643">
        <ele>112</ele>
        <time>2017-05-07T06:57:45.392Z</time>
      </trkpt>
      <trkpt lat="47.80272" lon="2.16658">
        <ele>112</ele>
        <time>2017-05-07T06:57:46.357Z</time>
      </trkpt>
      <trkpt lat="47.80272" lon="2.16658">
        <ele>112</ele>
        <time>2017-05-07T06:57:47.393Z</time>
      </trkpt>
      <trkpt lat="47.80268" lon="2.16675">
        <ele>113</ele>
        <time>2017-05-07T06:57:48.357Z</time>
      </trkpt>
      <trkpt lat="47.80268" lon="2.16675">
        <ele>113</ele>
        <time>2017-05-07T06:57:49.392Z</time>
      </trkpt>
      <trkpt lat="47.80265" lon="2.16691">
        <ele>113</ele>
        <time>2017-05-07T06:57:50.394Z</time>
      </trkpt>
      <trkpt lat="47.80263" lon="2.16698">
        <ele>113</ele>
        <time>2017-05-07T06:57:51.357Z</time>
      </trkpt>
      <trkpt lat="47.80263" lon="2.16698">
        <ele>113</ele>
        <time>2017-05-07T06:57:52.392Z</time>
      </trkpt>
      <trkpt lat="47.80261" lon="2.16716">
        <ele>113</ele>
        <time>2017-05-07T06:57:53.355Z</time>
      </trkpt>
      <trkpt lat="47.80259" lon="2.16723">
        <ele>114</ele>
        <time>2017-05-07T06:57:54.356Z</time>
      </trkpt>
      <trkpt lat="47.80259" lon="2.16723">
        <ele>114</ele>
        <time>2017-05-07T06:57:55.387Z</time>
      </trkpt>
      <trkpt lat="47.80256" lon="2.16738">
        <ele>114</ele>
        <time>2017-05-07T06:57:56.368Z</time>
      </trkpt>
      <trkpt lat="47.80255" lon="2.16746">
        <ele>114</ele>
        <time>2017-05-07T06:57:57.377Z</time>
      </trkpt>
      <trkpt lat="47.80253" lon="2.16754">
        <ele>114</ele>
        <time>2017-05-07T06:57:58.360Z</time>
      </trkpt>
      <trkpt lat="47.80253" lon="2.16754">
        <ele>114</ele>
        <time>2017-05-07T06:57:59.388Z</time>
      </trkpt>
      <trkpt lat="47.80249" lon="2.1677">
        <ele>115</ele>
        <time>2017-05-07T06:58:00.394Z</time>
      </trkpt>
      <trkpt lat="47.80249" lon="2.1677">
        <ele>115</ele>
        <time>2017-05-07T06:58:01.384Z</time>
      </trkpt>
      <trkpt lat="47.80246" lon="2.16785">
        <ele>115</ele>
        <time>2017-05-07T06:58:02.394Z</time>
      </trkpt>
      <trkpt lat="47.80245" lon="2.16794">
        <ele>115</ele>
        <time>2017-05-07T06:58:03.356Z</time>
      </trkpt>
      <trkpt lat="47.80244" lon="2.16802">
        <ele>115</ele>
        <time>2017-05-07T06:58:04.358Z</time>
      </trkpt>
      <trkpt lat="47.80244" lon="2.16802">
        <ele>115</ele>
        <time>2017-05-07T06:58:05.368Z</time>
      </trkpt>
      <trkpt lat="47.80241" lon="2.16818">
        <ele>115</ele>
        <time>2017-05-07T06:58:06.357Z</time>
      </trkpt>
      <trkpt lat="47.80241" lon="2.16818">
        <ele>115</ele>
        <time>2017-05-07T06:58:07.392Z</time>
      </trkpt>
      <trkpt lat="47.80237" lon="2.16834">
        <ele>116</ele>
        <time>2017-05-07T06:58:08.355Z</time>
      </trkpt>
      <trkpt lat="47.80237" lon="2.16834">
        <ele>116</ele>
        <time>2017-05-07T06:58:09.392Z</time>
      </trkpt>
      <trkpt lat="47.80234" lon="2.1685">
        <ele>116</ele>
        <time>2017-05-07T06:58:10.358Z</time>
      </trkpt>
      <trkpt lat="47.80232" lon="2.16858">
        <ele>116</ele>
        <time>2017-05-07T06:58:11.356Z</time>
      </trkpt>
      <trkpt lat="47.80232" lon="2.16858">
        <ele>116</ele>
        <time>2017-05-07T06:58:12.391Z</time>
      </trkpt>
      <trkpt lat="47.80228" lon="2.16874">
        <ele>117</ele>
        <time>2017-05-07T06:58:13.394Z</time>
      </trkpt>
      <trkpt lat="47.80228" lon="2.16874">
        <ele>117</ele>
        <time>2017-05-07T06:58:14.391Z</time>
      </trkpt>
      <trkpt lat="47.80223" lon="2.16889">
        <ele>117</ele>
        <time>2017-05-07T06:58:15.356Z</time>
      </trkpt>
      <trkpt lat="47.8022" lon="2.16896">
        <ele>117</ele>
        <time>2017-05-07T06:58:16.359Z</time>
      </trkpt>
      <trkpt lat="47.8022" lon="2.16896">
        <ele>117</ele>
        <time>2017-05-07T06:58:17.392Z</time>
      </trkpt>
      <trkpt lat="47.80216" lon="2.16911">
        <ele>117</ele>
        <time>2017-05-07T06:58:18.358Z</time>
      </trkpt>
      <trkpt lat="47.80216" lon="2.16911">
        <ele>117</ele>
        <time>2017-05-07T06:58:19.390Z</time>
      </trkpt>
      <trkpt lat="47.80215" lon="2.16927">
        <ele>117</ele>
        <time>2017-05-07T06:58:20.356Z</time>
      </trkpt>
      <trkpt lat="47.80215" lon="2.16927">
        <ele>117</ele>
        <time>2017-05-07T06:58:21.358Z</time>
      </trkpt>
      <trkpt lat="47.80215" lon="2.16943">
        <ele>117</ele>
        <time>2017-05-07T06:58:22.359Z</time>
      </trkpt>
      <trkpt lat="47.80215" lon="2.16943">
        <ele>117</ele>
        <time>2017-05-07T06:58:23.391Z</time>
      </trkpt>
      <trkpt lat="47.80214" lon="2.16961">
        <ele>117</ele>
        <time>2017-05-07T06:58:24.389Z</time>
      </trkpt>
      <trkpt lat="47.80214" lon="2.16961">
        <ele>117</ele>
        <time>2017-05-07T06:58:25.387Z</time>
      </trkpt>
      <trkpt lat="47.80212" lon="2.16977">
        <ele>117</ele>
        <time>2017-05-07T06:58:26.356Z</time>
      </trkpt>
      <trkpt lat="47.80212" lon="2.16977">
        <ele>117</ele>
        <time>2017-05-07T06:58:27.391Z</time>
      </trkpt>
      <trkpt lat="47.8021" lon="2.16994">
        <ele>117</ele>
        <time>2017-05-07T06:58:28.355Z</time>
      </trkpt>
      <trkpt lat="47.8021" lon="2.16994">
        <ele>117</ele>
        <time>2017-05-07T06:58:29.391Z</time>
      </trkpt>
      <trkpt lat="47.80206" lon="2.1701">
        <ele>117</ele>
        <time>2017-05-07T06:58:30.379Z</time>
      </trkpt>
      <trkpt lat="47.80206" lon="2.1701">
        <ele>117</ele>
        <time>2017-05-07T06:58:31.367Z</time>
      </trkpt>
      <trkpt lat="47.80203" lon="2.17026">
        <ele>117</ele>
        <time>2017-05-07T06:58:32.356Z</time>
      </trkpt>
      <trkpt lat="47.80203" lon="2.17026">
        <ele>117</ele>
        <time>2017-05-07T06:58:33.390Z</time>
      </trkpt>
      <trkpt lat="47.80199" lon="2.17043">
        <ele>117</ele>
        <time>2017-05-07T06:58:34.358Z</time>
      </trkpt>
      <trkpt lat="47.80199" lon="2.17043">
        <ele>117</ele>
        <time>2017-05-07T06:58:35.393Z</time>
      </trkpt>
      <trkpt lat="47.80195" lon="2.1706">
        <ele>118</ele>
        <time>2017-05-07T06:58:36.389Z</time>
      </trkpt>
      <trkpt lat="47.80195" lon="2.1706">
        <ele>118</ele>
        <time>2017-05-07T06:58:37.391Z</time>
      </trkpt>
      <trkpt lat="47.80191" lon="2.17077">
        <ele>118</ele>
        <time>2017-05-07T06:58:38.386Z</time>
      </trkpt>
      <trkpt lat="47.80189" lon="2.17086">
        <ele>118</ele>
        <time>2017-05-07T06:58:39.356Z</time>
      </trkpt>
      <trkpt lat="47.80188" lon="2.17094">
        <ele>118</ele>
        <time>2017-05-07T06:58:40.359Z</time>
      </trkpt>
      <trkpt lat="47.80186" lon="2.17103">
        <ele>118</ele>
        <time>2017-05-07T06:58:41.358Z</time>
      </trkpt>
      <trkpt lat="47.80186" lon="2.17103">
        <ele>118</ele>
        <time>2017-05-07T06:58:42.392Z</time>
      </trkpt>
      <trkpt lat="47.80184" lon="2.17119">
        <ele>118</ele>
        <time>2017-05-07T06:58:43.359Z</time>
      </trkpt>
      <trkpt lat="47.80182" lon="2.17127">
        <ele>118</ele>
        <time>2017-05-07T06:58:44.357Z</time>
      </trkpt>
      <trkpt lat="47.80182" lon="2.17127">
        <ele>118</ele>
        <time>2017-05-07T06:58:45.394Z</time>
      </trkpt>
      <trkpt lat="47.80181" lon="2.17142">
        <ele>118</ele>
        <time>2017-05-07T06:58:46.371Z</time>
      </trkpt>
      <trkpt lat="47.80181" lon="2.17142">
        <ele>118</ele>
        <time>2017-05-07T06:58:47.362Z</time>
      </trkpt>
      <trkpt lat="47.80179" lon="2.17157">
        <ele>118</ele>
        <time>2017-05-07T06:58:48.356Z</time>
      </trkpt>
      <trkpt lat="47.80179" lon="2.17157">
        <ele>118</ele>
        <time>2017-05-07T06:58:49.391Z</time>
      </trkpt>
      <trkpt lat="47.80176" lon="2.17174">
        <ele>119</ele>
        <time>2017-05-07T06:58:50.356Z</time>
      </trkpt>
      <trkpt lat="47.80176" lon="2.17174">
        <ele>119</ele>
        <time>2017-05-07T06:58:51.392Z</time>
      </trkpt>
      <trkpt lat="47.80173" lon="2.1719">
        <ele>119</ele>
        <time>2017-05-07T06:58:52.359Z</time>
      </trkpt>
      <trkpt lat="47.80173" lon="2.1719">
        <ele>119</ele>
        <time>2017-05-07T06:58:53.356Z</time>
      </trkpt>
      <trkpt lat="47.8017" lon="2.17207">
        <ele>119</ele>
        <time>2017-05-07T06:58:54.355Z</time>
      </trkpt>
      <trkpt lat="47.8017" lon="2.17207">
        <ele>119</ele>
        <time>2017-05-07T06:58:55.391Z</time>
      </trkpt>
      <trkpt lat="47.80167" lon="2.17222">
        <ele>119</ele>
        <time>2017-05-07T06:58:56.357Z</time>
      </trkpt>
      <trkpt lat="47.80167" lon="2.17222">
        <ele>119</ele>
        <time>2017-05-07T06:58:57.391Z</time>
      </trkpt>
      <trkpt lat="47.80164" lon="2.17235">
        <ele>120</ele>
        <time>2017-05-07T06:58:58.392Z</time>
      </trkpt>
      <trkpt lat="47.80164" lon="2.17235">
        <ele>120</ele>
        <time>2017-05-07T06:58:59.385Z</time>
      </trkpt>
      <trkpt lat="47.80162" lon="2.17248">
        <ele>120</ele>
        <time>2017-05-07T06:59:00.357Z</time>
      </trkpt>
      <trkpt lat="47.80162" lon="2.17248">
        <ele>120</ele>
        <time>2017-05-07T06:59:01.390Z</time>
      </trkpt>
      <trkpt lat="47.80159" lon="2.17263">
        <ele>120</ele>
        <time>2017-05-07T06:59:02.394Z</time>
      </trkpt>
      <trkpt lat="47.80159" lon="2.17263">
        <ele>120</ele>
        <time>2017-05-07T06:59:03.388Z</time>
      </trkpt>
      <trkpt lat="47.80156" lon="2.17276">
        <ele>121</ele>
        <time>2017-05-07T06:59:04.356Z</time>
      </trkpt>
      <trkpt lat="47.80156" lon="2.17276">
        <ele>121</ele>
        <time>2017-05-07T06:59:05.386Z</time>
      </trkpt>
      <trkpt lat="47.80154" lon="2.1729">
        <ele>121</ele>
        <time>2017-05-07T06:59:06.356Z</time>
      </trkpt>
      <trkpt lat="47.80153" lon="2.17297">
        <ele>121</ele>
        <time>2017-05-07T06:59:07.355Z</time>
      </trkpt>
      <trkpt lat="47.80153" lon="2.17297">
        <ele>121</ele>
        <time>2017-05-07T06:59:08.391Z</time>
      </trkpt>
      <trkpt lat="47.8015" lon="2.1731">
        <ele>122</ele>
        <time>2017-05-07T06:59:09.355Z</time>
      </trkpt>
      <trkpt lat="47.80149" lon="2.17318">
        <ele>122</ele>
        <time>2017-05-07T06:59:10.360Z</time>
      </trkpt>
      <trkpt lat="47.80149" lon="2.17318">
        <ele>122</ele>
        <time>2017-05-07T06:59:11.392Z</time>
      </trkpt>
      <trkpt lat="47.80147" lon="2.17334">
        <ele>122</ele>
        <time>2017-05-07T06:59:12.357Z</time>
      </trkpt>
      <trkpt lat="47.80147" lon="2.17334">
        <ele>122</ele>
        <time>2017-05-07T06:59:13.392Z</time>
      </trkpt>
      <trkpt lat="47.80146" lon="2.17348">
        <ele>122</ele>
        <time>2017-05-07T06:59:14.357Z</time>
      </trkpt>
      <trkpt lat="47.80146" lon="2.17348">
        <ele>122</ele>
        <time>2017-05-07T06:59:15.392Z</time>
      </trkpt>
      <trkpt lat="47.80144" lon="2.17362">
        <ele>122</ele>
        <time>2017-05-07T06:59:16.358Z</time>
      </trkpt>
      <trkpt lat="47.80144" lon="2.17362">
        <ele>122</ele>
        <time>2017-05-07T06:59:17.391Z</time>
      </trkpt>
      <trkpt lat="47.80141" lon="2.17376">
        <ele>123</ele>
        <time>2017-05-07T06:59:18.357Z</time>
      </trkpt>
      <trkpt lat="47.80141" lon="2.17376">
        <ele>123</ele>
        <time>2017-05-07T06:59:19.391Z</time>
      </trkpt>
      <trkpt lat="47.8014" lon="2.17391">
        <ele>123</ele>
        <time>2017-05-07T06:59:20.394Z</time>
      </trkpt>
      <trkpt lat="47.80139" lon="2.17398">
        <ele>123</ele>
        <time>2017-05-07T06:59:21.359Z</time>
      </trkpt>
      <trkpt lat="47.80138" lon="2.17404">
        <ele>123</ele>
        <time>2017-05-07T06:59:22.360Z</time>
      </trkpt>
      <trkpt lat="47.80138" lon="2.17404">
        <ele>123</ele>
        <time>2017-05-07T06:59:23.391Z</time>
      </trkpt>
      <trkpt lat="47.80136" lon="2.1742">
        <ele>124</ele>
        <time>2017-05-07T06:59:24.356Z</time>
      </trkpt>
      <trkpt lat="47.80136" lon="2.1742">
        <ele>124</ele>
        <time>2017-05-07T06:59:25.392Z</time>
      </trkpt>
      <trkpt lat="47.80133" lon="2.17437">
        <ele>124</ele>
        <time>2017-05-07T06:59:26.356Z</time>
      </trkpt>
      <trkpt lat="47.80133" lon="2.17437">
        <ele>124</ele>
        <time>2017-05-07T06:59:27.391Z</time>
      </trkpt>
      <trkpt lat="47.80131" lon="2.17452">
        <ele>125</ele>
        <time>2017-05-07T06:59:28.367Z</time>
      </trkpt>
      <trkpt lat="47.80131" lon="2.17452">
        <ele>125</ele>
        <time>2017-05-07T06:59:29.356Z</time>
      </trkpt>
      <trkpt lat="47.8013" lon="2.17467">
        <ele>125</ele>
        <time>2017-05-07T06:59:30.357Z</time>
      </trkpt>
      <trkpt lat="47.8013" lon="2.17467">
        <ele>125</ele>
        <time>2017-05-07T06:59:31.391Z</time>
      </trkpt>
      <trkpt lat="47.80128" lon="2.17481">
        <ele>126</ele>
        <time>2017-05-07T06:59:32.357Z</time>
      </trkpt>
      <trkpt lat="47.80128" lon="2.17481">
        <ele>126</ele>
        <time>2017-05-07T06:59:33.355Z</time>
      </trkpt>
      <trkpt lat="47.80127" lon="2.17495">
        <ele>126</ele>
        <time>2017-05-07T06:59:34.389Z</time>
      </trkpt>
      <trkpt lat="47.80127" lon="2.17495">
        <ele>126</ele>
        <time>2017-05-07T06:59:35.392Z</time>
      </trkpt>
      <trkpt lat="47.80124" lon="2.1751">
        <ele>126</ele>
        <time>2017-05-07T06:59:36.355Z</time>
      </trkpt>
      <trkpt lat="47.80122" lon="2.17518">
        <ele>126</ele>
        <time>2017-05-07T06:59:37.378Z</time>
      </trkpt>
      <trkpt lat="47.80122" lon="2.17518">
        <ele>126</ele>
        <time>2017-05-07T06:59:38.365Z</time>
      </trkpt>
      <trkpt lat="47.8012" lon="2.17531">
        <ele>126</ele>
        <time>2017-05-07T06:59:39.358Z</time>
      </trkpt>
      <trkpt lat="47.80119" lon="2.17538">
        <ele>126</ele>
        <time>2017-05-07T06:59:40.358Z</time>
      </trkpt>
      <trkpt lat="47.80119" lon="2.17538">
        <ele>126</ele>
        <time>2017-05-07T06:59:41.392Z</time>
      </trkpt>
      <trkpt lat="47.80117" lon="2.17552">
        <ele>127</ele>
        <time>2017-05-07T06:59:42.358Z</time>
      </trkpt>
      <trkpt lat="47.80116" lon="2.17559">
        <ele>127</ele>
        <time>2017-05-07T06:59:43.358Z</time>
      </trkpt>
      <trkpt lat="47.80116" lon="2.17559">
        <ele>127</ele>
        <time>2017-05-07T06:59:44.393Z</time>
      </trkpt>
      <trkpt lat="47.80114" lon="2.17574">
        <ele>127</ele>
        <time>2017-05-07T06:59:45.356Z</time>
      </trkpt>
      <trkpt lat="47.80114" lon="2.17574">
        <ele>127</ele>
        <time>2017-05-07T06:59:46.387Z</time>
      </trkpt>
      <trkpt lat="47.80111" lon="2.17589">
        <ele>128</ele>
        <time>2017-05-07T06:59:47.357Z</time>
      </trkpt>
      <trkpt lat="47.80111" lon="2.17589">
        <ele>128</ele>
        <time>2017-05-07T06:59:48.390Z</time>
      </trkpt>
      <trkpt lat="47.80109" lon="2.17605">
        <ele>128</ele>
        <time>2017-05-07T06:59:49.356Z</time>
      </trkpt>
      <trkpt lat="47.80109" lon="2.17605">
        <ele>128</ele>
        <time>2017-05-07T06:59:50.392Z</time>
      </trkpt>
      <trkpt lat="47.80107" lon="2.1762">
        <ele>129</ele>
        <time>2017-05-07T06:59:51.355Z</time>
      </trkpt>
      <trkpt lat="47.80106" lon="2.17625">
        <ele>130</ele>
        <time>2017-05-07T06:59:52.371Z</time>
      </trkpt>
      <trkpt lat="47.80106" lon="2.17625">
        <ele>130</ele>
        <time>2017-05-07T06:59:53.360Z</time>
      </trkpt>
      <trkpt lat="47.80103" lon="2.17634">
        <ele>130</ele>
        <time>2017-05-07T06:59:54.357Z</time>
      </trkpt>
      <trkpt lat="47.80103" lon="2.17634">
        <ele>130</ele>
        <time>2017-05-07T06:59:55.391Z</time>
      </trkpt>
      <trkpt lat="47.80101" lon="2.17646">
        <ele>131</ele>
        <time>2017-05-07T06:59:56.360Z</time>
      </trkpt>
      <trkpt lat="47.801" lon="2.17651">
        <ele>131</ele>
        <time>2017-05-07T06:59:57.355Z</time>
      </trkpt>
      <trkpt lat="47.80099" lon="2.17656">
        <ele>131</ele>
        <time>2017-05-07T06:59:58.365Z</time>
      </trkpt>
      <trkpt lat="47.80099" lon="2.17656">
        <ele>131</ele>
        <time>2017-05-07T06:59:59.390Z</time>
      </trkpt>
      <trkpt lat="47.80095" lon="2.17666">
        <ele>132</ele>
        <time>2017-05-07T07:00:00.357Z</time>
      </trkpt>
      <trkpt lat="47.80095" lon="2.17666">
        <ele>132</ele>
        <time>2017-05-07T07:00:01.389Z</time>
      </trkpt>
      <trkpt lat="47.80092" lon="2.17673">
        <ele>131</ele>
        <time>2017-05-07T07:00:02.355Z</time>
      </trkpt>
      <trkpt lat="47.80091" lon="2.17675">
        <ele>131</ele>
        <time>2017-05-07T07:00:03.356Z</time>
      </trkpt>
      <trkpt lat="47.8009" lon="2.17677">
        <ele>131</ele>
        <time>2017-05-07T07:00:04.360Z</time>
      </trkpt>
      <trkpt lat="47.80089" lon="2.17679">
        <ele>131</ele>
        <time>2017-05-07T07:00:05.357Z</time>
      </trkpt>
      <trkpt lat="47.80089" lon="2.17679">
        <ele>131</ele>
        <time>2017-05-07T07:00:06.357Z</time>
      </trkpt>
      <trkpt lat="47.80088" lon="2.17683">
        <ele>131</ele>
        <time>2017-05-07T07:00:07.357Z</time>
      </trkpt>
      <trkpt lat="47.80088" lon="2.17684">
        <ele>131</ele>
        <time>2017-05-07T07:00:08.360Z</time>
      </trkpt>
      <trkpt lat="47.80088" lon="2.17684">
        <ele>131</ele>
        <time>2017-05-07T07:00:09.356Z</time>
      </trkpt>
      <trkpt lat="47.80087" lon="2.17688">
        <ele>131</ele>
        <time>2017-05-07T07:00:10.360Z</time>
      </trkpt>
      <trkpt lat="47.80086" lon="2.1769">
        <ele>131</ele>
        <time>2017-05-07T07:00:11.359Z</time>
      </trkpt>
      <trkpt lat="47.80086" lon="2.1769">
        <ele>131</ele>
        <time>2017-05-07T07:00:12.358Z</time>
      </trkpt>
      <trkpt lat="47.80085" lon="2.17694">
        <ele>131</ele>
        <time>2017-05-07T07:00:13.358Z</time>
      </trkpt>
      <trkpt lat="47.80085" lon="2.17694">
        <ele>131</ele>
        <time>2017-05-07T07:00:14.389Z</time>
      </trkpt>
      <trkpt lat="47.80082" lon="2.17699">
        <ele>130</ele>
        <time>2017-05-07T07:00:15.360Z</time>
      </trkpt>
      <trkpt lat="47.80082" lon="2.17699">
        <ele>130</ele>
        <time>2017-05-07T07:00:16.359Z</time>
      </trkpt>
      <trkpt lat="47.80079" lon="2.17707">
        <ele>130</ele>
        <time>2017-05-07T07:00:17.359Z</time>
      </trkpt>
      <trkpt lat="47.80079" lon="2.17707">
        <ele>130</ele>
        <time>2017-05-07T07:00:18.357Z</time>
      </trkpt>
      <trkpt lat="47.80073" lon="2.17719">
        <ele>130</ele>
        <time>2017-05-07T07:00:19.356Z</time>
      </trkpt>
      <trkpt lat="47.80073" lon="2.17719">
        <ele>130</ele>
        <time>2017-05-07T07:00:20.355Z</time>
      </trkpt>
      <trkpt lat="47.80066" lon="2.1773">
        <ele>129</ele>
        <time>2017-05-07T07:00:21.363Z</time>
      </trkpt>
      <trkpt lat="47.80066" lon="2.1773">
        <ele>129</ele>
        <time>2017-05-07T07:00:22.357Z</time>
      </trkpt>
      <trkpt lat="47.8006" lon="2.17741">
        <ele>129</ele>
        <time>2017-05-07T07:00:23.359Z</time>
      </trkpt>
      <trkpt lat="47.80058" lon="2.17747">
        <ele>130</ele>
        <time>2017-05-07T07:00:24.359Z</time>
      </trkpt>
      <trkpt lat="47.80058" lon="2.17747">
        <ele>130</ele>
        <time>2017-05-07T07:00:25.361Z</time>
      </trkpt>
      <trkpt lat="47.80052" lon="2.17757">
        <ele>130</ele>
        <time>2017-05-07T07:00:26.357Z</time>
      </trkpt>
      <trkpt lat="47.80049" lon="2.17764">
        <ele>130</ele>
        <time>2017-05-07T07:00:27.359Z</time>
      </trkpt>
      <trkpt lat="47.80049" lon="2.17764">
        <ele>130</ele>
        <time>2017-05-07T07:00:28.357Z</time>
      </trkpt>
      <trkpt lat="47.80042" lon="2.17779">
        <ele>130</ele>
        <time>2017-05-07T07:00:29.360Z</time>
      </trkpt>
      <trkpt lat="47.80042" lon="2.17779">
        <ele>130</ele>
        <time>2017-05-07T07:00:30.355Z</time>
      </trkpt>
      <trkpt lat="47.80037" lon="2.17794">
        <ele>130</ele>
        <time>2017-05-07T07:00:31.359Z</time>
      </trkpt>
      <trkpt lat="47.80035" lon="2.17801">
        <ele>130</ele>
        <time>2017-05-07T07:00:32.359Z</time>
      </trkpt>
      <trkpt lat="47.80035" lon="2.17801">
        <ele>130</ele>
        <time>2017-05-07T07:00:33.369Z</time>
      </trkpt>
      <trkpt lat="47.80031" lon="2.17816">
        <ele>131</ele>
        <time>2017-05-07T07:00:34.371Z</time>
      </trkpt>
      <trkpt lat="47.80031" lon="2.17816">
        <ele>131</ele>
        <time>2017-05-07T07:00:35.360Z</time>
      </trkpt>
      <trkpt lat="47.80027" lon="2.1783">
        <ele>131</ele>
        <time>2017-05-07T07:00:36.360Z</time>
      </trkpt>
      <trkpt lat="47.80027" lon="2.1783">
        <ele>131</ele>
        <time>2017-05-07T07:00:37.393Z</time>
      </trkpt>
      <trkpt lat="47.80023" lon="2.17845">
        <ele>131</ele>
        <time>2017-05-07T07:00:38.358Z</time>
      </trkpt>
      <trkpt lat="47.80021" lon="2.17853">
        <ele>131</ele>
        <time>2017-05-07T07:00:39.358Z</time>
      </trkpt>
      <trkpt lat="47.80021" lon="2.17853">
        <ele>131</ele>
        <time>2017-05-07T07:00:40.357Z</time>
      </trkpt>
      <trkpt lat="47.80019" lon="2.17869">
        <ele>132</ele>
        <time>2017-05-07T07:00:41.359Z</time>
      </trkpt>
      <trkpt lat="47.80019" lon="2.17869">
        <ele>132</ele>
        <time>2017-05-07T07:00:42.356Z</time>
      </trkpt>
      <trkpt lat="47.80015" lon="2.17885">
        <ele>133</ele>
        <time>2017-05-07T07:00:43.360Z</time>
      </trkpt>
      <trkpt lat="47.80015" lon="2.17885">
        <ele>133</ele>
        <time>2017-05-07T07:00:44.357Z</time>
      </trkpt>
      <trkpt lat="47.80012" lon="2.17901">
        <ele>133</ele>
        <time>2017-05-07T07:00:45.357Z</time>
      </trkpt>
      <trkpt lat="47.80012" lon="2.17901">
        <ele>133</ele>
        <time>2017-05-07T07:00:46.355Z</time>
      </trkpt>
      <trkpt lat="47.80009" lon="2.17919">
        <ele>134</ele>
        <time>2017-05-07T07:00:47.357Z</time>
      </trkpt>
      <trkpt lat="47.80009" lon="2.17919">
        <ele>134</ele>
        <time>2017-05-07T07:00:48.358Z</time>
      </trkpt>
      <trkpt lat="47.80005" lon="2.1794">
        <ele>134</ele>
        <time>2017-05-07T07:00:49.357Z</time>
      </trkpt>
      <trkpt lat="47.80003" lon="2.1795">
        <ele>135</ele>
        <time>2017-05-07T07:00:50.358Z</time>
      </trkpt>
      <trkpt lat="47.80003" lon="2.1795">
        <ele>135</ele>
        <time>2017-05-07T07:00:51.355Z</time>
      </trkpt>
      <trkpt lat="47.79997" lon="2.17972">
        <ele>135</ele>
        <time>2017-05-07T07:00:52.359Z</time>
      </trkpt>
      <trkpt lat="47.79997" lon="2.17972">
        <ele>135</ele>
        <time>2017-05-07T07:00:53.356Z</time>
      </trkpt>
      <trkpt lat="47.79992" lon="2.17994">
        <ele>135</ele>
        <time>2017-05-07T07:00:54.372Z</time>
      </trkpt>
      <trkpt lat="47.79992" lon="2.17994">
        <ele>135</ele>
        <time>2017-05-07T07:00:55.360Z</time>
      </trkpt>
      <trkpt lat="47.79987" lon="2.18016">
        <ele>135</ele>
        <time>2017-05-07T07:00:56.359Z</time>
      </trkpt>
      <trkpt lat="47.79987" lon="2.18016">
        <ele>135</ele>
        <time>2017-05-07T07:00:57.361Z</time>
      </trkpt>
      <trkpt lat="47.79981" lon="2.18039">
        <ele>136</ele>
        <time>2017-05-07T07:00:58.379Z</time>
      </trkpt>
      <trkpt lat="47.79981" lon="2.18039">
        <ele>136</ele>
        <time>2017-05-07T07:00:59.365Z</time>
      </trkpt>
      <trkpt lat="47.79976" lon="2.18059">
        <ele>137</ele>
        <time>2017-05-07T07:01:00.359Z</time>
      </trkpt>
      <trkpt lat="47.79976" lon="2.18059">
        <ele>137</ele>
        <time>2017-05-07T07:01:01.390Z</time>
      </trkpt>
      <trkpt lat="47.79972" lon="2.18079">
        <ele>137</ele>
        <time>2017-05-07T07:01:02.357Z</time>
      </trkpt>
      <trkpt lat="47.7997" lon="2.18087">
        <ele>138</ele>
        <time>2017-05-07T07:01:03.356Z</time>
      </trkpt>
      <trkpt lat="47.79968" lon="2.18096">
        <ele>138</ele>
        <time>2017-05-07T07:01:04.355Z</time>
      </trkpt>
      <trkpt lat="47.79968" lon="2.18096">
        <ele>138</ele>
        <time>2017-05-07T07:01:05.392Z</time>
      </trkpt>
      <trkpt lat="47.79964" lon="2.18112">
        <ele>138</ele>
        <time>2017-05-07T07:01:06.357Z</time>
      </trkpt>
      <trkpt lat="47.79964" lon="2.18112">
        <ele>138</ele>
        <time>2017-05-07T07:01:07.389Z</time>
      </trkpt>
      <trkpt lat="47.79961" lon="2.18128">
        <ele>139</ele>
        <time>2017-05-07T07:01:08.394Z</time>
      </trkpt>
      <trkpt lat="47.79959" lon="2.18136">
        <ele>139</ele>
        <time>2017-05-07T07:01:09.383Z</time>
      </trkpt>
      <trkpt lat="47.79957" lon="2.18143">
        <ele>139</ele>
        <time>2017-05-07T07:01:10.370Z</time>
      </trkpt>
      <trkpt lat="47.79957" lon="2.18143">
        <ele>139</ele>
        <time>2017-05-07T07:01:11.359Z</time>
      </trkpt>
      <trkpt lat="47.79954" lon="2.18157">
        <ele>139</ele>
        <time>2017-05-07T07:01:12.358Z</time>
      </trkpt>
      <trkpt lat="47.79954" lon="2.18157">
        <ele>139</ele>
        <time>2017-05-07T07:01:13.391Z</time>
      </trkpt>
      <trkpt lat="47.7995" lon="2.18171">
        <ele>139</ele>
        <time>2017-05-07T07:01:14.357Z</time>
      </trkpt>
      <trkpt lat="47.79949" lon="2.18179">
        <ele>139</ele>
        <time>2017-05-07T07:01:15.374Z</time>
      </trkpt>
      <trkpt lat="47.79947" lon="2.18186">
        <ele>140</ele>
        <time>2017-05-07T07:01:16.368Z</time>
      </trkpt>
      <trkpt lat="47.79947" lon="2.18186">
        <ele>140</ele>
        <time>2017-05-07T07:01:17.371Z</time>
      </trkpt>
      <trkpt lat="47.79943" lon="2.18202">
        <ele>140</ele>
        <time>2017-05-07T07:01:18.363Z</time>
      </trkpt>
      <trkpt lat="47.79943" lon="2.18202">
        <ele>140</ele>
        <time>2017-05-07T07:01:19.393Z</time>
      </trkpt>
      <trkpt lat="47.7994" lon="2.18216">
        <ele>140</ele>
        <time>2017-05-07T07:01:20.355Z</time>
      </trkpt>
      <trkpt lat="47.79938" lon="2.18224">
        <ele>140</ele>
        <time>2017-05-07T07:01:21.361Z</time>
      </trkpt>
      <trkpt lat="47.79938" lon="2.18224">
        <ele>140</ele>
        <time>2017-05-07T07:01:22.356Z</time>
      </trkpt>
      <trkpt lat="47.79935" lon="2.18238">
        <ele>141</ele>
        <time>2017-05-07T07:01:23.355Z</time>
      </trkpt>
      <trkpt lat="47.79935" lon="2.18238">
        <ele>141</ele>
        <time>2017-05-07T07:01:24.392Z</time>
      </trkpt>
      <trkpt lat="47.79932" lon="2.18251">
        <ele>142</ele>
        <time>2017-05-07T07:01:25.360Z</time>
      </trkpt>
      <trkpt lat="47.7993" lon="2.18259">
        <ele>142</ele>
        <time>2017-05-07T07:01:26.358Z</time>
      </trkpt>
      <trkpt lat="47.7993" lon="2.18259">
        <ele>142</ele>
        <time>2017-05-07T07:01:27.387Z</time>
      </trkpt>
      <trkpt lat="47.79926" lon="2.18273">
        <ele>142</ele>
        <time>2017-05-07T07:01:28.360Z</time>
      </trkpt>
      <trkpt lat="47.79926" lon="2.18273">
        <ele>142</ele>
        <time>2017-05-07T07:01:29.393Z</time>
      </trkpt>
      <trkpt lat="47.79924" lon="2.18289">
        <ele>143</ele>
        <time>2017-05-07T07:01:30.359Z</time>
      </trkpt>
      <trkpt lat="47.79924" lon="2.18289">
        <ele>143</ele>
        <time>2017-05-07T07:01:31.392Z</time>
      </trkpt>
      <trkpt lat="47.7992" lon="2.18304">
        <ele>143</ele>
        <time>2017-05-07T07:01:32.394Z</time>
      </trkpt>
      <trkpt lat="47.7992" lon="2.18304">
        <ele>143</ele>
        <time>2017-05-07T07:01:33.392Z</time>
      </trkpt>
      <trkpt lat="47.79918" lon="2.18317">
        <ele>143</ele>
        <time>2017-05-07T07:01:34.359Z</time>
      </trkpt>
      <trkpt lat="47.79918" lon="2.18317">
        <ele>143</ele>
        <time>2017-05-07T07:01:35.392Z</time>
      </trkpt>
      <trkpt lat="47.79915" lon="2.18325">
        <ele>143</ele>
        <time>2017-05-07T07:01:36.358Z</time>
      </trkpt>
      <trkpt lat="47.79915" lon="2.18325">
        <ele>143</ele>
        <time>2017-05-07T07:01:37.386Z</time>
      </trkpt>
      <trkpt lat="47.79913" lon="2.18332">
        <ele>144</ele>
        <time>2017-05-07T07:01:38.362Z</time>
      </trkpt>
      <trkpt lat="47.79913" lon="2.18332">
        <ele>144</ele>
        <time>2017-05-07T07:01:39.392Z</time>
      </trkpt>
      <trkpt lat="47.79911" lon="2.18341">
        <ele>144</ele>
        <time>2017-05-07T07:01:40.358Z</time>
      </trkpt>
      <trkpt lat="47.7991" lon="2.18345">
        <ele>144</ele>
        <time>2017-05-07T07:01:41.371Z</time>
      </trkpt>
      <trkpt lat="47.7991" lon="2.18345">
        <ele>144</ele>
        <time>2017-05-07T07:01:42.360Z</time>
      </trkpt>
      <trkpt lat="47.79908" lon="2.18355">
        <ele>144</ele>
        <time>2017-05-07T07:01:43.375Z</time>
      </trkpt>
      <trkpt lat="47.79908" lon="2.18355">
        <ele>144</ele>
        <time>2017-05-07T07:01:44.366Z</time>
      </trkpt>
      <trkpt lat="47.79907" lon="2.18367">
        <ele>145</ele>
        <time>2017-05-07T07:01:45.376Z</time>
      </trkpt>
      <trkpt lat="47.79906" lon="2.18374">
        <ele>145</ele>
        <time>2017-05-07T07:01:46.384Z</time>
      </trkpt>
      <trkpt lat="47.79906" lon="2.18374">
        <ele>145</ele>
        <time>2017-05-07T07:01:47.390Z</time>
      </trkpt>
      <trkpt lat="47.79902" lon="2.18389">
        <ele>145</ele>
        <time>2017-05-07T07:01:48.357Z</time>
      </trkpt>
      <trkpt lat="47.79902" lon="2.18389">
        <ele>145</ele>
        <time>2017-05-07T07:01:49.392Z</time>
      </trkpt>
      <trkpt lat="47.79899" lon="2.18403">
        <ele>146</ele>
        <time>2017-05-07T07:01:50.357Z</time>
      </trkpt>
      <trkpt lat="47.79897" lon="2.18411">
        <ele>146</ele>
        <time>2017-05-07T07:01:51.395Z</time>
      </trkpt>
      <trkpt lat="47.79896" lon="2.18419">
        <ele>146</ele>
        <time>2017-05-07T07:01:52.359Z</time>
      </trkpt>
      <trkpt lat="47.79896" lon="2.18419">
        <ele>146</ele>
        <time>2017-05-07T07:01:53.392Z</time>
      </trkpt>
      <trkpt lat="47.79893" lon="2.18434">
        <ele>146</ele>
        <time>2017-05-07T07:01:54.358Z</time>
      </trkpt>
      <trkpt lat="47.79893" lon="2.18434">
        <ele>146</ele>
        <time>2017-05-07T07:01:55.394Z</time>
      </trkpt>
      <trkpt lat="47.79889" lon="2.1845">
        <ele>146</ele>
        <time>2017-05-07T07:01:56.358Z</time>
      </trkpt>
      <trkpt lat="47.79889" lon="2.1845">
        <ele>146</ele>
        <time>2017-05-07T07:01:57.393Z</time>
      </trkpt>
      <trkpt lat="47.79884" lon="2.18465">
        <ele>146</ele>
        <time>2017-05-07T07:01:58.355Z</time>
      </trkpt>
      <trkpt lat="47.79882" lon="2.18472">
        <ele>146</ele>
        <time>2017-05-07T07:01:59.358Z</time>
      </trkpt>
      <trkpt lat="47.79882" lon="2.18472">
        <ele>146</ele>
        <time>2017-05-07T07:02:00.392Z</time>
      </trkpt>
      <trkpt lat="47.79876" lon="2.18486">
        <ele>145</ele>
        <time>2017-05-07T07:02:01.356Z</time>
      </trkpt>
      <trkpt lat="47.79876" lon="2.18486">
        <ele>145</ele>
        <time>2017-05-07T07:02:02.390Z</time>
      </trkpt>
      <trkpt lat="47.7987" lon="2.185">
        <ele>143</ele>
        <time>2017-05-07T07:02:03.356Z</time>
      </trkpt>
      <trkpt lat="47.7987" lon="2.185">
        <ele>143</ele>
        <time>2017-05-07T07:02:04.384Z</time>
      </trkpt>
      <trkpt lat="47.79865" lon="2.18514">
        <ele>141</ele>
        <time>2017-05-07T07:02:05.395Z</time>
      </trkpt>
      <trkpt lat="47.79865" lon="2.18514">
        <ele>141</ele>
        <time>2017-05-07T07:02:06.362Z</time>
      </trkpt>
      <trkpt lat="47.7986" lon="2.18527">
        <ele>139</ele>
        <time>2017-05-07T07:02:07.357Z</time>
      </trkpt>
      <trkpt lat="47.7986" lon="2.18527">
        <ele>139</ele>
        <time>2017-05-07T07:02:08.392Z</time>
      </trkpt>
      <trkpt lat="47.79855" lon="2.18541">
        <ele>137</ele>
        <time>2017-05-07T07:02:09.391Z</time>
      </trkpt>
      <trkpt lat="47.79852" lon="2.18547">
        <ele>137</ele>
        <time>2017-05-07T07:02:10.360Z</time>
      </trkpt>
      <trkpt lat="47.79852" lon="2.18547">
        <ele>137</ele>
        <time>2017-05-07T07:02:11.392Z</time>
      </trkpt>
      <trkpt lat="47.79845" lon="2.1856">
        <ele>135</ele>
        <time>2017-05-07T07:02:12.359Z</time>
      </trkpt>
      <trkpt lat="47.79845" lon="2.1856">
        <ele>135</ele>
        <time>2017-05-07T07:02:13.390Z</time>
      </trkpt>
      <trkpt lat="47.79838" lon="2.18574">
        <ele>134</ele>
        <time>2017-05-07T07:02:14.357Z</time>
      </trkpt>
      <trkpt lat="47.79838" lon="2.18574">
        <ele>134</ele>
        <time>2017-05-07T07:02:15.392Z</time>
      </trkpt>
      <trkpt lat="47.7983" lon="2.18588">
        <ele>133</ele>
        <time>2017-05-07T07:02:16.359Z</time>
      </trkpt>
      <trkpt lat="47.7983" lon="2.18588">
        <ele>133</ele>
        <time>2017-05-07T07:02:17.358Z</time>
      </trkpt>
      <trkpt lat="47.79823" lon="2.18602">
        <ele>132</ele>
        <time>2017-05-07T07:02:18.355Z</time>
      </trkpt>
      <trkpt lat="47.79823" lon="2.18602">
        <ele>132</ele>
        <time>2017-05-07T07:02:19.393Z</time>
      </trkpt>
      <trkpt lat="47.79816" lon="2.18617">
        <ele>132</ele>
        <time>2017-05-07T07:02:20.358Z</time>
      </trkpt>
      <trkpt lat="47.79816" lon="2.18617">
        <ele>132</ele>
        <time>2017-05-07T07:02:21.358Z</time>
      </trkpt>
      <trkpt lat="47.79811" lon="2.18631">
        <ele>130</ele>
        <time>2017-05-07T07:02:22.360Z</time>
      </trkpt>
      <trkpt lat="47.79811" lon="2.18631">
        <ele>130</ele>
        <time>2017-05-07T07:02:23.392Z</time>
      </trkpt>
      <trkpt lat="47.79804" lon="2.18646">
        <ele>128</ele>
        <time>2017-05-07T07:02:24.356Z</time>
      </trkpt>
      <trkpt lat="47.79804" lon="2.18646">
        <ele>128</ele>
        <time>2017-05-07T07:02:25.393Z</time>
      </trkpt>
      <trkpt lat="47.79798" lon="2.18661">
        <ele>127</ele>
        <time>2017-05-07T07:02:26.357Z</time>
      </trkpt>
      <trkpt lat="47.79798" lon="2.18661">
        <ele>127</ele>
        <time>2017-05-07T07:02:27.360Z</time>
      </trkpt>
      <trkpt lat="47.79792" lon="2.18677">
        <ele>126</ele>
        <time>2017-05-07T07:02:28.359Z</time>
      </trkpt>
      <trkpt lat="47.79792" lon="2.18677">
        <ele>126</ele>
        <time>2017-05-07T07:02:29.393Z</time>
      </trkpt>
      <trkpt lat="47.79786" lon="2.18693">
        <ele>123</ele>
        <time>2017-05-07T07:02:30.359Z</time>
      </trkpt>
      <trkpt lat="47.79786" lon="2.18693">
        <ele>123</ele>
        <time>2017-05-07T07:02:31.359Z</time>
      </trkpt>
      <trkpt lat="47.79781" lon="2.1871">
        <ele>121</ele>
        <time>2017-05-07T07:02:32.358Z</time>
      </trkpt>
      <trkpt lat="47.79777" lon="2.18718">
        <ele>120</ele>
        <time>2017-05-07T07:02:33.357Z</time>
      </trkpt>
      <trkpt lat="47.79775" lon="2.18725">
        <ele>119</ele>
        <time>2017-05-07T07:02:34.372Z</time>
      </trkpt>
      <trkpt lat="47.79775" lon="2.18725">
        <ele>119</ele>
        <time>2017-05-07T07:02:35.371Z</time>
      </trkpt>
      <trkpt lat="47.79769" lon="2.1874">
        <ele>118</ele>
        <time>2017-05-07T07:02:36.362Z</time>
      </trkpt>
      <trkpt lat="47.79769" lon="2.1874">
        <ele>118</ele>
        <time>2017-05-07T07:02:37.392Z</time>
      </trkpt>
      <trkpt lat="47.79763" lon="2.18754">
        <ele>116</ele>
        <time>2017-05-07T07:02:38.357Z</time>
      </trkpt>
      <trkpt lat="47.79763" lon="2.18754">
        <ele>116</ele>
        <time>2017-05-07T07:02:39.393Z</time>
      </trkpt>
      <trkpt lat="47.79758" lon="2.18767">
        <ele>115</ele>
        <time>2017-05-07T07:02:40.360Z</time>
      </trkpt>
      <trkpt lat="47.79758" lon="2.18767">
        <ele>115</ele>
        <time>2017-05-07T07:02:41.392Z</time>
      </trkpt>
      <trkpt lat="47.79752" lon="2.18779">
        <ele>113</ele>
        <time>2017-05-07T07:02:42.358Z</time>
      </trkpt>
      <trkpt lat="47.79752" lon="2.18779">
        <ele>113</ele>
        <time>2017-05-07T07:02:43.392Z</time>
      </trkpt>
      <trkpt lat="47.79746" lon="2.18791">
        <ele>112</ele>
        <time>2017-05-07T07:02:44.357Z</time>
      </trkpt>
      <trkpt lat="47.79746" lon="2.18791">
        <ele>112</ele>
        <time>2017-05-07T07:02:45.363Z</time>
      </trkpt>
      <trkpt lat="47.79738" lon="2.18801">
        <ele>111</ele>
        <time>2017-05-07T07:02:46.359Z</time>
      </trkpt>
      <trkpt lat="47.79738" lon="2.18801">
        <ele>111</ele>
        <time>2017-05-07T07:02:47.393Z</time>
      </trkpt>
      <trkpt lat="47.79728" lon="2.18806">
        <ele>110</ele>
        <time>2017-05-07T07:02:48.358Z</time>
      </trkpt>
      <trkpt lat="47.79728" lon="2.18806">
        <ele>110</ele>
        <time>2017-05-07T07:02:49.393Z</time>
      </trkpt>
      <trkpt lat="47.79716" lon="2.18811">
        <ele>110</ele>
        <time>2017-05-07T07:02:50.358Z</time>
      </trkpt>
      <trkpt lat="47.79716" lon="2.18811">
        <ele>110</ele>
        <time>2017-05-07T07:02:51.391Z</time>
      </trkpt>
      <trkpt lat="47.79703" lon="2.18818">
        <ele>109</ele>
        <time>2017-05-07T07:02:52.360Z</time>
      </trkpt>
      <trkpt lat="47.79703" lon="2.18818">
        <ele>109</ele>
        <time>2017-05-07T07:02:53.392Z</time>
      </trkpt>
      <trkpt lat="47.79693" lon="2.18828">
        <ele>108</ele>
        <time>2017-05-07T07:02:54.359Z</time>
      </trkpt>
      <trkpt lat="47.79693" lon="2.18828">
        <ele>108</ele>
        <time>2017-05-07T07:02:55.393Z</time>
      </trkpt>
      <trkpt lat="47.79683" lon="2.18839">
        <ele>108</ele>
        <time>2017-05-07T07:02:56.357Z</time>
      </trkpt>
      <trkpt lat="47.79683" lon="2.18839">
        <ele>108</ele>
        <time>2017-05-07T07:02:57.392Z</time>
      </trkpt>
      <trkpt lat="47.79675" lon="2.18851">
        <ele>107</ele>
        <time>2017-05-07T07:02:58.359Z</time>
      </trkpt>
      <trkpt lat="47.79675" lon="2.18851">
        <ele>107</ele>
        <time>2017-05-07T07:02:59.388Z</time>
      </trkpt>
      <trkpt lat="47.79669" lon="2.18863">
        <ele>107</ele>
        <time>2017-05-07T07:03:00.357Z</time>
      </trkpt>
      <trkpt lat="47.79669" lon="2.18863">
        <ele>107</ele>
        <time>2017-05-07T07:03:01.392Z</time>
      </trkpt>
      <trkpt lat="47.79664" lon="2.18875">
        <ele>107</ele>
        <time>2017-05-07T07:03:02.357Z</time>
      </trkpt>
      <trkpt lat="47.79661" lon="2.18881">
        <ele>107</ele>
        <time>2017-05-07T07:03:03.358Z</time>
      </trkpt>
      <trkpt lat="47.79661" lon="2.18881">
        <ele>107</ele>
        <time>2017-05-07T07:03:04.356Z</time>
      </trkpt>
      <trkpt lat="47.79657" lon="2.18894">
        <ele>106</ele>
        <time>2017-05-07T07:03:05.357Z</time>
      </trkpt>
      <trkpt lat="47.79657" lon="2.18894">
        <ele>106</ele>
        <time>2017-05-07T07:03:06.392Z</time>
      </trkpt>
      <trkpt lat="47.79653" lon="2.18907">
        <ele>106</ele>
        <time>2017-05-07T07:03:07.358Z</time>
      </trkpt>
      <trkpt lat="47.79653" lon="2.18907">
        <ele>106</ele>
        <time>2017-05-07T07:03:08.357Z</time>
      </trkpt>
      <trkpt lat="47.79649" lon="2.1892">
        <ele>107</ele>
        <time>2017-05-07T07:03:09.357Z</time>
      </trkpt>
      <trkpt lat="47.79646" lon="2.18926">
        <ele>107</ele>
        <time>2017-05-07T07:03:10.358Z</time>
      </trkpt>
      <trkpt lat="47.79646" lon="2.18926">
        <ele>107</ele>
        <time>2017-05-07T07:03:11.392Z</time>
      </trkpt>
      <trkpt lat="47.79643" lon="2.18939">
        <ele>107</ele>
        <time>2017-05-07T07:03:12.358Z</time>
      </trkpt>
      <trkpt lat="47.79643" lon="2.18939">
        <ele>107</ele>
        <time>2017-05-07T07:03:13.392Z</time>
      </trkpt>
      <trkpt lat="47.79639" lon="2.18952">
        <ele>107</ele>
        <time>2017-05-07T07:03:14.373Z</time>
      </trkpt>
      <trkpt lat="47.79639" lon="2.18952">
        <ele>107</ele>
        <time>2017-05-07T07:03:15.362Z</time>
      </trkpt>
      <trkpt lat="47.79634" lon="2.18966">
        <ele>108</ele>
        <time>2017-05-07T07:03:16.369Z</time>
      </trkpt>
      <trkpt lat="47.79634" lon="2.18966">
        <ele>108</ele>
        <time>2017-05-07T07:03:17.393Z</time>
      </trkpt>
      <trkpt lat="47.7963" lon="2.1898">
        <ele>108</ele>
        <time>2017-05-07T07:03:18.355Z</time>
      </trkpt>
      <trkpt lat="47.7963" lon="2.1898">
        <ele>108</ele>
        <time>2017-05-07T07:03:19.391Z</time>
      </trkpt>
      <trkpt lat="47.79625" lon="2.18995">
        <ele>109</ele>
        <time>2017-05-07T07:03:20.356Z</time>
      </trkpt>
      <trkpt lat="47.79625" lon="2.18995">
        <ele>109</ele>
        <time>2017-05-07T07:03:21.355Z</time>
      </trkpt>
      <trkpt lat="47.7962" lon="2.19011">
        <ele>109</ele>
        <time>2017-05-07T07:03:22.360Z</time>
      </trkpt>
      <trkpt lat="47.7962" lon="2.19011">
        <ele>109</ele>
        <time>2017-05-07T07:03:23.392Z</time>
      </trkpt>
      <trkpt lat="47.79616" lon="2.19026">
        <ele>109</ele>
        <time>2017-05-07T07:03:24.357Z</time>
      </trkpt>
      <trkpt lat="47.79616" lon="2.19026">
        <ele>109</ele>
        <time>2017-05-07T07:03:25.392Z</time>
      </trkpt>
      <trkpt lat="47.79612" lon="2.1904">
        <ele>109</ele>
        <time>2017-05-07T07:03:26.394Z</time>
      </trkpt>
      <trkpt lat="47.7961" lon="2.19047">
        <ele>109</ele>
        <time>2017-05-07T07:03:27.358Z</time>
      </trkpt>
      <trkpt lat="47.7961" lon="2.19047">
        <ele>109</ele>
        <time>2017-05-07T07:03:28.390Z</time>
      </trkpt>
      <trkpt lat="47.79605" lon="2.19061">
        <ele>109</ele>
        <time>2017-05-07T07:03:29.357Z</time>
      </trkpt>
      <trkpt lat="47.79603" lon="2.19069">
        <ele>109</ele>
        <time>2017-05-07T07:03:30.358Z</time>
      </trkpt>
      <trkpt lat="47.79603" lon="2.19069">
        <ele>109</ele>
        <time>2017-05-07T07:03:31.393Z</time>
      </trkpt>
      <trkpt lat="47.79598" lon="2.19084">
        <ele>109</ele>
        <time>2017-05-07T07:03:32.357Z</time>
      </trkpt>
      <trkpt lat="47.79598" lon="2.19084">
        <ele>109</ele>
        <time>2017-05-07T07:03:33.392Z</time>
      </trkpt>
      <trkpt lat="47.79593" lon="2.19099">
        <ele>109</ele>
        <time>2017-05-07T07:03:34.375Z</time>
      </trkpt>
      <trkpt lat="47.79593" lon="2.19099">
        <ele>109</ele>
        <time>2017-05-07T07:03:35.365Z</time>
      </trkpt>
      <trkpt lat="47.79589" lon="2.19114">
        <ele>108</ele>
        <time>2017-05-07T07:03:36.360Z</time>
      </trkpt>
      <trkpt lat="47.79589" lon="2.19114">
        <ele>108</ele>
        <time>2017-05-07T07:03:37.392Z</time>
      </trkpt>
      <trkpt lat="47.79584" lon="2.19129">
        <ele>109</ele>
        <time>2017-05-07T07:03:38.373Z</time>
      </trkpt>
      <trkpt lat="47.79584" lon="2.19129">
        <ele>109</ele>
        <time>2017-05-07T07:03:39.371Z</time>
      </trkpt>
      <trkpt lat="47.79579" lon="2.19144">
        <ele>108</ele>
        <time>2017-05-07T07:03:40.362Z</time>
      </trkpt>
      <trkpt lat="47.79577" lon="2.19151">
        <ele>109</ele>
        <time>2017-05-07T07:03:41.358Z</time>
      </trkpt>
      <trkpt lat="47.79577" lon="2.19151">
        <ele>109</ele>
        <time>2017-05-07T07:03:42.392Z</time>
      </trkpt>
      <trkpt lat="47.79572" lon="2.19164">
        <ele>109</ele>
        <time>2017-05-07T07:03:43.395Z</time>
      </trkpt>
      <trkpt lat="47.7957" lon="2.19172">
        <ele>109</ele>
        <time>2017-05-07T07:03:44.360Z</time>
      </trkpt>
      <trkpt lat="47.7957" lon="2.19172">
        <ele>109</ele>
        <time>2017-05-07T07:03:45.393Z</time>
      </trkpt>
      <trkpt lat="47.79566" lon="2.19186">
        <ele>109</ele>
        <time>2017-05-07T07:03:46.356Z</time>
      </trkpt>
      <trkpt lat="47.79566" lon="2.19186">
        <ele>109</ele>
        <time>2017-05-07T07:03:47.394Z</time>
      </trkpt>
      <trkpt lat="47.79563" lon="2.192">
        <ele>110</ele>
        <time>2017-05-07T07:03:48.359Z</time>
      </trkpt>
      <trkpt lat="47.79563" lon="2.192">
        <ele>110</ele>
        <time>2017-05-07T07:03:49.355Z</time>
      </trkpt>
      <trkpt lat="47.7956" lon="2.19212">
        <ele>110</ele>
        <time>2017-05-07T07:03:50.359Z</time>
      </trkpt>
      <trkpt lat="47.7956" lon="2.19212">
        <ele>110</ele>
        <time>2017-05-07T07:03:51.355Z</time>
      </trkpt>
      <trkpt lat="47.79558" lon="2.19225">
        <ele>111</ele>
        <time>2017-05-07T07:03:52.359Z</time>
      </trkpt>
      <trkpt lat="47.79558" lon="2.19225">
        <ele>111</ele>
        <time>2017-05-07T07:03:53.355Z</time>
      </trkpt>
      <trkpt lat="47.79556" lon="2.19238">
        <ele>111</ele>
        <time>2017-05-07T07:03:54.357Z</time>
      </trkpt>
      <trkpt lat="47.79556" lon="2.19244">
        <ele>112</ele>
        <time>2017-05-07T07:03:55.358Z</time>
      </trkpt>
      <trkpt lat="47.79555" lon="2.1925">
        <ele>112</ele>
        <time>2017-05-07T07:03:56.358Z</time>
      </trkpt>
      <trkpt lat="47.79555" lon="2.1925">
        <ele>112</ele>
        <time>2017-05-07T07:03:57.360Z</time>
      </trkpt>
      <trkpt lat="47.79554" lon="2.19264">
        <ele>112</ele>
        <time>2017-05-07T07:03:58.360Z</time>
      </trkpt>
      <trkpt lat="47.79554" lon="2.19264">
        <ele>112</ele>
        <time>2017-05-07T07:03:59.389Z</time>
      </trkpt>
      <trkpt lat="47.79552" lon="2.19277">
        <ele>113</ele>
        <time>2017-05-07T07:04:00.355Z</time>
      </trkpt>
      <trkpt lat="47.79551" lon="2.19285">
        <ele>113</ele>
        <time>2017-05-07T07:04:01.358Z</time>
      </trkpt>
      <trkpt lat="47.79551" lon="2.19285">
        <ele>113</ele>
        <time>2017-05-07T07:04:02.356Z</time>
      </trkpt>
      <trkpt lat="47.7955" lon="2.193">
        <ele>112</ele>
        <time>2017-05-07T07:04:03.359Z</time>
      </trkpt>
      <trkpt lat="47.7955" lon="2.193">
        <ele>112</ele>
        <time>2017-05-07T07:04:04.356Z</time>
      </trkpt>
      <trkpt lat="47.79549" lon="2.19318">
        <ele>112</ele>
        <time>2017-05-07T07:04:05.358Z</time>
      </trkpt>
      <trkpt lat="47.79549" lon="2.19318">
        <ele>112</ele>
        <time>2017-05-07T07:04:06.355Z</time>
      </trkpt>
      <trkpt lat="47.79549" lon="2.19334">
        <ele>112</ele>
        <time>2017-05-07T07:04:07.357Z</time>
      </trkpt>
      <trkpt lat="47.79549" lon="2.19342">
        <ele>113</ele>
        <time>2017-05-07T07:04:08.362Z</time>
      </trkpt>
      <trkpt lat="47.79549" lon="2.19342">
        <ele>113</ele>
        <time>2017-05-07T07:04:09.393Z</time>
      </trkpt>
      <trkpt lat="47.7955" lon="2.19357">
        <ele>113</ele>
        <time>2017-05-07T07:04:10.359Z</time>
      </trkpt>
      <trkpt lat="47.7955" lon="2.19357">
        <ele>113</ele>
        <time>2017-05-07T07:04:11.390Z</time>
      </trkpt>
      <trkpt lat="47.7955" lon="2.19374">
        <ele>113</ele>
        <time>2017-05-07T07:04:12.359Z</time>
      </trkpt>
      <trkpt lat="47.7955" lon="2.19374">
        <ele>113</ele>
        <time>2017-05-07T07:04:13.356Z</time>
      </trkpt>
      <trkpt lat="47.79551" lon="2.19391">
        <ele>112</ele>
        <time>2017-05-07T07:04:14.358Z</time>
      </trkpt>
      <trkpt lat="47.79551" lon="2.19391">
        <ele>112</ele>
        <time>2017-05-07T07:04:15.370Z</time>
      </trkpt>
      <trkpt lat="47.79551" lon="2.19407">
        <ele>112</ele>
        <time>2017-05-07T07:04:16.361Z</time>
      </trkpt>
      <trkpt lat="47.79551" lon="2.19415">
        <ele>112</ele>
        <time>2017-05-07T07:04:17.358Z</time>
      </trkpt>
      <trkpt lat="47.79551" lon="2.19415">
        <ele>112</ele>
        <time>2017-05-07T07:04:18.393Z</time>
      </trkpt>
      <trkpt lat="47.7955" lon="2.19431">
        <ele>112</ele>
        <time>2017-05-07T07:04:19.358Z</time>
      </trkpt>
      <trkpt lat="47.7955" lon="2.1944">
        <ele>111</ele>
        <time>2017-05-07T07:04:20.357Z</time>
      </trkpt>
      <trkpt lat="47.7955" lon="2.1944">
        <ele>111</ele>
        <time>2017-05-07T07:04:21.393Z</time>
      </trkpt>
      <trkpt lat="47.79549" lon="2.19456">
        <ele>111</ele>
        <time>2017-05-07T07:04:22.359Z</time>
      </trkpt>
      <trkpt lat="47.79548" lon="2.19463">
        <ele>111</ele>
        <time>2017-05-07T07:04:23.357Z</time>
      </trkpt>
      <trkpt lat="47.79548" lon="2.19463">
        <ele>111</ele>
        <time>2017-05-07T07:04:24.393Z</time>
      </trkpt>
      <trkpt lat="47.79547" lon="2.19477">
        <ele>112</ele>
        <time>2017-05-07T07:04:25.358Z</time>
      </trkpt>
      <trkpt lat="47.79547" lon="2.19477">
        <ele>112</ele>
        <time>2017-05-07T07:04:26.356Z</time>
      </trkpt>
      <trkpt lat="47.79547" lon="2.19489">
        <ele>112</ele>
        <time>2017-05-07T07:04:27.360Z</time>
      </trkpt>
      <trkpt lat="47.79547" lon="2.19489">
        <ele>112</ele>
        <time>2017-05-07T07:04:28.394Z</time>
      </trkpt>
      <trkpt lat="47.79545" lon="2.19501">
        <ele>112</ele>
        <time>2017-05-07T07:04:29.376Z</time>
      </trkpt>
      <trkpt lat="47.79544" lon="2.19506">
        <ele>112</ele>
        <time>2017-05-07T07:04:30.395Z</time>
      </trkpt>
      <trkpt lat="47.79544" lon="2.19506">
        <ele>112</ele>
        <time>2017-05-07T07:04:31.394Z</time>
      </trkpt>
      <trkpt lat="47.79543" lon="2.19517">
        <ele>112</ele>
        <time>2017-05-07T07:04:32.357Z</time>
      </trkpt>
      <trkpt lat="47.79543" lon="2.19517">
        <ele>112</ele>
        <time>2017-05-07T07:04:33.394Z</time>
      </trkpt>
      <trkpt lat="47.79542" lon="2.19527">
        <ele>113</ele>
        <time>2017-05-07T07:04:34.356Z</time>
      </trkpt>
      <trkpt lat="47.79541" lon="2.19533">
        <ele>113</ele>
        <time>2017-05-07T07:04:35.360Z</time>
      </trkpt>
      <trkpt lat="47.79542" lon="2.19537">
        <ele>113</ele>
        <time>2017-05-07T07:04:36.360Z</time>
      </trkpt>
      <trkpt lat="47.79542" lon="2.19537">
        <ele>113</ele>
        <time>2017-05-07T07:04:37.393Z</time>
      </trkpt>
      <trkpt lat="47.79547" lon="2.19546">
        <ele>113</ele>
        <time>2017-05-07T07:04:38.373Z</time>
      </trkpt>
      <trkpt lat="47.79547" lon="2.19546">
        <ele>113</ele>
        <time>2017-05-07T07:04:39.355Z</time>
      </trkpt>
      <trkpt lat="47.79553" lon="2.19554">
        <ele>113</ele>
        <time>2017-05-07T07:04:40.357Z</time>
      </trkpt>
      <trkpt lat="47.79553" lon="2.19554">
        <ele>113</ele>
        <time>2017-05-07T07:04:41.391Z</time>
      </trkpt>
      <trkpt lat="47.7956" lon="2.19563">
        <ele>113</ele>
        <time>2017-05-07T07:04:42.357Z</time>
      </trkpt>
      <trkpt lat="47.7956" lon="2.19563">
        <ele>113</ele>
        <time>2017-05-07T07:04:43.391Z</time>
      </trkpt>
      <trkpt lat="47.79565" lon="2.19576">
        <ele>113</ele>
        <time>2017-05-07T07:04:44.357Z</time>
      </trkpt>
      <trkpt lat="47.79567" lon="2.19583">
        <ele>112</ele>
        <time>2017-05-07T07:04:45.358Z</time>
      </trkpt>
      <trkpt lat="47.79567" lon="2.1959">
        <ele>111</ele>
        <time>2017-05-07T07:04:46.359Z</time>
      </trkpt>
      <trkpt lat="47.79567" lon="2.1959">
        <ele>111</ele>
        <time>2017-05-07T07:04:47.393Z</time>
      </trkpt>
      <trkpt lat="47.79567" lon="2.19605">
        <ele>111</ele>
        <time>2017-05-07T07:04:48.359Z</time>
      </trkpt>
      <trkpt lat="47.79567" lon="2.19605">
        <ele>111</ele>
        <time>2017-05-07T07:04:49.356Z</time>
      </trkpt>
      <trkpt lat="47.79566" lon="2.19618">
        <ele>110</ele>
        <time>2017-05-07T07:04:50.358Z</time>
      </trkpt>
      <trkpt lat="47.79566" lon="2.19618">
        <ele>110</ele>
        <time>2017-05-07T07:04:51.393Z</time>
      </trkpt>
      <trkpt lat="47.79566" lon="2.19631">
        <ele>110</ele>
        <time>2017-05-07T07:04:52.360Z</time>
      </trkpt>
      <trkpt lat="47.79566" lon="2.19631">
        <ele>110</ele>
        <time>2017-05-07T07:04:53.355Z</time>
      </trkpt>
      <trkpt lat="47.79565" lon="2.19645">
        <ele>110</ele>
        <time>2017-05-07T07:04:54.373Z</time>
      </trkpt>
      <trkpt lat="47.79565" lon="2.19645">
        <ele>110</ele>
        <time>2017-05-07T07:04:55.361Z</time>
      </trkpt>
      <trkpt lat="47.79564" lon="2.1966">
        <ele>110</ele>
        <time>2017-05-07T07:04:56.356Z</time>
      </trkpt>
      <trkpt lat="47.79564" lon="2.1966">
        <ele>110</ele>
        <time>2017-05-07T07:04:57.379Z</time>
      </trkpt>
      <trkpt lat="47.79563" lon="2.19674">
        <ele>110</ele>
        <time>2017-05-07T07:04:58.371Z</time>
      </trkpt>
      <trkpt lat="47.79563" lon="2.19674">
        <ele>110</ele>
        <time>2017-05-07T07:04:59.390Z</time>
      </trkpt>
      <trkpt lat="47.79561" lon="2.19689">
        <ele>109</ele>
        <time>2017-05-07T07:05:00.359Z</time>
      </trkpt>
      <trkpt lat="47.79561" lon="2.19689">
        <ele>109</ele>
        <time>2017-05-07T07:05:01.393Z</time>
      </trkpt>
      <trkpt lat="47.79559" lon="2.19703">
        <ele>109</ele>
        <time>2017-05-07T07:05:02.358Z</time>
      </trkpt>
      <trkpt lat="47.79559" lon="2.19703">
        <ele>109</ele>
        <time>2017-05-07T07:05:03.394Z</time>
      </trkpt>
      <trkpt lat="47.79557" lon="2.19717">
        <ele>109</ele>
        <time>2017-05-07T07:05:04.372Z</time>
      </trkpt>
      <trkpt lat="47.79557" lon="2.19717">
        <ele>109</ele>
        <time>2017-05-07T07:05:05.360Z</time>
      </trkpt>
      <trkpt lat="47.79555" lon="2.19727">
        <ele>109</ele>
        <time>2017-05-07T07:05:06.380Z</time>
      </trkpt>
      <trkpt lat="47.79555" lon="2.19727">
        <ele>109</ele>
        <time>2017-05-07T07:05:07.367Z</time>
      </trkpt>
      <trkpt lat="47.79554" lon="2.19735">
        <ele>109</ele>
        <time>2017-05-07T07:05:08.360Z</time>
      </trkpt>
      <trkpt lat="47.79554" lon="2.19735">
        <ele>109</ele>
        <time>2017-05-07T07:05:09.393Z</time>
      </trkpt>
      <trkpt lat="47.79553" lon="2.19743">
        <ele>109</ele>
        <time>2017-05-07T07:05:10.360Z</time>
      </trkpt>
      <trkpt lat="47.79553" lon="2.19743">
        <ele>109</ele>
        <time>2017-05-07T07:05:11.361Z</time>
      </trkpt>
      <trkpt lat="47.79552" lon="2.19751">
        <ele>108</ele>
        <time>2017-05-07T07:05:12.358Z</time>
      </trkpt>
      <trkpt lat="47.79552" lon="2.19751">
        <ele>108</ele>
        <time>2017-05-07T07:05:13.391Z</time>
      </trkpt>
      <trkpt lat="47.7955" lon="2.19759">
        <ele>108</ele>
        <time>2017-05-07T07:05:14.358Z</time>
      </trkpt>
      <trkpt lat="47.7955" lon="2.19759">
        <ele>108</ele>
        <time>2017-05-07T07:05:15.392Z</time>
      </trkpt>
      <trkpt lat="47.79549" lon="2.19765">
        <ele>108</ele>
        <time>2017-05-07T07:05:16.391Z</time>
      </trkpt>
      <trkpt lat="47.79549" lon="2.19768">
        <ele>108</ele>
        <time>2017-05-07T07:05:17.358Z</time>
      </trkpt>
      <trkpt lat="47.79549" lon="2.19768">
        <ele>108</ele>
        <time>2017-05-07T07:05:18.393Z</time>
      </trkpt>
      <trkpt lat="47.79548" lon="2.19773">
        <ele>108</ele>
        <time>2017-05-07T07:05:19.357Z</time>
      </trkpt>
      <trkpt lat="47.79548" lon="2.19773">
        <ele>108</ele>
        <time>2017-05-07T07:05:20.392Z</time>
      </trkpt>
      <trkpt lat="47.79548" lon="2.19778">
        <ele>108</ele>
        <time>2017-05-07T07:05:21.360Z</time>
      </trkpt>
      <trkpt lat="47.79549" lon="2.19779">
        <ele>108</ele>
        <time>2017-05-07T07:05:22.360Z</time>
      </trkpt>
      <trkpt lat="47.79549" lon="2.19779">
        <ele>108</ele>
        <time>2017-05-07T07:05:23.393Z</time>
      </trkpt>
      <trkpt lat="47.79548" lon="2.1978">
        <ele>108</ele>
        <time>2017-05-07T07:05:24.372Z</time>
      </trkpt>
      <trkpt lat="47.79548" lon="2.1978">
        <ele>108</ele>
        <time>2017-05-07T07:05:25.361Z</time>
      </trkpt>
      <trkpt lat="47.79547" lon="2.19781">
        <ele>108</ele>
        <time>2017-05-07T07:05:26.357Z</time>
      </trkpt>
      <trkpt lat="47.79547" lon="2.19781">
        <ele>108</ele>
        <time>2017-05-07T07:05:27.390Z</time>
      </trkpt>
      <trkpt lat="47.79547" lon="2.19781">
        <ele>108</ele>
        <time>2017-05-07T07:05:28.386Z</time>
      </trkpt>
      <trkpt lat="47.79554" lon="2.19786">
        <ele>109</ele>
        <time>2017-05-07T07:05:29.360Z</time>
      </trkpt>
      <trkpt lat="47.79554" lon="2.19786">
        <ele>109</ele>
        <time>2017-05-07T07:05:30.388Z</time>
      </trkpt>
      <trkpt lat="47.79559" lon="2.19784">
        <ele>109</ele>
        <time>2017-05-07T07:05:31.393Z</time>
      </trkpt>
      <trkpt lat="47.79559" lon="2.19784">
        <ele>109</ele>
        <time>2017-05-07T07:05:32.385Z</time>
      </trkpt>
      <trkpt lat="47.79564" lon="2.19783">
        <ele>111</ele>
        <time>2017-05-07T07:05:33.389Z</time>
      </trkpt>
      <trkpt lat="47.79564" lon="2.19783">
        <ele>111</ele>
        <time>2017-05-07T07:05:34.384Z</time>
      </trkpt>
      <trkpt lat="47.79571" lon="2.19783">
        <ele>112</ele>
        <time>2017-05-07T07:05:35.355Z</time>
      </trkpt>
      <trkpt lat="47.79571" lon="2.19783">
        <ele>112</ele>
        <time>2017-05-07T07:05:36.394Z</time>
      </trkpt>
      <trkpt lat="47.79578" lon="2.19782">
        <ele>113</ele>
        <time>2017-05-07T07:05:37.369Z</time>
      </trkpt>
      <trkpt lat="47.79578" lon="2.19782">
        <ele>113</ele>
        <time>2017-05-07T07:05:38.361Z</time>
      </trkpt>
      <trkpt lat="47.79584" lon="2.19778">
        <ele>114</ele>
        <time>2017-05-07T07:05:39.391Z</time>
      </trkpt>
      <trkpt lat="47.79584" lon="2.19778">
        <ele>114</ele>
        <time>2017-05-07T07:05:40.382Z</time>
      </trkpt>
      <trkpt lat="47.79587" lon="2.19776">
        <ele>115</ele>
        <time>2017-05-07T07:05:41.390Z</time>
      </trkpt>
      <trkpt lat="47.79587" lon="2.19776">
        <ele>115</ele>
        <time>2017-05-07T07:05:42.392Z</time>
      </trkpt>
      <trkpt lat="47.79589" lon="2.19775">
        <ele>116</ele>
        <time>2017-05-07T07:05:43.392Z</time>
      </trkpt>
      <trkpt lat="47.79589" lon="2.19775">
        <ele>116</ele>
        <time>2017-05-07T07:05:44.384Z</time>
      </trkpt>
      <trkpt lat="47.79592" lon="2.19775">
        <ele>117</ele>
        <time>2017-05-07T07:05:45.389Z</time>
      </trkpt>
      <trkpt lat="47.79592" lon="2.19775">
        <ele>117</ele>
        <time>2017-05-07T07:05:46.384Z</time>
      </trkpt>
      <trkpt lat="47.79595" lon="2.19775">
        <ele>118</ele>
        <time>2017-05-07T07:05:47.391Z</time>
      </trkpt>
      <trkpt lat="47.79595" lon="2.19775">
        <ele>118</ele>
        <time>2017-05-07T07:05:48.388Z</time>
      </trkpt>
      <trkpt lat="47.79597" lon="2.19775">
        <ele>119</ele>
        <time>2017-05-07T07:05:49.385Z</time>
      </trkpt>
      <trkpt lat="47.79597" lon="2.19775">
        <ele>119</ele>
        <time>2017-05-07T07:05:50.357Z</time>
      </trkpt>
      <trkpt lat="47.79597" lon="2.19775">
        <ele>119</ele>
        <time>2017-05-07T07:05:51.392Z</time>
      </trkpt>
      <trkpt lat="47.79603" lon="2.19773">
        <ele>115</ele>
        <time>2017-05-07T07:05:52.382Z</time>
      </trkpt>
      <trkpt lat="47.79603" lon="2.19773">
        <ele>115</ele>
        <time>2017-05-07T07:05:53.381Z</time>
      </trkpt>
      <trkpt lat="47.79605" lon="2.19773">
        <ele>114</ele>
        <time>2017-05-07T07:05:54.383Z</time>
      </trkpt>
      <trkpt lat="47.79605" lon="2.19773">
        <ele>114</ele>
        <time>2017-05-07T07:05:55.378Z</time>
      </trkpt>
      <trkpt lat="47.79605" lon="2.19775">
        <ele>114</ele>
        <time>2017-05-07T07:05:56.386Z</time>
      </trkpt>
      <trkpt lat="47.79606" lon="2.19777">
        <ele>114</ele>
        <time>2017-05-07T07:05:57.383Z</time>
      </trkpt>
      <trkpt lat="47.79606" lon="2.19777">
        <ele>114</ele>
        <time>2017-05-07T07:05:58.379Z</time>
      </trkpt>
      <trkpt lat="47.79608" lon="2.19781">
        <ele>114</ele>
        <time>2017-05-07T07:05:59.356Z</time>
      </trkpt>
      <trkpt lat="47.79608" lon="2.19781">
        <ele>114</ele>
        <time>2017-05-07T07:06:00.385Z</time>
      </trkpt>
      <trkpt lat="47.7961" lon="2.19786">
        <ele>113</ele>
        <time>2017-05-07T07:06:01.382Z</time>
      </trkpt>
      <trkpt lat="47.79611" lon="2.1979">
        <ele>113</ele>
        <time>2017-05-07T07:06:02.356Z</time>
      </trkpt>
      <trkpt lat="47.79611" lon="2.1979">
        <ele>113</ele>
        <time>2017-05-07T07:06:03.389Z</time>
      </trkpt>
      <trkpt lat="47.79611" lon="2.19797">
        <ele>113</ele>
        <time>2017-05-07T07:06:04.382Z</time>
      </trkpt>
      <trkpt lat="47.7961" lon="2.198">
        <ele>113</ele>
        <time>2017-05-07T07:06:05.380Z</time>
      </trkpt>
      <trkpt lat="47.7961" lon="2.198">
        <ele>113</ele>
        <time>2017-05-07T07:06:06.380Z</time>
      </trkpt>
      <trkpt lat="47.7961" lon="2.19808">
        <ele>113</ele>
        <time>2017-05-07T07:06:07.380Z</time>
      </trkpt>
      <trkpt lat="47.7961" lon="2.19808">
        <ele>113</ele>
        <time>2017-05-07T07:06:08.371Z</time>
      </trkpt>
      <trkpt lat="47.79607" lon="2.19818">
        <ele>113</ele>
        <time>2017-05-07T07:06:09.379Z</time>
      </trkpt>
      <trkpt lat="47.79606" lon="2.19823">
        <ele>113</ele>
        <time>2017-05-07T07:06:10.380Z</time>
      </trkpt>
      <trkpt lat="47.79606" lon="2.19823">
        <ele>113</ele>
        <time>2017-05-07T07:06:11.374Z</time>
      </trkpt>
      <trkpt lat="47.79608" lon="2.19834">
        <ele>113</ele>
        <time>2017-05-07T07:06:12.379Z</time>
      </trkpt>
      <trkpt lat="47.79608" lon="2.1984">
        <ele>112</ele>
        <time>2017-05-07T07:06:13.381Z</time>
      </trkpt>
      <trkpt lat="47.79608" lon="2.19844">
        <ele>112</ele>
        <time>2017-05-07T07:06:14.384Z</time>
      </trkpt>
      <trkpt lat="47.79608" lon="2.19844">
        <ele>112</ele>
        <time>2017-05-07T07:06:15.375Z</time>
      </trkpt>
      <trkpt lat="47.79609" lon="2.19853">
        <ele>112</ele>
        <time>2017-05-07T07:06:16.382Z</time>
      </trkpt>
      <trkpt lat="47.79609" lon="2.19853">
        <ele>112</ele>
        <time>2017-05-07T07:06:17.371Z</time>
      </trkpt>
      <trkpt lat="47.79611" lon="2.19862">
        <ele>112</ele>
        <time>2017-05-07T07:06:18.361Z</time>
      </trkpt>
      <trkpt lat="47.79611" lon="2.19862">
        <ele>112</ele>
        <time>2017-05-07T07:06:19.390Z</time>
      </trkpt>
      <trkpt lat="47.7961" lon="2.19873">
        <ele>112</ele>
        <time>2017-05-07T07:06:20.381Z</time>
      </trkpt>
      <trkpt lat="47.7961" lon="2.19873">
        <ele>112</ele>
        <time>2017-05-07T07:06:21.376Z</time>
      </trkpt>
      <trkpt lat="47.79608" lon="2.19883">
        <ele>112</ele>
        <time>2017-05-07T07:06:22.383Z</time>
      </trkpt>
      <trkpt lat="47.79609" lon="2.19889">
        <ele>112</ele>
        <time>2017-05-07T07:06:23.382Z</time>
      </trkpt>
      <trkpt lat="47.79609" lon="2.19889">
        <ele>112</ele>
        <time>2017-05-07T07:06:24.377Z</time>
      </trkpt>
      <trkpt lat="47.79607" lon="2.199">
        <ele>112</ele>
        <time>2017-05-07T07:06:25.381Z</time>
      </trkpt>
      <trkpt lat="47.79607" lon="2.19905">
        <ele>112</ele>
        <time>2017-05-07T07:06:26.373Z</time>
      </trkpt>
      <trkpt lat="47.79607" lon="2.19905">
        <ele>112</ele>
        <time>2017-05-07T07:06:27.366Z</time>
      </trkpt>
      <trkpt lat="47.79606" lon="2.19917">
        <ele>112</ele>
        <time>2017-05-07T07:06:28.394Z</time>
      </trkpt>
      <trkpt lat="47.79606" lon="2.19917">
        <ele>112</ele>
        <time>2017-05-07T07:06:29.380Z</time>
      </trkpt>
      <trkpt lat="47.79606" lon="2.19931">
        <ele>111</ele>
        <time>2017-05-07T07:06:30.381Z</time>
      </trkpt>
      <trkpt lat="47.79606" lon="2.19931">
        <ele>111</ele>
        <time>2017-05-07T07:06:31.387Z</time>
      </trkpt>
      <trkpt lat="47.79605" lon="2.19946">
        <ele>111</ele>
        <time>2017-05-07T07:06:32.355Z</time>
      </trkpt>
      <trkpt lat="47.79605" lon="2.19946">
        <ele>111</ele>
        <time>2017-05-07T07:06:33.359Z</time>
      </trkpt>
      <trkpt lat="47.79604" lon="2.19959">
        <ele>111</ele>
        <time>2017-05-07T07:06:34.389Z</time>
      </trkpt>
      <trkpt lat="47.79604" lon="2.19959">
        <ele>111</ele>
        <time>2017-05-07T07:06:35.379Z</time>
      </trkpt>
      <trkpt lat="47.79604" lon="2.1997">
        <ele>111</ele>
        <time>2017-05-07T07:06:36.382Z</time>
      </trkpt>
      <trkpt lat="47.79604" lon="2.1997">
        <ele>111</ele>
        <time>2017-05-07T07:06:37.371Z</time>
      </trkpt>
      <trkpt lat="47.79603" lon="2.19983">
        <ele>111</ele>
        <time>2017-05-07T07:06:38.359Z</time>
      </trkpt>
      <trkpt lat="47.79603" lon="2.19983">
        <ele>111</ele>
        <time>2017-05-07T07:06:39.380Z</time>
      </trkpt>
      <trkpt lat="47.79601" lon="2.19996">
        <ele>111</ele>
        <time>2017-05-07T07:06:40.381Z</time>
      </trkpt>
      <trkpt lat="47.79601" lon="2.19996">
        <ele>111</ele>
        <time>2017-05-07T07:06:41.376Z</time>
      </trkpt>
      <trkpt lat="47.796" lon="2.20007">
        <ele>111</ele>
        <time>2017-05-07T07:06:42.382Z</time>
      </trkpt>
      <trkpt lat="47.796" lon="2.20007">
        <ele>111</ele>
        <time>2017-05-07T07:06:43.376Z</time>
      </trkpt>
      <trkpt lat="47.796" lon="2.20018">
        <ele>111</ele>
        <time>2017-05-07T07:06:44.384Z</time>
      </trkpt>
      <trkpt lat="47.796" lon="2.20018">
        <ele>111</ele>
        <time>2017-05-07T07:06:45.376Z</time>
      </trkpt>
      <trkpt lat="47.79601" lon="2.20029">
        <ele>111</ele>
        <time>2017-05-07T07:06:46.383Z</time>
      </trkpt>
      <trkpt lat="47.79601" lon="2.20029">
        <ele>111</ele>
        <time>2017-05-07T07:06:47.374Z</time>
      </trkpt>
      <trkpt lat="47.79603" lon="2.20038">
        <ele>110</ele>
        <time>2017-05-07T07:06:48.381Z</time>
      </trkpt>
      <trkpt lat="47.79603" lon="2.20038">
        <ele>110</ele>
        <time>2017-05-07T07:06:49.379Z</time>
      </trkpt>
      <trkpt lat="47.79605" lon="2.20046">
        <ele>110</ele>
        <time>2017-05-07T07:06:50.355Z</time>
      </trkpt>
      <trkpt lat="47.79605" lon="2.20046">
        <ele>110</ele>
        <time>2017-05-07T07:06:51.385Z</time>
      </trkpt>
      <trkpt lat="47.79606" lon="2.20051">
        <ele>110</ele>
        <time>2017-05-07T07:06:52.384Z</time>
      </trkpt>
      <trkpt lat="47.79606" lon="2.20051">
        <ele>110</ele>
        <time>2017-05-07T07:06:53.376Z</time>
      </trkpt>
      <trkpt lat="47.79608" lon="2.20057">
        <ele>110</ele>
        <time>2017-05-07T07:06:54.382Z</time>
      </trkpt>
      <trkpt lat="47.79608" lon="2.20057">
        <ele>110</ele>
        <time>2017-05-07T07:06:55.376Z</time>
      </trkpt>
      <trkpt lat="47.79609" lon="2.20064">
        <ele>110</ele>
        <time>2017-05-07T07:06:56.381Z</time>
      </trkpt>
      <trkpt lat="47.79609" lon="2.20064">
        <ele>110</ele>
        <time>2017-05-07T07:06:57.374Z</time>
      </trkpt>
      <trkpt lat="47.7961" lon="2.20071">
        <ele>110</ele>
        <time>2017-05-07T07:06:58.381Z</time>
      </trkpt>
      <trkpt lat="47.79611" lon="2.20075">
        <ele>110</ele>
        <time>2017-05-07T07:06:59.381Z</time>
      </trkpt>
      <trkpt lat="47.79611" lon="2.20075">
        <ele>110</ele>
        <time>2017-05-07T07:07:00.377Z</time>
      </trkpt>
      <trkpt lat="47.79615" lon="2.20085">
        <ele>110</ele>
        <time>2017-05-07T07:07:01.381Z</time>
      </trkpt>
      <trkpt lat="47.79617" lon="2.20089">
        <ele>110</ele>
        <time>2017-05-07T07:07:02.384Z</time>
      </trkpt>
      <trkpt lat="47.79617" lon="2.20089">
        <ele>110</ele>
        <time>2017-05-07T07:07:03.376Z</time>
      </trkpt>
      <trkpt lat="47.79622" lon="2.20099">
        <ele>110</ele>
        <time>2017-05-07T07:07:04.381Z</time>
      </trkpt>
      <trkpt lat="47.79622" lon="2.20099">
        <ele>110</ele>
        <time>2017-05-07T07:07:05.376Z</time>
      </trkpt>
      <trkpt lat="47.79627" lon="2.20108">
        <ele>110</ele>
        <time>2017-05-07T07:07:06.381Z</time>
      </trkpt>
      <trkpt lat="47.79631" lon="2.20113">
        <ele>110</ele>
        <time>2017-05-07T07:07:07.385Z</time>
      </trkpt>
      <trkpt lat="47.79632" lon="2.20118">
        <ele>110</ele>
        <time>2017-05-07T07:07:08.387Z</time>
      </trkpt>
      <trkpt lat="47.79632" lon="2.20118">
        <ele>110</ele>
        <time>2017-05-07T07:07:09.377Z</time>
      </trkpt>
      <trkpt lat="47.79636" lon="2.20126">
        <ele>111</ele>
        <time>2017-05-07T07:07:10.382Z</time>
      </trkpt>
      <trkpt lat="47.79636" lon="2.20126">
        <ele>111</ele>
        <time>2017-05-07T07:07:11.375Z</time>
      </trkpt>
      <trkpt lat="47.7964" lon="2.20132">
        <ele>111</ele>
        <time>2017-05-07T07:07:12.380Z</time>
      </trkpt>
      <trkpt lat="47.7964" lon="2.20132">
        <ele>111</ele>
        <time>2017-05-07T07:07:13.376Z</time>
      </trkpt>
      <trkpt lat="47.79643" lon="2.20135">
        <ele>111</ele>
        <time>2017-05-07T07:07:14.386Z</time>
      </trkpt>
      <trkpt lat="47.79643" lon="2.20135">
        <ele>111</ele>
        <time>2017-05-07T07:07:15.378Z</time>
      </trkpt>
      <trkpt lat="47.79644" lon="2.20137">
        <ele>111</ele>
        <time>2017-05-07T07:07:16.380Z</time>
      </trkpt>
      <trkpt lat="47.79644" lon="2.20137">
        <ele>111</ele>
        <time>2017-05-07T07:07:17.377Z</time>
      </trkpt>
      <trkpt lat="47.79643" lon="2.2014">
        <ele>111</ele>
        <time>2017-05-07T07:07:18.379Z</time>
      </trkpt>
      <trkpt lat="47.79643" lon="2.2014">
        <ele>111</ele>
        <time>2017-05-07T07:07:19.377Z</time>
      </trkpt>
      <trkpt lat="47.79639" lon="2.20141">
        <ele>110</ele>
        <time>2017-05-07T07:07:20.384Z</time>
      </trkpt>
      <trkpt lat="47.79639" lon="2.20141">
        <ele>110</ele>
        <time>2017-05-07T07:07:21.376Z</time>
      </trkpt>
      <trkpt lat="47.79632" lon="2.20143">
        <ele>110</ele>
        <time>2017-05-07T07:07:22.370Z</time>
      </trkpt>
      <trkpt lat="47.79632" lon="2.20143">
        <ele>110</ele>
        <time>2017-05-07T07:07:23.377Z</time>
      </trkpt>
      <trkpt lat="47.79625" lon="2.20145">
        <ele>109</ele>
        <time>2017-05-07T07:07:24.381Z</time>
      </trkpt>
      <trkpt lat="47.79625" lon="2.20145">
        <ele>109</ele>
        <time>2017-05-07T07:07:25.376Z</time>
      </trkpt>
      <trkpt lat="47.79619" lon="2.20145">
        <ele>109</ele>
        <time>2017-05-07T07:07:26.385Z</time>
      </trkpt>
      <trkpt lat="47.79619" lon="2.20145">
        <ele>109</ele>
        <time>2017-05-07T07:07:27.377Z</time>
      </trkpt>
      <trkpt lat="47.79612" lon="2.20144">
        <ele>109</ele>
        <time>2017-05-07T07:07:28.381Z</time>
      </trkpt>
      <trkpt lat="47.79612" lon="2.20144">
        <ele>109</ele>
        <time>2017-05-07T07:07:29.394Z</time>
      </trkpt>
      <trkpt lat="47.79605" lon="2.20142">
        <ele>109</ele>
        <time>2017-05-07T07:07:30.393Z</time>
      </trkpt>
      <trkpt lat="47.79605" lon="2.20142">
        <ele>109</ele>
        <time>2017-05-07T07:07:31.381Z</time>
      </trkpt>
      <trkpt lat="47.79597" lon="2.2014">
        <ele>109</ele>
        <time>2017-05-07T07:07:32.381Z</time>
      </trkpt>
      <trkpt lat="47.79597" lon="2.2014">
        <ele>109</ele>
        <time>2017-05-07T07:07:33.376Z</time>
      </trkpt>
      <trkpt lat="47.79592" lon="2.20139">
        <ele>109</ele>
        <time>2017-05-07T07:07:34.380Z</time>
      </trkpt>
      <trkpt lat="47.7959" lon="2.20139">
        <ele>109</ele>
        <time>2017-05-07T07:07:35.380Z</time>
      </trkpt>
      <trkpt lat="47.7959" lon="2.20139">
        <ele>109</ele>
        <time>2017-05-07T07:07:36.379Z</time>
      </trkpt>
      <trkpt lat="47.79588" lon="2.20139">
        <ele>109</ele>
        <time>2017-05-07T07:07:37.382Z</time>
      </trkpt>
      <trkpt lat="47.79587" lon="2.20139">
        <ele>109</ele>
        <time>2017-05-07T07:07:38.383Z</time>
      </trkpt>
      <trkpt lat="47.79587" lon="2.20139">
        <ele>109</ele>
        <time>2017-05-07T07:07:39.380Z</time>
      </trkpt>
      <trkpt lat="47.79585" lon="2.20144">
        <ele>109</ele>
        <time>2017-05-07T07:07:40.381Z</time>
      </trkpt>
      <trkpt lat="47.79585" lon="2.20144">
        <ele>109</ele>
        <time>2017-05-07T07:07:41.378Z</time>
      </trkpt>
      <trkpt lat="47.79586" lon="2.20153">
        <ele>110</ele>
        <time>2017-05-07T07:07:42.382Z</time>
      </trkpt>
      <trkpt lat="47.79586" lon="2.20153">
        <ele>110</ele>
        <time>2017-05-07T07:07:43.381Z</time>
      </trkpt>
      <trkpt lat="47.79587" lon="2.20164">
        <ele>110</ele>
        <time>2017-05-07T07:07:44.385Z</time>
      </trkpt>
      <trkpt lat="47.79587" lon="2.20169">
        <ele>110</ele>
        <time>2017-05-07T07:07:45.384Z</time>
      </trkpt>
      <trkpt lat="47.79588" lon="2.20175">
        <ele>111</ele>
        <time>2017-05-07T07:07:46.383Z</time>
      </trkpt>
      <trkpt lat="47.79588" lon="2.20175">
        <ele>111</ele>
        <time>2017-05-07T07:07:47.376Z</time>
      </trkpt>
      <trkpt lat="47.7959" lon="2.20186">
        <ele>111</ele>
        <time>2017-05-07T07:07:48.383Z</time>
      </trkpt>
      <trkpt lat="47.7959" lon="2.20186">
        <ele>111</ele>
        <time>2017-05-07T07:07:49.372Z</time>
      </trkpt>
      <trkpt lat="47.79591" lon="2.20198">
        <ele>112</ele>
        <time>2017-05-07T07:07:50.385Z</time>
      </trkpt>
      <trkpt lat="47.79591" lon="2.20198">
        <ele>112</ele>
        <time>2017-05-07T07:07:51.380Z</time>
      </trkpt>
      <trkpt lat="47.79593" lon="2.20209">
        <ele>112</ele>
        <time>2017-05-07T07:07:52.355Z</time>
      </trkpt>
      <trkpt lat="47.79593" lon="2.20215">
        <ele>112</ele>
        <time>2017-05-07T07:07:53.385Z</time>
      </trkpt>
      <trkpt lat="47.79593" lon="2.20215">
        <ele>112</ele>
        <time>2017-05-07T07:07:54.376Z</time>
      </trkpt>
      <trkpt lat="47.79594" lon="2.20228">
        <ele>113</ele>
        <time>2017-05-07T07:07:55.394Z</time>
      </trkpt>
      <trkpt lat="47.79596" lon="2.20234">
        <ele>113</ele>
        <time>2017-05-07T07:07:56.384Z</time>
      </trkpt>
      <trkpt lat="47.79596" lon="2.20234">
        <ele>113</ele>
        <time>2017-05-07T07:07:57.378Z</time>
      </trkpt>
      <trkpt lat="47.79598" lon="2.20247">
        <ele>113</ele>
        <time>2017-05-07T07:07:58.390Z</time>
      </trkpt>
      <trkpt lat="47.79598" lon="2.20247">
        <ele>113</ele>
        <time>2017-05-07T07:07:59.388Z</time>
      </trkpt>
      <trkpt lat="47.79599" lon="2.20259">
        <ele>113</ele>
        <time>2017-05-07T07:08:00.382Z</time>
      </trkpt>
      <trkpt lat="47.796" lon="2.20266">
        <ele>114</ele>
        <time>2017-05-07T07:08:01.382Z</time>
      </trkpt>
      <trkpt lat="47.796" lon="2.20273">
        <ele>114</ele>
        <time>2017-05-07T07:08:02.385Z</time>
      </trkpt>
      <trkpt lat="47.796" lon="2.20273">
        <ele>114</ele>
        <time>2017-05-07T07:08:03.380Z</time>
      </trkpt>
      <trkpt lat="47.79601" lon="2.20288">
        <ele>114</ele>
        <time>2017-05-07T07:08:04.382Z</time>
      </trkpt>
      <trkpt lat="47.79601" lon="2.20288">
        <ele>114</ele>
        <time>2017-05-07T07:08:05.377Z</time>
      </trkpt>
      <trkpt lat="47.79602" lon="2.20302">
        <ele>115</ele>
        <time>2017-05-07T07:08:06.382Z</time>
      </trkpt>
      <trkpt lat="47.79602" lon="2.20302">
        <ele>115</ele>
        <time>2017-05-07T07:08:07.380Z</time>
      </trkpt>
      <trkpt lat="47.79604" lon="2.20318">
        <ele>115</ele>
        <time>2017-05-07T07:08:08.386Z</time>
      </trkpt>
      <trkpt lat="47.79604" lon="2.20318">
        <ele>115</ele>
        <time>2017-05-07T07:08:09.378Z</time>
      </trkpt>
      <trkpt lat="47.79606" lon="2.20336">
        <ele>115</ele>
        <time>2017-05-07T07:08:10.381Z</time>
      </trkpt>
      <trkpt lat="47.79606" lon="2.20336">
        <ele>115</ele>
        <time>2017-05-07T07:08:11.380Z</time>
      </trkpt>
      <trkpt lat="47.79609" lon="2.20355">
        <ele>115</ele>
        <time>2017-05-07T07:08:12.384Z</time>
      </trkpt>
      <trkpt lat="47.79609" lon="2.20355">
        <ele>115</ele>
        <time>2017-05-07T07:08:13.380Z</time>
      </trkpt>
      <trkpt lat="47.79613" lon="2.20372">
        <ele>116</ele>
        <time>2017-05-07T07:08:14.360Z</time>
      </trkpt>
      <trkpt lat="47.79613" lon="2.20372">
        <ele>116</ele>
        <time>2017-05-07T07:08:15.364Z</time>
      </trkpt>
      <trkpt lat="47.79617" lon="2.20387">
        <ele>116</ele>
        <time>2017-05-07T07:08:16.392Z</time>
      </trkpt>
      <trkpt lat="47.79617" lon="2.20387">
        <ele>116</ele>
        <time>2017-05-07T07:08:17.382Z</time>
      </trkpt>
      <trkpt lat="47.7962" lon="2.20401">
        <ele>116</ele>
        <time>2017-05-07T07:08:18.382Z</time>
      </trkpt>
      <trkpt lat="47.7962" lon="2.20401">
        <ele>116</ele>
        <time>2017-05-07T07:08:19.376Z</time>
      </trkpt>
      <trkpt lat="47.79623" lon="2.20413">
        <ele>117</ele>
        <time>2017-05-07T07:08:20.357Z</time>
      </trkpt>
      <trkpt lat="47.79623" lon="2.20413">
        <ele>117</ele>
        <time>2017-05-07T07:08:21.360Z</time>
      </trkpt>
      <trkpt lat="47.79625" lon="2.20425">
        <ele>117</ele>
        <time>2017-05-07T07:08:22.389Z</time>
      </trkpt>
      <trkpt lat="47.79625" lon="2.20425">
        <ele>117</ele>
        <time>2017-05-07T07:08:23.379Z</time>
      </trkpt>
      <trkpt lat="47.79631" lon="2.20438">
        <ele>117</ele>
        <time>2017-05-07T07:08:24.381Z</time>
      </trkpt>
      <trkpt lat="47.79633" lon="2.20444">
        <ele>118</ele>
        <time>2017-05-07T07:08:25.384Z</time>
      </trkpt>
      <trkpt lat="47.79633" lon="2.20444">
        <ele>118</ele>
        <time>2017-05-07T07:08:26.380Z</time>
      </trkpt>
      <trkpt lat="47.79637" lon="2.20457">
        <ele>118</ele>
        <time>2017-05-07T07:08:27.381Z</time>
      </trkpt>
      <trkpt lat="47.79637" lon="2.20457">
        <ele>118</ele>
        <time>2017-05-07T07:08:28.371Z</time>
      </trkpt>
      <trkpt lat="47.79641" lon="2.20473">
        <ele>118</ele>
        <time>2017-05-07T07:08:29.378Z</time>
      </trkpt>
      <trkpt lat="47.79642" lon="2.2048">
        <ele>118</ele>
        <time>2017-05-07T07:08:30.358Z</time>
      </trkpt>
      <trkpt lat="47.79643" lon="2.20487">
        <ele>118</ele>
        <time>2017-05-07T07:08:31.387Z</time>
      </trkpt>
      <trkpt lat="47.79643" lon="2.20487">
        <ele>118</ele>
        <time>2017-05-07T07:08:32.388Z</time>
      </trkpt>
      <trkpt lat="47.79646" lon="2.20501">
        <ele>118</ele>
        <time>2017-05-07T07:08:33.382Z</time>
      </trkpt>
      <trkpt lat="47.79647" lon="2.20508">
        <ele>118</ele>
        <time>2017-05-07T07:08:34.380Z</time>
      </trkpt>
      <trkpt lat="47.79648" lon="2.20515">
        <ele>119</ele>
        <time>2017-05-07T07:08:35.385Z</time>
      </trkpt>
      <trkpt lat="47.79648" lon="2.20515">
        <ele>119</ele>
        <time>2017-05-07T07:08:36.379Z</time>
      </trkpt>
      <trkpt lat="47.7965" lon="2.2053">
        <ele>119</ele>
        <time>2017-05-07T07:08:37.394Z</time>
      </trkpt>
      <trkpt lat="47.7965" lon="2.2053">
        <ele>119</ele>
        <time>2017-05-07T07:08:38.383Z</time>
      </trkpt>
      <trkpt lat="47.79651" lon="2.20544">
        <ele>119</ele>
        <time>2017-05-07T07:08:39.384Z</time>
      </trkpt>
      <trkpt lat="47.7965" lon="2.20551">
        <ele>119</ele>
        <time>2017-05-07T07:08:40.357Z</time>
      </trkpt>
      <trkpt lat="47.7965" lon="2.20551">
        <ele>119</ele>
        <time>2017-05-07T07:08:41.387Z</time>
      </trkpt>
      <trkpt lat="47.79647" lon="2.20567">
        <ele>119</ele>
        <time>2017-05-07T07:08:42.393Z</time>
      </trkpt>
      <trkpt lat="47.79648" lon="2.20576">
        <ele>120</ele>
        <time>2017-05-07T07:08:43.383Z</time>
      </trkpt>
      <trkpt lat="47.79648" lon="2.20576">
        <ele>120</ele>
        <time>2017-05-07T07:08:44.383Z</time>
      </trkpt>
      <trkpt lat="47.79648" lon="2.20593">
        <ele>120</ele>
        <time>2017-05-07T07:08:45.380Z</time>
      </trkpt>
      <trkpt lat="47.79649" lon="2.20602">
        <ele>120</ele>
        <time>2017-05-07T07:08:46.383Z</time>
      </trkpt>
      <trkpt lat="47.79649" lon="2.20602">
        <ele>120</ele>
        <time>2017-05-07T07:08:47.377Z</time>
      </trkpt>
      <trkpt lat="47.79654" lon="2.20622">
        <ele>120</ele>
        <time>2017-05-07T07:08:48.389Z</time>
      </trkpt>
      <trkpt lat="47.79654" lon="2.20622">
        <ele>120</ele>
        <time>2017-05-07T07:08:49.380Z</time>
      </trkpt>
      <trkpt lat="47.79659" lon="2.20643">
        <ele>119</ele>
        <time>2017-05-07T07:08:50.386Z</time>
      </trkpt>
      <trkpt lat="47.79661" lon="2.20652">
        <ele>119</ele>
        <time>2017-05-07T07:08:51.385Z</time>
      </trkpt>
      <trkpt lat="47.79661" lon="2.20652">
        <ele>119</ele>
        <time>2017-05-07T07:08:52.383Z</time>
      </trkpt>
      <trkpt lat="47.79662" lon="2.20669">
        <ele>119</ele>
        <time>2017-05-07T07:08:53.384Z</time>
      </trkpt>
      <trkpt lat="47.79662" lon="2.20677">
        <ele>119</ele>
        <time>2017-05-07T07:08:54.382Z</time>
      </trkpt>
      <trkpt lat="47.79662" lon="2.20677">
        <ele>119</ele>
        <time>2017-05-07T07:08:55.381Z</time>
      </trkpt>
      <trkpt lat="47.79664" lon="2.20693">
        <ele>119</ele>
        <time>2017-05-07T07:08:56.384Z</time>
      </trkpt>
      <trkpt lat="47.79664" lon="2.20693">
        <ele>119</ele>
        <time>2017-05-07T07:08:57.377Z</time>
      </trkpt>
      <trkpt lat="47.79667" lon="2.20708">
        <ele>120</ele>
        <time>2017-05-07T07:08:58.383Z</time>
      </trkpt>
      <trkpt lat="47.79667" lon="2.20708">
        <ele>120</ele>
        <time>2017-05-07T07:08:59.378Z</time>
      </trkpt>
      <trkpt lat="47.7967" lon="2.20721">
        <ele>121</ele>
        <time>2017-05-07T07:09:00.382Z</time>
      </trkpt>
      <trkpt lat="47.7967" lon="2.20721">
        <ele>121</ele>
        <time>2017-05-07T07:09:01.378Z</time>
      </trkpt>
      <trkpt lat="47.79674" lon="2.20734">
        <ele>122</ele>
        <time>2017-05-07T07:09:02.356Z</time>
      </trkpt>
      <trkpt lat="47.79676" lon="2.20741">
        <ele>123</ele>
        <time>2017-05-07T07:09:03.395Z</time>
      </trkpt>
      <trkpt lat="47.79676" lon="2.20741">
        <ele>123</ele>
        <time>2017-05-07T07:09:04.384Z</time>
      </trkpt>
      <trkpt lat="47.79678" lon="2.20758">
        <ele>124</ele>
        <time>2017-05-07T07:09:05.384Z</time>
      </trkpt>
      <trkpt lat="47.79678" lon="2.20758">
        <ele>124</ele>
        <time>2017-05-07T07:09:06.381Z</time>
      </trkpt>
      <trkpt lat="47.79681" lon="2.20776">
        <ele>125</ele>
        <time>2017-05-07T07:09:07.384Z</time>
      </trkpt>
      <trkpt lat="47.79682" lon="2.20784">
        <ele>125</ele>
        <time>2017-05-07T07:09:08.384Z</time>
      </trkpt>
      <trkpt lat="47.79682" lon="2.20784">
        <ele>125</ele>
        <time>2017-05-07T07:09:09.380Z</time>
      </trkpt>
      <trkpt lat="47.79684" lon="2.20801">
        <ele>126</ele>
        <time>2017-05-07T07:09:10.382Z</time>
      </trkpt>
      <trkpt lat="47.79684" lon="2.20801">
        <ele>126</ele>
        <time>2017-05-07T07:09:11.380Z</time>
      </trkpt>
      <trkpt lat="47.79688" lon="2.20818">
        <ele>126</ele>
        <time>2017-05-07T07:09:12.383Z</time>
      </trkpt>
      <trkpt lat="47.79688" lon="2.20818">
        <ele>126</ele>
        <time>2017-05-07T07:09:13.378Z</time>
      </trkpt>
      <trkpt lat="47.79689" lon="2.20835">
        <ele>126</ele>
        <time>2017-05-07T07:09:14.386Z</time>
      </trkpt>
      <trkpt lat="47.79689" lon="2.20835">
        <ele>126</ele>
        <time>2017-05-07T07:09:15.382Z</time>
      </trkpt>
      <trkpt lat="47.79691" lon="2.20851">
        <ele>126</ele>
        <time>2017-05-07T07:09:16.381Z</time>
      </trkpt>
      <trkpt lat="47.79691" lon="2.20851">
        <ele>126</ele>
        <time>2017-05-07T07:09:17.376Z</time>
      </trkpt>
      <trkpt lat="47.79694" lon="2.20866">
        <ele>126</ele>
        <time>2017-05-07T07:09:18.394Z</time>
      </trkpt>
      <trkpt lat="47.79694" lon="2.20866">
        <ele>126</ele>
        <time>2017-05-07T07:09:19.386Z</time>
      </trkpt>
      <trkpt lat="47.79697" lon="2.20881">
        <ele>126</ele>
        <time>2017-05-07T07:09:20.383Z</time>
      </trkpt>
      <trkpt lat="47.79697" lon="2.20888">
        <ele>126</ele>
        <time>2017-05-07T07:09:21.385Z</time>
      </trkpt>
      <trkpt lat="47.79697" lon="2.20888">
        <ele>126</ele>
        <time>2017-05-07T07:09:22.382Z</time>
      </trkpt>
      <trkpt lat="47.79699" lon="2.20903">
        <ele>126</ele>
        <time>2017-05-07T07:09:23.384Z</time>
      </trkpt>
      <trkpt lat="47.797" lon="2.2091">
        <ele>126</ele>
        <time>2017-05-07T07:09:24.387Z</time>
      </trkpt>
      <trkpt lat="47.797" lon="2.2091">
        <ele>126</ele>
        <time>2017-05-07T07:09:25.379Z</time>
      </trkpt>
      <trkpt lat="47.79701" lon="2.20925">
        <ele>126</ele>
        <time>2017-05-07T07:09:26.386Z</time>
      </trkpt>
      <trkpt lat="47.79701" lon="2.20925">
        <ele>126</ele>
        <time>2017-05-07T07:09:27.382Z</time>
      </trkpt>
      <trkpt lat="47.79702" lon="2.2094">
        <ele>127</ele>
        <time>2017-05-07T07:09:28.384Z</time>
      </trkpt>
      <trkpt lat="47.79702" lon="2.2094">
        <ele>127</ele>
        <time>2017-05-07T07:09:29.380Z</time>
      </trkpt>
      <trkpt lat="47.79702" lon="2.20956">
        <ele>127</ele>
        <time>2017-05-07T07:09:30.382Z</time>
      </trkpt>
      <trkpt lat="47.79702" lon="2.20963">
        <ele>127</ele>
        <time>2017-05-07T07:09:31.384Z</time>
      </trkpt>
      <trkpt lat="47.79701" lon="2.20971">
        <ele>127</ele>
        <time>2017-05-07T07:09:32.387Z</time>
      </trkpt>
      <trkpt lat="47.79701" lon="2.20971">
        <ele>127</ele>
        <time>2017-05-07T07:09:33.381Z</time>
      </trkpt>
      <trkpt lat="47.79699" lon="2.20987">
        <ele>127</ele>
        <time>2017-05-07T07:09:34.373Z</time>
      </trkpt>
      <trkpt lat="47.79699" lon="2.20987">
        <ele>127</ele>
        <time>2017-05-07T07:09:35.361Z</time>
      </trkpt>
      <trkpt lat="47.79698" lon="2.21005">
        <ele>127</ele>
        <time>2017-05-07T07:09:36.392Z</time>
      </trkpt>
      <trkpt lat="47.79698" lon="2.21005">
        <ele>127</ele>
        <time>2017-05-07T07:09:37.382Z</time>
      </trkpt>
      <trkpt lat="47.79697" lon="2.21024">
        <ele>128</ele>
        <time>2017-05-07T07:09:38.386Z</time>
      </trkpt>
      <trkpt lat="47.79697" lon="2.21024">
        <ele>128</ele>
        <time>2017-05-07T07:09:39.388Z</time>
      </trkpt>
      <trkpt lat="47.79697" lon="2.2104">
        <ele>128</ele>
        <time>2017-05-07T07:09:40.379Z</time>
      </trkpt>
      <trkpt lat="47.79697" lon="2.21047">
        <ele>128</ele>
        <time>2017-05-07T07:09:41.385Z</time>
      </trkpt>
      <trkpt lat="47.79697" lon="2.21047">
        <ele>128</ele>
        <time>2017-05-07T07:09:42.380Z</time>
      </trkpt>
      <trkpt lat="47.79698" lon="2.21065">
        <ele>128</ele>
        <time>2017-05-07T07:09:43.385Z</time>
      </trkpt>
      <trkpt lat="47.79698" lon="2.21065">
        <ele>128</ele>
        <time>2017-05-07T07:09:44.382Z</time>
      </trkpt>
      <trkpt lat="47.79698" lon="2.21083">
        <ele>128</ele>
        <time>2017-05-07T07:09:45.383Z</time>
      </trkpt>
      <trkpt lat="47.79698" lon="2.21092">
        <ele>128</ele>
        <time>2017-05-07T07:09:46.385Z</time>
      </trkpt>
      <trkpt lat="47.79698" lon="2.21102">
        <ele>128</ele>
        <time>2017-05-07T07:09:47.386Z</time>
      </trkpt>
      <trkpt lat="47.79698" lon="2.21102">
        <ele>128</ele>
        <time>2017-05-07T07:09:48.384Z</time>
      </trkpt>
      <trkpt lat="47.79697" lon="2.2112">
        <ele>128</ele>
        <time>2017-05-07T07:09:49.386Z</time>
      </trkpt>
      <trkpt lat="47.79697" lon="2.2112">
        <ele>128</ele>
        <time>2017-05-07T07:09:50.382Z</time>
      </trkpt>
      <trkpt lat="47.79697" lon="2.21138">
        <ele>128</ele>
        <time>2017-05-07T07:09:51.383Z</time>
      </trkpt>
      <trkpt lat="47.79697" lon="2.21146">
        <ele>128</ele>
        <time>2017-05-07T07:09:52.385Z</time>
      </trkpt>
      <trkpt lat="47.79697" lon="2.21146">
        <ele>128</ele>
        <time>2017-05-07T07:09:53.381Z</time>
      </trkpt>
      <trkpt lat="47.79695" lon="2.21163">
        <ele>128</ele>
        <time>2017-05-07T07:09:54.383Z</time>
      </trkpt>
      <trkpt lat="47.79694" lon="2.21171">
        <ele>127</ele>
        <time>2017-05-07T07:09:55.385Z</time>
      </trkpt>
      <trkpt lat="47.79694" lon="2.21171">
        <ele>127</ele>
        <time>2017-05-07T07:09:56.383Z</time>
      </trkpt>
      <trkpt lat="47.79696" lon="2.21188">
        <ele>126</ele>
        <time>2017-05-07T07:09:57.383Z</time>
      </trkpt>
      <trkpt lat="47.79698" lon="2.21196">
        <ele>126</ele>
        <time>2017-05-07T07:09:58.387Z</time>
      </trkpt>
      <trkpt lat="47.79698" lon="2.21196">
        <ele>126</ele>
        <time>2017-05-07T07:09:59.383Z</time>
      </trkpt>
      <trkpt lat="47.79702" lon="2.21212">
        <ele>124</ele>
        <time>2017-05-07T07:10:00.384Z</time>
      </trkpt>
      <trkpt lat="47.79702" lon="2.21212">
        <ele>124</ele>
        <time>2017-05-07T07:10:01.381Z</time>
      </trkpt>
      <trkpt lat="47.79706" lon="2.21228">
        <ele>122</ele>
        <time>2017-05-07T07:10:02.356Z</time>
      </trkpt>
      <trkpt lat="47.79706" lon="2.21228">
        <ele>122</ele>
        <time>2017-05-07T07:10:03.384Z</time>
      </trkpt>
      <trkpt lat="47.7971" lon="2.21243">
        <ele>121</ele>
        <time>2017-05-07T07:10:04.381Z</time>
      </trkpt>
      <trkpt lat="47.7971" lon="2.21243">
        <ele>121</ele>
        <time>2017-05-07T07:10:05.378Z</time>
      </trkpt>
      <trkpt lat="47.79713" lon="2.21259">
        <ele>120</ele>
        <time>2017-05-07T07:10:06.384Z</time>
      </trkpt>
      <trkpt lat="47.79713" lon="2.21259">
        <ele>120</ele>
        <time>2017-05-07T07:10:07.381Z</time>
      </trkpt>
      <trkpt lat="47.79715" lon="2.21275">
        <ele>119</ele>
        <time>2017-05-07T07:10:08.387Z</time>
      </trkpt>
      <trkpt lat="47.79715" lon="2.21283">
        <ele>119</ele>
        <time>2017-05-07T07:10:09.388Z</time>
      </trkpt>
      <trkpt lat="47.79714" lon="2.21291">
        <ele>119</ele>
        <time>2017-05-07T07:10:10.388Z</time>
      </trkpt>
      <trkpt lat="47.79714" lon="2.21291">
        <ele>119</ele>
        <time>2017-05-07T07:10:11.379Z</time>
      </trkpt>
      <trkpt lat="47.79711" lon="2.21307">
        <ele>118</ele>
        <time>2017-05-07T07:10:12.355Z</time>
      </trkpt>
      <trkpt lat="47.79711" lon="2.21307">
        <ele>118</ele>
        <time>2017-05-07T07:10:13.383Z</time>
      </trkpt>
      <trkpt lat="47.79706" lon="2.21322">
        <ele>118</ele>
        <time>2017-05-07T07:10:14.383Z</time>
      </trkpt>
      <trkpt lat="47.79706" lon="2.21322">
        <ele>118</ele>
        <time>2017-05-07T07:10:15.355Z</time>
      </trkpt>
      <trkpt lat="47.797" lon="2.21336">
        <ele>116</ele>
        <time>2017-05-07T07:10:16.381Z</time>
      </trkpt>
      <trkpt lat="47.79696" lon="2.21343">
        <ele>116</ele>
        <time>2017-05-07T07:10:17.382Z</time>
      </trkpt>
      <trkpt lat="47.79696" lon="2.21343">
        <ele>116</ele>
        <time>2017-05-07T07:10:18.375Z</time>
      </trkpt>
      <trkpt lat="47.79689" lon="2.21357">
        <ele>115</ele>
        <time>2017-05-07T07:10:19.382Z</time>
      </trkpt>
      <trkpt lat="47.79689" lon="2.21357">
        <ele>115</ele>
        <time>2017-05-07T07:10:20.381Z</time>
      </trkpt>
      <trkpt lat="47.79682" lon="2.21369">
        <ele>114</ele>
        <time>2017-05-07T07:10:21.383Z</time>
      </trkpt>
      <trkpt lat="47.79682" lon="2.21369">
        <ele>114</ele>
        <time>2017-05-07T07:10:22.377Z</time>
      </trkpt>
      <trkpt lat="47.79675" lon="2.21382">
        <ele>113</ele>
        <time>2017-05-07T07:10:23.384Z</time>
      </trkpt>
      <trkpt lat="47.79675" lon="2.21382">
        <ele>113</ele>
        <time>2017-05-07T07:10:24.382Z</time>
      </trkpt>
      <trkpt lat="47.79667" lon="2.21394">
        <ele>112</ele>
        <time>2017-05-07T07:10:25.385Z</time>
      </trkpt>
      <trkpt lat="47.79663" lon="2.21401">
        <ele>112</ele>
        <time>2017-05-07T07:10:26.386Z</time>
      </trkpt>
      <trkpt lat="47.79663" lon="2.21401">
        <ele>112</ele>
        <time>2017-05-07T07:10:27.379Z</time>
      </trkpt>
      <trkpt lat="47.79657" lon="2.21414">
        <ele>111</ele>
        <time>2017-05-07T07:10:28.384Z</time>
      </trkpt>
      <trkpt lat="47.79657" lon="2.21414">
        <ele>111</ele>
        <time>2017-05-07T07:10:29.379Z</time>
      </trkpt>
      <trkpt lat="47.79651" lon="2.21428">
        <ele>111</ele>
        <time>2017-05-07T07:10:30.383Z</time>
      </trkpt>
      <trkpt lat="47.79647" lon="2.21434">
        <ele>110</ele>
        <time>2017-05-07T07:10:31.384Z</time>
      </trkpt>
      <trkpt lat="47.79647" lon="2.21434">
        <ele>110</ele>
        <time>2017-05-07T07:10:32.381Z</time>
      </trkpt>
      <trkpt lat="47.79642" lon="2.21448">
        <ele>110</ele>
        <time>2017-05-07T07:10:33.383Z</time>
      </trkpt>
      <trkpt lat="47.79642" lon="2.21448">
        <ele>110</ele>
        <time>2017-05-07T07:10:34.378Z</time>
      </trkpt>
      <trkpt lat="47.79637" lon="2.2146">
        <ele>109</ele>
        <time>2017-05-07T07:10:35.384Z</time>
      </trkpt>
      <trkpt lat="47.79635" lon="2.21466">
        <ele>109</ele>
        <time>2017-05-07T07:10:36.383Z</time>
      </trkpt>
      <trkpt lat="47.79635" lon="2.21466">
        <ele>109</ele>
        <time>2017-05-07T07:10:37.378Z</time>
      </trkpt>
      <trkpt lat="47.79631" lon="2.21477">
        <ele>108</ele>
        <time>2017-05-07T07:10:38.366Z</time>
      </trkpt>
      <trkpt lat="47.79631" lon="2.21477">
        <ele>108</ele>
        <time>2017-05-07T07:10:39.394Z</time>
      </trkpt>
      <trkpt lat="47.79627" lon="2.2149">
        <ele>108</ele>
        <time>2017-05-07T07:10:40.384Z</time>
      </trkpt>
      <trkpt lat="47.79624" lon="2.21497">
        <ele>108</ele>
        <time>2017-05-07T07:10:41.383Z</time>
      </trkpt>
      <trkpt lat="47.79624" lon="2.21497">
        <ele>108</ele>
        <time>2017-05-07T07:10:42.381Z</time>
      </trkpt>
      <trkpt lat="47.79618" lon="2.21514">
        <ele>108</ele>
        <time>2017-05-07T07:10:43.383Z</time>
      </trkpt>
      <trkpt lat="47.79615" lon="2.21521">
        <ele>108</ele>
        <time>2017-05-07T07:10:44.388Z</time>
      </trkpt>
      <trkpt lat="47.79615" lon="2.21521">
        <ele>108</ele>
        <time>2017-05-07T07:10:45.381Z</time>
      </trkpt>
      <trkpt lat="47.7961" lon="2.21537">
        <ele>108</ele>
        <time>2017-05-07T07:10:46.380Z</time>
      </trkpt>
      <trkpt lat="47.79608" lon="2.21544">
        <ele>108</ele>
        <time>2017-05-07T07:10:47.383Z</time>
      </trkpt>
      <trkpt lat="47.79605" lon="2.2155">
        <ele>108</ele>
        <time>2017-05-07T07:10:48.381Z</time>
      </trkpt>
      <trkpt lat="47.79605" lon="2.2155">
        <ele>108</ele>
        <time>2017-05-07T07:10:49.378Z</time>
      </trkpt>
      <trkpt lat="47.79601" lon="2.21564">
        <ele>108</ele>
        <time>2017-05-07T07:10:50.385Z</time>
      </trkpt>
      <trkpt lat="47.79601" lon="2.21564">
        <ele>108</ele>
        <time>2017-05-07T07:10:51.381Z</time>
      </trkpt>
      <trkpt lat="47.79596" lon="2.21576">
        <ele>107</ele>
        <time>2017-05-07T07:10:52.382Z</time>
      </trkpt>
      <trkpt lat="47.79596" lon="2.21576">
        <ele>107</ele>
        <time>2017-05-07T07:10:53.382Z</time>
      </trkpt>
      <trkpt lat="47.7959" lon="2.21588">
        <ele>107</ele>
        <time>2017-05-07T07:10:54.383Z</time>
      </trkpt>
      <trkpt lat="47.7959" lon="2.21588">
        <ele>107</ele>
        <time>2017-05-07T07:10:55.374Z</time>
      </trkpt>
      <trkpt lat="47.79587" lon="2.216">
        <ele>107</ele>
        <time>2017-05-07T07:10:56.383Z</time>
      </trkpt>
      <trkpt lat="47.79587" lon="2.216">
        <ele>107</ele>
        <time>2017-05-07T07:10:57.378Z</time>
      </trkpt>
      <trkpt lat="47.79582" lon="2.21612">
        <ele>107</ele>
        <time>2017-05-07T07:10:58.382Z</time>
      </trkpt>
      <trkpt lat="47.79582" lon="2.21612">
        <ele>107</ele>
        <time>2017-05-07T07:10:59.378Z</time>
      </trkpt>
      <trkpt lat="47.79578" lon="2.21625">
        <ele>107</ele>
        <time>2017-05-07T07:11:00.384Z</time>
      </trkpt>
      <trkpt lat="47.79578" lon="2.21625">
        <ele>107</ele>
        <time>2017-05-07T07:11:01.374Z</time>
      </trkpt>
      <trkpt lat="47.79573" lon="2.21637">
        <ele>107</ele>
        <time>2017-05-07T07:11:02.385Z</time>
      </trkpt>
      <trkpt lat="47.79573" lon="2.21637">
        <ele>107</ele>
        <time>2017-05-07T07:11:03.381Z</time>
      </trkpt>
      <trkpt lat="47.7957" lon="2.21649">
        <ele>107</ele>
        <time>2017-05-07T07:11:04.383Z</time>
      </trkpt>
      <trkpt lat="47.79567" lon="2.21655">
        <ele>107</ele>
        <time>2017-05-07T07:11:05.383Z</time>
      </trkpt>
      <trkpt lat="47.79567" lon="2.21655">
        <ele>107</ele>
        <time>2017-05-07T07:11:06.378Z</time>
      </trkpt>
      <trkpt lat="47.79563" lon="2.21668">
        <ele>107</ele>
        <time>2017-05-07T07:11:07.383Z</time>
      </trkpt>
      <trkpt lat="47.79563" lon="2.21668">
        <ele>107</ele>
        <time>2017-05-07T07:11:08.380Z</time>
      </trkpt>
      <trkpt lat="47.79559" lon="2.21682">
        <ele>106</ele>
        <time>2017-05-07T07:11:09.383Z</time>
      </trkpt>
      <trkpt lat="47.79559" lon="2.21682">
        <ele>106</ele>
        <time>2017-05-07T07:11:10.383Z</time>
      </trkpt>
      <trkpt lat="47.79555" lon="2.21696">
        <ele>106</ele>
        <time>2017-05-07T07:11:11.378Z</time>
      </trkpt>
      <trkpt lat="47.79555" lon="2.21696">
        <ele>106</ele>
        <time>2017-05-07T07:11:12.378Z</time>
      </trkpt>
      <trkpt lat="47.79551" lon="2.21713">
        <ele>107</ele>
        <time>2017-05-07T07:11:13.383Z</time>
      </trkpt>
      <trkpt lat="47.79551" lon="2.21713">
        <ele>107</ele>
        <time>2017-05-07T07:11:14.384Z</time>
      </trkpt>
      <trkpt lat="47.79548" lon="2.21725">
        <ele>106</ele>
        <time>2017-05-07T07:11:15.380Z</time>
      </trkpt>
      <trkpt lat="47.79548" lon="2.21725">
        <ele>106</ele>
        <time>2017-05-07T07:11:16.378Z</time>
      </trkpt>
      <trkpt lat="47.79544" lon="2.21743">
        <ele>106</ele>
        <time>2017-05-07T07:11:17.384Z</time>
      </trkpt>
      <trkpt lat="47.79543" lon="2.2175">
        <ele>106</ele>
        <time>2017-05-07T07:11:18.365Z</time>
      </trkpt>
      <trkpt lat="47.79543" lon="2.2175">
        <ele>106</ele>
        <time>2017-05-07T07:11:19.394Z</time>
      </trkpt>
      <trkpt lat="47.7954" lon="2.21765">
        <ele>106</ele>
        <time>2017-05-07T07:11:20.386Z</time>
      </trkpt>
      <trkpt lat="47.7954" lon="2.21765">
        <ele>106</ele>
        <time>2017-05-07T07:11:21.383Z</time>
      </trkpt>
      <trkpt lat="47.79537" lon="2.21777">
        <ele>106</ele>
        <time>2017-05-07T07:11:22.355Z</time>
      </trkpt>
      <trkpt lat="47.79535" lon="2.21782">
        <ele>106</ele>
        <time>2017-05-07T07:11:23.386Z</time>
      </trkpt>
      <trkpt lat="47.79535" lon="2.21782">
        <ele>106</ele>
        <time>2017-05-07T07:11:24.381Z</time>
      </trkpt>
      <trkpt lat="47.79533" lon="2.21789">
        <ele>106</ele>
        <time>2017-05-07T07:11:25.385Z</time>
      </trkpt>
      <trkpt lat="47.79532" lon="2.21792">
        <ele>107</ele>
        <time>2017-05-07T07:11:26.386Z</time>
      </trkpt>
      <trkpt lat="47.79532" lon="2.21795">
        <ele>107</ele>
        <time>2017-05-07T07:11:27.382Z</time>
      </trkpt>
      <trkpt lat="47.79532" lon="2.21795">
        <ele>107</ele>
        <time>2017-05-07T07:11:28.381Z</time>
      </trkpt>
      <trkpt lat="47.79531" lon="2.21799">
        <ele>106</ele>
        <time>2017-05-07T07:11:29.383Z</time>
      </trkpt>
      <trkpt lat="47.79531" lon="2.21799">
        <ele>106</ele>
        <time>2017-05-07T07:11:30.378Z</time>
      </trkpt>
      <trkpt lat="47.7953" lon="2.21802">
        <ele>106</ele>
        <time>2017-05-07T07:11:31.384Z</time>
      </trkpt>
      <trkpt lat="47.7953" lon="2.21803">
        <ele>105</ele>
        <time>2017-05-07T07:11:32.386Z</time>
      </trkpt>
      <trkpt lat="47.7953" lon="2.21803">
        <ele>105</ele>
        <time>2017-05-07T07:11:33.377Z</time>
      </trkpt>
      <trkpt lat="47.7953" lon="2.21804">
        <ele>105</ele>
        <time>2017-05-07T07:11:34.384Z</time>
      </trkpt>
      <trkpt lat="47.7953" lon="2.21804">
        <ele>105</ele>
        <time>2017-05-07T07:11:35.379Z</time>
      </trkpt>
      <trkpt lat="47.7953" lon="2.21804">
        <ele>105</ele>
        <time>2017-05-07T07:11:36.368Z</time>
      </trkpt>
      <trkpt lat="47.79538" lon="2.21822">
        <ele>107</ele>
        <time>2017-05-07T07:11:37.358Z</time>
      </trkpt>
      <trkpt lat="47.7954" lon="2.21823">
        <ele>107</ele>
        <time>2017-05-07T07:11:38.388Z</time>
      </trkpt>
      <trkpt lat="47.7954" lon="2.21823">
        <ele>107</ele>
        <time>2017-05-07T07:11:39.380Z</time>
      </trkpt>
      <trkpt lat="47.79546" lon="2.21825">
        <ele>107</ele>
        <time>2017-05-07T07:11:40.386Z</time>
      </trkpt>
      <trkpt lat="47.79546" lon="2.21825">
        <ele>107</ele>
        <time>2017-05-07T07:11:41.382Z</time>
      </trkpt>
      <trkpt lat="47.79554" lon="2.21828">
        <ele>108</ele>
        <time>2017-05-07T07:11:42.385Z</time>
      </trkpt>
      <trkpt lat="47.79557" lon="2.2183">
        <ele>108</ele>
        <time>2017-05-07T07:11:43.385Z</time>
      </trkpt>
      <trkpt lat="47.79557" lon="2.2183">
        <ele>108</ele>
        <time>2017-05-07T07:11:44.381Z</time>
      </trkpt>
      <trkpt lat="47.79564" lon="2.21832">
        <ele>109</ele>
        <time>2017-05-07T07:11:45.383Z</time>
      </trkpt>
      <trkpt lat="47.79564" lon="2.21832">
        <ele>109</ele>
        <time>2017-05-07T07:11:46.367Z</time>
      </trkpt>
      <trkpt lat="47.79569" lon="2.21835">
        <ele>109</ele>
        <time>2017-05-07T07:11:47.365Z</time>
      </trkpt>
      <trkpt lat="47.79571" lon="2.21836">
        <ele>110</ele>
        <time>2017-05-07T07:11:48.394Z</time>
      </trkpt>
      <trkpt lat="47.79572" lon="2.21837">
        <ele>110</ele>
        <time>2017-05-07T07:11:49.383Z</time>
      </trkpt>
      <trkpt lat="47.79572" lon="2.21837">
        <ele>110</ele>
        <time>2017-05-07T07:11:50.356Z</time>
      </trkpt>
      <trkpt lat="47.79576" lon="2.21838">
        <ele>110</ele>
        <time>2017-05-07T07:11:51.362Z</time>
      </trkpt>
      <trkpt lat="47.79578" lon="2.21839">
        <ele>110</ele>
        <time>2017-05-07T07:11:52.369Z</time>
      </trkpt>
      <trkpt lat="47.79578" lon="2.21839">
        <ele>110</ele>
        <time>2017-05-07T07:11:53.357Z</time>
      </trkpt>
      <trkpt lat="47.79581" lon="2.21841">
        <ele>110</ele>
        <time>2017-05-07T07:11:54.386Z</time>
      </trkpt>
      <trkpt lat="47.79581" lon="2.21841">
        <ele>110</ele>
        <time>2017-05-07T07:11:55.384Z</time>
      </trkpt>
      <trkpt lat="47.79583" lon="2.21843">
        <ele>110</ele>
        <time>2017-05-07T07:11:56.384Z</time>
      </trkpt>
      <trkpt lat="47.79583" lon="2.21843">
        <ele>110</ele>
        <time>2017-05-07T07:11:57.377Z</time>
      </trkpt>
      <trkpt lat="47.79585" lon="2.21847">
        <ele>110</ele>
        <time>2017-05-07T07:11:58.386Z</time>
      </trkpt>
      <trkpt lat="47.79585" lon="2.21847">
        <ele>110</ele>
        <time>2017-05-07T07:11:59.355Z</time>
      </trkpt>
      <trkpt lat="47.79586" lon="2.21852">
        <ele>110</ele>
        <time>2017-05-07T07:12:00.373Z</time>
      </trkpt>
      <trkpt lat="47.79586" lon="2.21855">
        <ele>110</ele>
        <time>2017-05-07T07:12:01.385Z</time>
      </trkpt>
      <trkpt lat="47.79586" lon="2.21855">
        <ele>110</ele>
        <time>2017-05-07T07:12:02.376Z</time>
      </trkpt>
      <trkpt lat="47.79586" lon="2.2186">
        <ele>110</ele>
        <time>2017-05-07T07:12:03.384Z</time>
      </trkpt>
      <trkpt lat="47.79587" lon="2.21862">
        <ele>110</ele>
        <time>2017-05-07T07:12:04.386Z</time>
      </trkpt>
      <trkpt lat="47.79587" lon="2.21862">
        <ele>110</ele>
        <time>2017-05-07T07:12:05.382Z</time>
      </trkpt>
      <trkpt lat="47.79586" lon="2.21867">
        <ele>110</ele>
        <time>2017-05-07T07:12:06.385Z</time>
      </trkpt>
      <trkpt lat="47.79586" lon="2.21867">
        <ele>110</ele>
        <time>2017-05-07T07:12:07.380Z</time>
      </trkpt>
      <trkpt lat="47.79583" lon="2.21873">
        <ele>110</ele>
        <time>2017-05-07T07:12:08.383Z</time>
      </trkpt>
      <trkpt lat="47.79582" lon="2.21874">
        <ele>110</ele>
        <time>2017-05-07T07:12:09.385Z</time>
      </trkpt>
      <trkpt lat="47.79582" lon="2.21874">
        <ele>110</ele>
        <time>2017-05-07T07:12:10.383Z</time>
      </trkpt>
      <trkpt lat="47.7958" lon="2.21877">
        <ele>109</ele>
        <time>2017-05-07T07:12:11.386Z</time>
      </trkpt>
      <trkpt lat="47.79579" lon="2.21878">
        <ele>109</ele>
        <time>2017-05-07T07:12:12.386Z</time>
      </trkpt>
      <trkpt lat="47.79579" lon="2.21878">
        <ele>109</ele>
        <time>2017-05-07T07:12:13.383Z</time>
      </trkpt>
      <trkpt lat="47.79577" lon="2.2188">
        <ele>108</ele>
        <time>2017-05-07T07:12:14.384Z</time>
      </trkpt>
      <trkpt lat="47.79577" lon="2.2188">
        <ele>108</ele>
        <time>2017-05-07T07:12:15.381Z</time>
      </trkpt>
      <trkpt lat="47.79575" lon="2.21885">
        <ele>108</ele>
        <time>2017-05-07T07:12:16.386Z</time>
      </trkpt>
      <trkpt lat="47.79575" lon="2.21885">
        <ele>108</ele>
        <time>2017-05-07T07:12:17.382Z</time>
      </trkpt>
      <trkpt lat="47.79573" lon="2.21893">
        <ele>107</ele>
        <time>2017-05-07T07:12:18.385Z</time>
      </trkpt>
      <trkpt lat="47.79573" lon="2.21893">
        <ele>107</ele>
        <time>2017-05-07T07:12:19.377Z</time>
      </trkpt>
      <trkpt lat="47.79573" lon="2.21903">
        <ele>107</ele>
        <time>2017-05-07T07:12:20.382Z</time>
      </trkpt>
      <trkpt lat="47.79572" lon="2.21906">
        <ele>107</ele>
        <time>2017-05-07T07:12:21.384Z</time>
      </trkpt>
      <trkpt lat="47.79572" lon="2.21906">
        <ele>107</ele>
        <time>2017-05-07T07:12:22.356Z</time>
      </trkpt>
      <trkpt lat="47.79572" lon="2.21914">
        <ele>107</ele>
        <time>2017-05-07T07:12:23.385Z</time>
      </trkpt>
      <trkpt lat="47.79573" lon="2.21917">
        <ele>107</ele>
        <time>2017-05-07T07:12:24.383Z</time>
      </trkpt>
      <trkpt lat="47.79573" lon="2.21917">
        <ele>107</ele>
        <time>2017-05-07T07:12:25.380Z</time>
      </trkpt>
      <trkpt lat="47.79573" lon="2.21924">
        <ele>107</ele>
        <time>2017-05-07T07:12:26.385Z</time>
      </trkpt>
      <trkpt lat="47.79573" lon="2.21924">
        <ele>107</ele>
        <time>2017-05-07T07:12:27.384Z</time>
      </trkpt>
      <trkpt lat="47.79575" lon="2.21933">
        <ele>106</ele>
        <time>2017-05-07T07:12:28.383Z</time>
      </trkpt>
      <trkpt lat="47.79575" lon="2.21933">
        <ele>106</ele>
        <time>2017-05-07T07:12:29.375Z</time>
      </trkpt>
      <trkpt lat="47.79577" lon="2.21943">
        <ele>106</ele>
        <time>2017-05-07T07:12:30.385Z</time>
      </trkpt>
      <trkpt lat="47.79577" lon="2.21943">
        <ele>106</ele>
        <time>2017-05-07T07:12:31.382Z</time>
      </trkpt>
      <trkpt lat="47.79578" lon="2.21954">
        <ele>105</ele>
        <time>2017-05-07T07:12:32.386Z</time>
      </trkpt>
      <trkpt lat="47.79578" lon="2.21954">
        <ele>105</ele>
        <time>2017-05-07T07:12:33.385Z</time>
      </trkpt>
      <trkpt lat="47.79579" lon="2.21964">
        <ele>104</ele>
        <time>2017-05-07T07:12:34.386Z</time>
      </trkpt>
      <trkpt lat="47.79579" lon="2.21964">
        <ele>104</ele>
        <time>2017-05-07T07:12:35.390Z</time>
      </trkpt>
      <trkpt lat="47.79581" lon="2.21974">
        <ele>104</ele>
        <time>2017-05-07T07:12:36.393Z</time>
      </trkpt>
      <trkpt lat="47.79581" lon="2.21974">
        <ele>104</ele>
        <time>2017-05-07T07:12:37.385Z</time>
      </trkpt>
      <trkpt lat="47.79584" lon="2.21985">
        <ele>104</ele>
        <time>2017-05-07T07:12:38.385Z</time>
      </trkpt>
      <trkpt lat="47.79584" lon="2.21985">
        <ele>104</ele>
        <time>2017-05-07T07:12:39.378Z</time>
      </trkpt>
      <trkpt lat="47.79586" lon="2.21996">
        <ele>104</ele>
        <time>2017-05-07T07:12:40.356Z</time>
      </trkpt>
      <trkpt lat="47.79586" lon="2.21996">
        <ele>104</ele>
        <time>2017-05-07T07:12:41.383Z</time>
      </trkpt>
      <trkpt lat="47.79588" lon="2.22007">
        <ele>104</ele>
        <time>2017-05-07T07:12:42.387Z</time>
      </trkpt>
      <trkpt lat="47.79588" lon="2.22007">
        <ele>104</ele>
        <time>2017-05-07T07:12:43.376Z</time>
      </trkpt>
      <trkpt lat="47.79589" lon="2.22017">
        <ele>104</ele>
        <time>2017-05-07T07:12:44.385Z</time>
      </trkpt>
      <trkpt lat="47.79589" lon="2.22017">
        <ele>104</ele>
        <time>2017-05-07T07:12:45.380Z</time>
      </trkpt>
      <trkpt lat="47.7959" lon="2.22027">
        <ele>104</ele>
        <time>2017-05-07T07:12:46.365Z</time>
      </trkpt>
      <trkpt lat="47.7959" lon="2.22027">
        <ele>104</ele>
        <time>2017-05-07T07:12:47.362Z</time>
      </trkpt>
      <trkpt lat="47.79589" lon="2.22037">
        <ele>104</ele>
        <time>2017-05-07T07:12:48.392Z</time>
      </trkpt>
      <trkpt lat="47.79589" lon="2.22037">
        <ele>104</ele>
        <time>2017-05-07T07:12:49.380Z</time>
      </trkpt>
      <trkpt lat="47.79589" lon="2.22048">
        <ele>104</ele>
        <time>2017-05-07T07:12:50.385Z</time>
      </trkpt>
      <trkpt lat="47.79589" lon="2.22048">
        <ele>104</ele>
        <time>2017-05-07T07:12:51.391Z</time>
      </trkpt>
      <trkpt lat="47.79588" lon="2.22058">
        <ele>104</ele>
        <time>2017-05-07T07:12:52.392Z</time>
      </trkpt>
      <trkpt lat="47.79588" lon="2.22058">
        <ele>104</ele>
        <time>2017-05-07T07:12:53.384Z</time>
      </trkpt>
      <trkpt lat="47.79586" lon="2.22068">
        <ele>105</ele>
        <time>2017-05-07T07:12:54.388Z</time>
      </trkpt>
      <trkpt lat="47.79586" lon="2.22068">
        <ele>105</ele>
        <time>2017-05-07T07:12:55.382Z</time>
      </trkpt>
      <trkpt lat="47.79583" lon="2.22078">
        <ele>105</ele>
        <time>2017-05-07T07:12:56.387Z</time>
      </trkpt>
      <trkpt lat="47.79581" lon="2.22083">
        <ele>105</ele>
        <time>2017-05-07T07:12:57.386Z</time>
      </trkpt>
      <trkpt lat="47.79579" lon="2.22088">
        <ele>105</ele>
        <time>2017-05-07T07:12:58.388Z</time>
      </trkpt>
      <trkpt lat="47.79579" lon="2.22088">
        <ele>105</ele>
        <time>2017-05-07T07:12:59.361Z</time>
      </trkpt>
      <trkpt lat="47.79576" lon="2.22097">
        <ele>105</ele>
        <time>2017-05-07T07:13:00.393Z</time>
      </trkpt>
      <trkpt lat="47.79576" lon="2.22097">
        <ele>105</ele>
        <time>2017-05-07T07:13:01.382Z</time>
      </trkpt>
      <trkpt lat="47.79572" lon="2.22105">
        <ele>105</ele>
        <time>2017-05-07T07:13:02.386Z</time>
      </trkpt>
      <trkpt lat="47.7957" lon="2.22108">
        <ele>104</ele>
        <time>2017-05-07T07:13:03.386Z</time>
      </trkpt>
      <trkpt lat="47.79569" lon="2.22112">
        <ele>105</ele>
        <time>2017-05-07T07:13:04.355Z</time>
      </trkpt>
      <trkpt lat="47.79569" lon="2.22112">
        <ele>105</ele>
        <time>2017-05-07T07:13:05.384Z</time>
      </trkpt>
      <trkpt lat="47.79566" lon="2.22121">
        <ele>104</ele>
        <time>2017-05-07T07:13:06.390Z</time>
      </trkpt>
      <trkpt lat="47.79566" lon="2.22121">
        <ele>104</ele>
        <time>2017-05-07T07:13:07.379Z</time>
      </trkpt>
      <trkpt lat="47.79563" lon="2.22131">
        <ele>105</ele>
        <time>2017-05-07T07:13:08.385Z</time>
      </trkpt>
      <trkpt lat="47.7956" lon="2.22136">
        <ele>104</ele>
        <time>2017-05-07T07:13:09.387Z</time>
      </trkpt>
      <trkpt lat="47.79557" lon="2.22141">
        <ele>104</ele>
        <time>2017-05-07T07:13:10.358Z</time>
      </trkpt>
      <trkpt lat="47.79557" lon="2.22141">
        <ele>104</ele>
        <time>2017-05-07T07:13:11.386Z</time>
      </trkpt>
      <trkpt lat="47.79553" lon="2.22152">
        <ele>104</ele>
        <time>2017-05-07T07:13:12.386Z</time>
      </trkpt>
      <trkpt lat="47.79553" lon="2.22152">
        <ele>104</ele>
        <time>2017-05-07T07:13:13.375Z</time>
      </trkpt>
      <trkpt lat="47.7955" lon="2.22162">
        <ele>104</ele>
        <time>2017-05-07T07:13:14.385Z</time>
      </trkpt>
      <trkpt lat="47.79549" lon="2.22167">
        <ele>105</ele>
        <time>2017-05-07T07:13:15.387Z</time>
      </trkpt>
      <trkpt lat="47.79549" lon="2.22167">
        <ele>105</ele>
        <time>2017-05-07T07:13:16.386Z</time>
      </trkpt>
      <trkpt lat="47.79547" lon="2.22174">
        <ele>105</ele>
        <time>2017-05-07T07:13:17.384Z</time>
      </trkpt>
      <trkpt lat="47.79547" lon="2.22174">
        <ele>105</ele>
        <time>2017-05-07T07:13:18.375Z</time>
      </trkpt>
      <trkpt lat="47.79544" lon="2.22183">
        <ele>105</ele>
        <time>2017-05-07T07:13:19.385Z</time>
      </trkpt>
      <trkpt lat="47.79542" lon="2.22188">
        <ele>105</ele>
        <time>2017-05-07T07:13:20.386Z</time>
      </trkpt>
      <trkpt lat="47.79542" lon="2.22188">
        <ele>105</ele>
        <time>2017-05-07T07:13:21.380Z</time>
      </trkpt>
      <trkpt lat="47.79538" lon="2.22197">
        <ele>105</ele>
        <time>2017-05-07T07:13:22.392Z</time>
      </trkpt>
      <trkpt lat="47.79538" lon="2.22197">
        <ele>105</ele>
        <time>2017-05-07T07:13:23.381Z</time>
      </trkpt>
      <trkpt lat="47.79535" lon="2.22208">
        <ele>105</ele>
        <time>2017-05-07T07:13:24.385Z</time>
      </trkpt>
      <trkpt lat="47.79535" lon="2.22208">
        <ele>105</ele>
        <time>2017-05-07T07:13:25.380Z</time>
      </trkpt>
      <trkpt lat="47.79532" lon="2.22218">
        <ele>105</ele>
        <time>2017-05-07T07:13:26.386Z</time>
      </trkpt>
      <trkpt lat="47.7953" lon="2.22223">
        <ele>105</ele>
        <time>2017-05-07T07:13:27.385Z</time>
      </trkpt>
      <trkpt lat="47.7953" lon="2.22223">
        <ele>105</ele>
        <time>2017-05-07T07:13:28.356Z</time>
      </trkpt>
      <trkpt lat="47.79528" lon="2.22234">
        <ele>105</ele>
        <time>2017-05-07T07:13:29.385Z</time>
      </trkpt>
      <trkpt lat="47.79528" lon="2.22234">
        <ele>105</ele>
        <time>2017-05-07T07:13:30.380Z</time>
      </trkpt>
      <trkpt lat="47.79526" lon="2.22244">
        <ele>106</ele>
        <time>2017-05-07T07:13:31.388Z</time>
      </trkpt>
      <trkpt lat="47.79526" lon="2.22244">
        <ele>106</ele>
        <time>2017-05-07T07:13:32.380Z</time>
      </trkpt>
      <trkpt lat="47.79522" lon="2.22255">
        <ele>105</ele>
        <time>2017-05-07T07:13:33.388Z</time>
      </trkpt>
      <trkpt lat="47.79521" lon="2.2226">
        <ele>105</ele>
        <time>2017-05-07T07:13:34.390Z</time>
      </trkpt>
      <trkpt lat="47.7952" lon="2.22266">
        <ele>104</ele>
        <time>2017-05-07T07:13:35.389Z</time>
      </trkpt>
      <trkpt lat="47.7952" lon="2.22266">
        <ele>104</ele>
        <time>2017-05-07T07:13:36.391Z</time>
      </trkpt>
      <trkpt lat="47.79518" lon="2.22277">
        <ele>104</ele>
        <time>2017-05-07T07:13:37.384Z</time>
      </trkpt>
      <trkpt lat="47.79517" lon="2.22282">
        <ele>105</ele>
        <time>2017-05-07T07:13:38.391Z</time>
      </trkpt>
      <trkpt lat="47.79517" lon="2.22282">
        <ele>105</ele>
        <time>2017-05-07T07:13:39.381Z</time>
      </trkpt>
      <trkpt lat="47.79515" lon="2.22292">
        <ele>104</ele>
        <time>2017-05-07T07:13:40.384Z</time>
      </trkpt>
      <trkpt lat="47.79515" lon="2.22292">
        <ele>104</ele>
        <time>2017-05-07T07:13:41.380Z</time>
      </trkpt>
      <trkpt lat="47.79513" lon="2.22302">
        <ele>105</ele>
        <time>2017-05-07T07:13:42.386Z</time>
      </trkpt>
      <trkpt lat="47.79512" lon="2.22306">
        <ele>104</ele>
        <time>2017-05-07T07:13:43.387Z</time>
      </trkpt>
      <trkpt lat="47.79512" lon="2.22306">
        <ele>104</ele>
        <time>2017-05-07T07:13:44.380Z</time>
      </trkpt>
      <trkpt lat="47.7951" lon="2.22316">
        <ele>105</ele>
        <time>2017-05-07T07:13:45.385Z</time>
      </trkpt>
      <trkpt lat="47.79509" lon="2.22322">
        <ele>105</ele>
        <time>2017-05-07T07:13:46.393Z</time>
      </trkpt>
      <trkpt lat="47.79509" lon="2.22322">
        <ele>105</ele>
        <time>2017-05-07T07:13:47.382Z</time>
      </trkpt>
      <trkpt lat="47.79508" lon="2.22332">
        <ele>105</ele>
        <time>2017-05-07T07:13:48.379Z</time>
      </trkpt>
      <trkpt lat="47.79508" lon="2.22332">
        <ele>105</ele>
        <time>2017-05-07T07:13:49.375Z</time>
      </trkpt>
      <trkpt lat="47.79507" lon="2.22342">
        <ele>104</ele>
        <time>2017-05-07T07:13:50.387Z</time>
      </trkpt>
      <trkpt lat="47.79506" lon="2.22347">
        <ele>104</ele>
        <time>2017-05-07T07:13:51.386Z</time>
      </trkpt>
      <trkpt lat="47.79506" lon="2.22352">
        <ele>104</ele>
        <time>2017-05-07T07:13:52.370Z</time>
      </trkpt>
      <trkpt lat="47.79506" lon="2.22352">
        <ele>104</ele>
        <time>2017-05-07T07:13:53.359Z</time>
      </trkpt>
      <trkpt lat="47.79506" lon="2.22362">
        <ele>104</ele>
        <time>2017-05-07T07:13:54.390Z</time>
      </trkpt>
      <trkpt lat="47.79506" lon="2.22362">
        <ele>104</ele>
        <time>2017-05-07T07:13:55.379Z</time>
      </trkpt>
      <trkpt lat="47.79506" lon="2.22372">
        <ele>104</ele>
        <time>2017-05-07T07:13:56.385Z</time>
      </trkpt>
      <trkpt lat="47.79506" lon="2.22377">
        <ele>104</ele>
        <time>2017-05-07T07:13:57.379Z</time>
      </trkpt>
      <trkpt lat="47.79506" lon="2.22377">
        <ele>104</ele>
        <time>2017-05-07T07:13:58.378Z</time>
      </trkpt>
      <trkpt lat="47.79507" lon="2.22387">
        <ele>104</ele>
        <time>2017-05-07T07:13:59.388Z</time>
      </trkpt>
      <trkpt lat="47.79508" lon="2.22392">
        <ele>104</ele>
        <time>2017-05-07T07:14:00.383Z</time>
      </trkpt>
      <trkpt lat="47.79508" lon="2.22392">
        <ele>104</ele>
        <time>2017-05-07T07:14:01.377Z</time>
      </trkpt>
      <trkpt lat="47.79508" lon="2.22402">
        <ele>103</ele>
        <time>2017-05-07T07:14:02.385Z</time>
      </trkpt>
      <trkpt lat="47.79508" lon="2.22402">
        <ele>103</ele>
        <time>2017-05-07T07:14:03.381Z</time>
      </trkpt>
      <trkpt lat="47.79508" lon="2.22413">
        <ele>103</ele>
        <time>2017-05-07T07:14:04.386Z</time>
      </trkpt>
      <trkpt lat="47.79508" lon="2.22413">
        <ele>103</ele>
        <time>2017-05-07T07:14:05.376Z</time>
      </trkpt>
      <trkpt lat="47.79509" lon="2.22423">
        <ele>103</ele>
        <time>2017-05-07T07:14:06.387Z</time>
      </trkpt>
      <trkpt lat="47.79509" lon="2.22423">
        <ele>103</ele>
        <time>2017-05-07T07:14:07.383Z</time>
      </trkpt>
      <trkpt lat="47.79509" lon="2.22433">
        <ele>103</ele>
        <time>2017-05-07T07:14:08.384Z</time>
      </trkpt>
      <trkpt lat="47.79509" lon="2.22433">
        <ele>103</ele>
        <time>2017-05-07T07:14:09.375Z</time>
      </trkpt>
      <trkpt lat="47.7951" lon="2.22443">
        <ele>103</ele>
        <time>2017-05-07T07:14:10.356Z</time>
      </trkpt>
      <trkpt lat="47.7951" lon="2.22443">
        <ele>103</ele>
        <time>2017-05-07T07:14:11.385Z</time>
      </trkpt>
      <trkpt lat="47.7951" lon="2.22454">
        <ele>104</ele>
        <time>2017-05-07T07:14:12.378Z</time>
      </trkpt>
      <trkpt lat="47.7951" lon="2.22454">
        <ele>104</ele>
        <time>2017-05-07T07:14:13.375Z</time>
      </trkpt>
      <trkpt lat="47.79511" lon="2.22464">
        <ele>104</ele>
        <time>2017-05-07T07:14:14.388Z</time>
      </trkpt>
      <trkpt lat="47.79512" lon="2.2247">
        <ele>104</ele>
        <time>2017-05-07T07:14:15.386Z</time>
      </trkpt>
      <trkpt lat="47.79512" lon="2.2247">
        <ele>104</ele>
        <time>2017-05-07T07:14:16.394Z</time>
      </trkpt>
      <trkpt lat="47.79513" lon="2.22481">
        <ele>105</ele>
        <time>2017-05-07T07:14:17.384Z</time>
      </trkpt>
      <trkpt lat="47.79513" lon="2.22481">
        <ele>105</ele>
        <time>2017-05-07T07:14:18.381Z</time>
      </trkpt>
      <trkpt lat="47.79514" lon="2.22493">
        <ele>104</ele>
        <time>2017-05-07T07:14:19.384Z</time>
      </trkpt>
      <trkpt lat="47.79514" lon="2.22493">
        <ele>104</ele>
        <time>2017-05-07T07:14:20.381Z</time>
      </trkpt>
      <trkpt lat="47.79514" lon="2.22504">
        <ele>104</ele>
        <time>2017-05-07T07:14:21.385Z</time>
      </trkpt>
      <trkpt lat="47.79514" lon="2.22509">
        <ele>104</ele>
        <time>2017-05-07T07:14:22.388Z</time>
      </trkpt>
      <trkpt lat="47.79514" lon="2.22509">
        <ele>104</ele>
        <time>2017-05-07T07:14:23.380Z</time>
      </trkpt>
      <trkpt lat="47.79515" lon="2.2252">
        <ele>103</ele>
        <time>2017-05-07T07:14:24.384Z</time>
      </trkpt>
      <trkpt lat="47.79515" lon="2.22526">
        <ele>103</ele>
        <time>2017-05-07T07:14:25.386Z</time>
      </trkpt>
      <trkpt lat="47.79515" lon="2.22526">
        <ele>103</ele>
        <time>2017-05-07T07:14:26.380Z</time>
      </trkpt>
      <trkpt lat="47.79516" lon="2.22537">
        <ele>103</ele>
        <time>2017-05-07T07:14:27.385Z</time>
      </trkpt>
      <trkpt lat="47.79516" lon="2.22543">
        <ele>102</ele>
        <time>2017-05-07T07:14:28.381Z</time>
      </trkpt>
      <trkpt lat="47.79516" lon="2.22543">
        <ele>102</ele>
        <time>2017-05-07T07:14:29.380Z</time>
      </trkpt>
      <trkpt lat="47.79517" lon="2.22553">
        <ele>102</ele>
        <time>2017-05-07T07:14:30.378Z</time>
      </trkpt>
      <trkpt lat="47.79517" lon="2.22558">
        <ele>102</ele>
        <time>2017-05-07T07:14:31.384Z</time>
      </trkpt>
      <trkpt lat="47.79517" lon="2.22558">
        <ele>102</ele>
        <time>2017-05-07T07:14:32.380Z</time>
      </trkpt>
      <trkpt lat="47.79518" lon="2.22569">
        <ele>102</ele>
        <time>2017-05-07T07:14:33.355Z</time>
      </trkpt>
      <trkpt lat="47.79518" lon="2.22575">
        <ele>102</ele>
        <time>2017-05-07T07:14:34.387Z</time>
      </trkpt>
      <trkpt lat="47.79518" lon="2.22575">
        <ele>102</ele>
        <time>2017-05-07T07:14:35.381Z</time>
      </trkpt>
      <trkpt lat="47.79519" lon="2.22586">
        <ele>102</ele>
        <time>2017-05-07T07:14:36.376Z</time>
      </trkpt>
      <trkpt lat="47.79519" lon="2.22591">
        <ele>102</ele>
        <time>2017-05-07T07:14:37.384Z</time>
      </trkpt>
      <trkpt lat="47.79519" lon="2.22591">
        <ele>102</ele>
        <time>2017-05-07T07:14:38.382Z</time>
      </trkpt>
      <trkpt lat="47.79519" lon="2.22602">
        <ele>101</ele>
        <time>2017-05-07T07:14:39.381Z</time>
      </trkpt>
      <trkpt lat="47.79519" lon="2.22607">
        <ele>101</ele>
        <time>2017-05-07T07:14:40.383Z</time>
      </trkpt>
      <trkpt lat="47.79519" lon="2.22607">
        <ele>101</ele>
        <time>2017-05-07T07:14:41.376Z</time>
      </trkpt>
      <trkpt lat="47.79519" lon="2.22617">
        <ele>101</ele>
        <time>2017-05-07T07:14:42.366Z</time>
      </trkpt>
      <trkpt lat="47.79519" lon="2.22623">
        <ele>101</ele>
        <time>2017-05-07T07:14:43.355Z</time>
      </trkpt>
      <trkpt lat="47.79519" lon="2.22629">
        <ele>101</ele>
        <time>2017-05-07T07:14:44.384Z</time>
      </trkpt>
      <trkpt lat="47.79519" lon="2.22629">
        <ele>101</ele>
        <time>2017-05-07T07:14:45.384Z</time>
      </trkpt>
      <trkpt lat="47.79519" lon="2.22639">
        <ele>101</ele>
        <time>2017-05-07T07:14:46.385Z</time>
      </trkpt>
      <trkpt lat="47.79519" lon="2.22639">
        <ele>101</ele>
        <time>2017-05-07T07:14:47.367Z</time>
      </trkpt>
      <trkpt lat="47.7952" lon="2.2265">
        <ele>102</ele>
        <time>2017-05-07T07:14:48.357Z</time>
      </trkpt>
      <trkpt lat="47.7952" lon="2.2265">
        <ele>102</ele>
        <time>2017-05-07T07:14:49.385Z</time>
      </trkpt>
      <trkpt lat="47.79521" lon="2.22661">
        <ele>102</ele>
        <time>2017-05-07T07:14:50.385Z</time>
      </trkpt>
      <trkpt lat="47.79521" lon="2.22666">
        <ele>102</ele>
        <time>2017-05-07T07:14:51.386Z</time>
      </trkpt>
      <trkpt lat="47.79521" lon="2.22671">
        <ele>102</ele>
        <time>2017-05-07T07:14:52.388Z</time>
      </trkpt>
      <trkpt lat="47.79521" lon="2.22671">
        <ele>102</ele>
        <time>2017-05-07T07:14:53.381Z</time>
      </trkpt>
      <trkpt lat="47.79521" lon="2.22683">
        <ele>102</ele>
        <time>2017-05-07T07:14:54.384Z</time>
      </trkpt>
      <trkpt lat="47.79522" lon="2.22688">
        <ele>103</ele>
        <time>2017-05-07T07:14:55.386Z</time>
      </trkpt>
      <trkpt lat="47.79523" lon="2.22694">
        <ele>104</ele>
        <time>2017-05-07T07:14:56.386Z</time>
      </trkpt>
      <trkpt lat="47.79523" lon="2.22694">
        <ele>104</ele>
        <time>2017-05-07T07:14:57.357Z</time>
      </trkpt>
      <trkpt lat="47.79524" lon="2.22704">
        <ele>104</ele>
        <time>2017-05-07T07:14:58.382Z</time>
      </trkpt>
      <trkpt lat="47.79524" lon="2.22704">
        <ele>104</ele>
        <time>2017-05-07T07:14:59.365Z</time>
      </trkpt>
      <trkpt lat="47.79525" lon="2.22714">
        <ele>104</ele>
        <time>2017-05-07T07:15:00.388Z</time>
      </trkpt>
      <trkpt lat="47.79526" lon="2.2272">
        <ele>103</ele>
        <time>2017-05-07T07:15:01.394Z</time>
      </trkpt>
      <trkpt lat="47.79526" lon="2.22725">
        <ele>103</ele>
        <time>2017-05-07T07:15:02.385Z</time>
      </trkpt>
      <trkpt lat="47.79526" lon="2.22725">
        <ele>103</ele>
        <time>2017-05-07T07:15:03.383Z</time>
      </trkpt>
      <trkpt lat="47.79527" lon="2.22735">
        <ele>103</ele>
        <time>2017-05-07T07:15:04.389Z</time>
      </trkpt>
      <trkpt lat="47.79527" lon="2.22735">
        <ele>103</ele>
        <time>2017-05-07T07:15:05.391Z</time>
      </trkpt>
      <trkpt lat="47.79528" lon="2.22744">
        <ele>103</ele>
        <time>2017-05-07T07:15:06.390Z</time>
      </trkpt>
      <trkpt lat="47.79528" lon="2.22744">
        <ele>103</ele>
        <time>2017-05-07T07:15:07.386Z</time>
      </trkpt>
      <trkpt lat="47.79529" lon="2.22754">
        <ele>103</ele>
        <time>2017-05-07T07:15:08.384Z</time>
      </trkpt>
      <trkpt lat="47.79529" lon="2.22759">
        <ele>104</ele>
        <time>2017-05-07T07:15:09.388Z</time>
      </trkpt>
      <trkpt lat="47.79529" lon="2.22759">
        <ele>104</ele>
        <time>2017-05-07T07:15:10.383Z</time>
      </trkpt>
      <trkpt lat="47.7953" lon="2.2277">
        <ele>103</ele>
        <time>2017-05-07T07:15:11.387Z</time>
      </trkpt>
      <trkpt lat="47.7953" lon="2.2277">
        <ele>103</ele>
        <time>2017-05-07T07:15:12.388Z</time>
      </trkpt>
      <trkpt lat="47.79531" lon="2.2278">
        <ele>104</ele>
        <time>2017-05-07T07:15:13.388Z</time>
      </trkpt>
      <trkpt lat="47.79531" lon="2.2278">
        <ele>104</ele>
        <time>2017-05-07T07:15:14.383Z</time>
      </trkpt>
      <trkpt lat="47.79531" lon="2.22791">
        <ele>104</ele>
        <time>2017-05-07T07:15:15.387Z</time>
      </trkpt>
      <trkpt lat="47.79531" lon="2.22796">
        <ele>104</ele>
        <time>2017-05-07T07:15:16.389Z</time>
      </trkpt>
      <trkpt lat="47.79531" lon="2.22796">
        <ele>104</ele>
        <time>2017-05-07T07:15:17.384Z</time>
      </trkpt>
      <trkpt lat="47.79532" lon="2.22807">
        <ele>105</ele>
        <time>2017-05-07T07:15:18.386Z</time>
      </trkpt>
      <trkpt lat="47.79533" lon="2.22812">
        <ele>105</ele>
        <time>2017-05-07T07:15:19.386Z</time>
      </trkpt>
      <trkpt lat="47.79533" lon="2.22812">
        <ele>105</ele>
        <time>2017-05-07T07:15:20.383Z</time>
      </trkpt>
      <trkpt lat="47.79533" lon="2.22823">
        <ele>105</ele>
        <time>2017-05-07T07:15:21.388Z</time>
      </trkpt>
      <trkpt lat="47.79534" lon="2.22828">
        <ele>105</ele>
        <time>2017-05-07T07:15:22.362Z</time>
      </trkpt>
      <trkpt lat="47.79534" lon="2.22828">
        <ele>105</ele>
        <time>2017-05-07T07:15:23.391Z</time>
      </trkpt>
      <trkpt lat="47.79534" lon="2.22838">
        <ele>104</ele>
        <time>2017-05-07T07:15:24.388Z</time>
      </trkpt>
      <trkpt lat="47.79534" lon="2.22843">
        <ele>104</ele>
        <time>2017-05-07T07:15:25.388Z</time>
      </trkpt>
      <trkpt lat="47.79535" lon="2.22847">
        <ele>104</ele>
        <time>2017-05-07T07:15:26.389Z</time>
      </trkpt>
      <trkpt lat="47.79535" lon="2.22847">
        <ele>104</ele>
        <time>2017-05-07T07:15:27.393Z</time>
      </trkpt>
      <trkpt lat="47.79535" lon="2.22857">
        <ele>104</ele>
        <time>2017-05-07T07:15:28.390Z</time>
      </trkpt>
      <trkpt lat="47.79535" lon="2.22857">
        <ele>104</ele>
        <time>2017-05-07T07:15:29.381Z</time>
      </trkpt>
      <trkpt lat="47.79536" lon="2.22867">
        <ele>104</ele>
        <time>2017-05-07T07:15:30.389Z</time>
      </trkpt>
      <trkpt lat="47.79536" lon="2.22871">
        <ele>104</ele>
        <time>2017-05-07T07:15:31.387Z</time>
      </trkpt>
      <trkpt lat="47.79536" lon="2.22871">
        <ele>104</ele>
        <time>2017-05-07T07:15:32.385Z</time>
      </trkpt>
      <trkpt lat="47.79535" lon="2.22881">
        <ele>104</ele>
        <time>2017-05-07T07:15:33.387Z</time>
      </trkpt>
      <trkpt lat="47.79536" lon="2.22887">
        <ele>104</ele>
        <time>2017-05-07T07:15:34.390Z</time>
      </trkpt>
      <trkpt lat="47.79536" lon="2.22887">
        <ele>104</ele>
        <time>2017-05-07T07:15:35.385Z</time>
      </trkpt>
      <trkpt lat="47.79537" lon="2.22897">
        <ele>104</ele>
        <time>2017-05-07T07:15:36.363Z</time>
      </trkpt>
      <trkpt lat="47.79537" lon="2.22897">
        <ele>104</ele>
        <time>2017-05-07T07:15:37.355Z</time>
      </trkpt>
      <trkpt lat="47.79538" lon="2.22908">
        <ele>104</ele>
        <time>2017-05-07T07:15:38.387Z</time>
      </trkpt>
      <trkpt lat="47.79538" lon="2.22914">
        <ele>104</ele>
        <time>2017-05-07T07:15:39.386Z</time>
      </trkpt>
      <trkpt lat="47.79539" lon="2.22919">
        <ele>104</ele>
        <time>2017-05-07T07:15:40.385Z</time>
      </trkpt>
      <trkpt lat="47.79539" lon="2.22919">
        <ele>104</ele>
        <time>2017-05-07T07:15:41.381Z</time>
      </trkpt>
      <trkpt lat="47.7954" lon="2.2293">
        <ele>104</ele>
        <time>2017-05-07T07:15:42.388Z</time>
      </trkpt>
      <trkpt lat="47.7954" lon="2.2293">
        <ele>104</ele>
        <time>2017-05-07T07:15:43.380Z</time>
      </trkpt>
      <trkpt lat="47.79539" lon="2.22941">
        <ele>104</ele>
        <time>2017-05-07T07:15:44.385Z</time>
      </trkpt>
      <trkpt lat="47.79538" lon="2.22946">
        <ele>104</ele>
        <time>2017-05-07T07:15:45.388Z</time>
      </trkpt>
      <trkpt lat="47.79538" lon="2.22951">
        <ele>103</ele>
        <time>2017-05-07T07:15:46.385Z</time>
      </trkpt>
      <trkpt lat="47.79539" lon="2.22955">
        <ele>103</ele>
        <time>2017-05-07T07:15:47.386Z</time>
      </trkpt>
      <trkpt lat="47.79539" lon="2.22955">
        <ele>103</ele>
        <time>2017-05-07T07:15:48.381Z</time>
      </trkpt>
      <trkpt lat="47.7954" lon="2.22963">
        <ele>103</ele>
        <time>2017-05-07T07:15:49.385Z</time>
      </trkpt>
      <trkpt lat="47.7954" lon="2.22963">
        <ele>103</ele>
        <time>2017-05-07T07:15:50.380Z</time>
      </trkpt>
      <trkpt lat="47.79541" lon="2.2297">
        <ele>103</ele>
        <time>2017-05-07T07:15:51.383Z</time>
      </trkpt>
      <trkpt lat="47.79541" lon="2.22974">
        <ele>103</ele>
        <time>2017-05-07T07:15:52.389Z</time>
      </trkpt>
      <trkpt lat="47.79541" lon="2.22974">
        <ele>103</ele>
        <time>2017-05-07T07:15:53.377Z</time>
      </trkpt>
      <trkpt lat="47.79542" lon="2.22981">
        <ele>104</ele>
        <time>2017-05-07T07:15:54.386Z</time>
      </trkpt>
      <trkpt lat="47.79542" lon="2.22985">
        <ele>104</ele>
        <time>2017-05-07T07:15:55.386Z</time>
      </trkpt>
      <trkpt lat="47.79542" lon="2.22985">
        <ele>104</ele>
        <time>2017-05-07T07:15:56.381Z</time>
      </trkpt>
      <trkpt lat="47.79544" lon="2.22992">
        <ele>105</ele>
        <time>2017-05-07T07:15:57.386Z</time>
      </trkpt>
      <trkpt lat="47.79544" lon="2.22996">
        <ele>105</ele>
        <time>2017-05-07T07:15:58.389Z</time>
      </trkpt>
      <trkpt lat="47.79544" lon="2.22996">
        <ele>105</ele>
        <time>2017-05-07T07:15:59.363Z</time>
      </trkpt>
      <trkpt lat="47.79545" lon="2.23003">
        <ele>104</ele>
        <time>2017-05-07T07:16:00.379Z</time>
      </trkpt>
      <trkpt lat="47.79544" lon="2.23007">
        <ele>103</ele>
        <time>2017-05-07T07:16:01.386Z</time>
      </trkpt>
      <trkpt lat="47.79544" lon="2.23011">
        <ele>103</ele>
        <time>2017-05-07T07:16:02.387Z</time>
      </trkpt>
      <trkpt lat="47.79544" lon="2.23011">
        <ele>103</ele>
        <time>2017-05-07T07:16:03.381Z</time>
      </trkpt>
      <trkpt lat="47.79546" lon="2.2302">
        <ele>103</ele>
        <time>2017-05-07T07:16:04.390Z</time>
      </trkpt>
      <trkpt lat="47.79546" lon="2.2302">
        <ele>103</ele>
        <time>2017-05-07T07:16:05.383Z</time>
      </trkpt>
      <trkpt lat="47.79547" lon="2.23028">
        <ele>103</ele>
        <time>2017-05-07T07:16:06.391Z</time>
      </trkpt>
      <trkpt lat="47.79547" lon="2.23028">
        <ele>103</ele>
        <time>2017-05-07T07:16:07.382Z</time>
      </trkpt>
      <trkpt lat="47.79547" lon="2.23036">
        <ele>103</ele>
        <time>2017-05-07T07:16:08.385Z</time>
      </trkpt>
      <trkpt lat="47.79547" lon="2.23036">
        <ele>103</ele>
        <time>2017-05-07T07:16:09.381Z</time>
      </trkpt>
      <trkpt lat="47.79548" lon="2.23045">
        <ele>102</ele>
        <time>2017-05-07T07:16:10.385Z</time>
      </trkpt>
      <trkpt lat="47.79548" lon="2.23045">
        <ele>102</ele>
        <time>2017-05-07T07:16:11.381Z</time>
      </trkpt>
      <trkpt lat="47.7955" lon="2.23054">
        <ele>102</ele>
        <time>2017-05-07T07:16:12.388Z</time>
      </trkpt>
      <trkpt lat="47.7955" lon="2.23054">
        <ele>102</ele>
        <time>2017-05-07T07:16:13.380Z</time>
      </trkpt>
      <trkpt lat="47.79551" lon="2.23062">
        <ele>101</ele>
        <time>2017-05-07T07:16:14.386Z</time>
      </trkpt>
      <trkpt lat="47.79551" lon="2.23067">
        <ele>101</ele>
        <time>2017-05-07T07:16:15.388Z</time>
      </trkpt>
      <trkpt lat="47.79551" lon="2.23071">
        <ele>102</ele>
        <time>2017-05-07T07:16:16.390Z</time>
      </trkpt>
      <trkpt lat="47.79551" lon="2.23071">
        <ele>102</ele>
        <time>2017-05-07T07:16:17.381Z</time>
      </trkpt>
      <trkpt lat="47.79551" lon="2.23081">
        <ele>102</ele>
        <time>2017-05-07T07:16:18.387Z</time>
      </trkpt>
      <trkpt lat="47.79551" lon="2.23081">
        <ele>102</ele>
        <time>2017-05-07T07:16:19.381Z</time>
      </trkpt>
      <trkpt lat="47.79551" lon="2.23092">
        <ele>103</ele>
        <time>2017-05-07T07:16:20.367Z</time>
      </trkpt>
      <trkpt lat="47.79551" lon="2.23092">
        <ele>103</ele>
        <time>2017-05-07T07:16:21.373Z</time>
      </trkpt>
      <trkpt lat="47.79552" lon="2.23103">
        <ele>103</ele>
        <time>2017-05-07T07:16:22.385Z</time>
      </trkpt>
      <trkpt lat="47.79552" lon="2.23103">
        <ele>103</ele>
        <time>2017-05-07T07:16:23.382Z</time>
      </trkpt>
      <trkpt lat="47.79554" lon="2.23114">
        <ele>104</ele>
        <time>2017-05-07T07:16:24.451Z</time>
      </trkpt>
      <trkpt lat="47.79554" lon="2.23114">
        <ele>104</ele>
        <time>2017-05-07T07:16:25.362Z</time>
      </trkpt>
      <trkpt lat="47.79554" lon="2.23125">
        <ele>105</ele>
        <time>2017-05-07T07:16:26.377Z</time>
      </trkpt>
      <trkpt lat="47.79554" lon="2.23125">
        <ele>105</ele>
        <time>2017-05-07T07:16:27.383Z</time>
      </trkpt>
      <trkpt lat="47.79555" lon="2.23135">
        <ele>105</ele>
        <time>2017-05-07T07:16:28.390Z</time>
      </trkpt>
      <trkpt lat="47.79555" lon="2.23135">
        <ele>105</ele>
        <time>2017-05-07T07:16:29.382Z</time>
      </trkpt>
      <trkpt lat="47.79556" lon="2.23146">
        <ele>106</ele>
        <time>2017-05-07T07:16:30.387Z</time>
      </trkpt>
      <trkpt lat="47.79556" lon="2.23146">
        <ele>106</ele>
        <time>2017-05-07T07:16:31.377Z</time>
      </trkpt>
      <trkpt lat="47.79557" lon="2.23157">
        <ele>107</ele>
        <time>2017-05-07T07:16:32.390Z</time>
      </trkpt>
      <trkpt lat="47.79557" lon="2.23157">
        <ele>107</ele>
        <time>2017-05-07T07:16:33.385Z</time>
      </trkpt>
      <trkpt lat="47.79557" lon="2.23168">
        <ele>107</ele>
        <time>2017-05-07T07:16:34.391Z</time>
      </trkpt>
      <trkpt lat="47.79557" lon="2.23168">
        <ele>107</ele>
        <time>2017-05-07T07:16:35.381Z</time>
      </trkpt>
      <trkpt lat="47.79558" lon="2.23178">
        <ele>108</ele>
        <time>2017-05-07T07:16:36.389Z</time>
      </trkpt>
      <trkpt lat="47.79558" lon="2.23178">
        <ele>108</ele>
        <time>2017-05-07T07:16:37.381Z</time>
      </trkpt>
      <trkpt lat="47.79558" lon="2.23187">
        <ele>108</ele>
        <time>2017-05-07T07:16:38.362Z</time>
      </trkpt>
      <trkpt lat="47.79559" lon="2.23191">
        <ele>108</ele>
        <time>2017-05-07T07:16:39.390Z</time>
      </trkpt>
      <trkpt lat="47.79559" lon="2.23191">
        <ele>108</ele>
        <time>2017-05-07T07:16:40.383Z</time>
      </trkpt>
      <trkpt lat="47.7956" lon="2.23197">
        <ele>109</ele>
        <time>2017-05-07T07:16:41.392Z</time>
      </trkpt>
      <trkpt lat="47.79561" lon="2.23199">
        <ele>109</ele>
        <time>2017-05-07T07:16:42.387Z</time>
      </trkpt>
      <trkpt lat="47.79561" lon="2.23199">
        <ele>109</ele>
        <time>2017-05-07T07:16:43.381Z</time>
      </trkpt>
      <trkpt lat="47.79562" lon="2.23203">
        <ele>110</ele>
        <time>2017-05-07T07:16:44.383Z</time>
      </trkpt>
      <trkpt lat="47.79562" lon="2.23203">
        <ele>110</ele>
        <time>2017-05-07T07:16:45.381Z</time>
      </trkpt>
      <trkpt lat="47.79563" lon="2.23208">
        <ele>110</ele>
        <time>2017-05-07T07:16:46.389Z</time>
      </trkpt>
      <trkpt lat="47.79563" lon="2.23208">
        <ele>110</ele>
        <time>2017-05-07T07:16:47.381Z</time>
      </trkpt>
      <trkpt lat="47.79562" lon="2.23211">
        <ele>111</ele>
        <time>2017-05-07T07:16:48.393Z</time>
      </trkpt>
      <trkpt lat="47.79563" lon="2.23214">
        <ele>111</ele>
        <time>2017-05-07T07:16:49.374Z</time>
      </trkpt>
      <trkpt lat="47.79563" lon="2.23214">
        <ele>111</ele>
        <time>2017-05-07T07:16:50.362Z</time>
      </trkpt>
      <trkpt lat="47.79563" lon="2.23219">
        <ele>111</ele>
        <time>2017-05-07T07:16:51.390Z</time>
      </trkpt>
      <trkpt lat="47.79563" lon="2.23221">
        <ele>112</ele>
        <time>2017-05-07T07:16:52.390Z</time>
      </trkpt>
      <trkpt lat="47.79563" lon="2.23221">
        <ele>112</ele>
        <time>2017-05-07T07:16:53.356Z</time>
      </trkpt>
      <trkpt lat="47.79563" lon="2.23225">
        <ele>112</ele>
        <time>2017-05-07T07:16:54.393Z</time>
      </trkpt>
      <trkpt lat="47.79563" lon="2.23225">
        <ele>112</ele>
        <time>2017-05-07T07:16:55.381Z</time>
      </trkpt>
      <trkpt lat="47.79563" lon="2.23229">
        <ele>112</ele>
        <time>2017-05-07T07:16:56.384Z</time>
      </trkpt>
      <trkpt lat="47.79562" lon="2.23232">
        <ele>112</ele>
        <time>2017-05-07T07:16:57.388Z</time>
      </trkpt>
      <trkpt lat="47.79562" lon="2.23232">
        <ele>112</ele>
        <time>2017-05-07T07:16:58.386Z</time>
      </trkpt>
      <trkpt lat="47.79564" lon="2.23238">
        <ele>113</ele>
        <time>2017-05-07T07:16:59.382Z</time>
      </trkpt>
      <trkpt lat="47.79564" lon="2.23242">
        <ele>113</ele>
        <time>2017-05-07T07:17:00.387Z</time>
      </trkpt>
      <trkpt lat="47.79564" lon="2.23242">
        <ele>113</ele>
        <time>2017-05-07T07:17:01.381Z</time>
      </trkpt>
      <trkpt lat="47.79564" lon="2.23248">
        <ele>114</ele>
        <time>2017-05-07T07:17:02.388Z</time>
      </trkpt>
      <trkpt lat="47.79564" lon="2.23248">
        <ele>114</ele>
        <time>2017-05-07T07:17:03.381Z</time>
      </trkpt>
      <trkpt lat="47.79563" lon="2.23254">
        <ele>114</ele>
        <time>2017-05-07T07:17:04.388Z</time>
      </trkpt>
      <trkpt lat="47.79563" lon="2.23254">
        <ele>114</ele>
        <time>2017-05-07T07:17:05.390Z</time>
      </trkpt>
      <trkpt lat="47.79564" lon="2.23262">
        <ele>115</ele>
        <time>2017-05-07T07:17:06.388Z</time>
      </trkpt>
      <trkpt lat="47.79564" lon="2.23262">
        <ele>115</ele>
        <time>2017-05-07T07:17:07.356Z</time>
      </trkpt>
      <trkpt lat="47.79566" lon="2.23268">
        <ele>115</ele>
        <time>2017-05-07T07:17:08.386Z</time>
      </trkpt>
      <trkpt lat="47.79566" lon="2.23273">
        <ele>116</ele>
        <time>2017-05-07T07:17:09.386Z</time>
      </trkpt>
      <trkpt lat="47.79566" lon="2.23277">
        <ele>116</ele>
        <time>2017-05-07T07:17:10.393Z</time>
      </trkpt>
      <trkpt lat="47.79566" lon="2.23277">
        <ele>116</ele>
        <time>2017-05-07T07:17:11.381Z</time>
      </trkpt>
      <trkpt lat="47.79567" lon="2.23287">
        <ele>116</ele>
        <time>2017-05-07T07:17:12.386Z</time>
      </trkpt>
      <trkpt lat="47.79567" lon="2.23287">
        <ele>116</ele>
        <time>2017-05-07T07:17:13.382Z</time>
      </trkpt>
      <trkpt lat="47.79568" lon="2.23296">
        <ele>117</ele>
        <time>2017-05-07T07:17:14.387Z</time>
      </trkpt>
      <trkpt lat="47.79568" lon="2.23296">
        <ele>117</ele>
        <time>2017-05-07T07:17:15.381Z</time>
      </trkpt>
      <trkpt lat="47.79568" lon="2.23304">
        <ele>118</ele>
        <time>2017-05-07T07:17:16.389Z</time>
      </trkpt>
      <trkpt lat="47.79568" lon="2.23304">
        <ele>118</ele>
        <time>2017-05-07T07:17:17.381Z</time>
      </trkpt>
      <trkpt lat="47.79567" lon="2.23316">
        <ele>118</ele>
        <time>2017-05-07T07:17:18.387Z</time>
      </trkpt>
      <trkpt lat="47.79567" lon="2.23316">
        <ele>118</ele>
        <time>2017-05-07T07:17:19.381Z</time>
      </trkpt>
      <trkpt lat="47.79568" lon="2.23324">
        <ele>118</ele>
        <time>2017-05-07T07:17:20.383Z</time>
      </trkpt>
      <trkpt lat="47.79568" lon="2.23324">
        <ele>118</ele>
        <time>2017-05-07T07:17:21.378Z</time>
      </trkpt>
      <trkpt lat="47.79567" lon="2.2333">
        <ele>118</ele>
        <time>2017-05-07T07:17:22.390Z</time>
      </trkpt>
      <trkpt lat="47.79567" lon="2.2333">
        <ele>118</ele>
        <time>2017-05-07T07:17:23.381Z</time>
      </trkpt>
      <trkpt lat="47.79568" lon="2.23336">
        <ele>119</ele>
        <time>2017-05-07T07:17:24.384Z</time>
      </trkpt>
      <trkpt lat="47.79568" lon="2.23336">
        <ele>119</ele>
        <time>2017-05-07T07:17:25.381Z</time>
      </trkpt>
      <trkpt lat="47.79567" lon="2.23343">
        <ele>119</ele>
        <time>2017-05-07T07:17:26.386Z</time>
      </trkpt>
      <trkpt lat="47.79567" lon="2.23344">
        <ele>120</ele>
        <time>2017-05-07T07:17:27.386Z</time>
      </trkpt>
      <trkpt lat="47.79567" lon="2.23346">
        <ele>120</ele>
        <time>2017-05-07T07:17:28.357Z</time>
      </trkpt>
      <trkpt lat="47.79567" lon="2.23346">
        <ele>120</ele>
        <time>2017-05-07T07:17:29.386Z</time>
      </trkpt>
      <trkpt lat="47.79568" lon="2.23348">
        <ele>120</ele>
        <time>2017-05-07T07:17:30.384Z</time>
      </trkpt>
      <trkpt lat="47.79568" lon="2.23348">
        <ele>120</ele>
        <time>2017-05-07T07:17:31.363Z</time>
      </trkpt>
      <trkpt lat="47.79568" lon="2.23351">
        <ele>120</ele>
        <time>2017-05-07T07:17:32.394Z</time>
      </trkpt>
      <trkpt lat="47.79568" lon="2.23351">
        <ele>120</ele>
        <time>2017-05-07T07:17:33.385Z</time>
      </trkpt>
      <trkpt lat="47.79567" lon="2.23353">
        <ele>120</ele>
        <time>2017-05-07T07:17:34.389Z</time>
      </trkpt>
      <trkpt lat="47.79567" lon="2.23353">
        <ele>120</ele>
        <time>2017-05-07T07:17:35.383Z</time>
      </trkpt>
      <trkpt lat="47.79567" lon="2.23357">
        <ele>120</ele>
        <time>2017-05-07T07:17:36.356Z</time>
      </trkpt>
      <trkpt lat="47.79567" lon="2.23357">
        <ele>120</ele>
        <time>2017-05-07T07:17:37.384Z</time>
      </trkpt>
      <trkpt lat="47.79567" lon="2.23362">
        <ele>121</ele>
        <time>2017-05-07T07:17:38.385Z</time>
      </trkpt>
      <trkpt lat="47.79567" lon="2.23362">
        <ele>121</ele>
        <time>2017-05-07T07:17:39.381Z</time>
      </trkpt>
      <trkpt lat="47.79567" lon="2.23368">
        <ele>121</ele>
        <time>2017-05-07T07:17:40.393Z</time>
      </trkpt>
      <trkpt lat="47.79567" lon="2.23368">
        <ele>121</ele>
        <time>2017-05-07T07:17:41.382Z</time>
      </trkpt>
      <trkpt lat="47.79568" lon="2.23374">
        <ele>121</ele>
        <time>2017-05-07T07:17:42.387Z</time>
      </trkpt>
      <trkpt lat="47.79568" lon="2.23374">
        <ele>121</ele>
        <time>2017-05-07T07:17:43.382Z</time>
      </trkpt>
      <trkpt lat="47.7957" lon="2.23382">
        <ele>121</ele>
        <time>2017-05-07T07:17:44.388Z</time>
      </trkpt>
      <trkpt lat="47.7957" lon="2.23382">
        <ele>121</ele>
        <time>2017-05-07T07:17:45.382Z</time>
      </trkpt>
      <trkpt lat="47.79572" lon="2.23389">
        <ele>121</ele>
        <time>2017-05-07T07:17:46.393Z</time>
      </trkpt>
      <trkpt lat="47.79572" lon="2.23393">
        <ele>121</ele>
        <time>2017-05-07T07:17:47.391Z</time>
      </trkpt>
      <trkpt lat="47.79572" lon="2.23393">
        <ele>121</ele>
        <time>2017-05-07T07:17:48.383Z</time>
      </trkpt>
      <trkpt lat="47.79574" lon="2.23405">
        <ele>120</ele>
        <time>2017-05-07T07:17:49.387Z</time>
      </trkpt>
      <trkpt lat="47.79574" lon="2.23405">
        <ele>120</ele>
        <time>2017-05-07T07:17:50.383Z</time>
      </trkpt>
      <trkpt lat="47.79576" lon="2.23414">
        <ele>119</ele>
        <time>2017-05-07T07:17:51.388Z</time>
      </trkpt>
      <trkpt lat="47.79577" lon="2.23418">
        <ele>119</ele>
        <time>2017-05-07T07:17:52.391Z</time>
      </trkpt>
      <trkpt lat="47.79577" lon="2.23418">
        <ele>119</ele>
        <time>2017-05-07T07:17:53.382Z</time>
      </trkpt>
      <trkpt lat="47.79578" lon="2.23426">
        <ele>118</ele>
        <time>2017-05-07T07:17:54.387Z</time>
      </trkpt>
      <trkpt lat="47.79578" lon="2.23426">
        <ele>118</ele>
        <time>2017-05-07T07:17:55.364Z</time>
      </trkpt>
      <trkpt lat="47.79578" lon="2.23434">
        <ele>117</ele>
        <time>2017-05-07T07:17:56.394Z</time>
      </trkpt>
      <trkpt lat="47.79578" lon="2.23434">
        <ele>117</ele>
        <time>2017-05-07T07:17:57.393Z</time>
      </trkpt>
      <trkpt lat="47.79579" lon="2.23443">
        <ele>115</ele>
        <time>2017-05-07T07:17:58.388Z</time>
      </trkpt>
      <trkpt lat="47.79579" lon="2.23443">
        <ele>115</ele>
        <time>2017-05-07T07:17:59.379Z</time>
      </trkpt>
      <trkpt lat="47.7958" lon="2.23453">
        <ele>115</ele>
        <time>2017-05-07T07:18:00.388Z</time>
      </trkpt>
      <trkpt lat="47.79581" lon="2.23458">
        <ele>114</ele>
        <time>2017-05-07T07:18:01.384Z</time>
      </trkpt>
      <trkpt lat="47.79581" lon="2.23458">
        <ele>114</ele>
        <time>2017-05-07T07:18:02.382Z</time>
      </trkpt>
      <trkpt lat="47.79582" lon="2.23469">
        <ele>113</ele>
        <time>2017-05-07T07:18:03.389Z</time>
      </trkpt>
      <trkpt lat="47.79582" lon="2.23473">
        <ele>112</ele>
        <time>2017-05-07T07:18:04.393Z</time>
      </trkpt>
      <trkpt lat="47.79582" lon="2.23473">
        <ele>112</ele>
        <time>2017-05-07T07:18:05.361Z</time>
      </trkpt>
      <trkpt lat="47.79583" lon="2.23483">
        <ele>111</ele>
        <time>2017-05-07T07:18:06.390Z</time>
      </trkpt>
      <trkpt lat="47.79584" lon="2.23488">
        <ele>111</ele>
        <time>2017-05-07T07:18:07.383Z</time>
      </trkpt>
      <trkpt lat="47.79584" lon="2.23488">
        <ele>111</ele>
        <time>2017-05-07T07:18:08.381Z</time>
      </trkpt>
      <trkpt lat="47.79584" lon="2.23498">
        <ele>109</ele>
        <time>2017-05-07T07:18:09.386Z</time>
      </trkpt>
      <trkpt lat="47.79584" lon="2.23504">
        <ele>109</ele>
        <time>2017-05-07T07:18:10.386Z</time>
      </trkpt>
      <trkpt lat="47.79584" lon="2.23504">
        <ele>109</ele>
        <time>2017-05-07T07:18:11.383Z</time>
      </trkpt>
      <trkpt lat="47.79585" lon="2.23515">
        <ele>109</ele>
        <time>2017-05-07T07:18:12.385Z</time>
      </trkpt>
      <trkpt lat="47.79586" lon="2.23521">
        <ele>108</ele>
        <time>2017-05-07T07:18:13.384Z</time>
      </trkpt>
      <trkpt lat="47.79586" lon="2.23521">
        <ele>108</ele>
        <time>2017-05-07T07:18:14.383Z</time>
      </trkpt>
      <trkpt lat="47.79588" lon="2.23533">
        <ele>108</ele>
        <time>2017-05-07T07:18:15.385Z</time>
      </trkpt>
      <trkpt lat="47.79588" lon="2.23533">
        <ele>108</ele>
        <time>2017-05-07T07:18:16.382Z</time>
      </trkpt>
      <trkpt lat="47.79589" lon="2.23543">
        <ele>108</ele>
        <time>2017-05-07T07:18:17.385Z</time>
      </trkpt>
      <trkpt lat="47.7959" lon="2.23548">
        <ele>107</ele>
        <time>2017-05-07T07:18:18.382Z</time>
      </trkpt>
      <trkpt lat="47.7959" lon="2.23548">
        <ele>107</ele>
        <time>2017-05-07T07:18:19.382Z</time>
      </trkpt>
      <trkpt lat="47.79591" lon="2.23557">
        <ele>108</ele>
        <time>2017-05-07T07:18:20.385Z</time>
      </trkpt>
      <trkpt lat="47.79591" lon="2.23557">
        <ele>108</ele>
        <time>2017-05-07T07:18:21.380Z</time>
      </trkpt>
      <trkpt lat="47.79592" lon="2.23566">
        <ele>107</ele>
        <time>2017-05-07T07:18:22.377Z</time>
      </trkpt>
      <trkpt lat="47.79592" lon="2.23566">
        <ele>107</ele>
        <time>2017-05-07T07:18:23.383Z</time>
      </trkpt>
      <trkpt lat="47.79592" lon="2.23578">
        <ele>107</ele>
        <time>2017-05-07T07:18:24.383Z</time>
      </trkpt>
      <trkpt lat="47.79592" lon="2.23578">
        <ele>107</ele>
        <time>2017-05-07T07:18:25.383Z</time>
      </trkpt>
      <trkpt lat="47.79592" lon="2.2359">
        <ele>106</ele>
        <time>2017-05-07T07:18:26.383Z</time>
      </trkpt>
      <trkpt lat="47.79592" lon="2.2359">
        <ele>106</ele>
        <time>2017-05-07T07:18:27.383Z</time>
      </trkpt>
      <trkpt lat="47.79594" lon="2.23602">
        <ele>106</ele>
        <time>2017-05-07T07:18:28.388Z</time>
      </trkpt>
      <trkpt lat="47.79594" lon="2.23602">
        <ele>106</ele>
        <time>2017-05-07T07:18:29.383Z</time>
      </trkpt>
      <trkpt lat="47.79595" lon="2.23614">
        <ele>105</ele>
        <time>2017-05-07T07:18:30.386Z</time>
      </trkpt>
      <trkpt lat="47.79595" lon="2.23614">
        <ele>105</ele>
        <time>2017-05-07T07:18:31.383Z</time>
      </trkpt>
      <trkpt lat="47.79597" lon="2.23627">
        <ele>105</ele>
        <time>2017-05-07T07:18:32.385Z</time>
      </trkpt>
      <trkpt lat="47.79597" lon="2.23627">
        <ele>105</ele>
        <time>2017-05-07T07:18:33.385Z</time>
      </trkpt>
      <trkpt lat="47.79598" lon="2.23641">
        <ele>105</ele>
        <time>2017-05-07T07:18:34.389Z</time>
      </trkpt>
      <trkpt lat="47.79598" lon="2.23641">
        <ele>105</ele>
        <time>2017-05-07T07:18:35.383Z</time>
      </trkpt>
      <trkpt lat="47.796" lon="2.23653">
        <ele>105</ele>
        <time>2017-05-07T07:18:36.386Z</time>
      </trkpt>
      <trkpt lat="47.796" lon="2.23653">
        <ele>105</ele>
        <time>2017-05-07T07:18:37.379Z</time>
      </trkpt>
      <trkpt lat="47.79601" lon="2.23667">
        <ele>105</ele>
        <time>2017-05-07T07:18:38.385Z</time>
      </trkpt>
      <trkpt lat="47.79601" lon="2.23667">
        <ele>105</ele>
        <time>2017-05-07T07:18:39.385Z</time>
      </trkpt>
      <trkpt lat="47.79604" lon="2.23684">
        <ele>105</ele>
        <time>2017-05-07T07:18:40.387Z</time>
      </trkpt>
      <trkpt lat="47.79604" lon="2.23684">
        <ele>105</ele>
        <time>2017-05-07T07:18:41.381Z</time>
      </trkpt>
      <trkpt lat="47.79607" lon="2.237">
        <ele>105</ele>
        <time>2017-05-07T07:18:42.383Z</time>
      </trkpt>
      <trkpt lat="47.79607" lon="2.237">
        <ele>105</ele>
        <time>2017-05-07T07:18:43.382Z</time>
      </trkpt>
      <trkpt lat="47.79611" lon="2.23717">
        <ele>105</ele>
        <time>2017-05-07T07:18:44.385Z</time>
      </trkpt>
      <trkpt lat="47.79613" lon="2.23725">
        <ele>105</ele>
        <time>2017-05-07T07:18:45.384Z</time>
      </trkpt>
      <trkpt lat="47.79613" lon="2.23725">
        <ele>105</ele>
        <time>2017-05-07T07:18:46.355Z</time>
      </trkpt>
      <trkpt lat="47.79617" lon="2.23744">
        <ele>105</ele>
        <time>2017-05-07T07:18:47.388Z</time>
      </trkpt>
      <trkpt lat="47.7962" lon="2.23754">
        <ele>105</ele>
        <time>2017-05-07T07:18:48.383Z</time>
      </trkpt>
      <trkpt lat="47.7962" lon="2.23754">
        <ele>105</ele>
        <time>2017-05-07T07:18:49.382Z</time>
      </trkpt>
      <trkpt lat="47.79624" lon="2.23774">
        <ele>105</ele>
        <time>2017-05-07T07:18:50.385Z</time>
      </trkpt>
      <trkpt lat="47.79624" lon="2.23774">
        <ele>105</ele>
        <time>2017-05-07T07:18:51.385Z</time>
      </trkpt>
      <trkpt lat="47.79629" lon="2.23796">
        <ele>105</ele>
        <time>2017-05-07T07:18:52.388Z</time>
      </trkpt>
      <trkpt lat="47.79632" lon="2.23807">
        <ele>105</ele>
        <time>2017-05-07T07:18:53.378Z</time>
      </trkpt>
      <trkpt lat="47.79634" lon="2.23818">
        <ele>105</ele>
        <time>2017-05-07T07:18:54.383Z</time>
      </trkpt>
      <trkpt lat="47.79634" lon="2.23818">
        <ele>105</ele>
        <time>2017-05-07T07:18:55.382Z</time>
      </trkpt>
      <trkpt lat="47.7964" lon="2.23841">
        <ele>105</ele>
        <time>2017-05-07T07:18:56.386Z</time>
      </trkpt>
      <trkpt lat="47.7964" lon="2.23841">
        <ele>105</ele>
        <time>2017-05-07T07:18:57.383Z</time>
      </trkpt>
      <trkpt lat="47.79647" lon="2.23864">
        <ele>105</ele>
        <time>2017-05-07T07:18:58.388Z</time>
      </trkpt>
      <trkpt lat="47.79647" lon="2.23864">
        <ele>105</ele>
        <time>2017-05-07T07:18:59.376Z</time>
      </trkpt>
      <trkpt lat="47.79653" lon="2.23889">
        <ele>105</ele>
        <time>2017-05-07T07:19:00.394Z</time>
      </trkpt>
      <trkpt lat="47.79656" lon="2.23901">
        <ele>105</ele>
        <time>2017-05-07T07:19:01.393Z</time>
      </trkpt>
      <trkpt lat="47.79656" lon="2.23901">
        <ele>105</ele>
        <time>2017-05-07T07:19:02.357Z</time>
      </trkpt>
      <trkpt lat="47.79662" lon="2.23926">
        <ele>106</ele>
        <time>2017-05-07T07:19:03.373Z</time>
      </trkpt>
      <trkpt lat="47.79665" lon="2.23939">
        <ele>106</ele>
        <time>2017-05-07T07:19:04.386Z</time>
      </trkpt>
      <trkpt lat="47.79665" lon="2.23939">
        <ele>106</ele>
        <time>2017-05-07T07:19:05.389Z</time>
      </trkpt>
      <trkpt lat="47.79671" lon="2.23962">
        <ele>105</ele>
        <time>2017-05-07T07:19:06.384Z</time>
      </trkpt>
      <trkpt lat="47.79671" lon="2.23962">
        <ele>105</ele>
        <time>2017-05-07T07:19:07.384Z</time>
      </trkpt>
      <trkpt lat="47.79676" lon="2.23984">
        <ele>105</ele>
        <time>2017-05-07T07:19:08.388Z</time>
      </trkpt>
      <trkpt lat="47.79676" lon="2.23984">
        <ele>105</ele>
        <time>2017-05-07T07:19:09.388Z</time>
      </trkpt>
      <trkpt lat="47.79683" lon="2.24006">
        <ele>105</ele>
        <time>2017-05-07T07:19:10.392Z</time>
      </trkpt>
      <trkpt lat="47.79683" lon="2.24006">
        <ele>105</ele>
        <time>2017-05-07T07:19:11.384Z</time>
      </trkpt>
      <trkpt lat="47.79688" lon="2.2403">
        <ele>106</ele>
        <time>2017-05-07T07:19:12.387Z</time>
      </trkpt>
      <trkpt lat="47.79688" lon="2.2403">
        <ele>106</ele>
        <time>2017-05-07T07:19:13.385Z</time>
      </trkpt>
      <trkpt lat="47.79693" lon="2.24052">
        <ele>106</ele>
        <time>2017-05-07T07:19:14.393Z</time>
      </trkpt>
      <trkpt lat="47.79696" lon="2.24063">
        <ele>106</ele>
        <time>2017-05-07T07:19:15.393Z</time>
      </trkpt>
      <trkpt lat="47.79696" lon="2.24063">
        <ele>106</ele>
        <time>2017-05-07T07:19:16.393Z</time>
      </trkpt>
      <trkpt lat="47.79702" lon="2.24084">
        <ele>106</ele>
        <time>2017-05-07T07:19:17.393Z</time>
      </trkpt>
      <trkpt lat="47.79705" lon="2.24094">
        <ele>106</ele>
        <time>2017-05-07T07:19:18.390Z</time>
      </trkpt>
      <trkpt lat="47.79705" lon="2.24094">
        <ele>106</ele>
        <time>2017-05-07T07:19:19.386Z</time>
      </trkpt>
      <trkpt lat="47.7971" lon="2.24112">
        <ele>106</ele>
        <time>2017-05-07T07:19:20.394Z</time>
      </trkpt>
      <trkpt lat="47.7971" lon="2.24112">
        <ele>106</ele>
        <time>2017-05-07T07:19:21.389Z</time>
      </trkpt>
      <trkpt lat="47.79715" lon="2.2413">
        <ele>107</ele>
        <time>2017-05-07T07:19:22.360Z</time>
      </trkpt>
      <trkpt lat="47.79717" lon="2.24139">
        <ele>107</ele>
        <time>2017-05-07T07:19:23.360Z</time>
      </trkpt>
      <trkpt lat="47.79717" lon="2.24139">
        <ele>107</ele>
        <time>2017-05-07T07:19:24.356Z</time>
      </trkpt>
      <trkpt lat="47.7972" lon="2.24153">
        <ele>107</ele>
        <time>2017-05-07T07:19:25.356Z</time>
      </trkpt>
      <trkpt lat="47.7972" lon="2.24153">
        <ele>107</ele>
        <time>2017-05-07T07:19:26.355Z</time>
      </trkpt>
      <trkpt lat="47.79723" lon="2.24163">
        <ele>108</ele>
        <time>2017-05-07T07:19:27.362Z</time>
      </trkpt>
      <trkpt lat="47.79724" lon="2.24169">
        <ele>108</ele>
        <time>2017-05-07T07:19:28.358Z</time>
      </trkpt>
      <trkpt lat="47.79724" lon="2.24169">
        <ele>108</ele>
        <time>2017-05-07T07:19:29.394Z</time>
      </trkpt>
      <trkpt lat="47.79726" lon="2.24178">
        <ele>108</ele>
        <time>2017-05-07T07:19:30.390Z</time>
      </trkpt>
      <trkpt lat="47.79726" lon="2.24178">
        <ele>108</ele>
        <time>2017-05-07T07:19:31.383Z</time>
      </trkpt>
      <trkpt lat="47.79727" lon="2.24184">
        <ele>109</ele>
        <time>2017-05-07T07:19:32.359Z</time>
      </trkpt>
      <trkpt lat="47.79727" lon="2.24186">
        <ele>109</ele>
        <time>2017-05-07T07:19:33.368Z</time>
      </trkpt>
      <trkpt lat="47.79727" lon="2.24188">
        <ele>109</ele>
        <time>2017-05-07T07:19:34.363Z</time>
      </trkpt>
      <trkpt lat="47.79727" lon="2.2419">
        <ele>109</ele>
        <time>2017-05-07T07:19:35.359Z</time>
      </trkpt>
      <trkpt lat="47.79727" lon="2.2419">
        <ele>109</ele>
        <time>2017-05-07T07:19:36.391Z</time>
      </trkpt>
      <trkpt lat="47.79727" lon="2.24189">
        <ele>109</ele>
        <time>2017-05-07T07:19:37.389Z</time>
      </trkpt>
      <trkpt lat="47.79727" lon="2.24189">
        <ele>109</ele>
        <time>2017-05-07T07:19:38.390Z</time>
      </trkpt>
      <trkpt lat="47.79729" lon="2.24193">
        <ele>110</ele>
        <time>2017-05-07T07:19:39.371Z</time>
      </trkpt>
      <trkpt lat="47.79729" lon="2.24193">
        <ele>110</ele>
        <time>2017-05-07T07:19:40.370Z</time>
      </trkpt>
      <trkpt lat="47.7973" lon="2.24198">
        <ele>110</ele>
        <time>2017-05-07T07:19:41.373Z</time>
      </trkpt>
      <trkpt lat="47.79731" lon="2.24201">
        <ele>110</ele>
        <time>2017-05-07T07:19:42.377Z</time>
      </trkpt>
      <trkpt lat="47.79731" lon="2.24201">
        <ele>110</ele>
        <time>2017-05-07T07:19:43.371Z</time>
      </trkpt>
      <trkpt lat="47.79731" lon="2.2421">
        <ele>110</ele>
        <time>2017-05-07T07:19:44.373Z</time>
      </trkpt>
      <trkpt lat="47.79731" lon="2.2421">
        <ele>110</ele>
        <time>2017-05-07T07:19:45.370Z</time>
      </trkpt>
      <trkpt lat="47.79733" lon="2.24219">
        <ele>110</ele>
        <time>2017-05-07T07:19:46.375Z</time>
      </trkpt>
      <trkpt lat="47.79733" lon="2.24219">
        <ele>110</ele>
        <time>2017-05-07T07:19:47.368Z</time>
      </trkpt>
      <trkpt lat="47.79736" lon="2.24229">
        <ele>110</ele>
        <time>2017-05-07T07:19:48.371Z</time>
      </trkpt>
      <trkpt lat="47.79738" lon="2.24235">
        <ele>110</ele>
        <time>2017-05-07T07:19:49.377Z</time>
      </trkpt>
      <trkpt lat="47.79738" lon="2.24235">
        <ele>110</ele>
        <time>2017-05-07T07:19:50.371Z</time>
      </trkpt>
      <trkpt lat="47.7974" lon="2.24247">
        <ele>109</ele>
        <time>2017-05-07T07:19:51.372Z</time>
      </trkpt>
      <trkpt lat="47.7974" lon="2.24247">
        <ele>109</ele>
        <time>2017-05-07T07:19:52.368Z</time>
      </trkpt>
      <trkpt lat="47.79741" lon="2.24258">
        <ele>109</ele>
        <time>2017-05-07T07:19:53.372Z</time>
      </trkpt>
      <trkpt lat="47.79741" lon="2.24258">
        <ele>109</ele>
        <time>2017-05-07T07:19:54.369Z</time>
      </trkpt>
      <trkpt lat="47.79743" lon="2.24268">
        <ele>109</ele>
        <time>2017-05-07T07:19:55.366Z</time>
      </trkpt>
      <trkpt lat="47.79743" lon="2.24268">
        <ele>109</ele>
        <time>2017-05-07T07:19:56.369Z</time>
      </trkpt>
      <trkpt lat="47.79745" lon="2.2428">
        <ele>109</ele>
        <time>2017-05-07T07:19:57.370Z</time>
      </trkpt>
      <trkpt lat="47.79746" lon="2.24286">
        <ele>108</ele>
        <time>2017-05-07T07:19:58.375Z</time>
      </trkpt>
      <trkpt lat="47.79746" lon="2.24286">
        <ele>108</ele>
        <time>2017-05-07T07:19:59.378Z</time>
      </trkpt>
      <trkpt lat="47.79748" lon="2.24298">
        <ele>108</ele>
        <time>2017-05-07T07:20:00.394Z</time>
      </trkpt>
      <trkpt lat="47.7975" lon="2.24304">
        <ele>108</ele>
        <time>2017-05-07T07:20:01.385Z</time>
      </trkpt>
      <trkpt lat="47.7975" lon="2.24304">
        <ele>108</ele>
        <time>2017-05-07T07:20:02.376Z</time>
      </trkpt>
      <trkpt lat="47.79752" lon="2.24315">
        <ele>107</ele>
        <time>2017-05-07T07:20:03.375Z</time>
      </trkpt>
      <trkpt lat="47.79753" lon="2.2432">
        <ele>107</ele>
        <time>2017-05-07T07:20:04.371Z</time>
      </trkpt>
      <trkpt lat="47.79753" lon="2.24326">
        <ele>107</ele>
        <time>2017-05-07T07:20:05.374Z</time>
      </trkpt>
      <trkpt lat="47.79753" lon="2.24326">
        <ele>107</ele>
        <time>2017-05-07T07:20:06.370Z</time>
      </trkpt>
      <trkpt lat="47.79755" lon="2.24338">
        <ele>107</ele>
        <time>2017-05-07T07:20:07.372Z</time>
      </trkpt>
      <trkpt lat="47.79755" lon="2.24338">
        <ele>107</ele>
        <time>2017-05-07T07:20:08.369Z</time>
      </trkpt>
      <trkpt lat="47.79756" lon="2.24351">
        <ele>107</ele>
        <time>2017-05-07T07:20:09.374Z</time>
      </trkpt>
      <trkpt lat="47.79756" lon="2.24351">
        <ele>107</ele>
        <time>2017-05-07T07:20:10.367Z</time>
      </trkpt>
      <trkpt lat="47.79756" lon="2.24363">
        <ele>107</ele>
        <time>2017-05-07T07:20:11.367Z</time>
      </trkpt>
      <trkpt lat="47.79756" lon="2.24363">
        <ele>107</ele>
        <time>2017-05-07T07:20:12.368Z</time>
      </trkpt>
      <trkpt lat="47.79757" lon="2.24374">
        <ele>107</ele>
        <time>2017-05-07T07:20:13.369Z</time>
      </trkpt>
      <trkpt lat="47.79757" lon="2.24374">
        <ele>107</ele>
        <time>2017-05-07T07:20:14.372Z</time>
      </trkpt>
      <trkpt lat="47.79758" lon="2.24383">
        <ele>107</ele>
        <time>2017-05-07T07:20:15.377Z</time>
      </trkpt>
      <trkpt lat="47.79758" lon="2.24383">
        <ele>107</ele>
        <time>2017-05-07T07:20:16.370Z</time>
      </trkpt>
      <trkpt lat="47.79759" lon="2.24391">
        <ele>107</ele>
        <time>2017-05-07T07:20:17.384Z</time>
      </trkpt>
      <trkpt lat="47.7976" lon="2.24395">
        <ele>107</ele>
        <time>2017-05-07T07:20:18.391Z</time>
      </trkpt>
      <trkpt lat="47.7976" lon="2.24395">
        <ele>107</ele>
        <time>2017-05-07T07:20:19.359Z</time>
      </trkpt>
      <trkpt lat="47.79759" lon="2.24402">
        <ele>107</ele>
        <time>2017-05-07T07:20:20.366Z</time>
      </trkpt>
      <trkpt lat="47.79759" lon="2.24405">
        <ele>106</ele>
        <time>2017-05-07T07:20:21.372Z</time>
      </trkpt>
      <trkpt lat="47.79759" lon="2.24405">
        <ele>106</ele>
        <time>2017-05-07T07:20:22.364Z</time>
      </trkpt>
      <trkpt lat="47.79755" lon="2.2441">
        <ele>106</ele>
        <time>2017-05-07T07:20:23.394Z</time>
      </trkpt>
      <trkpt lat="47.79755" lon="2.2441">
        <ele>106</ele>
        <time>2017-05-07T07:20:24.382Z</time>
      </trkpt>
      <trkpt lat="47.7975" lon="2.24415">
        <ele>106</ele>
        <time>2017-05-07T07:20:25.374Z</time>
      </trkpt>
      <trkpt lat="47.7975" lon="2.24415">
        <ele>106</ele>
        <time>2017-05-07T07:20:26.370Z</time>
      </trkpt>
      <trkpt lat="47.79744" lon="2.24419">
        <ele>106</ele>
        <time>2017-05-07T07:20:27.375Z</time>
      </trkpt>
      <trkpt lat="47.79744" lon="2.24419">
        <ele>106</ele>
        <time>2017-05-07T07:20:28.368Z</time>
      </trkpt>
      <trkpt lat="47.79737" lon="2.24423">
        <ele>105</ele>
        <time>2017-05-07T07:20:29.374Z</time>
      </trkpt>
      <trkpt lat="47.79733" lon="2.24424">
        <ele>105</ele>
        <time>2017-05-07T07:20:30.373Z</time>
      </trkpt>
      <trkpt lat="47.79733" lon="2.24424">
        <ele>105</ele>
        <time>2017-05-07T07:20:31.365Z</time>
      </trkpt>
      <trkpt lat="47.79724" lon="2.24427">
        <ele>104</ele>
        <time>2017-05-07T07:20:32.374Z</time>
      </trkpt>
      <trkpt lat="47.79721" lon="2.24428">
        <ele>104</ele>
        <time>2017-05-07T07:20:33.371Z</time>
      </trkpt>
      <trkpt lat="47.79721" lon="2.24428">
        <ele>104</ele>
        <time>2017-05-07T07:20:34.364Z</time>
      </trkpt>
      <trkpt lat="47.79714" lon="2.24432">
        <ele>103</ele>
        <time>2017-05-07T07:20:35.371Z</time>
      </trkpt>
      <trkpt lat="47.79714" lon="2.24432">
        <ele>103</ele>
        <time>2017-05-07T07:20:36.364Z</time>
      </trkpt>
      <trkpt lat="47.79707" lon="2.24436">
        <ele>103</ele>
        <time>2017-05-07T07:20:37.373Z</time>
      </trkpt>
      <trkpt lat="47.79707" lon="2.24436">
        <ele>103</ele>
        <time>2017-05-07T07:20:38.364Z</time>
      </trkpt>
      <trkpt lat="47.79701" lon="2.24441">
        <ele>103</ele>
        <time>2017-05-07T07:20:39.372Z</time>
      </trkpt>
      <trkpt lat="47.79698" lon="2.24442">
        <ele>103</ele>
        <time>2017-05-07T07:20:40.385Z</time>
      </trkpt>
      <trkpt lat="47.79698" lon="2.24442">
        <ele>103</ele>
        <time>2017-05-07T07:20:41.383Z</time>
      </trkpt>
      <trkpt lat="47.79688" lon="2.24443">
        <ele>103</ele>
        <time>2017-05-07T07:20:42.376Z</time>
      </trkpt>
      <trkpt lat="47.79684" lon="2.24445">
        <ele>103</ele>
        <time>2017-05-07T07:20:43.375Z</time>
      </trkpt>
      <trkpt lat="47.79681" lon="2.24447">
        <ele>102</ele>
        <time>2017-05-07T07:20:44.368Z</time>
      </trkpt>
      <trkpt lat="47.79681" lon="2.24447">
        <ele>102</ele>
        <time>2017-05-07T07:20:45.382Z</time>
      </trkpt>
      <trkpt lat="47.79674" lon="2.24453">
        <ele>102</ele>
        <time>2017-05-07T07:20:46.378Z</time>
      </trkpt>
      <trkpt lat="47.79672" lon="2.24457">
        <ele>102</ele>
        <time>2017-05-07T07:20:47.375Z</time>
      </trkpt>
      <trkpt lat="47.79672" lon="2.24457">
        <ele>102</ele>
        <time>2017-05-07T07:20:48.366Z</time>
      </trkpt>
      <trkpt lat="47.79668" lon="2.24466">
        <ele>102</ele>
        <time>2017-05-07T07:20:49.363Z</time>
      </trkpt>
      <trkpt lat="47.79668" lon="2.24466">
        <ele>102</ele>
        <time>2017-05-07T07:20:50.392Z</time>
      </trkpt>
      <trkpt lat="47.79666" lon="2.24476">
        <ele>102</ele>
        <time>2017-05-07T07:20:51.385Z</time>
      </trkpt>
      <trkpt lat="47.79664" lon="2.24481">
        <ele>102</ele>
        <time>2017-05-07T07:20:52.377Z</time>
      </trkpt>
      <trkpt lat="47.79664" lon="2.24481">
        <ele>102</ele>
        <time>2017-05-07T07:20:53.366Z</time>
      </trkpt>
      <trkpt lat="47.79663" lon="2.24492">
        <ele>102</ele>
        <time>2017-05-07T07:20:54.375Z</time>
      </trkpt>
      <trkpt lat="47.79662" lon="2.24497">
        <ele>102</ele>
        <time>2017-05-07T07:20:55.379Z</time>
      </trkpt>
      <trkpt lat="47.79662" lon="2.24497">
        <ele>102</ele>
        <time>2017-05-07T07:20:56.369Z</time>
      </trkpt>
      <trkpt lat="47.79661" lon="2.24508">
        <ele>102</ele>
        <time>2017-05-07T07:20:57.374Z</time>
      </trkpt>
      <trkpt lat="47.79661" lon="2.24508">
        <ele>102</ele>
        <time>2017-05-07T07:20:58.366Z</time>
      </trkpt>
      <trkpt lat="47.7966" lon="2.24519">
        <ele>101</ele>
        <time>2017-05-07T07:20:59.384Z</time>
      </trkpt>
      <trkpt lat="47.7966" lon="2.24519">
        <ele>101</ele>
        <time>2017-05-07T07:21:00.375Z</time>
      </trkpt>
      <trkpt lat="47.79659" lon="2.24531">
        <ele>102</ele>
        <time>2017-05-07T07:21:01.377Z</time>
      </trkpt>
      <trkpt lat="47.79659" lon="2.24531">
        <ele>102</ele>
        <time>2017-05-07T07:21:02.377Z</time>
      </trkpt>
      <trkpt lat="47.79658" lon="2.2454">
        <ele>102</ele>
        <time>2017-05-07T07:21:03.378Z</time>
      </trkpt>
      <trkpt lat="47.79658" lon="2.2454">
        <ele>102</ele>
        <time>2017-05-07T07:21:04.369Z</time>
      </trkpt>
      <trkpt lat="47.79657" lon="2.24549">
        <ele>102</ele>
        <time>2017-05-07T07:21:05.378Z</time>
      </trkpt>
      <trkpt lat="47.79657" lon="2.24549">
        <ele>102</ele>
        <time>2017-05-07T07:21:06.372Z</time>
      </trkpt>
      <trkpt lat="47.79657" lon="2.24558">
        <ele>102</ele>
        <time>2017-05-07T07:21:07.377Z</time>
      </trkpt>
      <trkpt lat="47.79658" lon="2.24562">
        <ele>102</ele>
        <time>2017-05-07T07:21:08.375Z</time>
      </trkpt>
      <trkpt lat="47.79658" lon="2.24562">
        <ele>102</ele>
        <time>2017-05-07T07:21:09.369Z</time>
      </trkpt>
      <trkpt lat="47.79659" lon="2.24571">
        <ele>102</ele>
        <time>2017-05-07T07:21:10.377Z</time>
      </trkpt>
      <trkpt lat="47.79659" lon="2.24576">
        <ele>103</ele>
        <time>2017-05-07T07:21:11.375Z</time>
      </trkpt>
      <trkpt lat="47.79659" lon="2.24576">
        <ele>103</ele>
        <time>2017-05-07T07:21:12.366Z</time>
      </trkpt>
      <trkpt lat="47.7966" lon="2.24588">
        <ele>103</ele>
        <time>2017-05-07T07:21:13.394Z</time>
      </trkpt>
      <trkpt lat="47.7966" lon="2.24588">
        <ele>103</ele>
        <time>2017-05-07T07:21:14.381Z</time>
      </trkpt>
      <trkpt lat="47.79664" lon="2.24601">
        <ele>103</ele>
        <time>2017-05-07T07:21:15.378Z</time>
      </trkpt>
      <trkpt lat="47.79665" lon="2.24606">
        <ele>104</ele>
        <time>2017-05-07T07:21:16.377Z</time>
      </trkpt>
      <trkpt lat="47.79665" lon="2.24606">
        <ele>104</ele>
        <time>2017-05-07T07:21:17.371Z</time>
      </trkpt>
      <trkpt lat="47.79667" lon="2.24618">
        <ele>104</ele>
        <time>2017-05-07T07:21:18.369Z</time>
      </trkpt>
      <trkpt lat="47.79667" lon="2.24623">
        <ele>105</ele>
        <time>2017-05-07T07:21:19.377Z</time>
      </trkpt>
      <trkpt lat="47.79667" lon="2.24623">
        <ele>105</ele>
        <time>2017-05-07T07:21:20.367Z</time>
      </trkpt>
      <trkpt lat="47.79669" lon="2.24634">
        <ele>105</ele>
        <time>2017-05-07T07:21:21.368Z</time>
      </trkpt>
      <trkpt lat="47.79669" lon="2.24634">
        <ele>105</ele>
        <time>2017-05-07T07:21:22.366Z</time>
      </trkpt>
      <trkpt lat="47.79671" lon="2.24644">
        <ele>106</ele>
        <time>2017-05-07T07:21:23.377Z</time>
      </trkpt>
      <trkpt lat="47.79671" lon="2.24644">
        <ele>106</ele>
        <time>2017-05-07T07:21:24.380Z</time>
      </trkpt>
      <trkpt lat="47.79673" lon="2.24655">
        <ele>107</ele>
        <time>2017-05-07T07:21:25.379Z</time>
      </trkpt>
      <trkpt lat="47.79673" lon="2.24655">
        <ele>107</ele>
        <time>2017-05-07T07:21:26.370Z</time>
      </trkpt>
      <trkpt lat="47.79676" lon="2.24666">
        <ele>109</ele>
        <time>2017-05-07T07:21:27.369Z</time>
      </trkpt>
      <trkpt lat="47.79676" lon="2.24666">
        <ele>109</ele>
        <time>2017-05-07T07:21:28.380Z</time>
      </trkpt>
      <trkpt lat="47.79678" lon="2.24675">
        <ele>109</ele>
        <time>2017-05-07T07:21:29.379Z</time>
      </trkpt>
      <trkpt lat="47.79678" lon="2.24675">
        <ele>109</ele>
        <time>2017-05-07T07:21:30.369Z</time>
      </trkpt>
      <trkpt lat="47.7968" lon="2.24684">
        <ele>110</ele>
        <time>2017-05-07T07:21:31.378Z</time>
      </trkpt>
      <trkpt lat="47.7968" lon="2.24684">
        <ele>110</ele>
        <time>2017-05-07T07:21:32.366Z</time>
      </trkpt>
      <trkpt lat="47.79682" lon="2.24693">
        <ele>110</ele>
        <time>2017-05-07T07:21:33.377Z</time>
      </trkpt>
      <trkpt lat="47.79682" lon="2.24693">
        <ele>110</ele>
        <time>2017-05-07T07:21:34.365Z</time>
      </trkpt>
      <trkpt lat="47.79684" lon="2.24703">
        <ele>111</ele>
        <time>2017-05-07T07:21:35.394Z</time>
      </trkpt>
      <trkpt lat="47.79684" lon="2.24703">
        <ele>111</ele>
        <time>2017-05-07T07:21:36.383Z</time>
      </trkpt>
      <trkpt lat="47.79686" lon="2.24713">
        <ele>111</ele>
        <time>2017-05-07T07:21:37.376Z</time>
      </trkpt>
      <trkpt lat="47.79686" lon="2.24713">
        <ele>111</ele>
        <time>2017-05-07T07:21:38.366Z</time>
      </trkpt>
      <trkpt lat="47.79687" lon="2.24723">
        <ele>111</ele>
        <time>2017-05-07T07:21:39.377Z</time>
      </trkpt>
      <trkpt lat="47.79688" lon="2.24728">
        <ele>111</ele>
        <time>2017-05-07T07:21:40.379Z</time>
      </trkpt>
      <trkpt lat="47.79688" lon="2.24728">
        <ele>111</ele>
        <time>2017-05-07T07:21:41.372Z</time>
      </trkpt>
      <trkpt lat="47.79689" lon="2.24738">
        <ele>112</ele>
        <time>2017-05-07T07:21:42.372Z</time>
      </trkpt>
      <trkpt lat="47.7969" lon="2.24743">
        <ele>112</ele>
        <time>2017-05-07T07:21:43.375Z</time>
      </trkpt>
      <trkpt lat="47.7969" lon="2.24743">
        <ele>112</ele>
        <time>2017-05-07T07:21:44.392Z</time>
      </trkpt>
      <trkpt lat="47.79689" lon="2.24752">
        <ele>112</ele>
        <time>2017-05-07T07:21:45.381Z</time>
      </trkpt>
      <trkpt lat="47.79689" lon="2.24752">
        <ele>112</ele>
        <time>2017-05-07T07:21:46.368Z</time>
      </trkpt>
      <trkpt lat="47.7969" lon="2.2476">
        <ele>112</ele>
        <time>2017-05-07T07:21:47.373Z</time>
      </trkpt>
      <trkpt lat="47.79691" lon="2.24764">
        <ele>112</ele>
        <time>2017-05-07T07:21:48.375Z</time>
      </trkpt>
      <trkpt lat="47.79691" lon="2.24764">
        <ele>112</ele>
        <time>2017-05-07T07:21:49.387Z</time>
      </trkpt>
      <trkpt lat="47.79691" lon="2.24771">
        <ele>112</ele>
        <time>2017-05-07T07:21:50.378Z</time>
      </trkpt>
      <trkpt lat="47.79691" lon="2.24771">
        <ele>112</ele>
        <time>2017-05-07T07:21:51.368Z</time>
      </trkpt>
      <trkpt lat="47.79692" lon="2.24777">
        <ele>112</ele>
        <time>2017-05-07T07:21:52.380Z</time>
      </trkpt>
      <trkpt lat="47.79692" lon="2.24777">
        <ele>112</ele>
        <time>2017-05-07T07:21:53.369Z</time>
      </trkpt>
      <trkpt lat="47.79693" lon="2.24784">
        <ele>112</ele>
        <time>2017-05-07T07:21:54.378Z</time>
      </trkpt>
      <trkpt lat="47.79693" lon="2.24784">
        <ele>112</ele>
        <time>2017-05-07T07:21:55.388Z</time>
      </trkpt>
      <trkpt lat="47.79693" lon="2.24792">
        <ele>112</ele>
        <time>2017-05-07T07:21:56.358Z</time>
      </trkpt>
      <trkpt lat="47.79693" lon="2.24792">
        <ele>112</ele>
        <time>2017-05-07T07:21:57.364Z</time>
      </trkpt>
      <trkpt lat="47.79694" lon="2.24799">
        <ele>112</ele>
        <time>2017-05-07T07:21:58.379Z</time>
      </trkpt>
      <trkpt lat="47.79694" lon="2.24799">
        <ele>112</ele>
        <time>2017-05-07T07:21:59.367Z</time>
      </trkpt>
      <trkpt lat="47.79695" lon="2.24808">
        <ele>113</ele>
        <time>2017-05-07T07:22:00.380Z</time>
      </trkpt>
      <trkpt lat="47.79695" lon="2.2481">
        <ele>113</ele>
        <time>2017-05-07T07:22:01.388Z</time>
      </trkpt>
      <trkpt lat="47.79695" lon="2.2481">
        <ele>113</ele>
        <time>2017-05-07T07:22:02.386Z</time>
      </trkpt>
      <trkpt lat="47.79698" lon="2.24817">
        <ele>113</ele>
        <time>2017-05-07T07:22:03.379Z</time>
      </trkpt>
      <trkpt lat="47.79699" lon="2.2482">
        <ele>113</ele>
        <time>2017-05-07T07:22:04.377Z</time>
      </trkpt>
      <trkpt lat="47.79699" lon="2.2482">
        <ele>113</ele>
        <time>2017-05-07T07:22:05.370Z</time>
      </trkpt>
      <trkpt lat="47.797" lon="2.24828">
        <ele>113</ele>
        <time>2017-05-07T07:22:06.376Z</time>
      </trkpt>
      <trkpt lat="47.79702" lon="2.24834">
        <ele>113</ele>
        <time>2017-05-07T07:22:07.371Z</time>
      </trkpt>
      <trkpt lat="47.79702" lon="2.24834">
        <ele>113</ele>
        <time>2017-05-07T07:22:08.370Z</time>
      </trkpt>
      <trkpt lat="47.79705" lon="2.24847">
        <ele>113</ele>
        <time>2017-05-07T07:22:09.376Z</time>
      </trkpt>
      <trkpt lat="47.79705" lon="2.24852">
        <ele>113</ele>
        <time>2017-05-07T07:22:10.376Z</time>
      </trkpt>
      <trkpt lat="47.79705" lon="2.24852">
        <ele>113</ele>
        <time>2017-05-07T07:22:11.369Z</time>
      </trkpt>
      <trkpt lat="47.79708" lon="2.24863">
        <ele>113</ele>
        <time>2017-05-07T07:22:12.376Z</time>
      </trkpt>
      <trkpt lat="47.79709" lon="2.24869">
        <ele>113</ele>
        <time>2017-05-07T07:22:13.374Z</time>
      </trkpt>
      <trkpt lat="47.79709" lon="2.24869">
        <ele>113</ele>
        <time>2017-05-07T07:22:14.367Z</time>
      </trkpt>
      <trkpt lat="47.79711" lon="2.24888">
        <ele>113</ele>
        <time>2017-05-07T07:22:15.372Z</time>
      </trkpt>
      <trkpt lat="47.79711" lon="2.24888">
        <ele>113</ele>
        <time>2017-05-07T07:22:16.373Z</time>
      </trkpt>
      <trkpt lat="47.79712" lon="2.24902">
        <ele>114</ele>
        <time>2017-05-07T07:22:17.374Z</time>
      </trkpt>
      <trkpt lat="47.79712" lon="2.24902">
        <ele>114</ele>
        <time>2017-05-07T07:22:18.365Z</time>
      </trkpt>
      <trkpt lat="47.79714" lon="2.2491">
        <ele>114</ele>
        <time>2017-05-07T07:22:19.377Z</time>
      </trkpt>
      <trkpt lat="47.79714" lon="2.2491">
        <ele>114</ele>
        <time>2017-05-07T07:22:20.372Z</time>
      </trkpt>
      <trkpt lat="47.79716" lon="2.2492">
        <ele>114</ele>
        <time>2017-05-07T07:22:21.375Z</time>
      </trkpt>
      <trkpt lat="47.79716" lon="2.2492">
        <ele>114</ele>
        <time>2017-05-07T07:22:22.373Z</time>
      </trkpt>
      <trkpt lat="47.79718" lon="2.24927">
        <ele>115</ele>
        <time>2017-05-07T07:22:23.373Z</time>
      </trkpt>
      <trkpt lat="47.79718" lon="2.24927">
        <ele>115</ele>
        <time>2017-05-07T07:22:24.372Z</time>
      </trkpt>
      <trkpt lat="47.7972" lon="2.24934">
        <ele>115</ele>
        <time>2017-05-07T07:22:25.377Z</time>
      </trkpt>
      <trkpt lat="47.7972" lon="2.24934">
        <ele>115</ele>
        <time>2017-05-07T07:22:26.368Z</time>
      </trkpt>
      <trkpt lat="47.79721" lon="2.24944">
        <ele>115</ele>
        <time>2017-05-07T07:22:27.378Z</time>
      </trkpt>
      <trkpt lat="47.79721" lon="2.24944">
        <ele>115</ele>
        <time>2017-05-07T07:22:28.370Z</time>
      </trkpt>
      <trkpt lat="47.79723" lon="2.24958">
        <ele>116</ele>
        <time>2017-05-07T07:22:29.374Z</time>
      </trkpt>
      <trkpt lat="47.79723" lon="2.24958">
        <ele>116</ele>
        <time>2017-05-07T07:22:30.370Z</time>
      </trkpt>
      <trkpt lat="47.79724" lon="2.24971">
        <ele>117</ele>
        <time>2017-05-07T07:22:31.373Z</time>
      </trkpt>
      <trkpt lat="47.79724" lon="2.24971">
        <ele>117</ele>
        <time>2017-05-07T07:22:32.365Z</time>
      </trkpt>
      <trkpt lat="47.79724" lon="2.24982">
        <ele>118</ele>
        <time>2017-05-07T07:22:33.377Z</time>
      </trkpt>
      <trkpt lat="47.79724" lon="2.24982">
        <ele>118</ele>
        <time>2017-05-07T07:22:34.377Z</time>
      </trkpt>
      <trkpt lat="47.79726" lon="2.2499">
        <ele>118</ele>
        <time>2017-05-07T07:22:35.375Z</time>
      </trkpt>
      <trkpt lat="47.79726" lon="2.2499">
        <ele>118</ele>
        <time>2017-05-07T07:22:36.365Z</time>
      </trkpt>
      <trkpt lat="47.79726" lon="2.24996">
        <ele>119</ele>
        <time>2017-05-07T07:22:37.378Z</time>
      </trkpt>
      <trkpt lat="47.79726" lon="2.24996">
        <ele>119</ele>
        <time>2017-05-07T07:22:38.369Z</time>
      </trkpt>
      <trkpt lat="47.79727" lon="2.25002">
        <ele>119</ele>
        <time>2017-05-07T07:22:39.376Z</time>
      </trkpt>
      <trkpt lat="47.79727" lon="2.25002">
        <ele>119</ele>
        <time>2017-05-07T07:22:40.373Z</time>
      </trkpt>
      <trkpt lat="47.79728" lon="2.2501">
        <ele>119</ele>
        <time>2017-05-07T07:22:41.373Z</time>
      </trkpt>
      <trkpt lat="47.79728" lon="2.2501">
        <ele>119</ele>
        <time>2017-05-07T07:22:42.370Z</time>
      </trkpt>
      <trkpt lat="47.79729" lon="2.25018">
        <ele>120</ele>
        <time>2017-05-07T07:22:43.373Z</time>
      </trkpt>
      <trkpt lat="47.79729" lon="2.25018">
        <ele>120</ele>
        <time>2017-05-07T07:22:44.367Z</time>
      </trkpt>
      <trkpt lat="47.79731" lon="2.2503">
        <ele>121</ele>
        <time>2017-05-07T07:22:45.368Z</time>
      </trkpt>
      <trkpt lat="47.79731" lon="2.2503">
        <ele>121</ele>
        <time>2017-05-07T07:22:46.366Z</time>
      </trkpt>
      <trkpt lat="47.79731" lon="2.25048">
        <ele>121</ele>
        <time>2017-05-07T07:22:47.391Z</time>
      </trkpt>
      <trkpt lat="47.79731" lon="2.25054">
        <ele>121</ele>
        <time>2017-05-07T07:22:48.379Z</time>
      </trkpt>
      <trkpt lat="47.79731" lon="2.2506">
        <ele>121</ele>
        <time>2017-05-07T07:22:49.381Z</time>
      </trkpt>
      <trkpt lat="47.79731" lon="2.2506">
        <ele>121</ele>
        <time>2017-05-07T07:22:50.373Z</time>
      </trkpt>
      <trkpt lat="47.79733" lon="2.2507">
        <ele>121</ele>
        <time>2017-05-07T07:22:51.379Z</time>
      </trkpt>
      <trkpt lat="47.79733" lon="2.2507">
        <ele>121</ele>
        <time>2017-05-07T07:22:52.367Z</time>
      </trkpt>
      <trkpt lat="47.79734" lon="2.25079">
        <ele>121</ele>
        <time>2017-05-07T07:22:53.375Z</time>
      </trkpt>
      <trkpt lat="47.79734" lon="2.25079">
        <ele>121</ele>
        <time>2017-05-07T07:22:54.373Z</time>
      </trkpt>
      <trkpt lat="47.79733" lon="2.25087">
        <ele>120</ele>
        <time>2017-05-07T07:22:55.378Z</time>
      </trkpt>
      <trkpt lat="47.79733" lon="2.25087">
        <ele>120</ele>
        <time>2017-05-07T07:22:56.367Z</time>
      </trkpt>
      <trkpt lat="47.79732" lon="2.25096">
        <ele>120</ele>
        <time>2017-05-07T07:22:57.376Z</time>
      </trkpt>
      <trkpt lat="47.79732" lon="2.25096">
        <ele>120</ele>
        <time>2017-05-07T07:22:58.372Z</time>
      </trkpt>
      <trkpt lat="47.79732" lon="2.25104">
        <ele>120</ele>
        <time>2017-05-07T07:22:59.382Z</time>
      </trkpt>
      <trkpt lat="47.79731" lon="2.25107">
        <ele>120</ele>
        <time>2017-05-07T07:23:00.357Z</time>
      </trkpt>
      <trkpt lat="47.79731" lon="2.2511">
        <ele>120</ele>
        <time>2017-05-07T07:23:01.387Z</time>
      </trkpt>
      <trkpt lat="47.79731" lon="2.2511">
        <ele>120</ele>
        <time>2017-05-07T07:23:02.375Z</time>
      </trkpt>
      <trkpt lat="47.79732" lon="2.25116">
        <ele>120</ele>
        <time>2017-05-07T07:23:03.379Z</time>
      </trkpt>
      <trkpt lat="47.79732" lon="2.25116">
        <ele>120</ele>
        <time>2017-05-07T07:23:04.375Z</time>
      </trkpt>
      <trkpt lat="47.79733" lon="2.25124">
        <ele>120</ele>
        <time>2017-05-07T07:23:05.377Z</time>
      </trkpt>
      <trkpt lat="47.79733" lon="2.25124">
        <ele>120</ele>
        <time>2017-05-07T07:23:06.367Z</time>
      </trkpt>
      <trkpt lat="47.79734" lon="2.25133">
        <ele>117</ele>
        <time>2017-05-07T07:23:07.355Z</time>
      </trkpt>
      <trkpt lat="47.79734" lon="2.25133">
        <ele>117</ele>
        <time>2017-05-07T07:23:08.390Z</time>
      </trkpt>
      <trkpt lat="47.79736" lon="2.25144">
        <ele>115</ele>
        <time>2017-05-07T07:23:09.379Z</time>
      </trkpt>
      <trkpt lat="47.79736" lon="2.25144">
        <ele>115</ele>
        <time>2017-05-07T07:23:10.373Z</time>
      </trkpt>
      <trkpt lat="47.79737" lon="2.25156">
        <ele>114</ele>
        <time>2017-05-07T07:23:11.376Z</time>
      </trkpt>
      <trkpt lat="47.79737" lon="2.25156">
        <ele>114</ele>
        <time>2017-05-07T07:23:12.372Z</time>
      </trkpt>
      <trkpt lat="47.79737" lon="2.25168">
        <ele>113</ele>
        <time>2017-05-07T07:23:13.381Z</time>
      </trkpt>
      <trkpt lat="47.79737" lon="2.25168">
        <ele>113</ele>
        <time>2017-05-07T07:23:14.371Z</time>
      </trkpt>
      <trkpt lat="47.79737" lon="2.2518">
        <ele>111</ele>
        <time>2017-05-07T07:23:15.390Z</time>
      </trkpt>
      <trkpt lat="47.79736" lon="2.25187">
        <ele>111</ele>
        <time>2017-05-07T07:23:16.381Z</time>
      </trkpt>
      <trkpt lat="47.79736" lon="2.25187">
        <ele>111</ele>
        <time>2017-05-07T07:23:17.373Z</time>
      </trkpt>
      <trkpt lat="47.79736" lon="2.25202">
        <ele>110</ele>
        <time>2017-05-07T07:23:18.379Z</time>
      </trkpt>
      <trkpt lat="47.79736" lon="2.25209">
        <ele>110</ele>
        <time>2017-05-07T07:23:19.379Z</time>
      </trkpt>
      <trkpt lat="47.79736" lon="2.25209">
        <ele>110</ele>
        <time>2017-05-07T07:23:20.374Z</time>
      </trkpt>
      <trkpt lat="47.79736" lon="2.25222">
        <ele>110</ele>
        <time>2017-05-07T07:23:21.369Z</time>
      </trkpt>
      <trkpt lat="47.79736" lon="2.25222">
        <ele>110</ele>
        <time>2017-05-07T07:23:22.373Z</time>
      </trkpt>
      <trkpt lat="47.79735" lon="2.25235">
        <ele>110</ele>
        <time>2017-05-07T07:23:23.378Z</time>
      </trkpt>
      <trkpt lat="47.79735" lon="2.25235">
        <ele>110</ele>
        <time>2017-05-07T07:23:24.371Z</time>
      </trkpt>
      <trkpt lat="47.79735" lon="2.25247">
        <ele>110</ele>
        <time>2017-05-07T07:23:25.391Z</time>
      </trkpt>
      <trkpt lat="47.79735" lon="2.25247">
        <ele>110</ele>
        <time>2017-05-07T07:23:26.394Z</time>
      </trkpt>
      <trkpt lat="47.79735" lon="2.25258">
        <ele>109</ele>
        <time>2017-05-07T07:23:27.383Z</time>
      </trkpt>
      <trkpt lat="47.79735" lon="2.25258">
        <ele>109</ele>
        <time>2017-05-07T07:23:28.372Z</time>
      </trkpt>
      <trkpt lat="47.79735" lon="2.25269">
        <ele>109</ele>
        <time>2017-05-07T07:23:29.380Z</time>
      </trkpt>
      <trkpt lat="47.79735" lon="2.25269">
        <ele>109</ele>
        <time>2017-05-07T07:23:30.372Z</time>
      </trkpt>
      <trkpt lat="47.79736" lon="2.2528">
        <ele>109</ele>
        <time>2017-05-07T07:23:31.377Z</time>
      </trkpt>
      <trkpt lat="47.79736" lon="2.2528">
        <ele>109</ele>
        <time>2017-05-07T07:23:32.372Z</time>
      </trkpt>
      <trkpt lat="47.79736" lon="2.25292">
        <ele>109</ele>
        <time>2017-05-07T07:23:33.376Z</time>
      </trkpt>
      <trkpt lat="47.79736" lon="2.25292">
        <ele>109</ele>
        <time>2017-05-07T07:23:34.380Z</time>
      </trkpt>
      <trkpt lat="47.79737" lon="2.25304">
        <ele>109</ele>
        <time>2017-05-07T07:23:35.369Z</time>
      </trkpt>
      <trkpt lat="47.79737" lon="2.25309">
        <ele>109</ele>
        <time>2017-05-07T07:23:36.376Z</time>
      </trkpt>
      <trkpt lat="47.79738" lon="2.25315">
        <ele>110</ele>
        <time>2017-05-07T07:23:37.377Z</time>
      </trkpt>
      <trkpt lat="47.79738" lon="2.25321">
        <ele>110</ele>
        <time>2017-05-07T07:23:38.377Z</time>
      </trkpt>
      <trkpt lat="47.79738" lon="2.25321">
        <ele>110</ele>
        <time>2017-05-07T07:23:39.391Z</time>
      </trkpt>
      <trkpt lat="47.79738" lon="2.25333">
        <ele>110</ele>
        <time>2017-05-07T07:23:40.380Z</time>
      </trkpt>
      <trkpt lat="47.79738" lon="2.25333">
        <ele>110</ele>
        <time>2017-05-07T07:23:41.379Z</time>
      </trkpt>
      <trkpt lat="47.79738" lon="2.25345">
        <ele>110</ele>
        <time>2017-05-07T07:23:42.372Z</time>
      </trkpt>
      <trkpt lat="47.79738" lon="2.2535">
        <ele>110</ele>
        <time>2017-05-07T07:23:43.373Z</time>
      </trkpt>
      <trkpt lat="47.79738" lon="2.2535">
        <ele>110</ele>
        <time>2017-05-07T07:23:44.371Z</time>
      </trkpt>
      <trkpt lat="47.79736" lon="2.25358">
        <ele>111</ele>
        <time>2017-05-07T07:23:45.381Z</time>
      </trkpt>
      <trkpt lat="47.79735" lon="2.2536">
        <ele>110</ele>
        <time>2017-05-07T07:23:46.357Z</time>
      </trkpt>
      <trkpt lat="47.79736" lon="2.25361">
        <ele>111</ele>
        <time>2017-05-07T07:23:47.389Z</time>
      </trkpt>
      <trkpt lat="47.79736" lon="2.25361">
        <ele>111</ele>
        <time>2017-05-07T07:23:48.379Z</time>
      </trkpt>
      <trkpt lat="47.79736" lon="2.25363">
        <ele>111</ele>
        <time>2017-05-07T07:23:49.357Z</time>
      </trkpt>
      <trkpt lat="47.79736" lon="2.25363">
        <ele>111</ele>
        <time>2017-05-07T07:23:50.389Z</time>
      </trkpt>
      <trkpt lat="47.79736" lon="2.25363">
        <ele>111</ele>
        <time>2017-05-07T07:23:51.387Z</time>
      </trkpt>
      <trkpt lat="47.79735" lon="2.25362">
        <ele>111</ele>
        <time>2017-05-07T07:23:52.380Z</time>
      </trkpt>
      <trkpt lat="47.79735" lon="2.25362">
        <ele>111</ele>
        <time>2017-05-07T07:23:53.361Z</time>
      </trkpt>
      <trkpt lat="47.79735" lon="2.25362">
        <ele>111</ele>
        <time>2017-05-07T07:23:54.365Z</time>
      </trkpt>
      <trkpt lat="47.79735" lon="2.25378">
        <ele>112</ele>
        <time>2017-05-07T07:23:55.370Z</time>
      </trkpt>
      <trkpt lat="47.79735" lon="2.25378">
        <ele>112</ele>
        <time>2017-05-07T07:23:56.378Z</time>
      </trkpt>
      <trkpt lat="47.79736" lon="2.25387">
        <ele>112</ele>
        <time>2017-05-07T07:23:57.386Z</time>
      </trkpt>
      <trkpt lat="47.79736" lon="2.25387">
        <ele>112</ele>
        <time>2017-05-07T07:23:58.394Z</time>
      </trkpt>
      <trkpt lat="47.79738" lon="2.25395">
        <ele>111</ele>
        <time>2017-05-07T07:23:59.376Z</time>
      </trkpt>
      <trkpt lat="47.79738" lon="2.25395">
        <ele>111</ele>
        <time>2017-05-07T07:24:00.379Z</time>
      </trkpt>
      <trkpt lat="47.79739" lon="2.25402">
        <ele>111</ele>
        <time>2017-05-07T07:24:01.378Z</time>
      </trkpt>
      <trkpt lat="47.79739" lon="2.25402">
        <ele>111</ele>
        <time>2017-05-07T07:24:02.373Z</time>
      </trkpt>
      <trkpt lat="47.7974" lon="2.25409">
        <ele>111</ele>
        <time>2017-05-07T07:24:03.375Z</time>
      </trkpt>
      <trkpt lat="47.7974" lon="2.25409">
        <ele>111</ele>
        <time>2017-05-07T07:24:04.370Z</time>
      </trkpt>
      <trkpt lat="47.79742" lon="2.25416">
        <ele>111</ele>
        <time>2017-05-07T07:24:05.369Z</time>
      </trkpt>
      <trkpt lat="47.79744" lon="2.2542">
        <ele>112</ele>
        <time>2017-05-07T07:24:06.368Z</time>
      </trkpt>
      <trkpt lat="47.79745" lon="2.25424">
        <ele>112</ele>
        <time>2017-05-07T07:24:07.380Z</time>
      </trkpt>
      <trkpt lat="47.79745" lon="2.25424">
        <ele>112</ele>
        <time>2017-05-07T07:24:08.376Z</time>
      </trkpt>
      <trkpt lat="47.79747" lon="2.25431">
        <ele>112</ele>
        <time>2017-05-07T07:24:09.373Z</time>
      </trkpt>
      <trkpt lat="47.79747" lon="2.25431">
        <ele>112</ele>
        <time>2017-05-07T07:24:10.379Z</time>
      </trkpt>
      <trkpt lat="47.79747" lon="2.25438">
        <ele>113</ele>
        <time>2017-05-07T07:24:11.377Z</time>
      </trkpt>
      <trkpt lat="47.79747" lon="2.25438">
        <ele>113</ele>
        <time>2017-05-07T07:24:12.361Z</time>
      </trkpt>
      <trkpt lat="47.79748" lon="2.25447">
        <ele>113</ele>
        <time>2017-05-07T07:24:13.355Z</time>
      </trkpt>
      <trkpt lat="47.79748" lon="2.25447">
        <ele>113</ele>
        <time>2017-05-07T07:24:14.383Z</time>
      </trkpt>
      <trkpt lat="47.79748" lon="2.25454">
        <ele>113</ele>
        <time>2017-05-07T07:24:15.373Z</time>
      </trkpt>
      <trkpt lat="47.79748" lon="2.25454">
        <ele>113</ele>
        <time>2017-05-07T07:24:16.361Z</time>
      </trkpt>
      <trkpt lat="47.79747" lon="2.25461">
        <ele>114</ele>
        <time>2017-05-07T07:24:17.372Z</time>
      </trkpt>
      <trkpt lat="47.79746" lon="2.25464">
        <ele>114</ele>
        <time>2017-05-07T07:24:18.368Z</time>
      </trkpt>
      <trkpt lat="47.79746" lon="2.25464">
        <ele>114</ele>
        <time>2017-05-07T07:24:19.361Z</time>
      </trkpt>
      <trkpt lat="47.79745" lon="2.25472">
        <ele>114</ele>
        <time>2017-05-07T07:24:20.361Z</time>
      </trkpt>
      <trkpt lat="47.79745" lon="2.25472">
        <ele>114</ele>
        <time>2017-05-07T07:24:21.362Z</time>
      </trkpt>
      <trkpt lat="47.79743" lon="2.2548">
        <ele>115</ele>
        <time>2017-05-07T07:24:22.378Z</time>
      </trkpt>
      <trkpt lat="47.79743" lon="2.2548">
        <ele>115</ele>
        <time>2017-05-07T07:24:23.374Z</time>
      </trkpt>
      <trkpt lat="47.79741" lon="2.25488">
        <ele>115</ele>
        <time>2017-05-07T07:24:24.372Z</time>
      </trkpt>
      <trkpt lat="47.7974" lon="2.25491">
        <ele>115</ele>
        <time>2017-05-07T07:24:25.380Z</time>
      </trkpt>
      <trkpt lat="47.7974" lon="2.25491">
        <ele>115</ele>
        <time>2017-05-07T07:24:26.388Z</time>
      </trkpt>
      <trkpt lat="47.79738" lon="2.25499">
        <ele>115</ele>
        <time>2017-05-07T07:24:27.356Z</time>
      </trkpt>
      <trkpt lat="47.79737" lon="2.25503">
        <ele>115</ele>
        <time>2017-05-07T07:24:28.365Z</time>
      </trkpt>
      <trkpt lat="47.79737" lon="2.25503">
        <ele>115</ele>
        <time>2017-05-07T07:24:29.387Z</time>
      </trkpt>
      <trkpt lat="47.79736" lon="2.25511">
        <ele>115</ele>
        <time>2017-05-07T07:24:30.374Z</time>
      </trkpt>
      <trkpt lat="47.79736" lon="2.25515">
        <ele>115</ele>
        <time>2017-05-07T07:24:31.376Z</time>
      </trkpt>
      <trkpt lat="47.79735" lon="2.25518">
        <ele>115</ele>
        <time>2017-05-07T07:24:32.375Z</time>
      </trkpt>
      <trkpt lat="47.79735" lon="2.25518">
        <ele>115</ele>
        <time>2017-05-07T07:24:33.376Z</time>
      </trkpt>
      <trkpt lat="47.79733" lon="2.25524">
        <ele>115</ele>
        <time>2017-05-07T07:24:34.374Z</time>
      </trkpt>
      <trkpt lat="47.79733" lon="2.25524">
        <ele>115</ele>
        <time>2017-05-07T07:24:35.372Z</time>
      </trkpt>
      <trkpt lat="47.79732" lon="2.25531">
        <ele>115</ele>
        <time>2017-05-07T07:24:36.376Z</time>
      </trkpt>
      <trkpt lat="47.79732" lon="2.25531">
        <ele>115</ele>
        <time>2017-05-07T07:24:37.373Z</time>
      </trkpt>
      <trkpt lat="47.7973" lon="2.25538">
        <ele>115</ele>
        <time>2017-05-07T07:24:38.376Z</time>
      </trkpt>
      <trkpt lat="47.7973" lon="2.25538">
        <ele>115</ele>
        <time>2017-05-07T07:24:39.376Z</time>
      </trkpt>
      <trkpt lat="47.79729" lon="2.25544">
        <ele>115</ele>
        <time>2017-05-07T07:24:40.375Z</time>
      </trkpt>
      <trkpt lat="47.79729" lon="2.25544">
        <ele>115</ele>
        <time>2017-05-07T07:24:41.382Z</time>
      </trkpt>
      <trkpt lat="47.79729" lon="2.2555">
        <ele>115</ele>
        <time>2017-05-07T07:24:42.394Z</time>
      </trkpt>
      <trkpt lat="47.79729" lon="2.25553">
        <ele>115</ele>
        <time>2017-05-07T07:24:43.363Z</time>
      </trkpt>
      <trkpt lat="47.79729" lon="2.25557">
        <ele>115</ele>
        <time>2017-05-07T07:24:44.377Z</time>
      </trkpt>
      <trkpt lat="47.79729" lon="2.25557">
        <ele>115</ele>
        <time>2017-05-07T07:24:45.372Z</time>
      </trkpt>
      <trkpt lat="47.79728" lon="2.25564">
        <ele>115</ele>
        <time>2017-05-07T07:24:46.373Z</time>
      </trkpt>
      <trkpt lat="47.79728" lon="2.25568">
        <ele>116</ele>
        <time>2017-05-07T07:24:47.392Z</time>
      </trkpt>
      <trkpt lat="47.79728" lon="2.25568">
        <ele>116</ele>
        <time>2017-05-07T07:24:48.391Z</time>
      </trkpt>
      <trkpt lat="47.79727" lon="2.25576">
        <ele>116</ele>
        <time>2017-05-07T07:24:49.365Z</time>
      </trkpt>
      <trkpt lat="47.79727" lon="2.2558">
        <ele>116</ele>
        <time>2017-05-07T07:24:50.377Z</time>
      </trkpt>
      <trkpt lat="47.79727" lon="2.2558">
        <ele>116</ele>
        <time>2017-05-07T07:24:51.365Z</time>
      </trkpt>
      <trkpt lat="47.79728" lon="2.25589">
        <ele>117</ele>
        <time>2017-05-07T07:24:52.372Z</time>
      </trkpt>
      <trkpt lat="47.79728" lon="2.25589">
        <ele>117</ele>
        <time>2017-05-07T07:24:53.387Z</time>
      </trkpt>
      <trkpt lat="47.79728" lon="2.25597">
        <ele>117</ele>
        <time>2017-05-07T07:24:54.379Z</time>
      </trkpt>
      <trkpt lat="47.79728" lon="2.25597">
        <ele>117</ele>
        <time>2017-05-07T07:24:55.356Z</time>
      </trkpt>
      <trkpt lat="47.7973" lon="2.25604">
        <ele>117</ele>
        <time>2017-05-07T07:24:56.364Z</time>
      </trkpt>
      <trkpt lat="47.7973" lon="2.25604">
        <ele>117</ele>
        <time>2017-05-07T07:24:57.374Z</time>
      </trkpt>
      <trkpt lat="47.79731" lon="2.25612">
        <ele>117</ele>
        <time>2017-05-07T07:24:58.374Z</time>
      </trkpt>
      <trkpt lat="47.79731" lon="2.25612">
        <ele>117</ele>
        <time>2017-05-07T07:24:59.374Z</time>
      </trkpt>
      <trkpt lat="47.79731" lon="2.2562">
        <ele>117</ele>
        <time>2017-05-07T07:25:00.367Z</time>
      </trkpt>
      <trkpt lat="47.79731" lon="2.2562">
        <ele>117</ele>
        <time>2017-05-07T07:25:01.367Z</time>
      </trkpt>
      <trkpt lat="47.79731" lon="2.25628">
        <ele>117</ele>
        <time>2017-05-07T07:25:02.369Z</time>
      </trkpt>
      <trkpt lat="47.79731" lon="2.25628">
        <ele>117</ele>
        <time>2017-05-07T07:25:03.371Z</time>
      </trkpt>
      <trkpt lat="47.79732" lon="2.25635">
        <ele>117</ele>
        <time>2017-05-07T07:25:04.389Z</time>
      </trkpt>
      <trkpt lat="47.79732" lon="2.25639">
        <ele>117</ele>
        <time>2017-05-07T07:25:05.368Z</time>
      </trkpt>
      <trkpt lat="47.79733" lon="2.25642">
        <ele>117</ele>
        <time>2017-05-07T07:25:06.377Z</time>
      </trkpt>
      <trkpt lat="47.79733" lon="2.25645">
        <ele>117</ele>
        <time>2017-05-07T07:25:07.377Z</time>
      </trkpt>
      <trkpt lat="47.79733" lon="2.25645">
        <ele>117</ele>
        <time>2017-05-07T07:25:08.375Z</time>
      </trkpt>
      <trkpt lat="47.79732" lon="2.25652">
        <ele>117</ele>
        <time>2017-05-07T07:25:09.378Z</time>
      </trkpt>
      <trkpt lat="47.79732" lon="2.25652">
        <ele>117</ele>
        <time>2017-05-07T07:25:10.376Z</time>
      </trkpt>
      <trkpt lat="47.79732" lon="2.25659">
        <ele>117</ele>
        <time>2017-05-07T07:25:11.378Z</time>
      </trkpt>
      <trkpt lat="47.79732" lon="2.25659">
        <ele>117</ele>
        <time>2017-05-07T07:25:12.377Z</time>
      </trkpt>
      <trkpt lat="47.79731" lon="2.25667">
        <ele>116</ele>
        <time>2017-05-07T07:25:13.378Z</time>
      </trkpt>
      <trkpt lat="47.79731" lon="2.25667">
        <ele>116</ele>
        <time>2017-05-07T07:25:14.379Z</time>
      </trkpt>
      <trkpt lat="47.79731" lon="2.25674">
        <ele>116</ele>
        <time>2017-05-07T07:25:15.378Z</time>
      </trkpt>
      <trkpt lat="47.7973" lon="2.25677">
        <ele>116</ele>
        <time>2017-05-07T07:25:16.376Z</time>
      </trkpt>
      <trkpt lat="47.7973" lon="2.25677">
        <ele>116</ele>
        <time>2017-05-07T07:25:17.374Z</time>
      </trkpt>
      <trkpt lat="47.79729" lon="2.25684">
        <ele>116</ele>
        <time>2017-05-07T07:25:18.360Z</time>
      </trkpt>
      <trkpt lat="47.79728" lon="2.25688">
        <ele>116</ele>
        <time>2017-05-07T07:25:19.379Z</time>
      </trkpt>
      <trkpt lat="47.79728" lon="2.25688">
        <ele>116</ele>
        <time>2017-05-07T07:25:20.376Z</time>
      </trkpt>
      <trkpt lat="47.79728" lon="2.25694">
        <ele>116</ele>
        <time>2017-05-07T07:25:21.366Z</time>
      </trkpt>
      <trkpt lat="47.79728" lon="2.25694">
        <ele>116</ele>
        <time>2017-05-07T07:25:22.358Z</time>
      </trkpt>
      <trkpt lat="47.79729" lon="2.25701">
        <ele>117</ele>
        <time>2017-05-07T07:25:23.370Z</time>
      </trkpt>
      <trkpt lat="47.79729" lon="2.25701">
        <ele>117</ele>
        <time>2017-05-07T07:25:24.378Z</time>
      </trkpt>
      <trkpt lat="47.79729" lon="2.25709">
        <ele>117</ele>
        <time>2017-05-07T07:25:25.385Z</time>
      </trkpt>
      <trkpt lat="47.79729" lon="2.25709">
        <ele>117</ele>
        <time>2017-05-07T07:25:26.392Z</time>
      </trkpt>
      <trkpt lat="47.7973" lon="2.25718">
        <ele>117</ele>
        <time>2017-05-07T07:25:27.359Z</time>
      </trkpt>
      <trkpt lat="47.7973" lon="2.25718">
        <ele>117</ele>
        <time>2017-05-07T07:25:28.369Z</time>
      </trkpt>
      <trkpt lat="47.79731" lon="2.25725">
        <ele>117</ele>
        <time>2017-05-07T07:25:29.379Z</time>
      </trkpt>
      <trkpt lat="47.79731" lon="2.25725">
        <ele>117</ele>
        <time>2017-05-07T07:25:30.379Z</time>
      </trkpt>
      <trkpt lat="47.79731" lon="2.25733">
        <ele>117</ele>
        <time>2017-05-07T07:25:31.386Z</time>
      </trkpt>
      <trkpt lat="47.79731" lon="2.25733">
        <ele>117</ele>
        <time>2017-05-07T07:25:32.357Z</time>
      </trkpt>
      <trkpt lat="47.79731" lon="2.25741">
        <ele>116</ele>
        <time>2017-05-07T07:25:33.369Z</time>
      </trkpt>
      <trkpt lat="47.79731" lon="2.25741">
        <ele>116</ele>
        <time>2017-05-07T07:25:34.367Z</time>
      </trkpt>
      <trkpt lat="47.79729" lon="2.25749">
        <ele>115</ele>
        <time>2017-05-07T07:25:35.365Z</time>
      </trkpt>
      <trkpt lat="47.79729" lon="2.25749">
        <ele>115</ele>
        <time>2017-05-07T07:25:36.371Z</time>
      </trkpt>
      <trkpt lat="47.79727" lon="2.25757">
        <ele>115</ele>
        <time>2017-05-07T07:25:37.378Z</time>
      </trkpt>
      <trkpt lat="47.79727" lon="2.25757">
        <ele>115</ele>
        <time>2017-05-07T07:25:38.385Z</time>
      </trkpt>
      <trkpt lat="47.79725" lon="2.25766">
        <ele>115</ele>
        <time>2017-05-07T07:25:39.391Z</time>
      </trkpt>
      <trkpt lat="47.79725" lon="2.25766">
        <ele>115</ele>
        <time>2017-05-07T07:25:40.359Z</time>
      </trkpt>
      <trkpt lat="47.79722" lon="2.25774">
        <ele>115</ele>
        <time>2017-05-07T07:25:41.366Z</time>
      </trkpt>
      <trkpt lat="47.79722" lon="2.25774">
        <ele>115</ele>
        <time>2017-05-07T07:25:42.373Z</time>
      </trkpt>
      <trkpt lat="47.79721" lon="2.25782">
        <ele>115</ele>
        <time>2017-05-07T07:25:43.380Z</time>
      </trkpt>
      <trkpt lat="47.79721" lon="2.25782">
        <ele>115</ele>
        <time>2017-05-07T07:25:44.386Z</time>
      </trkpt>
      <trkpt lat="47.7972" lon="2.2579">
        <ele>116</ele>
        <time>2017-05-07T07:25:45.370Z</time>
      </trkpt>
      <trkpt lat="47.7972" lon="2.2579">
        <ele>116</ele>
        <time>2017-05-07T07:25:46.376Z</time>
      </trkpt>
      <trkpt lat="47.7972" lon="2.25799">
        <ele>115</ele>
        <time>2017-05-07T07:25:47.382Z</time>
      </trkpt>
      <trkpt lat="47.7972" lon="2.25799">
        <ele>115</ele>
        <time>2017-05-07T07:25:48.389Z</time>
      </trkpt>
      <trkpt lat="47.79719" lon="2.25808">
        <ele>114</ele>
        <time>2017-05-07T07:25:49.359Z</time>
      </trkpt>
      <trkpt lat="47.79719" lon="2.25808">
        <ele>114</ele>
        <time>2017-05-07T07:25:50.364Z</time>
      </trkpt>
      <trkpt lat="47.79719" lon="2.25816">
        <ele>114</ele>
        <time>2017-05-07T07:25:51.375Z</time>
      </trkpt>
      <trkpt lat="47.79719" lon="2.25816">
        <ele>114</ele>
        <time>2017-05-07T07:25:52.381Z</time>
      </trkpt>
      <trkpt lat="47.79718" lon="2.25825">
        <ele>114</ele>
        <time>2017-05-07T07:25:53.389Z</time>
      </trkpt>
      <trkpt lat="47.79718" lon="2.25828">
        <ele>114</ele>
        <time>2017-05-07T07:25:54.362Z</time>
      </trkpt>
      <trkpt lat="47.79718" lon="2.25832">
        <ele>114</ele>
        <time>2017-05-07T07:25:55.369Z</time>
      </trkpt>
      <trkpt lat="47.79718" lon="2.25832">
        <ele>114</ele>
        <time>2017-05-07T07:25:56.375Z</time>
      </trkpt>
      <trkpt lat="47.79718" lon="2.25841">
        <ele>114</ele>
        <time>2017-05-07T07:25:57.381Z</time>
      </trkpt>
      <trkpt lat="47.79718" lon="2.25841">
        <ele>114</ele>
        <time>2017-05-07T07:25:58.389Z</time>
      </trkpt>
      <trkpt lat="47.79718" lon="2.25851">
        <ele>114</ele>
        <time>2017-05-07T07:25:59.370Z</time>
      </trkpt>
      <trkpt lat="47.79718" lon="2.25851">
        <ele>114</ele>
        <time>2017-05-07T07:26:00.356Z</time>
      </trkpt>
      <trkpt lat="47.79716" lon="2.25861">
        <ele>114</ele>
        <time>2017-05-07T07:26:01.365Z</time>
      </trkpt>
      <trkpt lat="47.79716" lon="2.25861">
        <ele>114</ele>
        <time>2017-05-07T07:26:02.371Z</time>
      </trkpt>
      <trkpt lat="47.79716" lon="2.2587">
        <ele>114</ele>
        <time>2017-05-07T07:26:03.377Z</time>
      </trkpt>
      <trkpt lat="47.79716" lon="2.2587">
        <ele>114</ele>
        <time>2017-05-07T07:26:04.384Z</time>
      </trkpt>
      <trkpt lat="47.79715" lon="2.25879">
        <ele>114</ele>
        <time>2017-05-07T07:26:05.355Z</time>
      </trkpt>
      <trkpt lat="47.79715" lon="2.25879">
        <ele>114</ele>
        <time>2017-05-07T07:26:06.363Z</time>
      </trkpt>
      <trkpt lat="47.79714" lon="2.25887">
        <ele>114</ele>
        <time>2017-05-07T07:26:07.370Z</time>
      </trkpt>
      <trkpt lat="47.79714" lon="2.25887">
        <ele>114</ele>
        <time>2017-05-07T07:26:08.380Z</time>
      </trkpt>
      <trkpt lat="47.79713" lon="2.25897">
        <ele>114</ele>
        <time>2017-05-07T07:26:09.381Z</time>
      </trkpt>
      <trkpt lat="47.79713" lon="2.25897">
        <ele>114</ele>
        <time>2017-05-07T07:26:10.387Z</time>
      </trkpt>
      <trkpt lat="47.79712" lon="2.25906">
        <ele>114</ele>
        <time>2017-05-07T07:26:11.360Z</time>
      </trkpt>
      <trkpt lat="47.79712" lon="2.25906">
        <ele>114</ele>
        <time>2017-05-07T07:26:12.366Z</time>
      </trkpt>
      <trkpt lat="47.79712" lon="2.25914">
        <ele>114</ele>
        <time>2017-05-07T07:26:13.372Z</time>
      </trkpt>
      <trkpt lat="47.79712" lon="2.25914">
        <ele>114</ele>
        <time>2017-05-07T07:26:14.387Z</time>
      </trkpt>
      <trkpt lat="47.7971" lon="2.25923">
        <ele>114</ele>
        <time>2017-05-07T07:26:15.378Z</time>
      </trkpt>
      <trkpt lat="47.7971" lon="2.25923">
        <ele>114</ele>
        <time>2017-05-07T07:26:16.366Z</time>
      </trkpt>
      <trkpt lat="47.79708" lon="2.25931">
        <ele>114</ele>
        <time>2017-05-07T07:26:17.379Z</time>
      </trkpt>
      <trkpt lat="47.79708" lon="2.25931">
        <ele>114</ele>
        <time>2017-05-07T07:26:18.371Z</time>
      </trkpt>
      <trkpt lat="47.79707" lon="2.25939">
        <ele>115</ele>
        <time>2017-05-07T07:26:19.380Z</time>
      </trkpt>
      <trkpt lat="47.79707" lon="2.25939">
        <ele>115</ele>
        <time>2017-05-07T07:26:20.387Z</time>
      </trkpt>
      <trkpt lat="47.79707" lon="2.25949">
        <ele>114</ele>
        <time>2017-05-07T07:26:21.393Z</time>
      </trkpt>
      <trkpt lat="47.79707" lon="2.25949">
        <ele>114</ele>
        <time>2017-05-07T07:26:22.359Z</time>
      </trkpt>
      <trkpt lat="47.79706" lon="2.2596">
        <ele>114</ele>
        <time>2017-05-07T07:26:23.373Z</time>
      </trkpt>
      <trkpt lat="47.79706" lon="2.2596">
        <ele>114</ele>
        <time>2017-05-07T07:26:24.379Z</time>
      </trkpt>
      <trkpt lat="47.79705" lon="2.25969">
        <ele>113</ele>
        <time>2017-05-07T07:26:25.386Z</time>
      </trkpt>
      <trkpt lat="47.79705" lon="2.25969">
        <ele>113</ele>
        <time>2017-05-07T07:26:26.355Z</time>
      </trkpt>
      <trkpt lat="47.79703" lon="2.25977">
        <ele>112</ele>
        <time>2017-05-07T07:26:27.391Z</time>
      </trkpt>
      <trkpt lat="47.79703" lon="2.25977">
        <ele>112</ele>
        <time>2017-05-07T07:26:28.358Z</time>
      </trkpt>
      <trkpt lat="47.797" lon="2.25985">
        <ele>112</ele>
        <time>2017-05-07T07:26:29.366Z</time>
      </trkpt>
      <trkpt lat="47.797" lon="2.25985">
        <ele>112</ele>
        <time>2017-05-07T07:26:30.373Z</time>
      </trkpt>
      <trkpt lat="47.79698" lon="2.25991">
        <ele>112</ele>
        <time>2017-05-07T07:26:31.380Z</time>
      </trkpt>
      <trkpt lat="47.79698" lon="2.25991">
        <ele>112</ele>
        <time>2017-05-07T07:26:32.386Z</time>
      </trkpt>
      <trkpt lat="47.79696" lon="2.25998">
        <ele>112</ele>
        <time>2017-05-07T07:26:33.394Z</time>
      </trkpt>
      <trkpt lat="47.79696" lon="2.26002">
        <ele>112</ele>
        <time>2017-05-07T07:26:34.360Z</time>
      </trkpt>
      <trkpt lat="47.79695" lon="2.26006">
        <ele>112</ele>
        <time>2017-05-07T07:26:35.366Z</time>
      </trkpt>
      <trkpt lat="47.79695" lon="2.26006">
        <ele>112</ele>
        <time>2017-05-07T07:26:36.373Z</time>
      </trkpt>
      <trkpt lat="47.79693" lon="2.26013">
        <ele>112</ele>
        <time>2017-05-07T07:26:37.382Z</time>
      </trkpt>
      <trkpt lat="47.79693" lon="2.26013">
        <ele>112</ele>
        <time>2017-05-07T07:26:38.388Z</time>
      </trkpt>
      <trkpt lat="47.79693" lon="2.26021">
        <ele>112</ele>
        <time>2017-05-07T07:26:39.356Z</time>
      </trkpt>
      <trkpt lat="47.79693" lon="2.26025">
        <ele>113</ele>
        <time>2017-05-07T07:26:40.363Z</time>
      </trkpt>
      <trkpt lat="47.79693" lon="2.26025">
        <ele>113</ele>
        <time>2017-05-07T07:26:41.369Z</time>
      </trkpt>
      <trkpt lat="47.79692" lon="2.26034">
        <ele>113</ele>
        <time>2017-05-07T07:26:42.376Z</time>
      </trkpt>
      <trkpt lat="47.79692" lon="2.26034">
        <ele>113</ele>
        <time>2017-05-07T07:26:43.382Z</time>
      </trkpt>
      <trkpt lat="47.7969" lon="2.26042">
        <ele>113</ele>
        <time>2017-05-07T07:26:44.391Z</time>
      </trkpt>
      <trkpt lat="47.7969" lon="2.26042">
        <ele>113</ele>
        <time>2017-05-07T07:26:45.393Z</time>
      </trkpt>
      <trkpt lat="47.79688" lon="2.26051">
        <ele>113</ele>
        <time>2017-05-07T07:26:46.360Z</time>
      </trkpt>
      <trkpt lat="47.79688" lon="2.26051">
        <ele>113</ele>
        <time>2017-05-07T07:26:47.373Z</time>
      </trkpt>
      <trkpt lat="47.79688" lon="2.26059">
        <ele>113</ele>
        <time>2017-05-07T07:26:48.380Z</time>
      </trkpt>
      <trkpt lat="47.79688" lon="2.26059">
        <ele>113</ele>
        <time>2017-05-07T07:26:49.376Z</time>
      </trkpt>
      <trkpt lat="47.79688" lon="2.26067">
        <ele>113</ele>
        <time>2017-05-07T07:26:50.374Z</time>
      </trkpt>
      <trkpt lat="47.79688" lon="2.26067">
        <ele>113</ele>
        <time>2017-05-07T07:26:51.366Z</time>
      </trkpt>
      <trkpt lat="47.79687" lon="2.26073">
        <ele>113</ele>
        <time>2017-05-07T07:26:52.376Z</time>
      </trkpt>
      <trkpt lat="47.79687" lon="2.26073">
        <ele>113</ele>
        <time>2017-05-07T07:26:53.379Z</time>
      </trkpt>
      <trkpt lat="47.79686" lon="2.2608">
        <ele>114</ele>
        <time>2017-05-07T07:26:54.387Z</time>
      </trkpt>
      <trkpt lat="47.79686" lon="2.2608">
        <ele>114</ele>
        <time>2017-05-07T07:26:55.384Z</time>
      </trkpt>
      <trkpt lat="47.79684" lon="2.26086">
        <ele>114</ele>
        <time>2017-05-07T07:26:56.380Z</time>
      </trkpt>
      <trkpt lat="47.79684" lon="2.26086">
        <ele>114</ele>
        <time>2017-05-07T07:26:57.373Z</time>
      </trkpt>
      <trkpt lat="47.79682" lon="2.26092">
        <ele>114</ele>
        <time>2017-05-07T07:26:58.372Z</time>
      </trkpt>
      <trkpt lat="47.79682" lon="2.26092">
        <ele>114</ele>
        <time>2017-05-07T07:26:59.365Z</time>
      </trkpt>
      <trkpt lat="47.7968" lon="2.26099">
        <ele>115</ele>
        <time>2017-05-07T07:27:00.384Z</time>
      </trkpt>
      <trkpt lat="47.79679" lon="2.26103">
        <ele>115</ele>
        <time>2017-05-07T07:27:01.376Z</time>
      </trkpt>
      <trkpt lat="47.79679" lon="2.26103">
        <ele>115</ele>
        <time>2017-05-07T07:27:02.367Z</time>
      </trkpt>
      <trkpt lat="47.79677" lon="2.26108">
        <ele>115</ele>
        <time>2017-05-07T07:27:03.369Z</time>
      </trkpt>
      <trkpt lat="47.79675" lon="2.26111">
        <ele>115</ele>
        <time>2017-05-07T07:27:04.376Z</time>
      </trkpt>
      <trkpt lat="47.79675" lon="2.26111">
        <ele>115</ele>
        <time>2017-05-07T07:27:05.376Z</time>
      </trkpt>
      <trkpt lat="47.79673" lon="2.26117">
        <ele>115</ele>
        <time>2017-05-07T07:27:06.366Z</time>
      </trkpt>
      <trkpt lat="47.79671" lon="2.2612">
        <ele>114</ele>
        <time>2017-05-07T07:27:07.375Z</time>
      </trkpt>
      <trkpt lat="47.79671" lon="2.2612">
        <ele>114</ele>
        <time>2017-05-07T07:27:08.371Z</time>
      </trkpt>
      <trkpt lat="47.79669" lon="2.26127">
        <ele>114</ele>
        <time>2017-05-07T07:27:09.373Z</time>
      </trkpt>
      <trkpt lat="47.79669" lon="2.26127">
        <ele>114</ele>
        <time>2017-05-07T07:27:10.374Z</time>
      </trkpt>
      <trkpt lat="47.79666" lon="2.26132">
        <ele>114</ele>
        <time>2017-05-07T07:27:11.371Z</time>
      </trkpt>
      <trkpt lat="47.79665" lon="2.26135">
        <ele>114</ele>
        <time>2017-05-07T07:27:12.372Z</time>
      </trkpt>
      <trkpt lat="47.79662" lon="2.26139">
        <ele>114</ele>
        <time>2017-05-07T07:27:13.380Z</time>
      </trkpt>
      <trkpt lat="47.79662" lon="2.26139">
        <ele>114</ele>
        <time>2017-05-07T07:27:14.368Z</time>
      </trkpt>
      <trkpt lat="47.7966" lon="2.26145">
        <ele>114</ele>
        <time>2017-05-07T07:27:15.384Z</time>
      </trkpt>
      <trkpt lat="47.7966" lon="2.26145">
        <ele>114</ele>
        <time>2017-05-07T07:27:16.373Z</time>
      </trkpt>
      <trkpt lat="47.79658" lon="2.26152">
        <ele>114</ele>
        <time>2017-05-07T07:27:17.377Z</time>
      </trkpt>
      <trkpt lat="47.79657" lon="2.26155">
        <ele>114</ele>
        <time>2017-05-07T07:27:18.375Z</time>
      </trkpt>
      <trkpt lat="47.79656" lon="2.26158">
        <ele>114</ele>
        <time>2017-05-07T07:27:19.380Z</time>
      </trkpt>
      <trkpt lat="47.79656" lon="2.26158">
        <ele>114</ele>
        <time>2017-05-07T07:27:20.373Z</time>
      </trkpt>
      <trkpt lat="47.79655" lon="2.26164">
        <ele>114</ele>
        <time>2017-05-07T07:27:21.370Z</time>
      </trkpt>
      <trkpt lat="47.79654" lon="2.26167">
        <ele>114</ele>
        <time>2017-05-07T07:27:22.368Z</time>
      </trkpt>
      <trkpt lat="47.79653" lon="2.2617">
        <ele>113</ele>
        <time>2017-05-07T07:27:23.386Z</time>
      </trkpt>
      <trkpt lat="47.79653" lon="2.2617">
        <ele>113</ele>
        <time>2017-05-07T07:27:24.385Z</time>
      </trkpt>
      <trkpt lat="47.79651" lon="2.26177">
        <ele>113</ele>
        <time>2017-05-07T07:27:25.382Z</time>
      </trkpt>
      <trkpt lat="47.79651" lon="2.26177">
        <ele>113</ele>
        <time>2017-05-07T07:27:26.386Z</time>
      </trkpt>
      <trkpt lat="47.79649" lon="2.26183">
        <ele>113</ele>
        <time>2017-05-07T07:27:27.381Z</time>
      </trkpt>
      <trkpt lat="47.79648" lon="2.26187">
        <ele>112</ele>
        <time>2017-05-07T07:27:28.387Z</time>
      </trkpt>
      <trkpt lat="47.79646" lon="2.2619">
        <ele>112</ele>
        <time>2017-05-07T07:27:29.382Z</time>
      </trkpt>
      <trkpt lat="47.79646" lon="2.2619">
        <ele>112</ele>
        <time>2017-05-07T07:27:30.370Z</time>
      </trkpt>
      <trkpt lat="47.79643" lon="2.26197">
        <ele>111</ele>
        <time>2017-05-07T07:27:31.376Z</time>
      </trkpt>
      <trkpt lat="47.79643" lon="2.26197">
        <ele>111</ele>
        <time>2017-05-07T07:27:32.371Z</time>
      </trkpt>
      <trkpt lat="47.79641" lon="2.26202">
        <ele>111</ele>
        <time>2017-05-07T07:27:33.373Z</time>
      </trkpt>
      <trkpt lat="47.7964" lon="2.26205">
        <ele>111</ele>
        <time>2017-05-07T07:27:34.373Z</time>
      </trkpt>
      <trkpt lat="47.7964" lon="2.26205">
        <ele>111</ele>
        <time>2017-05-07T07:27:35.376Z</time>
      </trkpt>
      <trkpt lat="47.79639" lon="2.26212">
        <ele>112</ele>
        <time>2017-05-07T07:27:36.377Z</time>
      </trkpt>
      <trkpt lat="47.79639" lon="2.26212">
        <ele>112</ele>
        <time>2017-05-07T07:27:37.376Z</time>
      </trkpt>
      <trkpt lat="47.79636" lon="2.26218">
        <ele>111</ele>
        <time>2017-05-07T07:27:38.355Z</time>
      </trkpt>
      <trkpt lat="47.79636" lon="2.26218">
        <ele>111</ele>
        <time>2017-05-07T07:27:39.369Z</time>
      </trkpt>
      <trkpt lat="47.79635" lon="2.26224">
        <ele>111</ele>
        <time>2017-05-07T07:27:40.380Z</time>
      </trkpt>
      <trkpt lat="47.79635" lon="2.26224">
        <ele>111</ele>
        <time>2017-05-07T07:27:41.371Z</time>
      </trkpt>
      <trkpt lat="47.79632" lon="2.2623">
        <ele>111</ele>
        <time>2017-05-07T07:27:42.372Z</time>
      </trkpt>
      <trkpt lat="47.79632" lon="2.2623">
        <ele>111</ele>
        <time>2017-05-07T07:27:43.376Z</time>
      </trkpt>
      <trkpt lat="47.79629" lon="2.26235">
        <ele>110</ele>
        <time>2017-05-07T07:27:44.376Z</time>
      </trkpt>
      <trkpt lat="47.79629" lon="2.26235">
        <ele>110</ele>
        <time>2017-05-07T07:27:45.374Z</time>
      </trkpt>
      <trkpt lat="47.79625" lon="2.2624">
        <ele>111</ele>
        <time>2017-05-07T07:27:46.374Z</time>
      </trkpt>
      <trkpt lat="47.79625" lon="2.2624">
        <ele>111</ele>
        <time>2017-05-07T07:27:47.370Z</time>
      </trkpt>
      <trkpt lat="47.79623" lon="2.26246">
        <ele>111</ele>
        <time>2017-05-07T07:27:48.379Z</time>
      </trkpt>
      <trkpt lat="47.79622" lon="2.26249">
        <ele>111</ele>
        <time>2017-05-07T07:27:49.376Z</time>
      </trkpt>
      <trkpt lat="47.79622" lon="2.26249">
        <ele>111</ele>
        <time>2017-05-07T07:27:50.370Z</time>
      </trkpt>
      <trkpt lat="47.7962" lon="2.26255">
        <ele>111</ele>
        <time>2017-05-07T07:27:51.373Z</time>
      </trkpt>
      <trkpt lat="47.79619" lon="2.26258">
        <ele>111</ele>
        <time>2017-05-07T07:27:52.380Z</time>
      </trkpt>
      <trkpt lat="47.79619" lon="2.26258">
        <ele>111</ele>
        <time>2017-05-07T07:27:53.376Z</time>
      </trkpt>
      <trkpt lat="47.79617" lon="2.26265">
        <ele>110</ele>
        <time>2017-05-07T07:27:54.383Z</time>
      </trkpt>
      <trkpt lat="47.79617" lon="2.26265">
        <ele>110</ele>
        <time>2017-05-07T07:27:55.382Z</time>
      </trkpt>
      <trkpt lat="47.79614" lon="2.26271">
        <ele>109</ele>
        <time>2017-05-07T07:27:56.374Z</time>
      </trkpt>
      <trkpt lat="47.79614" lon="2.26271">
        <ele>109</ele>
        <time>2017-05-07T07:27:57.374Z</time>
      </trkpt>
      <trkpt lat="47.79612" lon="2.26277">
        <ele>109</ele>
        <time>2017-05-07T07:27:58.373Z</time>
      </trkpt>
      <trkpt lat="47.79612" lon="2.26277">
        <ele>109</ele>
        <time>2017-05-07T07:27:59.370Z</time>
      </trkpt>
      <trkpt lat="47.79609" lon="2.26284">
        <ele>109</ele>
        <time>2017-05-07T07:28:00.369Z</time>
      </trkpt>
      <trkpt lat="47.79608" lon="2.26287">
        <ele>108</ele>
        <time>2017-05-07T07:28:01.372Z</time>
      </trkpt>
      <trkpt lat="47.79608" lon="2.26287">
        <ele>108</ele>
        <time>2017-05-07T07:28:02.372Z</time>
      </trkpt>
      <trkpt lat="47.79605" lon="2.26294">
        <ele>109</ele>
        <time>2017-05-07T07:28:03.375Z</time>
      </trkpt>
      <trkpt lat="47.79604" lon="2.26298">
        <ele>109</ele>
        <time>2017-05-07T07:28:04.382Z</time>
      </trkpt>
      <trkpt lat="47.79604" lon="2.26298">
        <ele>109</ele>
        <time>2017-05-07T07:28:05.381Z</time>
      </trkpt>
      <trkpt lat="47.79601" lon="2.26305">
        <ele>109</ele>
        <time>2017-05-07T07:28:06.376Z</time>
      </trkpt>
      <trkpt lat="47.796" lon="2.26309">
        <ele>109</ele>
        <time>2017-05-07T07:28:07.378Z</time>
      </trkpt>
      <trkpt lat="47.796" lon="2.26309">
        <ele>109</ele>
        <time>2017-05-07T07:28:08.382Z</time>
      </trkpt>
      <trkpt lat="47.79598" lon="2.26317">
        <ele>109</ele>
        <time>2017-05-07T07:28:09.377Z</time>
      </trkpt>
      <trkpt lat="47.79597" lon="2.2632">
        <ele>109</ele>
        <time>2017-05-07T07:28:10.374Z</time>
      </trkpt>
      <trkpt lat="47.79597" lon="2.2632">
        <ele>109</ele>
        <time>2017-05-07T07:28:11.368Z</time>
      </trkpt>
      <trkpt lat="47.79596" lon="2.26327">
        <ele>109</ele>
        <time>2017-05-07T07:28:12.368Z</time>
      </trkpt>
      <trkpt lat="47.79595" lon="2.26331">
        <ele>109</ele>
        <time>2017-05-07T07:28:13.382Z</time>
      </trkpt>
      <trkpt lat="47.79595" lon="2.26331">
        <ele>109</ele>
        <time>2017-05-07T07:28:14.379Z</time>
      </trkpt>
      <trkpt lat="47.79593" lon="2.26337">
        <ele>109</ele>
        <time>2017-05-07T07:28:15.376Z</time>
      </trkpt>
      <trkpt lat="47.79591" lon="2.26339">
        <ele>109</ele>
        <time>2017-05-07T07:28:16.379Z</time>
      </trkpt>
      <trkpt lat="47.79591" lon="2.26339">
        <ele>109</ele>
        <time>2017-05-07T07:28:17.372Z</time>
      </trkpt>
      <trkpt lat="47.79589" lon="2.26346">
        <ele>109</ele>
        <time>2017-05-07T07:28:18.384Z</time>
      </trkpt>
      <trkpt lat="47.79588" lon="2.26349">
        <ele>109</ele>
        <time>2017-05-07T07:28:19.380Z</time>
      </trkpt>
      <trkpt lat="47.79588" lon="2.26349">
        <ele>109</ele>
        <time>2017-05-07T07:28:20.369Z</time>
      </trkpt>
      <trkpt lat="47.79585" lon="2.26352">
        <ele>110</ele>
        <time>2017-05-07T07:28:21.357Z</time>
      </trkpt>
      <trkpt lat="47.79585" lon="2.26352">
        <ele>110</ele>
        <time>2017-05-07T07:28:22.371Z</time>
      </trkpt>
      <trkpt lat="47.79581" lon="2.26356">
        <ele>110</ele>
        <time>2017-05-07T07:28:23.378Z</time>
      </trkpt>
      <trkpt lat="47.79578" lon="2.26358">
        <ele>110</ele>
        <time>2017-05-07T07:28:24.383Z</time>
      </trkpt>
      <trkpt lat="47.79577" lon="2.2636">
        <ele>110</ele>
        <time>2017-05-07T07:28:25.382Z</time>
      </trkpt>
      <trkpt lat="47.79577" lon="2.2636">
        <ele>110</ele>
        <time>2017-05-07T07:28:26.367Z</time>
      </trkpt>
      <trkpt lat="47.79573" lon="2.26364">
        <ele>111</ele>
        <time>2017-05-07T07:28:27.369Z</time>
      </trkpt>
      <trkpt lat="47.7957" lon="2.26365">
        <ele>111</ele>
        <time>2017-05-07T07:28:28.378Z</time>
      </trkpt>
      <trkpt lat="47.79569" lon="2.26368">
        <ele>111</ele>
        <time>2017-05-07T07:28:29.378Z</time>
      </trkpt>
      <trkpt lat="47.79569" lon="2.26368">
        <ele>111</ele>
        <time>2017-05-07T07:28:30.391Z</time>
      </trkpt>
      <trkpt lat="47.79567" lon="2.26375">
        <ele>111</ele>
        <time>2017-05-07T07:28:31.369Z</time>
      </trkpt>
      <trkpt lat="47.79567" lon="2.26378">
        <ele>112</ele>
        <time>2017-05-07T07:28:32.387Z</time>
      </trkpt>
      <trkpt lat="47.79567" lon="2.26381">
        <ele>112</ele>
        <time>2017-05-07T07:28:33.388Z</time>
      </trkpt>
      <trkpt lat="47.79566" lon="2.26384">
        <ele>113</ele>
        <time>2017-05-07T07:28:34.382Z</time>
      </trkpt>
      <trkpt lat="47.79566" lon="2.26384">
        <ele>113</ele>
        <time>2017-05-07T07:28:35.378Z</time>
      </trkpt>
      <trkpt lat="47.79565" lon="2.26389">
        <ele>113</ele>
        <time>2017-05-07T07:28:36.374Z</time>
      </trkpt>
      <trkpt lat="47.79564" lon="2.26392">
        <ele>113</ele>
        <time>2017-05-07T07:28:37.384Z</time>
      </trkpt>
      <trkpt lat="47.79563" lon="2.26395">
        <ele>114</ele>
        <time>2017-05-07T07:28:38.387Z</time>
      </trkpt>
      <trkpt lat="47.79563" lon="2.26395">
        <ele>114</ele>
        <time>2017-05-07T07:28:39.379Z</time>
      </trkpt>
      <trkpt lat="47.79561" lon="2.26401">
        <ele>114</ele>
        <time>2017-05-07T07:28:40.373Z</time>
      </trkpt>
      <trkpt lat="47.79561" lon="2.26401">
        <ele>114</ele>
        <time>2017-05-07T07:28:41.365Z</time>
      </trkpt>
      <trkpt lat="47.7956" lon="2.26409">
        <ele>115</ele>
        <time>2017-05-07T07:28:42.372Z</time>
      </trkpt>
      <trkpt lat="47.7956" lon="2.26412">
        <ele>116</ele>
        <time>2017-05-07T07:28:43.375Z</time>
      </trkpt>
      <trkpt lat="47.7956" lon="2.26412">
        <ele>116</ele>
        <time>2017-05-07T07:28:44.365Z</time>
      </trkpt>
      <trkpt lat="47.79558" lon="2.26418">
        <ele>116</ele>
        <time>2017-05-07T07:28:45.364Z</time>
      </trkpt>
      <trkpt lat="47.79556" lon="2.26423">
        <ele>116</ele>
        <time>2017-05-07T07:28:46.369Z</time>
      </trkpt>
      <trkpt lat="47.79556" lon="2.26423">
        <ele>116</ele>
        <time>2017-05-07T07:28:47.371Z</time>
      </trkpt>
      <trkpt lat="47.79556" lon="2.26429">
        <ele>116</ele>
        <time>2017-05-07T07:28:48.381Z</time>
      </trkpt>
      <trkpt lat="47.79555" lon="2.26433">
        <ele>116</ele>
        <time>2017-05-07T07:28:49.373Z</time>
      </trkpt>
      <trkpt lat="47.79555" lon="2.26433">
        <ele>116</ele>
        <time>2017-05-07T07:28:50.365Z</time>
      </trkpt>
      <trkpt lat="47.79555" lon="2.26441">
        <ele>117</ele>
        <time>2017-05-07T07:28:51.371Z</time>
      </trkpt>
      <trkpt lat="47.79555" lon="2.26441">
        <ele>117</ele>
        <time>2017-05-07T07:28:52.365Z</time>
      </trkpt>
      <trkpt lat="47.79554" lon="2.26449">
        <ele>117</ele>
        <time>2017-05-07T07:28:53.372Z</time>
      </trkpt>
      <trkpt lat="47.79554" lon="2.26449">
        <ele>117</ele>
        <time>2017-05-07T07:28:54.374Z</time>
      </trkpt>
      <trkpt lat="47.79552" lon="2.26457">
        <ele>118</ele>
        <time>2017-05-07T07:28:55.375Z</time>
      </trkpt>
      <trkpt lat="47.79552" lon="2.26457">
        <ele>118</ele>
        <time>2017-05-07T07:28:56.368Z</time>
      </trkpt>
      <trkpt lat="47.79551" lon="2.26465">
        <ele>118</ele>
        <time>2017-05-07T07:28:57.373Z</time>
      </trkpt>
      <trkpt lat="47.79551" lon="2.26465">
        <ele>118</ele>
        <time>2017-05-07T07:28:58.366Z</time>
      </trkpt>
      <trkpt lat="47.79549" lon="2.26472">
        <ele>119</ele>
        <time>2017-05-07T07:28:59.384Z</time>
      </trkpt>
      <trkpt lat="47.79549" lon="2.26472">
        <ele>119</ele>
        <time>2017-05-07T07:29:00.371Z</time>
      </trkpt>
      <trkpt lat="47.79548" lon="2.26481">
        <ele>119</ele>
        <time>2017-05-07T07:29:01.374Z</time>
      </trkpt>
      <trkpt lat="47.79548" lon="2.26481">
        <ele>119</ele>
        <time>2017-05-07T07:29:02.366Z</time>
      </trkpt>
      <trkpt lat="47.79547" lon="2.2649">
        <ele>118</ele>
        <time>2017-05-07T07:29:03.374Z</time>
      </trkpt>
      <trkpt lat="47.79547" lon="2.2649">
        <ele>118</ele>
        <time>2017-05-07T07:29:04.365Z</time>
      </trkpt>
      <trkpt lat="47.79547" lon="2.26498">
        <ele>117</ele>
        <time>2017-05-07T07:29:05.372Z</time>
      </trkpt>
      <trkpt lat="47.79547" lon="2.26498">
        <ele>117</ele>
        <time>2017-05-07T07:29:06.371Z</time>
      </trkpt>
      <trkpt lat="47.79547" lon="2.26506">
        <ele>116</ele>
        <time>2017-05-07T07:29:07.390Z</time>
      </trkpt>
      <trkpt lat="47.79547" lon="2.26506">
        <ele>116</ele>
        <time>2017-05-07T07:29:08.379Z</time>
      </trkpt>
      <trkpt lat="47.79546" lon="2.26514">
        <ele>117</ele>
        <time>2017-05-07T07:29:09.372Z</time>
      </trkpt>
      <trkpt lat="47.79546" lon="2.26514">
        <ele>117</ele>
        <time>2017-05-07T07:29:10.366Z</time>
      </trkpt>
      <trkpt lat="47.79545" lon="2.26523">
        <ele>117</ele>
        <time>2017-05-07T07:29:11.372Z</time>
      </trkpt>
      <trkpt lat="47.79545" lon="2.26527">
        <ele>117</ele>
        <time>2017-05-07T07:29:12.379Z</time>
      </trkpt>
      <trkpt lat="47.79545" lon="2.26527">
        <ele>117</ele>
        <time>2017-05-07T07:29:13.392Z</time>
      </trkpt>
      <trkpt lat="47.79543" lon="2.26535">
        <ele>117</ele>
        <time>2017-05-07T07:29:14.388Z</time>
      </trkpt>
      <trkpt lat="47.79543" lon="2.26535">
        <ele>117</ele>
        <time>2017-05-07T07:29:15.383Z</time>
      </trkpt>
      <trkpt lat="47.79542" lon="2.26542">
        <ele>117</ele>
        <time>2017-05-07T07:29:16.390Z</time>
      </trkpt>
      <trkpt lat="47.79542" lon="2.26542">
        <ele>117</ele>
        <time>2017-05-07T07:29:17.391Z</time>
      </trkpt>
      <trkpt lat="47.7954" lon="2.26552">
        <ele>117</ele>
        <time>2017-05-07T07:29:18.387Z</time>
      </trkpt>
      <trkpt lat="47.79539" lon="2.26556">
        <ele>117</ele>
        <time>2017-05-07T07:29:19.389Z</time>
      </trkpt>
      <trkpt lat="47.79539" lon="2.26556">
        <ele>117</ele>
        <time>2017-05-07T07:29:20.386Z</time>
      </trkpt>
      <trkpt lat="47.79538" lon="2.26564">
        <ele>116</ele>
        <time>2017-05-07T07:29:21.382Z</time>
      </trkpt>
      <trkpt lat="47.79538" lon="2.26564">
        <ele>116</ele>
        <time>2017-05-07T07:29:22.381Z</time>
      </trkpt>
      <trkpt lat="47.79536" lon="2.26572">
        <ele>115</ele>
        <time>2017-05-07T07:29:23.377Z</time>
      </trkpt>
      <trkpt lat="47.79536" lon="2.26575">
        <ele>115</ele>
        <time>2017-05-07T07:29:24.376Z</time>
      </trkpt>
      <trkpt lat="47.79536" lon="2.26575">
        <ele>115</ele>
        <time>2017-05-07T07:29:25.371Z</time>
      </trkpt>
      <trkpt lat="47.79535" lon="2.26582">
        <ele>115</ele>
        <time>2017-05-07T07:29:26.376Z</time>
      </trkpt>
      <trkpt lat="47.79535" lon="2.26582">
        <ele>115</ele>
        <time>2017-05-07T07:29:27.381Z</time>
      </trkpt>
      <trkpt lat="47.79535" lon="2.26589">
        <ele>114</ele>
        <time>2017-05-07T07:29:28.377Z</time>
      </trkpt>
      <trkpt lat="47.79535" lon="2.26589">
        <ele>114</ele>
        <time>2017-05-07T07:29:29.372Z</time>
      </trkpt>
      <trkpt lat="47.79535" lon="2.26596">
        <ele>113</ele>
        <time>2017-05-07T07:29:30.383Z</time>
      </trkpt>
      <trkpt lat="47.79535" lon="2.26596">
        <ele>113</ele>
        <time>2017-05-07T07:29:31.377Z</time>
      </trkpt>
      <trkpt lat="47.79535" lon="2.26604">
        <ele>114</ele>
        <time>2017-05-07T07:29:32.371Z</time>
      </trkpt>
      <trkpt lat="47.79534" lon="2.26608">
        <ele>113</ele>
        <time>2017-05-07T07:29:33.377Z</time>
      </trkpt>
      <trkpt lat="47.79534" lon="2.26608">
        <ele>113</ele>
        <time>2017-05-07T07:29:34.371Z</time>
      </trkpt>
      <trkpt lat="47.79533" lon="2.26616">
        <ele>113</ele>
        <time>2017-05-07T07:29:35.372Z</time>
      </trkpt>
      <trkpt lat="47.79533" lon="2.26616">
        <ele>113</ele>
        <time>2017-05-07T07:29:36.370Z</time>
      </trkpt>
      <trkpt lat="47.79533" lon="2.26624">
        <ele>113</ele>
        <time>2017-05-07T07:29:37.394Z</time>
      </trkpt>
      <trkpt lat="47.79533" lon="2.26624">
        <ele>113</ele>
        <time>2017-05-07T07:29:38.364Z</time>
      </trkpt>
      <trkpt lat="47.79533" lon="2.26633">
        <ele>114</ele>
        <time>2017-05-07T07:29:39.371Z</time>
      </trkpt>
      <trkpt lat="47.79533" lon="2.26633">
        <ele>114</ele>
        <time>2017-05-07T07:29:40.366Z</time>
      </trkpt>
      <trkpt lat="47.79533" lon="2.26641">
        <ele>114</ele>
        <time>2017-05-07T07:29:41.377Z</time>
      </trkpt>
      <trkpt lat="47.79533" lon="2.26641">
        <ele>114</ele>
        <time>2017-05-07T07:29:42.371Z</time>
      </trkpt>
      <trkpt lat="47.79533" lon="2.26649">
        <ele>115</ele>
        <time>2017-05-07T07:29:43.374Z</time>
      </trkpt>
      <trkpt lat="47.79533" lon="2.26649">
        <ele>115</ele>
        <time>2017-05-07T07:29:44.381Z</time>
      </trkpt>
      <trkpt lat="47.79532" lon="2.26659">
        <ele>115</ele>
        <time>2017-05-07T07:29:45.375Z</time>
      </trkpt>
      <trkpt lat="47.79532" lon="2.26664">
        <ele>115</ele>
        <time>2017-05-07T07:29:46.374Z</time>
      </trkpt>
      <trkpt lat="47.79532" lon="2.26664">
        <ele>115</ele>
        <time>2017-05-07T07:29:47.376Z</time>
      </trkpt>
      <trkpt lat="47.7953" lon="2.26674">
        <ele>115</ele>
        <time>2017-05-07T07:29:48.374Z</time>
      </trkpt>
      <trkpt lat="47.7953" lon="2.26674">
        <ele>115</ele>
        <time>2017-05-07T07:29:49.375Z</time>
      </trkpt>
      <trkpt lat="47.79529" lon="2.26684">
        <ele>116</ele>
        <time>2017-05-07T07:29:50.370Z</time>
      </trkpt>
      <trkpt lat="47.79528" lon="2.26688">
        <ele>116</ele>
        <time>2017-05-07T07:29:51.374Z</time>
      </trkpt>
      <trkpt lat="47.79528" lon="2.26688">
        <ele>116</ele>
        <time>2017-05-07T07:29:52.369Z</time>
      </trkpt>
      <trkpt lat="47.79527" lon="2.26697">
        <ele>116</ele>
        <time>2017-05-07T07:29:53.372Z</time>
      </trkpt>
      <trkpt lat="47.79527" lon="2.26697">
        <ele>116</ele>
        <time>2017-05-07T07:29:54.375Z</time>
      </trkpt>
      <trkpt lat="47.79526" lon="2.26707">
        <ele>116</ele>
        <time>2017-05-07T07:29:55.383Z</time>
      </trkpt>
      <trkpt lat="47.79526" lon="2.26707">
        <ele>116</ele>
        <time>2017-05-07T07:29:56.380Z</time>
      </trkpt>
      <trkpt lat="47.79527" lon="2.26717">
        <ele>117</ele>
        <time>2017-05-07T07:29:57.376Z</time>
      </trkpt>
      <trkpt lat="47.79527" lon="2.26717">
        <ele>117</ele>
        <time>2017-05-07T07:29:58.371Z</time>
      </trkpt>
      <trkpt lat="47.79526" lon="2.26728">
        <ele>117</ele>
        <time>2017-05-07T07:29:59.369Z</time>
      </trkpt>
      <trkpt lat="47.79526" lon="2.26728">
        <ele>117</ele>
        <time>2017-05-07T07:30:00.385Z</time>
      </trkpt>
      <trkpt lat="47.79526" lon="2.26738">
        <ele>117</ele>
        <time>2017-05-07T07:30:01.381Z</time>
      </trkpt>
      <trkpt lat="47.79526" lon="2.26738">
        <ele>117</ele>
        <time>2017-05-07T07:30:02.377Z</time>
      </trkpt>
      <trkpt lat="47.79525" lon="2.26747">
        <ele>117</ele>
        <time>2017-05-07T07:30:03.374Z</time>
      </trkpt>
      <trkpt lat="47.79525" lon="2.26747">
        <ele>117</ele>
        <time>2017-05-07T07:30:04.371Z</time>
      </trkpt>
      <trkpt lat="47.79525" lon="2.26756">
        <ele>117</ele>
        <time>2017-05-07T07:30:05.361Z</time>
      </trkpt>
      <trkpt lat="47.79525" lon="2.26756">
        <ele>117</ele>
        <time>2017-05-07T07:30:06.365Z</time>
      </trkpt>
      <trkpt lat="47.79524" lon="2.26765">
        <ele>117</ele>
        <time>2017-05-07T07:30:07.374Z</time>
      </trkpt>
      <trkpt lat="47.79524" lon="2.26765">
        <ele>117</ele>
        <time>2017-05-07T07:30:08.369Z</time>
      </trkpt>
      <trkpt lat="47.79524" lon="2.26772">
        <ele>117</ele>
        <time>2017-05-07T07:30:09.374Z</time>
      </trkpt>
      <trkpt lat="47.79524" lon="2.26772">
        <ele>117</ele>
        <time>2017-05-07T07:30:10.370Z</time>
      </trkpt>
      <trkpt lat="47.79524" lon="2.2678">
        <ele>117</ele>
        <time>2017-05-07T07:30:11.373Z</time>
      </trkpt>
      <trkpt lat="47.79524" lon="2.2678">
        <ele>117</ele>
        <time>2017-05-07T07:30:12.377Z</time>
      </trkpt>
      <trkpt lat="47.79524" lon="2.2679">
        <ele>118</ele>
        <time>2017-05-07T07:30:13.376Z</time>
      </trkpt>
      <trkpt lat="47.79524" lon="2.2679">
        <ele>118</ele>
        <time>2017-05-07T07:30:14.382Z</time>
      </trkpt>
      <trkpt lat="47.79523" lon="2.268">
        <ele>116</ele>
        <time>2017-05-07T07:30:15.389Z</time>
      </trkpt>
      <trkpt lat="47.79523" lon="2.268">
        <ele>116</ele>
        <time>2017-05-07T07:30:16.356Z</time>
      </trkpt>
      <trkpt lat="47.79522" lon="2.2681">
        <ele>116</ele>
        <time>2017-05-07T07:30:17.372Z</time>
      </trkpt>
      <trkpt lat="47.79522" lon="2.26814">
        <ele>115</ele>
        <time>2017-05-07T07:30:18.380Z</time>
      </trkpt>
      <trkpt lat="47.79522" lon="2.26814">
        <ele>115</ele>
        <time>2017-05-07T07:30:19.375Z</time>
      </trkpt>
      <trkpt lat="47.79521" lon="2.26825">
        <ele>115</ele>
        <time>2017-05-07T07:30:20.371Z</time>
      </trkpt>
      <trkpt lat="47.79521" lon="2.26825">
        <ele>115</ele>
        <time>2017-05-07T07:30:21.364Z</time>
      </trkpt>
      <trkpt lat="47.7952" lon="2.26833">
        <ele>114</ele>
        <time>2017-05-07T07:30:22.380Z</time>
      </trkpt>
      <trkpt lat="47.7952" lon="2.26833">
        <ele>114</ele>
        <time>2017-05-07T07:30:23.377Z</time>
      </trkpt>
      <trkpt lat="47.79521" lon="2.26842">
        <ele>115</ele>
        <time>2017-05-07T07:30:24.375Z</time>
      </trkpt>
      <trkpt lat="47.79521" lon="2.26842">
        <ele>115</ele>
        <time>2017-05-07T07:30:25.371Z</time>
      </trkpt>
      <trkpt lat="47.7952" lon="2.26852">
        <ele>114</ele>
        <time>2017-05-07T07:30:26.379Z</time>
      </trkpt>
      <trkpt lat="47.7952" lon="2.26852">
        <ele>114</ele>
        <time>2017-05-07T07:30:27.355Z</time>
      </trkpt>
      <trkpt lat="47.7952" lon="2.26861">
        <ele>114</ele>
        <time>2017-05-07T07:30:28.362Z</time>
      </trkpt>
      <trkpt lat="47.7952" lon="2.26861">
        <ele>114</ele>
        <time>2017-05-07T07:30:29.368Z</time>
      </trkpt>
      <trkpt lat="47.79519" lon="2.2687">
        <ele>114</ele>
        <time>2017-05-07T07:30:30.377Z</time>
      </trkpt>
      <trkpt lat="47.79519" lon="2.2687">
        <ele>114</ele>
        <time>2017-05-07T07:30:31.374Z</time>
      </trkpt>
      <trkpt lat="47.79517" lon="2.26879">
        <ele>113</ele>
        <time>2017-05-07T07:30:32.378Z</time>
      </trkpt>
      <trkpt lat="47.79517" lon="2.26879">
        <ele>113</ele>
        <time>2017-05-07T07:30:33.374Z</time>
      </trkpt>
      <trkpt lat="47.79516" lon="2.26889">
        <ele>113</ele>
        <time>2017-05-07T07:30:34.374Z</time>
      </trkpt>
      <trkpt lat="47.79516" lon="2.26889">
        <ele>113</ele>
        <time>2017-05-07T07:30:35.369Z</time>
      </trkpt>
      <trkpt lat="47.79514" lon="2.26897">
        <ele>113</ele>
        <time>2017-05-07T07:30:36.368Z</time>
      </trkpt>
      <trkpt lat="47.79513" lon="2.26901">
        <ele>113</ele>
        <time>2017-05-07T07:30:37.378Z</time>
      </trkpt>
      <trkpt lat="47.79513" lon="2.26901">
        <ele>113</ele>
        <time>2017-05-07T07:30:38.374Z</time>
      </trkpt>
      <trkpt lat="47.79512" lon="2.26909">
        <ele>112</ele>
        <time>2017-05-07T07:30:39.382Z</time>
      </trkpt>
      <trkpt lat="47.79512" lon="2.26909">
        <ele>112</ele>
        <time>2017-05-07T07:30:40.377Z</time>
      </trkpt>
      <trkpt lat="47.79511" lon="2.26917">
        <ele>112</ele>
        <time>2017-05-07T07:30:41.388Z</time>
      </trkpt>
      <trkpt lat="47.79511" lon="2.26917">
        <ele>112</ele>
        <time>2017-05-07T07:30:42.381Z</time>
      </trkpt>
      <trkpt lat="47.7951" lon="2.26924">
        <ele>112</ele>
        <time>2017-05-07T07:30:43.379Z</time>
      </trkpt>
      <trkpt lat="47.7951" lon="2.26924">
        <ele>112</ele>
        <time>2017-05-07T07:30:44.363Z</time>
      </trkpt>
      <trkpt lat="47.7951" lon="2.2693">
        <ele>112</ele>
        <time>2017-05-07T07:30:45.374Z</time>
      </trkpt>
      <trkpt lat="47.7951" lon="2.2693">
        <ele>112</ele>
        <time>2017-05-07T07:30:46.371Z</time>
      </trkpt>
      <trkpt lat="47.7951" lon="2.26937">
        <ele>112</ele>
        <time>2017-05-07T07:30:47.375Z</time>
      </trkpt>
      <trkpt lat="47.7951" lon="2.26937">
        <ele>112</ele>
        <time>2017-05-07T07:30:48.374Z</time>
      </trkpt>
      <trkpt lat="47.79509" lon="2.26944">
        <ele>112</ele>
        <time>2017-05-07T07:30:49.381Z</time>
      </trkpt>
      <trkpt lat="47.79509" lon="2.26944">
        <ele>112</ele>
        <time>2017-05-07T07:30:50.378Z</time>
      </trkpt>
      <trkpt lat="47.79509" lon="2.26951">
        <ele>112</ele>
        <time>2017-05-07T07:30:51.378Z</time>
      </trkpt>
      <trkpt lat="47.79509" lon="2.26951">
        <ele>112</ele>
        <time>2017-05-07T07:30:52.389Z</time>
      </trkpt>
      <trkpt lat="47.79508" lon="2.26958">
        <ele>112</ele>
        <time>2017-05-07T07:30:53.355Z</time>
      </trkpt>
      <trkpt lat="47.79508" lon="2.26961">
        <ele>113</ele>
        <time>2017-05-07T07:30:54.355Z</time>
      </trkpt>
      <trkpt lat="47.79508" lon="2.26964">
        <ele>113</ele>
        <time>2017-05-07T07:30:55.381Z</time>
      </trkpt>
      <trkpt lat="47.79508" lon="2.26964">
        <ele>113</ele>
        <time>2017-05-07T07:30:56.369Z</time>
      </trkpt>
      <trkpt lat="47.79508" lon="2.26971">
        <ele>112</ele>
        <time>2017-05-07T07:30:57.370Z</time>
      </trkpt>
      <trkpt lat="47.79507" lon="2.26975">
        <ele>112</ele>
        <time>2017-05-07T07:30:58.360Z</time>
      </trkpt>
      <trkpt lat="47.79507" lon="2.26975">
        <ele>112</ele>
        <time>2017-05-07T07:30:59.388Z</time>
      </trkpt>
      <trkpt lat="47.79507" lon="2.26982">
        <ele>112</ele>
        <time>2017-05-07T07:31:00.378Z</time>
      </trkpt>
      <trkpt lat="47.79507" lon="2.26982">
        <ele>112</ele>
        <time>2017-05-07T07:31:01.375Z</time>
      </trkpt>
      <trkpt lat="47.79507" lon="2.26989">
        <ele>112</ele>
        <time>2017-05-07T07:31:02.374Z</time>
      </trkpt>
      <trkpt lat="47.79507" lon="2.26989">
        <ele>112</ele>
        <time>2017-05-07T07:31:03.375Z</time>
      </trkpt>
      <trkpt lat="47.79507" lon="2.26994">
        <ele>112</ele>
        <time>2017-05-07T07:31:04.371Z</time>
      </trkpt>
      <trkpt lat="47.79507" lon="2.26995">
        <ele>112</ele>
        <time>2017-05-07T07:31:05.375Z</time>
      </trkpt>
      <trkpt lat="47.79507" lon="2.26995">
        <ele>112</ele>
        <time>2017-05-07T07:31:06.371Z</time>
      </trkpt>
      <trkpt lat="47.79507" lon="2.26995">
        <ele>112</ele>
        <time>2017-05-07T07:31:07.384Z</time>
      </trkpt>
      <trkpt lat="47.79509" lon="2.27003">
        <ele>112</ele>
        <time>2017-05-07T07:31:08.388Z</time>
      </trkpt>
      <trkpt lat="47.79508" lon="2.27005">
        <ele>112</ele>
        <time>2017-05-07T07:31:09.387Z</time>
      </trkpt>
      <trkpt lat="47.79508" lon="2.27005">
        <ele>112</ele>
        <time>2017-05-07T07:31:10.387Z</time>
      </trkpt>
      <trkpt lat="47.79507" lon="2.27011">
        <ele>112</ele>
        <time>2017-05-07T07:31:11.388Z</time>
      </trkpt>
      <trkpt lat="47.79507" lon="2.27011">
        <ele>112</ele>
        <time>2017-05-07T07:31:12.387Z</time>
      </trkpt>
      <trkpt lat="47.79506" lon="2.27018">
        <ele>113</ele>
        <time>2017-05-07T07:31:13.387Z</time>
      </trkpt>
      <trkpt lat="47.79506" lon="2.2702">
        <ele>113</ele>
        <time>2017-05-07T07:31:14.387Z</time>
      </trkpt>
      <trkpt lat="47.79506" lon="2.2702">
        <ele>113</ele>
        <time>2017-05-07T07:31:15.387Z</time>
      </trkpt>
      <trkpt lat="47.79506" lon="2.27026">
        <ele>113</ele>
        <time>2017-05-07T07:31:16.386Z</time>
      </trkpt>
      <trkpt lat="47.79506" lon="2.27026">
        <ele>113</ele>
        <time>2017-05-07T07:31:17.384Z</time>
      </trkpt>
      <trkpt lat="47.79506" lon="2.27033">
        <ele>113</ele>
        <time>2017-05-07T07:31:18.390Z</time>
      </trkpt>
      <trkpt lat="47.79506" lon="2.27033">
        <ele>113</ele>
        <time>2017-05-07T07:31:19.386Z</time>
      </trkpt>
      <trkpt lat="47.79504" lon="2.27038">
        <ele>113</ele>
        <time>2017-05-07T07:31:20.374Z</time>
      </trkpt>
      <trkpt lat="47.79504" lon="2.27038">
        <ele>113</ele>
        <time>2017-05-07T07:31:21.379Z</time>
      </trkpt>
      <trkpt lat="47.79503" lon="2.27044">
        <ele>113</ele>
        <time>2017-05-07T07:31:22.388Z</time>
      </trkpt>
      <trkpt lat="47.79503" lon="2.27044">
        <ele>113</ele>
        <time>2017-05-07T07:31:23.384Z</time>
      </trkpt>
      <trkpt lat="47.79503" lon="2.2705">
        <ele>112</ele>
        <time>2017-05-07T07:31:24.385Z</time>
      </trkpt>
      <trkpt lat="47.79503" lon="2.2705">
        <ele>112</ele>
        <time>2017-05-07T07:31:25.385Z</time>
      </trkpt>
      <trkpt lat="47.79503" lon="2.27057">
        <ele>112</ele>
        <time>2017-05-07T07:31:26.387Z</time>
      </trkpt>
      <trkpt lat="47.79503" lon="2.27057">
        <ele>112</ele>
        <time>2017-05-07T07:31:27.380Z</time>
      </trkpt>
      <trkpt lat="47.79502" lon="2.27065">
        <ele>112</ele>
        <time>2017-05-07T07:31:28.386Z</time>
      </trkpt>
      <trkpt lat="47.79502" lon="2.27065">
        <ele>112</ele>
        <time>2017-05-07T07:31:29.392Z</time>
      </trkpt>
      <trkpt lat="47.795" lon="2.27071">
        <ele>112</ele>
        <time>2017-05-07T07:31:30.361Z</time>
      </trkpt>
      <trkpt lat="47.795" lon="2.27071">
        <ele>112</ele>
        <time>2017-05-07T07:31:31.390Z</time>
      </trkpt>
      <trkpt lat="47.79498" lon="2.27078">
        <ele>113</ele>
        <time>2017-05-07T07:31:32.383Z</time>
      </trkpt>
      <trkpt lat="47.79497" lon="2.27082">
        <ele>113</ele>
        <time>2017-05-07T07:31:33.387Z</time>
      </trkpt>
      <trkpt lat="47.79495" lon="2.27086">
        <ele>114</ele>
        <time>2017-05-07T07:31:34.386Z</time>
      </trkpt>
      <trkpt lat="47.79495" lon="2.27086">
        <ele>114</ele>
        <time>2017-05-07T07:31:35.377Z</time>
      </trkpt>
      <trkpt lat="47.79494" lon="2.27094">
        <ele>115</ele>
        <time>2017-05-07T07:31:36.383Z</time>
      </trkpt>
      <trkpt lat="47.79494" lon="2.27094">
        <ele>115</ele>
        <time>2017-05-07T07:31:37.380Z</time>
      </trkpt>
      <trkpt lat="47.79493" lon="2.27102">
        <ele>115</ele>
        <time>2017-05-07T07:31:38.356Z</time>
      </trkpt>
      <trkpt lat="47.79493" lon="2.27102">
        <ele>115</ele>
        <time>2017-05-07T07:31:39.384Z</time>
      </trkpt>
      <trkpt lat="47.79492" lon="2.27113">
        <ele>115</ele>
        <time>2017-05-07T07:31:40.373Z</time>
      </trkpt>
      <trkpt lat="47.79491" lon="2.27118">
        <ele>115</ele>
        <time>2017-05-07T07:31:41.380Z</time>
      </trkpt>
      <trkpt lat="47.79491" lon="2.27118">
        <ele>115</ele>
        <time>2017-05-07T07:31:42.387Z</time>
      </trkpt>
      <trkpt lat="47.7949" lon="2.27127">
        <ele>115</ele>
        <time>2017-05-07T07:31:43.369Z</time>
      </trkpt>
      <trkpt lat="47.7949" lon="2.2713">
        <ele>115</ele>
        <time>2017-05-07T07:31:44.391Z</time>
      </trkpt>
      <trkpt lat="47.7949" lon="2.2713">
        <ele>115</ele>
        <time>2017-05-07T07:31:45.387Z</time>
      </trkpt>
      <trkpt lat="47.79488" lon="2.27138">
        <ele>115</ele>
        <time>2017-05-07T07:31:46.358Z</time>
      </trkpt>
      <trkpt lat="47.79487" lon="2.27142">
        <ele>116</ele>
        <time>2017-05-07T07:31:47.355Z</time>
      </trkpt>
      <trkpt lat="47.79487" lon="2.27142">
        <ele>116</ele>
        <time>2017-05-07T07:31:48.361Z</time>
      </trkpt>
      <trkpt lat="47.79485" lon="2.27149">
        <ele>115</ele>
        <time>2017-05-07T07:31:49.356Z</time>
      </trkpt>
      <trkpt lat="47.79484" lon="2.27152">
        <ele>115</ele>
        <time>2017-05-07T07:31:50.355Z</time>
      </trkpt>
      <trkpt lat="47.79484" lon="2.27152">
        <ele>115</ele>
        <time>2017-05-07T07:31:51.355Z</time>
      </trkpt>
      <trkpt lat="47.79481" lon="2.27159">
        <ele>115</ele>
        <time>2017-05-07T07:31:52.394Z</time>
      </trkpt>
      <trkpt lat="47.7948" lon="2.27163">
        <ele>115</ele>
        <time>2017-05-07T07:31:53.392Z</time>
      </trkpt>
      <trkpt lat="47.7948" lon="2.27163">
        <ele>115</ele>
        <time>2017-05-07T07:31:54.388Z</time>
      </trkpt>
      <trkpt lat="47.79478" lon="2.27169">
        <ele>115</ele>
        <time>2017-05-07T07:31:55.393Z</time>
      </trkpt>
      <trkpt lat="47.79478" lon="2.27169">
        <ele>115</ele>
        <time>2017-05-07T07:31:56.385Z</time>
      </trkpt>
      <trkpt lat="47.79476" lon="2.27176">
        <ele>114</ele>
        <time>2017-05-07T07:31:57.389Z</time>
      </trkpt>
      <trkpt lat="47.79476" lon="2.27179">
        <ele>114</ele>
        <time>2017-05-07T07:31:58.388Z</time>
      </trkpt>
      <trkpt lat="47.79476" lon="2.27179">
        <ele>114</ele>
        <time>2017-05-07T07:31:59.384Z</time>
      </trkpt>
      <trkpt lat="47.79473" lon="2.27186">
        <ele>114</ele>
        <time>2017-05-07T07:32:00.388Z</time>
      </trkpt>
      <trkpt lat="47.79473" lon="2.27189">
        <ele>114</ele>
        <time>2017-05-07T07:32:01.389Z</time>
      </trkpt>
      <trkpt lat="47.79472" lon="2.27193">
        <ele>114</ele>
        <time>2017-05-07T07:32:02.392Z</time>
      </trkpt>
      <trkpt lat="47.79472" lon="2.27193">
        <ele>114</ele>
        <time>2017-05-07T07:32:03.388Z</time>
      </trkpt>
      <trkpt lat="47.7947" lon="2.272">
        <ele>114</ele>
        <time>2017-05-07T07:32:04.393Z</time>
      </trkpt>
      <trkpt lat="47.7947" lon="2.272">
        <ele>114</ele>
        <time>2017-05-07T07:32:05.393Z</time>
      </trkpt>
      <trkpt lat="47.79467" lon="2.27206">
        <ele>114</ele>
        <time>2017-05-07T07:32:06.358Z</time>
      </trkpt>
      <trkpt lat="47.79467" lon="2.27206">
        <ele>114</ele>
        <time>2017-05-07T07:32:07.357Z</time>
      </trkpt>
      <trkpt lat="47.79466" lon="2.27213">
        <ele>114</ele>
        <time>2017-05-07T07:32:08.393Z</time>
      </trkpt>
      <trkpt lat="47.79466" lon="2.27213">
        <ele>114</ele>
        <time>2017-05-07T07:32:09.394Z</time>
      </trkpt>
      <trkpt lat="47.79464" lon="2.27221">
        <ele>114</ele>
        <time>2017-05-07T07:32:10.390Z</time>
      </trkpt>
      <trkpt lat="47.79464" lon="2.27221">
        <ele>114</ele>
        <time>2017-05-07T07:32:11.392Z</time>
      </trkpt>
      <trkpt lat="47.79463" lon="2.27228">
        <ele>113</ele>
        <time>2017-05-07T07:32:12.391Z</time>
      </trkpt>
      <trkpt lat="47.79463" lon="2.27228">
        <ele>113</ele>
        <time>2017-05-07T07:32:13.389Z</time>
      </trkpt>
      <trkpt lat="47.79461" lon="2.27237">
        <ele>113</ele>
        <time>2017-05-07T07:32:14.389Z</time>
      </trkpt>
      <trkpt lat="47.79461" lon="2.27237">
        <ele>113</ele>
        <time>2017-05-07T07:32:15.387Z</time>
      </trkpt>
      <trkpt lat="47.79458" lon="2.27244">
        <ele>113</ele>
        <time>2017-05-07T07:32:16.393Z</time>
      </trkpt>
      <trkpt lat="47.79456" lon="2.27248">
        <ele>113</ele>
        <time>2017-05-07T07:32:17.363Z</time>
      </trkpt>
      <trkpt lat="47.79456" lon="2.27248">
        <ele>113</ele>
        <time>2017-05-07T07:32:18.359Z</time>
      </trkpt>
      <trkpt lat="47.79455" lon="2.27255">
        <ele>113</ele>
        <time>2017-05-07T07:32:19.390Z</time>
      </trkpt>
      <trkpt lat="47.79454" lon="2.27258">
        <ele>113</ele>
        <time>2017-05-07T07:32:20.392Z</time>
      </trkpt>
      <trkpt lat="47.79454" lon="2.27258">
        <ele>113</ele>
        <time>2017-05-07T07:32:21.393Z</time>
      </trkpt>
      <trkpt lat="47.79453" lon="2.27265">
        <ele>113</ele>
        <time>2017-05-07T07:32:22.364Z</time>
      </trkpt>
      <trkpt lat="47.79453" lon="2.27269">
        <ele>114</ele>
        <time>2017-05-07T07:32:23.393Z</time>
      </trkpt>
      <trkpt lat="47.79453" lon="2.27269">
        <ele>114</ele>
        <time>2017-05-07T07:32:24.357Z</time>
      </trkpt>
      <trkpt lat="47.79451" lon="2.27274">
        <ele>114</ele>
        <time>2017-05-07T07:32:25.357Z</time>
      </trkpt>
      <trkpt lat="47.79451" lon="2.27274">
        <ele>114</ele>
        <time>2017-05-07T07:32:26.394Z</time>
      </trkpt>
      <trkpt lat="47.7945" lon="2.27281">
        <ele>114</ele>
        <time>2017-05-07T07:32:27.394Z</time>
      </trkpt>
      <trkpt lat="47.79449" lon="2.27285">
        <ele>114</ele>
        <time>2017-05-07T07:32:28.392Z</time>
      </trkpt>
      <trkpt lat="47.79449" lon="2.27285">
        <ele>114</ele>
        <time>2017-05-07T07:32:29.387Z</time>
      </trkpt>
      <trkpt lat="47.79448" lon="2.27291">
        <ele>114</ele>
        <time>2017-05-07T07:32:30.374Z</time>
      </trkpt>
      <trkpt lat="47.79447" lon="2.27294">
        <ele>114</ele>
        <time>2017-05-07T07:32:31.392Z</time>
      </trkpt>
      <trkpt lat="47.79447" lon="2.27296">
        <ele>114</ele>
        <time>2017-05-07T07:32:32.391Z</time>
      </trkpt>
      <trkpt lat="47.79447" lon="2.27296">
        <ele>114</ele>
        <time>2017-05-07T07:32:33.369Z</time>
      </trkpt>
      <trkpt lat="47.79445" lon="2.27302">
        <ele>114</ele>
        <time>2017-05-07T07:32:34.363Z</time>
      </trkpt>
      <trkpt lat="47.79444" lon="2.27306">
        <ele>114</ele>
        <time>2017-05-07T07:32:35.371Z</time>
      </trkpt>
      <trkpt lat="47.79444" lon="2.27306">
        <ele>114</ele>
        <time>2017-05-07T07:32:36.378Z</time>
      </trkpt>
      <trkpt lat="47.79442" lon="2.27312">
        <ele>113</ele>
        <time>2017-05-07T07:32:37.392Z</time>
      </trkpt>
      <trkpt lat="47.79441" lon="2.27315">
        <ele>113</ele>
        <time>2017-05-07T07:32:38.388Z</time>
      </trkpt>
      <trkpt lat="47.79441" lon="2.27318">
        <ele>113</ele>
        <time>2017-05-07T07:32:39.393Z</time>
      </trkpt>
      <trkpt lat="47.79441" lon="2.27318">
        <ele>113</ele>
        <time>2017-05-07T07:32:40.390Z</time>
      </trkpt>
      <trkpt lat="47.79438" lon="2.27324">
        <ele>113</ele>
        <time>2017-05-07T07:32:41.389Z</time>
      </trkpt>
      <trkpt lat="47.79436" lon="2.27328">
        <ele>112</ele>
        <time>2017-05-07T07:32:42.372Z</time>
      </trkpt>
      <trkpt lat="47.79436" lon="2.27328">
        <ele>112</ele>
        <time>2017-05-07T07:32:43.378Z</time>
      </trkpt>
      <trkpt lat="47.79433" lon="2.27335">
        <ele>112</ele>
        <time>2017-05-07T07:32:44.391Z</time>
      </trkpt>
      <trkpt lat="47.79433" lon="2.27335">
        <ele>112</ele>
        <time>2017-05-07T07:32:45.361Z</time>
      </trkpt>
      <trkpt lat="47.79432" lon="2.27342">
        <ele>112</ele>
        <time>2017-05-07T07:32:46.377Z</time>
      </trkpt>
      <trkpt lat="47.79432" lon="2.27342">
        <ele>112</ele>
        <time>2017-05-07T07:32:47.373Z</time>
      </trkpt>
      <trkpt lat="47.7943" lon="2.27348">
        <ele>111</ele>
        <time>2017-05-07T07:32:48.369Z</time>
      </trkpt>
      <trkpt lat="47.79429" lon="2.27352">
        <ele>111</ele>
        <time>2017-05-07T07:32:49.391Z</time>
      </trkpt>
      <trkpt lat="47.79429" lon="2.27355">
        <ele>112</ele>
        <time>2017-05-07T07:32:50.369Z</time>
      </trkpt>
      <trkpt lat="47.79429" lon="2.27355">
        <ele>112</ele>
        <time>2017-05-07T07:32:51.382Z</time>
      </trkpt>
      <trkpt lat="47.79427" lon="2.27361">
        <ele>111</ele>
        <time>2017-05-07T07:32:52.382Z</time>
      </trkpt>
      <trkpt lat="47.79427" lon="2.27361">
        <ele>111</ele>
        <time>2017-05-07T07:32:53.379Z</time>
      </trkpt>
      <trkpt lat="47.79425" lon="2.27367">
        <ele>111</ele>
        <time>2017-05-07T07:32:54.391Z</time>
      </trkpt>
      <trkpt lat="47.79425" lon="2.27367">
        <ele>111</ele>
        <time>2017-05-07T07:32:55.388Z</time>
      </trkpt>
      <trkpt lat="47.79424" lon="2.27374">
        <ele>112</ele>
        <time>2017-05-07T07:32:56.356Z</time>
      </trkpt>
      <trkpt lat="47.79424" lon="2.27374">
        <ele>112</ele>
        <time>2017-05-07T07:32:57.391Z</time>
      </trkpt>
      <trkpt lat="47.79423" lon="2.2738">
        <ele>113</ele>
        <time>2017-05-07T07:32:58.361Z</time>
      </trkpt>
      <trkpt lat="47.79422" lon="2.27383">
        <ele>113</ele>
        <time>2017-05-07T07:32:59.361Z</time>
      </trkpt>
      <trkpt lat="47.79422" lon="2.27383">
        <ele>113</ele>
        <time>2017-05-07T07:33:00.368Z</time>
      </trkpt>
      <trkpt lat="47.79421" lon="2.27388">
        <ele>113</ele>
        <time>2017-05-07T07:33:01.385Z</time>
      </trkpt>
      <trkpt lat="47.79421" lon="2.27388">
        <ele>113</ele>
        <time>2017-05-07T07:33:02.385Z</time>
      </trkpt>
      <trkpt lat="47.79419" lon="2.27395">
        <ele>113</ele>
        <time>2017-05-07T07:33:03.377Z</time>
      </trkpt>
      <trkpt lat="47.79419" lon="2.27395">
        <ele>113</ele>
        <time>2017-05-07T07:33:04.385Z</time>
      </trkpt>
      <trkpt lat="47.79417" lon="2.27402">
        <ele>113</ele>
        <time>2017-05-07T07:33:05.393Z</time>
      </trkpt>
      <trkpt lat="47.79415" lon="2.27405">
        <ele>113</ele>
        <time>2017-05-07T07:33:06.361Z</time>
      </trkpt>
      <trkpt lat="47.79415" lon="2.27405">
        <ele>113</ele>
        <time>2017-05-07T07:33:07.360Z</time>
      </trkpt>
      <trkpt lat="47.79414" lon="2.27412">
        <ele>113</ele>
        <time>2017-05-07T07:33:08.356Z</time>
      </trkpt>
      <trkpt lat="47.79414" lon="2.27412">
        <ele>113</ele>
        <time>2017-05-07T07:33:09.392Z</time>
      </trkpt>
      <trkpt lat="47.79413" lon="2.27418">
        <ele>113</ele>
        <time>2017-05-07T07:33:10.394Z</time>
      </trkpt>
      <trkpt lat="47.79413" lon="2.27418">
        <ele>113</ele>
        <time>2017-05-07T07:33:11.372Z</time>
      </trkpt>
      <trkpt lat="47.79412" lon="2.27425">
        <ele>114</ele>
        <time>2017-05-07T07:33:12.393Z</time>
      </trkpt>
      <trkpt lat="47.79412" lon="2.27425">
        <ele>114</ele>
        <time>2017-05-07T07:33:13.390Z</time>
      </trkpt>
      <trkpt lat="47.79411" lon="2.27432">
        <ele>114</ele>
        <time>2017-05-07T07:33:14.387Z</time>
      </trkpt>
      <trkpt lat="47.79411" lon="2.27432">
        <ele>114</ele>
        <time>2017-05-07T07:33:15.383Z</time>
      </trkpt>
      <trkpt lat="47.7941" lon="2.27439">
        <ele>113</ele>
        <time>2017-05-07T07:33:16.390Z</time>
      </trkpt>
      <trkpt lat="47.7941" lon="2.27439">
        <ele>113</ele>
        <time>2017-05-07T07:33:17.359Z</time>
      </trkpt>
      <trkpt lat="47.7941" lon="2.27446">
        <ele>114</ele>
        <time>2017-05-07T07:33:18.393Z</time>
      </trkpt>
      <trkpt lat="47.7941" lon="2.27446">
        <ele>114</ele>
        <time>2017-05-07T07:33:19.390Z</time>
      </trkpt>
      <trkpt lat="47.7941" lon="2.27453">
        <ele>114</ele>
        <time>2017-05-07T07:33:20.390Z</time>
      </trkpt>
      <trkpt lat="47.7941" lon="2.27453">
        <ele>114</ele>
        <time>2017-05-07T07:33:21.387Z</time>
      </trkpt>
      <trkpt lat="47.79409" lon="2.27459">
        <ele>114</ele>
        <time>2017-05-07T07:33:22.361Z</time>
      </trkpt>
      <trkpt lat="47.79409" lon="2.27459">
        <ele>114</ele>
        <time>2017-05-07T07:33:23.357Z</time>
      </trkpt>
      <trkpt lat="47.79407" lon="2.27465">
        <ele>114</ele>
        <time>2017-05-07T07:33:24.357Z</time>
      </trkpt>
      <trkpt lat="47.79406" lon="2.27467">
        <ele>114</ele>
        <time>2017-05-07T07:33:25.390Z</time>
      </trkpt>
      <trkpt lat="47.79406" lon="2.27467">
        <ele>114</ele>
        <time>2017-05-07T07:33:26.390Z</time>
      </trkpt>
      <trkpt lat="47.79407" lon="2.27469">
        <ele>113</ele>
        <time>2017-05-07T07:33:27.388Z</time>
      </trkpt>
      <trkpt lat="47.79407" lon="2.27469">
        <ele>113</ele>
        <time>2017-05-07T07:33:28.383Z</time>
      </trkpt>
      <trkpt lat="47.79407" lon="2.27469">
        <ele>113</ele>
        <time>2017-05-07T07:33:29.380Z</time>
      </trkpt>
      <trkpt lat="47.79407" lon="2.27469">
        <ele>113</ele>
        <time>2017-05-07T07:33:30.385Z</time>
      </trkpt>
      <trkpt lat="47.79407" lon="2.27469">
        <ele>113</ele>
        <time>2017-05-07T07:33:31.380Z</time>
      </trkpt>
      <trkpt lat="47.79416" lon="2.27473">
        <ele>113</ele>
        <time>2017-05-07T07:33:32.380Z</time>
      </trkpt>
      <trkpt lat="47.79416" lon="2.27473">
        <ele>113</ele>
        <time>2017-05-07T07:33:33.372Z</time>
      </trkpt>
      <trkpt lat="47.79421" lon="2.27474">
        <ele>113</ele>
        <time>2017-05-07T07:33:34.378Z</time>
      </trkpt>
      <trkpt lat="47.79421" lon="2.27474">
        <ele>113</ele>
        <time>2017-05-07T07:33:35.370Z</time>
      </trkpt>
      <trkpt lat="47.79427" lon="2.27474">
        <ele>112</ele>
        <time>2017-05-07T07:33:36.377Z</time>
      </trkpt>
      <trkpt lat="47.79427" lon="2.27474">
        <ele>112</ele>
        <time>2017-05-07T07:33:37.388Z</time>
      </trkpt>
      <trkpt lat="47.79433" lon="2.27475">
        <ele>112</ele>
        <time>2017-05-07T07:33:38.381Z</time>
      </trkpt>
      <trkpt lat="47.79433" lon="2.27475">
        <ele>112</ele>
        <time>2017-05-07T07:33:39.372Z</time>
      </trkpt>
      <trkpt lat="47.79439" lon="2.27476">
        <ele>112</ele>
        <time>2017-05-07T07:33:40.374Z</time>
      </trkpt>
      <trkpt lat="47.79439" lon="2.27476">
        <ele>112</ele>
        <time>2017-05-07T07:33:41.372Z</time>
      </trkpt>
      <trkpt lat="47.79446" lon="2.27477">
        <ele>112</ele>
        <time>2017-05-07T07:33:42.393Z</time>
      </trkpt>
      <trkpt lat="47.79446" lon="2.27477">
        <ele>112</ele>
        <time>2017-05-07T07:33:43.385Z</time>
      </trkpt>
      <trkpt lat="47.79452" lon="2.27478">
        <ele>112</ele>
        <time>2017-05-07T07:33:44.379Z</time>
      </trkpt>
      <trkpt lat="47.79452" lon="2.27478">
        <ele>112</ele>
        <time>2017-05-07T07:33:45.372Z</time>
      </trkpt>
      <trkpt lat="47.79459" lon="2.27479">
        <ele>112</ele>
        <time>2017-05-07T07:33:46.377Z</time>
      </trkpt>
      <trkpt lat="47.79459" lon="2.27479">
        <ele>112</ele>
        <time>2017-05-07T07:33:47.371Z</time>
      </trkpt>
      <trkpt lat="47.79465" lon="2.2748">
        <ele>112</ele>
        <time>2017-05-07T07:33:48.375Z</time>
      </trkpt>
      <trkpt lat="47.79465" lon="2.2748">
        <ele>112</ele>
        <time>2017-05-07T07:33:49.373Z</time>
      </trkpt>
      <trkpt lat="47.79473" lon="2.2748">
        <ele>112</ele>
        <time>2017-05-07T07:33:50.379Z</time>
      </trkpt>
      <trkpt lat="47.79473" lon="2.2748">
        <ele>112</ele>
        <time>2017-05-07T07:33:51.372Z</time>
      </trkpt>
      <trkpt lat="47.79481" lon="2.27481">
        <ele>112</ele>
        <time>2017-05-07T07:33:52.379Z</time>
      </trkpt>
      <trkpt lat="47.79481" lon="2.27481">
        <ele>112</ele>
        <time>2017-05-07T07:33:53.372Z</time>
      </trkpt>
      <trkpt lat="47.7949" lon="2.27483">
        <ele>112</ele>
        <time>2017-05-07T07:33:54.377Z</time>
      </trkpt>
      <trkpt lat="47.79494" lon="2.27484">
        <ele>112</ele>
        <time>2017-05-07T07:33:55.378Z</time>
      </trkpt>
      <trkpt lat="47.79494" lon="2.27484">
        <ele>112</ele>
        <time>2017-05-07T07:33:56.375Z</time>
      </trkpt>
      <trkpt lat="47.79503" lon="2.27485">
        <ele>112</ele>
        <time>2017-05-07T07:33:57.376Z</time>
      </trkpt>
      <trkpt lat="47.79507" lon="2.27485">
        <ele>112</ele>
        <time>2017-05-07T07:33:58.377Z</time>
      </trkpt>
      <trkpt lat="47.79507" lon="2.27485">
        <ele>112</ele>
        <time>2017-05-07T07:33:59.375Z</time>
      </trkpt>
      <trkpt lat="47.79517" lon="2.27484">
        <ele>113</ele>
        <time>2017-05-07T07:34:00.375Z</time>
      </trkpt>
      <trkpt lat="47.79517" lon="2.27484">
        <ele>113</ele>
        <time>2017-05-07T07:34:01.372Z</time>
      </trkpt>
      <trkpt lat="47.79526" lon="2.27484">
        <ele>114</ele>
        <time>2017-05-07T07:34:02.380Z</time>
      </trkpt>
      <trkpt lat="47.79526" lon="2.27484">
        <ele>114</ele>
        <time>2017-05-07T07:34:03.372Z</time>
      </trkpt>
      <trkpt lat="47.79536" lon="2.27482">
        <ele>114</ele>
        <time>2017-05-07T07:34:04.377Z</time>
      </trkpt>
      <trkpt lat="47.79536" lon="2.27482">
        <ele>114</ele>
        <time>2017-05-07T07:34:05.372Z</time>
      </trkpt>
      <trkpt lat="47.79546" lon="2.27479">
        <ele>113</ele>
        <time>2017-05-07T07:34:06.375Z</time>
      </trkpt>
      <trkpt lat="47.79546" lon="2.27479">
        <ele>113</ele>
        <time>2017-05-07T07:34:07.372Z</time>
      </trkpt>
      <trkpt lat="47.79555" lon="2.27477">
        <ele>114</ele>
        <time>2017-05-07T07:34:08.377Z</time>
      </trkpt>
      <trkpt lat="47.7956" lon="2.27476">
        <ele>114</ele>
        <time>2017-05-07T07:34:09.375Z</time>
      </trkpt>
      <trkpt lat="47.7956" lon="2.27476">
        <ele>114</ele>
        <time>2017-05-07T07:34:10.372Z</time>
      </trkpt>
      <trkpt lat="47.7957" lon="2.27476">
        <ele>113</ele>
        <time>2017-05-07T07:34:11.375Z</time>
      </trkpt>
      <trkpt lat="47.7957" lon="2.27476">
        <ele>113</ele>
        <time>2017-05-07T07:34:12.377Z</time>
      </trkpt>
      <trkpt lat="47.7958" lon="2.27478">
        <ele>113</ele>
        <time>2017-05-07T07:34:13.377Z</time>
      </trkpt>
      <trkpt lat="47.79586" lon="2.2748">
        <ele>113</ele>
        <time>2017-05-07T07:34:14.379Z</time>
      </trkpt>
      <trkpt lat="47.79586" lon="2.2748">
        <ele>113</ele>
        <time>2017-05-07T07:34:15.371Z</time>
      </trkpt>
      <trkpt lat="47.79596" lon="2.27484">
        <ele>114</ele>
        <time>2017-05-07T07:34:16.375Z</time>
      </trkpt>
      <trkpt lat="47.79596" lon="2.27484">
        <ele>114</ele>
        <time>2017-05-07T07:34:17.373Z</time>
      </trkpt>
      <trkpt lat="47.79606" lon="2.27489">
        <ele>114</ele>
        <time>2017-05-07T07:34:18.375Z</time>
      </trkpt>
      <trkpt lat="47.79611" lon="2.27492">
        <ele>114</ele>
        <time>2017-05-07T07:34:19.388Z</time>
      </trkpt>
      <trkpt lat="47.79616" lon="2.27495">
        <ele>114</ele>
        <time>2017-05-07T07:34:20.391Z</time>
      </trkpt>
      <trkpt lat="47.79616" lon="2.27495">
        <ele>114</ele>
        <time>2017-05-07T07:34:21.390Z</time>
      </trkpt>
      <trkpt lat="47.79624" lon="2.275">
        <ele>114</ele>
        <time>2017-05-07T07:34:22.394Z</time>
      </trkpt>
      <trkpt lat="47.79624" lon="2.275">
        <ele>114</ele>
        <time>2017-05-07T07:34:23.384Z</time>
      </trkpt>
      <trkpt lat="47.79632" lon="2.27505">
        <ele>114</ele>
        <time>2017-05-07T07:34:24.380Z</time>
      </trkpt>
      <trkpt lat="47.79632" lon="2.27505">
        <ele>114</ele>
        <time>2017-05-07T07:34:25.370Z</time>
      </trkpt>
      <trkpt lat="47.79638" lon="2.27512">
        <ele>114</ele>
        <time>2017-05-07T07:34:26.376Z</time>
      </trkpt>
      <trkpt lat="47.79639" lon="2.27518">
        <ele>114</ele>
        <time>2017-05-07T07:34:27.374Z</time>
      </trkpt>
      <trkpt lat="47.79639" lon="2.27518">
        <ele>114</ele>
        <time>2017-05-07T07:34:28.373Z</time>
      </trkpt>
      <trkpt lat="47.79638" lon="2.27531">
        <ele>114</ele>
        <time>2017-05-07T07:34:29.377Z</time>
      </trkpt>
      <trkpt lat="47.79638" lon="2.27531">
        <ele>114</ele>
        <time>2017-05-07T07:34:30.372Z</time>
      </trkpt>
      <trkpt lat="47.79634" lon="2.27546">
        <ele>114</ele>
        <time>2017-05-07T07:34:31.375Z</time>
      </trkpt>
      <trkpt lat="47.79633" lon="2.27554">
        <ele>114</ele>
        <time>2017-05-07T07:34:32.382Z</time>
      </trkpt>
      <trkpt lat="47.79631" lon="2.27562">
        <ele>114</ele>
        <time>2017-05-07T07:34:33.375Z</time>
      </trkpt>
      <trkpt lat="47.79631" lon="2.27562">
        <ele>114</ele>
        <time>2017-05-07T07:34:34.376Z</time>
      </trkpt>
      <trkpt lat="47.79628" lon="2.27578">
        <ele>114</ele>
        <time>2017-05-07T07:34:35.384Z</time>
      </trkpt>
      <trkpt lat="47.79627" lon="2.27586">
        <ele>114</ele>
        <time>2017-05-07T07:34:36.377Z</time>
      </trkpt>
      <trkpt lat="47.79625" lon="2.27593">
        <ele>114</ele>
        <time>2017-05-07T07:34:37.377Z</time>
      </trkpt>
      <trkpt lat="47.79624" lon="2.27601">
        <ele>114</ele>
        <time>2017-05-07T07:34:38.377Z</time>
      </trkpt>
      <trkpt lat="47.79624" lon="2.27601">
        <ele>114</ele>
        <time>2017-05-07T07:34:39.369Z</time>
      </trkpt>
      <trkpt lat="47.79622" lon="2.27615">
        <ele>114</ele>
        <time>2017-05-07T07:34:40.379Z</time>
      </trkpt>
      <trkpt lat="47.79622" lon="2.27615">
        <ele>114</ele>
        <time>2017-05-07T07:34:41.373Z</time>
      </trkpt>
      <trkpt lat="47.79619" lon="2.27629">
        <ele>114</ele>
        <time>2017-05-07T07:34:42.376Z</time>
      </trkpt>
      <trkpt lat="47.79619" lon="2.27629">
        <ele>114</ele>
        <time>2017-05-07T07:34:43.380Z</time>
      </trkpt>
      <trkpt lat="47.79616" lon="2.27646">
        <ele>114</ele>
        <time>2017-05-07T07:34:44.380Z</time>
      </trkpt>
      <trkpt lat="47.79614" lon="2.27654">
        <ele>114</ele>
        <time>2017-05-07T07:34:45.379Z</time>
      </trkpt>
      <trkpt lat="47.79613" lon="2.27663">
        <ele>114</ele>
        <time>2017-05-07T07:34:46.381Z</time>
      </trkpt>
      <trkpt lat="47.79613" lon="2.27663">
        <ele>114</ele>
        <time>2017-05-07T07:34:47.374Z</time>
      </trkpt>
      <trkpt lat="47.79609" lon="2.27681">
        <ele>114</ele>
        <time>2017-05-07T07:34:48.381Z</time>
      </trkpt>
      <trkpt lat="47.79608" lon="2.2769">
        <ele>114</ele>
        <time>2017-05-07T07:34:49.380Z</time>
      </trkpt>
      <trkpt lat="47.79606" lon="2.27699">
        <ele>114</ele>
        <time>2017-05-07T07:34:50.385Z</time>
      </trkpt>
      <trkpt lat="47.79606" lon="2.27699">
        <ele>114</ele>
        <time>2017-05-07T07:34:51.377Z</time>
      </trkpt>
      <trkpt lat="47.79603" lon="2.27718">
        <ele>114</ele>
        <time>2017-05-07T07:34:52.379Z</time>
      </trkpt>
      <trkpt lat="47.79601" lon="2.27727">
        <ele>114</ele>
        <time>2017-05-07T07:34:53.376Z</time>
      </trkpt>
      <trkpt lat="47.79601" lon="2.27727">
        <ele>114</ele>
        <time>2017-05-07T07:34:54.375Z</time>
      </trkpt>
      <trkpt lat="47.79597" lon="2.27747">
        <ele>114</ele>
        <time>2017-05-07T07:34:55.394Z</time>
      </trkpt>
      <trkpt lat="47.79595" lon="2.27756">
        <ele>114</ele>
        <time>2017-05-07T07:34:56.382Z</time>
      </trkpt>
      <trkpt lat="47.79595" lon="2.27756">
        <ele>114</ele>
        <time>2017-05-07T07:34:57.376Z</time>
      </trkpt>
      <trkpt lat="47.79592" lon="2.27775">
        <ele>114</ele>
        <time>2017-05-07T07:34:58.385Z</time>
      </trkpt>
      <trkpt lat="47.79592" lon="2.27775">
        <ele>114</ele>
        <time>2017-05-07T07:34:59.377Z</time>
      </trkpt>
      <trkpt lat="47.79588" lon="2.27793">
        <ele>114</ele>
        <time>2017-05-07T07:35:00.358Z</time>
      </trkpt>
      <trkpt lat="47.79588" lon="2.27793">
        <ele>114</ele>
        <time>2017-05-07T07:35:01.387Z</time>
      </trkpt>
      <trkpt lat="47.79584" lon="2.2781">
        <ele>114</ele>
        <time>2017-05-07T07:35:02.393Z</time>
      </trkpt>
      <trkpt lat="47.79584" lon="2.2781">
        <ele>114</ele>
        <time>2017-05-07T07:35:03.361Z</time>
      </trkpt>
      <trkpt lat="47.7958" lon="2.27827">
        <ele>113</ele>
        <time>2017-05-07T07:35:04.381Z</time>
      </trkpt>
      <trkpt lat="47.7958" lon="2.27827">
        <ele>113</ele>
        <time>2017-05-07T07:35:05.382Z</time>
      </trkpt>
      <trkpt lat="47.79577" lon="2.27844">
        <ele>113</ele>
        <time>2017-05-07T07:35:06.387Z</time>
      </trkpt>
      <trkpt lat="47.79577" lon="2.27844">
        <ele>113</ele>
        <time>2017-05-07T07:35:07.388Z</time>
      </trkpt>
      <trkpt lat="47.79574" lon="2.27859">
        <ele>113</ele>
        <time>2017-05-07T07:35:08.391Z</time>
      </trkpt>
      <trkpt lat="47.79574" lon="2.27859">
        <ele>113</ele>
        <time>2017-05-07T07:35:09.358Z</time>
      </trkpt>
      <trkpt lat="47.79571" lon="2.27874">
        <ele>113</ele>
        <time>2017-05-07T07:35:10.368Z</time>
      </trkpt>
      <trkpt lat="47.7957" lon="2.27882">
        <ele>113</ele>
        <time>2017-05-07T07:35:11.380Z</time>
      </trkpt>
      <trkpt lat="47.79568" lon="2.27891">
        <ele>113</ele>
        <time>2017-05-07T07:35:12.361Z</time>
      </trkpt>
      <trkpt lat="47.79568" lon="2.27891">
        <ele>113</ele>
        <time>2017-05-07T07:35:13.371Z</time>
      </trkpt>
      <trkpt lat="47.79565" lon="2.27908">
        <ele>113</ele>
        <time>2017-05-07T07:35:14.388Z</time>
      </trkpt>
      <trkpt lat="47.79564" lon="2.27916">
        <ele>113</ele>
        <time>2017-05-07T07:35:15.372Z</time>
      </trkpt>
      <trkpt lat="47.79564" lon="2.27916">
        <ele>113</ele>
        <time>2017-05-07T07:35:16.385Z</time>
      </trkpt>
      <trkpt lat="47.79561" lon="2.27932">
        <ele>114</ele>
        <time>2017-05-07T07:35:17.391Z</time>
      </trkpt>
      <trkpt lat="47.79561" lon="2.27932">
        <ele>114</ele>
        <time>2017-05-07T07:35:18.357Z</time>
      </trkpt>
      <trkpt lat="47.79559" lon="2.27947">
        <ele>114</ele>
        <time>2017-05-07T07:35:19.387Z</time>
      </trkpt>
      <trkpt lat="47.79557" lon="2.27954">
        <ele>114</ele>
        <time>2017-05-07T07:35:20.391Z</time>
      </trkpt>
      <trkpt lat="47.79557" lon="2.27954">
        <ele>114</ele>
        <time>2017-05-07T07:35:21.380Z</time>
      </trkpt>
      <trkpt lat="47.79555" lon="2.27968">
        <ele>114</ele>
        <time>2017-05-07T07:35:22.360Z</time>
      </trkpt>
      <trkpt lat="47.79555" lon="2.27968">
        <ele>114</ele>
        <time>2017-05-07T07:35:23.389Z</time>
      </trkpt>
      <trkpt lat="47.79552" lon="2.27982">
        <ele>114</ele>
        <time>2017-05-07T07:35:24.356Z</time>
      </trkpt>
      <trkpt lat="47.7955" lon="2.27989">
        <ele>114</ele>
        <time>2017-05-07T07:35:25.365Z</time>
      </trkpt>
      <trkpt lat="47.79549" lon="2.27997">
        <ele>114</ele>
        <time>2017-05-07T07:35:26.378Z</time>
      </trkpt>
      <trkpt lat="47.79549" lon="2.27997">
        <ele>114</ele>
        <time>2017-05-07T07:35:27.375Z</time>
      </trkpt>
      <trkpt lat="47.79546" lon="2.28011">
        <ele>114</ele>
        <time>2017-05-07T07:35:28.384Z</time>
      </trkpt>
      <trkpt lat="47.79546" lon="2.28011">
        <ele>114</ele>
        <time>2017-05-07T07:35:29.379Z</time>
      </trkpt>
      <trkpt lat="47.79543" lon="2.28026">
        <ele>114</ele>
        <time>2017-05-07T07:35:30.390Z</time>
      </trkpt>
      <trkpt lat="47.79543" lon="2.28026">
        <ele>114</ele>
        <time>2017-05-07T07:35:31.357Z</time>
      </trkpt>
      <trkpt lat="47.7954" lon="2.2804">
        <ele>114</ele>
        <time>2017-05-07T07:35:32.367Z</time>
      </trkpt>
      <trkpt lat="47.7954" lon="2.2804">
        <ele>114</ele>
        <time>2017-05-07T07:35:33.375Z</time>
      </trkpt>
      <trkpt lat="47.79534" lon="2.28052">
        <ele>114</ele>
        <time>2017-05-07T07:35:34.381Z</time>
      </trkpt>
      <trkpt lat="47.79534" lon="2.28052">
        <ele>114</ele>
        <time>2017-05-07T07:35:35.370Z</time>
      </trkpt>
      <trkpt lat="47.79528" lon="2.28065">
        <ele>114</ele>
        <time>2017-05-07T07:35:36.378Z</time>
      </trkpt>
      <trkpt lat="47.79528" lon="2.28065">
        <ele>114</ele>
        <time>2017-05-07T07:35:37.375Z</time>
      </trkpt>
      <trkpt lat="47.7952" lon="2.28076">
        <ele>113</ele>
        <time>2017-05-07T07:35:38.376Z</time>
      </trkpt>
      <trkpt lat="47.79516" lon="2.28082">
        <ele>113</ele>
        <time>2017-05-07T07:35:39.392Z</time>
      </trkpt>
      <trkpt lat="47.79516" lon="2.28082">
        <ele>113</ele>
        <time>2017-05-07T07:35:40.381Z</time>
      </trkpt>
      <trkpt lat="47.79507" lon="2.28093">
        <ele>113</ele>
        <time>2017-05-07T07:35:41.376Z</time>
      </trkpt>
      <trkpt lat="47.79507" lon="2.28093">
        <ele>113</ele>
        <time>2017-05-07T07:35:42.377Z</time>
      </trkpt>
      <trkpt lat="47.79499" lon="2.28103">
        <ele>113</ele>
        <time>2017-05-07T07:35:43.378Z</time>
      </trkpt>
      <trkpt lat="47.79495" lon="2.28109">
        <ele>113</ele>
        <time>2017-05-07T07:35:44.378Z</time>
      </trkpt>
      <trkpt lat="47.79495" lon="2.28109">
        <ele>113</ele>
        <time>2017-05-07T07:35:45.377Z</time>
      </trkpt>
      <trkpt lat="47.79488" lon="2.28119">
        <ele>113</ele>
        <time>2017-05-07T07:35:46.378Z</time>
      </trkpt>
      <trkpt lat="47.79488" lon="2.28119">
        <ele>113</ele>
        <time>2017-05-07T07:35:47.373Z</time>
      </trkpt>
      <trkpt lat="47.79481" lon="2.28129">
        <ele>113</ele>
        <time>2017-05-07T07:35:48.375Z</time>
      </trkpt>
      <trkpt lat="47.79477" lon="2.28133">
        <ele>113</ele>
        <time>2017-05-07T07:35:49.378Z</time>
      </trkpt>
      <trkpt lat="47.79477" lon="2.28133">
        <ele>113</ele>
        <time>2017-05-07T07:35:50.375Z</time>
      </trkpt>
      <trkpt lat="47.79469" lon="2.28143">
        <ele>113</ele>
        <time>2017-05-07T07:35:51.378Z</time>
      </trkpt>
      <trkpt lat="47.79469" lon="2.28143">
        <ele>113</ele>
        <time>2017-05-07T07:35:52.377Z</time>
      </trkpt>
      <trkpt lat="47.79461" lon="2.28153">
        <ele>113</ele>
        <time>2017-05-07T07:35:53.362Z</time>
      </trkpt>
      <trkpt lat="47.79461" lon="2.28153">
        <ele>113</ele>
        <time>2017-05-07T07:35:54.391Z</time>
      </trkpt>
      <trkpt lat="47.79452" lon="2.28163">
        <ele>113</ele>
        <time>2017-05-07T07:35:55.380Z</time>
      </trkpt>
      <trkpt lat="47.79452" lon="2.28163">
        <ele>113</ele>
        <time>2017-05-07T07:35:56.380Z</time>
      </trkpt>
      <trkpt lat="47.79443" lon="2.28173">
        <ele>114</ele>
        <time>2017-05-07T07:35:57.379Z</time>
      </trkpt>
      <trkpt lat="47.79443" lon="2.28173">
        <ele>114</ele>
        <time>2017-05-07T07:35:58.376Z</time>
      </trkpt>
      <trkpt lat="47.79435" lon="2.28182">
        <ele>114</ele>
        <time>2017-05-07T07:35:59.379Z</time>
      </trkpt>
      <trkpt lat="47.79435" lon="2.28182">
        <ele>114</ele>
        <time>2017-05-07T07:36:00.387Z</time>
      </trkpt>
      <trkpt lat="47.79427" lon="2.28191">
        <ele>114</ele>
        <time>2017-05-07T07:36:01.379Z</time>
      </trkpt>
      <trkpt lat="47.79427" lon="2.28191">
        <ele>114</ele>
        <time>2017-05-07T07:36:02.379Z</time>
      </trkpt>
      <trkpt lat="47.79419" lon="2.282">
        <ele>114</ele>
        <time>2017-05-07T07:36:03.376Z</time>
      </trkpt>
      <trkpt lat="47.79419" lon="2.282">
        <ele>114</ele>
        <time>2017-05-07T07:36:04.374Z</time>
      </trkpt>
      <trkpt lat="47.79411" lon="2.28209">
        <ele>114</ele>
        <time>2017-05-07T07:36:05.378Z</time>
      </trkpt>
      <trkpt lat="47.79411" lon="2.28209">
        <ele>114</ele>
        <time>2017-05-07T07:36:06.370Z</time>
      </trkpt>
      <trkpt lat="47.79403" lon="2.28218">
        <ele>115</ele>
        <time>2017-05-07T07:36:07.378Z</time>
      </trkpt>
      <trkpt lat="47.79403" lon="2.28218">
        <ele>115</ele>
        <time>2017-05-07T07:36:08.376Z</time>
      </trkpt>
      <trkpt lat="47.79395" lon="2.28228">
        <ele>115</ele>
        <time>2017-05-07T07:36:09.379Z</time>
      </trkpt>
      <trkpt lat="47.79395" lon="2.28228">
        <ele>115</ele>
        <time>2017-05-07T07:36:10.377Z</time>
      </trkpt>
      <trkpt lat="47.79387" lon="2.28237">
        <ele>115</ele>
        <time>2017-05-07T07:36:11.380Z</time>
      </trkpt>
      <trkpt lat="47.79383" lon="2.28241">
        <ele>115</ele>
        <time>2017-05-07T07:36:12.377Z</time>
      </trkpt>
      <trkpt lat="47.79383" lon="2.28241">
        <ele>115</ele>
        <time>2017-05-07T07:36:13.377Z</time>
      </trkpt>
      <trkpt lat="47.79375" lon="2.28251">
        <ele>115</ele>
        <time>2017-05-07T07:36:14.377Z</time>
      </trkpt>
      <trkpt lat="47.79375" lon="2.28251">
        <ele>115</ele>
        <time>2017-05-07T07:36:15.376Z</time>
      </trkpt>
      <trkpt lat="47.79366" lon="2.28261">
        <ele>114</ele>
        <time>2017-05-07T07:36:16.370Z</time>
      </trkpt>
      <trkpt lat="47.79363" lon="2.28265">
        <ele>114</ele>
        <time>2017-05-07T07:36:17.378Z</time>
      </trkpt>
      <trkpt lat="47.79359" lon="2.2827">
        <ele>113</ele>
        <time>2017-05-07T07:36:18.378Z</time>
      </trkpt>
      <trkpt lat="47.79359" lon="2.2827">
        <ele>113</ele>
        <time>2017-05-07T07:36:19.390Z</time>
      </trkpt>
      <trkpt lat="47.79352" lon="2.2828">
        <ele>113</ele>
        <time>2017-05-07T07:36:20.390Z</time>
      </trkpt>
      <trkpt lat="47.79352" lon="2.2828">
        <ele>113</ele>
        <time>2017-05-07T07:36:21.379Z</time>
      </trkpt>
      <trkpt lat="47.79348" lon="2.28292">
        <ele>114</ele>
        <time>2017-05-07T07:36:22.377Z</time>
      </trkpt>
      <trkpt lat="47.79348" lon="2.28292">
        <ele>114</ele>
        <time>2017-05-07T07:36:23.374Z</time>
      </trkpt>
      <trkpt lat="47.79344" lon="2.28305">
        <ele>114</ele>
        <time>2017-05-07T07:36:24.387Z</time>
      </trkpt>
      <trkpt lat="47.79344" lon="2.28305">
        <ele>114</ele>
        <time>2017-05-07T07:36:25.389Z</time>
      </trkpt>
      <trkpt lat="47.79341" lon="2.2832">
        <ele>114</ele>
        <time>2017-05-07T07:36:26.391Z</time>
      </trkpt>
      <trkpt lat="47.79341" lon="2.2832">
        <ele>114</ele>
        <time>2017-05-07T07:36:27.382Z</time>
      </trkpt>
      <trkpt lat="47.79336" lon="2.28337">
        <ele>114</ele>
        <time>2017-05-07T07:36:28.379Z</time>
      </trkpt>
      <trkpt lat="47.79333" lon="2.28345">
        <ele>114</ele>
        <time>2017-05-07T07:36:29.378Z</time>
      </trkpt>
      <trkpt lat="47.79333" lon="2.28345">
        <ele>114</ele>
        <time>2017-05-07T07:36:30.376Z</time>
      </trkpt>
      <trkpt lat="47.79324" lon="2.28357">
        <ele>114</ele>
        <time>2017-05-07T07:36:31.378Z</time>
      </trkpt>
      <trkpt lat="47.79324" lon="2.28357">
        <ele>114</ele>
        <time>2017-05-07T07:36:32.378Z</time>
      </trkpt>
      <trkpt lat="47.79313" lon="2.28362">
        <ele>114</ele>
        <time>2017-05-07T07:36:33.379Z</time>
      </trkpt>
      <trkpt lat="47.79313" lon="2.28362">
        <ele>114</ele>
        <time>2017-05-07T07:36:34.373Z</time>
      </trkpt>
      <trkpt lat="47.79301" lon="2.28365">
        <ele>113</ele>
        <time>2017-05-07T07:36:35.355Z</time>
      </trkpt>
      <trkpt lat="47.79301" lon="2.28365">
        <ele>113</ele>
        <time>2017-05-07T07:36:36.391Z</time>
      </trkpt>
      <trkpt lat="47.7929" lon="2.28369">
        <ele>113</ele>
        <time>2017-05-07T07:36:37.380Z</time>
      </trkpt>
      <trkpt lat="47.7929" lon="2.28369">
        <ele>113</ele>
        <time>2017-05-07T07:36:38.372Z</time>
      </trkpt>
      <trkpt lat="47.7928" lon="2.28372">
        <ele>113</ele>
        <time>2017-05-07T07:36:39.378Z</time>
      </trkpt>
      <trkpt lat="47.79275" lon="2.28375">
        <ele>113</ele>
        <time>2017-05-07T07:36:40.376Z</time>
      </trkpt>
      <trkpt lat="47.79275" lon="2.28375">
        <ele>113</ele>
        <time>2017-05-07T07:36:41.373Z</time>
      </trkpt>
      <trkpt lat="47.79264" lon="2.2838">
        <ele>113</ele>
        <time>2017-05-07T07:36:42.379Z</time>
      </trkpt>
      <trkpt lat="47.79264" lon="2.2838">
        <ele>113</ele>
        <time>2017-05-07T07:36:43.377Z</time>
      </trkpt>
      <trkpt lat="47.79254" lon="2.28386">
        <ele>113</ele>
        <time>2017-05-07T07:36:44.379Z</time>
      </trkpt>
      <trkpt lat="47.79248" lon="2.2839">
        <ele>113</ele>
        <time>2017-05-07T07:36:45.375Z</time>
      </trkpt>
      <trkpt lat="47.79242" lon="2.28394">
        <ele>113</ele>
        <time>2017-05-07T07:36:46.378Z</time>
      </trkpt>
      <trkpt lat="47.79242" lon="2.28394">
        <ele>113</ele>
        <time>2017-05-07T07:36:47.377Z</time>
      </trkpt>
      <trkpt lat="47.7923" lon="2.28403">
        <ele>113</ele>
        <time>2017-05-07T07:36:48.379Z</time>
      </trkpt>
      <trkpt lat="47.7923" lon="2.28403">
        <ele>113</ele>
        <time>2017-05-07T07:36:49.376Z</time>
      </trkpt>
      <trkpt lat="47.79219" lon="2.2841">
        <ele>113</ele>
        <time>2017-05-07T07:36:50.380Z</time>
      </trkpt>
      <trkpt lat="47.79219" lon="2.2841">
        <ele>113</ele>
        <time>2017-05-07T07:36:51.385Z</time>
      </trkpt>
      <trkpt lat="47.79209" lon="2.28414">
        <ele>113</ele>
        <time>2017-05-07T07:36:52.379Z</time>
      </trkpt>
      <trkpt lat="47.79203" lon="2.28417">
        <ele>113</ele>
        <time>2017-05-07T07:36:53.378Z</time>
      </trkpt>
      <trkpt lat="47.79203" lon="2.28417">
        <ele>113</ele>
        <time>2017-05-07T07:36:54.373Z</time>
      </trkpt>
      <trkpt lat="47.79193" lon="2.2842">
        <ele>114</ele>
        <time>2017-05-07T07:36:55.378Z</time>
      </trkpt>
      <trkpt lat="47.79193" lon="2.2842">
        <ele>114</ele>
        <time>2017-05-07T07:36:56.392Z</time>
      </trkpt>
      <trkpt lat="47.79182" lon="2.28423">
        <ele>114</ele>
        <time>2017-05-07T07:36:57.375Z</time>
      </trkpt>
      <trkpt lat="47.79182" lon="2.28423">
        <ele>114</ele>
        <time>2017-05-07T07:36:58.373Z</time>
      </trkpt>
      <trkpt lat="47.79172" lon="2.28426">
        <ele>114</ele>
        <time>2017-05-07T07:36:59.379Z</time>
      </trkpt>
      <trkpt lat="47.79172" lon="2.28426">
        <ele>114</ele>
        <time>2017-05-07T07:37:00.379Z</time>
      </trkpt>
      <trkpt lat="47.79161" lon="2.28428">
        <ele>113</ele>
        <time>2017-05-07T07:37:01.379Z</time>
      </trkpt>
      <trkpt lat="47.79161" lon="2.28428">
        <ele>113</ele>
        <time>2017-05-07T07:37:02.378Z</time>
      </trkpt>
      <trkpt lat="47.79149" lon="2.2843">
        <ele>113</ele>
        <time>2017-05-07T07:37:03.362Z</time>
      </trkpt>
      <trkpt lat="47.79149" lon="2.2843">
        <ele>113</ele>
        <time>2017-05-07T07:37:04.391Z</time>
      </trkpt>
      <trkpt lat="47.79138" lon="2.28433">
        <ele>113</ele>
        <time>2017-05-07T07:37:05.381Z</time>
      </trkpt>
      <trkpt lat="47.79138" lon="2.28433">
        <ele>113</ele>
        <time>2017-05-07T07:37:06.379Z</time>
      </trkpt>
      <trkpt lat="47.79127" lon="2.28435">
        <ele>113</ele>
        <time>2017-05-07T07:37:07.380Z</time>
      </trkpt>
      <trkpt lat="47.79127" lon="2.28435">
        <ele>113</ele>
        <time>2017-05-07T07:37:08.375Z</time>
      </trkpt>
      <trkpt lat="47.79116" lon="2.28438">
        <ele>113</ele>
        <time>2017-05-07T07:37:09.378Z</time>
      </trkpt>
      <trkpt lat="47.79116" lon="2.28438">
        <ele>113</ele>
        <time>2017-05-07T07:37:10.374Z</time>
      </trkpt>
      <trkpt lat="47.79105" lon="2.28441">
        <ele>113</ele>
        <time>2017-05-07T07:37:11.379Z</time>
      </trkpt>
      <trkpt lat="47.791" lon="2.28443">
        <ele>113</ele>
        <time>2017-05-07T07:37:12.380Z</time>
      </trkpt>
      <trkpt lat="47.791" lon="2.28443">
        <ele>113</ele>
        <time>2017-05-07T07:37:13.376Z</time>
      </trkpt>
      <trkpt lat="47.79089" lon="2.28446">
        <ele>113</ele>
        <time>2017-05-07T07:37:14.380Z</time>
      </trkpt>
      <trkpt lat="47.79083" lon="2.28449">
        <ele>113</ele>
        <time>2017-05-07T07:37:15.378Z</time>
      </trkpt>
      <trkpt lat="47.79083" lon="2.28449">
        <ele>113</ele>
        <time>2017-05-07T07:37:16.374Z</time>
      </trkpt>
      <trkpt lat="47.79073" lon="2.28454">
        <ele>113</ele>
        <time>2017-05-07T07:37:17.379Z</time>
      </trkpt>
      <trkpt lat="47.79073" lon="2.28454">
        <ele>113</ele>
        <time>2017-05-07T07:37:18.376Z</time>
      </trkpt>
      <trkpt lat="47.79062" lon="2.2846">
        <ele>113</ele>
        <time>2017-05-07T07:37:19.390Z</time>
      </trkpt>
      <trkpt lat="47.79062" lon="2.2846">
        <ele>113</ele>
        <time>2017-05-07T07:37:20.375Z</time>
      </trkpt>
      <trkpt lat="47.79051" lon="2.28468">
        <ele>113</ele>
        <time>2017-05-07T07:37:21.370Z</time>
      </trkpt>
      <trkpt lat="47.79051" lon="2.28468">
        <ele>113</ele>
        <time>2017-05-07T07:37:22.378Z</time>
      </trkpt>
      <trkpt lat="47.79041" lon="2.28476">
        <ele>114</ele>
        <time>2017-05-07T07:37:23.379Z</time>
      </trkpt>
      <trkpt lat="47.79036" lon="2.28479">
        <ele>114</ele>
        <time>2017-05-07T07:37:24.379Z</time>
      </trkpt>
      <trkpt lat="47.79036" lon="2.28479">
        <ele>114</ele>
        <time>2017-05-07T07:37:25.374Z</time>
      </trkpt>
      <trkpt lat="47.79025" lon="2.28487">
        <ele>113</ele>
        <time>2017-05-07T07:37:26.381Z</time>
      </trkpt>
      <trkpt lat="47.79025" lon="2.28487">
        <ele>113</ele>
        <time>2017-05-07T07:37:27.377Z</time>
      </trkpt>
      <trkpt lat="47.79014" lon="2.28494">
        <ele>113</ele>
        <time>2017-05-07T07:37:28.379Z</time>
      </trkpt>
      <trkpt lat="47.79014" lon="2.28494">
        <ele>113</ele>
        <time>2017-05-07T07:37:29.378Z</time>
      </trkpt>
      <trkpt lat="47.79005" lon="2.28501">
        <ele>114</ele>
        <time>2017-05-07T07:37:30.380Z</time>
      </trkpt>
      <trkpt lat="47.79005" lon="2.28501">
        <ele>114</ele>
        <time>2017-05-07T07:37:31.378Z</time>
      </trkpt>
      <trkpt lat="47.78994" lon="2.28508">
        <ele>114</ele>
        <time>2017-05-07T07:37:32.382Z</time>
      </trkpt>
      <trkpt lat="47.78989" lon="2.28512">
        <ele>114</ele>
        <time>2017-05-07T07:37:33.377Z</time>
      </trkpt>
      <trkpt lat="47.78989" lon="2.28512">
        <ele>114</ele>
        <time>2017-05-07T07:37:34.374Z</time>
      </trkpt>
      <trkpt lat="47.78978" lon="2.28519">
        <ele>115</ele>
        <time>2017-05-07T07:37:35.379Z</time>
      </trkpt>
      <trkpt lat="47.78978" lon="2.28519">
        <ele>115</ele>
        <time>2017-05-07T07:37:36.378Z</time>
      </trkpt>
      <trkpt lat="47.78965" lon="2.28525">
        <ele>115</ele>
        <time>2017-05-07T07:37:37.377Z</time>
      </trkpt>
      <trkpt lat="47.78958" lon="2.28527">
        <ele>115</ele>
        <time>2017-05-07T07:37:38.378Z</time>
      </trkpt>
      <trkpt lat="47.78958" lon="2.28527">
        <ele>115</ele>
        <time>2017-05-07T07:37:39.376Z</time>
      </trkpt>
      <trkpt lat="47.78945" lon="2.28528">
        <ele>116</ele>
        <time>2017-05-07T07:37:40.377Z</time>
      </trkpt>
      <trkpt lat="47.78938" lon="2.28528">
        <ele>115</ele>
        <time>2017-05-07T07:37:41.379Z</time>
      </trkpt>
      <trkpt lat="47.7893" lon="2.28527">
        <ele>116</ele>
        <time>2017-05-07T07:37:42.394Z</time>
      </trkpt>
      <trkpt lat="47.78923" lon="2.28525">
        <ele>116</ele>
        <time>2017-05-07T07:37:43.383Z</time>
      </trkpt>
      <trkpt lat="47.78923" lon="2.28525">
        <ele>116</ele>
        <time>2017-05-07T07:37:44.375Z</time>
      </trkpt>
      <trkpt lat="47.78909" lon="2.28519">
        <ele>116</ele>
        <time>2017-05-07T07:37:45.388Z</time>
      </trkpt>
      <trkpt lat="47.78909" lon="2.28519">
        <ele>116</ele>
        <time>2017-05-07T07:37:46.379Z</time>
      </trkpt>
      <trkpt lat="47.78896" lon="2.28513">
        <ele>116</ele>
        <time>2017-05-07T07:37:47.380Z</time>
      </trkpt>
      <trkpt lat="47.78896" lon="2.28513">
        <ele>116</ele>
        <time>2017-05-07T07:37:48.374Z</time>
      </trkpt>
      <trkpt lat="47.78883" lon="2.28507">
        <ele>116</ele>
        <time>2017-05-07T07:37:49.380Z</time>
      </trkpt>
      <trkpt lat="47.78877" lon="2.28504">
        <ele>116</ele>
        <time>2017-05-07T07:37:50.386Z</time>
      </trkpt>
      <trkpt lat="47.78877" lon="2.28504">
        <ele>116</ele>
        <time>2017-05-07T07:37:51.377Z</time>
      </trkpt>
      <trkpt lat="47.78865" lon="2.28499">
        <ele>117</ele>
        <time>2017-05-07T07:37:52.378Z</time>
      </trkpt>
      <trkpt lat="47.78859" lon="2.28496">
        <ele>117</ele>
        <time>2017-05-07T07:37:53.380Z</time>
      </trkpt>
      <trkpt lat="47.78853" lon="2.28494">
        <ele>117</ele>
        <time>2017-05-07T07:37:54.380Z</time>
      </trkpt>
      <trkpt lat="47.78853" lon="2.28494">
        <ele>117</ele>
        <time>2017-05-07T07:37:55.377Z</time>
      </trkpt>
      <trkpt lat="47.78842" lon="2.28488">
        <ele>117</ele>
        <time>2017-05-07T07:37:56.380Z</time>
      </trkpt>
      <trkpt lat="47.78836" lon="2.28485">
        <ele>117</ele>
        <time>2017-05-07T07:37:57.382Z</time>
      </trkpt>
      <trkpt lat="47.78836" lon="2.28485">
        <ele>117</ele>
        <time>2017-05-07T07:37:58.388Z</time>
      </trkpt>
      <trkpt lat="47.78827" lon="2.28479">
        <ele>117</ele>
        <time>2017-05-07T07:37:59.382Z</time>
      </trkpt>
      <trkpt lat="47.78822" lon="2.28477">
        <ele>117</ele>
        <time>2017-05-07T07:38:00.393Z</time>
      </trkpt>
      <trkpt lat="47.78822" lon="2.28477">
        <ele>117</ele>
        <time>2017-05-07T07:38:01.383Z</time>
      </trkpt>
      <trkpt lat="47.78814" lon="2.28473">
        <ele>116</ele>
        <time>2017-05-07T07:38:02.381Z</time>
      </trkpt>
      <trkpt lat="47.7881" lon="2.28471">
        <ele>116</ele>
        <time>2017-05-07T07:38:03.380Z</time>
      </trkpt>
      <trkpt lat="47.7881" lon="2.28471">
        <ele>116</ele>
        <time>2017-05-07T07:38:04.374Z</time>
      </trkpt>
      <trkpt lat="47.78802" lon="2.28467">
        <ele>115</ele>
        <time>2017-05-07T07:38:05.379Z</time>
      </trkpt>
      <trkpt lat="47.78799" lon="2.28464">
        <ele>115</ele>
        <time>2017-05-07T07:38:06.393Z</time>
      </trkpt>
      <trkpt lat="47.78799" lon="2.28464">
        <ele>115</ele>
        <time>2017-05-07T07:38:07.394Z</time>
      </trkpt>
      <trkpt lat="47.78792" lon="2.28461">
        <ele>114</ele>
        <time>2017-05-07T07:38:08.388Z</time>
      </trkpt>
      <trkpt lat="47.78792" lon="2.28461">
        <ele>114</ele>
        <time>2017-05-07T07:38:09.388Z</time>
      </trkpt>
      <trkpt lat="47.78787" lon="2.28459">
        <ele>114</ele>
        <time>2017-05-07T07:38:10.377Z</time>
      </trkpt>
      <trkpt lat="47.78785" lon="2.28458">
        <ele>114</ele>
        <time>2017-05-07T07:38:11.379Z</time>
      </trkpt>
      <trkpt lat="47.78785" lon="2.28458">
        <ele>114</ele>
        <time>2017-05-07T07:38:12.378Z</time>
      </trkpt>
      <trkpt lat="47.78782" lon="2.28456">
        <ele>114</ele>
        <time>2017-05-07T07:38:13.377Z</time>
      </trkpt>
      <trkpt lat="47.78781" lon="2.28455">
        <ele>114</ele>
        <time>2017-05-07T07:38:14.381Z</time>
      </trkpt>
      <trkpt lat="47.78781" lon="2.28455">
        <ele>114</ele>
        <time>2017-05-07T07:38:15.380Z</time>
      </trkpt>
      <trkpt lat="47.7878" lon="2.28455">
        <ele>114</ele>
        <time>2017-05-07T07:38:16.380Z</time>
      </trkpt>
      <trkpt lat="47.7878" lon="2.28455">
        <ele>114</ele>
        <time>2017-05-07T07:38:17.371Z</time>
      </trkpt>
      <trkpt lat="47.7878" lon="2.28455">
        <ele>114</ele>
        <time>2017-05-07T07:38:18.369Z</time>
      </trkpt>
      <trkpt lat="47.7877" lon="2.28463">
        <ele>116</ele>
        <time>2017-05-07T07:38:19.371Z</time>
      </trkpt>
      <trkpt lat="47.7877" lon="2.28463">
        <ele>116</ele>
        <time>2017-05-07T07:38:20.365Z</time>
      </trkpt>
      <trkpt lat="47.78766" lon="2.28475">
        <ele>117</ele>
        <time>2017-05-07T07:38:21.370Z</time>
      </trkpt>
      <trkpt lat="47.78766" lon="2.28475">
        <ele>117</ele>
        <time>2017-05-07T07:38:22.365Z</time>
      </trkpt>
      <trkpt lat="47.78764" lon="2.2849">
        <ele>117</ele>
        <time>2017-05-07T07:38:23.372Z</time>
      </trkpt>
      <trkpt lat="47.78764" lon="2.2849">
        <ele>117</ele>
        <time>2017-05-07T07:38:24.367Z</time>
      </trkpt>
      <trkpt lat="47.78761" lon="2.28504">
        <ele>118</ele>
        <time>2017-05-07T07:38:25.370Z</time>
      </trkpt>
      <trkpt lat="47.78761" lon="2.28504">
        <ele>118</ele>
        <time>2017-05-07T07:38:26.364Z</time>
      </trkpt>
      <trkpt lat="47.78758" lon="2.28519">
        <ele>118</ele>
        <time>2017-05-07T07:38:27.372Z</time>
      </trkpt>
      <trkpt lat="47.78758" lon="2.28519">
        <ele>118</ele>
        <time>2017-05-07T07:38:28.368Z</time>
      </trkpt>
      <trkpt lat="47.78755" lon="2.28533">
        <ele>118</ele>
        <time>2017-05-07T07:38:29.371Z</time>
      </trkpt>
      <trkpt lat="47.78755" lon="2.28533">
        <ele>118</ele>
        <time>2017-05-07T07:38:30.365Z</time>
      </trkpt>
      <trkpt lat="47.78751" lon="2.28547">
        <ele>119</ele>
        <time>2017-05-07T07:38:31.370Z</time>
      </trkpt>
      <trkpt lat="47.78751" lon="2.28547">
        <ele>119</ele>
        <time>2017-05-07T07:38:32.364Z</time>
      </trkpt>
      <trkpt lat="47.78747" lon="2.28562">
        <ele>119</ele>
        <time>2017-05-07T07:38:33.368Z</time>
      </trkpt>
      <trkpt lat="47.78747" lon="2.28562">
        <ele>119</ele>
        <time>2017-05-07T07:38:34.365Z</time>
      </trkpt>
      <trkpt lat="47.78744" lon="2.28578">
        <ele>119</ele>
        <time>2017-05-07T07:38:35.371Z</time>
      </trkpt>
      <trkpt lat="47.78742" lon="2.28585">
        <ele>119</ele>
        <time>2017-05-07T07:38:36.371Z</time>
      </trkpt>
      <trkpt lat="47.78742" lon="2.28585">
        <ele>119</ele>
        <time>2017-05-07T07:38:37.364Z</time>
      </trkpt>
      <trkpt lat="47.78739" lon="2.286">
        <ele>119</ele>
        <time>2017-05-07T07:38:38.373Z</time>
      </trkpt>
      <trkpt lat="47.78739" lon="2.286">
        <ele>119</ele>
        <time>2017-05-07T07:38:39.364Z</time>
      </trkpt>
      <trkpt lat="47.78735" lon="2.28614">
        <ele>119</ele>
        <time>2017-05-07T07:38:40.370Z</time>
      </trkpt>
      <trkpt lat="47.78735" lon="2.28614">
        <ele>119</ele>
        <time>2017-05-07T07:38:41.368Z</time>
      </trkpt>
      <trkpt lat="47.78732" lon="2.28628">
        <ele>119</ele>
        <time>2017-05-07T07:38:42.371Z</time>
      </trkpt>
      <trkpt lat="47.78732" lon="2.28628">
        <ele>119</ele>
        <time>2017-05-07T07:38:43.366Z</time>
      </trkpt>
      <trkpt lat="47.78729" lon="2.28641">
        <ele>118</ele>
        <time>2017-05-07T07:38:44.378Z</time>
      </trkpt>
      <trkpt lat="47.78729" lon="2.28641">
        <ele>118</ele>
        <time>2017-05-07T07:38:45.369Z</time>
      </trkpt>
      <trkpt lat="47.78726" lon="2.28655">
        <ele>118</ele>
        <time>2017-05-07T07:38:46.371Z</time>
      </trkpt>
      <trkpt lat="47.78726" lon="2.28655">
        <ele>118</ele>
        <time>2017-05-07T07:38:47.368Z</time>
      </trkpt>
      <trkpt lat="47.78723" lon="2.2867">
        <ele>118</ele>
        <time>2017-05-07T07:38:48.371Z</time>
      </trkpt>
      <trkpt lat="47.78723" lon="2.2867">
        <ele>118</ele>
        <time>2017-05-07T07:38:49.363Z</time>
      </trkpt>
      <trkpt lat="47.7872" lon="2.28684">
        <ele>118</ele>
        <time>2017-05-07T07:38:50.372Z</time>
      </trkpt>
      <trkpt lat="47.7872" lon="2.28684">
        <ele>118</ele>
        <time>2017-05-07T07:38:51.370Z</time>
      </trkpt>
      <trkpt lat="47.78717" lon="2.28697">
        <ele>118</ele>
        <time>2017-05-07T07:38:52.369Z</time>
      </trkpt>
      <trkpt lat="47.78716" lon="2.28703">
        <ele>119</ele>
        <time>2017-05-07T07:38:53.392Z</time>
      </trkpt>
      <trkpt lat="47.78716" lon="2.28703">
        <ele>119</ele>
        <time>2017-05-07T07:38:54.381Z</time>
      </trkpt>
      <trkpt lat="47.78713" lon="2.28715">
        <ele>119</ele>
        <time>2017-05-07T07:38:55.371Z</time>
      </trkpt>
      <trkpt lat="47.78712" lon="2.28721">
        <ele>119</ele>
        <time>2017-05-07T07:38:56.372Z</time>
      </trkpt>
      <trkpt lat="47.78712" lon="2.28721">
        <ele>119</ele>
        <time>2017-05-07T07:38:57.367Z</time>
      </trkpt>
      <trkpt lat="47.78709" lon="2.28732">
        <ele>119</ele>
        <time>2017-05-07T07:38:58.377Z</time>
      </trkpt>
      <trkpt lat="47.78708" lon="2.28737">
        <ele>119</ele>
        <time>2017-05-07T07:38:59.374Z</time>
      </trkpt>
      <trkpt lat="47.78708" lon="2.28737">
        <ele>119</ele>
        <time>2017-05-07T07:39:00.370Z</time>
      </trkpt>
      <trkpt lat="47.78706" lon="2.28745">
        <ele>119</ele>
        <time>2017-05-07T07:39:01.372Z</time>
      </trkpt>
      <trkpt lat="47.78706" lon="2.28748">
        <ele>119</ele>
        <time>2017-05-07T07:39:02.373Z</time>
      </trkpt>
      <trkpt lat="47.78706" lon="2.28748">
        <ele>119</ele>
        <time>2017-05-07T07:39:03.369Z</time>
      </trkpt>
      <trkpt lat="47.78703" lon="2.28752">
        <ele>119</ele>
        <time>2017-05-07T07:39:04.373Z</time>
      </trkpt>
      <trkpt lat="47.78701" lon="2.28753">
        <ele>119</ele>
        <time>2017-05-07T07:39:05.380Z</time>
      </trkpt>
      <trkpt lat="47.78701" lon="2.28753">
        <ele>119</ele>
        <time>2017-05-07T07:39:06.370Z</time>
      </trkpt>
      <trkpt lat="47.78698" lon="2.28752">
        <ele>119</ele>
        <time>2017-05-07T07:39:07.372Z</time>
      </trkpt>
      <trkpt lat="47.78696" lon="2.28752">
        <ele>119</ele>
        <time>2017-05-07T07:39:08.370Z</time>
      </trkpt>
      <trkpt lat="47.78696" lon="2.28752">
        <ele>119</ele>
        <time>2017-05-07T07:39:09.384Z</time>
      </trkpt>
      <trkpt lat="47.78689" lon="2.28753">
        <ele>119</ele>
        <time>2017-05-07T07:39:10.378Z</time>
      </trkpt>
      <trkpt lat="47.78686" lon="2.28754">
        <ele>119</ele>
        <time>2017-05-07T07:39:11.377Z</time>
      </trkpt>
      <trkpt lat="47.78686" lon="2.28754">
        <ele>119</ele>
        <time>2017-05-07T07:39:12.366Z</time>
      </trkpt>
      <trkpt lat="47.78676" lon="2.28756">
        <ele>119</ele>
        <time>2017-05-07T07:39:13.385Z</time>
      </trkpt>
      <trkpt lat="47.78676" lon="2.28756">
        <ele>119</ele>
        <time>2017-05-07T07:39:14.375Z</time>
      </trkpt>
      <trkpt lat="47.78665" lon="2.28756">
        <ele>118</ele>
        <time>2017-05-07T07:39:15.372Z</time>
      </trkpt>
      <trkpt lat="47.78665" lon="2.28756">
        <ele>118</ele>
        <time>2017-05-07T07:39:16.370Z</time>
      </trkpt>
      <trkpt lat="47.78654" lon="2.28756">
        <ele>118</ele>
        <time>2017-05-07T07:39:17.375Z</time>
      </trkpt>
      <trkpt lat="47.78654" lon="2.28756">
        <ele>118</ele>
        <time>2017-05-07T07:39:18.369Z</time>
      </trkpt>
      <trkpt lat="47.78643" lon="2.28756">
        <ele>118</ele>
        <time>2017-05-07T07:39:19.371Z</time>
      </trkpt>
      <trkpt lat="47.78643" lon="2.28756">
        <ele>118</ele>
        <time>2017-05-07T07:39:20.378Z</time>
      </trkpt>
      <trkpt lat="47.78632" lon="2.28757">
        <ele>118</ele>
        <time>2017-05-07T07:39:21.372Z</time>
      </trkpt>
      <trkpt lat="47.78632" lon="2.28757">
        <ele>118</ele>
        <time>2017-05-07T07:39:22.360Z</time>
      </trkpt>
      <trkpt lat="47.78622" lon="2.28756">
        <ele>118</ele>
        <time>2017-05-07T07:39:23.366Z</time>
      </trkpt>
      <trkpt lat="47.78622" lon="2.28756">
        <ele>118</ele>
        <time>2017-05-07T07:39:24.373Z</time>
      </trkpt>
      <trkpt lat="47.78612" lon="2.28757">
        <ele>118</ele>
        <time>2017-05-07T07:39:25.380Z</time>
      </trkpt>
      <trkpt lat="47.78612" lon="2.28757">
        <ele>118</ele>
        <time>2017-05-07T07:39:26.358Z</time>
      </trkpt>
      <trkpt lat="47.78602" lon="2.28758">
        <ele>118</ele>
        <time>2017-05-07T07:39:27.394Z</time>
      </trkpt>
      <trkpt lat="47.78602" lon="2.28758">
        <ele>118</ele>
        <time>2017-05-07T07:39:28.366Z</time>
      </trkpt>
      <trkpt lat="47.78592" lon="2.28758">
        <ele>117</ele>
        <time>2017-05-07T07:39:29.378Z</time>
      </trkpt>
      <trkpt lat="47.78592" lon="2.28758">
        <ele>117</ele>
        <time>2017-05-07T07:39:30.377Z</time>
      </trkpt>
      <trkpt lat="47.78582" lon="2.28757">
        <ele>117</ele>
        <time>2017-05-07T07:39:31.376Z</time>
      </trkpt>
      <trkpt lat="47.78582" lon="2.28757">
        <ele>117</ele>
        <time>2017-05-07T07:39:32.374Z</time>
      </trkpt>
      <trkpt lat="47.78573" lon="2.28757">
        <ele>117</ele>
        <time>2017-05-07T07:39:33.378Z</time>
      </trkpt>
      <trkpt lat="47.78568" lon="2.28757">
        <ele>118</ele>
        <time>2017-05-07T07:39:34.377Z</time>
      </trkpt>
      <trkpt lat="47.78564" lon="2.28757">
        <ele>118</ele>
        <time>2017-05-07T07:39:35.379Z</time>
      </trkpt>
      <trkpt lat="47.78564" lon="2.28757">
        <ele>118</ele>
        <time>2017-05-07T07:39:36.366Z</time>
      </trkpt>
      <trkpt lat="47.78555" lon="2.28757">
        <ele>118</ele>
        <time>2017-05-07T07:39:37.382Z</time>
      </trkpt>
      <trkpt lat="47.78555" lon="2.28757">
        <ele>118</ele>
        <time>2017-05-07T07:39:38.379Z</time>
      </trkpt>
      <trkpt lat="47.78545" lon="2.28757">
        <ele>118</ele>
        <time>2017-05-07T07:39:39.378Z</time>
      </trkpt>
      <trkpt lat="47.78545" lon="2.28757">
        <ele>118</ele>
        <time>2017-05-07T07:39:40.375Z</time>
      </trkpt>
      <trkpt lat="47.78536" lon="2.28757">
        <ele>118</ele>
        <time>2017-05-07T07:39:41.387Z</time>
      </trkpt>
      <trkpt lat="47.78536" lon="2.28757">
        <ele>118</ele>
        <time>2017-05-07T07:39:42.383Z</time>
      </trkpt>
      <trkpt lat="47.78527" lon="2.28758">
        <ele>118</ele>
        <time>2017-05-07T07:39:43.379Z</time>
      </trkpt>
      <trkpt lat="47.78527" lon="2.28758">
        <ele>118</ele>
        <time>2017-05-07T07:39:44.375Z</time>
      </trkpt>
      <trkpt lat="47.78517" lon="2.28757">
        <ele>119</ele>
        <time>2017-05-07T07:39:45.375Z</time>
      </trkpt>
      <trkpt lat="47.78517" lon="2.28757">
        <ele>119</ele>
        <time>2017-05-07T07:39:46.373Z</time>
      </trkpt>
      <trkpt lat="47.78506" lon="2.28757">
        <ele>119</ele>
        <time>2017-05-07T07:39:47.373Z</time>
      </trkpt>
      <trkpt lat="47.78506" lon="2.28757">
        <ele>119</ele>
        <time>2017-05-07T07:39:48.377Z</time>
      </trkpt>
      <trkpt lat="47.78495" lon="2.28757">
        <ele>119</ele>
        <time>2017-05-07T07:39:49.382Z</time>
      </trkpt>
      <trkpt lat="47.78495" lon="2.28757">
        <ele>119</ele>
        <time>2017-05-07T07:39:50.382Z</time>
      </trkpt>
      <trkpt lat="47.78484" lon="2.28758">
        <ele>119</ele>
        <time>2017-05-07T07:39:51.381Z</time>
      </trkpt>
      <trkpt lat="47.78484" lon="2.28758">
        <ele>119</ele>
        <time>2017-05-07T07:39:52.378Z</time>
      </trkpt>
      <trkpt lat="47.78473" lon="2.28758">
        <ele>119</ele>
        <time>2017-05-07T07:39:53.388Z</time>
      </trkpt>
      <trkpt lat="47.78473" lon="2.28758">
        <ele>119</ele>
        <time>2017-05-07T07:39:54.357Z</time>
      </trkpt>
      <trkpt lat="47.78462" lon="2.28757">
        <ele>118</ele>
        <time>2017-05-07T07:39:55.393Z</time>
      </trkpt>
      <trkpt lat="47.78462" lon="2.28757">
        <ele>118</ele>
        <time>2017-05-07T07:39:56.357Z</time>
      </trkpt>
      <trkpt lat="47.78452" lon="2.28757">
        <ele>118</ele>
        <time>2017-05-07T07:39:57.394Z</time>
      </trkpt>
      <trkpt lat="47.78447" lon="2.28756">
        <ele>118</ele>
        <time>2017-05-07T07:39:58.394Z</time>
      </trkpt>
      <trkpt lat="47.78447" lon="2.28756">
        <ele>118</ele>
        <time>2017-05-07T07:39:59.363Z</time>
      </trkpt>
      <trkpt lat="47.78436" lon="2.28756">
        <ele>118</ele>
        <time>2017-05-07T07:40:00.375Z</time>
      </trkpt>
      <trkpt lat="47.78436" lon="2.28756">
        <ele>118</ele>
        <time>2017-05-07T07:40:01.372Z</time>
      </trkpt>
      <trkpt lat="47.78427" lon="2.28756">
        <ele>118</ele>
        <time>2017-05-07T07:40:02.372Z</time>
      </trkpt>
      <trkpt lat="47.78427" lon="2.28756">
        <ele>118</ele>
        <time>2017-05-07T07:40:03.369Z</time>
      </trkpt>
      <trkpt lat="47.7842" lon="2.28755">
        <ele>117</ele>
        <time>2017-05-07T07:40:04.377Z</time>
      </trkpt>
      <trkpt lat="47.7842" lon="2.28755">
        <ele>117</ele>
        <time>2017-05-07T07:40:05.374Z</time>
      </trkpt>
      <trkpt lat="47.78415" lon="2.28755">
        <ele>116</ele>
        <time>2017-05-07T07:40:06.384Z</time>
      </trkpt>
      <trkpt lat="47.78415" lon="2.28755">
        <ele>116</ele>
        <time>2017-05-07T07:40:07.389Z</time>
      </trkpt>
      <trkpt lat="47.7841" lon="2.28755">
        <ele>116</ele>
        <time>2017-05-07T07:40:08.384Z</time>
      </trkpt>
      <trkpt lat="47.78408" lon="2.28755">
        <ele>115</ele>
        <time>2017-05-07T07:40:09.389Z</time>
      </trkpt>
      <trkpt lat="47.78408" lon="2.28755">
        <ele>115</ele>
        <time>2017-05-07T07:40:10.358Z</time>
      </trkpt>
      <trkpt lat="47.78404" lon="2.28756">
        <ele>115</ele>
        <time>2017-05-07T07:40:11.393Z</time>
      </trkpt>
      <trkpt lat="47.78404" lon="2.28756">
        <ele>115</ele>
        <time>2017-05-07T07:40:12.356Z</time>
      </trkpt>
      <trkpt lat="47.78403" lon="2.28756">
        <ele>115</ele>
        <time>2017-05-07T07:40:13.358Z</time>
      </trkpt>
      <trkpt lat="47.78402" lon="2.28757">
        <ele>115</ele>
        <time>2017-05-07T07:40:14.364Z</time>
      </trkpt>
      <trkpt lat="47.78402" lon="2.28757">
        <ele>115</ele>
        <time>2017-05-07T07:40:15.378Z</time>
      </trkpt>
      <trkpt lat="47.78402" lon="2.28757">
        <ele>115</ele>
        <time>2017-05-07T07:40:16.363Z</time>
      </trkpt>
      <trkpt lat="47.78409" lon="2.28758">
        <ele>115</ele>
        <time>2017-05-07T07:40:17.359Z</time>
      </trkpt>
      <trkpt lat="47.7841" lon="2.28758">
        <ele>115</ele>
        <time>2017-05-07T07:40:18.366Z</time>
      </trkpt>
      <trkpt lat="47.78413" lon="2.28758">
        <ele>115</ele>
        <time>2017-05-07T07:40:19.378Z</time>
      </trkpt>
      <trkpt lat="47.78413" lon="2.28758">
        <ele>115</ele>
        <time>2017-05-07T07:40:20.375Z</time>
      </trkpt>
      <trkpt lat="47.7842" lon="2.28758">
        <ele>116</ele>
        <time>2017-05-07T07:40:21.384Z</time>
      </trkpt>
      <trkpt lat="47.7842" lon="2.28758">
        <ele>116</ele>
        <time>2017-05-07T07:40:22.379Z</time>
      </trkpt>
      <trkpt lat="47.78427" lon="2.28758">
        <ele>116</ele>
        <time>2017-05-07T07:40:23.379Z</time>
      </trkpt>
      <trkpt lat="47.78431" lon="2.28758">
        <ele>116</ele>
        <time>2017-05-07T07:40:24.362Z</time>
      </trkpt>
      <trkpt lat="47.78434" lon="2.28758">
        <ele>116</ele>
        <time>2017-05-07T07:40:25.365Z</time>
      </trkpt>
      <trkpt lat="47.78434" lon="2.28758">
        <ele>116</ele>
        <time>2017-05-07T07:40:26.367Z</time>
      </trkpt>
      <trkpt lat="47.78442" lon="2.28758">
        <ele>117</ele>
        <time>2017-05-07T07:40:27.382Z</time>
      </trkpt>
      <trkpt lat="47.78442" lon="2.28758">
        <ele>117</ele>
        <time>2017-05-07T07:40:28.377Z</time>
      </trkpt>
      <trkpt lat="47.78449" lon="2.28758">
        <ele>117</ele>
        <time>2017-05-07T07:40:29.389Z</time>
      </trkpt>
      <trkpt lat="47.78449" lon="2.28758">
        <ele>117</ele>
        <time>2017-05-07T07:40:30.387Z</time>
      </trkpt>
      <trkpt lat="47.78457" lon="2.28758">
        <ele>118</ele>
        <time>2017-05-07T07:40:31.383Z</time>
      </trkpt>
      <trkpt lat="47.78457" lon="2.28758">
        <ele>118</ele>
        <time>2017-05-07T07:40:32.377Z</time>
      </trkpt>
      <trkpt lat="47.78463" lon="2.28758">
        <ele>119</ele>
        <time>2017-05-07T07:40:33.379Z</time>
      </trkpt>
      <trkpt lat="47.78463" lon="2.28758">
        <ele>119</ele>
        <time>2017-05-07T07:40:34.374Z</time>
      </trkpt>
      <trkpt lat="47.78469" lon="2.28758">
        <ele>119</ele>
        <time>2017-05-07T07:40:35.381Z</time>
      </trkpt>
      <trkpt lat="47.78469" lon="2.28758">
        <ele>119</ele>
        <time>2017-05-07T07:40:36.392Z</time>
      </trkpt>
      <trkpt lat="47.78474" lon="2.28758">
        <ele>119</ele>
        <time>2017-05-07T07:40:37.390Z</time>
      </trkpt>
      <trkpt lat="47.78474" lon="2.28758">
        <ele>119</ele>
        <time>2017-05-07T07:40:38.383Z</time>
      </trkpt>
      <trkpt lat="47.78477" lon="2.28758">
        <ele>119</ele>
        <time>2017-05-07T07:40:39.383Z</time>
      </trkpt>
      <trkpt lat="47.78477" lon="2.28758">
        <ele>119</ele>
        <time>2017-05-07T07:40:40.379Z</time>
      </trkpt>
      <trkpt lat="47.78478" lon="2.28758">
        <ele>119</ele>
        <time>2017-05-07T07:40:41.377Z</time>
      </trkpt>
      <trkpt lat="47.78478" lon="2.28758">
        <ele>119</ele>
        <time>2017-05-07T07:40:42.379Z</time>
      </trkpt>
      <trkpt lat="47.78478" lon="2.28758">
        <ele>119</ele>
        <time>2017-05-07T07:40:43.384Z</time>
      </trkpt>
      <trkpt lat="47.78478" lon="2.28758">
        <ele>119</ele>
        <time>2017-05-07T07:40:44.366Z</time>
      </trkpt>
      <trkpt lat="47.7847" lon="2.28757">
        <ele>118</ele>
        <time>2017-05-07T07:40:45.375Z</time>
      </trkpt>
      <trkpt lat="47.78468" lon="2.28758">
        <ele>118</ele>
        <time>2017-05-07T07:40:46.375Z</time>
      </trkpt>
      <trkpt lat="47.78468" lon="2.28758">
        <ele>118</ele>
        <time>2017-05-07T07:40:47.385Z</time>
      </trkpt>
      <trkpt lat="47.78463" lon="2.28757">
        <ele>118</ele>
        <time>2017-05-07T07:40:48.383Z</time>
      </trkpt>
      <trkpt lat="47.78463" lon="2.28757">
        <ele>118</ele>
        <time>2017-05-07T07:40:49.378Z</time>
      </trkpt>
      <trkpt lat="47.78458" lon="2.28757">
        <ele>117</ele>
        <time>2017-05-07T07:40:50.389Z</time>
      </trkpt>
      <trkpt lat="47.78458" lon="2.28757">
        <ele>117</ele>
        <time>2017-05-07T07:40:51.383Z</time>
      </trkpt>
      <trkpt lat="47.78453" lon="2.28756">
        <ele>117</ele>
        <time>2017-05-07T07:40:52.378Z</time>
      </trkpt>
      <trkpt lat="47.78451" lon="2.28756">
        <ele>117</ele>
        <time>2017-05-07T07:40:53.387Z</time>
      </trkpt>
      <trkpt lat="47.78451" lon="2.28756">
        <ele>117</ele>
        <time>2017-05-07T07:40:54.363Z</time>
      </trkpt>
      <trkpt lat="47.78447" lon="2.28756">
        <ele>117</ele>
        <time>2017-05-07T07:40:55.376Z</time>
      </trkpt>
      <trkpt lat="47.78447" lon="2.28756">
        <ele>117</ele>
        <time>2017-05-07T07:40:56.390Z</time>
      </trkpt>
      <trkpt lat="47.78444" lon="2.28756">
        <ele>117</ele>
        <time>2017-05-07T07:40:57.373Z</time>
      </trkpt>
      <trkpt lat="47.78444" lon="2.28756">
        <ele>117</ele>
        <time>2017-05-07T07:40:58.390Z</time>
      </trkpt>
      <trkpt lat="47.78441" lon="2.28756">
        <ele>117</ele>
        <time>2017-05-07T07:40:59.384Z</time>
      </trkpt>
      <trkpt lat="47.78441" lon="2.28756">
        <ele>117</ele>
        <time>2017-05-07T07:41:00.385Z</time>
      </trkpt>
      <trkpt lat="47.78438" lon="2.28756">
        <ele>117</ele>
        <time>2017-05-07T07:41:01.393Z</time>
      </trkpt>
      <trkpt lat="47.78438" lon="2.28756">
        <ele>117</ele>
        <time>2017-05-07T07:41:02.385Z</time>
      </trkpt>
      <trkpt lat="47.78434" lon="2.28757">
        <ele>116</ele>
        <time>2017-05-07T07:41:03.374Z</time>
      </trkpt>
      <trkpt lat="47.78434" lon="2.28757">
        <ele>116</ele>
        <time>2017-05-07T07:41:04.364Z</time>
      </trkpt>
      <trkpt lat="47.78432" lon="2.28757">
        <ele>116</ele>
        <time>2017-05-07T07:41:05.372Z</time>
      </trkpt>
      <trkpt lat="47.78432" lon="2.28757">
        <ele>116</ele>
        <time>2017-05-07T07:41:06.373Z</time>
      </trkpt>
      <trkpt lat="47.78429" lon="2.28757">
        <ele>116</ele>
        <time>2017-05-07T07:41:07.370Z</time>
      </trkpt>
      <trkpt lat="47.78429" lon="2.28757">
        <ele>116</ele>
        <time>2017-05-07T07:41:08.361Z</time>
      </trkpt>
      <trkpt lat="47.78427" lon="2.28758">
        <ele>116</ele>
        <time>2017-05-07T07:41:09.373Z</time>
      </trkpt>
      <trkpt lat="47.78426" lon="2.28758">
        <ele>116</ele>
        <time>2017-05-07T07:41:10.394Z</time>
      </trkpt>
      <trkpt lat="47.78426" lon="2.28758">
        <ele>116</ele>
        <time>2017-05-07T07:41:11.383Z</time>
      </trkpt>
      <trkpt lat="47.78425" lon="2.28758">
        <ele>116</ele>
        <time>2017-05-07T07:41:12.375Z</time>
      </trkpt>
      <trkpt lat="47.78425" lon="2.28758">
        <ele>116</ele>
        <time>2017-05-07T07:41:13.380Z</time>
      </trkpt>
      <trkpt lat="47.78423" lon="2.28762">
        <ele>116</ele>
        <time>2017-05-07T07:41:14.369Z</time>
      </trkpt>
      <trkpt lat="47.78422" lon="2.28763">
        <ele>116</ele>
        <time>2017-05-07T07:41:15.359Z</time>
      </trkpt>
      <trkpt lat="47.78421" lon="2.28764">
        <ele>117</ele>
        <time>2017-05-07T07:41:16.368Z</time>
      </trkpt>
      <trkpt lat="47.78421" lon="2.28764">
        <ele>117</ele>
        <time>2017-05-07T07:41:17.358Z</time>
      </trkpt>
      <trkpt lat="47.78419" lon="2.28765">
        <ele>117</ele>
        <time>2017-05-07T07:41:18.357Z</time>
      </trkpt>
      <trkpt lat="47.78418" lon="2.28765">
        <ele>117</ele>
        <time>2017-05-07T07:41:19.358Z</time>
      </trkpt>
      <trkpt lat="47.78418" lon="2.28765">
        <ele>117</ele>
        <time>2017-05-07T07:41:20.356Z</time>
      </trkpt>
      <trkpt lat="47.78416" lon="2.28767">
        <ele>116</ele>
        <time>2017-05-07T07:41:21.358Z</time>
      </trkpt>
      <trkpt lat="47.78416" lon="2.28768">
        <ele>117</ele>
        <time>2017-05-07T07:41:22.361Z</time>
      </trkpt>
      <trkpt lat="47.78416" lon="2.28768">
        <ele>117</ele>
        <time>2017-05-07T07:41:23.356Z</time>
      </trkpt>
      <trkpt lat="47.78414" lon="2.28771">
        <ele>117</ele>
        <time>2017-05-07T07:41:24.357Z</time>
      </trkpt>
      <trkpt lat="47.78414" lon="2.28771">
        <ele>117</ele>
        <time>2017-05-07T07:41:25.393Z</time>
      </trkpt>
      <trkpt lat="47.78414" lon="2.28774">
        <ele>117</ele>
        <time>2017-05-07T07:41:26.381Z</time>
      </trkpt>
      <trkpt lat="47.78414" lon="2.28774">
        <ele>117</ele>
        <time>2017-05-07T07:41:27.375Z</time>
      </trkpt>
      <trkpt lat="47.78414" lon="2.28774">
        <ele>117</ele>
        <time>2017-05-07T07:41:28.384Z</time>
      </trkpt>
      <trkpt lat="47.78414" lon="2.28774">
        <ele>117</ele>
        <time>2017-05-07T07:41:29.374Z</time>
      </trkpt>
      <trkpt lat="47.78413" lon="2.28792">
        <ele>117</ele>
        <time>2017-05-07T07:41:30.375Z</time>
      </trkpt>
      <trkpt lat="47.78414" lon="2.28796">
        <ele>117</ele>
        <time>2017-05-07T07:41:31.373Z</time>
      </trkpt>
      <trkpt lat="47.78414" lon="2.28796">
        <ele>117</ele>
        <time>2017-05-07T07:41:32.365Z</time>
      </trkpt>
      <trkpt lat="47.78414" lon="2.28806">
        <ele>117</ele>
        <time>2017-05-07T07:41:33.356Z</time>
      </trkpt>
      <trkpt lat="47.78414" lon="2.28812">
        <ele>117</ele>
        <time>2017-05-07T07:41:34.366Z</time>
      </trkpt>
      <trkpt lat="47.78414" lon="2.28812">
        <ele>117</ele>
        <time>2017-05-07T07:41:35.373Z</time>
      </trkpt>
      <trkpt lat="47.78413" lon="2.28822">
        <ele>116</ele>
        <time>2017-05-07T07:41:36.364Z</time>
      </trkpt>
      <trkpt lat="47.78413" lon="2.28827">
        <ele>116</ele>
        <time>2017-05-07T07:41:37.355Z</time>
      </trkpt>
      <trkpt lat="47.78413" lon="2.28827">
        <ele>116</ele>
        <time>2017-05-07T07:41:38.383Z</time>
      </trkpt>
      <trkpt lat="47.78414" lon="2.28837">
        <ele>116</ele>
        <time>2017-05-07T07:41:39.379Z</time>
      </trkpt>
      <trkpt lat="47.78414" lon="2.28841">
        <ele>116</ele>
        <time>2017-05-07T07:41:40.369Z</time>
      </trkpt>
      <trkpt lat="47.78414" lon="2.28841">
        <ele>116</ele>
        <time>2017-05-07T07:41:41.362Z</time>
      </trkpt>
      <trkpt lat="47.78415" lon="2.28852">
        <ele>116</ele>
        <time>2017-05-07T07:41:42.388Z</time>
      </trkpt>
      <trkpt lat="47.78415" lon="2.28852">
        <ele>116</ele>
        <time>2017-05-07T07:41:43.376Z</time>
      </trkpt>
      <trkpt lat="47.78415" lon="2.28862">
        <ele>116</ele>
        <time>2017-05-07T07:41:44.366Z</time>
      </trkpt>
      <trkpt lat="47.78415" lon="2.28862">
        <ele>116</ele>
        <time>2017-05-07T07:41:45.394Z</time>
      </trkpt>
      <trkpt lat="47.78415" lon="2.28872">
        <ele>116</ele>
        <time>2017-05-07T07:41:46.386Z</time>
      </trkpt>
      <trkpt lat="47.78415" lon="2.28872">
        <ele>116</ele>
        <time>2017-05-07T07:41:47.374Z</time>
      </trkpt>
      <trkpt lat="47.78416" lon="2.28883">
        <ele>116</ele>
        <time>2017-05-07T07:41:48.369Z</time>
      </trkpt>
      <trkpt lat="47.78416" lon="2.28883">
        <ele>116</ele>
        <time>2017-05-07T07:41:49.358Z</time>
      </trkpt>
      <trkpt lat="47.78416" lon="2.28893">
        <ele>116</ele>
        <time>2017-05-07T07:41:50.388Z</time>
      </trkpt>
      <trkpt lat="47.78416" lon="2.28897">
        <ele>116</ele>
        <time>2017-05-07T07:41:51.359Z</time>
      </trkpt>
      <trkpt lat="47.78417" lon="2.28902">
        <ele>116</ele>
        <time>2017-05-07T07:41:52.380Z</time>
      </trkpt>
      <trkpt lat="47.78417" lon="2.28902">
        <ele>116</ele>
        <time>2017-05-07T07:41:53.390Z</time>
      </trkpt>
      <trkpt lat="47.78418" lon="2.28912">
        <ele>116</ele>
        <time>2017-05-07T07:41:54.392Z</time>
      </trkpt>
      <trkpt lat="47.78418" lon="2.28912">
        <ele>116</ele>
        <time>2017-05-07T07:41:55.380Z</time>
      </trkpt>
      <trkpt lat="47.78419" lon="2.28921">
        <ele>116</ele>
        <time>2017-05-07T07:41:56.381Z</time>
      </trkpt>
      <trkpt lat="47.78419" lon="2.28926">
        <ele>116</ele>
        <time>2017-05-07T07:41:57.370Z</time>
      </trkpt>
      <trkpt lat="47.78419" lon="2.28926">
        <ele>116</ele>
        <time>2017-05-07T07:41:58.360Z</time>
      </trkpt>
      <trkpt lat="47.7842" lon="2.28937">
        <ele>116</ele>
        <time>2017-05-07T07:41:59.382Z</time>
      </trkpt>
      <trkpt lat="47.7842" lon="2.28937">
        <ele>116</ele>
        <time>2017-05-07T07:42:00.380Z</time>
      </trkpt>
      <trkpt lat="47.7842" lon="2.28946">
        <ele>117</ele>
        <time>2017-05-07T07:42:01.377Z</time>
      </trkpt>
      <trkpt lat="47.78421" lon="2.28951">
        <ele>117</ele>
        <time>2017-05-07T07:42:02.380Z</time>
      </trkpt>
      <trkpt lat="47.78421" lon="2.28951">
        <ele>117</ele>
        <time>2017-05-07T07:42:03.386Z</time>
      </trkpt>
      <trkpt lat="47.78422" lon="2.2896">
        <ele>117</ele>
        <time>2017-05-07T07:42:04.391Z</time>
      </trkpt>
      <trkpt lat="47.78422" lon="2.2896">
        <ele>117</ele>
        <time>2017-05-07T07:42:05.361Z</time>
      </trkpt>
      <trkpt lat="47.78421" lon="2.28968">
        <ele>116</ele>
        <time>2017-05-07T07:42:06.370Z</time>
      </trkpt>
      <trkpt lat="47.78421" lon="2.28968">
        <ele>116</ele>
        <time>2017-05-07T07:42:07.377Z</time>
      </trkpt>
      <trkpt lat="47.78416" lon="2.28972">
        <ele>117</ele>
        <time>2017-05-07T07:42:08.384Z</time>
      </trkpt>
      <trkpt lat="47.78413" lon="2.28972">
        <ele>117</ele>
        <time>2017-05-07T07:42:09.390Z</time>
      </trkpt>
      <trkpt lat="47.7841" lon="2.28972">
        <ele>116</ele>
        <time>2017-05-07T07:42:10.356Z</time>
      </trkpt>
      <trkpt lat="47.7841" lon="2.28972">
        <ele>116</ele>
        <time>2017-05-07T07:42:11.391Z</time>
      </trkpt>
      <trkpt lat="47.78403" lon="2.28971">
        <ele>117</ele>
        <time>2017-05-07T07:42:12.359Z</time>
      </trkpt>
      <trkpt lat="47.78403" lon="2.28971">
        <ele>117</ele>
        <time>2017-05-07T07:42:13.355Z</time>
      </trkpt>
      <trkpt lat="47.78396" lon="2.28971">
        <ele>117</ele>
        <time>2017-05-07T07:42:14.391Z</time>
      </trkpt>
      <trkpt lat="47.78396" lon="2.28971">
        <ele>117</ele>
        <time>2017-05-07T07:42:15.385Z</time>
      </trkpt>
      <trkpt lat="47.7839" lon="2.28971">
        <ele>117</ele>
        <time>2017-05-07T07:42:16.385Z</time>
      </trkpt>
      <trkpt lat="47.7839" lon="2.28971">
        <ele>117</ele>
        <time>2017-05-07T07:42:17.386Z</time>
      </trkpt>
      <trkpt lat="47.78384" lon="2.2897">
        <ele>117</ele>
        <time>2017-05-07T07:42:18.357Z</time>
      </trkpt>
      <trkpt lat="47.78384" lon="2.2897">
        <ele>117</ele>
        <time>2017-05-07T07:42:19.368Z</time>
      </trkpt>
      <trkpt lat="47.78378" lon="2.2897">
        <ele>117</ele>
        <time>2017-05-07T07:42:20.358Z</time>
      </trkpt>
      <trkpt lat="47.78376" lon="2.2897">
        <ele>117</ele>
        <time>2017-05-07T07:42:21.387Z</time>
      </trkpt>
      <trkpt lat="47.78376" lon="2.2897">
        <ele>117</ele>
        <time>2017-05-07T07:42:22.387Z</time>
      </trkpt>
      <trkpt lat="47.7837" lon="2.28969">
        <ele>117</ele>
        <time>2017-05-07T07:42:23.385Z</time>
      </trkpt>
      <trkpt lat="47.7837" lon="2.28969">
        <ele>117</ele>
        <time>2017-05-07T07:42:24.377Z</time>
      </trkpt>
      <trkpt lat="47.78363" lon="2.28969">
        <ele>117</ele>
        <time>2017-05-07T07:42:25.369Z</time>
      </trkpt>
      <trkpt lat="47.78363" lon="2.28969">
        <ele>117</ele>
        <time>2017-05-07T07:42:26.374Z</time>
      </trkpt>
      <trkpt lat="47.78355" lon="2.28969">
        <ele>117</ele>
        <time>2017-05-07T07:42:27.375Z</time>
      </trkpt>
      <trkpt lat="47.78355" lon="2.28969">
        <ele>117</ele>
        <time>2017-05-07T07:42:28.373Z</time>
      </trkpt>
      <trkpt lat="47.78348" lon="2.28969">
        <ele>117</ele>
        <time>2017-05-07T07:42:29.362Z</time>
      </trkpt>
      <trkpt lat="47.78344" lon="2.28968">
        <ele>117</ele>
        <time>2017-05-07T07:42:30.357Z</time>
      </trkpt>
      <trkpt lat="47.78344" lon="2.28968">
        <ele>117</ele>
        <time>2017-05-07T07:42:31.389Z</time>
      </trkpt>
      <trkpt lat="47.78336" lon="2.28968">
        <ele>117</ele>
        <time>2017-05-07T07:42:32.386Z</time>
      </trkpt>
      <trkpt lat="47.78332" lon="2.28968">
        <ele>117</ele>
        <time>2017-05-07T07:42:33.384Z</time>
      </trkpt>
      <trkpt lat="47.78328" lon="2.28968">
        <ele>117</ele>
        <time>2017-05-07T07:42:34.373Z</time>
      </trkpt>
      <trkpt lat="47.78328" lon="2.28968">
        <ele>117</ele>
        <time>2017-05-07T07:42:35.373Z</time>
      </trkpt>
      <trkpt lat="47.78319" lon="2.28968">
        <ele>117</ele>
        <time>2017-05-07T07:42:36.391Z</time>
      </trkpt>
      <trkpt lat="47.78319" lon="2.28968">
        <ele>117</ele>
        <time>2017-05-07T07:42:37.379Z</time>
      </trkpt>
      <trkpt lat="47.7831" lon="2.28968">
        <ele>117</ele>
        <time>2017-05-07T07:42:38.369Z</time>
      </trkpt>
      <trkpt lat="47.78305" lon="2.28968">
        <ele>117</ele>
        <time>2017-05-07T07:42:39.357Z</time>
      </trkpt>
      <trkpt lat="47.78301" lon="2.28968">
        <ele>117</ele>
        <time>2017-05-07T07:42:40.387Z</time>
      </trkpt>
      <trkpt lat="47.78301" lon="2.28968">
        <ele>117</ele>
        <time>2017-05-07T07:42:41.392Z</time>
      </trkpt>
      <trkpt lat="47.78292" lon="2.28968">
        <ele>117</ele>
        <time>2017-05-07T07:42:42.358Z</time>
      </trkpt>
      <trkpt lat="47.78292" lon="2.28968">
        <ele>117</ele>
        <time>2017-05-07T07:42:43.364Z</time>
      </trkpt>
      <trkpt lat="47.78284" lon="2.28968">
        <ele>117</ele>
        <time>2017-05-07T07:42:44.370Z</time>
      </trkpt>
      <trkpt lat="47.78279" lon="2.28968">
        <ele>117</ele>
        <time>2017-05-07T07:42:45.358Z</time>
      </trkpt>
      <trkpt lat="47.78275" lon="2.28968">
        <ele>117</ele>
        <time>2017-05-07T07:42:46.387Z</time>
      </trkpt>
      <trkpt lat="47.78275" lon="2.28968">
        <ele>117</ele>
        <time>2017-05-07T07:42:47.375Z</time>
      </trkpt>
      <trkpt lat="47.78267" lon="2.28968">
        <ele>117</ele>
        <time>2017-05-07T07:42:48.368Z</time>
      </trkpt>
      <trkpt lat="47.78267" lon="2.28968">
        <ele>117</ele>
        <time>2017-05-07T07:42:49.355Z</time>
      </trkpt>
      <trkpt lat="47.78259" lon="2.28968">
        <ele>116</ele>
        <time>2017-05-07T07:42:50.384Z</time>
      </trkpt>
      <trkpt lat="47.78259" lon="2.28968">
        <ele>116</ele>
        <time>2017-05-07T07:42:51.358Z</time>
      </trkpt>
      <trkpt lat="47.78252" lon="2.28968">
        <ele>117</ele>
        <time>2017-05-07T07:42:52.388Z</time>
      </trkpt>
      <trkpt lat="47.78252" lon="2.28968">
        <ele>117</ele>
        <time>2017-05-07T07:42:53.377Z</time>
      </trkpt>
      <trkpt lat="47.78246" lon="2.28972">
        <ele>117</ele>
        <time>2017-05-07T07:42:54.366Z</time>
      </trkpt>
      <trkpt lat="47.78246" lon="2.28972">
        <ele>117</ele>
        <time>2017-05-07T07:42:55.355Z</time>
      </trkpt>
      <trkpt lat="47.78243" lon="2.28981">
        <ele>117</ele>
        <time>2017-05-07T07:42:56.386Z</time>
      </trkpt>
      <trkpt lat="47.78243" lon="2.28981">
        <ele>117</ele>
        <time>2017-05-07T07:42:57.374Z</time>
      </trkpt>
      <trkpt lat="47.78244" lon="2.28992">
        <ele>117</ele>
        <time>2017-05-07T07:42:58.363Z</time>
      </trkpt>
      <trkpt lat="47.78244" lon="2.28992">
        <ele>117</ele>
        <time>2017-05-07T07:42:59.365Z</time>
      </trkpt>
      <trkpt lat="47.78244" lon="2.29005">
        <ele>116</ele>
        <time>2017-05-07T07:43:00.362Z</time>
      </trkpt>
      <trkpt lat="47.78245" lon="2.29012">
        <ele>116</ele>
        <time>2017-05-07T07:43:01.392Z</time>
      </trkpt>
      <trkpt lat="47.78245" lon="2.29012">
        <ele>116</ele>
        <time>2017-05-07T07:43:02.380Z</time>
      </trkpt>
      <trkpt lat="47.78246" lon="2.29025">
        <ele>116</ele>
        <time>2017-05-07T07:43:03.378Z</time>
      </trkpt>
      <trkpt lat="47.78246" lon="2.29031">
        <ele>116</ele>
        <time>2017-05-07T07:43:04.372Z</time>
      </trkpt>
      <trkpt lat="47.78246" lon="2.29031">
        <ele>116</ele>
        <time>2017-05-07T07:43:05.361Z</time>
      </trkpt>
      <trkpt lat="47.78247" lon="2.29043">
        <ele>116</ele>
        <time>2017-05-07T07:43:06.389Z</time>
      </trkpt>
      <trkpt lat="47.78247" lon="2.29043">
        <ele>116</ele>
        <time>2017-05-07T07:43:07.378Z</time>
      </trkpt>
      <trkpt lat="47.78248" lon="2.29056">
        <ele>116</ele>
        <time>2017-05-07T07:43:08.370Z</time>
      </trkpt>
      <trkpt lat="47.78248" lon="2.29056">
        <ele>116</ele>
        <time>2017-05-07T07:43:09.358Z</time>
      </trkpt>
      <trkpt lat="47.78249" lon="2.2907">
        <ele>116</ele>
        <time>2017-05-07T07:43:10.389Z</time>
      </trkpt>
      <trkpt lat="47.78249" lon="2.2907">
        <ele>116</ele>
        <time>2017-05-07T07:43:11.378Z</time>
      </trkpt>
      <trkpt lat="47.78249" lon="2.29082">
        <ele>116</ele>
        <time>2017-05-07T07:43:12.382Z</time>
      </trkpt>
      <trkpt lat="47.7825" lon="2.29089">
        <ele>116</ele>
        <time>2017-05-07T07:43:13.370Z</time>
      </trkpt>
      <trkpt lat="47.7825" lon="2.29089">
        <ele>116</ele>
        <time>2017-05-07T07:43:14.365Z</time>
      </trkpt>
      <trkpt lat="47.78251" lon="2.29103">
        <ele>116</ele>
        <time>2017-05-07T07:43:15.392Z</time>
      </trkpt>
      <trkpt lat="47.78252" lon="2.2911">
        <ele>116</ele>
        <time>2017-05-07T07:43:16.393Z</time>
      </trkpt>
      <trkpt lat="47.78252" lon="2.2911">
        <ele>116</ele>
        <time>2017-05-07T07:43:17.381Z</time>
      </trkpt>
      <trkpt lat="47.78252" lon="2.29123">
        <ele>116</ele>
        <time>2017-05-07T07:43:18.377Z</time>
      </trkpt>
      <trkpt lat="47.78252" lon="2.29123">
        <ele>116</ele>
        <time>2017-05-07T07:43:19.367Z</time>
      </trkpt>
      <trkpt lat="47.78254" lon="2.29136">
        <ele>116</ele>
        <time>2017-05-07T07:43:20.355Z</time>
      </trkpt>
      <trkpt lat="47.78254" lon="2.29136">
        <ele>116</ele>
        <time>2017-05-07T07:43:21.383Z</time>
      </trkpt>
      <trkpt lat="47.78255" lon="2.2915">
        <ele>116</ele>
        <time>2017-05-07T07:43:22.368Z</time>
      </trkpt>
      <trkpt lat="47.78255" lon="2.29157">
        <ele>116</ele>
        <time>2017-05-07T07:43:23.359Z</time>
      </trkpt>
      <trkpt lat="47.78255" lon="2.29157">
        <ele>116</ele>
        <time>2017-05-07T07:43:24.389Z</time>
      </trkpt>
      <trkpt lat="47.78256" lon="2.29171">
        <ele>117</ele>
        <time>2017-05-07T07:43:25.390Z</time>
      </trkpt>
      <trkpt lat="47.78256" lon="2.29171">
        <ele>117</ele>
        <time>2017-05-07T07:43:26.379Z</time>
      </trkpt>
      <trkpt lat="47.78257" lon="2.29186">
        <ele>117</ele>
        <time>2017-05-07T07:43:27.384Z</time>
      </trkpt>
      <trkpt lat="47.78258" lon="2.29193">
        <ele>117</ele>
        <time>2017-05-07T07:43:28.383Z</time>
      </trkpt>
      <trkpt lat="47.78258" lon="2.29193">
        <ele>117</ele>
        <time>2017-05-07T07:43:29.374Z</time>
      </trkpt>
      <trkpt lat="47.78258" lon="2.29207">
        <ele>117</ele>
        <time>2017-05-07T07:43:30.373Z</time>
      </trkpt>
      <trkpt lat="47.78259" lon="2.29214">
        <ele>117</ele>
        <time>2017-05-07T07:43:31.362Z</time>
      </trkpt>
      <trkpt lat="47.78259" lon="2.29214">
        <ele>117</ele>
        <time>2017-05-07T07:43:32.391Z</time>
      </trkpt>
      <trkpt lat="47.7826" lon="2.2923">
        <ele>117</ele>
        <time>2017-05-07T07:43:33.378Z</time>
      </trkpt>
      <trkpt lat="47.7826" lon="2.29238">
        <ele>117</ele>
        <time>2017-05-07T07:43:34.366Z</time>
      </trkpt>
      <trkpt lat="47.7826" lon="2.29238">
        <ele>117</ele>
        <time>2017-05-07T07:43:35.359Z</time>
      </trkpt>
      <trkpt lat="47.78261" lon="2.29256">
        <ele>117</ele>
        <time>2017-05-07T07:43:36.388Z</time>
      </trkpt>
      <trkpt lat="47.78261" lon="2.29256">
        <ele>117</ele>
        <time>2017-05-07T07:43:37.376Z</time>
      </trkpt>
      <trkpt lat="47.78262" lon="2.29272">
        <ele>118</ele>
        <time>2017-05-07T07:43:38.366Z</time>
      </trkpt>
      <trkpt lat="47.78262" lon="2.29281">
        <ele>118</ele>
        <time>2017-05-07T07:43:39.355Z</time>
      </trkpt>
      <trkpt lat="47.78263" lon="2.29289">
        <ele>118</ele>
        <time>2017-05-07T07:43:40.389Z</time>
      </trkpt>
      <trkpt lat="47.78263" lon="2.29289">
        <ele>118</ele>
        <time>2017-05-07T07:43:41.377Z</time>
      </trkpt>
      <trkpt lat="47.78263" lon="2.29306">
        <ele>118</ele>
        <time>2017-05-07T07:43:42.365Z</time>
      </trkpt>
      <trkpt lat="47.78264" lon="2.29314">
        <ele>118</ele>
        <time>2017-05-07T07:43:43.386Z</time>
      </trkpt>
      <trkpt lat="47.78264" lon="2.29314">
        <ele>118</ele>
        <time>2017-05-07T07:43:44.373Z</time>
      </trkpt>
      <trkpt lat="47.78265" lon="2.2933">
        <ele>118</ele>
        <time>2017-05-07T07:43:45.375Z</time>
      </trkpt>
      <trkpt lat="47.78265" lon="2.29338">
        <ele>118</ele>
        <time>2017-05-07T07:43:46.368Z</time>
      </trkpt>
      <trkpt lat="47.78265" lon="2.29338">
        <ele>118</ele>
        <time>2017-05-07T07:43:47.376Z</time>
      </trkpt>
      <trkpt lat="47.78266" lon="2.29355">
        <ele>118</ele>
        <time>2017-05-07T07:43:48.366Z</time>
      </trkpt>
      <trkpt lat="47.78266" lon="2.29355">
        <ele>118</ele>
        <time>2017-05-07T07:43:49.355Z</time>
      </trkpt>
      <trkpt lat="47.78267" lon="2.29371">
        <ele>119</ele>
        <time>2017-05-07T07:43:50.386Z</time>
      </trkpt>
      <trkpt lat="47.78267" lon="2.29371">
        <ele>119</ele>
        <time>2017-05-07T07:43:51.379Z</time>
      </trkpt>
      <trkpt lat="47.78268" lon="2.29387">
        <ele>119</ele>
        <time>2017-05-07T07:43:52.370Z</time>
      </trkpt>
      <trkpt lat="47.78268" lon="2.29387">
        <ele>119</ele>
        <time>2017-05-07T07:43:53.374Z</time>
      </trkpt>
      <trkpt lat="47.78268" lon="2.29403">
        <ele>119</ele>
        <time>2017-05-07T07:43:54.366Z</time>
      </trkpt>
      <trkpt lat="47.78268" lon="2.29403">
        <ele>119</ele>
        <time>2017-05-07T07:43:55.356Z</time>
      </trkpt>
      <trkpt lat="47.78269" lon="2.29419">
        <ele>119</ele>
        <time>2017-05-07T07:43:56.386Z</time>
      </trkpt>
      <trkpt lat="47.7827" lon="2.29427">
        <ele>119</ele>
        <time>2017-05-07T07:43:57.393Z</time>
      </trkpt>
      <trkpt lat="47.7827" lon="2.29427">
        <ele>119</ele>
        <time>2017-05-07T07:43:58.381Z</time>
      </trkpt>
      <trkpt lat="47.78271" lon="2.29444">
        <ele>119</ele>
        <time>2017-05-07T07:43:59.393Z</time>
      </trkpt>
      <trkpt lat="47.78271" lon="2.29444">
        <ele>119</ele>
        <time>2017-05-07T07:44:00.356Z</time>
      </trkpt>
      <trkpt lat="47.78271" lon="2.29461">
        <ele>119</ele>
        <time>2017-05-07T07:44:01.387Z</time>
      </trkpt>
      <trkpt lat="47.78271" lon="2.29469">
        <ele>120</ele>
        <time>2017-05-07T07:44:02.385Z</time>
      </trkpt>
      <trkpt lat="47.78271" lon="2.29469">
        <ele>120</ele>
        <time>2017-05-07T07:44:03.374Z</time>
      </trkpt>
      <trkpt lat="47.7827" lon="2.29484">
        <ele>120</ele>
        <time>2017-05-07T07:44:04.366Z</time>
      </trkpt>
      <trkpt lat="47.7827" lon="2.29491">
        <ele>120</ele>
        <time>2017-05-07T07:44:05.357Z</time>
      </trkpt>
      <trkpt lat="47.7827" lon="2.29491">
        <ele>120</ele>
        <time>2017-05-07T07:44:06.384Z</time>
      </trkpt>
      <trkpt lat="47.78269" lon="2.29506">
        <ele>120</ele>
        <time>2017-05-07T07:44:07.393Z</time>
      </trkpt>
      <trkpt lat="47.78269" lon="2.29506">
        <ele>120</ele>
        <time>2017-05-07T07:44:08.380Z</time>
      </trkpt>
      <trkpt lat="47.78268" lon="2.29521">
        <ele>120</ele>
        <time>2017-05-07T07:44:09.375Z</time>
      </trkpt>
      <trkpt lat="47.78268" lon="2.29528">
        <ele>120</ele>
        <time>2017-05-07T07:44:10.370Z</time>
      </trkpt>
      <trkpt lat="47.78268" lon="2.29528">
        <ele>120</ele>
        <time>2017-05-07T07:44:11.359Z</time>
      </trkpt>
      <trkpt lat="47.78267" lon="2.29541">
        <ele>120</ele>
        <time>2017-05-07T07:44:12.357Z</time>
      </trkpt>
      <trkpt lat="47.78267" lon="2.29541">
        <ele>120</ele>
        <time>2017-05-07T07:44:13.387Z</time>
      </trkpt>
      <trkpt lat="47.78267" lon="2.29553">
        <ele>120</ele>
        <time>2017-05-07T07:44:14.375Z</time>
      </trkpt>
      <trkpt lat="47.78266" lon="2.29558">
        <ele>120</ele>
        <time>2017-05-07T07:44:15.366Z</time>
      </trkpt>
      <trkpt lat="47.78266" lon="2.29558">
        <ele>120</ele>
        <time>2017-05-07T07:44:16.393Z</time>
      </trkpt>
      <trkpt lat="47.78267" lon="2.29567">
        <ele>120</ele>
        <time>2017-05-07T07:44:17.382Z</time>
      </trkpt>
      <trkpt lat="47.78267" lon="2.29572">
        <ele>120</ele>
        <time>2017-05-07T07:44:18.372Z</time>
      </trkpt>
      <trkpt lat="47.78267" lon="2.29572">
        <ele>120</ele>
        <time>2017-05-07T07:44:19.361Z</time>
      </trkpt>
      <trkpt lat="47.78266" lon="2.29583">
        <ele>120</ele>
        <time>2017-05-07T07:44:20.392Z</time>
      </trkpt>
      <trkpt lat="47.78266" lon="2.29583">
        <ele>120</ele>
        <time>2017-05-07T07:44:21.379Z</time>
      </trkpt>
      <trkpt lat="47.78262" lon="2.29593">
        <ele>120</ele>
        <time>2017-05-07T07:44:22.368Z</time>
      </trkpt>
      <trkpt lat="47.78262" lon="2.29593">
        <ele>120</ele>
        <time>2017-05-07T07:44:23.355Z</time>
      </trkpt>
      <trkpt lat="47.78255" lon="2.29599">
        <ele>119</ele>
        <time>2017-05-07T07:44:24.365Z</time>
      </trkpt>
      <trkpt lat="47.78251" lon="2.29599">
        <ele>119</ele>
        <time>2017-05-07T07:44:25.361Z</time>
      </trkpt>
      <trkpt lat="47.78251" lon="2.29599">
        <ele>119</ele>
        <time>2017-05-07T07:44:26.389Z</time>
      </trkpt>
      <trkpt lat="47.78243" lon="2.29594">
        <ele>119</ele>
        <time>2017-05-07T07:44:27.388Z</time>
      </trkpt>
      <trkpt lat="47.78239" lon="2.29591">
        <ele>119</ele>
        <time>2017-05-07T07:44:28.382Z</time>
      </trkpt>
      <trkpt lat="47.78239" lon="2.29591">
        <ele>119</ele>
        <time>2017-05-07T07:44:29.372Z</time>
      </trkpt>
      <trkpt lat="47.78231" lon="2.29584">
        <ele>119</ele>
        <time>2017-05-07T07:44:30.362Z</time>
      </trkpt>
      <trkpt lat="47.78227" lon="2.2958">
        <ele>119</ele>
        <time>2017-05-07T07:44:31.391Z</time>
      </trkpt>
      <trkpt lat="47.78227" lon="2.2958">
        <ele>119</ele>
        <time>2017-05-07T07:44:32.379Z</time>
      </trkpt>
      <trkpt lat="47.78218" lon="2.29574">
        <ele>119</ele>
        <time>2017-05-07T07:44:33.379Z</time>
      </trkpt>
      <trkpt lat="47.78214" lon="2.2957">
        <ele>119</ele>
        <time>2017-05-07T07:44:34.367Z</time>
      </trkpt>
      <trkpt lat="47.78214" lon="2.2957">
        <ele>119</ele>
        <time>2017-05-07T07:44:35.356Z</time>
      </trkpt>
      <trkpt lat="47.78204" lon="2.29563">
        <ele>119</ele>
        <time>2017-05-07T07:44:36.384Z</time>
      </trkpt>
      <trkpt lat="47.782" lon="2.2956">
        <ele>118</ele>
        <time>2017-05-07T07:44:37.390Z</time>
      </trkpt>
      <trkpt lat="47.782" lon="2.2956">
        <ele>118</ele>
        <time>2017-05-07T07:44:38.379Z</time>
      </trkpt>
      <trkpt lat="47.7819" lon="2.29552">
        <ele>118</ele>
        <time>2017-05-07T07:44:39.382Z</time>
      </trkpt>
      <trkpt lat="47.78186" lon="2.29548">
        <ele>118</ele>
        <time>2017-05-07T07:44:40.384Z</time>
      </trkpt>
      <trkpt lat="47.78186" lon="2.29548">
        <ele>118</ele>
        <time>2017-05-07T07:44:41.373Z</time>
      </trkpt>
      <trkpt lat="47.78177" lon="2.2954">
        <ele>118</ele>
        <time>2017-05-07T07:44:42.370Z</time>
      </trkpt>
      <trkpt lat="47.78177" lon="2.2954">
        <ele>118</ele>
        <time>2017-05-07T07:44:43.359Z</time>
      </trkpt>
      <trkpt lat="47.78168" lon="2.29531">
        <ele>118</ele>
        <time>2017-05-07T07:44:44.386Z</time>
      </trkpt>
      <trkpt lat="47.78164" lon="2.29526">
        <ele>118</ele>
        <time>2017-05-07T07:44:45.365Z</time>
      </trkpt>
      <trkpt lat="47.7816" lon="2.2952">
        <ele>118</ele>
        <time>2017-05-07T07:44:46.355Z</time>
      </trkpt>
      <trkpt lat="47.7816" lon="2.2952">
        <ele>118</ele>
        <time>2017-05-07T07:44:47.384Z</time>
      </trkpt>
      <trkpt lat="47.78153" lon="2.29509">
        <ele>118</ele>
        <time>2017-05-07T07:44:48.381Z</time>
      </trkpt>
      <trkpt lat="47.78153" lon="2.29509">
        <ele>118</ele>
        <time>2017-05-07T07:44:49.365Z</time>
      </trkpt>
      <trkpt lat="47.78145" lon="2.29498">
        <ele>118</ele>
        <time>2017-05-07T07:44:50.394Z</time>
      </trkpt>
      <trkpt lat="47.78145" lon="2.29498">
        <ele>118</ele>
        <time>2017-05-07T07:44:51.393Z</time>
      </trkpt>
      <trkpt lat="47.78138" lon="2.29487">
        <ele>119</ele>
        <time>2017-05-07T07:44:52.387Z</time>
      </trkpt>
      <trkpt lat="47.78138" lon="2.29487">
        <ele>119</ele>
        <time>2017-05-07T07:44:53.376Z</time>
      </trkpt>
      <trkpt lat="47.78129" lon="2.29478">
        <ele>119</ele>
        <time>2017-05-07T07:44:54.384Z</time>
      </trkpt>
      <trkpt lat="47.78124" lon="2.29475">
        <ele>119</ele>
        <time>2017-05-07T07:44:55.356Z</time>
      </trkpt>
      <trkpt lat="47.78124" lon="2.29475">
        <ele>119</ele>
        <time>2017-05-07T07:44:56.384Z</time>
      </trkpt>
      <trkpt lat="47.78115" lon="2.29468">
        <ele>119</ele>
        <time>2017-05-07T07:44:57.379Z</time>
      </trkpt>
      <trkpt lat="47.7811" lon="2.29465">
        <ele>119</ele>
        <time>2017-05-07T07:44:58.367Z</time>
      </trkpt>
      <trkpt lat="47.78102" lon="2.29458">
        <ele>119</ele>
        <time>2017-05-07T07:44:59.381Z</time>
      </trkpt>
      <trkpt lat="47.78102" lon="2.29458">
        <ele>119</ele>
        <time>2017-05-07T07:45:00.390Z</time>
      </trkpt>
      <trkpt lat="47.78102" lon="2.29458">
        <ele>119</ele>
        <time>2017-05-07T07:45:01.380Z</time>
      </trkpt>
      <trkpt lat="47.78092" lon="2.29451">
        <ele>118</ele>
        <time>2017-05-07T07:45:02.379Z</time>
      </trkpt>
      <trkpt lat="47.78092" lon="2.29451">
        <ele>118</ele>
        <time>2017-05-07T07:45:03.370Z</time>
      </trkpt>
      <trkpt lat="47.78083" lon="2.29444">
        <ele>118</ele>
        <time>2017-05-07T07:45:04.366Z</time>
      </trkpt>
      <trkpt lat="47.78083" lon="2.29444">
        <ele>118</ele>
        <time>2017-05-07T07:45:05.356Z</time>
      </trkpt>
      <trkpt lat="47.78074" lon="2.29438">
        <ele>117</ele>
        <time>2017-05-07T07:45:06.387Z</time>
      </trkpt>
      <trkpt lat="47.78074" lon="2.29438">
        <ele>117</ele>
        <time>2017-05-07T07:45:07.375Z</time>
      </trkpt>
      <trkpt lat="47.78065" lon="2.2943">
        <ele>117</ele>
        <time>2017-05-07T07:45:08.365Z</time>
      </trkpt>
      <trkpt lat="47.78061" lon="2.29426">
        <ele>117</ele>
        <time>2017-05-07T07:45:09.357Z</time>
      </trkpt>
      <trkpt lat="47.78061" lon="2.29426">
        <ele>117</ele>
        <time>2017-05-07T07:45:10.386Z</time>
      </trkpt>
      <trkpt lat="47.78052" lon="2.29418">
        <ele>118</ele>
        <time>2017-05-07T07:45:11.390Z</time>
      </trkpt>
      <trkpt lat="47.78052" lon="2.29418">
        <ele>118</ele>
        <time>2017-05-07T07:45:12.379Z</time>
      </trkpt>
      <trkpt lat="47.78043" lon="2.2941">
        <ele>118</ele>
        <time>2017-05-07T07:45:13.379Z</time>
      </trkpt>
      <trkpt lat="47.78038" lon="2.29405">
        <ele>118</ele>
        <time>2017-05-07T07:45:14.369Z</time>
      </trkpt>
      <trkpt lat="47.78038" lon="2.29405">
        <ele>118</ele>
        <time>2017-05-07T07:45:15.362Z</time>
      </trkpt>
      <trkpt lat="47.7803" lon="2.29398">
        <ele>118</ele>
        <time>2017-05-07T07:45:16.391Z</time>
      </trkpt>
      <trkpt lat="47.7803" lon="2.29398">
        <ele>118</ele>
        <time>2017-05-07T07:45:17.369Z</time>
      </trkpt>
      <trkpt lat="47.78022" lon="2.29391">
        <ele>118</ele>
        <time>2017-05-07T07:45:18.358Z</time>
      </trkpt>
      <trkpt lat="47.78018" lon="2.29388">
        <ele>118</ele>
        <time>2017-05-07T07:45:19.388Z</time>
      </trkpt>
      <trkpt lat="47.78018" lon="2.29388">
        <ele>118</ele>
        <time>2017-05-07T07:45:20.386Z</time>
      </trkpt>
      <trkpt lat="47.7801" lon="2.29381">
        <ele>118</ele>
        <time>2017-05-07T07:45:21.389Z</time>
      </trkpt>
      <trkpt lat="47.78006" lon="2.29378">
        <ele>118</ele>
        <time>2017-05-07T07:45:22.355Z</time>
      </trkpt>
      <trkpt lat="47.78006" lon="2.29378">
        <ele>118</ele>
        <time>2017-05-07T07:45:23.361Z</time>
      </trkpt>
      <trkpt lat="47.77998" lon="2.2937">
        <ele>118</ele>
        <time>2017-05-07T07:45:24.371Z</time>
      </trkpt>
      <trkpt lat="47.77998" lon="2.2937">
        <ele>118</ele>
        <time>2017-05-07T07:45:25.361Z</time>
      </trkpt>
      <trkpt lat="47.77991" lon="2.29362">
        <ele>118</ele>
        <time>2017-05-07T07:45:26.389Z</time>
      </trkpt>
      <trkpt lat="47.77991" lon="2.29362">
        <ele>118</ele>
        <time>2017-05-07T07:45:27.377Z</time>
      </trkpt>
      <trkpt lat="47.77984" lon="2.29355">
        <ele>118</ele>
        <time>2017-05-07T07:45:28.370Z</time>
      </trkpt>
      <trkpt lat="47.77984" lon="2.29355">
        <ele>118</ele>
        <time>2017-05-07T07:45:29.359Z</time>
      </trkpt>
      <trkpt lat="47.77977" lon="2.29348">
        <ele>118</ele>
        <time>2017-05-07T07:45:30.388Z</time>
      </trkpt>
      <trkpt lat="47.77977" lon="2.29348">
        <ele>118</ele>
        <time>2017-05-07T07:45:31.379Z</time>
      </trkpt>
      <trkpt lat="47.77969" lon="2.29342">
        <ele>119</ele>
        <time>2017-05-07T07:45:32.383Z</time>
      </trkpt>
      <trkpt lat="47.77966" lon="2.29339">
        <ele>119</ele>
        <time>2017-05-07T07:45:33.372Z</time>
      </trkpt>
      <trkpt lat="47.77966" lon="2.29339">
        <ele>119</ele>
        <time>2017-05-07T07:45:34.365Z</time>
      </trkpt>
      <trkpt lat="47.77959" lon="2.29333">
        <ele>119</ele>
        <time>2017-05-07T07:45:35.392Z</time>
      </trkpt>
      <trkpt lat="47.77956" lon="2.2933">
        <ele>119</ele>
        <time>2017-05-07T07:45:36.380Z</time>
      </trkpt>
      <trkpt lat="47.77952" lon="2.29329">
        <ele>119</ele>
        <time>2017-05-07T07:45:37.369Z</time>
      </trkpt>
      <trkpt lat="47.77952" lon="2.29329">
        <ele>119</ele>
        <time>2017-05-07T07:45:38.357Z</time>
      </trkpt>
      <trkpt lat="47.77946" lon="2.29331">
        <ele>119</ele>
        <time>2017-05-07T07:45:39.362Z</time>
      </trkpt>
      <trkpt lat="47.77944" lon="2.29335">
        <ele>120</ele>
        <time>2017-05-07T07:45:40.369Z</time>
      </trkpt>
      <trkpt lat="47.77944" lon="2.29335">
        <ele>120</ele>
        <time>2017-05-07T07:45:41.376Z</time>
      </trkpt>
      <trkpt lat="47.77941" lon="2.29345">
        <ele>119</ele>
        <time>2017-05-07T07:45:42.393Z</time>
      </trkpt>
      <trkpt lat="47.77941" lon="2.29345">
        <ele>119</ele>
        <time>2017-05-07T07:45:43.390Z</time>
      </trkpt>
      <trkpt lat="47.77938" lon="2.29357">
        <ele>120</ele>
        <time>2017-05-07T07:45:44.391Z</time>
      </trkpt>
      <trkpt lat="47.77936" lon="2.29363">
        <ele>120</ele>
        <time>2017-05-07T07:45:45.358Z</time>
      </trkpt>
      <trkpt lat="47.77934" lon="2.29369">
        <ele>121</ele>
        <time>2017-05-07T07:45:46.366Z</time>
      </trkpt>
      <trkpt lat="47.77934" lon="2.29369">
        <ele>121</ele>
        <time>2017-05-07T07:45:47.361Z</time>
      </trkpt>
      <trkpt lat="47.7793" lon="2.29383">
        <ele>120</ele>
        <time>2017-05-07T07:45:48.355Z</time>
      </trkpt>
      <trkpt lat="47.77928" lon="2.2939">
        <ele>120</ele>
        <time>2017-05-07T07:45:49.364Z</time>
      </trkpt>
      <trkpt lat="47.77926" lon="2.29396">
        <ele>120</ele>
        <time>2017-05-07T07:45:50.362Z</time>
      </trkpt>
      <trkpt lat="47.77926" lon="2.29396">
        <ele>120</ele>
        <time>2017-05-07T07:45:51.362Z</time>
      </trkpt>
      <trkpt lat="47.77921" lon="2.2941">
        <ele>120</ele>
        <time>2017-05-07T07:45:52.385Z</time>
      </trkpt>
      <trkpt lat="47.77919" lon="2.29417">
        <ele>120</ele>
        <time>2017-05-07T07:45:53.383Z</time>
      </trkpt>
      <trkpt lat="47.77919" lon="2.29417">
        <ele>120</ele>
        <time>2017-05-07T07:45:54.362Z</time>
      </trkpt>
      <trkpt lat="47.77915" lon="2.29431">
        <ele>119</ele>
        <time>2017-05-07T07:45:55.380Z</time>
      </trkpt>
      <trkpt lat="47.77915" lon="2.29431">
        <ele>119</ele>
        <time>2017-05-07T07:45:56.377Z</time>
      </trkpt>
      <trkpt lat="47.77911" lon="2.29445">
        <ele>119</ele>
        <time>2017-05-07T07:45:57.383Z</time>
      </trkpt>
      <trkpt lat="47.77909" lon="2.29452">
        <ele>119</ele>
        <time>2017-05-07T07:45:58.386Z</time>
      </trkpt>
      <trkpt lat="47.77909" lon="2.29452">
        <ele>119</ele>
        <time>2017-05-07T07:45:59.357Z</time>
      </trkpt>
      <trkpt lat="47.77905" lon="2.29466">
        <ele>120</ele>
        <time>2017-05-07T07:46:00.372Z</time>
      </trkpt>
      <trkpt lat="47.77905" lon="2.29466">
        <ele>120</ele>
        <time>2017-05-07T07:46:01.380Z</time>
      </trkpt>
      <trkpt lat="47.77901" lon="2.29481">
        <ele>120</ele>
        <time>2017-05-07T07:46:02.384Z</time>
      </trkpt>
      <trkpt lat="47.77899" lon="2.29487">
        <ele>120</ele>
        <time>2017-05-07T07:46:03.387Z</time>
      </trkpt>
      <trkpt lat="47.77897" lon="2.29495">
        <ele>120</ele>
        <time>2017-05-07T07:46:04.378Z</time>
      </trkpt>
      <trkpt lat="47.77897" lon="2.29495">
        <ele>120</ele>
        <time>2017-05-07T07:46:05.377Z</time>
      </trkpt>
      <trkpt lat="47.77893" lon="2.2951">
        <ele>120</ele>
        <time>2017-05-07T07:46:06.386Z</time>
      </trkpt>
      <trkpt lat="47.77893" lon="2.2951">
        <ele>120</ele>
        <time>2017-05-07T07:46:07.392Z</time>
      </trkpt>
      <trkpt lat="47.77888" lon="2.29524">
        <ele>119</ele>
        <time>2017-05-07T07:46:08.388Z</time>
      </trkpt>
      <trkpt lat="47.77888" lon="2.29524">
        <ele>119</ele>
        <time>2017-05-07T07:46:09.386Z</time>
      </trkpt>
      <trkpt lat="47.77884" lon="2.29538">
        <ele>119</ele>
        <time>2017-05-07T07:46:10.390Z</time>
      </trkpt>
      <trkpt lat="47.77884" lon="2.29538">
        <ele>119</ele>
        <time>2017-05-07T07:46:11.387Z</time>
      </trkpt>
      <trkpt lat="47.77879" lon="2.29553">
        <ele>119</ele>
        <time>2017-05-07T07:46:12.382Z</time>
      </trkpt>
      <trkpt lat="47.77879" lon="2.29553">
        <ele>119</ele>
        <time>2017-05-07T07:46:13.393Z</time>
      </trkpt>
      <trkpt lat="47.77875" lon="2.29567">
        <ele>119</ele>
        <time>2017-05-07T07:46:14.375Z</time>
      </trkpt>
      <trkpt lat="47.77872" lon="2.29575">
        <ele>119</ele>
        <time>2017-05-07T07:46:15.383Z</time>
      </trkpt>
      <trkpt lat="47.7787" lon="2.29583">
        <ele>119</ele>
        <time>2017-05-07T07:46:16.390Z</time>
      </trkpt>
      <trkpt lat="47.7787" lon="2.29583">
        <ele>119</ele>
        <time>2017-05-07T07:46:17.388Z</time>
      </trkpt>
      <trkpt lat="47.77865" lon="2.29597">
        <ele>119</ele>
        <time>2017-05-07T07:46:18.394Z</time>
      </trkpt>
      <trkpt lat="47.77863" lon="2.29605">
        <ele>119</ele>
        <time>2017-05-07T07:46:19.363Z</time>
      </trkpt>
      <trkpt lat="47.77863" lon="2.29605">
        <ele>119</ele>
        <time>2017-05-07T07:46:20.374Z</time>
      </trkpt>
      <trkpt lat="47.77859" lon="2.29619">
        <ele>119</ele>
        <time>2017-05-07T07:46:21.381Z</time>
      </trkpt>
      <trkpt lat="47.77857" lon="2.29626">
        <ele>119</ele>
        <time>2017-05-07T07:46:22.386Z</time>
      </trkpt>
      <trkpt lat="47.77857" lon="2.29626">
        <ele>119</ele>
        <time>2017-05-07T07:46:23.384Z</time>
      </trkpt>
      <trkpt lat="47.77853" lon="2.2964">
        <ele>119</ele>
        <time>2017-05-07T07:46:24.359Z</time>
      </trkpt>
      <trkpt lat="47.77851" lon="2.29646">
        <ele>119</ele>
        <time>2017-05-07T07:46:25.355Z</time>
      </trkpt>
      <trkpt lat="47.77851" lon="2.29646">
        <ele>119</ele>
        <time>2017-05-07T07:46:26.393Z</time>
      </trkpt>
      <trkpt lat="47.77848" lon="2.29657">
        <ele>119</ele>
        <time>2017-05-07T07:46:27.394Z</time>
      </trkpt>
      <trkpt lat="47.77846" lon="2.29663">
        <ele>119</ele>
        <time>2017-05-07T07:46:28.355Z</time>
      </trkpt>
      <trkpt lat="47.77846" lon="2.29663">
        <ele>119</ele>
        <time>2017-05-07T07:46:29.364Z</time>
      </trkpt>
      <trkpt lat="47.77841" lon="2.29672">
        <ele>119</ele>
        <time>2017-05-07T07:46:30.361Z</time>
      </trkpt>
      <trkpt lat="47.77838" lon="2.29673">
        <ele>119</ele>
        <time>2017-05-07T07:46:31.360Z</time>
      </trkpt>
      <trkpt lat="47.77838" lon="2.29673">
        <ele>119</ele>
        <time>2017-05-07T07:46:32.355Z</time>
      </trkpt>
      <trkpt lat="47.77837" lon="2.29674">
        <ele>119</ele>
        <time>2017-05-07T07:46:33.360Z</time>
      </trkpt>
      <trkpt lat="47.77837" lon="2.29674">
        <ele>119</ele>
        <time>2017-05-07T07:46:34.392Z</time>
      </trkpt>
      <trkpt lat="47.77837" lon="2.29674">
        <ele>119</ele>
        <time>2017-05-07T07:46:35.391Z</time>
      </trkpt>
      <trkpt lat="47.7784" lon="2.29679">
        <ele>119</ele>
        <time>2017-05-07T07:46:36.356Z</time>
      </trkpt>
      <trkpt lat="47.7784" lon="2.29679">
        <ele>119</ele>
        <time>2017-05-07T07:46:37.356Z</time>
      </trkpt>
      <trkpt lat="47.77844" lon="2.29683">
        <ele>119</ele>
        <time>2017-05-07T07:46:38.373Z</time>
      </trkpt>
      <trkpt lat="47.77844" lon="2.29683">
        <ele>119</ele>
        <time>2017-05-07T07:46:39.372Z</time>
      </trkpt>
      <trkpt lat="47.77849" lon="2.29688">
        <ele>119</ele>
        <time>2017-05-07T07:46:40.374Z</time>
      </trkpt>
      <trkpt lat="47.77849" lon="2.29688">
        <ele>119</ele>
        <time>2017-05-07T07:46:41.366Z</time>
      </trkpt>
      <trkpt lat="47.77855" lon="2.29694">
        <ele>119</ele>
        <time>2017-05-07T07:46:42.369Z</time>
      </trkpt>
      <trkpt lat="47.77855" lon="2.29694">
        <ele>119</ele>
        <time>2017-05-07T07:46:43.367Z</time>
      </trkpt>
      <trkpt lat="47.77861" lon="2.29701">
        <ele>119</ele>
        <time>2017-05-07T07:46:44.372Z</time>
      </trkpt>
      <trkpt lat="47.77861" lon="2.29701">
        <ele>119</ele>
        <time>2017-05-07T07:46:45.371Z</time>
      </trkpt>
      <trkpt lat="47.77867" lon="2.29708">
        <ele>119</ele>
        <time>2017-05-07T07:46:46.374Z</time>
      </trkpt>
      <trkpt lat="47.77867" lon="2.29708">
        <ele>119</ele>
        <time>2017-05-07T07:46:47.373Z</time>
      </trkpt>
      <trkpt lat="47.77874" lon="2.29715">
        <ele>119</ele>
        <time>2017-05-07T07:46:48.372Z</time>
      </trkpt>
      <trkpt lat="47.77874" lon="2.29715">
        <ele>119</ele>
        <time>2017-05-07T07:46:49.370Z</time>
      </trkpt>
      <trkpt lat="47.77881" lon="2.29721">
        <ele>119</ele>
        <time>2017-05-07T07:46:50.360Z</time>
      </trkpt>
      <trkpt lat="47.77881" lon="2.29721">
        <ele>119</ele>
        <time>2017-05-07T07:46:51.359Z</time>
      </trkpt>
      <trkpt lat="47.77888" lon="2.29727">
        <ele>119</ele>
        <time>2017-05-07T07:46:52.357Z</time>
      </trkpt>
      <trkpt lat="47.77888" lon="2.29727">
        <ele>119</ele>
        <time>2017-05-07T07:46:53.362Z</time>
      </trkpt>
      <trkpt lat="47.77894" lon="2.29734">
        <ele>118</ele>
        <time>2017-05-07T07:46:54.360Z</time>
      </trkpt>
      <trkpt lat="47.77894" lon="2.29734">
        <ele>118</ele>
        <time>2017-05-07T07:46:55.358Z</time>
      </trkpt>
      <trkpt lat="47.77901" lon="2.2974">
        <ele>118</ele>
        <time>2017-05-07T07:46:56.368Z</time>
      </trkpt>
      <trkpt lat="47.77901" lon="2.2974">
        <ele>118</ele>
        <time>2017-05-07T07:46:57.367Z</time>
      </trkpt>
      <trkpt lat="47.77908" lon="2.29746">
        <ele>118</ele>
        <time>2017-05-07T07:46:58.385Z</time>
      </trkpt>
      <trkpt lat="47.77911" lon="2.2975">
        <ele>118</ele>
        <time>2017-05-07T07:46:59.364Z</time>
      </trkpt>
      <trkpt lat="47.77911" lon="2.2975">
        <ele>118</ele>
        <time>2017-05-07T07:47:00.357Z</time>
      </trkpt>
      <trkpt lat="47.77918" lon="2.29756">
        <ele>118</ele>
        <time>2017-05-07T07:47:01.371Z</time>
      </trkpt>
      <trkpt lat="47.77922" lon="2.29759">
        <ele>118</ele>
        <time>2017-05-07T07:47:02.370Z</time>
      </trkpt>
      <trkpt lat="47.77922" lon="2.29759">
        <ele>118</ele>
        <time>2017-05-07T07:47:03.368Z</time>
      </trkpt>
      <trkpt lat="47.77928" lon="2.29764">
        <ele>118</ele>
        <time>2017-05-07T07:47:04.369Z</time>
      </trkpt>
      <trkpt lat="47.77928" lon="2.29764">
        <ele>118</ele>
        <time>2017-05-07T07:47:05.368Z</time>
      </trkpt>
      <trkpt lat="47.77936" lon="2.29771">
        <ele>118</ele>
        <time>2017-05-07T07:47:06.369Z</time>
      </trkpt>
      <trkpt lat="47.77936" lon="2.29771">
        <ele>118</ele>
        <time>2017-05-07T07:47:07.368Z</time>
      </trkpt>
      <trkpt lat="47.77944" lon="2.29778">
        <ele>118</ele>
        <time>2017-05-07T07:47:08.369Z</time>
      </trkpt>
      <trkpt lat="47.77944" lon="2.29778">
        <ele>118</ele>
        <time>2017-05-07T07:47:09.369Z</time>
      </trkpt>
      <trkpt lat="47.77951" lon="2.29785">
        <ele>118</ele>
        <time>2017-05-07T07:47:10.370Z</time>
      </trkpt>
      <trkpt lat="47.77956" lon="2.29788">
        <ele>118</ele>
        <time>2017-05-07T07:47:11.370Z</time>
      </trkpt>
      <trkpt lat="47.77956" lon="2.29788">
        <ele>118</ele>
        <time>2017-05-07T07:47:12.371Z</time>
      </trkpt>
      <trkpt lat="47.77964" lon="2.29796">
        <ele>118</ele>
        <time>2017-05-07T07:47:13.390Z</time>
      </trkpt>
      <trkpt lat="47.77968" lon="2.29799">
        <ele>118</ele>
        <time>2017-05-07T07:47:14.373Z</time>
      </trkpt>
      <trkpt lat="47.77968" lon="2.29799">
        <ele>118</ele>
        <time>2017-05-07T07:47:15.371Z</time>
      </trkpt>
      <trkpt lat="47.77977" lon="2.29807">
        <ele>118</ele>
        <time>2017-05-07T07:47:16.357Z</time>
      </trkpt>
      <trkpt lat="47.77981" lon="2.2981">
        <ele>118</ele>
        <time>2017-05-07T07:47:17.362Z</time>
      </trkpt>
      <trkpt lat="47.77981" lon="2.2981">
        <ele>118</ele>
        <time>2017-05-07T07:47:18.360Z</time>
      </trkpt>
      <trkpt lat="47.77989" lon="2.2982">
        <ele>118</ele>
        <time>2017-05-07T07:47:19.365Z</time>
      </trkpt>
      <trkpt lat="47.77992" lon="2.29825">
        <ele>118</ele>
        <time>2017-05-07T07:47:20.363Z</time>
      </trkpt>
      <trkpt lat="47.77992" lon="2.29825">
        <ele>118</ele>
        <time>2017-05-07T07:47:21.361Z</time>
      </trkpt>
      <trkpt lat="47.78" lon="2.29835">
        <ele>117</ele>
        <time>2017-05-07T07:47:22.364Z</time>
      </trkpt>
      <trkpt lat="47.78" lon="2.29835">
        <ele>117</ele>
        <time>2017-05-07T07:47:23.390Z</time>
      </trkpt>
      <trkpt lat="47.78007" lon="2.29844">
        <ele>117</ele>
        <time>2017-05-07T07:47:24.378Z</time>
      </trkpt>
      <trkpt lat="47.78007" lon="2.29844">
        <ele>117</ele>
        <time>2017-05-07T07:47:25.367Z</time>
      </trkpt>
      <trkpt lat="47.78014" lon="2.29853">
        <ele>117</ele>
        <time>2017-05-07T07:47:26.363Z</time>
      </trkpt>
      <trkpt lat="47.78014" lon="2.29853">
        <ele>117</ele>
        <time>2017-05-07T07:47:27.357Z</time>
      </trkpt>
      <trkpt lat="47.78021" lon="2.29862">
        <ele>117</ele>
        <time>2017-05-07T07:47:28.375Z</time>
      </trkpt>
      <trkpt lat="47.78021" lon="2.29862">
        <ele>117</ele>
        <time>2017-05-07T07:47:29.365Z</time>
      </trkpt>
      <trkpt lat="47.78028" lon="2.29872">
        <ele>117</ele>
        <time>2017-05-07T07:47:30.362Z</time>
      </trkpt>
      <trkpt lat="47.78028" lon="2.29872">
        <ele>117</ele>
        <time>2017-05-07T07:47:31.394Z</time>
      </trkpt>
      <trkpt lat="47.78036" lon="2.29882">
        <ele>118</ele>
        <time>2017-05-07T07:47:32.384Z</time>
      </trkpt>
      <trkpt lat="47.78036" lon="2.29882">
        <ele>118</ele>
        <time>2017-05-07T07:47:33.391Z</time>
      </trkpt>
      <trkpt lat="47.78045" lon="2.29893">
        <ele>118</ele>
        <time>2017-05-07T07:47:34.359Z</time>
      </trkpt>
      <trkpt lat="47.78045" lon="2.29893">
        <ele>118</ele>
        <time>2017-05-07T07:47:35.364Z</time>
      </trkpt>
      <trkpt lat="47.78054" lon="2.29903">
        <ele>118</ele>
        <time>2017-05-07T07:47:36.363Z</time>
      </trkpt>
      <trkpt lat="47.78054" lon="2.29903">
        <ele>118</ele>
        <time>2017-05-07T07:47:37.355Z</time>
      </trkpt>
      <trkpt lat="47.78063" lon="2.29913">
        <ele>118</ele>
        <time>2017-05-07T07:47:38.361Z</time>
      </trkpt>
      <trkpt lat="47.78063" lon="2.29913">
        <ele>118</ele>
        <time>2017-05-07T07:47:39.358Z</time>
      </trkpt>
      <trkpt lat="47.78072" lon="2.29924">
        <ele>119</ele>
        <time>2017-05-07T07:47:40.357Z</time>
      </trkpt>
      <trkpt lat="47.78072" lon="2.29924">
        <ele>119</ele>
        <time>2017-05-07T07:47:41.394Z</time>
      </trkpt>
      <trkpt lat="47.78082" lon="2.29935">
        <ele>118</ele>
        <time>2017-05-07T07:47:42.364Z</time>
      </trkpt>
      <trkpt lat="47.78082" lon="2.29935">
        <ele>118</ele>
        <time>2017-05-07T07:47:43.370Z</time>
      </trkpt>
      <trkpt lat="47.78092" lon="2.29946">
        <ele>118</ele>
        <time>2017-05-07T07:47:44.365Z</time>
      </trkpt>
      <trkpt lat="47.78092" lon="2.29946">
        <ele>118</ele>
        <time>2017-05-07T07:47:45.357Z</time>
      </trkpt>
      <trkpt lat="47.78102" lon="2.29957">
        <ele>118</ele>
        <time>2017-05-07T07:47:46.365Z</time>
      </trkpt>
      <trkpt lat="47.78102" lon="2.29957">
        <ele>118</ele>
        <time>2017-05-07T07:47:47.357Z</time>
      </trkpt>
      <trkpt lat="47.78111" lon="2.2997">
        <ele>118</ele>
        <time>2017-05-07T07:47:48.362Z</time>
      </trkpt>
      <trkpt lat="47.78111" lon="2.2997">
        <ele>118</ele>
        <time>2017-05-07T07:47:49.374Z</time>
      </trkpt>
      <trkpt lat="47.78119" lon="2.29984">
        <ele>118</ele>
        <time>2017-05-07T07:47:50.379Z</time>
      </trkpt>
      <trkpt lat="47.78119" lon="2.29984">
        <ele>118</ele>
        <time>2017-05-07T07:47:51.381Z</time>
      </trkpt>
      <trkpt lat="47.78125" lon="2.29999">
        <ele>118</ele>
        <time>2017-05-07T07:47:52.372Z</time>
      </trkpt>
      <trkpt lat="47.78125" lon="2.29999">
        <ele>118</ele>
        <time>2017-05-07T07:47:53.370Z</time>
      </trkpt>
      <trkpt lat="47.78131" lon="2.30016">
        <ele>118</ele>
        <time>2017-05-07T07:47:54.360Z</time>
      </trkpt>
      <trkpt lat="47.78131" lon="2.30016">
        <ele>118</ele>
        <time>2017-05-07T07:47:55.357Z</time>
      </trkpt>
      <trkpt lat="47.78136" lon="2.30032">
        <ele>118</ele>
        <time>2017-05-07T07:47:56.365Z</time>
      </trkpt>
      <trkpt lat="47.78136" lon="2.30032">
        <ele>118</ele>
        <time>2017-05-07T07:47:57.357Z</time>
      </trkpt>
      <trkpt lat="47.78142" lon="2.30048">
        <ele>118</ele>
        <time>2017-05-07T07:47:58.366Z</time>
      </trkpt>
      <trkpt lat="47.78142" lon="2.30048">
        <ele>118</ele>
        <time>2017-05-07T07:47:59.358Z</time>
      </trkpt>
      <trkpt lat="47.78147" lon="2.30064">
        <ele>118</ele>
        <time>2017-05-07T07:48:00.372Z</time>
      </trkpt>
      <trkpt lat="47.78147" lon="2.30064">
        <ele>118</ele>
        <time>2017-05-07T07:48:01.361Z</time>
      </trkpt>
      <trkpt lat="47.78152" lon="2.3008">
        <ele>119</ele>
        <time>2017-05-07T07:48:02.365Z</time>
      </trkpt>
      <trkpt lat="47.78152" lon="2.3008">
        <ele>119</ele>
        <time>2017-05-07T07:48:03.358Z</time>
      </trkpt>
      <trkpt lat="47.78158" lon="2.30095">
        <ele>119</ele>
        <time>2017-05-07T07:48:04.369Z</time>
      </trkpt>
      <trkpt lat="47.78158" lon="2.30095">
        <ele>119</ele>
        <time>2017-05-07T07:48:05.359Z</time>
      </trkpt>
      <trkpt lat="47.78163" lon="2.30111">
        <ele>118</ele>
        <time>2017-05-07T07:48:06.363Z</time>
      </trkpt>
      <trkpt lat="47.78163" lon="2.30111">
        <ele>118</ele>
        <time>2017-05-07T07:48:07.357Z</time>
      </trkpt>
      <trkpt lat="47.78169" lon="2.30126">
        <ele>118</ele>
        <time>2017-05-07T07:48:08.365Z</time>
      </trkpt>
      <trkpt lat="47.78169" lon="2.30126">
        <ele>118</ele>
        <time>2017-05-07T07:48:09.357Z</time>
      </trkpt>
      <trkpt lat="47.78175" lon="2.3014">
        <ele>118</ele>
        <time>2017-05-07T07:48:10.362Z</time>
      </trkpt>
      <trkpt lat="47.78175" lon="2.3014">
        <ele>118</ele>
        <time>2017-05-07T07:48:11.357Z</time>
      </trkpt>
      <trkpt lat="47.7818" lon="2.30156">
        <ele>118</ele>
        <time>2017-05-07T07:48:12.361Z</time>
      </trkpt>
      <trkpt lat="47.7818" lon="2.30156">
        <ele>118</ele>
        <time>2017-05-07T07:48:13.360Z</time>
      </trkpt>
      <trkpt lat="47.78184" lon="2.30172">
        <ele>118</ele>
        <time>2017-05-07T07:48:14.366Z</time>
      </trkpt>
      <trkpt lat="47.78184" lon="2.30172">
        <ele>118</ele>
        <time>2017-05-07T07:48:15.357Z</time>
      </trkpt>
      <trkpt lat="47.78188" lon="2.30187">
        <ele>119</ele>
        <time>2017-05-07T07:48:16.361Z</time>
      </trkpt>
      <trkpt lat="47.78188" lon="2.30187">
        <ele>119</ele>
        <time>2017-05-07T07:48:17.357Z</time>
      </trkpt>
      <trkpt lat="47.78191" lon="2.30201">
        <ele>119</ele>
        <time>2017-05-07T07:48:18.362Z</time>
      </trkpt>
      <trkpt lat="47.78191" lon="2.30201">
        <ele>119</ele>
        <time>2017-05-07T07:48:19.357Z</time>
      </trkpt>
      <trkpt lat="47.78195" lon="2.30216">
        <ele>119</ele>
        <time>2017-05-07T07:48:20.364Z</time>
      </trkpt>
      <trkpt lat="47.78195" lon="2.30216">
        <ele>119</ele>
        <time>2017-05-07T07:48:21.356Z</time>
      </trkpt>
      <trkpt lat="47.78198" lon="2.30229">
        <ele>119</ele>
        <time>2017-05-07T07:48:22.362Z</time>
      </trkpt>
      <trkpt lat="47.782" lon="2.30235">
        <ele>119</ele>
        <time>2017-05-07T07:48:23.368Z</time>
      </trkpt>
      <trkpt lat="47.782" lon="2.30235">
        <ele>119</ele>
        <time>2017-05-07T07:48:24.362Z</time>
      </trkpt>
      <trkpt lat="47.78204" lon="2.30246">
        <ele>119</ele>
        <time>2017-05-07T07:48:25.364Z</time>
      </trkpt>
      <trkpt lat="47.78204" lon="2.30252">
        <ele>119</ele>
        <time>2017-05-07T07:48:26.365Z</time>
      </trkpt>
      <trkpt lat="47.78204" lon="2.30252">
        <ele>119</ele>
        <time>2017-05-07T07:48:27.382Z</time>
      </trkpt>
      <trkpt lat="47.78201" lon="2.30262">
        <ele>119</ele>
        <time>2017-05-07T07:48:28.374Z</time>
      </trkpt>
      <trkpt lat="47.78201" lon="2.30262">
        <ele>119</ele>
        <time>2017-05-07T07:48:29.364Z</time>
      </trkpt>
      <trkpt lat="47.78194" lon="2.3027">
        <ele>119</ele>
        <time>2017-05-07T07:48:30.363Z</time>
      </trkpt>
      <trkpt lat="47.78194" lon="2.3027">
        <ele>119</ele>
        <time>2017-05-07T07:48:31.358Z</time>
      </trkpt>
      <trkpt lat="47.78185" lon="2.30279">
        <ele>120</ele>
        <time>2017-05-07T07:48:32.365Z</time>
      </trkpt>
      <trkpt lat="47.78185" lon="2.30279">
        <ele>120</ele>
        <time>2017-05-07T07:48:33.357Z</time>
      </trkpt>
      <trkpt lat="47.78176" lon="2.3029">
        <ele>120</ele>
        <time>2017-05-07T07:48:34.363Z</time>
      </trkpt>
      <trkpt lat="47.78176" lon="2.3029">
        <ele>120</ele>
        <time>2017-05-07T07:48:35.357Z</time>
      </trkpt>
      <trkpt lat="47.78167" lon="2.30299">
        <ele>119</ele>
        <time>2017-05-07T07:48:36.363Z</time>
      </trkpt>
      <trkpt lat="47.78167" lon="2.30299">
        <ele>119</ele>
        <time>2017-05-07T07:48:37.358Z</time>
      </trkpt>
      <trkpt lat="47.78158" lon="2.3031">
        <ele>119</ele>
        <time>2017-05-07T07:48:38.364Z</time>
      </trkpt>
      <trkpt lat="47.78154" lon="2.30316">
        <ele>119</ele>
        <time>2017-05-07T07:48:39.360Z</time>
      </trkpt>
      <trkpt lat="47.7815" lon="2.30322">
        <ele>119</ele>
        <time>2017-05-07T07:48:40.361Z</time>
      </trkpt>
      <trkpt lat="47.7815" lon="2.30322">
        <ele>119</ele>
        <time>2017-05-07T07:48:41.358Z</time>
      </trkpt>
      <trkpt lat="47.78142" lon="2.30334">
        <ele>119</ele>
        <time>2017-05-07T07:48:42.362Z</time>
      </trkpt>
      <trkpt lat="47.78142" lon="2.30334">
        <ele>119</ele>
        <time>2017-05-07T07:48:43.360Z</time>
      </trkpt>
      <trkpt lat="47.78133" lon="2.30345">
        <ele>119</ele>
        <time>2017-05-07T07:48:44.366Z</time>
      </trkpt>
      <trkpt lat="47.78133" lon="2.30345">
        <ele>119</ele>
        <time>2017-05-07T07:48:45.357Z</time>
      </trkpt>
      <trkpt lat="47.78126" lon="2.30356">
        <ele>119</ele>
        <time>2017-05-07T07:48:46.362Z</time>
      </trkpt>
      <trkpt lat="47.78126" lon="2.30356">
        <ele>119</ele>
        <time>2017-05-07T07:48:47.368Z</time>
      </trkpt>
      <trkpt lat="47.78119" lon="2.30367">
        <ele>119</ele>
        <time>2017-05-07T07:48:48.374Z</time>
      </trkpt>
      <trkpt lat="47.78119" lon="2.30367">
        <ele>119</ele>
        <time>2017-05-07T07:48:49.379Z</time>
      </trkpt>
      <trkpt lat="47.78112" lon="2.30378">
        <ele>119</ele>
        <time>2017-05-07T07:48:50.385Z</time>
      </trkpt>
      <trkpt lat="47.78108" lon="2.30383">
        <ele>119</ele>
        <time>2017-05-07T07:48:51.363Z</time>
      </trkpt>
      <trkpt lat="47.78108" lon="2.30383">
        <ele>119</ele>
        <time>2017-05-07T07:48:52.360Z</time>
      </trkpt>
      <trkpt lat="47.78101" lon="2.30395">
        <ele>119</ele>
        <time>2017-05-07T07:48:53.364Z</time>
      </trkpt>
      <trkpt lat="47.78101" lon="2.30395">
        <ele>119</ele>
        <time>2017-05-07T07:48:54.376Z</time>
      </trkpt>
      <trkpt lat="47.78093" lon="2.30406">
        <ele>119</ele>
        <time>2017-05-07T07:48:55.383Z</time>
      </trkpt>
      <trkpt lat="47.7809" lon="2.30412">
        <ele>119</ele>
        <time>2017-05-07T07:48:56.361Z</time>
      </trkpt>
      <trkpt lat="47.7809" lon="2.30412">
        <ele>119</ele>
        <time>2017-05-07T07:48:57.371Z</time>
      </trkpt>
      <trkpt lat="47.78081" lon="2.30424">
        <ele>119</ele>
        <time>2017-05-07T07:48:58.364Z</time>
      </trkpt>
      <trkpt lat="47.78081" lon="2.30424">
        <ele>119</ele>
        <time>2017-05-07T07:48:59.372Z</time>
      </trkpt>
      <trkpt lat="47.78074" lon="2.30437">
        <ele>119</ele>
        <time>2017-05-07T07:49:00.365Z</time>
      </trkpt>
      <trkpt lat="47.78074" lon="2.30437">
        <ele>119</ele>
        <time>2017-05-07T07:49:01.358Z</time>
      </trkpt>
      <trkpt lat="47.78066" lon="2.30449">
        <ele>119</ele>
        <time>2017-05-07T07:49:02.366Z</time>
      </trkpt>
      <trkpt lat="47.78066" lon="2.30449">
        <ele>119</ele>
        <time>2017-05-07T07:49:03.357Z</time>
      </trkpt>
      <trkpt lat="47.78058" lon="2.30461">
        <ele>119</ele>
        <time>2017-05-07T07:49:04.360Z</time>
      </trkpt>
      <trkpt lat="47.78055" lon="2.30466">
        <ele>119</ele>
        <time>2017-05-07T07:49:05.362Z</time>
      </trkpt>
      <trkpt lat="47.78051" lon="2.30472">
        <ele>119</ele>
        <time>2017-05-07T07:49:06.363Z</time>
      </trkpt>
      <trkpt lat="47.78047" lon="2.30477">
        <ele>119</ele>
        <time>2017-05-07T07:49:07.364Z</time>
      </trkpt>
      <trkpt lat="47.78043" lon="2.30483">
        <ele>119</ele>
        <time>2017-05-07T07:49:08.366Z</time>
      </trkpt>
      <trkpt lat="47.7804" lon="2.30489">
        <ele>119</ele>
        <time>2017-05-07T07:49:09.374Z</time>
      </trkpt>
      <trkpt lat="47.7804" lon="2.30489">
        <ele>119</ele>
        <time>2017-05-07T07:49:10.376Z</time>
      </trkpt>
      <trkpt lat="47.78033" lon="2.305">
        <ele>119</ele>
        <time>2017-05-07T07:49:11.382Z</time>
      </trkpt>
      <trkpt lat="47.78033" lon="2.305">
        <ele>119</ele>
        <time>2017-05-07T07:49:12.389Z</time>
      </trkpt>
      <trkpt lat="47.78026" lon="2.3051">
        <ele>119</ele>
        <time>2017-05-07T07:49:13.378Z</time>
      </trkpt>
      <trkpt lat="47.78026" lon="2.3051">
        <ele>119</ele>
        <time>2017-05-07T07:49:14.370Z</time>
      </trkpt>
      <trkpt lat="47.78018" lon="2.3052">
        <ele>119</ele>
        <time>2017-05-07T07:49:15.363Z</time>
      </trkpt>
      <trkpt lat="47.78018" lon="2.3052">
        <ele>119</ele>
        <time>2017-05-07T07:49:16.357Z</time>
      </trkpt>
      <trkpt lat="47.7801" lon="2.30533">
        <ele>119</ele>
        <time>2017-05-07T07:49:17.362Z</time>
      </trkpt>
      <trkpt lat="47.7801" lon="2.30533">
        <ele>119</ele>
        <time>2017-05-07T07:49:18.359Z</time>
      </trkpt>
      <trkpt lat="47.78003" lon="2.30545">
        <ele>118</ele>
        <time>2017-05-07T07:49:19.364Z</time>
      </trkpt>
      <trkpt lat="47.77999" lon="2.30551">
        <ele>118</ele>
        <time>2017-05-07T07:49:20.365Z</time>
      </trkpt>
      <trkpt lat="47.77999" lon="2.30551">
        <ele>118</ele>
        <time>2017-05-07T07:49:21.358Z</time>
      </trkpt>
      <trkpt lat="47.77992" lon="2.30562">
        <ele>118</ele>
        <time>2017-05-07T07:49:22.360Z</time>
      </trkpt>
      <trkpt lat="47.77992" lon="2.30562">
        <ele>118</ele>
        <time>2017-05-07T07:49:23.360Z</time>
      </trkpt>
      <trkpt lat="47.77984" lon="2.30573">
        <ele>118</ele>
        <time>2017-05-07T07:49:24.363Z</time>
      </trkpt>
      <trkpt lat="47.77984" lon="2.30573">
        <ele>118</ele>
        <time>2017-05-07T07:49:25.367Z</time>
      </trkpt>
      <trkpt lat="47.77977" lon="2.30585">
        <ele>119</ele>
        <time>2017-05-07T07:49:26.366Z</time>
      </trkpt>
      <trkpt lat="47.77977" lon="2.30585">
        <ele>119</ele>
        <time>2017-05-07T07:49:27.357Z</time>
      </trkpt>
      <trkpt lat="47.77969" lon="2.30596">
        <ele>119</ele>
        <time>2017-05-07T07:49:28.363Z</time>
      </trkpt>
      <trkpt lat="47.77965" lon="2.30602">
        <ele>119</ele>
        <time>2017-05-07T07:49:29.364Z</time>
      </trkpt>
      <trkpt lat="47.77965" lon="2.30602">
        <ele>119</ele>
        <time>2017-05-07T07:49:30.360Z</time>
      </trkpt>
      <trkpt lat="47.77956" lon="2.30614">
        <ele>119</ele>
        <time>2017-05-07T07:49:31.364Z</time>
      </trkpt>
      <trkpt lat="47.77952" lon="2.3062">
        <ele>119</ele>
        <time>2017-05-07T07:49:32.366Z</time>
      </trkpt>
      <trkpt lat="47.77952" lon="2.3062">
        <ele>119</ele>
        <time>2017-05-07T07:49:33.360Z</time>
      </trkpt>
      <trkpt lat="47.77943" lon="2.30634">
        <ele>119</ele>
        <time>2017-05-07T07:49:34.369Z</time>
      </trkpt>
      <trkpt lat="47.77938" lon="2.30641">
        <ele>119</ele>
        <time>2017-05-07T07:49:35.363Z</time>
      </trkpt>
      <trkpt lat="47.77938" lon="2.30641">
        <ele>119</ele>
        <time>2017-05-07T07:49:36.359Z</time>
      </trkpt>
      <trkpt lat="47.77929" lon="2.30657">
        <ele>119</ele>
        <time>2017-05-07T07:49:37.361Z</time>
      </trkpt>
      <trkpt lat="47.77923" lon="2.30664">
        <ele>119</ele>
        <time>2017-05-07T07:49:38.368Z</time>
      </trkpt>
      <trkpt lat="47.77923" lon="2.30664">
        <ele>119</ele>
        <time>2017-05-07T07:49:39.359Z</time>
      </trkpt>
      <trkpt lat="47.77913" lon="2.3068">
        <ele>119</ele>
        <time>2017-05-07T07:49:40.359Z</time>
      </trkpt>
      <trkpt lat="47.77913" lon="2.3068">
        <ele>119</ele>
        <time>2017-05-07T07:49:41.358Z</time>
      </trkpt>
      <trkpt lat="47.77903" lon="2.30696">
        <ele>119</ele>
        <time>2017-05-07T07:49:42.364Z</time>
      </trkpt>
      <trkpt lat="47.77903" lon="2.30696">
        <ele>119</ele>
        <time>2017-05-07T07:49:43.364Z</time>
      </trkpt>
      <trkpt lat="47.77892" lon="2.30712">
        <ele>119</ele>
        <time>2017-05-07T07:49:44.366Z</time>
      </trkpt>
      <trkpt lat="47.77892" lon="2.30712">
        <ele>119</ele>
        <time>2017-05-07T07:49:45.357Z</time>
      </trkpt>
      <trkpt lat="47.77881" lon="2.30726">
        <ele>119</ele>
        <time>2017-05-07T07:49:46.363Z</time>
      </trkpt>
      <trkpt lat="47.77881" lon="2.30726">
        <ele>119</ele>
        <time>2017-05-07T07:49:47.357Z</time>
      </trkpt>
      <trkpt lat="47.77872" lon="2.3074">
        <ele>119</ele>
        <time>2017-05-07T07:49:48.362Z</time>
      </trkpt>
      <trkpt lat="47.77872" lon="2.3074">
        <ele>119</ele>
        <time>2017-05-07T07:49:49.368Z</time>
      </trkpt>
      <trkpt lat="47.77863" lon="2.30754">
        <ele>119</ele>
        <time>2017-05-07T07:49:50.366Z</time>
      </trkpt>
      <trkpt lat="47.77863" lon="2.30754">
        <ele>119</ele>
        <time>2017-05-07T07:49:51.358Z</time>
      </trkpt>
      <trkpt lat="47.77855" lon="2.30767">
        <ele>119</ele>
        <time>2017-05-07T07:49:52.364Z</time>
      </trkpt>
      <trkpt lat="47.77855" lon="2.30767">
        <ele>119</ele>
        <time>2017-05-07T07:49:53.358Z</time>
      </trkpt>
      <trkpt lat="47.77849" lon="2.30777">
        <ele>119</ele>
        <time>2017-05-07T07:49:54.363Z</time>
      </trkpt>
      <trkpt lat="47.77847" lon="2.3078">
        <ele>119</ele>
        <time>2017-05-07T07:49:55.373Z</time>
      </trkpt>
      <trkpt lat="47.77847" lon="2.3078">
        <ele>119</ele>
        <time>2017-05-07T07:49:56.362Z</time>
      </trkpt>
      <trkpt lat="47.77842" lon="2.30788">
        <ele>119</ele>
        <time>2017-05-07T07:49:57.359Z</time>
      </trkpt>
      <trkpt lat="47.77839" lon="2.30792">
        <ele>119</ele>
        <time>2017-05-07T07:49:58.362Z</time>
      </trkpt>
      <trkpt lat="47.77839" lon="2.30792">
        <ele>119</ele>
        <time>2017-05-07T07:49:59.359Z</time>
      </trkpt>
      <trkpt lat="47.77833" lon="2.30802">
        <ele>119</ele>
        <time>2017-05-07T07:50:00.364Z</time>
      </trkpt>
      <trkpt lat="47.77833" lon="2.30802">
        <ele>119</ele>
        <time>2017-05-07T07:50:01.358Z</time>
      </trkpt>
      <trkpt lat="47.77825" lon="2.30814">
        <ele>119</ele>
        <time>2017-05-07T07:50:02.378Z</time>
      </trkpt>
      <trkpt lat="47.77825" lon="2.30814">
        <ele>119</ele>
        <time>2017-05-07T07:50:03.366Z</time>
      </trkpt>
      <trkpt lat="47.77816" lon="2.30828">
        <ele>119</ele>
        <time>2017-05-07T07:50:04.366Z</time>
      </trkpt>
      <trkpt lat="47.77816" lon="2.30828">
        <ele>119</ele>
        <time>2017-05-07T07:50:05.358Z</time>
      </trkpt>
      <trkpt lat="47.77808" lon="2.30843">
        <ele>119</ele>
        <time>2017-05-07T07:50:06.363Z</time>
      </trkpt>
      <trkpt lat="47.77804" lon="2.3085">
        <ele>119</ele>
        <time>2017-05-07T07:50:07.364Z</time>
      </trkpt>
      <trkpt lat="47.77804" lon="2.3085">
        <ele>119</ele>
        <time>2017-05-07T07:50:08.360Z</time>
      </trkpt>
      <trkpt lat="47.77795" lon="2.30864">
        <ele>119</ele>
        <time>2017-05-07T07:50:09.362Z</time>
      </trkpt>
      <trkpt lat="47.77791" lon="2.30871">
        <ele>119</ele>
        <time>2017-05-07T07:50:10.363Z</time>
      </trkpt>
      <trkpt lat="47.77791" lon="2.30871">
        <ele>119</ele>
        <time>2017-05-07T07:50:11.357Z</time>
      </trkpt>
      <trkpt lat="47.77783" lon="2.30885">
        <ele>119</ele>
        <time>2017-05-07T07:50:12.362Z</time>
      </trkpt>
      <trkpt lat="47.77783" lon="2.30885">
        <ele>119</ele>
        <time>2017-05-07T07:50:13.361Z</time>
      </trkpt>
      <trkpt lat="47.77776" lon="2.30898">
        <ele>119</ele>
        <time>2017-05-07T07:50:14.366Z</time>
      </trkpt>
      <trkpt lat="47.77776" lon="2.30898">
        <ele>119</ele>
        <time>2017-05-07T07:50:15.358Z</time>
      </trkpt>
      <trkpt lat="47.77768" lon="2.30911">
        <ele>118</ele>
        <time>2017-05-07T07:50:16.364Z</time>
      </trkpt>
      <trkpt lat="47.77768" lon="2.30911">
        <ele>118</ele>
        <time>2017-05-07T07:50:17.358Z</time>
      </trkpt>
      <trkpt lat="47.77761" lon="2.30923">
        <ele>118</ele>
        <time>2017-05-07T07:50:18.361Z</time>
      </trkpt>
      <trkpt lat="47.77757" lon="2.3093">
        <ele>118</ele>
        <time>2017-05-07T07:50:19.363Z</time>
      </trkpt>
      <trkpt lat="47.77753" lon="2.30937">
        <ele>118</ele>
        <time>2017-05-07T07:50:20.365Z</time>
      </trkpt>
      <trkpt lat="47.77753" lon="2.30937">
        <ele>118</ele>
        <time>2017-05-07T07:50:21.358Z</time>
      </trkpt>
      <trkpt lat="47.77746" lon="2.30951">
        <ele>118</ele>
        <time>2017-05-07T07:50:22.360Z</time>
      </trkpt>
      <trkpt lat="47.77746" lon="2.30951">
        <ele>118</ele>
        <time>2017-05-07T07:50:23.358Z</time>
      </trkpt>
      <trkpt lat="47.77738" lon="2.30963">
        <ele>118</ele>
        <time>2017-05-07T07:50:24.360Z</time>
      </trkpt>
      <trkpt lat="47.77738" lon="2.30963">
        <ele>118</ele>
        <time>2017-05-07T07:50:25.358Z</time>
      </trkpt>
      <trkpt lat="47.77731" lon="2.30977">
        <ele>118</ele>
        <time>2017-05-07T07:50:26.366Z</time>
      </trkpt>
      <trkpt lat="47.77731" lon="2.30977">
        <ele>118</ele>
        <time>2017-05-07T07:50:27.358Z</time>
      </trkpt>
      <trkpt lat="47.77725" lon="2.30991">
        <ele>118</ele>
        <time>2017-05-07T07:50:28.365Z</time>
      </trkpt>
      <trkpt lat="47.77725" lon="2.30991">
        <ele>118</ele>
        <time>2017-05-07T07:50:29.357Z</time>
      </trkpt>
      <trkpt lat="47.77717" lon="2.31006">
        <ele>119</ele>
        <time>2017-05-07T07:50:30.363Z</time>
      </trkpt>
      <trkpt lat="47.77717" lon="2.31006">
        <ele>119</ele>
        <time>2017-05-07T07:50:31.394Z</time>
      </trkpt>
      <trkpt lat="47.7771" lon="2.31023">
        <ele>119</ele>
        <time>2017-05-07T07:50:32.366Z</time>
      </trkpt>
      <trkpt lat="47.7771" lon="2.31023">
        <ele>119</ele>
        <time>2017-05-07T07:50:33.358Z</time>
      </trkpt>
      <trkpt lat="47.77703" lon="2.3104">
        <ele>119</ele>
        <time>2017-05-07T07:50:34.362Z</time>
      </trkpt>
      <trkpt lat="47.77703" lon="2.3104">
        <ele>119</ele>
        <time>2017-05-07T07:50:35.360Z</time>
      </trkpt>
      <trkpt lat="47.77694" lon="2.31058">
        <ele>119</ele>
        <time>2017-05-07T07:50:36.364Z</time>
      </trkpt>
      <trkpt lat="47.77694" lon="2.31058">
        <ele>119</ele>
        <time>2017-05-07T07:50:37.363Z</time>
      </trkpt>
      <trkpt lat="47.77686" lon="2.31075">
        <ele>119</ele>
        <time>2017-05-07T07:50:38.366Z</time>
      </trkpt>
      <trkpt lat="47.77686" lon="2.31075">
        <ele>119</ele>
        <time>2017-05-07T07:50:39.358Z</time>
      </trkpt>
      <trkpt lat="47.77676" lon="2.3109">
        <ele>119</ele>
        <time>2017-05-07T07:50:40.365Z</time>
      </trkpt>
      <trkpt lat="47.77672" lon="2.31097">
        <ele>118</ele>
        <time>2017-05-07T07:50:41.379Z</time>
      </trkpt>
      <trkpt lat="47.77672" lon="2.31097">
        <ele>118</ele>
        <time>2017-05-07T07:50:42.368Z</time>
      </trkpt>
      <trkpt lat="47.77662" lon="2.31112">
        <ele>118</ele>
        <time>2017-05-07T07:50:43.362Z</time>
      </trkpt>
      <trkpt lat="47.77658" lon="2.31119">
        <ele>118</ele>
        <time>2017-05-07T07:50:44.359Z</time>
      </trkpt>
      <trkpt lat="47.77658" lon="2.31119">
        <ele>118</ele>
        <time>2017-05-07T07:50:45.392Z</time>
      </trkpt>
      <trkpt lat="47.77648" lon="2.31133">
        <ele>118</ele>
        <time>2017-05-07T07:50:46.364Z</time>
      </trkpt>
      <trkpt lat="47.77648" lon="2.31133">
        <ele>118</ele>
        <time>2017-05-07T07:50:47.360Z</time>
      </trkpt>
      <trkpt lat="47.77639" lon="2.31146">
        <ele>118</ele>
        <time>2017-05-07T07:50:48.366Z</time>
      </trkpt>
      <trkpt lat="47.77639" lon="2.31146">
        <ele>118</ele>
        <time>2017-05-07T07:50:49.369Z</time>
      </trkpt>
      <trkpt lat="47.77629" lon="2.31159">
        <ele>118</ele>
        <time>2017-05-07T07:50:50.368Z</time>
      </trkpt>
      <trkpt lat="47.77629" lon="2.31159">
        <ele>118</ele>
        <time>2017-05-07T07:50:51.359Z</time>
      </trkpt>
      <trkpt lat="47.77619" lon="2.31172">
        <ele>118</ele>
        <time>2017-05-07T07:50:52.368Z</time>
      </trkpt>
      <trkpt lat="47.77619" lon="2.31172">
        <ele>118</ele>
        <time>2017-05-07T07:50:53.359Z</time>
      </trkpt>
      <trkpt lat="47.7761" lon="2.31184">
        <ele>118</ele>
        <time>2017-05-07T07:50:54.365Z</time>
      </trkpt>
      <trkpt lat="47.7761" lon="2.31184">
        <ele>118</ele>
        <time>2017-05-07T07:50:55.362Z</time>
      </trkpt>
      <trkpt lat="47.776" lon="2.31195">
        <ele>118</ele>
        <time>2017-05-07T07:50:56.366Z</time>
      </trkpt>
      <trkpt lat="47.776" lon="2.31195">
        <ele>118</ele>
        <time>2017-05-07T07:50:57.372Z</time>
      </trkpt>
      <trkpt lat="47.77591" lon="2.31206">
        <ele>118</ele>
        <time>2017-05-07T07:50:58.362Z</time>
      </trkpt>
      <trkpt lat="47.77591" lon="2.31206">
        <ele>118</ele>
        <time>2017-05-07T07:50:59.359Z</time>
      </trkpt>
      <trkpt lat="47.77583" lon="2.31217">
        <ele>118</ele>
        <time>2017-05-07T07:51:00.367Z</time>
      </trkpt>
      <trkpt lat="47.77583" lon="2.31217">
        <ele>118</ele>
        <time>2017-05-07T07:51:01.358Z</time>
      </trkpt>
      <trkpt lat="47.77574" lon="2.31227">
        <ele>118</ele>
        <time>2017-05-07T07:51:02.367Z</time>
      </trkpt>
      <trkpt lat="47.77574" lon="2.31227">
        <ele>118</ele>
        <time>2017-05-07T07:51:03.359Z</time>
      </trkpt>
      <trkpt lat="47.77566" lon="2.31236">
        <ele>118</ele>
        <time>2017-05-07T07:51:04.361Z</time>
      </trkpt>
      <trkpt lat="47.77566" lon="2.31236">
        <ele>118</ele>
        <time>2017-05-07T07:51:05.359Z</time>
      </trkpt>
      <trkpt lat="47.77559" lon="2.31245">
        <ele>118</ele>
        <time>2017-05-07T07:51:06.363Z</time>
      </trkpt>
      <trkpt lat="47.77559" lon="2.31245">
        <ele>118</ele>
        <time>2017-05-07T07:51:07.359Z</time>
      </trkpt>
      <trkpt lat="47.77551" lon="2.31254">
        <ele>118</ele>
        <time>2017-05-07T07:51:08.368Z</time>
      </trkpt>
      <trkpt lat="47.77551" lon="2.31254">
        <ele>118</ele>
        <time>2017-05-07T07:51:09.358Z</time>
      </trkpt>
      <trkpt lat="47.77543" lon="2.31263">
        <ele>118</ele>
        <time>2017-05-07T07:51:10.364Z</time>
      </trkpt>
      <trkpt lat="47.77543" lon="2.31263">
        <ele>118</ele>
        <time>2017-05-07T07:51:11.358Z</time>
      </trkpt>
      <trkpt lat="47.77537" lon="2.31272">
        <ele>119</ele>
        <time>2017-05-07T07:51:12.364Z</time>
      </trkpt>
      <trkpt lat="47.77537" lon="2.31272">
        <ele>119</ele>
        <time>2017-05-07T07:51:13.359Z</time>
      </trkpt>
      <trkpt lat="47.7753" lon="2.3128">
        <ele>119</ele>
        <time>2017-05-07T07:51:14.365Z</time>
      </trkpt>
      <trkpt lat="47.7753" lon="2.3128">
        <ele>119</ele>
        <time>2017-05-07T07:51:15.358Z</time>
      </trkpt>
      <trkpt lat="47.77525" lon="2.31286">
        <ele>119</ele>
        <time>2017-05-07T07:51:16.363Z</time>
      </trkpt>
      <trkpt lat="47.77523" lon="2.31288">
        <ele>119</ele>
        <time>2017-05-07T07:51:17.364Z</time>
      </trkpt>
      <trkpt lat="47.77523" lon="2.31288">
        <ele>119</ele>
        <time>2017-05-07T07:51:18.358Z</time>
      </trkpt>
      <trkpt lat="47.77519" lon="2.31291">
        <ele>119</ele>
        <time>2017-05-07T07:51:19.363Z</time>
      </trkpt>
      <trkpt lat="47.77517" lon="2.31292">
        <ele>119</ele>
        <time>2017-05-07T07:51:20.365Z</time>
      </trkpt>
      <trkpt lat="47.77517" lon="2.31292">
        <ele>119</ele>
        <time>2017-05-07T07:51:21.358Z</time>
      </trkpt>
      <trkpt lat="47.77514" lon="2.31294">
        <ele>119</ele>
        <time>2017-05-07T07:51:22.362Z</time>
      </trkpt>
      <trkpt lat="47.77514" lon="2.31294">
        <ele>119</ele>
        <time>2017-05-07T07:51:23.359Z</time>
      </trkpt>
      <trkpt lat="47.77514" lon="2.31295">
        <ele>119</ele>
        <time>2017-05-07T07:51:24.365Z</time>
      </trkpt>
      <trkpt lat="47.77514" lon="2.31295">
        <ele>119</ele>
        <time>2017-05-07T07:51:25.358Z</time>
      </trkpt>
      <trkpt lat="47.77514" lon="2.31295">
        <ele>119</ele>
        <time>2017-05-07T07:51:26.394Z</time>
      </trkpt>
      <trkpt lat="47.77515" lon="2.31301">
        <ele>120</ele>
        <time>2017-05-07T07:51:27.359Z</time>
      </trkpt>
      <trkpt lat="47.77515" lon="2.31301">
        <ele>120</ele>
        <time>2017-05-07T07:51:28.392Z</time>
      </trkpt>
      <trkpt lat="47.77518" lon="2.31308">
        <ele>120</ele>
        <time>2017-05-07T07:51:29.356Z</time>
      </trkpt>
      <trkpt lat="47.77518" lon="2.31308">
        <ele>120</ele>
        <time>2017-05-07T07:51:30.392Z</time>
      </trkpt>
      <trkpt lat="47.77521" lon="2.31318">
        <ele>120</ele>
        <time>2017-05-07T07:51:31.358Z</time>
      </trkpt>
      <trkpt lat="47.77521" lon="2.31318">
        <ele>120</ele>
        <time>2017-05-07T07:51:32.393Z</time>
      </trkpt>
      <trkpt lat="47.77525" lon="2.3133">
        <ele>120</ele>
        <time>2017-05-07T07:51:33.356Z</time>
      </trkpt>
      <trkpt lat="47.77525" lon="2.3133">
        <ele>120</ele>
        <time>2017-05-07T07:51:34.388Z</time>
      </trkpt>
      <trkpt lat="47.7753" lon="2.31342">
        <ele>120</ele>
        <time>2017-05-07T07:51:35.355Z</time>
      </trkpt>
      <trkpt lat="47.77532" lon="2.31348">
        <ele>120</ele>
        <time>2017-05-07T07:51:36.380Z</time>
      </trkpt>
      <trkpt lat="47.77532" lon="2.31348">
        <ele>120</ele>
        <time>2017-05-07T07:51:37.378Z</time>
      </trkpt>
      <trkpt lat="47.77536" lon="2.3136">
        <ele>120</ele>
        <time>2017-05-07T07:51:38.378Z</time>
      </trkpt>
      <trkpt lat="47.77536" lon="2.3136">
        <ele>120</ele>
        <time>2017-05-07T07:51:39.378Z</time>
      </trkpt>
      <trkpt lat="47.77541" lon="2.3137">
        <ele>119</ele>
        <time>2017-05-07T07:51:40.368Z</time>
      </trkpt>
      <trkpt lat="47.77541" lon="2.3137">
        <ele>119</ele>
        <time>2017-05-07T07:51:41.365Z</time>
      </trkpt>
      <trkpt lat="47.77545" lon="2.31381">
        <ele>119</ele>
        <time>2017-05-07T07:51:42.361Z</time>
      </trkpt>
      <trkpt lat="47.77547" lon="2.31385">
        <ele>119</ele>
        <time>2017-05-07T07:51:43.359Z</time>
      </trkpt>
      <trkpt lat="47.77547" lon="2.31385">
        <ele>119</ele>
        <time>2017-05-07T07:51:44.365Z</time>
      </trkpt>
      <trkpt lat="47.77551" lon="2.31396">
        <ele>119</ele>
        <time>2017-05-07T07:51:45.362Z</time>
      </trkpt>
      <trkpt lat="47.77553" lon="2.31401">
        <ele>118</ele>
        <time>2017-05-07T07:51:46.369Z</time>
      </trkpt>
      <trkpt lat="47.77553" lon="2.31401">
        <ele>118</ele>
        <time>2017-05-07T07:51:47.368Z</time>
      </trkpt>
      <trkpt lat="47.77558" lon="2.31413">
        <ele>119</ele>
        <time>2017-05-07T07:51:48.367Z</time>
      </trkpt>
      <trkpt lat="47.77558" lon="2.31413">
        <ele>119</ele>
        <time>2017-05-07T07:51:49.366Z</time>
      </trkpt>
      <trkpt lat="47.77564" lon="2.31428">
        <ele>119</ele>
        <time>2017-05-07T07:51:50.362Z</time>
      </trkpt>
      <trkpt lat="47.77564" lon="2.31428">
        <ele>119</ele>
        <time>2017-05-07T07:51:51.361Z</time>
      </trkpt>
      <trkpt lat="47.77571" lon="2.31443">
        <ele>119</ele>
        <time>2017-05-07T07:51:52.360Z</time>
      </trkpt>
      <trkpt lat="47.77574" lon="2.31451">
        <ele>119</ele>
        <time>2017-05-07T07:51:53.358Z</time>
      </trkpt>
      <trkpt lat="47.77574" lon="2.31451">
        <ele>119</ele>
        <time>2017-05-07T07:51:54.355Z</time>
      </trkpt>
      <trkpt lat="47.77582" lon="2.31468">
        <ele>119</ele>
        <time>2017-05-07T07:51:55.370Z</time>
      </trkpt>
      <trkpt lat="47.77586" lon="2.31476">
        <ele>119</ele>
        <time>2017-05-07T07:51:56.377Z</time>
      </trkpt>
      <trkpt lat="47.77586" lon="2.31476">
        <ele>119</ele>
        <time>2017-05-07T07:51:57.385Z</time>
      </trkpt>
      <trkpt lat="47.77593" lon="2.31495">
        <ele>119</ele>
        <time>2017-05-07T07:51:58.391Z</time>
      </trkpt>
      <trkpt lat="47.77597" lon="2.31505">
        <ele>119</ele>
        <time>2017-05-07T07:51:59.392Z</time>
      </trkpt>
      <trkpt lat="47.77597" lon="2.31505">
        <ele>119</ele>
        <time>2017-05-07T07:52:00.392Z</time>
      </trkpt>
      <trkpt lat="47.77605" lon="2.31524">
        <ele>119</ele>
        <time>2017-05-07T07:52:01.365Z</time>
      </trkpt>
      <trkpt lat="47.7761" lon="2.31535">
        <ele>119</ele>
        <time>2017-05-07T07:52:02.368Z</time>
      </trkpt>
      <trkpt lat="47.7761" lon="2.31535">
        <ele>119</ele>
        <time>2017-05-07T07:52:03.383Z</time>
      </trkpt>
      <trkpt lat="47.77619" lon="2.31556">
        <ele>119</ele>
        <time>2017-05-07T07:52:04.380Z</time>
      </trkpt>
      <trkpt lat="47.77623" lon="2.31567">
        <ele>119</ele>
        <time>2017-05-07T07:52:05.380Z</time>
      </trkpt>
      <trkpt lat="47.77623" lon="2.31567">
        <ele>119</ele>
        <time>2017-05-07T07:52:06.378Z</time>
      </trkpt>
      <trkpt lat="47.77633" lon="2.31589">
        <ele>119</ele>
        <time>2017-05-07T07:52:07.386Z</time>
      </trkpt>
      <trkpt lat="47.77637" lon="2.31599">
        <ele>119</ele>
        <time>2017-05-07T07:52:08.393Z</time>
      </trkpt>
      <trkpt lat="47.77637" lon="2.31599">
        <ele>119</ele>
        <time>2017-05-07T07:52:09.355Z</time>
      </trkpt>
      <trkpt lat="47.77647" lon="2.31621">
        <ele>119</ele>
        <time>2017-05-07T07:52:10.366Z</time>
      </trkpt>
      <trkpt lat="47.77647" lon="2.31621">
        <ele>119</ele>
        <time>2017-05-07T07:52:11.366Z</time>
      </trkpt>
      <trkpt lat="47.77657" lon="2.31643">
        <ele>119</ele>
        <time>2017-05-07T07:52:12.370Z</time>
      </trkpt>
      <trkpt lat="47.77657" lon="2.31643">
        <ele>119</ele>
        <time>2017-05-07T07:52:13.368Z</time>
      </trkpt>
      <trkpt lat="47.77666" lon="2.31665">
        <ele>119</ele>
        <time>2017-05-07T07:52:14.367Z</time>
      </trkpt>
      <trkpt lat="47.77671" lon="2.31676">
        <ele>118</ele>
        <time>2017-05-07T07:52:15.365Z</time>
      </trkpt>
      <trkpt lat="47.77671" lon="2.31676">
        <ele>118</ele>
        <time>2017-05-07T07:52:16.361Z</time>
      </trkpt>
      <trkpt lat="47.77681" lon="2.31698">
        <ele>118</ele>
        <time>2017-05-07T07:52:17.367Z</time>
      </trkpt>
      <trkpt lat="47.77681" lon="2.31698">
        <ele>118</ele>
        <time>2017-05-07T07:52:18.374Z</time>
      </trkpt>
      <trkpt lat="47.7769" lon="2.3172">
        <ele>118</ele>
        <time>2017-05-07T07:52:19.391Z</time>
      </trkpt>
      <trkpt lat="47.77695" lon="2.3173">
        <ele>118</ele>
        <time>2017-05-07T07:52:20.369Z</time>
      </trkpt>
      <trkpt lat="47.77695" lon="2.3173">
        <ele>118</ele>
        <time>2017-05-07T07:52:21.367Z</time>
      </trkpt>
      <trkpt lat="47.77704" lon="2.31751">
        <ele>118</ele>
        <time>2017-05-07T07:52:22.360Z</time>
      </trkpt>
      <trkpt lat="47.77708" lon="2.31761">
        <ele>117</ele>
        <time>2017-05-07T07:52:23.361Z</time>
      </trkpt>
      <trkpt lat="47.77708" lon="2.31761">
        <ele>117</ele>
        <time>2017-05-07T07:52:24.359Z</time>
      </trkpt>
      <trkpt lat="47.77717" lon="2.31781">
        <ele>117</ele>
        <time>2017-05-07T07:52:25.361Z</time>
      </trkpt>
      <trkpt lat="47.77717" lon="2.31781">
        <ele>117</ele>
        <time>2017-05-07T07:52:26.361Z</time>
      </trkpt>
      <trkpt lat="47.77727" lon="2.31801">
        <ele>118</ele>
        <time>2017-05-07T07:52:27.383Z</time>
      </trkpt>
      <trkpt lat="47.77727" lon="2.31801">
        <ele>118</ele>
        <time>2017-05-07T07:52:28.382Z</time>
      </trkpt>
      <trkpt lat="47.77737" lon="2.3182">
        <ele>118</ele>
        <time>2017-05-07T07:52:29.379Z</time>
      </trkpt>
      <trkpt lat="47.77737" lon="2.3182">
        <ele>118</ele>
        <time>2017-05-07T07:52:30.376Z</time>
      </trkpt>
      <trkpt lat="47.77748" lon="2.31837">
        <ele>118</ele>
        <time>2017-05-07T07:52:31.376Z</time>
      </trkpt>
      <trkpt lat="47.77754" lon="2.31845">
        <ele>118</ele>
        <time>2017-05-07T07:52:32.375Z</time>
      </trkpt>
      <trkpt lat="47.77754" lon="2.31845">
        <ele>118</ele>
        <time>2017-05-07T07:52:33.379Z</time>
      </trkpt>
      <trkpt lat="47.77767" lon="2.31859">
        <ele>118</ele>
        <time>2017-05-07T07:52:34.387Z</time>
      </trkpt>
      <trkpt lat="47.77767" lon="2.31859">
        <ele>118</ele>
        <time>2017-05-07T07:52:35.389Z</time>
      </trkpt>
      <trkpt lat="47.77778" lon="2.31873">
        <ele>119</ele>
        <time>2017-05-07T07:52:36.382Z</time>
      </trkpt>
      <trkpt lat="47.77784" lon="2.3188">
        <ele>119</ele>
        <time>2017-05-07T07:52:37.381Z</time>
      </trkpt>
      <trkpt lat="47.77784" lon="2.3188">
        <ele>119</ele>
        <time>2017-05-07T07:52:38.379Z</time>
      </trkpt>
      <trkpt lat="47.77795" lon="2.31894">
        <ele>119</ele>
        <time>2017-05-07T07:52:39.359Z</time>
      </trkpt>
      <trkpt lat="47.778" lon="2.319">
        <ele>119</ele>
        <time>2017-05-07T07:52:40.386Z</time>
      </trkpt>
      <trkpt lat="47.778" lon="2.319">
        <ele>119</ele>
        <time>2017-05-07T07:52:41.384Z</time>
      </trkpt>
      <trkpt lat="47.7781" lon="2.31913">
        <ele>119</ele>
        <time>2017-05-07T07:52:42.388Z</time>
      </trkpt>
      <trkpt lat="47.7781" lon="2.31913">
        <ele>119</ele>
        <time>2017-05-07T07:52:43.390Z</time>
      </trkpt>
      <trkpt lat="47.7782" lon="2.31925">
        <ele>119</ele>
        <time>2017-05-07T07:52:44.361Z</time>
      </trkpt>
      <trkpt lat="47.7782" lon="2.31925">
        <ele>119</ele>
        <time>2017-05-07T07:52:45.364Z</time>
      </trkpt>
      <trkpt lat="47.7783" lon="2.31937">
        <ele>119</ele>
        <time>2017-05-07T07:52:46.372Z</time>
      </trkpt>
      <trkpt lat="47.7783" lon="2.31937">
        <ele>119</ele>
        <time>2017-05-07T07:52:47.371Z</time>
      </trkpt>
      <trkpt lat="47.7784" lon="2.31949">
        <ele>119</ele>
        <time>2017-05-07T07:52:48.372Z</time>
      </trkpt>
      <trkpt lat="47.7784" lon="2.31949">
        <ele>119</ele>
        <time>2017-05-07T07:52:49.371Z</time>
      </trkpt>
      <trkpt lat="47.77849" lon="2.31962">
        <ele>119</ele>
        <time>2017-05-07T07:52:50.372Z</time>
      </trkpt>
      <trkpt lat="47.77849" lon="2.31962">
        <ele>119</ele>
        <time>2017-05-07T07:52:51.369Z</time>
      </trkpt>
      <trkpt lat="47.77856" lon="2.31978">
        <ele>119</ele>
        <time>2017-05-07T07:52:52.368Z</time>
      </trkpt>
      <trkpt lat="47.77856" lon="2.31978">
        <ele>119</ele>
        <time>2017-05-07T07:52:53.366Z</time>
      </trkpt>
      <trkpt lat="47.77861" lon="2.31992">
        <ele>119</ele>
        <time>2017-05-07T07:52:54.362Z</time>
      </trkpt>
      <trkpt lat="47.77861" lon="2.31992">
        <ele>119</ele>
        <time>2017-05-07T07:52:55.360Z</time>
      </trkpt>
      <trkpt lat="47.77865" lon="2.32002">
        <ele>119</ele>
        <time>2017-05-07T07:52:56.383Z</time>
      </trkpt>
      <trkpt lat="47.77865" lon="2.32002">
        <ele>119</ele>
        <time>2017-05-07T07:52:57.382Z</time>
      </trkpt>
      <trkpt lat="47.77869" lon="2.32011">
        <ele>119</ele>
        <time>2017-05-07T07:52:58.380Z</time>
      </trkpt>
      <trkpt lat="47.77869" lon="2.32011">
        <ele>119</ele>
        <time>2017-05-07T07:52:59.373Z</time>
      </trkpt>
      <trkpt lat="47.7787" lon="2.32016">
        <ele>119</ele>
        <time>2017-05-07T07:53:00.370Z</time>
      </trkpt>
      <trkpt lat="47.7787" lon="2.32016">
        <ele>119</ele>
        <time>2017-05-07T07:53:01.379Z</time>
      </trkpt>
      <trkpt lat="47.77871" lon="2.32019">
        <ele>119</ele>
        <time>2017-05-07T07:53:02.382Z</time>
      </trkpt>
      <trkpt lat="47.77871" lon="2.32019">
        <ele>119</ele>
        <time>2017-05-07T07:53:03.383Z</time>
      </trkpt>
      <trkpt lat="47.77871" lon="2.3202">
        <ele>118</ele>
        <time>2017-05-07T07:53:04.360Z</time>
      </trkpt>
      <trkpt lat="47.77871" lon="2.3202">
        <ele>118</ele>
        <time>2017-05-07T07:53:05.361Z</time>
      </trkpt>
      <trkpt lat="47.77869" lon="2.32026">
        <ele>118</ele>
        <time>2017-05-07T07:53:06.360Z</time>
      </trkpt>
      <trkpt lat="47.77869" lon="2.32026">
        <ele>118</ele>
        <time>2017-05-07T07:53:07.359Z</time>
      </trkpt>
      <trkpt lat="47.77867" lon="2.32032">
        <ele>117</ele>
        <time>2017-05-07T07:53:08.362Z</time>
      </trkpt>
      <trkpt lat="47.77867" lon="2.32032">
        <ele>117</ele>
        <time>2017-05-07T07:53:09.394Z</time>
      </trkpt>
      <trkpt lat="47.77864" lon="2.32038">
        <ele>117</ele>
        <time>2017-05-07T07:53:10.361Z</time>
      </trkpt>
      <trkpt lat="47.77864" lon="2.32038">
        <ele>117</ele>
        <time>2017-05-07T07:53:11.360Z</time>
      </trkpt>
      <trkpt lat="47.77861" lon="2.32046">
        <ele>117</ele>
        <time>2017-05-07T07:53:12.361Z</time>
      </trkpt>
      <trkpt lat="47.77861" lon="2.32046">
        <ele>117</ele>
        <time>2017-05-07T07:53:13.360Z</time>
      </trkpt>
      <trkpt lat="47.77856" lon="2.32056">
        <ele>116</ele>
        <time>2017-05-07T07:53:14.364Z</time>
      </trkpt>
      <trkpt lat="47.77856" lon="2.32056">
        <ele>116</ele>
        <time>2017-05-07T07:53:15.360Z</time>
      </trkpt>
      <trkpt lat="47.7785" lon="2.32069">
        <ele>116</ele>
        <time>2017-05-07T07:53:16.368Z</time>
      </trkpt>
      <trkpt lat="47.77847" lon="2.32076">
        <ele>116</ele>
        <time>2017-05-07T07:53:17.368Z</time>
      </trkpt>
      <trkpt lat="47.77847" lon="2.32076">
        <ele>116</ele>
        <time>2017-05-07T07:53:18.365Z</time>
      </trkpt>
      <trkpt lat="47.7784" lon="2.32092">
        <ele>116</ele>
        <time>2017-05-07T07:53:19.365Z</time>
      </trkpt>
      <trkpt lat="47.77836" lon="2.32101">
        <ele>116</ele>
        <time>2017-05-07T07:53:20.372Z</time>
      </trkpt>
      <trkpt lat="47.77832" lon="2.3211">
        <ele>116</ele>
        <time>2017-05-07T07:53:21.382Z</time>
      </trkpt>
      <trkpt lat="47.77832" lon="2.3211">
        <ele>116</ele>
        <time>2017-05-07T07:53:22.393Z</time>
      </trkpt>
      <trkpt lat="47.77823" lon="2.32127">
        <ele>116</ele>
        <time>2017-05-07T07:53:23.369Z</time>
      </trkpt>
      <trkpt lat="47.77823" lon="2.32127">
        <ele>116</ele>
        <time>2017-05-07T07:53:24.372Z</time>
      </trkpt>
      <trkpt lat="47.77815" lon="2.32145">
        <ele>115</ele>
        <time>2017-05-07T07:53:25.375Z</time>
      </trkpt>
      <trkpt lat="47.77811" lon="2.32155">
        <ele>115</ele>
        <time>2017-05-07T07:53:26.373Z</time>
      </trkpt>
      <trkpt lat="47.77811" lon="2.32155">
        <ele>115</ele>
        <time>2017-05-07T07:53:27.386Z</time>
      </trkpt>
      <trkpt lat="47.77802" lon="2.32173">
        <ele>115</ele>
        <time>2017-05-07T07:53:28.362Z</time>
      </trkpt>
      <trkpt lat="47.77798" lon="2.32183">
        <ele>115</ele>
        <time>2017-05-07T07:53:29.366Z</time>
      </trkpt>
      <trkpt lat="47.77798" lon="2.32183">
        <ele>115</ele>
        <time>2017-05-07T07:53:30.363Z</time>
      </trkpt>
      <trkpt lat="47.7779" lon="2.32202">
        <ele>115</ele>
        <time>2017-05-07T07:53:31.360Z</time>
      </trkpt>
      <trkpt lat="47.77786" lon="2.32211">
        <ele>115</ele>
        <time>2017-05-07T07:53:32.366Z</time>
      </trkpt>
      <trkpt lat="47.77786" lon="2.32211">
        <ele>115</ele>
        <time>2017-05-07T07:53:33.377Z</time>
      </trkpt>
      <trkpt lat="47.77778" lon="2.32229">
        <ele>115</ele>
        <time>2017-05-07T07:53:34.377Z</time>
      </trkpt>
      <trkpt lat="47.77774" lon="2.32237">
        <ele>115</ele>
        <time>2017-05-07T07:53:35.364Z</time>
      </trkpt>
      <trkpt lat="47.7777" lon="2.32245">
        <ele>115</ele>
        <time>2017-05-07T07:53:36.364Z</time>
      </trkpt>
      <trkpt lat="47.7777" lon="2.32245">
        <ele>115</ele>
        <time>2017-05-07T07:53:37.380Z</time>
      </trkpt>
      <trkpt lat="47.77763" lon="2.32262">
        <ele>115</ele>
        <time>2017-05-07T07:53:38.380Z</time>
      </trkpt>
      <trkpt lat="47.77759" lon="2.3227">
        <ele>115</ele>
        <time>2017-05-07T07:53:39.363Z</time>
      </trkpt>
      <trkpt lat="47.77759" lon="2.3227">
        <ele>115</ele>
        <time>2017-05-07T07:53:40.370Z</time>
      </trkpt>
      <trkpt lat="47.77752" lon="2.32285">
        <ele>116</ele>
        <time>2017-05-07T07:53:41.381Z</time>
      </trkpt>
      <trkpt lat="47.77752" lon="2.32285">
        <ele>116</ele>
        <time>2017-05-07T07:53:42.391Z</time>
      </trkpt>
      <trkpt lat="47.77745" lon="2.32299">
        <ele>116</ele>
        <time>2017-05-07T07:53:43.357Z</time>
      </trkpt>
      <trkpt lat="47.77741" lon="2.32307">
        <ele>116</ele>
        <time>2017-05-07T07:53:44.362Z</time>
      </trkpt>
      <trkpt lat="47.77741" lon="2.32307">
        <ele>116</ele>
        <time>2017-05-07T07:53:45.362Z</time>
      </trkpt>
      <trkpt lat="47.77734" lon="2.32322">
        <ele>116</ele>
        <time>2017-05-07T07:53:46.362Z</time>
      </trkpt>
      <trkpt lat="47.77734" lon="2.32322">
        <ele>116</ele>
        <time>2017-05-07T07:53:47.361Z</time>
      </trkpt>
      <trkpt lat="47.77726" lon="2.32337">
        <ele>116</ele>
        <time>2017-05-07T07:53:48.360Z</time>
      </trkpt>
      <trkpt lat="47.77726" lon="2.32337">
        <ele>116</ele>
        <time>2017-05-07T07:53:49.358Z</time>
      </trkpt>
      <trkpt lat="47.77719" lon="2.32352">
        <ele>117</ele>
        <time>2017-05-07T07:53:50.364Z</time>
      </trkpt>
      <trkpt lat="47.77719" lon="2.32352">
        <ele>117</ele>
        <time>2017-05-07T07:53:51.363Z</time>
      </trkpt>
      <trkpt lat="47.77712" lon="2.32367">
        <ele>117</ele>
        <time>2017-05-07T07:53:52.363Z</time>
      </trkpt>
      <trkpt lat="47.77712" lon="2.32367">
        <ele>117</ele>
        <time>2017-05-07T07:53:53.366Z</time>
      </trkpt>
      <trkpt lat="47.77705" lon="2.32384">
        <ele>117</ele>
        <time>2017-05-07T07:53:54.381Z</time>
      </trkpt>
      <trkpt lat="47.77701" lon="2.32392">
        <ele>117</ele>
        <time>2017-05-07T07:53:55.382Z</time>
      </trkpt>
      <trkpt lat="47.77697" lon="2.32399">
        <ele>117</ele>
        <time>2017-05-07T07:53:56.379Z</time>
      </trkpt>
      <trkpt lat="47.77697" lon="2.32399">
        <ele>117</ele>
        <time>2017-05-07T07:53:57.379Z</time>
      </trkpt>
      <trkpt lat="47.77688" lon="2.32416">
        <ele>117</ele>
        <time>2017-05-07T07:53:58.377Z</time>
      </trkpt>
      <trkpt lat="47.77688" lon="2.32416">
        <ele>117</ele>
        <time>2017-05-07T07:53:59.392Z</time>
      </trkpt>
      <trkpt lat="47.77678" lon="2.32436">
        <ele>117</ele>
        <time>2017-05-07T07:54:00.369Z</time>
      </trkpt>
      <trkpt lat="47.77678" lon="2.32436">
        <ele>117</ele>
        <time>2017-05-07T07:54:01.367Z</time>
      </trkpt>
      <trkpt lat="47.77668" lon="2.32458">
        <ele>117</ele>
        <time>2017-05-07T07:54:02.365Z</time>
      </trkpt>
      <trkpt lat="47.77663" lon="2.32468">
        <ele>117</ele>
        <time>2017-05-07T07:54:03.391Z</time>
      </trkpt>
      <trkpt lat="47.77663" lon="2.32468">
        <ele>117</ele>
        <time>2017-05-07T07:54:04.360Z</time>
      </trkpt>
      <trkpt lat="47.77652" lon="2.3249">
        <ele>117</ele>
        <time>2017-05-07T07:54:05.381Z</time>
      </trkpt>
      <trkpt lat="47.77652" lon="2.3249">
        <ele>117</ele>
        <time>2017-05-07T07:54:06.380Z</time>
      </trkpt>
      <trkpt lat="47.77642" lon="2.32513">
        <ele>117</ele>
        <time>2017-05-07T07:54:07.384Z</time>
      </trkpt>
      <trkpt lat="47.77637" lon="2.32523">
        <ele>117</ele>
        <time>2017-05-07T07:54:08.393Z</time>
      </trkpt>
      <trkpt lat="47.77637" lon="2.32523">
        <ele>117</ele>
        <time>2017-05-07T07:54:09.367Z</time>
      </trkpt>
      <trkpt lat="47.77629" lon="2.32541">
        <ele>117</ele>
        <time>2017-05-07T07:54:10.364Z</time>
      </trkpt>
      <trkpt lat="47.77629" lon="2.32541">
        <ele>117</ele>
        <time>2017-05-07T07:54:11.359Z</time>
      </trkpt>
      <trkpt lat="47.77622" lon="2.32556">
        <ele>117</ele>
        <time>2017-05-07T07:54:12.357Z</time>
      </trkpt>
      <trkpt lat="47.77619" lon="2.32562">
        <ele>117</ele>
        <time>2017-05-07T07:54:13.365Z</time>
      </trkpt>
      <trkpt lat="47.77616" lon="2.32568">
        <ele>117</ele>
        <time>2017-05-07T07:54:14.384Z</time>
      </trkpt>
      <trkpt lat="47.77616" lon="2.32568">
        <ele>117</ele>
        <time>2017-05-07T07:54:15.384Z</time>
      </trkpt>
      <trkpt lat="47.77611" lon="2.32579">
        <ele>117</ele>
        <time>2017-05-07T07:54:16.389Z</time>
      </trkpt>
      <trkpt lat="47.77611" lon="2.32579">
        <ele>117</ele>
        <time>2017-05-07T07:54:17.388Z</time>
      </trkpt>
      <trkpt lat="47.77607" lon="2.32591">
        <ele>117</ele>
        <time>2017-05-07T07:54:18.359Z</time>
      </trkpt>
      <trkpt lat="47.77607" lon="2.32591">
        <ele>117</ele>
        <time>2017-05-07T07:54:19.359Z</time>
      </trkpt>
      <trkpt lat="47.77602" lon="2.32602">
        <ele>117</ele>
        <time>2017-05-07T07:54:20.360Z</time>
      </trkpt>
      <trkpt lat="47.77602" lon="2.32602">
        <ele>117</ele>
        <time>2017-05-07T07:54:21.392Z</time>
      </trkpt>
      <trkpt lat="47.77598" lon="2.32613">
        <ele>117</ele>
        <time>2017-05-07T07:54:22.394Z</time>
      </trkpt>
      <trkpt lat="47.77598" lon="2.32613">
        <ele>117</ele>
        <time>2017-05-07T07:54:23.386Z</time>
      </trkpt>
      <trkpt lat="47.77595" lon="2.32623">
        <ele>117</ele>
        <time>2017-05-07T07:54:24.369Z</time>
      </trkpt>
      <trkpt lat="47.77595" lon="2.32623">
        <ele>117</ele>
        <time>2017-05-07T07:54:25.373Z</time>
      </trkpt>
      <trkpt lat="47.77594" lon="2.32631">
        <ele>117</ele>
        <time>2017-05-07T07:54:26.363Z</time>
      </trkpt>
      <trkpt lat="47.77595" lon="2.32635">
        <ele>117</ele>
        <time>2017-05-07T07:54:27.376Z</time>
      </trkpt>
      <trkpt lat="47.77595" lon="2.32635">
        <ele>117</ele>
        <time>2017-05-07T07:54:28.364Z</time>
      </trkpt>
      <trkpt lat="47.77598" lon="2.32639">
        <ele>117</ele>
        <time>2017-05-07T07:54:29.355Z</time>
      </trkpt>
      <trkpt lat="47.77598" lon="2.32639">
        <ele>117</ele>
        <time>2017-05-07T07:54:30.366Z</time>
      </trkpt>
      <trkpt lat="47.77601" lon="2.32642">
        <ele>116</ele>
        <time>2017-05-07T07:54:31.360Z</time>
      </trkpt>
      <trkpt lat="47.77601" lon="2.32642">
        <ele>116</ele>
        <time>2017-05-07T07:54:32.356Z</time>
      </trkpt>
      <trkpt lat="47.77601" lon="2.32642">
        <ele>116</ele>
        <time>2017-05-07T07:54:33.390Z</time>
      </trkpt>
      <trkpt lat="47.77601" lon="2.32641">
        <ele>117</ele>
        <time>2017-05-07T07:54:34.357Z</time>
      </trkpt>
      <trkpt lat="47.77601" lon="2.32641">
        <ele>117</ele>
        <time>2017-05-07T07:54:35.394Z</time>
      </trkpt>
      <trkpt lat="47.77604" lon="2.32641">
        <ele>116</ele>
        <time>2017-05-07T07:54:36.372Z</time>
      </trkpt>
      <trkpt lat="47.77604" lon="2.3264">
        <ele>117</ele>
        <time>2017-05-07T07:54:37.391Z</time>
      </trkpt>
      <trkpt lat="47.77604" lon="2.3264">
        <ele>117</ele>
        <time>2017-05-07T07:54:38.360Z</time>
      </trkpt>
      <trkpt lat="47.77609" lon="2.32646">
        <ele>117</ele>
        <time>2017-05-07T07:54:39.388Z</time>
      </trkpt>
      <trkpt lat="47.7761" lon="2.32647">
        <ele>117</ele>
        <time>2017-05-07T07:54:40.364Z</time>
      </trkpt>
      <trkpt lat="47.7761" lon="2.32647">
        <ele>117</ele>
        <time>2017-05-07T07:54:41.356Z</time>
      </trkpt>
      <trkpt lat="47.77613" lon="2.32649">
        <ele>117</ele>
        <time>2017-05-07T07:54:42.390Z</time>
      </trkpt>
      <trkpt lat="47.77613" lon="2.32649">
        <ele>117</ele>
        <time>2017-05-07T07:54:43.361Z</time>
      </trkpt>
      <trkpt lat="47.77615" lon="2.32651">
        <ele>117</ele>
        <time>2017-05-07T07:54:44.363Z</time>
      </trkpt>
      <trkpt lat="47.77615" lon="2.32651">
        <ele>117</ele>
        <time>2017-05-07T07:54:45.357Z</time>
      </trkpt>
      <trkpt lat="47.77617" lon="2.32652">
        <ele>117</ele>
        <time>2017-05-07T07:54:46.387Z</time>
      </trkpt>
      <trkpt lat="47.77617" lon="2.32652">
        <ele>117</ele>
        <time>2017-05-07T07:54:47.368Z</time>
      </trkpt>
      <trkpt lat="47.77617" lon="2.32652">
        <ele>117</ele>
        <time>2017-05-07T07:54:48.357Z</time>
      </trkpt>
      <trkpt lat="47.77617" lon="2.32652">
        <ele>117</ele>
        <time>2017-05-07T07:54:49.390Z</time>
      </trkpt>
      <trkpt lat="47.77626" lon="2.32657">
        <ele>118</ele>
        <time>2017-05-07T07:54:50.356Z</time>
      </trkpt>
      <trkpt lat="47.77626" lon="2.32657">
        <ele>118</ele>
        <time>2017-05-07T07:54:51.389Z</time>
      </trkpt>
      <trkpt lat="47.77629" lon="2.32659">
        <ele>118</ele>
        <time>2017-05-07T07:54:52.356Z</time>
      </trkpt>
      <trkpt lat="47.77629" lon="2.32659">
        <ele>118</ele>
        <time>2017-05-07T07:54:53.391Z</time>
      </trkpt>
      <trkpt lat="47.77633" lon="2.32661">
        <ele>118</ele>
        <time>2017-05-07T07:54:54.394Z</time>
      </trkpt>
      <trkpt lat="47.77633" lon="2.32661">
        <ele>118</ele>
        <time>2017-05-07T07:54:55.392Z</time>
      </trkpt>
      <trkpt lat="47.77638" lon="2.32665">
        <ele>119</ele>
        <time>2017-05-07T07:54:56.389Z</time>
      </trkpt>
      <trkpt lat="47.77641" lon="2.32668">
        <ele>119</ele>
        <time>2017-05-07T07:54:57.394Z</time>
      </trkpt>
      <trkpt lat="47.77641" lon="2.32668">
        <ele>119</ele>
        <time>2017-05-07T07:54:58.389Z</time>
      </trkpt>
      <trkpt lat="47.77648" lon="2.32673">
        <ele>119</ele>
        <time>2017-05-07T07:54:59.377Z</time>
      </trkpt>
      <trkpt lat="47.77648" lon="2.32673">
        <ele>119</ele>
        <time>2017-05-07T07:55:00.392Z</time>
      </trkpt>
      <trkpt lat="47.77656" lon="2.32678">
        <ele>119</ele>
        <time>2017-05-07T07:55:01.393Z</time>
      </trkpt>
      <trkpt lat="47.77656" lon="2.32678">
        <ele>119</ele>
        <time>2017-05-07T07:55:02.389Z</time>
      </trkpt>
      <trkpt lat="47.77664" lon="2.32684">
        <ele>119</ele>
        <time>2017-05-07T07:55:03.394Z</time>
      </trkpt>
      <trkpt lat="47.77664" lon="2.32684">
        <ele>119</ele>
        <time>2017-05-07T07:55:04.355Z</time>
      </trkpt>
      <trkpt lat="47.77669" lon="2.32691">
        <ele>117</ele>
        <time>2017-05-07T07:55:05.394Z</time>
      </trkpt>
      <trkpt lat="47.77669" lon="2.32691">
        <ele>117</ele>
        <time>2017-05-07T07:55:06.388Z</time>
      </trkpt>
      <trkpt lat="47.77676" lon="2.32696">
        <ele>118</ele>
        <time>2017-05-07T07:55:07.362Z</time>
      </trkpt>
      <trkpt lat="47.77676" lon="2.32696">
        <ele>118</ele>
        <time>2017-05-07T07:55:08.393Z</time>
      </trkpt>
      <trkpt lat="47.77684" lon="2.32703">
        <ele>117</ele>
        <time>2017-05-07T07:55:09.390Z</time>
      </trkpt>
      <trkpt lat="47.77688" lon="2.32706">
        <ele>117</ele>
        <time>2017-05-07T07:55:10.355Z</time>
      </trkpt>
      <trkpt lat="47.77692" lon="2.32709">
        <ele>117</ele>
        <time>2017-05-07T07:55:11.395Z</time>
      </trkpt>
      <trkpt lat="47.77692" lon="2.32709">
        <ele>117</ele>
        <time>2017-05-07T07:55:12.387Z</time>
      </trkpt>
      <trkpt lat="47.777" lon="2.32715">
        <ele>117</ele>
        <time>2017-05-07T07:55:13.355Z</time>
      </trkpt>
      <trkpt lat="47.777" lon="2.32715">
        <ele>117</ele>
        <time>2017-05-07T07:55:14.389Z</time>
      </trkpt>
      <trkpt lat="47.77708" lon="2.32721">
        <ele>117</ele>
        <time>2017-05-07T07:55:15.359Z</time>
      </trkpt>
      <trkpt lat="47.77708" lon="2.32721">
        <ele>117</ele>
        <time>2017-05-07T07:55:16.359Z</time>
      </trkpt>
      <trkpt lat="47.77716" lon="2.32726">
        <ele>117</ele>
        <time>2017-05-07T07:55:17.356Z</time>
      </trkpt>
      <trkpt lat="47.77716" lon="2.32726">
        <ele>117</ele>
        <time>2017-05-07T07:55:18.390Z</time>
      </trkpt>
      <trkpt lat="47.77724" lon="2.32732">
        <ele>118</ele>
        <time>2017-05-07T07:55:19.355Z</time>
      </trkpt>
      <trkpt lat="47.77724" lon="2.32732">
        <ele>118</ele>
        <time>2017-05-07T07:55:20.390Z</time>
      </trkpt>
      <trkpt lat="47.77731" lon="2.32738">
        <ele>118</ele>
        <time>2017-05-07T07:55:21.363Z</time>
      </trkpt>
      <trkpt lat="47.77731" lon="2.32738">
        <ele>118</ele>
        <time>2017-05-07T07:55:22.393Z</time>
      </trkpt>
      <trkpt lat="47.77739" lon="2.32744">
        <ele>118</ele>
        <time>2017-05-07T07:55:23.356Z</time>
      </trkpt>
      <trkpt lat="47.77739" lon="2.32744">
        <ele>118</ele>
        <time>2017-05-07T07:55:24.390Z</time>
      </trkpt>
      <trkpt lat="47.77747" lon="2.32751">
        <ele>118</ele>
        <time>2017-05-07T07:55:25.356Z</time>
      </trkpt>
      <trkpt lat="47.77747" lon="2.32751">
        <ele>118</ele>
        <time>2017-05-07T07:55:26.390Z</time>
      </trkpt>
      <trkpt lat="47.77756" lon="2.32756">
        <ele>118</ele>
        <time>2017-05-07T07:55:27.394Z</time>
      </trkpt>
      <trkpt lat="47.77756" lon="2.32756">
        <ele>118</ele>
        <time>2017-05-07T07:55:28.389Z</time>
      </trkpt>
      <trkpt lat="47.77765" lon="2.32762">
        <ele>118</ele>
        <time>2017-05-07T07:55:29.357Z</time>
      </trkpt>
      <trkpt lat="47.77765" lon="2.32762">
        <ele>118</ele>
        <time>2017-05-07T07:55:30.389Z</time>
      </trkpt>
      <trkpt lat="47.77773" lon="2.32769">
        <ele>117</ele>
        <time>2017-05-07T07:55:31.394Z</time>
      </trkpt>
      <trkpt lat="47.77773" lon="2.32769">
        <ele>117</ele>
        <time>2017-05-07T07:55:32.390Z</time>
      </trkpt>
      <trkpt lat="47.77783" lon="2.32775">
        <ele>117</ele>
        <time>2017-05-07T07:55:33.394Z</time>
      </trkpt>
      <trkpt lat="47.77788" lon="2.32778">
        <ele>116</ele>
        <time>2017-05-07T07:55:34.394Z</time>
      </trkpt>
      <trkpt lat="47.77788" lon="2.32778">
        <ele>116</ele>
        <time>2017-05-07T07:55:35.391Z</time>
      </trkpt>
      <trkpt lat="47.77797" lon="2.32785">
        <ele>116</ele>
        <time>2017-05-07T07:55:36.357Z</time>
      </trkpt>
      <trkpt lat="47.77797" lon="2.32785">
        <ele>116</ele>
        <time>2017-05-07T07:55:37.389Z</time>
      </trkpt>
      <trkpt lat="47.77807" lon="2.32791">
        <ele>115</ele>
        <time>2017-05-07T07:55:38.394Z</time>
      </trkpt>
      <trkpt lat="47.77807" lon="2.32791">
        <ele>115</ele>
        <time>2017-05-07T07:55:39.394Z</time>
      </trkpt>
      <trkpt lat="47.77817" lon="2.32798">
        <ele>115</ele>
        <time>2017-05-07T07:55:40.395Z</time>
      </trkpt>
      <trkpt lat="47.77823" lon="2.32801">
        <ele>115</ele>
        <time>2017-05-07T07:55:41.356Z</time>
      </trkpt>
      <trkpt lat="47.77823" lon="2.32801">
        <ele>115</ele>
        <time>2017-05-07T07:55:42.390Z</time>
      </trkpt>
      <trkpt lat="47.77833" lon="2.32806">
        <ele>115</ele>
        <time>2017-05-07T07:55:43.394Z</time>
      </trkpt>
      <trkpt lat="47.77833" lon="2.32806">
        <ele>115</ele>
        <time>2017-05-07T07:55:44.389Z</time>
      </trkpt>
      <trkpt lat="47.77844" lon="2.32811">
        <ele>116</ele>
        <time>2017-05-07T07:55:45.394Z</time>
      </trkpt>
      <trkpt lat="47.77844" lon="2.32811">
        <ele>116</ele>
        <time>2017-05-07T07:55:46.391Z</time>
      </trkpt>
      <trkpt lat="47.77855" lon="2.32816">
        <ele>115</ele>
        <time>2017-05-07T07:55:47.362Z</time>
      </trkpt>
      <trkpt lat="47.77855" lon="2.32816">
        <ele>115</ele>
        <time>2017-05-07T07:55:48.393Z</time>
      </trkpt>
      <trkpt lat="47.77866" lon="2.32821">
        <ele>115</ele>
        <time>2017-05-07T07:55:49.368Z</time>
      </trkpt>
      <trkpt lat="47.77866" lon="2.32821">
        <ele>115</ele>
        <time>2017-05-07T07:55:50.358Z</time>
      </trkpt>
      <trkpt lat="47.77878" lon="2.32827">
        <ele>115</ele>
        <time>2017-05-07T07:55:51.394Z</time>
      </trkpt>
      <trkpt lat="47.77878" lon="2.32827">
        <ele>115</ele>
        <time>2017-05-07T07:55:52.390Z</time>
      </trkpt>
      <trkpt lat="47.77889" lon="2.32831">
        <ele>115</ele>
        <time>2017-05-07T07:55:53.357Z</time>
      </trkpt>
      <trkpt lat="47.77889" lon="2.32831">
        <ele>115</ele>
        <time>2017-05-07T07:55:54.389Z</time>
      </trkpt>
      <trkpt lat="47.77899" lon="2.32836">
        <ele>115</ele>
        <time>2017-05-07T07:55:55.394Z</time>
      </trkpt>
      <trkpt lat="47.77899" lon="2.32836">
        <ele>115</ele>
        <time>2017-05-07T07:55:56.395Z</time>
      </trkpt>
      <trkpt lat="47.77909" lon="2.3284">
        <ele>115</ele>
        <time>2017-05-07T07:55:57.355Z</time>
      </trkpt>
      <trkpt lat="47.77909" lon="2.3284">
        <ele>115</ele>
        <time>2017-05-07T07:55:58.386Z</time>
      </trkpt>
      <trkpt lat="47.77919" lon="2.32845">
        <ele>115</ele>
        <time>2017-05-07T07:55:59.387Z</time>
      </trkpt>
      <trkpt lat="47.77919" lon="2.32845">
        <ele>115</ele>
        <time>2017-05-07T07:56:00.363Z</time>
      </trkpt>
      <trkpt lat="47.77928" lon="2.32852">
        <ele>115</ele>
        <time>2017-05-07T07:56:01.356Z</time>
      </trkpt>
      <trkpt lat="47.77928" lon="2.32852">
        <ele>115</ele>
        <time>2017-05-07T07:56:02.390Z</time>
      </trkpt>
      <trkpt lat="47.77938" lon="2.32858">
        <ele>115</ele>
        <time>2017-05-07T07:56:03.395Z</time>
      </trkpt>
      <trkpt lat="47.77938" lon="2.32858">
        <ele>115</ele>
        <time>2017-05-07T07:56:04.390Z</time>
      </trkpt>
      <trkpt lat="47.77947" lon="2.32864">
        <ele>115</ele>
        <time>2017-05-07T07:56:05.394Z</time>
      </trkpt>
      <trkpt lat="47.77947" lon="2.32864">
        <ele>115</ele>
        <time>2017-05-07T07:56:06.394Z</time>
      </trkpt>
      <trkpt lat="47.77957" lon="2.32872">
        <ele>115</ele>
        <time>2017-05-07T07:56:07.394Z</time>
      </trkpt>
      <trkpt lat="47.77962" lon="2.32876">
        <ele>115</ele>
        <time>2017-05-07T07:56:08.375Z</time>
      </trkpt>
      <trkpt lat="47.77962" lon="2.32876">
        <ele>115</ele>
        <time>2017-05-07T07:56:09.375Z</time>
      </trkpt>
      <trkpt lat="47.77971" lon="2.32883">
        <ele>114</ele>
        <time>2017-05-07T07:56:10.365Z</time>
      </trkpt>
      <trkpt lat="47.77976" lon="2.32886">
        <ele>115</ele>
        <time>2017-05-07T07:56:11.355Z</time>
      </trkpt>
      <trkpt lat="47.77981" lon="2.3289">
        <ele>114</ele>
        <time>2017-05-07T07:56:12.366Z</time>
      </trkpt>
      <trkpt lat="47.77981" lon="2.3289">
        <ele>114</ele>
        <time>2017-05-07T07:56:13.394Z</time>
      </trkpt>
      <trkpt lat="47.7799" lon="2.32899">
        <ele>114</ele>
        <time>2017-05-07T07:56:14.394Z</time>
      </trkpt>
      <trkpt lat="47.7799" lon="2.32899">
        <ele>114</ele>
        <time>2017-05-07T07:56:15.387Z</time>
      </trkpt>
      <trkpt lat="47.77999" lon="2.32909">
        <ele>113</ele>
        <time>2017-05-07T07:56:16.359Z</time>
      </trkpt>
      <trkpt lat="47.78004" lon="2.32915">
        <ele>113</ele>
        <time>2017-05-07T07:56:17.394Z</time>
      </trkpt>
      <trkpt lat="47.78004" lon="2.32915">
        <ele>113</ele>
        <time>2017-05-07T07:56:18.382Z</time>
      </trkpt>
      <trkpt lat="47.78012" lon="2.32927">
        <ele>113</ele>
        <time>2017-05-07T07:56:19.393Z</time>
      </trkpt>
      <trkpt lat="47.78012" lon="2.32927">
        <ele>113</ele>
        <time>2017-05-07T07:56:20.387Z</time>
      </trkpt>
      <trkpt lat="47.78019" lon="2.32937">
        <ele>113</ele>
        <time>2017-05-07T07:56:21.392Z</time>
      </trkpt>
      <trkpt lat="47.78019" lon="2.32937">
        <ele>113</ele>
        <time>2017-05-07T07:56:22.387Z</time>
      </trkpt>
      <trkpt lat="47.78029" lon="2.32947">
        <ele>114</ele>
        <time>2017-05-07T07:56:23.394Z</time>
      </trkpt>
      <trkpt lat="47.78029" lon="2.32947">
        <ele>114</ele>
        <time>2017-05-07T07:56:24.386Z</time>
      </trkpt>
      <trkpt lat="47.78039" lon="2.32954">
        <ele>114</ele>
        <time>2017-05-07T07:56:25.390Z</time>
      </trkpt>
      <trkpt lat="47.78045" lon="2.32958">
        <ele>115</ele>
        <time>2017-05-07T07:56:26.394Z</time>
      </trkpt>
      <trkpt lat="47.78045" lon="2.32958">
        <ele>115</ele>
        <time>2017-05-07T07:56:27.391Z</time>
      </trkpt>
      <trkpt lat="47.78057" lon="2.32966">
        <ele>115</ele>
        <time>2017-05-07T07:56:28.393Z</time>
      </trkpt>
      <trkpt lat="47.78063" lon="2.3297">
        <ele>115</ele>
        <time>2017-05-07T07:56:29.355Z</time>
      </trkpt>
      <trkpt lat="47.78063" lon="2.3297">
        <ele>115</ele>
        <time>2017-05-07T07:56:30.393Z</time>
      </trkpt>
      <trkpt lat="47.78073" lon="2.32976">
        <ele>115</ele>
        <time>2017-05-07T07:56:31.390Z</time>
      </trkpt>
      <trkpt lat="47.78073" lon="2.32976">
        <ele>115</ele>
        <time>2017-05-07T07:56:32.388Z</time>
      </trkpt>
      <trkpt lat="47.78083" lon="2.32983">
        <ele>115</ele>
        <time>2017-05-07T07:56:33.392Z</time>
      </trkpt>
      <trkpt lat="47.78083" lon="2.32983">
        <ele>115</ele>
        <time>2017-05-07T07:56:34.387Z</time>
      </trkpt>
      <trkpt lat="47.78093" lon="2.32989">
        <ele>116</ele>
        <time>2017-05-07T07:56:35.394Z</time>
      </trkpt>
      <trkpt lat="47.78093" lon="2.32989">
        <ele>116</ele>
        <time>2017-05-07T07:56:36.387Z</time>
      </trkpt>
      <trkpt lat="47.78104" lon="2.32996">
        <ele>116</ele>
        <time>2017-05-07T07:56:37.392Z</time>
      </trkpt>
      <trkpt lat="47.78104" lon="2.32996">
        <ele>116</ele>
        <time>2017-05-07T07:56:38.386Z</time>
      </trkpt>
      <trkpt lat="47.78114" lon="2.33002">
        <ele>116</ele>
        <time>2017-05-07T07:56:39.394Z</time>
      </trkpt>
      <trkpt lat="47.78114" lon="2.33002">
        <ele>116</ele>
        <time>2017-05-07T07:56:40.388Z</time>
      </trkpt>
      <trkpt lat="47.78124" lon="2.33008">
        <ele>116</ele>
        <time>2017-05-07T07:56:41.395Z</time>
      </trkpt>
      <trkpt lat="47.78124" lon="2.33008">
        <ele>116</ele>
        <time>2017-05-07T07:56:42.357Z</time>
      </trkpt>
      <trkpt lat="47.78134" lon="2.33015">
        <ele>117</ele>
        <time>2017-05-07T07:56:43.363Z</time>
      </trkpt>
      <trkpt lat="47.78134" lon="2.33015">
        <ele>117</ele>
        <time>2017-05-07T07:56:44.370Z</time>
      </trkpt>
      <trkpt lat="47.78144" lon="2.33021">
        <ele>117</ele>
        <time>2017-05-07T07:56:45.392Z</time>
      </trkpt>
      <trkpt lat="47.78144" lon="2.33021">
        <ele>117</ele>
        <time>2017-05-07T07:56:46.387Z</time>
      </trkpt>
      <trkpt lat="47.78155" lon="2.33028">
        <ele>117</ele>
        <time>2017-05-07T07:56:47.393Z</time>
      </trkpt>
      <trkpt lat="47.78155" lon="2.33028">
        <ele>117</ele>
        <time>2017-05-07T07:56:48.383Z</time>
      </trkpt>
      <trkpt lat="47.78164" lon="2.33033">
        <ele>117</ele>
        <time>2017-05-07T07:56:49.393Z</time>
      </trkpt>
      <trkpt lat="47.78164" lon="2.33033">
        <ele>117</ele>
        <time>2017-05-07T07:56:50.389Z</time>
      </trkpt>
      <trkpt lat="47.78172" lon="2.33039">
        <ele>117</ele>
        <time>2017-05-07T07:56:51.392Z</time>
      </trkpt>
      <trkpt lat="47.78172" lon="2.33039">
        <ele>117</ele>
        <time>2017-05-07T07:56:52.387Z</time>
      </trkpt>
      <trkpt lat="47.78181" lon="2.33044">
        <ele>117</ele>
        <time>2017-05-07T07:56:53.394Z</time>
      </trkpt>
      <trkpt lat="47.78181" lon="2.33044">
        <ele>117</ele>
        <time>2017-05-07T07:56:54.387Z</time>
      </trkpt>
      <trkpt lat="47.78189" lon="2.33049">
        <ele>118</ele>
        <time>2017-05-07T07:56:55.392Z</time>
      </trkpt>
      <trkpt lat="47.78189" lon="2.33049">
        <ele>118</ele>
        <time>2017-05-07T07:56:56.387Z</time>
      </trkpt>
      <trkpt lat="47.78198" lon="2.33055">
        <ele>117</ele>
        <time>2017-05-07T07:56:57.392Z</time>
      </trkpt>
      <trkpt lat="47.78202" lon="2.33058">
        <ele>117</ele>
        <time>2017-05-07T07:56:58.390Z</time>
      </trkpt>
      <trkpt lat="47.78207" lon="2.33061">
        <ele>117</ele>
        <time>2017-05-07T07:56:59.364Z</time>
      </trkpt>
      <trkpt lat="47.78211" lon="2.33063">
        <ele>117</ele>
        <time>2017-05-07T07:57:00.358Z</time>
      </trkpt>
      <trkpt lat="47.78211" lon="2.33063">
        <ele>117</ele>
        <time>2017-05-07T07:57:01.388Z</time>
      </trkpt>
      <trkpt lat="47.78221" lon="2.33069">
        <ele>117</ele>
        <time>2017-05-07T07:57:02.392Z</time>
      </trkpt>
      <trkpt lat="47.78221" lon="2.33069">
        <ele>117</ele>
        <time>2017-05-07T07:57:03.388Z</time>
      </trkpt>
      <trkpt lat="47.7823" lon="2.33074">
        <ele>118</ele>
        <time>2017-05-07T07:57:04.392Z</time>
      </trkpt>
      <trkpt lat="47.78235" lon="2.33077">
        <ele>118</ele>
        <time>2017-05-07T07:57:05.355Z</time>
      </trkpt>
      <trkpt lat="47.78235" lon="2.33077">
        <ele>118</ele>
        <time>2017-05-07T07:57:06.387Z</time>
      </trkpt>
      <trkpt lat="47.78244" lon="2.33082">
        <ele>119</ele>
        <time>2017-05-07T07:57:07.394Z</time>
      </trkpt>
      <trkpt lat="47.78249" lon="2.33084">
        <ele>119</ele>
        <time>2017-05-07T07:57:08.376Z</time>
      </trkpt>
      <trkpt lat="47.78249" lon="2.33084">
        <ele>119</ele>
        <time>2017-05-07T07:57:09.372Z</time>
      </trkpt>
      <trkpt lat="47.78259" lon="2.3309">
        <ele>118</ele>
        <time>2017-05-07T07:57:10.361Z</time>
      </trkpt>
      <trkpt lat="47.78264" lon="2.33093">
        <ele>118</ele>
        <time>2017-05-07T07:57:11.394Z</time>
      </trkpt>
      <trkpt lat="47.78264" lon="2.33093">
        <ele>118</ele>
        <time>2017-05-07T07:57:12.388Z</time>
      </trkpt>
      <trkpt lat="47.78273" lon="2.33098">
        <ele>118</ele>
        <time>2017-05-07T07:57:13.394Z</time>
      </trkpt>
      <trkpt lat="47.78277" lon="2.33101">
        <ele>118</ele>
        <time>2017-05-07T07:57:14.358Z</time>
      </trkpt>
      <trkpt lat="47.78282" lon="2.33104">
        <ele>119</ele>
        <time>2017-05-07T07:57:15.394Z</time>
      </trkpt>
      <trkpt lat="47.78282" lon="2.33104">
        <ele>119</ele>
        <time>2017-05-07T07:57:16.361Z</time>
      </trkpt>
      <trkpt lat="47.78291" lon="2.33107">
        <ele>120</ele>
        <time>2017-05-07T07:57:17.367Z</time>
      </trkpt>
      <trkpt lat="47.78295" lon="2.33106">
        <ele>119</ele>
        <time>2017-05-07T07:57:18.361Z</time>
      </trkpt>
      <trkpt lat="47.78295" lon="2.33106">
        <ele>119</ele>
        <time>2017-05-07T07:57:19.356Z</time>
      </trkpt>
      <trkpt lat="47.78304" lon="2.33107">
        <ele>118</ele>
        <time>2017-05-07T07:57:20.364Z</time>
      </trkpt>
      <trkpt lat="47.78309" lon="2.33109">
        <ele>119</ele>
        <time>2017-05-07T07:57:21.357Z</time>
      </trkpt>
      <trkpt lat="47.78309" lon="2.33109">
        <ele>119</ele>
        <time>2017-05-07T07:57:22.391Z</time>
      </trkpt>
      <trkpt lat="47.78318" lon="2.33113">
        <ele>118</ele>
        <time>2017-05-07T07:57:23.359Z</time>
      </trkpt>
      <trkpt lat="47.78318" lon="2.33113">
        <ele>118</ele>
        <time>2017-05-07T07:57:24.395Z</time>
      </trkpt>
      <trkpt lat="47.78326" lon="2.33118">
        <ele>118</ele>
        <time>2017-05-07T07:57:25.358Z</time>
      </trkpt>
      <trkpt lat="47.7833" lon="2.3312">
        <ele>118</ele>
        <time>2017-05-07T07:57:26.360Z</time>
      </trkpt>
      <trkpt lat="47.78334" lon="2.33122">
        <ele>119</ele>
        <time>2017-05-07T07:57:27.357Z</time>
      </trkpt>
      <trkpt lat="47.78334" lon="2.33122">
        <ele>119</ele>
        <time>2017-05-07T07:57:28.360Z</time>
      </trkpt>
      <trkpt lat="47.78342" lon="2.33127">
        <ele>119</ele>
        <time>2017-05-07T07:57:29.359Z</time>
      </trkpt>
      <trkpt lat="47.78342" lon="2.33127">
        <ele>119</ele>
        <time>2017-05-07T07:57:30.391Z</time>
      </trkpt>
      <trkpt lat="47.78351" lon="2.33133">
        <ele>119</ele>
        <time>2017-05-07T07:57:31.356Z</time>
      </trkpt>
      <trkpt lat="47.78351" lon="2.33133">
        <ele>119</ele>
        <time>2017-05-07T07:57:32.392Z</time>
      </trkpt>
      <trkpt lat="47.7836" lon="2.33139">
        <ele>119</ele>
        <time>2017-05-07T07:57:33.357Z</time>
      </trkpt>
      <trkpt lat="47.7836" lon="2.33139">
        <ele>119</ele>
        <time>2017-05-07T07:57:34.390Z</time>
      </trkpt>
      <trkpt lat="47.78368" lon="2.33144">
        <ele>119</ele>
        <time>2017-05-07T07:57:35.359Z</time>
      </trkpt>
      <trkpt lat="47.78373" lon="2.33146">
        <ele>119</ele>
        <time>2017-05-07T07:57:36.356Z</time>
      </trkpt>
      <trkpt lat="47.78373" lon="2.33146">
        <ele>119</ele>
        <time>2017-05-07T07:57:37.392Z</time>
      </trkpt>
      <trkpt lat="47.78381" lon="2.33154">
        <ele>118</ele>
        <time>2017-05-07T07:57:38.357Z</time>
      </trkpt>
      <trkpt lat="47.78381" lon="2.33154">
        <ele>118</ele>
        <time>2017-05-07T07:57:39.393Z</time>
      </trkpt>
      <trkpt lat="47.78387" lon="2.33164">
        <ele>117</ele>
        <time>2017-05-07T07:57:40.356Z</time>
      </trkpt>
      <trkpt lat="47.78389" lon="2.3317">
        <ele>116</ele>
        <time>2017-05-07T07:57:41.358Z</time>
      </trkpt>
      <trkpt lat="47.78389" lon="2.3317">
        <ele>116</ele>
        <time>2017-05-07T07:57:42.394Z</time>
      </trkpt>
      <trkpt lat="47.78393" lon="2.33181">
        <ele>116</ele>
        <time>2017-05-07T07:57:43.356Z</time>
      </trkpt>
      <trkpt lat="47.78394" lon="2.33186">
        <ele>115</ele>
        <time>2017-05-07T07:57:44.357Z</time>
      </trkpt>
      <trkpt lat="47.78394" lon="2.33186">
        <ele>115</ele>
        <time>2017-05-07T07:57:45.370Z</time>
      </trkpt>
      <trkpt lat="47.78393" lon="2.33198">
        <ele>114</ele>
        <time>2017-05-07T07:57:46.359Z</time>
      </trkpt>
      <trkpt lat="47.78391" lon="2.33205">
        <ele>114</ele>
        <time>2017-05-07T07:57:47.361Z</time>
      </trkpt>
      <trkpt lat="47.78391" lon="2.33205">
        <ele>114</ele>
        <time>2017-05-07T07:57:48.393Z</time>
      </trkpt>
      <trkpt lat="47.78386" lon="2.33217">
        <ele>114</ele>
        <time>2017-05-07T07:57:49.368Z</time>
      </trkpt>
      <trkpt lat="47.78386" lon="2.33217">
        <ele>114</ele>
        <time>2017-05-07T07:57:50.358Z</time>
      </trkpt>
      <trkpt lat="47.78379" lon="2.33229">
        <ele>114</ele>
        <time>2017-05-07T07:57:51.357Z</time>
      </trkpt>
      <trkpt lat="47.78379" lon="2.33229">
        <ele>114</ele>
        <time>2017-05-07T07:57:52.395Z</time>
      </trkpt>
      <trkpt lat="47.78373" lon="2.33242">
        <ele>114</ele>
        <time>2017-05-07T07:57:53.359Z</time>
      </trkpt>
      <trkpt lat="47.78373" lon="2.33242">
        <ele>114</ele>
        <time>2017-05-07T07:57:54.355Z</time>
      </trkpt>
      <trkpt lat="47.78368" lon="2.33254">
        <ele>114</ele>
        <time>2017-05-07T07:57:55.357Z</time>
      </trkpt>
      <trkpt lat="47.78368" lon="2.33254">
        <ele>114</ele>
        <time>2017-05-07T07:57:56.360Z</time>
      </trkpt>
      <trkpt lat="47.78362" lon="2.33267">
        <ele>114</ele>
        <time>2017-05-07T07:57:57.359Z</time>
      </trkpt>
      <trkpt lat="47.78358" lon="2.33274">
        <ele>114</ele>
        <time>2017-05-07T07:57:58.357Z</time>
      </trkpt>
      <trkpt lat="47.78358" lon="2.33274">
        <ele>114</ele>
        <time>2017-05-07T07:57:59.357Z</time>
      </trkpt>
      <trkpt lat="47.78351" lon="2.33287">
        <ele>114</ele>
        <time>2017-05-07T07:58:00.357Z</time>
      </trkpt>
      <trkpt lat="47.78348" lon="2.33294">
        <ele>113</ele>
        <time>2017-05-07T07:58:01.356Z</time>
      </trkpt>
      <trkpt lat="47.78348" lon="2.33294">
        <ele>113</ele>
        <time>2017-05-07T07:58:02.393Z</time>
      </trkpt>
      <trkpt lat="47.78342" lon="2.33308">
        <ele>113</ele>
        <time>2017-05-07T07:58:03.356Z</time>
      </trkpt>
      <trkpt lat="47.78342" lon="2.33308">
        <ele>113</ele>
        <time>2017-05-07T07:58:04.393Z</time>
      </trkpt>
      <trkpt lat="47.78336" lon="2.33319">
        <ele>113</ele>
        <time>2017-05-07T07:58:05.359Z</time>
      </trkpt>
      <trkpt lat="47.78336" lon="2.33319">
        <ele>113</ele>
        <time>2017-05-07T07:58:06.393Z</time>
      </trkpt>
      <trkpt lat="47.78333" lon="2.33333">
        <ele>113</ele>
        <time>2017-05-07T07:58:07.356Z</time>
      </trkpt>
      <trkpt lat="47.78333" lon="2.33333">
        <ele>113</ele>
        <time>2017-05-07T07:58:08.359Z</time>
      </trkpt>
      <trkpt lat="47.78337" lon="2.33346">
        <ele>113</ele>
        <time>2017-05-07T07:58:09.361Z</time>
      </trkpt>
      <trkpt lat="47.78337" lon="2.33346">
        <ele>113</ele>
        <time>2017-05-07T07:58:10.390Z</time>
      </trkpt>
      <trkpt lat="47.78338" lon="2.33358">
        <ele>112</ele>
        <time>2017-05-07T07:58:11.355Z</time>
      </trkpt>
      <trkpt lat="47.78338" lon="2.33358">
        <ele>112</ele>
        <time>2017-05-07T07:58:12.388Z</time>
      </trkpt>
      <trkpt lat="47.78335" lon="2.33372">
        <ele>112</ele>
        <time>2017-05-07T07:58:13.394Z</time>
      </trkpt>
      <trkpt lat="47.78335" lon="2.33372">
        <ele>112</ele>
        <time>2017-05-07T07:58:14.388Z</time>
      </trkpt>
      <trkpt lat="47.78328" lon="2.33385">
        <ele>112</ele>
        <time>2017-05-07T07:58:15.392Z</time>
      </trkpt>
      <trkpt lat="47.78325" lon="2.33392">
        <ele>111</ele>
        <time>2017-05-07T07:58:16.356Z</time>
      </trkpt>
      <trkpt lat="47.78325" lon="2.33392">
        <ele>111</ele>
        <time>2017-05-07T07:58:17.390Z</time>
      </trkpt>
      <trkpt lat="47.78318" lon="2.33406">
        <ele>111</ele>
        <time>2017-05-07T07:58:18.393Z</time>
      </trkpt>
      <trkpt lat="47.78318" lon="2.33406">
        <ele>111</ele>
        <time>2017-05-07T07:58:19.360Z</time>
      </trkpt>
      <trkpt lat="47.78311" lon="2.33419">
        <ele>111</ele>
        <time>2017-05-07T07:58:20.355Z</time>
      </trkpt>
      <trkpt lat="47.78311" lon="2.33419">
        <ele>111</ele>
        <time>2017-05-07T07:58:21.360Z</time>
      </trkpt>
      <trkpt lat="47.78304" lon="2.33431">
        <ele>111</ele>
        <time>2017-05-07T07:58:22.394Z</time>
      </trkpt>
      <trkpt lat="47.783" lon="2.33437">
        <ele>111</ele>
        <time>2017-05-07T07:58:23.392Z</time>
      </trkpt>
      <trkpt lat="47.783" lon="2.33437">
        <ele>111</ele>
        <time>2017-05-07T07:58:24.388Z</time>
      </trkpt>
      <trkpt lat="47.78293" lon="2.33449">
        <ele>111</ele>
        <time>2017-05-07T07:58:25.394Z</time>
      </trkpt>
      <trkpt lat="47.78289" lon="2.33456">
        <ele>111</ele>
        <time>2017-05-07T07:58:26.355Z</time>
      </trkpt>
      <trkpt lat="47.78289" lon="2.33456">
        <ele>111</ele>
        <time>2017-05-07T07:58:27.388Z</time>
      </trkpt>
      <trkpt lat="47.78282" lon="2.3347">
        <ele>111</ele>
        <time>2017-05-07T07:58:28.392Z</time>
      </trkpt>
      <trkpt lat="47.78278" lon="2.33476">
        <ele>111</ele>
        <time>2017-05-07T07:58:29.355Z</time>
      </trkpt>
      <trkpt lat="47.78278" lon="2.33476">
        <ele>111</ele>
        <time>2017-05-07T07:58:30.388Z</time>
      </trkpt>
      <trkpt lat="47.78271" lon="2.33488">
        <ele>111</ele>
        <time>2017-05-07T07:58:31.394Z</time>
      </trkpt>
      <trkpt lat="47.78271" lon="2.33488">
        <ele>111</ele>
        <time>2017-05-07T07:58:32.388Z</time>
      </trkpt>
      <trkpt lat="47.78263" lon="2.335">
        <ele>111</ele>
        <time>2017-05-07T07:58:33.360Z</time>
      </trkpt>
      <trkpt lat="47.78263" lon="2.335">
        <ele>111</ele>
        <time>2017-05-07T07:58:34.390Z</time>
      </trkpt>
      <trkpt lat="47.78256" lon="2.33512">
        <ele>111</ele>
        <time>2017-05-07T07:58:35.355Z</time>
      </trkpt>
      <trkpt lat="47.78256" lon="2.33512">
        <ele>111</ele>
        <time>2017-05-07T07:58:36.391Z</time>
      </trkpt>
      <trkpt lat="47.78249" lon="2.33525">
        <ele>111</ele>
        <time>2017-05-07T07:58:37.394Z</time>
      </trkpt>
      <trkpt lat="47.78249" lon="2.33525">
        <ele>111</ele>
        <time>2017-05-07T07:58:38.356Z</time>
      </trkpt>
      <trkpt lat="47.78241" lon="2.33536">
        <ele>111</ele>
        <time>2017-05-07T07:58:39.355Z</time>
      </trkpt>
      <trkpt lat="47.78241" lon="2.33536">
        <ele>111</ele>
        <time>2017-05-07T07:58:40.391Z</time>
      </trkpt>
      <trkpt lat="47.78234" lon="2.33547">
        <ele>111</ele>
        <time>2017-05-07T07:58:41.394Z</time>
      </trkpt>
      <trkpt lat="47.78234" lon="2.33547">
        <ele>111</ele>
        <time>2017-05-07T07:58:42.388Z</time>
      </trkpt>
      <trkpt lat="47.78227" lon="2.33557">
        <ele>111</ele>
        <time>2017-05-07T07:58:43.394Z</time>
      </trkpt>
      <trkpt lat="47.78227" lon="2.33557">
        <ele>111</ele>
        <time>2017-05-07T07:58:44.388Z</time>
      </trkpt>
      <trkpt lat="47.78219" lon="2.33566">
        <ele>112</ele>
        <time>2017-05-07T07:58:45.392Z</time>
      </trkpt>
      <trkpt lat="47.78219" lon="2.33566">
        <ele>112</ele>
        <time>2017-05-07T07:58:46.390Z</time>
      </trkpt>
      <trkpt lat="47.78211" lon="2.33575">
        <ele>112</ele>
        <time>2017-05-07T07:58:47.356Z</time>
      </trkpt>
      <trkpt lat="47.78207" lon="2.3358">
        <ele>112</ele>
        <time>2017-05-07T07:58:48.392Z</time>
      </trkpt>
      <trkpt lat="47.78207" lon="2.3358">
        <ele>112</ele>
        <time>2017-05-07T07:58:49.390Z</time>
      </trkpt>
      <trkpt lat="47.78198" lon="2.33589">
        <ele>112</ele>
        <time>2017-05-07T07:58:50.392Z</time>
      </trkpt>
      <trkpt lat="47.78198" lon="2.33589">
        <ele>112</ele>
        <time>2017-05-07T07:58:51.388Z</time>
      </trkpt>
      <trkpt lat="47.78189" lon="2.33598">
        <ele>112</ele>
        <time>2017-05-07T07:58:52.393Z</time>
      </trkpt>
      <trkpt lat="47.78189" lon="2.33598">
        <ele>112</ele>
        <time>2017-05-07T07:58:53.392Z</time>
      </trkpt>
      <trkpt lat="47.78181" lon="2.33605">
        <ele>112</ele>
        <time>2017-05-07T07:58:54.392Z</time>
      </trkpt>
      <trkpt lat="47.78177" lon="2.33609">
        <ele>112</ele>
        <time>2017-05-07T07:58:55.355Z</time>
      </trkpt>
      <trkpt lat="47.78177" lon="2.33609">
        <ele>112</ele>
        <time>2017-05-07T07:58:56.388Z</time>
      </trkpt>
      <trkpt lat="47.78169" lon="2.33616">
        <ele>112</ele>
        <time>2017-05-07T07:58:57.394Z</time>
      </trkpt>
      <trkpt lat="47.78169" lon="2.33616">
        <ele>112</ele>
        <time>2017-05-07T07:58:58.391Z</time>
      </trkpt>
      <trkpt lat="47.7816" lon="2.33623">
        <ele>113</ele>
        <time>2017-05-07T07:58:59.369Z</time>
      </trkpt>
      <trkpt lat="47.7816" lon="2.33623">
        <ele>113</ele>
        <time>2017-05-07T07:59:00.391Z</time>
      </trkpt>
      <trkpt lat="47.78152" lon="2.3363">
        <ele>113</ele>
        <time>2017-05-07T07:59:01.394Z</time>
      </trkpt>
      <trkpt lat="47.78152" lon="2.3363">
        <ele>113</ele>
        <time>2017-05-07T07:59:02.388Z</time>
      </trkpt>
      <trkpt lat="47.78144" lon="2.33637">
        <ele>113</ele>
        <time>2017-05-07T07:59:03.394Z</time>
      </trkpt>
      <trkpt lat="47.78139" lon="2.33641">
        <ele>113</ele>
        <time>2017-05-07T07:59:04.393Z</time>
      </trkpt>
      <trkpt lat="47.78139" lon="2.33641">
        <ele>113</ele>
        <time>2017-05-07T07:59:05.389Z</time>
      </trkpt>
      <trkpt lat="47.78132" lon="2.33649">
        <ele>113</ele>
        <time>2017-05-07T07:59:06.392Z</time>
      </trkpt>
      <trkpt lat="47.78132" lon="2.33649">
        <ele>113</ele>
        <time>2017-05-07T07:59:07.388Z</time>
      </trkpt>
      <trkpt lat="47.78124" lon="2.33657">
        <ele>113</ele>
        <time>2017-05-07T07:59:08.357Z</time>
      </trkpt>
      <trkpt lat="47.78124" lon="2.33657">
        <ele>113</ele>
        <time>2017-05-07T07:59:09.394Z</time>
      </trkpt>
      <trkpt lat="47.78118" lon="2.33665">
        <ele>113</ele>
        <time>2017-05-07T07:59:10.390Z</time>
      </trkpt>
      <trkpt lat="47.78115" lon="2.33668">
        <ele>113</ele>
        <time>2017-05-07T07:59:11.393Z</time>
      </trkpt>
      <trkpt lat="47.78115" lon="2.33668">
        <ele>113</ele>
        <time>2017-05-07T07:59:12.392Z</time>
      </trkpt>
      <trkpt lat="47.78108" lon="2.33675">
        <ele>113</ele>
        <time>2017-05-07T07:59:13.393Z</time>
      </trkpt>
      <trkpt lat="47.78108" lon="2.33675">
        <ele>113</ele>
        <time>2017-05-07T07:59:14.390Z</time>
      </trkpt>
      <trkpt lat="47.78101" lon="2.33682">
        <ele>113</ele>
        <time>2017-05-07T07:59:15.355Z</time>
      </trkpt>
      <trkpt lat="47.78101" lon="2.33682">
        <ele>113</ele>
        <time>2017-05-07T07:59:16.358Z</time>
      </trkpt>
      <trkpt lat="47.78093" lon="2.33691">
        <ele>113</ele>
        <time>2017-05-07T07:59:17.357Z</time>
      </trkpt>
      <trkpt lat="47.78093" lon="2.33691">
        <ele>113</ele>
        <time>2017-05-07T07:59:18.355Z</time>
      </trkpt>
      <trkpt lat="47.78085" lon="2.337">
        <ele>113</ele>
        <time>2017-05-07T07:59:19.393Z</time>
      </trkpt>
      <trkpt lat="47.78085" lon="2.337">
        <ele>113</ele>
        <time>2017-05-07T07:59:20.390Z</time>
      </trkpt>
      <trkpt lat="47.78076" lon="2.33708">
        <ele>113</ele>
        <time>2017-05-07T07:59:21.364Z</time>
      </trkpt>
      <trkpt lat="47.78076" lon="2.33708">
        <ele>113</ele>
        <time>2017-05-07T07:59:22.394Z</time>
      </trkpt>
      <trkpt lat="47.78067" lon="2.33715">
        <ele>113</ele>
        <time>2017-05-07T07:59:23.358Z</time>
      </trkpt>
      <trkpt lat="47.78067" lon="2.33715">
        <ele>113</ele>
        <time>2017-05-07T07:59:24.391Z</time>
      </trkpt>
      <trkpt lat="47.78057" lon="2.33722">
        <ele>113</ele>
        <time>2017-05-07T07:59:25.356Z</time>
      </trkpt>
      <trkpt lat="47.78057" lon="2.33722">
        <ele>113</ele>
        <time>2017-05-07T07:59:26.390Z</time>
      </trkpt>
      <trkpt lat="47.78047" lon="2.33728">
        <ele>112</ele>
        <time>2017-05-07T07:59:27.356Z</time>
      </trkpt>
      <trkpt lat="47.78047" lon="2.33728">
        <ele>112</ele>
        <time>2017-05-07T07:59:28.359Z</time>
      </trkpt>
      <trkpt lat="47.78039" lon="2.33735">
        <ele>113</ele>
        <time>2017-05-07T07:59:29.369Z</time>
      </trkpt>
      <trkpt lat="47.78039" lon="2.33735">
        <ele>113</ele>
        <time>2017-05-07T07:59:30.359Z</time>
      </trkpt>
      <trkpt lat="47.7803" lon="2.33741">
        <ele>113</ele>
        <time>2017-05-07T07:59:31.393Z</time>
      </trkpt>
      <trkpt lat="47.7803" lon="2.33741">
        <ele>113</ele>
        <time>2017-05-07T07:59:32.410Z</time>
      </trkpt>
      <trkpt lat="47.78021" lon="2.33749">
        <ele>113</ele>
        <time>2017-05-07T07:59:33.365Z</time>
      </trkpt>
      <trkpt lat="47.78021" lon="2.33749">
        <ele>113</ele>
        <time>2017-05-07T07:59:34.395Z</time>
      </trkpt>
      <trkpt lat="47.78013" lon="2.33756">
        <ele>113</ele>
        <time>2017-05-07T07:59:35.394Z</time>
      </trkpt>
      <trkpt lat="47.7801" lon="2.33759">
        <ele>113</ele>
        <time>2017-05-07T07:59:36.356Z</time>
      </trkpt>
      <trkpt lat="47.78006" lon="2.33763">
        <ele>113</ele>
        <time>2017-05-07T07:59:37.394Z</time>
      </trkpt>
      <trkpt lat="47.78006" lon="2.33763">
        <ele>113</ele>
        <time>2017-05-07T07:59:38.374Z</time>
      </trkpt>
      <trkpt lat="47.77997" lon="2.3377">
        <ele>113</ele>
        <time>2017-05-07T07:59:39.370Z</time>
      </trkpt>
      <trkpt lat="47.77997" lon="2.3377">
        <ele>113</ele>
        <time>2017-05-07T07:59:40.367Z</time>
      </trkpt>
      <trkpt lat="47.77988" lon="2.33778">
        <ele>113</ele>
        <time>2017-05-07T07:59:41.357Z</time>
      </trkpt>
      <trkpt lat="47.77988" lon="2.33778">
        <ele>113</ele>
        <time>2017-05-07T07:59:42.391Z</time>
      </trkpt>
      <trkpt lat="47.77979" lon="2.33787">
        <ele>113</ele>
        <time>2017-05-07T07:59:43.356Z</time>
      </trkpt>
      <trkpt lat="47.77979" lon="2.33787">
        <ele>113</ele>
        <time>2017-05-07T07:59:44.362Z</time>
      </trkpt>
      <trkpt lat="47.7797" lon="2.33795">
        <ele>113</ele>
        <time>2017-05-07T07:59:45.368Z</time>
      </trkpt>
      <trkpt lat="47.7797" lon="2.33795">
        <ele>113</ele>
        <time>2017-05-07T07:59:46.359Z</time>
      </trkpt>
      <trkpt lat="47.77961" lon="2.33802">
        <ele>112</ele>
        <time>2017-05-07T07:59:47.371Z</time>
      </trkpt>
      <trkpt lat="47.77961" lon="2.33802">
        <ele>112</ele>
        <time>2017-05-07T07:59:48.361Z</time>
      </trkpt>
      <trkpt lat="47.77953" lon="2.3381">
        <ele>112</ele>
        <time>2017-05-07T07:59:49.356Z</time>
      </trkpt>
      <trkpt lat="47.77953" lon="2.3381">
        <ele>112</ele>
        <time>2017-05-07T07:59:50.392Z</time>
      </trkpt>
      <trkpt lat="47.77944" lon="2.33817">
        <ele>112</ele>
        <time>2017-05-07T07:59:51.356Z</time>
      </trkpt>
      <trkpt lat="47.77944" lon="2.33817">
        <ele>112</ele>
        <time>2017-05-07T07:59:52.394Z</time>
      </trkpt>
      <trkpt lat="47.77935" lon="2.33825">
        <ele>112</ele>
        <time>2017-05-07T07:59:53.359Z</time>
      </trkpt>
      <trkpt lat="47.77935" lon="2.33825">
        <ele>112</ele>
        <time>2017-05-07T07:59:54.391Z</time>
      </trkpt>
      <trkpt lat="47.77925" lon="2.33832">
        <ele>112</ele>
        <time>2017-05-07T07:59:55.356Z</time>
      </trkpt>
      <trkpt lat="47.77925" lon="2.33832">
        <ele>112</ele>
        <time>2017-05-07T07:59:56.391Z</time>
      </trkpt>
      <trkpt lat="47.77915" lon="2.3384">
        <ele>112</ele>
        <time>2017-05-07T07:59:57.356Z</time>
      </trkpt>
      <trkpt lat="47.77909" lon="2.33845">
        <ele>113</ele>
        <time>2017-05-07T07:59:58.356Z</time>
      </trkpt>
      <trkpt lat="47.77909" lon="2.33845">
        <ele>113</ele>
        <time>2017-05-07T07:59:59.394Z</time>
      </trkpt>
      <trkpt lat="47.77899" lon="2.33852">
        <ele>113</ele>
        <time>2017-05-07T08:00:00.393Z</time>
      </trkpt>
      <trkpt lat="47.77899" lon="2.33852">
        <ele>113</ele>
        <time>2017-05-07T08:00:01.391Z</time>
      </trkpt>
      <trkpt lat="47.7789" lon="2.33859">
        <ele>113</ele>
        <time>2017-05-07T08:00:02.356Z</time>
      </trkpt>
      <trkpt lat="47.7789" lon="2.33859">
        <ele>113</ele>
        <time>2017-05-07T08:00:03.356Z</time>
      </trkpt>
      <trkpt lat="47.7788" lon="2.33867">
        <ele>113</ele>
        <time>2017-05-07T08:00:04.356Z</time>
      </trkpt>
      <trkpt lat="47.77874" lon="2.3387">
        <ele>113</ele>
        <time>2017-05-07T08:00:05.371Z</time>
      </trkpt>
      <trkpt lat="47.77874" lon="2.3387">
        <ele>113</ele>
        <time>2017-05-07T08:00:06.361Z</time>
      </trkpt>
      <trkpt lat="47.77864" lon="2.33878">
        <ele>113</ele>
        <time>2017-05-07T08:00:07.356Z</time>
      </trkpt>
      <trkpt lat="47.77864" lon="2.33878">
        <ele>113</ele>
        <time>2017-05-07T08:00:08.391Z</time>
      </trkpt>
      <trkpt lat="47.77853" lon="2.33887">
        <ele>113</ele>
        <time>2017-05-07T08:00:09.356Z</time>
      </trkpt>
      <trkpt lat="47.77853" lon="2.33887">
        <ele>113</ele>
        <time>2017-05-07T08:00:10.391Z</time>
      </trkpt>
      <trkpt lat="47.77843" lon="2.33895">
        <ele>113</ele>
        <time>2017-05-07T08:00:11.358Z</time>
      </trkpt>
      <trkpt lat="47.77843" lon="2.33895">
        <ele>113</ele>
        <time>2017-05-07T08:00:12.390Z</time>
      </trkpt>
      <trkpt lat="47.77832" lon="2.33904">
        <ele>113</ele>
        <time>2017-05-07T08:00:13.356Z</time>
      </trkpt>
      <trkpt lat="47.77832" lon="2.33904">
        <ele>113</ele>
        <time>2017-05-07T08:00:14.355Z</time>
      </trkpt>
      <trkpt lat="47.77822" lon="2.33912">
        <ele>113</ele>
        <time>2017-05-07T08:00:15.356Z</time>
      </trkpt>
      <trkpt lat="47.77822" lon="2.33912">
        <ele>113</ele>
        <time>2017-05-07T08:00:16.359Z</time>
      </trkpt>
      <trkpt lat="47.77811" lon="2.33919">
        <ele>112</ele>
        <time>2017-05-07T08:00:17.358Z</time>
      </trkpt>
      <trkpt lat="47.77811" lon="2.33919">
        <ele>112</ele>
        <time>2017-05-07T08:00:18.391Z</time>
      </trkpt>
      <trkpt lat="47.77799" lon="2.33922">
        <ele>112</ele>
        <time>2017-05-07T08:00:19.394Z</time>
      </trkpt>
      <trkpt lat="47.77793" lon="2.33922">
        <ele>112</ele>
        <time>2017-05-07T08:00:20.394Z</time>
      </trkpt>
      <trkpt lat="47.77793" lon="2.33922">
        <ele>112</ele>
        <time>2017-05-07T08:00:21.380Z</time>
      </trkpt>
      <trkpt lat="47.77781" lon="2.33922">
        <ele>113</ele>
        <time>2017-05-07T08:00:22.370Z</time>
      </trkpt>
      <trkpt lat="47.77775" lon="2.33924">
        <ele>113</ele>
        <time>2017-05-07T08:00:23.360Z</time>
      </trkpt>
      <trkpt lat="47.77775" lon="2.33924">
        <ele>113</ele>
        <time>2017-05-07T08:00:24.390Z</time>
      </trkpt>
      <trkpt lat="47.77765" lon="2.33929">
        <ele>113</ele>
        <time>2017-05-07T08:00:25.393Z</time>
      </trkpt>
      <trkpt lat="47.77765" lon="2.33929">
        <ele>113</ele>
        <time>2017-05-07T08:00:26.360Z</time>
      </trkpt>
      <trkpt lat="47.77753" lon="2.33935">
        <ele>114</ele>
        <time>2017-05-07T08:00:27.355Z</time>
      </trkpt>
      <trkpt lat="47.77748" lon="2.33937">
        <ele>114</ele>
        <time>2017-05-07T08:00:28.357Z</time>
      </trkpt>
      <trkpt lat="47.77743" lon="2.3394">
        <ele>114</ele>
        <time>2017-05-07T08:00:29.357Z</time>
      </trkpt>
      <trkpt lat="47.77743" lon="2.3394">
        <ele>114</ele>
        <time>2017-05-07T08:00:30.391Z</time>
      </trkpt>
      <trkpt lat="47.77731" lon="2.33946">
        <ele>114</ele>
        <time>2017-05-07T08:00:31.356Z</time>
      </trkpt>
      <trkpt lat="47.77731" lon="2.33946">
        <ele>114</ele>
        <time>2017-05-07T08:00:32.391Z</time>
      </trkpt>
      <trkpt lat="47.7772" lon="2.33954">
        <ele>113</ele>
        <time>2017-05-07T08:00:33.393Z</time>
      </trkpt>
      <trkpt lat="47.7772" lon="2.33954">
        <ele>113</ele>
        <time>2017-05-07T08:00:34.390Z</time>
      </trkpt>
      <trkpt lat="47.77709" lon="2.33962">
        <ele>114</ele>
        <time>2017-05-07T08:00:35.358Z</time>
      </trkpt>
      <trkpt lat="47.77709" lon="2.33962">
        <ele>114</ele>
        <time>2017-05-07T08:00:36.391Z</time>
      </trkpt>
      <trkpt lat="47.77697" lon="2.3397">
        <ele>114</ele>
        <time>2017-05-07T08:00:37.357Z</time>
      </trkpt>
      <trkpt lat="47.77697" lon="2.3397">
        <ele>114</ele>
        <time>2017-05-07T08:00:38.391Z</time>
      </trkpt>
      <trkpt lat="47.77685" lon="2.33977">
        <ele>115</ele>
        <time>2017-05-07T08:00:39.367Z</time>
      </trkpt>
      <trkpt lat="47.77679" lon="2.3398">
        <ele>115</ele>
        <time>2017-05-07T08:00:40.355Z</time>
      </trkpt>
      <trkpt lat="47.77673" lon="2.33984">
        <ele>115</ele>
        <time>2017-05-07T08:00:41.355Z</time>
      </trkpt>
      <trkpt lat="47.77673" lon="2.33984">
        <ele>115</ele>
        <time>2017-05-07T08:00:42.389Z</time>
      </trkpt>
      <trkpt lat="47.77663" lon="2.33993">
        <ele>115</ele>
        <time>2017-05-07T08:00:43.394Z</time>
      </trkpt>
      <trkpt lat="47.77663" lon="2.33993">
        <ele>115</ele>
        <time>2017-05-07T08:00:44.388Z</time>
      </trkpt>
      <trkpt lat="47.77652" lon="2.34003">
        <ele>115</ele>
        <time>2017-05-07T08:00:45.395Z</time>
      </trkpt>
      <trkpt lat="47.77652" lon="2.34003">
        <ele>115</ele>
        <time>2017-05-07T08:00:46.390Z</time>
      </trkpt>
      <trkpt lat="47.77641" lon="2.34014">
        <ele>116</ele>
        <time>2017-05-07T08:00:47.358Z</time>
      </trkpt>
      <trkpt lat="47.77641" lon="2.34014">
        <ele>116</ele>
        <time>2017-05-07T08:00:48.391Z</time>
      </trkpt>
      <trkpt lat="47.7763" lon="2.34024">
        <ele>116</ele>
        <time>2017-05-07T08:00:49.357Z</time>
      </trkpt>
      <trkpt lat="47.77625" lon="2.34029">
        <ele>116</ele>
        <time>2017-05-07T08:00:50.356Z</time>
      </trkpt>
      <trkpt lat="47.77625" lon="2.34029">
        <ele>116</ele>
        <time>2017-05-07T08:00:51.390Z</time>
      </trkpt>
      <trkpt lat="47.77613" lon="2.34037">
        <ele>116</ele>
        <time>2017-05-07T08:00:52.367Z</time>
      </trkpt>
      <trkpt lat="47.77607" lon="2.34041">
        <ele>116</ele>
        <time>2017-05-07T08:00:53.357Z</time>
      </trkpt>
      <trkpt lat="47.77607" lon="2.34041">
        <ele>116</ele>
        <time>2017-05-07T08:00:54.391Z</time>
      </trkpt>
      <trkpt lat="47.77595" lon="2.34049">
        <ele>116</ele>
        <time>2017-05-07T08:00:55.394Z</time>
      </trkpt>
      <trkpt lat="47.77595" lon="2.34049">
        <ele>116</ele>
        <time>2017-05-07T08:00:56.391Z</time>
      </trkpt>
      <trkpt lat="47.77583" lon="2.34058">
        <ele>116</ele>
        <time>2017-05-07T08:00:57.356Z</time>
      </trkpt>
      <trkpt lat="47.77583" lon="2.34058">
        <ele>116</ele>
        <time>2017-05-07T08:00:58.390Z</time>
      </trkpt>
      <trkpt lat="47.77571" lon="2.34067">
        <ele>115</ele>
        <time>2017-05-07T08:00:59.373Z</time>
      </trkpt>
      <trkpt lat="47.77571" lon="2.34067">
        <ele>115</ele>
        <time>2017-05-07T08:01:00.391Z</time>
      </trkpt>
      <trkpt lat="47.77559" lon="2.34074">
        <ele>115</ele>
        <time>2017-05-07T08:01:01.356Z</time>
      </trkpt>
      <trkpt lat="47.77553" lon="2.34078">
        <ele>115</ele>
        <time>2017-05-07T08:01:02.356Z</time>
      </trkpt>
      <trkpt lat="47.77553" lon="2.34078">
        <ele>115</ele>
        <time>2017-05-07T08:01:03.390Z</time>
      </trkpt>
      <trkpt lat="47.77541" lon="2.34087">
        <ele>115</ele>
        <time>2017-05-07T08:01:04.356Z</time>
      </trkpt>
      <trkpt lat="47.77535" lon="2.34091">
        <ele>115</ele>
        <time>2017-05-07T08:01:05.358Z</time>
      </trkpt>
      <trkpt lat="47.77535" lon="2.34091">
        <ele>115</ele>
        <time>2017-05-07T08:01:06.391Z</time>
      </trkpt>
      <trkpt lat="47.77523" lon="2.34099">
        <ele>115</ele>
        <time>2017-05-07T08:01:07.393Z</time>
      </trkpt>
      <trkpt lat="47.77523" lon="2.34099">
        <ele>115</ele>
        <time>2017-05-07T08:01:08.391Z</time>
      </trkpt>
      <trkpt lat="47.77511" lon="2.34107">
        <ele>115</ele>
        <time>2017-05-07T08:01:09.356Z</time>
      </trkpt>
      <trkpt lat="47.77511" lon="2.34107">
        <ele>115</ele>
        <time>2017-05-07T08:01:10.390Z</time>
      </trkpt>
      <trkpt lat="47.77499" lon="2.34114">
        <ele>116</ele>
        <time>2017-05-07T08:01:11.359Z</time>
      </trkpt>
      <trkpt lat="47.77499" lon="2.34114">
        <ele>116</ele>
        <time>2017-05-07T08:01:12.390Z</time>
      </trkpt>
      <trkpt lat="47.77487" lon="2.34121">
        <ele>116</ele>
        <time>2017-05-07T08:01:13.355Z</time>
      </trkpt>
      <trkpt lat="47.77487" lon="2.34121">
        <ele>116</ele>
        <time>2017-05-07T08:01:14.390Z</time>
      </trkpt>
      <trkpt lat="47.77475" lon="2.34127">
        <ele>117</ele>
        <time>2017-05-07T08:01:15.355Z</time>
      </trkpt>
      <trkpt lat="47.77475" lon="2.34127">
        <ele>117</ele>
        <time>2017-05-07T08:01:16.355Z</time>
      </trkpt>
      <trkpt lat="47.77464" lon="2.34133">
        <ele>117</ele>
        <time>2017-05-07T08:01:17.358Z</time>
      </trkpt>
      <trkpt lat="47.77464" lon="2.34133">
        <ele>117</ele>
        <time>2017-05-07T08:01:18.390Z</time>
      </trkpt>
      <trkpt lat="47.77453" lon="2.34139">
        <ele>117</ele>
        <time>2017-05-07T08:01:19.356Z</time>
      </trkpt>
      <trkpt lat="47.77453" lon="2.34139">
        <ele>117</ele>
        <time>2017-05-07T08:01:20.390Z</time>
      </trkpt>
      <trkpt lat="47.7744" lon="2.34146">
        <ele>117</ele>
        <time>2017-05-07T08:01:21.355Z</time>
      </trkpt>
      <trkpt lat="47.7744" lon="2.34146">
        <ele>117</ele>
        <time>2017-05-07T08:01:22.390Z</time>
      </trkpt>
      <trkpt lat="47.77428" lon="2.34152">
        <ele>118</ele>
        <time>2017-05-07T08:01:23.356Z</time>
      </trkpt>
      <trkpt lat="47.77428" lon="2.34152">
        <ele>118</ele>
        <time>2017-05-07T08:01:24.400Z</time>
      </trkpt>
      <trkpt lat="47.77417" lon="2.3416">
        <ele>118</ele>
        <time>2017-05-07T08:01:25.367Z</time>
      </trkpt>
      <trkpt lat="47.77417" lon="2.3416">
        <ele>118</ele>
        <time>2017-05-07T08:01:26.356Z</time>
      </trkpt>
      <trkpt lat="47.77405" lon="2.34166">
        <ele>118</ele>
        <time>2017-05-07T08:01:27.356Z</time>
      </trkpt>
      <trkpt lat="47.77405" lon="2.34166">
        <ele>118</ele>
        <time>2017-05-07T08:01:28.389Z</time>
      </trkpt>
      <trkpt lat="47.77393" lon="2.34173">
        <ele>118</ele>
        <time>2017-05-07T08:01:29.356Z</time>
      </trkpt>
      <trkpt lat="47.77393" lon="2.34173">
        <ele>118</ele>
        <time>2017-05-07T08:01:30.391Z</time>
      </trkpt>
      <trkpt lat="47.77384" lon="2.34179">
        <ele>119</ele>
        <time>2017-05-07T08:01:31.356Z</time>
      </trkpt>
      <trkpt lat="47.77379" lon="2.34183">
        <ele>119</ele>
        <time>2017-05-07T08:01:32.355Z</time>
      </trkpt>
      <trkpt lat="47.77379" lon="2.34183">
        <ele>119</ele>
        <time>2017-05-07T08:01:33.391Z</time>
      </trkpt>
      <trkpt lat="47.77369" lon="2.34193">
        <ele>118</ele>
        <time>2017-05-07T08:01:34.355Z</time>
      </trkpt>
      <trkpt lat="47.77364" lon="2.34198">
        <ele>118</ele>
        <time>2017-05-07T08:01:35.357Z</time>
      </trkpt>
      <trkpt lat="47.77364" lon="2.34198">
        <ele>118</ele>
        <time>2017-05-07T08:01:36.391Z</time>
      </trkpt>
      <trkpt lat="47.77355" lon="2.34207">
        <ele>119</ele>
        <time>2017-05-07T08:01:37.356Z</time>
      </trkpt>
      <trkpt lat="47.77355" lon="2.34207">
        <ele>119</ele>
        <time>2017-05-07T08:01:38.390Z</time>
      </trkpt>
      <trkpt lat="47.77346" lon="2.34216">
        <ele>119</ele>
        <time>2017-05-07T08:01:39.356Z</time>
      </trkpt>
      <trkpt lat="47.77346" lon="2.34216">
        <ele>119</ele>
        <time>2017-05-07T08:01:40.358Z</time>
      </trkpt>
      <trkpt lat="47.77338" lon="2.34223">
        <ele>119</ele>
        <time>2017-05-07T08:01:41.358Z</time>
      </trkpt>
      <trkpt lat="47.77338" lon="2.34223">
        <ele>119</ele>
        <time>2017-05-07T08:01:42.391Z</time>
      </trkpt>
      <trkpt lat="47.77329" lon="2.34231">
        <ele>119</ele>
        <time>2017-05-07T08:01:43.355Z</time>
      </trkpt>
      <trkpt lat="47.77329" lon="2.34231">
        <ele>119</ele>
        <time>2017-05-07T08:01:44.391Z</time>
      </trkpt>
      <trkpt lat="47.7732" lon="2.34239">
        <ele>119</ele>
        <time>2017-05-07T08:01:45.357Z</time>
      </trkpt>
      <trkpt lat="47.7732" lon="2.34239">
        <ele>119</ele>
        <time>2017-05-07T08:01:46.366Z</time>
      </trkpt>
      <trkpt lat="47.77311" lon="2.34249">
        <ele>119</ele>
        <time>2017-05-07T08:01:47.368Z</time>
      </trkpt>
      <trkpt lat="47.77311" lon="2.34249">
        <ele>119</ele>
        <time>2017-05-07T08:01:48.357Z</time>
      </trkpt>
      <trkpt lat="47.77303" lon="2.34258">
        <ele>120</ele>
        <time>2017-05-07T08:01:49.356Z</time>
      </trkpt>
      <trkpt lat="47.77303" lon="2.34258">
        <ele>120</ele>
        <time>2017-05-07T08:01:50.392Z</time>
      </trkpt>
      <trkpt lat="47.77295" lon="2.34267">
        <ele>120</ele>
        <time>2017-05-07T08:01:51.394Z</time>
      </trkpt>
      <trkpt lat="47.77295" lon="2.34267">
        <ele>120</ele>
        <time>2017-05-07T08:01:52.390Z</time>
      </trkpt>
      <trkpt lat="47.77287" lon="2.34276">
        <ele>120</ele>
        <time>2017-05-07T08:01:53.357Z</time>
      </trkpt>
      <trkpt lat="47.77287" lon="2.34276">
        <ele>120</ele>
        <time>2017-05-07T08:01:54.390Z</time>
      </trkpt>
      <trkpt lat="47.7728" lon="2.34283">
        <ele>120</ele>
        <time>2017-05-07T08:01:55.361Z</time>
      </trkpt>
      <trkpt lat="47.7728" lon="2.34283">
        <ele>120</ele>
        <time>2017-05-07T08:01:56.392Z</time>
      </trkpt>
      <trkpt lat="47.77272" lon="2.34291">
        <ele>120</ele>
        <time>2017-05-07T08:01:57.355Z</time>
      </trkpt>
      <trkpt lat="47.77272" lon="2.34291">
        <ele>120</ele>
        <time>2017-05-07T08:01:58.389Z</time>
      </trkpt>
      <trkpt lat="47.77265" lon="2.34299">
        <ele>120</ele>
        <time>2017-05-07T08:01:59.394Z</time>
      </trkpt>
      <trkpt lat="47.77265" lon="2.34299">
        <ele>120</ele>
        <time>2017-05-07T08:02:00.384Z</time>
      </trkpt>
      <trkpt lat="47.77257" lon="2.34307">
        <ele>120</ele>
        <time>2017-05-07T08:02:01.389Z</time>
      </trkpt>
      <trkpt lat="47.77253" lon="2.34311">
        <ele>120</ele>
        <time>2017-05-07T08:02:02.355Z</time>
      </trkpt>
      <trkpt lat="47.77253" lon="2.34311">
        <ele>120</ele>
        <time>2017-05-07T08:02:03.361Z</time>
      </trkpt>
      <trkpt lat="47.77246" lon="2.34319">
        <ele>120</ele>
        <time>2017-05-07T08:02:04.394Z</time>
      </trkpt>
      <trkpt lat="47.77242" lon="2.34323">
        <ele>120</ele>
        <time>2017-05-07T08:02:05.356Z</time>
      </trkpt>
      <trkpt lat="47.77242" lon="2.34323">
        <ele>120</ele>
        <time>2017-05-07T08:02:06.390Z</time>
      </trkpt>
      <trkpt lat="47.77235" lon="2.3433">
        <ele>121</ele>
        <time>2017-05-07T08:02:07.355Z</time>
      </trkpt>
      <trkpt lat="47.77235" lon="2.3433">
        <ele>121</ele>
        <time>2017-05-07T08:02:08.390Z</time>
      </trkpt>
      <trkpt lat="47.77227" lon="2.34339">
        <ele>121</ele>
        <time>2017-05-07T08:02:09.394Z</time>
      </trkpt>
      <trkpt lat="47.77227" lon="2.34339">
        <ele>121</ele>
        <time>2017-05-07T08:02:10.389Z</time>
      </trkpt>
      <trkpt lat="47.77219" lon="2.34346">
        <ele>121</ele>
        <time>2017-05-07T08:02:11.394Z</time>
      </trkpt>
      <trkpt lat="47.77219" lon="2.34346">
        <ele>121</ele>
        <time>2017-05-07T08:02:12.389Z</time>
      </trkpt>
      <trkpt lat="47.7721" lon="2.34355">
        <ele>121</ele>
        <time>2017-05-07T08:02:13.364Z</time>
      </trkpt>
      <trkpt lat="47.77205" lon="2.3436">
        <ele>121</ele>
        <time>2017-05-07T08:02:14.357Z</time>
      </trkpt>
      <trkpt lat="47.77205" lon="2.3436">
        <ele>121</ele>
        <time>2017-05-07T08:02:15.391Z</time>
      </trkpt>
      <trkpt lat="47.77197" lon="2.34369">
        <ele>121</ele>
        <time>2017-05-07T08:02:16.367Z</time>
      </trkpt>
      <trkpt lat="47.77197" lon="2.34369">
        <ele>121</ele>
        <time>2017-05-07T08:02:17.388Z</time>
      </trkpt>
      <trkpt lat="47.77189" lon="2.34379">
        <ele>121</ele>
        <time>2017-05-07T08:02:18.395Z</time>
      </trkpt>
      <trkpt lat="47.77189" lon="2.34379">
        <ele>121</ele>
        <time>2017-05-07T08:02:19.394Z</time>
      </trkpt>
      <trkpt lat="47.7718" lon="2.34388">
        <ele>121</ele>
        <time>2017-05-07T08:02:20.388Z</time>
      </trkpt>
      <trkpt lat="47.77177" lon="2.34393">
        <ele>122</ele>
        <time>2017-05-07T08:02:21.394Z</time>
      </trkpt>
      <trkpt lat="47.77177" lon="2.34393">
        <ele>122</ele>
        <time>2017-05-07T08:02:22.390Z</time>
      </trkpt>
      <trkpt lat="47.7717" lon="2.34402">
        <ele>122</ele>
        <time>2017-05-07T08:02:23.357Z</time>
      </trkpt>
      <trkpt lat="47.7717" lon="2.34402">
        <ele>122</ele>
        <time>2017-05-07T08:02:24.389Z</time>
      </trkpt>
      <trkpt lat="47.77162" lon="2.3441">
        <ele>122</ele>
        <time>2017-05-07T08:02:25.355Z</time>
      </trkpt>
      <trkpt lat="47.77162" lon="2.3441">
        <ele>122</ele>
        <time>2017-05-07T08:02:26.394Z</time>
      </trkpt>
      <trkpt lat="47.77155" lon="2.34419">
        <ele>122</ele>
        <time>2017-05-07T08:02:27.355Z</time>
      </trkpt>
      <trkpt lat="47.77155" lon="2.34419">
        <ele>122</ele>
        <time>2017-05-07T08:02:28.389Z</time>
      </trkpt>
      <trkpt lat="47.77146" lon="2.34427">
        <ele>122</ele>
        <time>2017-05-07T08:02:29.358Z</time>
      </trkpt>
      <trkpt lat="47.77146" lon="2.34427">
        <ele>122</ele>
        <time>2017-05-07T08:02:30.393Z</time>
      </trkpt>
      <trkpt lat="47.77138" lon="2.34436">
        <ele>122</ele>
        <time>2017-05-07T08:02:31.355Z</time>
      </trkpt>
      <trkpt lat="47.77138" lon="2.34436">
        <ele>122</ele>
        <time>2017-05-07T08:02:32.390Z</time>
      </trkpt>
      <trkpt lat="47.7713" lon="2.34445">
        <ele>122</ele>
        <time>2017-05-07T08:02:33.394Z</time>
      </trkpt>
      <trkpt lat="47.7713" lon="2.34445">
        <ele>122</ele>
        <time>2017-05-07T08:02:34.390Z</time>
      </trkpt>
      <trkpt lat="47.77123" lon="2.34454">
        <ele>122</ele>
        <time>2017-05-07T08:02:35.356Z</time>
      </trkpt>
      <trkpt lat="47.77123" lon="2.34454">
        <ele>122</ele>
        <time>2017-05-07T08:02:36.389Z</time>
      </trkpt>
      <trkpt lat="47.77114" lon="2.34463">
        <ele>122</ele>
        <time>2017-05-07T08:02:37.394Z</time>
      </trkpt>
      <trkpt lat="47.77114" lon="2.34463">
        <ele>122</ele>
        <time>2017-05-07T08:02:38.390Z</time>
      </trkpt>
      <trkpt lat="47.77107" lon="2.34472">
        <ele>122</ele>
        <time>2017-05-07T08:02:39.394Z</time>
      </trkpt>
      <trkpt lat="47.77107" lon="2.34472">
        <ele>122</ele>
        <time>2017-05-07T08:02:40.359Z</time>
      </trkpt>
      <trkpt lat="47.771" lon="2.3448">
        <ele>122</ele>
        <time>2017-05-07T08:02:41.356Z</time>
      </trkpt>
      <trkpt lat="47.771" lon="2.3448">
        <ele>122</ele>
        <time>2017-05-07T08:02:42.390Z</time>
      </trkpt>
      <trkpt lat="47.77093" lon="2.34487">
        <ele>122</ele>
        <time>2017-05-07T08:02:43.364Z</time>
      </trkpt>
      <trkpt lat="47.77093" lon="2.34487">
        <ele>122</ele>
        <time>2017-05-07T08:02:44.393Z</time>
      </trkpt>
      <trkpt lat="47.77086" lon="2.34496">
        <ele>121</ele>
        <time>2017-05-07T08:02:45.355Z</time>
      </trkpt>
      <trkpt lat="47.77086" lon="2.34496">
        <ele>121</ele>
        <time>2017-05-07T08:02:46.390Z</time>
      </trkpt>
      <trkpt lat="47.77077" lon="2.34506">
        <ele>121</ele>
        <time>2017-05-07T08:02:47.355Z</time>
      </trkpt>
      <trkpt lat="47.77077" lon="2.34506">
        <ele>121</ele>
        <time>2017-05-07T08:02:48.390Z</time>
      </trkpt>
      <trkpt lat="47.77069" lon="2.34514">
        <ele>120</ele>
        <time>2017-05-07T08:02:49.355Z</time>
      </trkpt>
      <trkpt lat="47.77069" lon="2.34514">
        <ele>120</ele>
        <time>2017-05-07T08:02:50.356Z</time>
      </trkpt>
      <trkpt lat="47.7706" lon="2.34523">
        <ele>120</ele>
        <time>2017-05-07T08:02:51.355Z</time>
      </trkpt>
      <trkpt lat="47.77056" lon="2.34527">
        <ele>120</ele>
        <time>2017-05-07T08:02:52.356Z</time>
      </trkpt>
      <trkpt lat="47.77052" lon="2.34532">
        <ele>120</ele>
        <time>2017-05-07T08:02:53.356Z</time>
      </trkpt>
      <trkpt lat="47.77052" lon="2.34532">
        <ele>120</ele>
        <time>2017-05-07T08:02:54.391Z</time>
      </trkpt>
      <trkpt lat="47.77044" lon="2.34541">
        <ele>119</ele>
        <time>2017-05-07T08:02:55.357Z</time>
      </trkpt>
      <trkpt lat="47.77044" lon="2.34541">
        <ele>119</ele>
        <time>2017-05-07T08:02:56.393Z</time>
      </trkpt>
      <trkpt lat="47.77036" lon="2.34549">
        <ele>119</ele>
        <time>2017-05-07T08:02:57.394Z</time>
      </trkpt>
      <trkpt lat="47.77036" lon="2.34549">
        <ele>119</ele>
        <time>2017-05-07T08:02:58.390Z</time>
      </trkpt>
      <trkpt lat="47.77028" lon="2.34557">
        <ele>119</ele>
        <time>2017-05-07T08:02:59.356Z</time>
      </trkpt>
      <trkpt lat="47.77028" lon="2.34557">
        <ele>119</ele>
        <time>2017-05-07T08:03:00.359Z</time>
      </trkpt>
      <trkpt lat="47.77021" lon="2.34564">
        <ele>119</ele>
        <time>2017-05-07T08:03:01.356Z</time>
      </trkpt>
      <trkpt lat="47.77021" lon="2.34564">
        <ele>119</ele>
        <time>2017-05-07T08:03:02.391Z</time>
      </trkpt>
      <trkpt lat="47.77014" lon="2.34572">
        <ele>119</ele>
        <time>2017-05-07T08:03:03.355Z</time>
      </trkpt>
      <trkpt lat="47.77014" lon="2.34572">
        <ele>119</ele>
        <time>2017-05-07T08:03:04.392Z</time>
      </trkpt>
      <trkpt lat="47.77006" lon="2.34578">
        <ele>118</ele>
        <time>2017-05-07T08:03:05.358Z</time>
      </trkpt>
      <trkpt lat="47.77002" lon="2.34581">
        <ele>118</ele>
        <time>2017-05-07T08:03:06.357Z</time>
      </trkpt>
      <trkpt lat="47.77002" lon="2.34581">
        <ele>118</ele>
        <time>2017-05-07T08:03:07.392Z</time>
      </trkpt>
      <trkpt lat="47.76994" lon="2.34588">
        <ele>118</ele>
        <time>2017-05-07T08:03:08.356Z</time>
      </trkpt>
      <trkpt lat="47.76994" lon="2.34588">
        <ele>118</ele>
        <time>2017-05-07T08:03:09.393Z</time>
      </trkpt>
      <trkpt lat="47.76987" lon="2.34595">
        <ele>118</ele>
        <time>2017-05-07T08:03:10.359Z</time>
      </trkpt>
      <trkpt lat="47.76984" lon="2.34598">
        <ele>118</ele>
        <time>2017-05-07T08:03:11.370Z</time>
      </trkpt>
      <trkpt lat="47.76984" lon="2.34598">
        <ele>118</ele>
        <time>2017-05-07T08:03:12.359Z</time>
      </trkpt>
      <trkpt lat="47.76976" lon="2.34605">
        <ele>118</ele>
        <time>2017-05-07T08:03:13.356Z</time>
      </trkpt>
      <trkpt lat="47.76976" lon="2.34605">
        <ele>118</ele>
        <time>2017-05-07T08:03:14.391Z</time>
      </trkpt>
      <trkpt lat="47.7697" lon="2.34611">
        <ele>118</ele>
        <time>2017-05-07T08:03:15.356Z</time>
      </trkpt>
      <trkpt lat="47.7697" lon="2.34611">
        <ele>118</ele>
        <time>2017-05-07T08:03:16.359Z</time>
      </trkpt>
      <trkpt lat="47.76963" lon="2.34618">
        <ele>118</ele>
        <time>2017-05-07T08:03:17.359Z</time>
      </trkpt>
      <trkpt lat="47.76963" lon="2.34618">
        <ele>118</ele>
        <time>2017-05-07T08:03:18.391Z</time>
      </trkpt>
      <trkpt lat="47.76955" lon="2.34625">
        <ele>118</ele>
        <time>2017-05-07T08:03:19.356Z</time>
      </trkpt>
      <trkpt lat="47.76955" lon="2.34625">
        <ele>118</ele>
        <time>2017-05-07T08:03:20.393Z</time>
      </trkpt>
      <trkpt lat="47.76947" lon="2.34632">
        <ele>117</ele>
        <time>2017-05-07T08:03:21.356Z</time>
      </trkpt>
      <trkpt lat="47.76947" lon="2.34632">
        <ele>117</ele>
        <time>2017-05-07T08:03:22.390Z</time>
      </trkpt>
      <trkpt lat="47.76939" lon="2.34639">
        <ele>117</ele>
        <time>2017-05-07T08:03:23.358Z</time>
      </trkpt>
      <trkpt lat="47.76939" lon="2.34639">
        <ele>117</ele>
        <time>2017-05-07T08:03:24.391Z</time>
      </trkpt>
      <trkpt lat="47.76931" lon="2.34647">
        <ele>118</ele>
        <time>2017-05-07T08:03:25.356Z</time>
      </trkpt>
      <trkpt lat="47.76931" lon="2.34647">
        <ele>118</ele>
        <time>2017-05-07T08:03:26.357Z</time>
      </trkpt>
      <trkpt lat="47.76924" lon="2.34654">
        <ele>118</ele>
        <time>2017-05-07T08:03:27.356Z</time>
      </trkpt>
      <trkpt lat="47.76924" lon="2.34654">
        <ele>118</ele>
        <time>2017-05-07T08:03:28.392Z</time>
      </trkpt>
      <trkpt lat="47.76917" lon="2.34661">
        <ele>117</ele>
        <time>2017-05-07T08:03:29.360Z</time>
      </trkpt>
      <trkpt lat="47.76917" lon="2.34661">
        <ele>117</ele>
        <time>2017-05-07T08:03:30.391Z</time>
      </trkpt>
      <trkpt lat="47.76909" lon="2.34668">
        <ele>118</ele>
        <time>2017-05-07T08:03:31.376Z</time>
      </trkpt>
      <trkpt lat="47.76909" lon="2.34668">
        <ele>118</ele>
        <time>2017-05-07T08:03:32.371Z</time>
      </trkpt>
      <trkpt lat="47.76902" lon="2.34676">
        <ele>118</ele>
        <time>2017-05-07T08:03:33.362Z</time>
      </trkpt>
      <trkpt lat="47.76899" lon="2.3468">
        <ele>118</ele>
        <time>2017-05-07T08:03:34.357Z</time>
      </trkpt>
      <trkpt lat="47.76899" lon="2.3468">
        <ele>118</ele>
        <time>2017-05-07T08:03:35.356Z</time>
      </trkpt>
      <trkpt lat="47.76893" lon="2.34688">
        <ele>118</ele>
        <time>2017-05-07T08:03:36.356Z</time>
      </trkpt>
      <trkpt lat="47.76893" lon="2.34688">
        <ele>118</ele>
        <time>2017-05-07T08:03:37.391Z</time>
      </trkpt>
      <trkpt lat="47.76887" lon="2.34696">
        <ele>119</ele>
        <time>2017-05-07T08:03:38.356Z</time>
      </trkpt>
      <trkpt lat="47.76887" lon="2.34696">
        <ele>119</ele>
        <time>2017-05-07T08:03:39.394Z</time>
      </trkpt>
      <trkpt lat="47.76881" lon="2.34703">
        <ele>118</ele>
        <time>2017-05-07T08:03:40.356Z</time>
      </trkpt>
      <trkpt lat="47.76877" lon="2.34707">
        <ele>119</ele>
        <time>2017-05-07T08:03:41.358Z</time>
      </trkpt>
      <trkpt lat="47.76877" lon="2.34707">
        <ele>119</ele>
        <time>2017-05-07T08:03:42.391Z</time>
      </trkpt>
      <trkpt lat="47.76872" lon="2.34715">
        <ele>119</ele>
        <time>2017-05-07T08:03:43.356Z</time>
      </trkpt>
      <trkpt lat="47.76872" lon="2.34715">
        <ele>119</ele>
        <time>2017-05-07T08:03:44.391Z</time>
      </trkpt>
      <trkpt lat="47.76867" lon="2.34722">
        <ele>119</ele>
        <time>2017-05-07T08:03:45.359Z</time>
      </trkpt>
      <trkpt lat="47.76867" lon="2.34722">
        <ele>119</ele>
        <time>2017-05-07T08:03:46.392Z</time>
      </trkpt>
      <trkpt lat="47.76861" lon="2.3473">
        <ele>119</ele>
        <time>2017-05-07T08:03:47.365Z</time>
      </trkpt>
      <trkpt lat="47.76861" lon="2.3473">
        <ele>119</ele>
        <time>2017-05-07T08:03:48.355Z</time>
      </trkpt>
      <trkpt lat="47.76855" lon="2.34738">
        <ele>119</ele>
        <time>2017-05-07T08:03:49.371Z</time>
      </trkpt>
      <trkpt lat="47.76855" lon="2.34738">
        <ele>119</ele>
        <time>2017-05-07T08:03:50.371Z</time>
      </trkpt>
      <trkpt lat="47.76849" lon="2.34746">
        <ele>119</ele>
        <time>2017-05-07T08:03:51.362Z</time>
      </trkpt>
      <trkpt lat="47.76846" lon="2.3475">
        <ele>119</ele>
        <time>2017-05-07T08:03:52.355Z</time>
      </trkpt>
      <trkpt lat="47.76843" lon="2.34755">
        <ele>119</ele>
        <time>2017-05-07T08:03:53.357Z</time>
      </trkpt>
      <trkpt lat="47.76843" lon="2.34755">
        <ele>119</ele>
        <time>2017-05-07T08:03:54.390Z</time>
      </trkpt>
      <trkpt lat="47.76838" lon="2.34763">
        <ele>120</ele>
        <time>2017-05-07T08:03:55.355Z</time>
      </trkpt>
      <trkpt lat="47.76835" lon="2.34767">
        <ele>120</ele>
        <time>2017-05-07T08:03:56.394Z</time>
      </trkpt>
      <trkpt lat="47.76835" lon="2.34767">
        <ele>120</ele>
        <time>2017-05-07T08:03:57.387Z</time>
      </trkpt>
      <trkpt lat="47.76829" lon="2.34775">
        <ele>120</ele>
        <time>2017-05-07T08:03:58.355Z</time>
      </trkpt>
      <trkpt lat="47.76826" lon="2.34779">
        <ele>120</ele>
        <time>2017-05-07T08:03:59.357Z</time>
      </trkpt>
      <trkpt lat="47.76826" lon="2.34779">
        <ele>120</ele>
        <time>2017-05-07T08:04:00.374Z</time>
      </trkpt>
      <trkpt lat="47.7682" lon="2.34788">
        <ele>121</ele>
        <time>2017-05-07T08:04:01.365Z</time>
      </trkpt>
      <trkpt lat="47.76818" lon="2.34793">
        <ele>121</ele>
        <time>2017-05-07T08:04:02.394Z</time>
      </trkpt>
      <trkpt lat="47.76818" lon="2.34793">
        <ele>121</ele>
        <time>2017-05-07T08:04:03.392Z</time>
      </trkpt>
      <trkpt lat="47.76813" lon="2.34803">
        <ele>121</ele>
        <time>2017-05-07T08:04:04.355Z</time>
      </trkpt>
      <trkpt lat="47.76813" lon="2.34803">
        <ele>121</ele>
        <time>2017-05-07T08:04:05.358Z</time>
      </trkpt>
      <trkpt lat="47.76807" lon="2.34812">
        <ele>121</ele>
        <time>2017-05-07T08:04:06.357Z</time>
      </trkpt>
      <trkpt lat="47.76807" lon="2.34812">
        <ele>121</ele>
        <time>2017-05-07T08:04:07.389Z</time>
      </trkpt>
      <trkpt lat="47.76801" lon="2.34823">
        <ele>120</ele>
        <time>2017-05-07T08:04:08.394Z</time>
      </trkpt>
      <trkpt lat="47.76801" lon="2.34823">
        <ele>120</ele>
        <time>2017-05-07T08:04:09.394Z</time>
      </trkpt>
      <trkpt lat="47.76795" lon="2.34833">
        <ele>120</ele>
        <time>2017-05-07T08:04:10.355Z</time>
      </trkpt>
      <trkpt lat="47.76795" lon="2.34833">
        <ele>120</ele>
        <time>2017-05-07T08:04:11.390Z</time>
      </trkpt>
      <trkpt lat="47.7679" lon="2.34842">
        <ele>120</ele>
        <time>2017-05-07T08:04:12.356Z</time>
      </trkpt>
      <trkpt lat="47.7679" lon="2.34842">
        <ele>120</ele>
        <time>2017-05-07T08:04:13.390Z</time>
      </trkpt>
      <trkpt lat="47.76784" lon="2.34852">
        <ele>120</ele>
        <time>2017-05-07T08:04:14.356Z</time>
      </trkpt>
      <trkpt lat="47.76784" lon="2.34852">
        <ele>120</ele>
        <time>2017-05-07T08:04:15.390Z</time>
      </trkpt>
      <trkpt lat="47.76778" lon="2.34862">
        <ele>120</ele>
        <time>2017-05-07T08:04:16.361Z</time>
      </trkpt>
      <trkpt lat="47.76775" lon="2.34867">
        <ele>120</ele>
        <time>2017-05-07T08:04:17.357Z</time>
      </trkpt>
      <trkpt lat="47.76775" lon="2.34867">
        <ele>120</ele>
        <time>2017-05-07T08:04:18.390Z</time>
      </trkpt>
      <trkpt lat="47.76771" lon="2.34878">
        <ele>120</ele>
        <time>2017-05-07T08:04:19.356Z</time>
      </trkpt>
      <trkpt lat="47.76769" lon="2.34882">
        <ele>121</ele>
        <time>2017-05-07T08:04:20.394Z</time>
      </trkpt>
      <trkpt lat="47.76769" lon="2.34882">
        <ele>121</ele>
        <time>2017-05-07T08:04:21.392Z</time>
      </trkpt>
      <trkpt lat="47.76765" lon="2.34891">
        <ele>121</ele>
        <time>2017-05-07T08:04:22.355Z</time>
      </trkpt>
      <trkpt lat="47.76765" lon="2.34891">
        <ele>121</ele>
        <time>2017-05-07T08:04:23.384Z</time>
      </trkpt>
      <trkpt lat="47.7676" lon="2.34902">
        <ele>121</ele>
        <time>2017-05-07T08:04:24.390Z</time>
      </trkpt>
      <trkpt lat="47.7676" lon="2.34902">
        <ele>121</ele>
        <time>2017-05-07T08:04:25.360Z</time>
      </trkpt>
      <trkpt lat="47.76754" lon="2.34914">
        <ele>121</ele>
        <time>2017-05-07T08:04:26.361Z</time>
      </trkpt>
      <trkpt lat="47.76754" lon="2.34914">
        <ele>121</ele>
        <time>2017-05-07T08:04:27.378Z</time>
      </trkpt>
      <trkpt lat="47.76749" lon="2.34925">
        <ele>121</ele>
        <time>2017-05-07T08:04:28.378Z</time>
      </trkpt>
      <trkpt lat="47.76746" lon="2.3493">
        <ele>121</ele>
        <time>2017-05-07T08:04:29.377Z</time>
      </trkpt>
      <trkpt lat="47.76746" lon="2.3493">
        <ele>121</ele>
        <time>2017-05-07T08:04:30.366Z</time>
      </trkpt>
      <trkpt lat="47.76741" lon="2.34942">
        <ele>121</ele>
        <time>2017-05-07T08:04:31.361Z</time>
      </trkpt>
      <trkpt lat="47.76738" lon="2.34949">
        <ele>121</ele>
        <time>2017-05-07T08:04:32.395Z</time>
      </trkpt>
      <trkpt lat="47.76738" lon="2.34949">
        <ele>121</ele>
        <time>2017-05-07T08:04:33.390Z</time>
      </trkpt>
      <trkpt lat="47.76732" lon="2.34962">
        <ele>120</ele>
        <time>2017-05-07T08:04:34.395Z</time>
      </trkpt>
      <trkpt lat="47.76729" lon="2.34969">
        <ele>121</ele>
        <time>2017-05-07T08:04:35.356Z</time>
      </trkpt>
      <trkpt lat="47.76729" lon="2.34969">
        <ele>121</ele>
        <time>2017-05-07T08:04:36.355Z</time>
      </trkpt>
      <trkpt lat="47.76723" lon="2.34981">
        <ele>121</ele>
        <time>2017-05-07T08:04:37.395Z</time>
      </trkpt>
      <trkpt lat="47.76721" lon="2.34987">
        <ele>120</ele>
        <time>2017-05-07T08:04:38.356Z</time>
      </trkpt>
      <trkpt lat="47.76721" lon="2.34987">
        <ele>120</ele>
        <time>2017-05-07T08:04:39.395Z</time>
      </trkpt>
      <trkpt lat="47.76715" lon="2.35">
        <ele>120</ele>
        <time>2017-05-07T08:04:40.355Z</time>
      </trkpt>
      <trkpt lat="47.76715" lon="2.35">
        <ele>120</ele>
        <time>2017-05-07T08:04:41.390Z</time>
      </trkpt>
      <trkpt lat="47.76711" lon="2.35011">
        <ele>120</ele>
        <time>2017-05-07T08:04:42.394Z</time>
      </trkpt>
      <trkpt lat="47.76708" lon="2.35017">
        <ele>120</ele>
        <time>2017-05-07T08:04:43.394Z</time>
      </trkpt>
      <trkpt lat="47.76708" lon="2.35017">
        <ele>120</ele>
        <time>2017-05-07T08:04:44.387Z</time>
      </trkpt>
      <trkpt lat="47.76703" lon="2.3503">
        <ele>119</ele>
        <time>2017-05-07T08:04:45.390Z</time>
      </trkpt>
      <trkpt lat="47.767" lon="2.35037">
        <ele>119</ele>
        <time>2017-05-07T08:04:46.392Z</time>
      </trkpt>
      <trkpt lat="47.76697" lon="2.35044">
        <ele>119</ele>
        <time>2017-05-07T08:04:47.357Z</time>
      </trkpt>
      <trkpt lat="47.76697" lon="2.35044">
        <ele>119</ele>
        <time>2017-05-07T08:04:48.371Z</time>
      </trkpt>
      <trkpt lat="47.76691" lon="2.35056">
        <ele>119</ele>
        <time>2017-05-07T08:04:49.371Z</time>
      </trkpt>
      <trkpt lat="47.76691" lon="2.35056">
        <ele>119</ele>
        <time>2017-05-07T08:04:50.361Z</time>
      </trkpt>
      <trkpt lat="47.76686" lon="2.35068">
        <ele>118</ele>
        <time>2017-05-07T08:04:51.358Z</time>
      </trkpt>
      <trkpt lat="47.76686" lon="2.35068">
        <ele>118</ele>
        <time>2017-05-07T08:04:52.389Z</time>
      </trkpt>
      <trkpt lat="47.76682" lon="2.35078">
        <ele>118</ele>
        <time>2017-05-07T08:04:53.359Z</time>
      </trkpt>
      <trkpt lat="47.76682" lon="2.35078">
        <ele>118</ele>
        <time>2017-05-07T08:04:54.390Z</time>
      </trkpt>
      <trkpt lat="47.76677" lon="2.35089">
        <ele>118</ele>
        <time>2017-05-07T08:04:55.355Z</time>
      </trkpt>
      <trkpt lat="47.76675" lon="2.35095">
        <ele>117</ele>
        <time>2017-05-07T08:04:56.355Z</time>
      </trkpt>
      <trkpt lat="47.76675" lon="2.35095">
        <ele>117</ele>
        <time>2017-05-07T08:04:57.391Z</time>
      </trkpt>
      <trkpt lat="47.7667" lon="2.35106">
        <ele>117</ele>
        <time>2017-05-07T08:04:58.394Z</time>
      </trkpt>
      <trkpt lat="47.76667" lon="2.35111">
        <ele>117</ele>
        <time>2017-05-07T08:04:59.359Z</time>
      </trkpt>
      <trkpt lat="47.76667" lon="2.35111">
        <ele>117</ele>
        <time>2017-05-07T08:05:00.390Z</time>
      </trkpt>
      <trkpt lat="47.76661" lon="2.3512">
        <ele>116</ele>
        <time>2017-05-07T08:05:01.356Z</time>
      </trkpt>
      <trkpt lat="47.76661" lon="2.3512">
        <ele>116</ele>
        <time>2017-05-07T08:05:02.390Z</time>
      </trkpt>
      <trkpt lat="47.76656" lon="2.35126">
        <ele>116</ele>
        <time>2017-05-07T08:05:03.395Z</time>
      </trkpt>
      <trkpt lat="47.76653" lon="2.35129">
        <ele>117</ele>
        <time>2017-05-07T08:05:04.356Z</time>
      </trkpt>
      <trkpt lat="47.7665" lon="2.35131">
        <ele>117</ele>
        <time>2017-05-07T08:05:05.358Z</time>
      </trkpt>
      <trkpt lat="47.7665" lon="2.35131">
        <ele>117</ele>
        <time>2017-05-07T08:05:06.391Z</time>
      </trkpt>
      <trkpt lat="47.76646" lon="2.35133">
        <ele>116</ele>
        <time>2017-05-07T08:05:07.356Z</time>
      </trkpt>
      <trkpt lat="47.76646" lon="2.35133">
        <ele>116</ele>
        <time>2017-05-07T08:05:08.390Z</time>
      </trkpt>
      <trkpt lat="47.76642" lon="2.35134">
        <ele>117</ele>
        <time>2017-05-07T08:05:09.355Z</time>
      </trkpt>
      <trkpt lat="47.7664" lon="2.35134">
        <ele>117</ele>
        <time>2017-05-07T08:05:10.394Z</time>
      </trkpt>
      <trkpt lat="47.76639" lon="2.35135">
        <ele>116</ele>
        <time>2017-05-07T08:05:11.363Z</time>
      </trkpt>
      <trkpt lat="47.76639" lon="2.35135">
        <ele>116</ele>
        <time>2017-05-07T08:05:12.389Z</time>
      </trkpt>
      <trkpt lat="47.76636" lon="2.35137">
        <ele>116</ele>
        <time>2017-05-07T08:05:13.394Z</time>
      </trkpt>
      <trkpt lat="47.76636" lon="2.35137">
        <ele>116</ele>
        <time>2017-05-07T08:05:14.390Z</time>
      </trkpt>
      <trkpt lat="47.76634" lon="2.35141">
        <ele>117</ele>
        <time>2017-05-07T08:05:15.394Z</time>
      </trkpt>
      <trkpt lat="47.76634" lon="2.35141">
        <ele>117</ele>
        <time>2017-05-07T08:05:16.361Z</time>
      </trkpt>
      <trkpt lat="47.76632" lon="2.35147">
        <ele>117</ele>
        <time>2017-05-07T08:05:17.358Z</time>
      </trkpt>
      <trkpt lat="47.76632" lon="2.35147">
        <ele>117</ele>
        <time>2017-05-07T08:05:18.391Z</time>
      </trkpt>
      <trkpt lat="47.7663" lon="2.35155">
        <ele>117</ele>
        <time>2017-05-07T08:05:19.394Z</time>
      </trkpt>
      <trkpt lat="47.76629" lon="2.35158">
        <ele>117</ele>
        <time>2017-05-07T08:05:20.357Z</time>
      </trkpt>
      <trkpt lat="47.76629" lon="2.35158">
        <ele>117</ele>
        <time>2017-05-07T08:05:21.391Z</time>
      </trkpt>
      <trkpt lat="47.76627" lon="2.35167">
        <ele>117</ele>
        <time>2017-05-07T08:05:22.370Z</time>
      </trkpt>
      <trkpt lat="47.76625" lon="2.35172">
        <ele>117</ele>
        <time>2017-05-07T08:05:23.365Z</time>
      </trkpt>
      <trkpt lat="47.76624" lon="2.35176">
        <ele>117</ele>
        <time>2017-05-07T08:05:24.357Z</time>
      </trkpt>
      <trkpt lat="47.76624" lon="2.35176">
        <ele>117</ele>
        <time>2017-05-07T08:05:25.390Z</time>
      </trkpt>
      <trkpt lat="47.76621" lon="2.35187">
        <ele>117</ele>
        <time>2017-05-07T08:05:26.393Z</time>
      </trkpt>
      <trkpt lat="47.76621" lon="2.35187">
        <ele>117</ele>
        <time>2017-05-07T08:05:27.390Z</time>
      </trkpt>
      <trkpt lat="47.76617" lon="2.35197">
        <ele>117</ele>
        <time>2017-05-07T08:05:28.355Z</time>
      </trkpt>
      <trkpt lat="47.76616" lon="2.35202">
        <ele>117</ele>
        <time>2017-05-07T08:05:29.359Z</time>
      </trkpt>
      <trkpt lat="47.76616" lon="2.35202">
        <ele>117</ele>
        <time>2017-05-07T08:05:30.389Z</time>
      </trkpt>
      <trkpt lat="47.76612" lon="2.35213">
        <ele>117</ele>
        <time>2017-05-07T08:05:31.394Z</time>
      </trkpt>
      <trkpt lat="47.76612" lon="2.35213">
        <ele>117</ele>
        <time>2017-05-07T08:05:32.391Z</time>
      </trkpt>
      <trkpt lat="47.76609" lon="2.35223">
        <ele>117</ele>
        <time>2017-05-07T08:05:33.355Z</time>
      </trkpt>
      <trkpt lat="47.76609" lon="2.35223">
        <ele>117</ele>
        <time>2017-05-07T08:05:34.389Z</time>
      </trkpt>
      <trkpt lat="47.76606" lon="2.35233">
        <ele>117</ele>
        <time>2017-05-07T08:05:35.359Z</time>
      </trkpt>
      <trkpt lat="47.76606" lon="2.35233">
        <ele>117</ele>
        <time>2017-05-07T08:05:36.394Z</time>
      </trkpt>
      <trkpt lat="47.76603" lon="2.35242">
        <ele>117</ele>
        <time>2017-05-07T08:05:37.355Z</time>
      </trkpt>
      <trkpt lat="47.76603" lon="2.35246">
        <ele>117</ele>
        <time>2017-05-07T08:05:38.355Z</time>
      </trkpt>
      <trkpt lat="47.76603" lon="2.35246">
        <ele>117</ele>
        <time>2017-05-07T08:05:39.390Z</time>
      </trkpt>
      <trkpt lat="47.76603" lon="2.35257">
        <ele>117</ele>
        <time>2017-05-07T08:05:40.355Z</time>
      </trkpt>
      <trkpt lat="47.76602" lon="2.35263">
        <ele>117</ele>
        <time>2017-05-07T08:05:41.357Z</time>
      </trkpt>
      <trkpt lat="47.76602" lon="2.35263">
        <ele>117</ele>
        <time>2017-05-07T08:05:42.391Z</time>
      </trkpt>
      <trkpt lat="47.76601" lon="2.35274">
        <ele>117</ele>
        <time>2017-05-07T08:05:43.365Z</time>
      </trkpt>
      <trkpt lat="47.76601" lon="2.35279">
        <ele>117</ele>
        <time>2017-05-07T08:05:44.356Z</time>
      </trkpt>
      <trkpt lat="47.76601" lon="2.35279">
        <ele>117</ele>
        <time>2017-05-07T08:05:45.364Z</time>
      </trkpt>
      <trkpt lat="47.76598" lon="2.3529">
        <ele>117</ele>
        <time>2017-05-07T08:05:46.359Z</time>
      </trkpt>
      <trkpt lat="47.76597" lon="2.35296">
        <ele>117</ele>
        <time>2017-05-07T08:05:47.359Z</time>
      </trkpt>
      <trkpt lat="47.76597" lon="2.35296">
        <ele>117</ele>
        <time>2017-05-07T08:05:48.394Z</time>
      </trkpt>
      <trkpt lat="47.76594" lon="2.35307">
        <ele>117</ele>
        <time>2017-05-07T08:05:49.356Z</time>
      </trkpt>
      <trkpt lat="47.76594" lon="2.35307">
        <ele>117</ele>
        <time>2017-05-07T08:05:50.393Z</time>
      </trkpt>
      <trkpt lat="47.76592" lon="2.35318">
        <ele>117</ele>
        <time>2017-05-07T08:05:51.394Z</time>
      </trkpt>
      <trkpt lat="47.76592" lon="2.35318">
        <ele>117</ele>
        <time>2017-05-07T08:05:52.391Z</time>
      </trkpt>
      <trkpt lat="47.7659" lon="2.35327">
        <ele>118</ele>
        <time>2017-05-07T08:05:53.358Z</time>
      </trkpt>
      <trkpt lat="47.7659" lon="2.35327">
        <ele>118</ele>
        <time>2017-05-07T08:05:54.391Z</time>
      </trkpt>
      <trkpt lat="47.76588" lon="2.35335">
        <ele>118</ele>
        <time>2017-05-07T08:05:55.356Z</time>
      </trkpt>
      <trkpt lat="47.76587" lon="2.35338">
        <ele>118</ele>
        <time>2017-05-07T08:05:56.357Z</time>
      </trkpt>
      <trkpt lat="47.76587" lon="2.35338">
        <ele>118</ele>
        <time>2017-05-07T08:05:57.391Z</time>
      </trkpt>
      <trkpt lat="47.76585" lon="2.35349">
        <ele>118</ele>
        <time>2017-05-07T08:05:58.356Z</time>
      </trkpt>
      <trkpt lat="47.76583" lon="2.35355">
        <ele>118</ele>
        <time>2017-05-07T08:05:59.371Z</time>
      </trkpt>
      <trkpt lat="47.76583" lon="2.35355">
        <ele>118</ele>
        <time>2017-05-07T08:06:00.392Z</time>
      </trkpt>
      <trkpt lat="47.7658" lon="2.35368">
        <ele>118</ele>
        <time>2017-05-07T08:06:01.357Z</time>
      </trkpt>
      <trkpt lat="47.7658" lon="2.35368">
        <ele>118</ele>
        <time>2017-05-07T08:06:02.391Z</time>
      </trkpt>
      <trkpt lat="47.76578" lon="2.35382">
        <ele>118</ele>
        <time>2017-05-07T08:06:03.357Z</time>
      </trkpt>
      <trkpt lat="47.76578" lon="2.35382">
        <ele>118</ele>
        <time>2017-05-07T08:06:04.392Z</time>
      </trkpt>
      <trkpt lat="47.76575" lon="2.35396">
        <ele>117</ele>
        <time>2017-05-07T08:06:05.380Z</time>
      </trkpt>
      <trkpt lat="47.76575" lon="2.35396">
        <ele>117</ele>
        <time>2017-05-07T08:06:06.369Z</time>
      </trkpt>
      <trkpt lat="47.76573" lon="2.35409">
        <ele>117</ele>
        <time>2017-05-07T08:06:07.358Z</time>
      </trkpt>
      <trkpt lat="47.76572" lon="2.35416">
        <ele>116</ele>
        <time>2017-05-07T08:06:08.357Z</time>
      </trkpt>
      <trkpt lat="47.76572" lon="2.35416">
        <ele>116</ele>
        <time>2017-05-07T08:06:09.355Z</time>
      </trkpt>
      <trkpt lat="47.76568" lon="2.35428">
        <ele>116</ele>
        <time>2017-05-07T08:06:10.356Z</time>
      </trkpt>
      <trkpt lat="47.76567" lon="2.35435">
        <ele>116</ele>
        <time>2017-05-07T08:06:11.359Z</time>
      </trkpt>
      <trkpt lat="47.76567" lon="2.35435">
        <ele>116</ele>
        <time>2017-05-07T08:06:12.355Z</time>
      </trkpt>
      <trkpt lat="47.76564" lon="2.35449">
        <ele>117</ele>
        <time>2017-05-07T08:06:13.394Z</time>
      </trkpt>
      <trkpt lat="47.76564" lon="2.35449">
        <ele>117</ele>
        <time>2017-05-07T08:06:14.392Z</time>
      </trkpt>
      <trkpt lat="47.76561" lon="2.35463">
        <ele>117</ele>
        <time>2017-05-07T08:06:15.356Z</time>
      </trkpt>
      <trkpt lat="47.76561" lon="2.35463">
        <ele>117</ele>
        <time>2017-05-07T08:06:16.358Z</time>
      </trkpt>
      <trkpt lat="47.76558" lon="2.35475">
        <ele>117</ele>
        <time>2017-05-07T08:06:17.359Z</time>
      </trkpt>
      <trkpt lat="47.76558" lon="2.35475">
        <ele>117</ele>
        <time>2017-05-07T08:06:18.392Z</time>
      </trkpt>
      <trkpt lat="47.76556" lon="2.35488">
        <ele>117</ele>
        <time>2017-05-07T08:06:19.357Z</time>
      </trkpt>
      <trkpt lat="47.76556" lon="2.35488">
        <ele>117</ele>
        <time>2017-05-07T08:06:20.392Z</time>
      </trkpt>
      <trkpt lat="47.76554" lon="2.35501">
        <ele>118</ele>
        <time>2017-05-07T08:06:21.365Z</time>
      </trkpt>
      <trkpt lat="47.76554" lon="2.35501">
        <ele>118</ele>
        <time>2017-05-07T08:06:22.363Z</time>
      </trkpt>
      <trkpt lat="47.76551" lon="2.35513">
        <ele>118</ele>
        <time>2017-05-07T08:06:23.356Z</time>
      </trkpt>
      <trkpt lat="47.76551" lon="2.35513">
        <ele>118</ele>
        <time>2017-05-07T08:06:24.392Z</time>
      </trkpt>
      <trkpt lat="47.76549" lon="2.35525">
        <ele>118</ele>
        <time>2017-05-07T08:06:25.356Z</time>
      </trkpt>
      <trkpt lat="47.76549" lon="2.35525">
        <ele>118</ele>
        <time>2017-05-07T08:06:26.391Z</time>
      </trkpt>
      <trkpt lat="47.76547" lon="2.35537">
        <ele>118</ele>
        <time>2017-05-07T08:06:27.356Z</time>
      </trkpt>
      <trkpt lat="47.76547" lon="2.35537">
        <ele>118</ele>
        <time>2017-05-07T08:06:28.394Z</time>
      </trkpt>
      <trkpt lat="47.76546" lon="2.3555">
        <ele>118</ele>
        <time>2017-05-07T08:06:29.362Z</time>
      </trkpt>
      <trkpt lat="47.76546" lon="2.3555">
        <ele>118</ele>
        <time>2017-05-07T08:06:30.393Z</time>
      </trkpt>
      <trkpt lat="47.76544" lon="2.35561">
        <ele>118</ele>
        <time>2017-05-07T08:06:31.358Z</time>
      </trkpt>
      <trkpt lat="47.76544" lon="2.35561">
        <ele>118</ele>
        <time>2017-05-07T08:06:32.357Z</time>
      </trkpt>
      <trkpt lat="47.76542" lon="2.35574">
        <ele>118</ele>
        <time>2017-05-07T08:06:33.356Z</time>
      </trkpt>
      <trkpt lat="47.76542" lon="2.35574">
        <ele>118</ele>
        <time>2017-05-07T08:06:34.392Z</time>
      </trkpt>
      <trkpt lat="47.7654" lon="2.35586">
        <ele>118</ele>
        <time>2017-05-07T08:06:35.359Z</time>
      </trkpt>
      <trkpt lat="47.7654" lon="2.35593">
        <ele>118</ele>
        <time>2017-05-07T08:06:36.357Z</time>
      </trkpt>
      <trkpt lat="47.7654" lon="2.35593">
        <ele>118</ele>
        <time>2017-05-07T08:06:37.392Z</time>
      </trkpt>
      <trkpt lat="47.76538" lon="2.35606">
        <ele>118</ele>
        <time>2017-05-07T08:06:38.389Z</time>
      </trkpt>
      <trkpt lat="47.76538" lon="2.35606">
        <ele>118</ele>
        <time>2017-05-07T08:06:39.393Z</time>
      </trkpt>
      <trkpt lat="47.76538" lon="2.3562">
        <ele>119</ele>
        <time>2017-05-07T08:06:40.356Z</time>
      </trkpt>
      <trkpt lat="47.76538" lon="2.35627">
        <ele>119</ele>
        <time>2017-05-07T08:06:41.369Z</time>
      </trkpt>
      <trkpt lat="47.76538" lon="2.35627">
        <ele>119</ele>
        <time>2017-05-07T08:06:42.362Z</time>
      </trkpt>
      <trkpt lat="47.76537" lon="2.35641">
        <ele>119</ele>
        <time>2017-05-07T08:06:43.356Z</time>
      </trkpt>
      <trkpt lat="47.76537" lon="2.35641">
        <ele>119</ele>
        <time>2017-05-07T08:06:44.392Z</time>
      </trkpt>
      <trkpt lat="47.76537" lon="2.35654">
        <ele>120</ele>
        <time>2017-05-07T08:06:45.356Z</time>
      </trkpt>
      <trkpt lat="47.76537" lon="2.35654">
        <ele>120</ele>
        <time>2017-05-07T08:06:46.362Z</time>
      </trkpt>
      <trkpt lat="47.76536" lon="2.35668">
        <ele>120</ele>
        <time>2017-05-07T08:06:47.359Z</time>
      </trkpt>
      <trkpt lat="47.76536" lon="2.35668">
        <ele>120</ele>
        <time>2017-05-07T08:06:48.363Z</time>
      </trkpt>
      <trkpt lat="47.76536" lon="2.35679">
        <ele>120</ele>
        <time>2017-05-07T08:06:49.355Z</time>
      </trkpt>
      <trkpt lat="47.76536" lon="2.35679">
        <ele>120</ele>
        <time>2017-05-07T08:06:50.390Z</time>
      </trkpt>
      <trkpt lat="47.76536" lon="2.3569">
        <ele>120</ele>
        <time>2017-05-07T08:06:51.394Z</time>
      </trkpt>
      <trkpt lat="47.76536" lon="2.3569">
        <ele>120</ele>
        <time>2017-05-07T08:06:52.365Z</time>
      </trkpt>
      <trkpt lat="47.76536" lon="2.35701">
        <ele>120</ele>
        <time>2017-05-07T08:06:53.356Z</time>
      </trkpt>
      <trkpt lat="47.76536" lon="2.35701">
        <ele>120</ele>
        <time>2017-05-07T08:06:54.390Z</time>
      </trkpt>
      <trkpt lat="47.76536" lon="2.35711">
        <ele>120</ele>
        <time>2017-05-07T08:06:55.395Z</time>
      </trkpt>
      <trkpt lat="47.76536" lon="2.35716">
        <ele>120</ele>
        <time>2017-05-07T08:06:56.355Z</time>
      </trkpt>
      <trkpt lat="47.76536" lon="2.35716">
        <ele>120</ele>
        <time>2017-05-07T08:06:57.389Z</time>
      </trkpt>
      <trkpt lat="47.76536" lon="2.35722">
        <ele>120</ele>
        <time>2017-05-07T08:06:58.355Z</time>
      </trkpt>
      <trkpt lat="47.76536" lon="2.35725">
        <ele>121</ele>
        <time>2017-05-07T08:06:59.380Z</time>
      </trkpt>
      <trkpt lat="47.76536" lon="2.35725">
        <ele>121</ele>
        <time>2017-05-07T08:07:00.362Z</time>
      </trkpt>
      <trkpt lat="47.76536" lon="2.3573">
        <ele>120</ele>
        <time>2017-05-07T08:07:01.394Z</time>
      </trkpt>
      <trkpt lat="47.76536" lon="2.3573">
        <ele>120</ele>
        <time>2017-05-07T08:07:02.393Z</time>
      </trkpt>
      <trkpt lat="47.76536" lon="2.35739">
        <ele>121</ele>
        <time>2017-05-07T08:07:03.357Z</time>
      </trkpt>
      <trkpt lat="47.76536" lon="2.35739">
        <ele>121</ele>
        <time>2017-05-07T08:07:04.389Z</time>
      </trkpt>
      <trkpt lat="47.76537" lon="2.35748">
        <ele>122</ele>
        <time>2017-05-07T08:07:05.357Z</time>
      </trkpt>
      <trkpt lat="47.76537" lon="2.35748">
        <ele>122</ele>
        <time>2017-05-07T08:07:06.390Z</time>
      </trkpt>
      <trkpt lat="47.76539" lon="2.35757">
        <ele>123</ele>
        <time>2017-05-07T08:07:07.394Z</time>
      </trkpt>
      <trkpt lat="47.76539" lon="2.35757">
        <ele>123</ele>
        <time>2017-05-07T08:07:08.389Z</time>
      </trkpt>
      <trkpt lat="47.7654" lon="2.3577">
        <ele>122</ele>
        <time>2017-05-07T08:07:09.394Z</time>
      </trkpt>
      <trkpt lat="47.7654" lon="2.35776">
        <ele>122</ele>
        <time>2017-05-07T08:07:10.357Z</time>
      </trkpt>
      <trkpt lat="47.7654" lon="2.35782">
        <ele>122</ele>
        <time>2017-05-07T08:07:11.356Z</time>
      </trkpt>
      <trkpt lat="47.7654" lon="2.35788">
        <ele>122</ele>
        <time>2017-05-07T08:07:12.355Z</time>
      </trkpt>
      <trkpt lat="47.7654" lon="2.35788">
        <ele>122</ele>
        <time>2017-05-07T08:07:13.391Z</time>
      </trkpt>
      <trkpt lat="47.76539" lon="2.35799">
        <ele>122</ele>
        <time>2017-05-07T08:07:14.393Z</time>
      </trkpt>
      <trkpt lat="47.76539" lon="2.35799">
        <ele>122</ele>
        <time>2017-05-07T08:07:15.363Z</time>
      </trkpt>
      <trkpt lat="47.7654" lon="2.35809">
        <ele>122</ele>
        <time>2017-05-07T08:07:16.360Z</time>
      </trkpt>
      <trkpt lat="47.7654" lon="2.35815">
        <ele>122</ele>
        <time>2017-05-07T08:07:17.357Z</time>
      </trkpt>
      <trkpt lat="47.7654" lon="2.35815">
        <ele>122</ele>
        <time>2017-05-07T08:07:18.389Z</time>
      </trkpt>
      <trkpt lat="47.76541" lon="2.35826">
        <ele>122</ele>
        <time>2017-05-07T08:07:19.357Z</time>
      </trkpt>
      <trkpt lat="47.76541" lon="2.35826">
        <ele>122</ele>
        <time>2017-05-07T08:07:20.389Z</time>
      </trkpt>
      <trkpt lat="47.76542" lon="2.35838">
        <ele>122</ele>
        <time>2017-05-07T08:07:21.394Z</time>
      </trkpt>
      <trkpt lat="47.76543" lon="2.35843">
        <ele>122</ele>
        <time>2017-05-07T08:07:22.363Z</time>
      </trkpt>
      <trkpt lat="47.76544" lon="2.35849">
        <ele>123</ele>
        <time>2017-05-07T08:07:23.363Z</time>
      </trkpt>
      <trkpt lat="47.76544" lon="2.35849">
        <ele>123</ele>
        <time>2017-05-07T08:07:24.393Z</time>
      </trkpt>
      <trkpt lat="47.76545" lon="2.35861">
        <ele>123</ele>
        <time>2017-05-07T08:07:25.394Z</time>
      </trkpt>
      <trkpt lat="47.76546" lon="2.35866">
        <ele>123</ele>
        <time>2017-05-07T08:07:26.355Z</time>
      </trkpt>
      <trkpt lat="47.76546" lon="2.35871">
        <ele>124</ele>
        <time>2017-05-07T08:07:27.356Z</time>
      </trkpt>
      <trkpt lat="47.76546" lon="2.35871">
        <ele>124</ele>
        <time>2017-05-07T08:07:28.389Z</time>
      </trkpt>
      <trkpt lat="47.76547" lon="2.35882">
        <ele>124</ele>
        <time>2017-05-07T08:07:29.357Z</time>
      </trkpt>
      <trkpt lat="47.76547" lon="2.35882">
        <ele>124</ele>
        <time>2017-05-07T08:07:30.390Z</time>
      </trkpt>
      <trkpt lat="47.76548" lon="2.35894">
        <ele>124</ele>
        <time>2017-05-07T08:07:31.395Z</time>
      </trkpt>
      <trkpt lat="47.76548" lon="2.35894">
        <ele>124</ele>
        <time>2017-05-07T08:07:32.389Z</time>
      </trkpt>
      <trkpt lat="47.76549" lon="2.35907">
        <ele>124</ele>
        <time>2017-05-07T08:07:33.394Z</time>
      </trkpt>
      <trkpt lat="47.76549" lon="2.35907">
        <ele>124</ele>
        <time>2017-05-07T08:07:34.390Z</time>
      </trkpt>
      <trkpt lat="47.76549" lon="2.35921">
        <ele>124</ele>
        <time>2017-05-07T08:07:35.361Z</time>
      </trkpt>
      <trkpt lat="47.76549" lon="2.35921">
        <ele>124</ele>
        <time>2017-05-07T08:07:36.390Z</time>
      </trkpt>
      <trkpt lat="47.76547" lon="2.35935">
        <ele>124</ele>
        <time>2017-05-07T08:07:37.355Z</time>
      </trkpt>
      <trkpt lat="47.76546" lon="2.35942">
        <ele>124</ele>
        <time>2017-05-07T08:07:38.356Z</time>
      </trkpt>
      <trkpt lat="47.76546" lon="2.35942">
        <ele>124</ele>
        <time>2017-05-07T08:07:39.390Z</time>
      </trkpt>
      <trkpt lat="47.76545" lon="2.35957">
        <ele>124</ele>
        <time>2017-05-07T08:07:40.394Z</time>
      </trkpt>
      <trkpt lat="47.76545" lon="2.35964">
        <ele>124</ele>
        <time>2017-05-07T08:07:41.356Z</time>
      </trkpt>
      <trkpt lat="47.76545" lon="2.35964">
        <ele>124</ele>
        <time>2017-05-07T08:07:42.389Z</time>
      </trkpt>
      <trkpt lat="47.76546" lon="2.35979">
        <ele>124</ele>
        <time>2017-05-07T08:07:43.394Z</time>
      </trkpt>
      <trkpt lat="47.76546" lon="2.35986">
        <ele>124</ele>
        <time>2017-05-07T08:07:44.355Z</time>
      </trkpt>
      <trkpt lat="47.76546" lon="2.35986">
        <ele>124</ele>
        <time>2017-05-07T08:07:45.389Z</time>
      </trkpt>
      <trkpt lat="47.76546" lon="2.36001">
        <ele>124</ele>
        <time>2017-05-07T08:07:46.355Z</time>
      </trkpt>
      <trkpt lat="47.76546" lon="2.36008">
        <ele>124</ele>
        <time>2017-05-07T08:07:47.357Z</time>
      </trkpt>
      <trkpt lat="47.76546" lon="2.36008">
        <ele>124</ele>
        <time>2017-05-07T08:07:48.391Z</time>
      </trkpt>
      <trkpt lat="47.76546" lon="2.36022">
        <ele>123</ele>
        <time>2017-05-07T08:07:49.356Z</time>
      </trkpt>
      <trkpt lat="47.76546" lon="2.36022">
        <ele>123</ele>
        <time>2017-05-07T08:07:50.390Z</time>
      </trkpt>
      <trkpt lat="47.76546" lon="2.36034">
        <ele>123</ele>
        <time>2017-05-07T08:07:51.395Z</time>
      </trkpt>
      <trkpt lat="47.76547" lon="2.3604">
        <ele>123</ele>
        <time>2017-05-07T08:07:52.356Z</time>
      </trkpt>
      <trkpt lat="47.76547" lon="2.3604">
        <ele>123</ele>
        <time>2017-05-07T08:07:53.358Z</time>
      </trkpt>
      <trkpt lat="47.76547" lon="2.36053">
        <ele>123</ele>
        <time>2017-05-07T08:07:54.357Z</time>
      </trkpt>
      <trkpt lat="47.76547" lon="2.36053">
        <ele>123</ele>
        <time>2017-05-07T08:07:55.393Z</time>
      </trkpt>
      <trkpt lat="47.76548" lon="2.36066">
        <ele>123</ele>
        <time>2017-05-07T08:07:56.357Z</time>
      </trkpt>
      <trkpt lat="47.76548" lon="2.36073">
        <ele>123</ele>
        <time>2017-05-07T08:07:57.357Z</time>
      </trkpt>
      <trkpt lat="47.76549" lon="2.3608">
        <ele>123</ele>
        <time>2017-05-07T08:07:58.357Z</time>
      </trkpt>
      <trkpt lat="47.76549" lon="2.3608">
        <ele>123</ele>
        <time>2017-05-07T08:07:59.355Z</time>
      </trkpt>
      <trkpt lat="47.76549" lon="2.36094">
        <ele>123</ele>
        <time>2017-05-07T08:08:00.374Z</time>
      </trkpt>
      <trkpt lat="47.76549" lon="2.36094">
        <ele>123</ele>
        <time>2017-05-07T08:08:01.376Z</time>
      </trkpt>
      <trkpt lat="47.7655" lon="2.36107">
        <ele>123</ele>
        <time>2017-05-07T08:08:02.368Z</time>
      </trkpt>
      <trkpt lat="47.7655" lon="2.36107">
        <ele>123</ele>
        <time>2017-05-07T08:08:03.361Z</time>
      </trkpt>
      <trkpt lat="47.76552" lon="2.36122">
        <ele>123</ele>
        <time>2017-05-07T08:08:04.357Z</time>
      </trkpt>
      <trkpt lat="47.76552" lon="2.36129">
        <ele>123</ele>
        <time>2017-05-07T08:08:05.357Z</time>
      </trkpt>
      <trkpt lat="47.76552" lon="2.36129">
        <ele>123</ele>
        <time>2017-05-07T08:08:06.355Z</time>
      </trkpt>
      <trkpt lat="47.76554" lon="2.36143">
        <ele>123</ele>
        <time>2017-05-07T08:08:07.358Z</time>
      </trkpt>
      <trkpt lat="47.76554" lon="2.36143">
        <ele>123</ele>
        <time>2017-05-07T08:08:08.392Z</time>
      </trkpt>
      <trkpt lat="47.76555" lon="2.36158">
        <ele>123</ele>
        <time>2017-05-07T08:08:09.371Z</time>
      </trkpt>
      <trkpt lat="47.76556" lon="2.36166">
        <ele>123</ele>
        <time>2017-05-07T08:08:10.360Z</time>
      </trkpt>
      <trkpt lat="47.76556" lon="2.36166">
        <ele>123</ele>
        <time>2017-05-07T08:08:11.395Z</time>
      </trkpt>
      <trkpt lat="47.76558" lon="2.36181">
        <ele>122</ele>
        <time>2017-05-07T08:08:12.358Z</time>
      </trkpt>
      <trkpt lat="47.76558" lon="2.36181">
        <ele>122</ele>
        <time>2017-05-07T08:08:13.360Z</time>
      </trkpt>
      <trkpt lat="47.7656" lon="2.36195">
        <ele>122</ele>
        <time>2017-05-07T08:08:14.394Z</time>
      </trkpt>
      <trkpt lat="47.76561" lon="2.36202">
        <ele>122</ele>
        <time>2017-05-07T08:08:15.395Z</time>
      </trkpt>
      <trkpt lat="47.76561" lon="2.36202">
        <ele>122</ele>
        <time>2017-05-07T08:08:16.358Z</time>
      </trkpt>
      <trkpt lat="47.76563" lon="2.36215">
        <ele>121</ele>
        <time>2017-05-07T08:08:17.359Z</time>
      </trkpt>
      <trkpt lat="47.76566" lon="2.36221">
        <ele>122</ele>
        <time>2017-05-07T08:08:18.357Z</time>
      </trkpt>
      <trkpt lat="47.76566" lon="2.36221">
        <ele>122</ele>
        <time>2017-05-07T08:08:19.394Z</time>
      </trkpt>
      <trkpt lat="47.76568" lon="2.36234">
        <ele>121</ele>
        <time>2017-05-07T08:08:20.358Z</time>
      </trkpt>
      <trkpt lat="47.76569" lon="2.3624">
        <ele>121</ele>
        <time>2017-05-07T08:08:21.357Z</time>
      </trkpt>
      <trkpt lat="47.7657" lon="2.36246">
        <ele>121</ele>
        <time>2017-05-07T08:08:22.369Z</time>
      </trkpt>
      <trkpt lat="47.7657" lon="2.36246">
        <ele>121</ele>
        <time>2017-05-07T08:08:23.359Z</time>
      </trkpt>
      <trkpt lat="47.76572" lon="2.3626">
        <ele>121</ele>
        <time>2017-05-07T08:08:24.357Z</time>
      </trkpt>
      <trkpt lat="47.76572" lon="2.3626">
        <ele>121</ele>
        <time>2017-05-07T08:08:25.394Z</time>
      </trkpt>
      <trkpt lat="47.76575" lon="2.36275">
        <ele>121</ele>
        <time>2017-05-07T08:08:26.381Z</time>
      </trkpt>
      <trkpt lat="47.76575" lon="2.36275">
        <ele>121</ele>
        <time>2017-05-07T08:08:27.380Z</time>
      </trkpt>
      <trkpt lat="47.76579" lon="2.3629">
        <ele>122</ele>
        <time>2017-05-07T08:08:28.369Z</time>
      </trkpt>
      <trkpt lat="47.76581" lon="2.36297">
        <ele>121</ele>
        <time>2017-05-07T08:08:29.360Z</time>
      </trkpt>
      <trkpt lat="47.76581" lon="2.36297">
        <ele>121</ele>
        <time>2017-05-07T08:08:30.390Z</time>
      </trkpt>
      <trkpt lat="47.76584" lon="2.36312">
        <ele>122</ele>
        <time>2017-05-07T08:08:31.395Z</time>
      </trkpt>
      <trkpt lat="47.76586" lon="2.36319">
        <ele>121</ele>
        <time>2017-05-07T08:08:32.358Z</time>
      </trkpt>
      <trkpt lat="47.76586" lon="2.36319">
        <ele>121</ele>
        <time>2017-05-07T08:08:33.359Z</time>
      </trkpt>
      <trkpt lat="47.76589" lon="2.36332">
        <ele>121</ele>
        <time>2017-05-07T08:08:34.357Z</time>
      </trkpt>
      <trkpt lat="47.76589" lon="2.36332">
        <ele>121</ele>
        <time>2017-05-07T08:08:35.356Z</time>
      </trkpt>
      <trkpt lat="47.76593" lon="2.36345">
        <ele>121</ele>
        <time>2017-05-07T08:08:36.357Z</time>
      </trkpt>
      <trkpt lat="47.76593" lon="2.36345">
        <ele>121</ele>
        <time>2017-05-07T08:08:37.355Z</time>
      </trkpt>
      <trkpt lat="47.76597" lon="2.36358">
        <ele>121</ele>
        <time>2017-05-07T08:08:38.358Z</time>
      </trkpt>
      <trkpt lat="47.76597" lon="2.36358">
        <ele>121</ele>
        <time>2017-05-07T08:08:39.364Z</time>
      </trkpt>
      <trkpt lat="47.766" lon="2.3637">
        <ele>121</ele>
        <time>2017-05-07T08:08:40.357Z</time>
      </trkpt>
      <trkpt lat="47.766" lon="2.3637">
        <ele>121</ele>
        <time>2017-05-07T08:08:41.357Z</time>
      </trkpt>
      <trkpt lat="47.76605" lon="2.36379">
        <ele>121</ele>
        <time>2017-05-07T08:08:42.358Z</time>
      </trkpt>
      <trkpt lat="47.76609" lon="2.36382">
        <ele>121</ele>
        <time>2017-05-07T08:08:43.356Z</time>
      </trkpt>
      <trkpt lat="47.76609" lon="2.36382">
        <ele>121</ele>
        <time>2017-05-07T08:08:44.393Z</time>
      </trkpt>
      <trkpt lat="47.76615" lon="2.36391">
        <ele>121</ele>
        <time>2017-05-07T08:08:45.357Z</time>
      </trkpt>
      <trkpt lat="47.76616" lon="2.36396">
        <ele>121</ele>
        <time>2017-05-07T08:08:46.358Z</time>
      </trkpt>
      <trkpt lat="47.76616" lon="2.36396">
        <ele>121</ele>
        <time>2017-05-07T08:08:47.394Z</time>
      </trkpt>
      <trkpt lat="47.76619" lon="2.3641">
        <ele>121</ele>
        <time>2017-05-07T08:08:48.360Z</time>
      </trkpt>
      <trkpt lat="47.7662" lon="2.36417">
        <ele>121</ele>
        <time>2017-05-07T08:08:49.380Z</time>
      </trkpt>
      <trkpt lat="47.7662" lon="2.36417">
        <ele>121</ele>
        <time>2017-05-07T08:08:50.372Z</time>
      </trkpt>
      <trkpt lat="47.76622" lon="2.36432">
        <ele>121</ele>
        <time>2017-05-07T08:08:51.360Z</time>
      </trkpt>
      <trkpt lat="47.76622" lon="2.36432">
        <ele>121</ele>
        <time>2017-05-07T08:08:52.392Z</time>
      </trkpt>
      <trkpt lat="47.76623" lon="2.36446">
        <ele>121</ele>
        <time>2017-05-07T08:08:53.362Z</time>
      </trkpt>
      <trkpt lat="47.76624" lon="2.36453">
        <ele>121</ele>
        <time>2017-05-07T08:08:54.358Z</time>
      </trkpt>
      <trkpt lat="47.76624" lon="2.3646">
        <ele>121</ele>
        <time>2017-05-07T08:08:55.358Z</time>
      </trkpt>
      <trkpt lat="47.76624" lon="2.3646">
        <ele>121</ele>
        <time>2017-05-07T08:08:56.393Z</time>
      </trkpt>
      <trkpt lat="47.76624" lon="2.36474">
        <ele>121</ele>
        <time>2017-05-07T08:08:57.357Z</time>
      </trkpt>
      <trkpt lat="47.76624" lon="2.36474">
        <ele>121</ele>
        <time>2017-05-07T08:08:58.392Z</time>
      </trkpt>
      <trkpt lat="47.76624" lon="2.36487">
        <ele>121</ele>
        <time>2017-05-07T08:08:59.360Z</time>
      </trkpt>
      <trkpt lat="47.76624" lon="2.36494">
        <ele>121</ele>
        <time>2017-05-07T08:09:00.361Z</time>
      </trkpt>
      <trkpt lat="47.76624" lon="2.36501">
        <ele>121</ele>
        <time>2017-05-07T08:09:01.360Z</time>
      </trkpt>
      <trkpt lat="47.76624" lon="2.36501">
        <ele>121</ele>
        <time>2017-05-07T08:09:02.355Z</time>
      </trkpt>
      <trkpt lat="47.76624" lon="2.36514">
        <ele>121</ele>
        <time>2017-05-07T08:09:03.358Z</time>
      </trkpt>
      <trkpt lat="47.76624" lon="2.36521">
        <ele>121</ele>
        <time>2017-05-07T08:09:04.369Z</time>
      </trkpt>
      <trkpt lat="47.76624" lon="2.36521">
        <ele>121</ele>
        <time>2017-05-07T08:09:05.358Z</time>
      </trkpt>
      <trkpt lat="47.76623" lon="2.36534">
        <ele>121</ele>
        <time>2017-05-07T08:09:06.358Z</time>
      </trkpt>
      <trkpt lat="47.76623" lon="2.36534">
        <ele>121</ele>
        <time>2017-05-07T08:09:07.356Z</time>
      </trkpt>
      <trkpt lat="47.76623" lon="2.36548">
        <ele>120</ele>
        <time>2017-05-07T08:09:08.357Z</time>
      </trkpt>
      <trkpt lat="47.76623" lon="2.36555">
        <ele>120</ele>
        <time>2017-05-07T08:09:09.359Z</time>
      </trkpt>
      <trkpt lat="47.76623" lon="2.36555">
        <ele>120</ele>
        <time>2017-05-07T08:09:10.394Z</time>
      </trkpt>
      <trkpt lat="47.76623" lon="2.3657">
        <ele>121</ele>
        <time>2017-05-07T08:09:11.388Z</time>
      </trkpt>
      <trkpt lat="47.76623" lon="2.3657">
        <ele>121</ele>
        <time>2017-05-07T08:09:12.394Z</time>
      </trkpt>
      <trkpt lat="47.76623" lon="2.36584">
        <ele>121</ele>
        <time>2017-05-07T08:09:13.355Z</time>
      </trkpt>
      <trkpt lat="47.76623" lon="2.36584">
        <ele>121</ele>
        <time>2017-05-07T08:09:14.388Z</time>
      </trkpt>
      <trkpt lat="47.76624" lon="2.36596">
        <ele>122</ele>
        <time>2017-05-07T08:09:15.357Z</time>
      </trkpt>
      <trkpt lat="47.76624" lon="2.36596">
        <ele>122</ele>
        <time>2017-05-07T08:09:16.357Z</time>
      </trkpt>
      <trkpt lat="47.76624" lon="2.36609">
        <ele>122</ele>
        <time>2017-05-07T08:09:17.361Z</time>
      </trkpt>
      <trkpt lat="47.76624" lon="2.36614">
        <ele>122</ele>
        <time>2017-05-07T08:09:18.358Z</time>
      </trkpt>
      <trkpt lat="47.76624" lon="2.36614">
        <ele>122</ele>
        <time>2017-05-07T08:09:19.355Z</time>
      </trkpt>
      <trkpt lat="47.76623" lon="2.36624">
        <ele>122</ele>
        <time>2017-05-07T08:09:20.358Z</time>
      </trkpt>
      <trkpt lat="47.76623" lon="2.36624">
        <ele>122</ele>
        <time>2017-05-07T08:09:21.367Z</time>
      </trkpt>
      <trkpt lat="47.76619" lon="2.36633">
        <ele>121</ele>
        <time>2017-05-07T08:09:22.358Z</time>
      </trkpt>
      <trkpt lat="47.76619" lon="2.36633">
        <ele>121</ele>
        <time>2017-05-07T08:09:23.355Z</time>
      </trkpt>
      <trkpt lat="47.76618" lon="2.36643">
        <ele>121</ele>
        <time>2017-05-07T08:09:24.358Z</time>
      </trkpt>
      <trkpt lat="47.76617" lon="2.36648">
        <ele>121</ele>
        <time>2017-05-07T08:09:25.360Z</time>
      </trkpt>
      <trkpt lat="47.76617" lon="2.36648">
        <ele>121</ele>
        <time>2017-05-07T08:09:26.392Z</time>
      </trkpt>
      <trkpt lat="47.76617" lon="2.36658">
        <ele>121</ele>
        <time>2017-05-07T08:09:27.355Z</time>
      </trkpt>
      <trkpt lat="47.76615" lon="2.36662">
        <ele>121</ele>
        <time>2017-05-07T08:09:28.358Z</time>
      </trkpt>
      <trkpt lat="47.76615" lon="2.36665">
        <ele>121</ele>
        <time>2017-05-07T08:09:29.359Z</time>
      </trkpt>
      <trkpt lat="47.76615" lon="2.36665">
        <ele>121</ele>
        <time>2017-05-07T08:09:30.356Z</time>
      </trkpt>
      <trkpt lat="47.76615" lon="2.36671">
        <ele>121</ele>
        <time>2017-05-07T08:09:31.358Z</time>
      </trkpt>
      <trkpt lat="47.76615" lon="2.36671">
        <ele>121</ele>
        <time>2017-05-07T08:09:32.355Z</time>
      </trkpt>
      <trkpt lat="47.76615" lon="2.36676">
        <ele>121</ele>
        <time>2017-05-07T08:09:33.358Z</time>
      </trkpt>
      <trkpt lat="47.76615" lon="2.36676">
        <ele>121</ele>
        <time>2017-05-07T08:09:34.355Z</time>
      </trkpt>
      <trkpt lat="47.76612" lon="2.36677">
        <ele>122</ele>
        <time>2017-05-07T08:09:35.360Z</time>
      </trkpt>
      <trkpt lat="47.7661" lon="2.36677">
        <ele>122</ele>
        <time>2017-05-07T08:09:36.357Z</time>
      </trkpt>
      <trkpt lat="47.7661" lon="2.36677">
        <ele>122</ele>
        <time>2017-05-07T08:09:37.394Z</time>
      </trkpt>
      <trkpt lat="47.76602" lon="2.36678">
        <ele>122</ele>
        <time>2017-05-07T08:09:38.357Z</time>
      </trkpt>
      <trkpt lat="47.76602" lon="2.36678">
        <ele>122</ele>
        <time>2017-05-07T08:09:39.356Z</time>
      </trkpt>
      <trkpt lat="47.766" lon="2.36678">
        <ele>123</ele>
        <time>2017-05-07T08:09:40.390Z</time>
      </trkpt>
      <trkpt lat="47.766" lon="2.36678">
        <ele>123</ele>
        <time>2017-05-07T08:09:41.355Z</time>
      </trkpt>
      <trkpt lat="47.76596" lon="2.3668">
        <ele>124</ele>
        <time>2017-05-07T08:09:42.357Z</time>
      </trkpt>
      <trkpt lat="47.76594" lon="2.36682">
        <ele>124</ele>
        <time>2017-05-07T08:09:43.370Z</time>
      </trkpt>
      <trkpt lat="47.76594" lon="2.36682">
        <ele>124</ele>
        <time>2017-05-07T08:09:44.361Z</time>
      </trkpt>
      <trkpt lat="47.76589" lon="2.36685">
        <ele>124</ele>
        <time>2017-05-07T08:09:45.359Z</time>
      </trkpt>
      <trkpt lat="47.76589" lon="2.36685">
        <ele>124</ele>
        <time>2017-05-07T08:09:46.356Z</time>
      </trkpt>
      <trkpt lat="47.76584" lon="2.36688">
        <ele>124</ele>
        <time>2017-05-07T08:09:47.357Z</time>
      </trkpt>
      <trkpt lat="47.76584" lon="2.36688">
        <ele>124</ele>
        <time>2017-05-07T08:09:48.358Z</time>
      </trkpt>
      <trkpt lat="47.76579" lon="2.36692">
        <ele>124</ele>
        <time>2017-05-07T08:09:49.360Z</time>
      </trkpt>
      <trkpt lat="47.76577" lon="2.36695">
        <ele>124</ele>
        <time>2017-05-07T08:09:50.358Z</time>
      </trkpt>
      <trkpt lat="47.76575" lon="2.36701">
        <ele>124</ele>
        <time>2017-05-07T08:09:51.359Z</time>
      </trkpt>
      <trkpt lat="47.76575" lon="2.36701">
        <ele>124</ele>
        <time>2017-05-07T08:09:52.356Z</time>
      </trkpt>
      <trkpt lat="47.76573" lon="2.36711">
        <ele>123</ele>
        <time>2017-05-07T08:09:53.360Z</time>
      </trkpt>
      <trkpt lat="47.76573" lon="2.36711">
        <ele>123</ele>
        <time>2017-05-07T08:09:54.359Z</time>
      </trkpt>
      <trkpt lat="47.76572" lon="2.36722">
        <ele>123</ele>
        <time>2017-05-07T08:09:55.365Z</time>
      </trkpt>
      <trkpt lat="47.76572" lon="2.36728">
        <ele>123</ele>
        <time>2017-05-07T08:09:56.358Z</time>
      </trkpt>
      <trkpt lat="47.76572" lon="2.36728">
        <ele>123</ele>
        <time>2017-05-07T08:09:57.357Z</time>
      </trkpt>
      <trkpt lat="47.7657" lon="2.3674">
        <ele>124</ele>
        <time>2017-05-07T08:09:58.358Z</time>
      </trkpt>
      <trkpt lat="47.7657" lon="2.3674">
        <ele>124</ele>
        <time>2017-05-07T08:09:59.356Z</time>
      </trkpt>
      <trkpt lat="47.76569" lon="2.36751">
        <ele>124</ele>
        <time>2017-05-07T08:10:00.359Z</time>
      </trkpt>
      <trkpt lat="47.76569" lon="2.36751">
        <ele>124</ele>
        <time>2017-05-07T08:10:01.393Z</time>
      </trkpt>
      <trkpt lat="47.76568" lon="2.36761">
        <ele>124</ele>
        <time>2017-05-07T08:10:02.358Z</time>
      </trkpt>
      <trkpt lat="47.76568" lon="2.36761">
        <ele>124</ele>
        <time>2017-05-07T08:10:03.394Z</time>
      </trkpt>
      <trkpt lat="47.76566" lon="2.36771">
        <ele>123</ele>
        <time>2017-05-07T08:10:04.360Z</time>
      </trkpt>
      <trkpt lat="47.76566" lon="2.36775">
        <ele>123</ele>
        <time>2017-05-07T08:10:05.361Z</time>
      </trkpt>
      <trkpt lat="47.76565" lon="2.3678">
        <ele>123</ele>
        <time>2017-05-07T08:10:06.359Z</time>
      </trkpt>
      <trkpt lat="47.76565" lon="2.3678">
        <ele>123</ele>
        <time>2017-05-07T08:10:07.394Z</time>
      </trkpt>
      <trkpt lat="47.76564" lon="2.36787">
        <ele>123</ele>
        <time>2017-05-07T08:10:08.358Z</time>
      </trkpt>
      <trkpt lat="47.76563" lon="2.3679">
        <ele>123</ele>
        <time>2017-05-07T08:10:09.378Z</time>
      </trkpt>
      <trkpt lat="47.76563" lon="2.36793">
        <ele>123</ele>
        <time>2017-05-07T08:10:10.368Z</time>
      </trkpt>
      <trkpt lat="47.76563" lon="2.36793">
        <ele>123</ele>
        <time>2017-05-07T08:10:11.358Z</time>
      </trkpt>
      <trkpt lat="47.76563" lon="2.36795">
        <ele>123</ele>
        <time>2017-05-07T08:10:12.357Z</time>
      </trkpt>
      <trkpt lat="47.76563" lon="2.36795">
        <ele>123</ele>
        <time>2017-05-07T08:10:13.357Z</time>
      </trkpt>
      <trkpt lat="47.76563" lon="2.36795">
        <ele>123</ele>
        <time>2017-05-07T08:10:14.359Z</time>
      </trkpt>
      <trkpt lat="47.76562" lon="2.36795">
        <ele>123</ele>
        <time>2017-05-07T08:10:15.357Z</time>
      </trkpt>
      <trkpt lat="47.76562" lon="2.36795">
        <ele>123</ele>
        <time>2017-05-07T08:10:16.369Z</time>
      </trkpt>
      <trkpt lat="47.76561" lon="2.36795">
        <ele>123</ele>
        <time>2017-05-07T08:10:17.385Z</time>
      </trkpt>
      <trkpt lat="47.76563" lon="2.36789">
        <ele>126</ele>
        <time>2017-05-07T08:10:18.364Z</time>
      </trkpt>
      <trkpt lat="47.76563" lon="2.36789">
        <ele>126</ele>
        <time>2017-05-07T08:10:19.380Z</time>
      </trkpt>
      <trkpt lat="47.76564" lon="2.36785">
        <ele>126</ele>
        <time>2017-05-07T08:10:20.396Z</time>
      </trkpt>
      <trkpt lat="47.76564" lon="2.36785">
        <ele>126</ele>
        <time>2017-05-07T08:10:21.401Z</time>
      </trkpt>
      <trkpt lat="47.76564" lon="2.36783">
        <ele>126</ele>
        <time>2017-05-07T08:10:22.395Z</time>
      </trkpt>
      <trkpt lat="47.76564" lon="2.36783">
        <ele>126</ele>
        <time>2017-05-07T08:10:23.401Z</time>
      </trkpt>
      <trkpt lat="47.76565" lon="2.36778">
        <ele>126</ele>
        <time>2017-05-07T08:10:24.395Z</time>
      </trkpt>
      <trkpt lat="47.76565" lon="2.36778">
        <ele>126</ele>
        <time>2017-05-07T08:10:25.400Z</time>
      </trkpt>
      <trkpt lat="47.76565" lon="2.36769">
        <ele>126</ele>
        <time>2017-05-07T08:10:26.395Z</time>
      </trkpt>
      <trkpt lat="47.76565" lon="2.36769">
        <ele>126</ele>
        <time>2017-05-07T08:10:27.402Z</time>
      </trkpt>
      <trkpt lat="47.76565" lon="2.36759">
        <ele>126</ele>
        <time>2017-05-07T08:10:28.399Z</time>
      </trkpt>
      <trkpt lat="47.76565" lon="2.36759">
        <ele>126</ele>
        <time>2017-05-07T08:10:29.359Z</time>
      </trkpt>
      <trkpt lat="47.76565" lon="2.36748">
        <ele>126</ele>
        <time>2017-05-07T08:10:30.366Z</time>
      </trkpt>
      <trkpt lat="47.76565" lon="2.36748">
        <ele>126</ele>
        <time>2017-05-07T08:10:31.372Z</time>
      </trkpt>
      <trkpt lat="47.76566" lon="2.36736">
        <ele>126</ele>
        <time>2017-05-07T08:10:32.373Z</time>
      </trkpt>
      <trkpt lat="47.76566" lon="2.36736">
        <ele>126</ele>
        <time>2017-05-07T08:10:33.399Z</time>
      </trkpt>
      <trkpt lat="47.76567" lon="2.36725">
        <ele>125</ele>
        <time>2017-05-07T08:10:34.400Z</time>
      </trkpt>
      <trkpt lat="47.76568" lon="2.36719">
        <ele>125</ele>
        <time>2017-05-07T08:10:35.395Z</time>
      </trkpt>
      <trkpt lat="47.76568" lon="2.36719">
        <ele>125</ele>
        <time>2017-05-07T08:10:36.400Z</time>
      </trkpt>
      <trkpt lat="47.7657" lon="2.3671">
        <ele>125</ele>
        <time>2017-05-07T08:10:37.375Z</time>
      </trkpt>
      <trkpt lat="47.7657" lon="2.3671">
        <ele>125</ele>
        <time>2017-05-07T08:10:38.400Z</time>
      </trkpt>
      <trkpt lat="47.76573" lon="2.36705">
        <ele>124</ele>
        <time>2017-05-07T08:10:39.375Z</time>
      </trkpt>
      <trkpt lat="47.76573" lon="2.36705">
        <ele>124</ele>
        <time>2017-05-07T08:10:40.400Z</time>
      </trkpt>
      <trkpt lat="47.76575" lon="2.36701">
        <ele>124</ele>
        <time>2017-05-07T08:10:41.395Z</time>
      </trkpt>
      <trkpt lat="47.76575" lon="2.36701">
        <ele>124</ele>
        <time>2017-05-07T08:10:42.400Z</time>
      </trkpt>
      <trkpt lat="47.7658" lon="2.36696">
        <ele>124</ele>
        <time>2017-05-07T08:10:43.396Z</time>
      </trkpt>
      <trkpt lat="47.7658" lon="2.36696">
        <ele>124</ele>
        <time>2017-05-07T08:10:44.374Z</time>
      </trkpt>
      <trkpt lat="47.76585" lon="2.3669">
        <ele>124</ele>
        <time>2017-05-07T08:10:45.416Z</time>
      </trkpt>
      <trkpt lat="47.76589" lon="2.36688">
        <ele>123</ele>
        <time>2017-05-07T08:10:46.362Z</time>
      </trkpt>
      <trkpt lat="47.76589" lon="2.36688">
        <ele>123</ele>
        <time>2017-05-07T08:10:47.401Z</time>
      </trkpt>
      <trkpt lat="47.76596" lon="2.36687">
        <ele>123</ele>
        <time>2017-05-07T08:10:48.396Z</time>
      </trkpt>
      <trkpt lat="47.76596" lon="2.36687">
        <ele>123</ele>
        <time>2017-05-07T08:10:49.400Z</time>
      </trkpt>
      <trkpt lat="47.76603" lon="2.36686">
        <ele>123</ele>
        <time>2017-05-07T08:10:50.395Z</time>
      </trkpt>
      <trkpt lat="47.76603" lon="2.36686">
        <ele>123</ele>
        <time>2017-05-07T08:10:51.402Z</time>
      </trkpt>
      <trkpt lat="47.7661" lon="2.36684">
        <ele>123</ele>
        <time>2017-05-07T08:10:52.396Z</time>
      </trkpt>
      <trkpt lat="47.7661" lon="2.36684">
        <ele>123</ele>
        <time>2017-05-07T08:10:53.405Z</time>
      </trkpt>
      <trkpt lat="47.76616" lon="2.36683">
        <ele>122</ele>
        <time>2017-05-07T08:10:54.361Z</time>
      </trkpt>
      <trkpt lat="47.7662" lon="2.36682">
        <ele>122</ele>
        <time>2017-05-07T08:10:55.366Z</time>
      </trkpt>
      <trkpt lat="47.7662" lon="2.36682">
        <ele>122</ele>
        <time>2017-05-07T08:10:56.373Z</time>
      </trkpt>
      <trkpt lat="47.76626" lon="2.36681">
        <ele>123</ele>
        <time>2017-05-07T08:10:57.363Z</time>
      </trkpt>
      <trkpt lat="47.76629" lon="2.3668">
        <ele>123</ele>
        <time>2017-05-07T08:10:58.370Z</time>
      </trkpt>
      <trkpt lat="47.76629" lon="2.3668">
        <ele>123</ele>
        <time>2017-05-07T08:10:59.369Z</time>
      </trkpt>
      <trkpt lat="47.76635" lon="2.36679">
        <ele>123</ele>
        <time>2017-05-07T08:11:00.357Z</time>
      </trkpt>
      <trkpt lat="47.76635" lon="2.36679">
        <ele>123</ele>
        <time>2017-05-07T08:11:01.363Z</time>
      </trkpt>
      <trkpt lat="47.7664" lon="2.36683">
        <ele>123</ele>
        <time>2017-05-07T08:11:02.402Z</time>
      </trkpt>
      <trkpt lat="47.76641" lon="2.36687">
        <ele>123</ele>
        <time>2017-05-07T08:11:03.362Z</time>
      </trkpt>
      <trkpt lat="47.76641" lon="2.36687">
        <ele>123</ele>
        <time>2017-05-07T08:11:04.377Z</time>
      </trkpt>
      <trkpt lat="47.76643" lon="2.36697">
        <ele>123</ele>
        <time>2017-05-07T08:11:05.401Z</time>
      </trkpt>
      <trkpt lat="47.76644" lon="2.36702">
        <ele>123</ele>
        <time>2017-05-07T08:11:06.395Z</time>
      </trkpt>
      <trkpt lat="47.76644" lon="2.36702">
        <ele>123</ele>
        <time>2017-05-07T08:11:07.398Z</time>
      </trkpt>
      <trkpt lat="47.76647" lon="2.36711">
        <ele>123</ele>
        <time>2017-05-07T08:11:08.396Z</time>
      </trkpt>
      <trkpt lat="47.76647" lon="2.36711">
        <ele>123</ele>
        <time>2017-05-07T08:11:09.402Z</time>
      </trkpt>
      <trkpt lat="47.76649" lon="2.36724">
        <ele>123</ele>
        <time>2017-05-07T08:11:10.397Z</time>
      </trkpt>
      <trkpt lat="47.76649" lon="2.36724">
        <ele>123</ele>
        <time>2017-05-07T08:11:11.365Z</time>
      </trkpt>
      <trkpt lat="47.76651" lon="2.36734">
        <ele>123</ele>
        <time>2017-05-07T08:11:12.367Z</time>
      </trkpt>
      <trkpt lat="47.76651" lon="2.36734">
        <ele>123</ele>
        <time>2017-05-07T08:11:13.401Z</time>
      </trkpt>
      <trkpt lat="47.76654" lon="2.36744">
        <ele>123</ele>
        <time>2017-05-07T08:11:14.356Z</time>
      </trkpt>
      <trkpt lat="47.76654" lon="2.36744">
        <ele>123</ele>
        <time>2017-05-07T08:11:15.367Z</time>
      </trkpt>
      <trkpt lat="47.76656" lon="2.36753">
        <ele>123</ele>
        <time>2017-05-07T08:11:16.371Z</time>
      </trkpt>
      <trkpt lat="47.76657" lon="2.36758">
        <ele>123</ele>
        <time>2017-05-07T08:11:17.397Z</time>
      </trkpt>
      <trkpt lat="47.76657" lon="2.36758">
        <ele>123</ele>
        <time>2017-05-07T08:11:18.403Z</time>
      </trkpt>
      <trkpt lat="47.7666" lon="2.36767">
        <ele>123</ele>
        <time>2017-05-07T08:11:19.403Z</time>
      </trkpt>
      <trkpt lat="47.76661" lon="2.36773">
        <ele>123</ele>
        <time>2017-05-07T08:11:20.397Z</time>
      </trkpt>
      <trkpt lat="47.76661" lon="2.36773">
        <ele>123</ele>
        <time>2017-05-07T08:11:21.403Z</time>
      </trkpt>
      <trkpt lat="47.76664" lon="2.36785">
        <ele>122</ele>
        <time>2017-05-07T08:11:22.397Z</time>
      </trkpt>
      <trkpt lat="47.76664" lon="2.36785">
        <ele>122</ele>
        <time>2017-05-07T08:11:23.403Z</time>
      </trkpt>
      <trkpt lat="47.76666" lon="2.36798">
        <ele>122</ele>
        <time>2017-05-07T08:11:24.396Z</time>
      </trkpt>
      <trkpt lat="47.76668" lon="2.36804">
        <ele>122</ele>
        <time>2017-05-07T08:11:25.356Z</time>
      </trkpt>
      <trkpt lat="47.76668" lon="2.36804">
        <ele>122</ele>
        <time>2017-05-07T08:11:26.363Z</time>
      </trkpt>
      <trkpt lat="47.76672" lon="2.36818">
        <ele>121</ele>
        <time>2017-05-07T08:11:27.373Z</time>
      </trkpt>
      <trkpt lat="47.76673" lon="2.36824">
        <ele>121</ele>
        <time>2017-05-07T08:11:28.361Z</time>
      </trkpt>
      <trkpt lat="47.76673" lon="2.36824">
        <ele>121</ele>
        <time>2017-05-07T08:11:29.369Z</time>
      </trkpt>
      <trkpt lat="47.76676" lon="2.36837">
        <ele>121</ele>
        <time>2017-05-07T08:11:30.372Z</time>
      </trkpt>
      <trkpt lat="47.76678" lon="2.36844">
        <ele>121</ele>
        <time>2017-05-07T08:11:31.398Z</time>
      </trkpt>
      <trkpt lat="47.76678" lon="2.36844">
        <ele>121</ele>
        <time>2017-05-07T08:11:32.400Z</time>
      </trkpt>
      <trkpt lat="47.76681" lon="2.36858">
        <ele>121</ele>
        <time>2017-05-07T08:11:33.364Z</time>
      </trkpt>
      <trkpt lat="47.76683" lon="2.36865">
        <ele>121</ele>
        <time>2017-05-07T08:11:34.375Z</time>
      </trkpt>
      <trkpt lat="47.76684" lon="2.36872">
        <ele>120</ele>
        <time>2017-05-07T08:11:35.373Z</time>
      </trkpt>
      <trkpt lat="47.76684" lon="2.36872">
        <ele>120</ele>
        <time>2017-05-07T08:11:36.400Z</time>
      </trkpt>
      <trkpt lat="47.76687" lon="2.36886">
        <ele>120</ele>
        <time>2017-05-07T08:11:37.400Z</time>
      </trkpt>
      <trkpt lat="47.76688" lon="2.36893">
        <ele>120</ele>
        <time>2017-05-07T08:11:38.396Z</time>
      </trkpt>
      <trkpt lat="47.76688" lon="2.36893">
        <ele>120</ele>
        <time>2017-05-07T08:11:39.357Z</time>
      </trkpt>
      <trkpt lat="47.76691" lon="2.36907">
        <ele>120</ele>
        <time>2017-05-07T08:11:40.364Z</time>
      </trkpt>
      <trkpt lat="47.76691" lon="2.36907">
        <ele>120</ele>
        <time>2017-05-07T08:11:41.372Z</time>
      </trkpt>
      <trkpt lat="47.76694" lon="2.3692">
        <ele>119</ele>
        <time>2017-05-07T08:11:42.400Z</time>
      </trkpt>
      <trkpt lat="47.76695" lon="2.36927">
        <ele>119</ele>
        <time>2017-05-07T08:11:43.395Z</time>
      </trkpt>
      <trkpt lat="47.76695" lon="2.36927">
        <ele>119</ele>
        <time>2017-05-07T08:11:44.402Z</time>
      </trkpt>
      <trkpt lat="47.76697" lon="2.36941">
        <ele>119</ele>
        <time>2017-05-07T08:11:45.362Z</time>
      </trkpt>
      <trkpt lat="47.76699" lon="2.36947">
        <ele>120</ele>
        <time>2017-05-07T08:11:46.368Z</time>
      </trkpt>
      <trkpt lat="47.76699" lon="2.36947">
        <ele>120</ele>
        <time>2017-05-07T08:11:47.375Z</time>
      </trkpt>
      <trkpt lat="47.76701" lon="2.3696">
        <ele>120</ele>
        <time>2017-05-07T08:11:48.373Z</time>
      </trkpt>
      <trkpt lat="47.76702" lon="2.36966">
        <ele>120</ele>
        <time>2017-05-07T08:11:49.360Z</time>
      </trkpt>
      <trkpt lat="47.76703" lon="2.36972">
        <ele>120</ele>
        <time>2017-05-07T08:11:50.397Z</time>
      </trkpt>
      <trkpt lat="47.76703" lon="2.36972">
        <ele>120</ele>
        <time>2017-05-07T08:11:51.357Z</time>
      </trkpt>
      <trkpt lat="47.76705" lon="2.36984">
        <ele>120</ele>
        <time>2017-05-07T08:11:52.364Z</time>
      </trkpt>
      <trkpt lat="47.76705" lon="2.36984">
        <ele>120</ele>
        <time>2017-05-07T08:11:53.406Z</time>
      </trkpt>
      <trkpt lat="47.76708" lon="2.36997">
        <ele>119</ele>
        <time>2017-05-07T08:11:54.359Z</time>
      </trkpt>
      <trkpt lat="47.76708" lon="2.36997">
        <ele>119</ele>
        <time>2017-05-07T08:11:55.368Z</time>
      </trkpt>
      <trkpt lat="47.76711" lon="2.3701">
        <ele>119</ele>
        <time>2017-05-07T08:11:56.368Z</time>
      </trkpt>
      <trkpt lat="47.76711" lon="2.3701">
        <ele>119</ele>
        <time>2017-05-07T08:11:57.401Z</time>
      </trkpt>
      <trkpt lat="47.76714" lon="2.37022">
        <ele>119</ele>
        <time>2017-05-07T08:11:58.403Z</time>
      </trkpt>
      <trkpt lat="47.76715" lon="2.37028">
        <ele>119</ele>
        <time>2017-05-07T08:11:59.387Z</time>
      </trkpt>
      <trkpt lat="47.76715" lon="2.37028">
        <ele>119</ele>
        <time>2017-05-07T08:12:00.392Z</time>
      </trkpt>
      <trkpt lat="47.76719" lon="2.37041">
        <ele>119</ele>
        <time>2017-05-07T08:12:01.358Z</time>
      </trkpt>
      <trkpt lat="47.76719" lon="2.37041">
        <ele>119</ele>
        <time>2017-05-07T08:12:02.364Z</time>
      </trkpt>
      <trkpt lat="47.76723" lon="2.37056">
        <ele>118</ele>
        <time>2017-05-07T08:12:03.369Z</time>
      </trkpt>
      <trkpt lat="47.76725" lon="2.37064">
        <ele>118</ele>
        <time>2017-05-07T08:12:04.373Z</time>
      </trkpt>
      <trkpt lat="47.76725" lon="2.37064">
        <ele>118</ele>
        <time>2017-05-07T08:12:05.401Z</time>
      </trkpt>
      <trkpt lat="47.7673" lon="2.3708">
        <ele>117</ele>
        <time>2017-05-07T08:12:06.397Z</time>
      </trkpt>
      <trkpt lat="47.7673" lon="2.3708">
        <ele>117</ele>
        <time>2017-05-07T08:12:07.400Z</time>
      </trkpt>
      <trkpt lat="47.76734" lon="2.37098">
        <ele>117</ele>
        <time>2017-05-07T08:12:08.397Z</time>
      </trkpt>
      <trkpt lat="47.76734" lon="2.37098">
        <ele>117</ele>
        <time>2017-05-07T08:12:09.402Z</time>
      </trkpt>
      <trkpt lat="47.76737" lon="2.37115">
        <ele>116</ele>
        <time>2017-05-07T08:12:10.397Z</time>
      </trkpt>
      <trkpt lat="47.76737" lon="2.37115">
        <ele>116</ele>
        <time>2017-05-07T08:12:11.401Z</time>
      </trkpt>
      <trkpt lat="47.76741" lon="2.37132">
        <ele>116</ele>
        <time>2017-05-07T08:12:12.404Z</time>
      </trkpt>
      <trkpt lat="47.76743" lon="2.3714">
        <ele>116</ele>
        <time>2017-05-07T08:12:13.363Z</time>
      </trkpt>
      <trkpt lat="47.76743" lon="2.3714">
        <ele>116</ele>
        <time>2017-05-07T08:12:14.373Z</time>
      </trkpt>
      <trkpt lat="47.76747" lon="2.37156">
        <ele>115</ele>
        <time>2017-05-07T08:12:15.375Z</time>
      </trkpt>
      <trkpt lat="47.76748" lon="2.37164">
        <ele>115</ele>
        <time>2017-05-07T08:12:16.365Z</time>
      </trkpt>
      <trkpt lat="47.76748" lon="2.37164">
        <ele>115</ele>
        <time>2017-05-07T08:12:17.375Z</time>
      </trkpt>
      <trkpt lat="47.76752" lon="2.37177">
        <ele>115</ele>
        <time>2017-05-07T08:12:18.359Z</time>
      </trkpt>
      <trkpt lat="47.76752" lon="2.37177">
        <ele>115</ele>
        <time>2017-05-07T08:12:19.367Z</time>
      </trkpt>
      <trkpt lat="47.76755" lon="2.37188">
        <ele>115</ele>
        <time>2017-05-07T08:12:20.403Z</time>
      </trkpt>
      <trkpt lat="47.76756" lon="2.37194">
        <ele>115</ele>
        <time>2017-05-07T08:12:21.410Z</time>
      </trkpt>
      <trkpt lat="47.76757" lon="2.37201">
        <ele>115</ele>
        <time>2017-05-07T08:12:22.397Z</time>
      </trkpt>
      <trkpt lat="47.76757" lon="2.37201">
        <ele>115</ele>
        <time>2017-05-07T08:12:23.418Z</time>
      </trkpt>
      <trkpt lat="47.7676" lon="2.37213">
        <ele>115</ele>
        <time>2017-05-07T08:12:24.398Z</time>
      </trkpt>
      <trkpt lat="47.7676" lon="2.37213">
        <ele>115</ele>
        <time>2017-05-07T08:12:25.404Z</time>
      </trkpt>
      <trkpt lat="47.76764" lon="2.37227">
        <ele>115</ele>
        <time>2017-05-07T08:12:26.361Z</time>
      </trkpt>
      <trkpt lat="47.76764" lon="2.37227">
        <ele>115</ele>
        <time>2017-05-07T08:12:27.368Z</time>
      </trkpt>
      <trkpt lat="47.76767" lon="2.3724">
        <ele>115</ele>
        <time>2017-05-07T08:12:28.396Z</time>
      </trkpt>
      <trkpt lat="47.76767" lon="2.3724">
        <ele>115</ele>
        <time>2017-05-07T08:12:29.401Z</time>
      </trkpt>
      <trkpt lat="47.7677" lon="2.37253">
        <ele>115</ele>
        <time>2017-05-07T08:12:30.397Z</time>
      </trkpt>
      <trkpt lat="47.7677" lon="2.37253">
        <ele>115</ele>
        <time>2017-05-07T08:12:31.359Z</time>
      </trkpt>
      <trkpt lat="47.76773" lon="2.37267">
        <ele>115</ele>
        <time>2017-05-07T08:12:32.367Z</time>
      </trkpt>
      <trkpt lat="47.76773" lon="2.37267">
        <ele>115</ele>
        <time>2017-05-07T08:12:33.377Z</time>
      </trkpt>
      <trkpt lat="47.76776" lon="2.37281">
        <ele>115</ele>
        <time>2017-05-07T08:12:34.393Z</time>
      </trkpt>
      <trkpt lat="47.76776" lon="2.37281">
        <ele>115</ele>
        <time>2017-05-07T08:12:35.373Z</time>
      </trkpt>
      <trkpt lat="47.76778" lon="2.37295">
        <ele>116</ele>
        <time>2017-05-07T08:12:36.397Z</time>
      </trkpt>
      <trkpt lat="47.76778" lon="2.37295">
        <ele>116</ele>
        <time>2017-05-07T08:12:37.357Z</time>
      </trkpt>
      <trkpt lat="47.7678" lon="2.37306">
        <ele>116</ele>
        <time>2017-05-07T08:12:38.399Z</time>
      </trkpt>
      <trkpt lat="47.7678" lon="2.37306">
        <ele>116</ele>
        <time>2017-05-07T08:12:39.401Z</time>
      </trkpt>
      <trkpt lat="47.76783" lon="2.37319">
        <ele>116</ele>
        <time>2017-05-07T08:12:40.398Z</time>
      </trkpt>
      <trkpt lat="47.76783" lon="2.37319">
        <ele>116</ele>
        <time>2017-05-07T08:12:41.403Z</time>
      </trkpt>
      <trkpt lat="47.76786" lon="2.3733">
        <ele>116</ele>
        <time>2017-05-07T08:12:42.400Z</time>
      </trkpt>
      <trkpt lat="47.76789" lon="2.37335">
        <ele>117</ele>
        <time>2017-05-07T08:12:43.398Z</time>
      </trkpt>
      <trkpt lat="47.76789" lon="2.37335">
        <ele>117</ele>
        <time>2017-05-07T08:12:44.404Z</time>
      </trkpt>
      <trkpt lat="47.76793" lon="2.37344">
        <ele>117</ele>
        <time>2017-05-07T08:12:45.399Z</time>
      </trkpt>
      <trkpt lat="47.76795" lon="2.37349">
        <ele>117</ele>
        <time>2017-05-07T08:12:46.379Z</time>
      </trkpt>
      <trkpt lat="47.76797" lon="2.37354">
        <ele>117</ele>
        <time>2017-05-07T08:12:47.395Z</time>
      </trkpt>
      <trkpt lat="47.76797" lon="2.37354">
        <ele>117</ele>
        <time>2017-05-07T08:12:48.401Z</time>
      </trkpt>
      <trkpt lat="47.768" lon="2.37364">
        <ele>117</ele>
        <time>2017-05-07T08:12:49.395Z</time>
      </trkpt>
      <trkpt lat="47.768" lon="2.37364">
        <ele>117</ele>
        <time>2017-05-07T08:12:50.402Z</time>
      </trkpt>
      <trkpt lat="47.76805" lon="2.37372">
        <ele>117</ele>
        <time>2017-05-07T08:12:51.405Z</time>
      </trkpt>
      <trkpt lat="47.76809" lon="2.37374">
        <ele>118</ele>
        <time>2017-05-07T08:12:52.379Z</time>
      </trkpt>
      <trkpt lat="47.76809" lon="2.37374">
        <ele>118</ele>
        <time>2017-05-07T08:12:53.401Z</time>
      </trkpt>
      <trkpt lat="47.76816" lon="2.37374">
        <ele>118</ele>
        <time>2017-05-07T08:12:54.402Z</time>
      </trkpt>
      <trkpt lat="47.7682" lon="2.37372">
        <ele>118</ele>
        <time>2017-05-07T08:12:55.400Z</time>
      </trkpt>
      <trkpt lat="47.7682" lon="2.37372">
        <ele>118</ele>
        <time>2017-05-07T08:12:56.400Z</time>
      </trkpt>
      <trkpt lat="47.76831" lon="2.37368">
        <ele>118</ele>
        <time>2017-05-07T08:12:57.396Z</time>
      </trkpt>
      <trkpt lat="47.76831" lon="2.37368">
        <ele>118</ele>
        <time>2017-05-07T08:12:58.399Z</time>
      </trkpt>
      <trkpt lat="47.7684" lon="2.37364">
        <ele>118</ele>
        <time>2017-05-07T08:12:59.395Z</time>
      </trkpt>
      <trkpt lat="47.7684" lon="2.37364">
        <ele>118</ele>
        <time>2017-05-07T08:13:00.373Z</time>
      </trkpt>
      <trkpt lat="47.7685" lon="2.3736">
        <ele>118</ele>
        <time>2017-05-07T08:13:01.403Z</time>
      </trkpt>
      <trkpt lat="47.76855" lon="2.37358">
        <ele>118</ele>
        <time>2017-05-07T08:13:02.396Z</time>
      </trkpt>
      <trkpt lat="47.76855" lon="2.37358">
        <ele>118</ele>
        <time>2017-05-07T08:13:03.406Z</time>
      </trkpt>
      <trkpt lat="47.76865" lon="2.37353">
        <ele>119</ele>
        <time>2017-05-07T08:13:04.395Z</time>
      </trkpt>
      <trkpt lat="47.76865" lon="2.37353">
        <ele>119</ele>
        <time>2017-05-07T08:13:05.401Z</time>
      </trkpt>
      <trkpt lat="47.76875" lon="2.37347">
        <ele>119</ele>
        <time>2017-05-07T08:13:06.395Z</time>
      </trkpt>
      <trkpt lat="47.76875" lon="2.37347">
        <ele>119</ele>
        <time>2017-05-07T08:13:07.356Z</time>
      </trkpt>
      <trkpt lat="47.76886" lon="2.37343">
        <ele>120</ele>
        <time>2017-05-07T08:13:08.372Z</time>
      </trkpt>
      <trkpt lat="47.76891" lon="2.3734">
        <ele>120</ele>
        <time>2017-05-07T08:13:09.399Z</time>
      </trkpt>
      <trkpt lat="47.76891" lon="2.3734">
        <ele>120</ele>
        <time>2017-05-07T08:13:10.402Z</time>
      </trkpt>
      <trkpt lat="47.769" lon="2.37335">
        <ele>121</ele>
        <time>2017-05-07T08:13:11.384Z</time>
      </trkpt>
      <trkpt lat="47.769" lon="2.37335">
        <ele>121</ele>
        <time>2017-05-07T08:13:12.393Z</time>
      </trkpt>
      <trkpt lat="47.7691" lon="2.37331">
        <ele>121</ele>
        <time>2017-05-07T08:13:13.358Z</time>
      </trkpt>
      <trkpt lat="47.7691" lon="2.37331">
        <ele>121</ele>
        <time>2017-05-07T08:13:14.364Z</time>
      </trkpt>
      <trkpt lat="47.7692" lon="2.37326">
        <ele>121</ele>
        <time>2017-05-07T08:13:15.371Z</time>
      </trkpt>
      <trkpt lat="47.7692" lon="2.37326">
        <ele>121</ele>
        <time>2017-05-07T08:13:16.380Z</time>
      </trkpt>
      <trkpt lat="47.7693" lon="2.37321">
        <ele>121</ele>
        <time>2017-05-07T08:13:17.396Z</time>
      </trkpt>
      <trkpt lat="47.7693" lon="2.37321">
        <ele>121</ele>
        <time>2017-05-07T08:13:18.356Z</time>
      </trkpt>
      <trkpt lat="47.76941" lon="2.37316">
        <ele>121</ele>
        <time>2017-05-07T08:13:19.376Z</time>
      </trkpt>
      <trkpt lat="47.76941" lon="2.37316">
        <ele>121</ele>
        <time>2017-05-07T08:13:20.402Z</time>
      </trkpt>
      <trkpt lat="47.76951" lon="2.3731">
        <ele>121</ele>
        <time>2017-05-07T08:13:21.398Z</time>
      </trkpt>
      <trkpt lat="47.76951" lon="2.3731">
        <ele>121</ele>
        <time>2017-05-07T08:13:22.402Z</time>
      </trkpt>
      <trkpt lat="47.76962" lon="2.37305">
        <ele>121</ele>
        <time>2017-05-07T08:13:23.397Z</time>
      </trkpt>
      <trkpt lat="47.76962" lon="2.37305">
        <ele>121</ele>
        <time>2017-05-07T08:13:24.403Z</time>
      </trkpt>
      <trkpt lat="47.76974" lon="2.373">
        <ele>122</ele>
        <time>2017-05-07T08:13:25.397Z</time>
      </trkpt>
      <trkpt lat="47.76974" lon="2.373">
        <ele>122</ele>
        <time>2017-05-07T08:13:26.403Z</time>
      </trkpt>
      <trkpt lat="47.76985" lon="2.37295">
        <ele>122</ele>
        <time>2017-05-07T08:13:27.401Z</time>
      </trkpt>
      <trkpt lat="47.76991" lon="2.37293">
        <ele>122</ele>
        <time>2017-05-07T08:13:28.380Z</time>
      </trkpt>
      <trkpt lat="47.76991" lon="2.37293">
        <ele>122</ele>
        <time>2017-05-07T08:13:29.401Z</time>
      </trkpt>
      <trkpt lat="47.77002" lon="2.37288">
        <ele>122</ele>
        <time>2017-05-07T08:13:30.364Z</time>
      </trkpt>
      <trkpt lat="47.77007" lon="2.37286">
        <ele>122</ele>
        <time>2017-05-07T08:13:31.399Z</time>
      </trkpt>
      <trkpt lat="47.77007" lon="2.37286">
        <ele>122</ele>
        <time>2017-05-07T08:13:32.401Z</time>
      </trkpt>
      <trkpt lat="47.77018" lon="2.3728">
        <ele>122</ele>
        <time>2017-05-07T08:13:33.401Z</time>
      </trkpt>
      <trkpt lat="47.77024" lon="2.37277">
        <ele>122</ele>
        <time>2017-05-07T08:13:34.397Z</time>
      </trkpt>
      <trkpt lat="47.77024" lon="2.37277">
        <ele>122</ele>
        <time>2017-05-07T08:13:35.400Z</time>
      </trkpt>
      <trkpt lat="47.77035" lon="2.37272">
        <ele>122</ele>
        <time>2017-05-07T08:13:36.402Z</time>
      </trkpt>
      <trkpt lat="47.77041" lon="2.37269">
        <ele>122</ele>
        <time>2017-05-07T08:13:37.380Z</time>
      </trkpt>
      <trkpt lat="47.77046" lon="2.37266">
        <ele>122</ele>
        <time>2017-05-07T08:13:38.377Z</time>
      </trkpt>
      <trkpt lat="47.77052" lon="2.37263">
        <ele>122</ele>
        <time>2017-05-07T08:13:39.397Z</time>
      </trkpt>
      <trkpt lat="47.77052" lon="2.37263">
        <ele>122</ele>
        <time>2017-05-07T08:13:40.437Z</time>
      </trkpt>
      <trkpt lat="47.77063" lon="2.37257">
        <ele>122</ele>
        <time>2017-05-07T08:13:41.396Z</time>
      </trkpt>
      <trkpt lat="47.77063" lon="2.37257">
        <ele>122</ele>
        <time>2017-05-07T08:13:42.401Z</time>
      </trkpt>
      <trkpt lat="47.77073" lon="2.37252">
        <ele>122</ele>
        <time>2017-05-07T08:13:43.398Z</time>
      </trkpt>
      <trkpt lat="47.77073" lon="2.37252">
        <ele>122</ele>
        <time>2017-05-07T08:13:44.401Z</time>
      </trkpt>
      <trkpt lat="47.77084" lon="2.37247">
        <ele>121</ele>
        <time>2017-05-07T08:13:45.379Z</time>
      </trkpt>
      <trkpt lat="47.77089" lon="2.37244">
        <ele>121</ele>
        <time>2017-05-07T08:13:46.395Z</time>
      </trkpt>
      <trkpt lat="47.77089" lon="2.37244">
        <ele>121</ele>
        <time>2017-05-07T08:13:47.402Z</time>
      </trkpt>
      <trkpt lat="47.77099" lon="2.37239">
        <ele>121</ele>
        <time>2017-05-07T08:13:48.397Z</time>
      </trkpt>
      <trkpt lat="47.77099" lon="2.37239">
        <ele>121</ele>
        <time>2017-05-07T08:13:49.402Z</time>
      </trkpt>
      <trkpt lat="47.77109" lon="2.37234">
        <ele>121</ele>
        <time>2017-05-07T08:13:50.403Z</time>
      </trkpt>
      <trkpt lat="47.77115" lon="2.37232">
        <ele>121</ele>
        <time>2017-05-07T08:13:51.360Z</time>
      </trkpt>
      <trkpt lat="47.7712" lon="2.37229">
        <ele>121</ele>
        <time>2017-05-07T08:13:52.372Z</time>
      </trkpt>
      <trkpt lat="47.7712" lon="2.37229">
        <ele>121</ele>
        <time>2017-05-07T08:13:53.405Z</time>
      </trkpt>
      <trkpt lat="47.7713" lon="2.37224">
        <ele>120</ele>
        <time>2017-05-07T08:13:54.356Z</time>
      </trkpt>
      <trkpt lat="47.7713" lon="2.37224">
        <ele>120</ele>
        <time>2017-05-07T08:13:55.370Z</time>
      </trkpt>
      <trkpt lat="47.7714" lon="2.3722">
        <ele>120</ele>
        <time>2017-05-07T08:13:56.373Z</time>
      </trkpt>
      <trkpt lat="47.7714" lon="2.3722">
        <ele>120</ele>
        <time>2017-05-07T08:13:57.404Z</time>
      </trkpt>
      <trkpt lat="47.77149" lon="2.37215">
        <ele>120</ele>
        <time>2017-05-07T08:13:58.402Z</time>
      </trkpt>
      <trkpt lat="47.77154" lon="2.37213">
        <ele>120</ele>
        <time>2017-05-07T08:13:59.396Z</time>
      </trkpt>
      <trkpt lat="47.77154" lon="2.37213">
        <ele>120</ele>
        <time>2017-05-07T08:14:00.402Z</time>
      </trkpt>
      <trkpt lat="47.77163" lon="2.37209">
        <ele>119</ele>
        <time>2017-05-07T08:14:01.397Z</time>
      </trkpt>
      <trkpt lat="47.77163" lon="2.37209">
        <ele>119</ele>
        <time>2017-05-07T08:14:02.403Z</time>
      </trkpt>
      <trkpt lat="47.77168" lon="2.37206">
        <ele>119</ele>
        <time>2017-05-07T08:14:03.401Z</time>
      </trkpt>
      <trkpt lat="47.77168" lon="2.37206">
        <ele>119</ele>
        <time>2017-05-07T08:14:04.403Z</time>
      </trkpt>
      <trkpt lat="47.77171" lon="2.37204">
        <ele>119</ele>
        <time>2017-05-07T08:14:05.381Z</time>
      </trkpt>
      <trkpt lat="47.77171" lon="2.37201">
        <ele>118</ele>
        <time>2017-05-07T08:14:06.396Z</time>
      </trkpt>
      <trkpt lat="47.77171" lon="2.37201">
        <ele>118</ele>
        <time>2017-05-07T08:14:07.399Z</time>
      </trkpt>
      <trkpt lat="47.77168" lon="2.37196">
        <ele>118</ele>
        <time>2017-05-07T08:14:08.396Z</time>
      </trkpt>
      <trkpt lat="47.77168" lon="2.37196">
        <ele>118</ele>
        <time>2017-05-07T08:14:09.406Z</time>
      </trkpt>
      <trkpt lat="47.77162" lon="2.3719">
        <ele>118</ele>
        <time>2017-05-07T08:14:10.393Z</time>
      </trkpt>
      <trkpt lat="47.77162" lon="2.3719">
        <ele>118</ele>
        <time>2017-05-07T08:14:11.401Z</time>
      </trkpt>
      <trkpt lat="47.77155" lon="2.3718">
        <ele>117</ele>
        <time>2017-05-07T08:14:12.396Z</time>
      </trkpt>
      <trkpt lat="47.77155" lon="2.3718">
        <ele>117</ele>
        <time>2017-05-07T08:14:13.402Z</time>
      </trkpt>
      <trkpt lat="47.77146" lon="2.37167">
        <ele>117</ele>
        <time>2017-05-07T08:14:14.396Z</time>
      </trkpt>
      <trkpt lat="47.77146" lon="2.37167">
        <ele>117</ele>
        <time>2017-05-07T08:14:15.403Z</time>
      </trkpt>
      <trkpt lat="47.77137" lon="2.37156">
        <ele>116</ele>
        <time>2017-05-07T08:14:16.359Z</time>
      </trkpt>
      <trkpt lat="47.77137" lon="2.37156">
        <ele>116</ele>
        <time>2017-05-07T08:14:17.366Z</time>
      </trkpt>
      <trkpt lat="47.77128" lon="2.37145">
        <ele>116</ele>
        <time>2017-05-07T08:14:18.373Z</time>
      </trkpt>
      <trkpt lat="47.77128" lon="2.37145">
        <ele>116</ele>
        <time>2017-05-07T08:14:19.381Z</time>
      </trkpt>
      <trkpt lat="47.77119" lon="2.37132">
        <ele>115</ele>
        <time>2017-05-07T08:14:20.355Z</time>
      </trkpt>
      <trkpt lat="47.77119" lon="2.37132">
        <ele>115</ele>
        <time>2017-05-07T08:14:21.359Z</time>
      </trkpt>
      <trkpt lat="47.77112" lon="2.37118">
        <ele>115</ele>
        <time>2017-05-07T08:14:22.396Z</time>
      </trkpt>
      <trkpt lat="47.77112" lon="2.37118">
        <ele>115</ele>
        <time>2017-05-07T08:14:23.405Z</time>
      </trkpt>
      <trkpt lat="47.77107" lon="2.37104">
        <ele>115</ele>
        <time>2017-05-07T08:14:24.404Z</time>
      </trkpt>
      <trkpt lat="47.77104" lon="2.37098">
        <ele>115</ele>
        <time>2017-05-07T08:14:25.395Z</time>
      </trkpt>
      <trkpt lat="47.77104" lon="2.37098">
        <ele>115</ele>
        <time>2017-05-07T08:14:26.402Z</time>
      </trkpt>
      <trkpt lat="47.77096" lon="2.37086">
        <ele>115</ele>
        <time>2017-05-07T08:14:27.364Z</time>
      </trkpt>
      <trkpt lat="47.77093" lon="2.37081">
        <ele>115</ele>
        <time>2017-05-07T08:14:28.397Z</time>
      </trkpt>
      <trkpt lat="47.77093" lon="2.37081">
        <ele>115</ele>
        <time>2017-05-07T08:14:29.402Z</time>
      </trkpt>
      <trkpt lat="47.77088" lon="2.3707">
        <ele>115</ele>
        <time>2017-05-07T08:14:30.396Z</time>
      </trkpt>
      <trkpt lat="47.77088" lon="2.3707">
        <ele>115</ele>
        <time>2017-05-07T08:14:31.402Z</time>
      </trkpt>
      <trkpt lat="47.77085" lon="2.37059">
        <ele>115</ele>
        <time>2017-05-07T08:14:32.396Z</time>
      </trkpt>
      <trkpt lat="47.77085" lon="2.37059">
        <ele>115</ele>
        <time>2017-05-07T08:14:33.356Z</time>
      </trkpt>
      <trkpt lat="47.77081" lon="2.37047">
        <ele>115</ele>
        <time>2017-05-07T08:14:34.396Z</time>
      </trkpt>
      <trkpt lat="47.77081" lon="2.37047">
        <ele>115</ele>
        <time>2017-05-07T08:14:35.393Z</time>
      </trkpt>
      <trkpt lat="47.77078" lon="2.37035">
        <ele>115</ele>
        <time>2017-05-07T08:14:36.364Z</time>
      </trkpt>
      <trkpt lat="47.77078" lon="2.37029">
        <ele>115</ele>
        <time>2017-05-07T08:14:37.374Z</time>
      </trkpt>
      <trkpt lat="47.77078" lon="2.37029">
        <ele>115</ele>
        <time>2017-05-07T08:14:38.361Z</time>
      </trkpt>
      <trkpt lat="47.77076" lon="2.37016">
        <ele>115</ele>
        <time>2017-05-07T08:14:39.401Z</time>
      </trkpt>
      <trkpt lat="47.77075" lon="2.37009">
        <ele>115</ele>
        <time>2017-05-07T08:14:40.395Z</time>
      </trkpt>
      <trkpt lat="47.77075" lon="2.37009">
        <ele>115</ele>
        <time>2017-05-07T08:14:41.401Z</time>
      </trkpt>
      <trkpt lat="47.77073" lon="2.36995">
        <ele>115</ele>
        <time>2017-05-07T08:14:42.396Z</time>
      </trkpt>
      <trkpt lat="47.77073" lon="2.36995">
        <ele>115</ele>
        <time>2017-05-07T08:14:43.399Z</time>
      </trkpt>
      <trkpt lat="47.77072" lon="2.36985">
        <ele>115</ele>
        <time>2017-05-07T08:14:44.370Z</time>
      </trkpt>
      <trkpt lat="47.77072" lon="2.36982">
        <ele>116</ele>
        <time>2017-05-07T08:14:45.368Z</time>
      </trkpt>
      <trkpt lat="47.77073" lon="2.36979">
        <ele>116</ele>
        <time>2017-05-07T08:14:46.374Z</time>
      </trkpt>
      <trkpt lat="47.77073" lon="2.36979">
        <ele>116</ele>
        <time>2017-05-07T08:14:47.402Z</time>
      </trkpt>
      <trkpt lat="47.77072" lon="2.36976">
        <ele>116</ele>
        <time>2017-05-07T08:14:48.397Z</time>
      </trkpt>
      <trkpt lat="47.77072" lon="2.36976">
        <ele>116</ele>
        <time>2017-05-07T08:14:49.401Z</time>
      </trkpt>
      <trkpt lat="47.77072" lon="2.36976">
        <ele>116</ele>
        <time>2017-05-07T08:14:50.397Z</time>
      </trkpt>
      <trkpt lat="47.77072" lon="2.36976">
        <ele>116</ele>
        <time>2017-05-07T08:14:51.406Z</time>
      </trkpt>
      <trkpt lat="47.77072" lon="2.36972">
        <ele>117</ele>
        <time>2017-05-07T08:14:52.357Z</time>
      </trkpt>
      <trkpt lat="47.77072" lon="2.36972">
        <ele>117</ele>
        <time>2017-05-07T08:14:53.389Z</time>
      </trkpt>
      <trkpt lat="47.77072" lon="2.36967">
        <ele>117</ele>
        <time>2017-05-07T08:14:54.394Z</time>
      </trkpt>
      <trkpt lat="47.77072" lon="2.36967">
        <ele>117</ele>
        <time>2017-05-07T08:14:55.389Z</time>
      </trkpt>
      <trkpt lat="47.77072" lon="2.36962">
        <ele>117</ele>
        <time>2017-05-07T08:14:56.356Z</time>
      </trkpt>
      <trkpt lat="47.77072" lon="2.36962">
        <ele>117</ele>
        <time>2017-05-07T08:14:57.388Z</time>
      </trkpt>
      <trkpt lat="47.77071" lon="2.36956">
        <ele>117</ele>
        <time>2017-05-07T08:14:58.394Z</time>
      </trkpt>
      <trkpt lat="47.77071" lon="2.36956">
        <ele>117</ele>
        <time>2017-05-07T08:14:59.370Z</time>
      </trkpt>
      <trkpt lat="47.77071" lon="2.36951">
        <ele>117</ele>
        <time>2017-05-07T08:15:00.355Z</time>
      </trkpt>
      <trkpt lat="47.77071" lon="2.36949">
        <ele>117</ele>
        <time>2017-05-07T08:15:01.355Z</time>
      </trkpt>
      <trkpt lat="47.77071" lon="2.36946">
        <ele>117</ele>
        <time>2017-05-07T08:15:02.357Z</time>
      </trkpt>
      <trkpt lat="47.77071" lon="2.36944">
        <ele>117</ele>
        <time>2017-05-07T08:15:03.393Z</time>
      </trkpt>
      <trkpt lat="47.77071" lon="2.36944">
        <ele>117</ele>
        <time>2017-05-07T08:15:04.389Z</time>
      </trkpt>
      <trkpt lat="47.7707" lon="2.36938">
        <ele>117</ele>
        <time>2017-05-07T08:15:05.394Z</time>
      </trkpt>
      <trkpt lat="47.7707" lon="2.36938">
        <ele>117</ele>
        <time>2017-05-07T08:15:06.360Z</time>
      </trkpt>
      <trkpt lat="47.7707" lon="2.36931">
        <ele>117</ele>
        <time>2017-05-07T08:15:07.360Z</time>
      </trkpt>
      <trkpt lat="47.7707" lon="2.36931">
        <ele>117</ele>
        <time>2017-05-07T08:15:08.391Z</time>
      </trkpt>
      <trkpt lat="47.7707" lon="2.36923">
        <ele>117</ele>
        <time>2017-05-07T08:15:09.355Z</time>
      </trkpt>
      <trkpt lat="47.7707" lon="2.36923">
        <ele>117</ele>
        <time>2017-05-07T08:15:10.388Z</time>
      </trkpt>
      <trkpt lat="47.7707" lon="2.36915">
        <ele>117</ele>
        <time>2017-05-07T08:15:11.393Z</time>
      </trkpt>
      <trkpt lat="47.7707" lon="2.36915">
        <ele>117</ele>
        <time>2017-05-07T08:15:12.389Z</time>
      </trkpt>
      <trkpt lat="47.7707" lon="2.36908">
        <ele>117</ele>
        <time>2017-05-07T08:15:13.359Z</time>
      </trkpt>
      <trkpt lat="47.7707" lon="2.36905">
        <ele>117</ele>
        <time>2017-05-07T08:15:14.357Z</time>
      </trkpt>
      <trkpt lat="47.7707" lon="2.36905">
        <ele>117</ele>
        <time>2017-05-07T08:15:15.389Z</time>
      </trkpt>
      <trkpt lat="47.77069" lon="2.36897">
        <ele>117</ele>
        <time>2017-05-07T08:15:16.355Z</time>
      </trkpt>
      <trkpt lat="47.77069" lon="2.36897">
        <ele>117</ele>
        <time>2017-05-07T08:15:17.389Z</time>
      </trkpt>
      <trkpt lat="47.7707" lon="2.36888">
        <ele>118</ele>
        <time>2017-05-07T08:15:18.355Z</time>
      </trkpt>
      <trkpt lat="47.7707" lon="2.36883">
        <ele>118</ele>
        <time>2017-05-07T08:15:19.355Z</time>
      </trkpt>
      <trkpt lat="47.7707" lon="2.36883">
        <ele>118</ele>
        <time>2017-05-07T08:15:20.390Z</time>
      </trkpt>
      <trkpt lat="47.77069" lon="2.36873">
        <ele>118</ele>
        <time>2017-05-07T08:15:21.364Z</time>
      </trkpt>
      <trkpt lat="47.77069" lon="2.36867">
        <ele>118</ele>
        <time>2017-05-07T08:15:22.356Z</time>
      </trkpt>
      <trkpt lat="47.77069" lon="2.36867">
        <ele>118</ele>
        <time>2017-05-07T08:15:23.394Z</time>
      </trkpt>
      <trkpt lat="47.77069" lon="2.36857">
        <ele>118</ele>
        <time>2017-05-07T08:15:24.359Z</time>
      </trkpt>
      <trkpt lat="47.77069" lon="2.36857">
        <ele>118</ele>
        <time>2017-05-07T08:15:25.389Z</time>
      </trkpt>
      <trkpt lat="47.77071" lon="2.36847">
        <ele>119</ele>
        <time>2017-05-07T08:15:26.356Z</time>
      </trkpt>
      <trkpt lat="47.77071" lon="2.36847">
        <ele>119</ele>
        <time>2017-05-07T08:15:27.389Z</time>
      </trkpt>
      <trkpt lat="47.77072" lon="2.36836">
        <ele>120</ele>
        <time>2017-05-07T08:15:28.356Z</time>
      </trkpt>
      <trkpt lat="47.77072" lon="2.36836">
        <ele>120</ele>
        <time>2017-05-07T08:15:29.394Z</time>
      </trkpt>
      <trkpt lat="47.77071" lon="2.36824">
        <ele>120</ele>
        <time>2017-05-07T08:15:30.358Z</time>
      </trkpt>
      <trkpt lat="47.7707" lon="2.36819">
        <ele>120</ele>
        <time>2017-05-07T08:15:31.394Z</time>
      </trkpt>
      <trkpt lat="47.7707" lon="2.36819">
        <ele>120</ele>
        <time>2017-05-07T08:15:32.391Z</time>
      </trkpt>
      <trkpt lat="47.77068" lon="2.36807">
        <ele>119</ele>
        <time>2017-05-07T08:15:33.394Z</time>
      </trkpt>
      <trkpt lat="47.77067" lon="2.36801">
        <ele>119</ele>
        <time>2017-05-07T08:15:34.394Z</time>
      </trkpt>
      <trkpt lat="47.77067" lon="2.36801">
        <ele>119</ele>
        <time>2017-05-07T08:15:35.389Z</time>
      </trkpt>
      <trkpt lat="47.77065" lon="2.3679">
        <ele>120</ele>
        <time>2017-05-07T08:15:36.392Z</time>
      </trkpt>
      <trkpt lat="47.77065" lon="2.3679">
        <ele>120</ele>
        <time>2017-05-07T08:15:37.389Z</time>
      </trkpt>
      <trkpt lat="47.77063" lon="2.36777">
        <ele>120</ele>
        <time>2017-05-07T08:15:38.356Z</time>
      </trkpt>
      <trkpt lat="47.77063" lon="2.36777">
        <ele>120</ele>
        <time>2017-05-07T08:15:39.389Z</time>
      </trkpt>
      <trkpt lat="47.7706" lon="2.36765">
        <ele>120</ele>
        <time>2017-05-07T08:15:40.356Z</time>
      </trkpt>
      <trkpt lat="47.7706" lon="2.36765">
        <ele>120</ele>
        <time>2017-05-07T08:15:41.392Z</time>
      </trkpt>
      <trkpt lat="47.77058" lon="2.36755">
        <ele>120</ele>
        <time>2017-05-07T08:15:42.355Z</time>
      </trkpt>
      <trkpt lat="47.77058" lon="2.36755">
        <ele>120</ele>
        <time>2017-05-07T08:15:43.389Z</time>
      </trkpt>
      <trkpt lat="47.77055" lon="2.36744">
        <ele>120</ele>
        <time>2017-05-07T08:15:44.356Z</time>
      </trkpt>
      <trkpt lat="47.77055" lon="2.36744">
        <ele>120</ele>
        <time>2017-05-07T08:15:45.388Z</time>
      </trkpt>
      <trkpt lat="47.77053" lon="2.36733">
        <ele>120</ele>
        <time>2017-05-07T08:15:46.385Z</time>
      </trkpt>
      <trkpt lat="47.77053" lon="2.36733">
        <ele>120</ele>
        <time>2017-05-07T08:15:47.364Z</time>
      </trkpt>
      <trkpt lat="47.7705" lon="2.36722">
        <ele>120</ele>
        <time>2017-05-07T08:15:48.355Z</time>
      </trkpt>
      <trkpt lat="47.7705" lon="2.36722">
        <ele>120</ele>
        <time>2017-05-07T08:15:49.391Z</time>
      </trkpt>
      <trkpt lat="47.77048" lon="2.3671">
        <ele>119</ele>
        <time>2017-05-07T08:15:50.356Z</time>
      </trkpt>
      <trkpt lat="47.77048" lon="2.3671">
        <ele>119</ele>
        <time>2017-05-07T08:15:51.362Z</time>
      </trkpt>
      <trkpt lat="47.77046" lon="2.36699">
        <ele>120</ele>
        <time>2017-05-07T08:15:52.363Z</time>
      </trkpt>
      <trkpt lat="47.77045" lon="2.36692">
        <ele>120</ele>
        <time>2017-05-07T08:15:53.355Z</time>
      </trkpt>
      <trkpt lat="47.77045" lon="2.36692">
        <ele>120</ele>
        <time>2017-05-07T08:15:54.389Z</time>
      </trkpt>
      <trkpt lat="47.77043" lon="2.36681">
        <ele>119</ele>
        <time>2017-05-07T08:15:55.355Z</time>
      </trkpt>
      <trkpt lat="47.77043" lon="2.36681">
        <ele>119</ele>
        <time>2017-05-07T08:15:56.390Z</time>
      </trkpt>
      <trkpt lat="47.77041" lon="2.36672">
        <ele>120</ele>
        <time>2017-05-07T08:15:57.356Z</time>
      </trkpt>
      <trkpt lat="47.77041" lon="2.36672">
        <ele>120</ele>
        <time>2017-05-07T08:15:58.394Z</time>
      </trkpt>
      <trkpt lat="47.7704" lon="2.36668">
        <ele>120</ele>
        <time>2017-05-07T08:15:59.356Z</time>
      </trkpt>
      <trkpt lat="47.7704" lon="2.36668">
        <ele>120</ele>
        <time>2017-05-07T08:16:00.390Z</time>
      </trkpt>
      <trkpt lat="47.77041" lon="2.36667">
        <ele>120</ele>
        <time>2017-05-07T08:16:01.356Z</time>
      </trkpt>
      <trkpt lat="47.77041" lon="2.36667">
        <ele>120</ele>
        <time>2017-05-07T08:16:02.360Z</time>
      </trkpt>
      <trkpt lat="47.77042" lon="2.36658">
        <ele>115</ele>
        <time>2017-05-07T08:16:03.375Z</time>
      </trkpt>
      <trkpt lat="47.77042" lon="2.36658">
        <ele>115</ele>
        <time>2017-05-07T08:16:04.366Z</time>
      </trkpt>
      <trkpt lat="47.77042" lon="2.3665">
        <ele>115</ele>
        <time>2017-05-07T08:16:05.372Z</time>
      </trkpt>
      <trkpt lat="47.77042" lon="2.36646">
        <ele>115</ele>
        <time>2017-05-07T08:16:06.393Z</time>
      </trkpt>
      <trkpt lat="47.77042" lon="2.36646">
        <ele>115</ele>
        <time>2017-05-07T08:16:07.393Z</time>
      </trkpt>
      <trkpt lat="47.77041" lon="2.36636">
        <ele>115</ele>
        <time>2017-05-07T08:16:08.382Z</time>
      </trkpt>
      <trkpt lat="47.77042" lon="2.36631">
        <ele>116</ele>
        <time>2017-05-07T08:16:09.372Z</time>
      </trkpt>
      <trkpt lat="47.77042" lon="2.36631">
        <ele>116</ele>
        <time>2017-05-07T08:16:10.366Z</time>
      </trkpt>
      <trkpt lat="47.77041" lon="2.36622">
        <ele>116</ele>
        <time>2017-05-07T08:16:11.371Z</time>
      </trkpt>
      <trkpt lat="47.7704" lon="2.36617">
        <ele>115</ele>
        <time>2017-05-07T08:16:12.394Z</time>
      </trkpt>
      <trkpt lat="47.7704" lon="2.36617">
        <ele>115</ele>
        <time>2017-05-07T08:16:13.392Z</time>
      </trkpt>
      <trkpt lat="47.77038" lon="2.36605">
        <ele>115</ele>
        <time>2017-05-07T08:16:14.382Z</time>
      </trkpt>
      <trkpt lat="47.77038" lon="2.36605">
        <ele>115</ele>
        <time>2017-05-07T08:16:15.366Z</time>
      </trkpt>
      <trkpt lat="47.77035" lon="2.36593">
        <ele>115</ele>
        <time>2017-05-07T08:16:16.368Z</time>
      </trkpt>
      <trkpt lat="47.77034" lon="2.36586">
        <ele>115</ele>
        <time>2017-05-07T08:16:17.371Z</time>
      </trkpt>
      <trkpt lat="47.77033" lon="2.3658">
        <ele>116</ele>
        <time>2017-05-07T08:16:18.381Z</time>
      </trkpt>
      <trkpt lat="47.77033" lon="2.3658">
        <ele>116</ele>
        <time>2017-05-07T08:16:19.374Z</time>
      </trkpt>
      <trkpt lat="47.7703" lon="2.36567">
        <ele>116</ele>
        <time>2017-05-07T08:16:20.372Z</time>
      </trkpt>
      <trkpt lat="47.7703" lon="2.36567">
        <ele>116</ele>
        <time>2017-05-07T08:16:21.366Z</time>
      </trkpt>
      <trkpt lat="47.77027" lon="2.36554">
        <ele>116</ele>
        <time>2017-05-07T08:16:22.381Z</time>
      </trkpt>
      <trkpt lat="47.77027" lon="2.36554">
        <ele>116</ele>
        <time>2017-05-07T08:16:23.366Z</time>
      </trkpt>
      <trkpt lat="47.77025" lon="2.3654">
        <ele>117</ele>
        <time>2017-05-07T08:16:24.376Z</time>
      </trkpt>
      <trkpt lat="47.77025" lon="2.3654">
        <ele>117</ele>
        <time>2017-05-07T08:16:25.367Z</time>
      </trkpt>
      <trkpt lat="47.77022" lon="2.36527">
        <ele>118</ele>
        <time>2017-05-07T08:16:26.370Z</time>
      </trkpt>
      <trkpt lat="47.77021" lon="2.36521">
        <ele>117</ele>
        <time>2017-05-07T08:16:27.370Z</time>
      </trkpt>
      <trkpt lat="47.77021" lon="2.36521">
        <ele>117</ele>
        <time>2017-05-07T08:16:28.392Z</time>
      </trkpt>
      <trkpt lat="47.77018" lon="2.36508">
        <ele>117</ele>
        <time>2017-05-07T08:16:29.382Z</time>
      </trkpt>
      <trkpt lat="47.77016" lon="2.36502">
        <ele>117</ele>
        <time>2017-05-07T08:16:30.374Z</time>
      </trkpt>
      <trkpt lat="47.77016" lon="2.36502">
        <ele>117</ele>
        <time>2017-05-07T08:16:31.371Z</time>
      </trkpt>
      <trkpt lat="47.77013" lon="2.3649">
        <ele>118</ele>
        <time>2017-05-07T08:16:32.368Z</time>
      </trkpt>
      <trkpt lat="47.77013" lon="2.3649">
        <ele>118</ele>
        <time>2017-05-07T08:16:33.367Z</time>
      </trkpt>
      <trkpt lat="47.7701" lon="2.36479">
        <ele>118</ele>
        <time>2017-05-07T08:16:34.371Z</time>
      </trkpt>
      <trkpt lat="47.7701" lon="2.36479">
        <ele>118</ele>
        <time>2017-05-07T08:16:35.366Z</time>
      </trkpt>
      <trkpt lat="47.77006" lon="2.36467">
        <ele>117</ele>
        <time>2017-05-07T08:16:36.375Z</time>
      </trkpt>
      <trkpt lat="47.77006" lon="2.36467">
        <ele>117</ele>
        <time>2017-05-07T08:16:37.372Z</time>
      </trkpt>
      <trkpt lat="47.77002" lon="2.36454">
        <ele>117</ele>
        <time>2017-05-07T08:16:38.372Z</time>
      </trkpt>
      <trkpt lat="47.77002" lon="2.36454">
        <ele>117</ele>
        <time>2017-05-07T08:16:39.367Z</time>
      </trkpt>
      <trkpt lat="47.76997" lon="2.36441">
        <ele>117</ele>
        <time>2017-05-07T08:16:40.372Z</time>
      </trkpt>
      <trkpt lat="47.76997" lon="2.36441">
        <ele>117</ele>
        <time>2017-05-07T08:16:41.366Z</time>
      </trkpt>
      <trkpt lat="47.76993" lon="2.36428">
        <ele>116</ele>
        <time>2017-05-07T08:16:42.374Z</time>
      </trkpt>
      <trkpt lat="47.76993" lon="2.36428">
        <ele>116</ele>
        <time>2017-05-07T08:16:43.367Z</time>
      </trkpt>
      <trkpt lat="47.7699" lon="2.36417">
        <ele>117</ele>
        <time>2017-05-07T08:16:44.372Z</time>
      </trkpt>
      <trkpt lat="47.7699" lon="2.36417">
        <ele>117</ele>
        <time>2017-05-07T08:16:45.367Z</time>
      </trkpt>
      <trkpt lat="47.76986" lon="2.36404">
        <ele>117</ele>
        <time>2017-05-07T08:16:46.390Z</time>
      </trkpt>
      <trkpt lat="47.76986" lon="2.36404">
        <ele>117</ele>
        <time>2017-05-07T08:16:47.367Z</time>
      </trkpt>
      <trkpt lat="47.76982" lon="2.36391">
        <ele>117</ele>
        <time>2017-05-07T08:16:48.377Z</time>
      </trkpt>
      <trkpt lat="47.76982" lon="2.36391">
        <ele>117</ele>
        <time>2017-05-07T08:16:49.367Z</time>
      </trkpt>
      <trkpt lat="47.76978" lon="2.36378">
        <ele>118</ele>
        <time>2017-05-07T08:16:50.386Z</time>
      </trkpt>
      <trkpt lat="47.76978" lon="2.36378">
        <ele>118</ele>
        <time>2017-05-07T08:16:51.392Z</time>
      </trkpt>
      <trkpt lat="47.76974" lon="2.36364">
        <ele>118</ele>
        <time>2017-05-07T08:16:52.361Z</time>
      </trkpt>
      <trkpt lat="47.76972" lon="2.36358">
        <ele>118</ele>
        <time>2017-05-07T08:16:53.373Z</time>
      </trkpt>
      <trkpt lat="47.76971" lon="2.36351">
        <ele>118</ele>
        <time>2017-05-07T08:16:54.375Z</time>
      </trkpt>
      <trkpt lat="47.76971" lon="2.36351">
        <ele>118</ele>
        <time>2017-05-07T08:16:55.382Z</time>
      </trkpt>
      <trkpt lat="47.76967" lon="2.36337">
        <ele>119</ele>
        <time>2017-05-07T08:16:56.372Z</time>
      </trkpt>
      <trkpt lat="47.76966" lon="2.36331">
        <ele>119</ele>
        <time>2017-05-07T08:16:57.376Z</time>
      </trkpt>
      <trkpt lat="47.76966" lon="2.36331">
        <ele>119</ele>
        <time>2017-05-07T08:16:58.369Z</time>
      </trkpt>
      <trkpt lat="47.76963" lon="2.3632">
        <ele>119</ele>
        <time>2017-05-07T08:16:59.372Z</time>
      </trkpt>
      <trkpt lat="47.76961" lon="2.36314">
        <ele>119</ele>
        <time>2017-05-07T08:17:00.389Z</time>
      </trkpt>
      <trkpt lat="47.76961" lon="2.36314">
        <ele>119</ele>
        <time>2017-05-07T08:17:01.372Z</time>
      </trkpt>
      <trkpt lat="47.76958" lon="2.36301">
        <ele>119</ele>
        <time>2017-05-07T08:17:02.372Z</time>
      </trkpt>
      <trkpt lat="47.76957" lon="2.36294">
        <ele>119</ele>
        <time>2017-05-07T08:17:03.372Z</time>
      </trkpt>
      <trkpt lat="47.76957" lon="2.36294">
        <ele>119</ele>
        <time>2017-05-07T08:17:04.366Z</time>
      </trkpt>
      <trkpt lat="47.76953" lon="2.3628">
        <ele>119</ele>
        <time>2017-05-07T08:17:05.372Z</time>
      </trkpt>
      <trkpt lat="47.76952" lon="2.36272">
        <ele>119</ele>
        <time>2017-05-07T08:17:06.375Z</time>
      </trkpt>
      <trkpt lat="47.76952" lon="2.36272">
        <ele>119</ele>
        <time>2017-05-07T08:17:07.382Z</time>
      </trkpt>
      <trkpt lat="47.76953" lon="2.36259">
        <ele>119</ele>
        <time>2017-05-07T08:17:08.373Z</time>
      </trkpt>
      <trkpt lat="47.76953" lon="2.36252">
        <ele>119</ele>
        <time>2017-05-07T08:17:09.370Z</time>
      </trkpt>
      <trkpt lat="47.76953" lon="2.36252">
        <ele>119</ele>
        <time>2017-05-07T08:17:10.367Z</time>
      </trkpt>
      <trkpt lat="47.76952" lon="2.36239">
        <ele>119</ele>
        <time>2017-05-07T08:17:11.371Z</time>
      </trkpt>
      <trkpt lat="47.76951" lon="2.36231">
        <ele>119</ele>
        <time>2017-05-07T08:17:12.374Z</time>
      </trkpt>
      <trkpt lat="47.76951" lon="2.36231">
        <ele>119</ele>
        <time>2017-05-07T08:17:13.367Z</time>
      </trkpt>
      <trkpt lat="47.76951" lon="2.36216">
        <ele>119</ele>
        <time>2017-05-07T08:17:14.369Z</time>
      </trkpt>
      <trkpt lat="47.76951" lon="2.36216">
        <ele>119</ele>
        <time>2017-05-07T08:17:15.366Z</time>
      </trkpt>
      <trkpt lat="47.76951" lon="2.36202">
        <ele>119</ele>
        <time>2017-05-07T08:17:16.372Z</time>
      </trkpt>
      <trkpt lat="47.76951" lon="2.36202">
        <ele>119</ele>
        <time>2017-05-07T08:17:17.370Z</time>
      </trkpt>
      <trkpt lat="47.7695" lon="2.36186">
        <ele>119</ele>
        <time>2017-05-07T08:17:18.374Z</time>
      </trkpt>
      <trkpt lat="47.7695" lon="2.36186">
        <ele>119</ele>
        <time>2017-05-07T08:17:19.367Z</time>
      </trkpt>
      <trkpt lat="47.7695" lon="2.3617">
        <ele>119</ele>
        <time>2017-05-07T08:17:20.369Z</time>
      </trkpt>
      <trkpt lat="47.7695" lon="2.3617">
        <ele>119</ele>
        <time>2017-05-07T08:17:21.367Z</time>
      </trkpt>
      <trkpt lat="47.76949" lon="2.36155">
        <ele>120</ele>
        <time>2017-05-07T08:17:22.373Z</time>
      </trkpt>
      <trkpt lat="47.76949" lon="2.36155">
        <ele>120</ele>
        <time>2017-05-07T08:17:23.367Z</time>
      </trkpt>
      <trkpt lat="47.76949" lon="2.36141">
        <ele>120</ele>
        <time>2017-05-07T08:17:24.375Z</time>
      </trkpt>
      <trkpt lat="47.76949" lon="2.36141">
        <ele>120</ele>
        <time>2017-05-07T08:17:25.367Z</time>
      </trkpt>
      <trkpt lat="47.76949" lon="2.36127">
        <ele>121</ele>
        <time>2017-05-07T08:17:26.382Z</time>
      </trkpt>
      <trkpt lat="47.76949" lon="2.36127">
        <ele>121</ele>
        <time>2017-05-07T08:17:27.374Z</time>
      </trkpt>
      <trkpt lat="47.76949" lon="2.3611">
        <ele>121</ele>
        <time>2017-05-07T08:17:28.373Z</time>
      </trkpt>
      <trkpt lat="47.76949" lon="2.3611">
        <ele>121</ele>
        <time>2017-05-07T08:17:29.373Z</time>
      </trkpt>
      <trkpt lat="47.7695" lon="2.36094">
        <ele>121</ele>
        <time>2017-05-07T08:17:30.374Z</time>
      </trkpt>
      <trkpt lat="47.7695" lon="2.36094">
        <ele>121</ele>
        <time>2017-05-07T08:17:31.368Z</time>
      </trkpt>
      <trkpt lat="47.76953" lon="2.36079">
        <ele>122</ele>
        <time>2017-05-07T08:17:32.370Z</time>
      </trkpt>
      <trkpt lat="47.76955" lon="2.36072">
        <ele>122</ele>
        <time>2017-05-07T08:17:33.372Z</time>
      </trkpt>
      <trkpt lat="47.76955" lon="2.36072">
        <ele>122</ele>
        <time>2017-05-07T08:17:34.367Z</time>
      </trkpt>
      <trkpt lat="47.76959" lon="2.36056">
        <ele>121</ele>
        <time>2017-05-07T08:17:35.370Z</time>
      </trkpt>
      <trkpt lat="47.76961" lon="2.36049">
        <ele>121</ele>
        <time>2017-05-07T08:17:36.374Z</time>
      </trkpt>
      <trkpt lat="47.76961" lon="2.36049">
        <ele>121</ele>
        <time>2017-05-07T08:17:37.386Z</time>
      </trkpt>
      <trkpt lat="47.76967" lon="2.36039">
        <ele>121</ele>
        <time>2017-05-07T08:17:38.375Z</time>
      </trkpt>
      <trkpt lat="47.76967" lon="2.36039">
        <ele>121</ele>
        <time>2017-05-07T08:17:39.367Z</time>
      </trkpt>
      <trkpt lat="47.76974" lon="2.3603">
        <ele>122</ele>
        <time>2017-05-07T08:17:40.372Z</time>
      </trkpt>
      <trkpt lat="47.76974" lon="2.3603">
        <ele>122</ele>
        <time>2017-05-07T08:17:41.367Z</time>
      </trkpt>
      <trkpt lat="47.76977" lon="2.36016">
        <ele>122</ele>
        <time>2017-05-07T08:17:42.373Z</time>
      </trkpt>
      <trkpt lat="47.76977" lon="2.36016">
        <ele>122</ele>
        <time>2017-05-07T08:17:43.367Z</time>
      </trkpt>
      <trkpt lat="47.76978" lon="2.36001">
        <ele>123</ele>
        <time>2017-05-07T08:17:44.372Z</time>
      </trkpt>
      <trkpt lat="47.76978" lon="2.36001">
        <ele>123</ele>
        <time>2017-05-07T08:17:45.367Z</time>
      </trkpt>
      <trkpt lat="47.76977" lon="2.35986">
        <ele>123</ele>
        <time>2017-05-07T08:17:46.379Z</time>
      </trkpt>
      <trkpt lat="47.76977" lon="2.35986">
        <ele>123</ele>
        <time>2017-05-07T08:17:47.369Z</time>
      </trkpt>
      <trkpt lat="47.76975" lon="2.35971">
        <ele>123</ele>
        <time>2017-05-07T08:17:48.373Z</time>
      </trkpt>
      <trkpt lat="47.76974" lon="2.35963">
        <ele>123</ele>
        <time>2017-05-07T08:17:49.383Z</time>
      </trkpt>
      <trkpt lat="47.76974" lon="2.35963">
        <ele>123</ele>
        <time>2017-05-07T08:17:50.367Z</time>
      </trkpt>
      <trkpt lat="47.76972" lon="2.35946">
        <ele>123</ele>
        <time>2017-05-07T08:17:51.368Z</time>
      </trkpt>
      <trkpt lat="47.76972" lon="2.35946">
        <ele>123</ele>
        <time>2017-05-07T08:17:52.365Z</time>
      </trkpt>
      <trkpt lat="47.76971" lon="2.35928">
        <ele>123</ele>
        <time>2017-05-07T08:17:53.369Z</time>
      </trkpt>
      <trkpt lat="47.76971" lon="2.35918">
        <ele>123</ele>
        <time>2017-05-07T08:17:54.374Z</time>
      </trkpt>
      <trkpt lat="47.7697" lon="2.35909">
        <ele>123</ele>
        <time>2017-05-07T08:17:55.373Z</time>
      </trkpt>
      <trkpt lat="47.7697" lon="2.35909">
        <ele>123</ele>
        <time>2017-05-07T08:17:56.367Z</time>
      </trkpt>
      <trkpt lat="47.76971" lon="2.35891">
        <ele>122</ele>
        <time>2017-05-07T08:17:57.372Z</time>
      </trkpt>
      <trkpt lat="47.76972" lon="2.35882">
        <ele>123</ele>
        <time>2017-05-07T08:17:58.372Z</time>
      </trkpt>
      <trkpt lat="47.76972" lon="2.35882">
        <ele>123</ele>
        <time>2017-05-07T08:17:59.391Z</time>
      </trkpt>
      <trkpt lat="47.76975" lon="2.35866">
        <ele>122</ele>
        <time>2017-05-07T08:18:00.381Z</time>
      </trkpt>
      <trkpt lat="47.76975" lon="2.35866">
        <ele>122</ele>
        <time>2017-05-07T08:18:01.387Z</time>
      </trkpt>
      <trkpt lat="47.76977" lon="2.35852">
        <ele>122</ele>
        <time>2017-05-07T08:18:02.362Z</time>
      </trkpt>
      <trkpt lat="47.76979" lon="2.35845">
        <ele>122</ele>
        <time>2017-05-07T08:18:03.379Z</time>
      </trkpt>
      <trkpt lat="47.76979" lon="2.35845">
        <ele>122</ele>
        <time>2017-05-07T08:18:04.372Z</time>
      </trkpt>
      <trkpt lat="47.76982" lon="2.35833">
        <ele>122</ele>
        <time>2017-05-07T08:18:05.376Z</time>
      </trkpt>
      <trkpt lat="47.76983" lon="2.35826">
        <ele>122</ele>
        <time>2017-05-07T08:18:06.377Z</time>
      </trkpt>
      <trkpt lat="47.76983" lon="2.35826">
        <ele>122</ele>
        <time>2017-05-07T08:18:07.372Z</time>
      </trkpt>
      <trkpt lat="47.76988" lon="2.35809">
        <ele>122</ele>
        <time>2017-05-07T08:18:08.378Z</time>
      </trkpt>
      <trkpt lat="47.7699" lon="2.358">
        <ele>122</ele>
        <time>2017-05-07T08:18:09.375Z</time>
      </trkpt>
      <trkpt lat="47.76992" lon="2.35792">
        <ele>122</ele>
        <time>2017-05-07T08:18:10.374Z</time>
      </trkpt>
      <trkpt lat="47.76993" lon="2.35785">
        <ele>122</ele>
        <time>2017-05-07T08:18:11.377Z</time>
      </trkpt>
      <trkpt lat="47.76995" lon="2.35778">
        <ele>122</ele>
        <time>2017-05-07T08:18:12.376Z</time>
      </trkpt>
      <trkpt lat="47.76995" lon="2.35778">
        <ele>122</ele>
        <time>2017-05-07T08:18:13.369Z</time>
      </trkpt>
      <trkpt lat="47.76999" lon="2.35764">
        <ele>121</ele>
        <time>2017-05-07T08:18:14.375Z</time>
      </trkpt>
      <trkpt lat="47.77001" lon="2.35756">
        <ele>121</ele>
        <time>2017-05-07T08:18:15.374Z</time>
      </trkpt>
      <trkpt lat="47.77002" lon="2.35748">
        <ele>121</ele>
        <time>2017-05-07T08:18:16.447Z</time>
      </trkpt>
      <trkpt lat="47.77002" lon="2.35748">
        <ele>121</ele>
        <time>2017-05-07T08:18:17.372Z</time>
      </trkpt>
      <trkpt lat="47.77004" lon="2.35732">
        <ele>120</ele>
        <time>2017-05-07T08:18:18.374Z</time>
      </trkpt>
      <trkpt lat="47.77004" lon="2.35732">
        <ele>120</ele>
        <time>2017-05-07T08:18:19.368Z</time>
      </trkpt>
      <trkpt lat="47.77006" lon="2.35716">
        <ele>120</ele>
        <time>2017-05-07T08:18:20.375Z</time>
      </trkpt>
      <trkpt lat="47.77007" lon="2.35708">
        <ele>119</ele>
        <time>2017-05-07T08:18:21.371Z</time>
      </trkpt>
      <trkpt lat="47.77007" lon="2.35708">
        <ele>119</ele>
        <time>2017-05-07T08:18:22.371Z</time>
      </trkpt>
      <trkpt lat="47.7701" lon="2.35693">
        <ele>120</ele>
        <time>2017-05-07T08:18:23.373Z</time>
      </trkpt>
      <trkpt lat="47.7701" lon="2.35693">
        <ele>120</ele>
        <time>2017-05-07T08:18:24.376Z</time>
      </trkpt>
      <trkpt lat="47.77014" lon="2.35678">
        <ele>120</ele>
        <time>2017-05-07T08:18:25.375Z</time>
      </trkpt>
      <trkpt lat="47.77014" lon="2.35678">
        <ele>120</ele>
        <time>2017-05-07T08:18:26.368Z</time>
      </trkpt>
      <trkpt lat="47.77019" lon="2.35664">
        <ele>119</ele>
        <time>2017-05-07T08:18:27.388Z</time>
      </trkpt>
      <trkpt lat="47.77019" lon="2.35664">
        <ele>119</ele>
        <time>2017-05-07T08:18:28.380Z</time>
      </trkpt>
      <trkpt lat="47.77025" lon="2.35651">
        <ele>119</ele>
        <time>2017-05-07T08:18:29.374Z</time>
      </trkpt>
      <trkpt lat="47.77025" lon="2.35651">
        <ele>119</ele>
        <time>2017-05-07T08:18:30.379Z</time>
      </trkpt>
      <trkpt lat="47.77025" lon="2.35651">
        <ele>119</ele>
        <time>2017-05-07T08:18:31.371Z</time>
      </trkpt>
      <trkpt lat="47.77032" lon="2.3564">
        <ele>119</ele>
        <time>2017-05-07T08:18:32.379Z</time>
      </trkpt>
      <trkpt lat="47.77038" lon="2.35629">
        <ele>119</ele>
        <time>2017-05-07T08:18:33.378Z</time>
      </trkpt>
      <trkpt lat="47.7704" lon="2.35623">
        <ele>120</ele>
        <time>2017-05-07T08:18:34.374Z</time>
      </trkpt>
      <trkpt lat="47.77043" lon="2.35616">
        <ele>119</ele>
        <time>2017-05-07T08:18:35.374Z</time>
      </trkpt>
      <trkpt lat="47.77045" lon="2.3561">
        <ele>119</ele>
        <time>2017-05-07T08:18:36.377Z</time>
      </trkpt>
      <trkpt lat="47.77045" lon="2.3561">
        <ele>119</ele>
        <time>2017-05-07T08:18:37.376Z</time>
      </trkpt>
      <trkpt lat="47.7705" lon="2.35598">
        <ele>119</ele>
        <time>2017-05-07T08:18:38.373Z</time>
      </trkpt>
      <trkpt lat="47.77052" lon="2.35592">
        <ele>119</ele>
        <time>2017-05-07T08:18:39.374Z</time>
      </trkpt>
      <trkpt lat="47.77055" lon="2.35586">
        <ele>119</ele>
        <time>2017-05-07T08:18:40.374Z</time>
      </trkpt>
      <trkpt lat="47.77055" lon="2.35586">
        <ele>119</ele>
        <time>2017-05-07T08:18:41.361Z</time>
      </trkpt>
      <trkpt lat="47.7706" lon="2.35574">
        <ele>119</ele>
        <time>2017-05-07T08:18:42.384Z</time>
      </trkpt>
      <trkpt lat="47.7706" lon="2.35574">
        <ele>119</ele>
        <time>2017-05-07T08:18:43.371Z</time>
      </trkpt>
      <trkpt lat="47.77065" lon="2.35562">
        <ele>119</ele>
        <time>2017-05-07T08:18:44.373Z</time>
      </trkpt>
      <trkpt lat="47.77068" lon="2.35556">
        <ele>119</ele>
        <time>2017-05-07T08:18:45.370Z</time>
      </trkpt>
      <trkpt lat="47.77071" lon="2.3555">
        <ele>119</ele>
        <time>2017-05-07T08:18:46.372Z</time>
      </trkpt>
      <trkpt lat="47.77071" lon="2.3555">
        <ele>119</ele>
        <time>2017-05-07T08:18:47.392Z</time>
      </trkpt>
      <trkpt lat="47.77076" lon="2.35537">
        <ele>119</ele>
        <time>2017-05-07T08:18:48.388Z</time>
      </trkpt>
      <trkpt lat="47.77076" lon="2.35537">
        <ele>119</ele>
        <time>2017-05-07T08:18:49.374Z</time>
      </trkpt>
      <trkpt lat="47.77082" lon="2.35525">
        <ele>120</ele>
        <time>2017-05-07T08:18:50.373Z</time>
      </trkpt>
      <trkpt lat="47.77082" lon="2.35525">
        <ele>120</ele>
        <time>2017-05-07T08:18:51.368Z</time>
      </trkpt>
      <trkpt lat="47.77087" lon="2.35514">
        <ele>121</ele>
        <time>2017-05-07T08:18:52.383Z</time>
      </trkpt>
      <trkpt lat="47.77087" lon="2.35514">
        <ele>121</ele>
        <time>2017-05-07T08:18:53.373Z</time>
      </trkpt>
      <trkpt lat="47.77092" lon="2.35501">
        <ele>121</ele>
        <time>2017-05-07T08:18:54.373Z</time>
      </trkpt>
      <trkpt lat="47.77092" lon="2.35501">
        <ele>121</ele>
        <time>2017-05-07T08:18:55.367Z</time>
      </trkpt>
      <trkpt lat="47.77098" lon="2.3549">
        <ele>121</ele>
        <time>2017-05-07T08:18:56.373Z</time>
      </trkpt>
      <trkpt lat="47.77098" lon="2.3549">
        <ele>121</ele>
        <time>2017-05-07T08:18:57.376Z</time>
      </trkpt>
      <trkpt lat="47.77104" lon="2.35478">
        <ele>122</ele>
        <time>2017-05-07T08:18:58.373Z</time>
      </trkpt>
      <trkpt lat="47.77104" lon="2.35478">
        <ele>122</ele>
        <time>2017-05-07T08:18:59.385Z</time>
      </trkpt>
      <trkpt lat="47.77108" lon="2.35467">
        <ele>122</ele>
        <time>2017-05-07T08:19:00.362Z</time>
      </trkpt>
      <trkpt lat="47.77108" lon="2.35467">
        <ele>122</ele>
        <time>2017-05-07T08:19:01.369Z</time>
      </trkpt>
      <trkpt lat="47.77109" lon="2.35456">
        <ele>123</ele>
        <time>2017-05-07T08:19:02.376Z</time>
      </trkpt>
      <trkpt lat="47.77109" lon="2.35456">
        <ele>123</ele>
        <time>2017-05-07T08:19:03.387Z</time>
      </trkpt>
      <trkpt lat="47.77111" lon="2.35446">
        <ele>122</ele>
        <time>2017-05-07T08:19:04.384Z</time>
      </trkpt>
      <trkpt lat="47.77111" lon="2.35446">
        <ele>122</ele>
        <time>2017-05-07T08:19:05.375Z</time>
      </trkpt>
      <trkpt lat="47.77114" lon="2.35436">
        <ele>123</ele>
        <time>2017-05-07T08:19:06.377Z</time>
      </trkpt>
      <trkpt lat="47.77114" lon="2.35436">
        <ele>123</ele>
        <time>2017-05-07T08:19:07.377Z</time>
      </trkpt>
      <trkpt lat="47.77121" lon="2.35426">
        <ele>124</ele>
        <time>2017-05-07T08:19:08.374Z</time>
      </trkpt>
      <trkpt lat="47.77121" lon="2.35426">
        <ele>124</ele>
        <time>2017-05-07T08:19:09.368Z</time>
      </trkpt>
      <trkpt lat="47.77126" lon="2.35413">
        <ele>124</ele>
        <time>2017-05-07T08:19:10.372Z</time>
      </trkpt>
      <trkpt lat="47.77126" lon="2.35413">
        <ele>124</ele>
        <time>2017-05-07T08:19:11.367Z</time>
      </trkpt>
      <trkpt lat="47.77132" lon="2.35398">
        <ele>124</ele>
        <time>2017-05-07T08:19:12.373Z</time>
      </trkpt>
      <trkpt lat="47.77135" lon="2.35391">
        <ele>124</ele>
        <time>2017-05-07T08:19:13.375Z</time>
      </trkpt>
      <trkpt lat="47.77135" lon="2.35391">
        <ele>124</ele>
        <time>2017-05-07T08:19:14.368Z</time>
      </trkpt>
      <trkpt lat="47.77141" lon="2.35379">
        <ele>124</ele>
        <time>2017-05-07T08:19:15.373Z</time>
      </trkpt>
      <trkpt lat="47.77141" lon="2.35379">
        <ele>124</ele>
        <time>2017-05-07T08:19:16.367Z</time>
      </trkpt>
      <trkpt lat="47.77148" lon="2.35367">
        <ele>124</ele>
        <time>2017-05-07T08:19:17.386Z</time>
      </trkpt>
      <trkpt lat="47.77152" lon="2.3536">
        <ele>124</ele>
        <time>2017-05-07T08:19:18.377Z</time>
      </trkpt>
      <trkpt lat="47.77152" lon="2.3536">
        <ele>124</ele>
        <time>2017-05-07T08:19:19.368Z</time>
      </trkpt>
      <trkpt lat="47.77158" lon="2.35347">
        <ele>124</ele>
        <time>2017-05-07T08:19:20.372Z</time>
      </trkpt>
      <trkpt lat="47.77158" lon="2.35347">
        <ele>124</ele>
        <time>2017-05-07T08:19:21.367Z</time>
      </trkpt>
      <trkpt lat="47.77165" lon="2.35334">
        <ele>124</ele>
        <time>2017-05-07T08:19:22.373Z</time>
      </trkpt>
      <trkpt lat="47.77169" lon="2.35327">
        <ele>123</ele>
        <time>2017-05-07T08:19:23.372Z</time>
      </trkpt>
      <trkpt lat="47.77172" lon="2.35321">
        <ele>123</ele>
        <time>2017-05-07T08:19:24.374Z</time>
      </trkpt>
      <trkpt lat="47.77172" lon="2.35321">
        <ele>123</ele>
        <time>2017-05-07T08:19:25.381Z</time>
      </trkpt>
      <trkpt lat="47.77179" lon="2.35308">
        <ele>123</ele>
        <time>2017-05-07T08:19:26.382Z</time>
      </trkpt>
      <trkpt lat="47.77179" lon="2.35308">
        <ele>123</ele>
        <time>2017-05-07T08:19:27.367Z</time>
      </trkpt>
      <trkpt lat="47.77185" lon="2.35294">
        <ele>123</ele>
        <time>2017-05-07T08:19:28.372Z</time>
      </trkpt>
      <trkpt lat="47.77185" lon="2.35294">
        <ele>123</ele>
        <time>2017-05-07T08:19:29.367Z</time>
      </trkpt>
      <trkpt lat="47.7719" lon="2.35281">
        <ele>123</ele>
        <time>2017-05-07T08:19:30.376Z</time>
      </trkpt>
      <trkpt lat="47.7719" lon="2.35281">
        <ele>123</ele>
        <time>2017-05-07T08:19:31.368Z</time>
      </trkpt>
      <trkpt lat="47.77197" lon="2.35267">
        <ele>123</ele>
        <time>2017-05-07T08:19:32.372Z</time>
      </trkpt>
      <trkpt lat="47.77197" lon="2.35267">
        <ele>123</ele>
        <time>2017-05-07T08:19:33.368Z</time>
      </trkpt>
      <trkpt lat="47.77202" lon="2.35253">
        <ele>123</ele>
        <time>2017-05-07T08:19:34.373Z</time>
      </trkpt>
      <trkpt lat="47.77202" lon="2.35253">
        <ele>123</ele>
        <time>2017-05-07T08:19:35.368Z</time>
      </trkpt>
      <trkpt lat="47.77206" lon="2.35239">
        <ele>122</ele>
        <time>2017-05-07T08:19:36.377Z</time>
      </trkpt>
      <trkpt lat="47.77206" lon="2.35239">
        <ele>122</ele>
        <time>2017-05-07T08:19:37.369Z</time>
      </trkpt>
      <trkpt lat="47.77211" lon="2.35226">
        <ele>121</ele>
        <time>2017-05-07T08:19:38.375Z</time>
      </trkpt>
      <trkpt lat="47.77211" lon="2.35226">
        <ele>121</ele>
        <time>2017-05-07T08:19:39.369Z</time>
      </trkpt>
      <trkpt lat="47.77219" lon="2.35211">
        <ele>121</ele>
        <time>2017-05-07T08:19:40.373Z</time>
      </trkpt>
      <trkpt lat="47.77219" lon="2.35211">
        <ele>121</ele>
        <time>2017-05-07T08:19:41.386Z</time>
      </trkpt>
      <trkpt lat="47.77227" lon="2.352">
        <ele>120</ele>
        <time>2017-05-07T08:19:42.378Z</time>
      </trkpt>
      <trkpt lat="47.77227" lon="2.352">
        <ele>120</ele>
        <time>2017-05-07T08:19:43.368Z</time>
      </trkpt>
      <trkpt lat="47.77235" lon="2.35188">
        <ele>119</ele>
        <time>2017-05-07T08:19:44.373Z</time>
      </trkpt>
      <trkpt lat="47.77235" lon="2.35188">
        <ele>119</ele>
        <time>2017-05-07T08:19:45.360Z</time>
      </trkpt>
      <trkpt lat="47.7724" lon="2.35177">
        <ele>119</ele>
        <time>2017-05-07T08:19:46.368Z</time>
      </trkpt>
      <trkpt lat="47.7724" lon="2.35177">
        <ele>119</ele>
        <time>2017-05-07T08:19:47.377Z</time>
      </trkpt>
      <trkpt lat="47.77245" lon="2.35164">
        <ele>118</ele>
        <time>2017-05-07T08:19:48.384Z</time>
      </trkpt>
      <trkpt lat="47.77245" lon="2.35164">
        <ele>118</ele>
        <time>2017-05-07T08:19:49.388Z</time>
      </trkpt>
      <trkpt lat="47.7725" lon="2.35151">
        <ele>119</ele>
        <time>2017-05-07T08:19:50.379Z</time>
      </trkpt>
      <trkpt lat="47.7725" lon="2.35151">
        <ele>119</ele>
        <time>2017-05-07T08:19:51.373Z</time>
      </trkpt>
      <trkpt lat="47.77254" lon="2.35138">
        <ele>118</ele>
        <time>2017-05-07T08:19:52.370Z</time>
      </trkpt>
      <trkpt lat="47.77254" lon="2.35138">
        <ele>118</ele>
        <time>2017-05-07T08:19:53.368Z</time>
      </trkpt>
      <trkpt lat="47.77258" lon="2.35125">
        <ele>119</ele>
        <time>2017-05-07T08:19:54.371Z</time>
      </trkpt>
      <trkpt lat="47.77258" lon="2.35125">
        <ele>119</ele>
        <time>2017-05-07T08:19:55.367Z</time>
      </trkpt>
      <trkpt lat="47.77263" lon="2.35112">
        <ele>119</ele>
        <time>2017-05-07T08:19:56.373Z</time>
      </trkpt>
      <trkpt lat="47.77263" lon="2.35112">
        <ele>119</ele>
        <time>2017-05-07T08:19:57.371Z</time>
      </trkpt>
      <trkpt lat="47.77267" lon="2.35101">
        <ele>119</ele>
        <time>2017-05-07T08:19:58.372Z</time>
      </trkpt>
      <trkpt lat="47.77268" lon="2.35096">
        <ele>119</ele>
        <time>2017-05-07T08:19:59.383Z</time>
      </trkpt>
      <trkpt lat="47.7727" lon="2.3509">
        <ele>119</ele>
        <time>2017-05-07T08:20:00.375Z</time>
      </trkpt>
      <trkpt lat="47.7727" lon="2.3509">
        <ele>119</ele>
        <time>2017-05-07T08:20:01.368Z</time>
      </trkpt>
      <trkpt lat="47.77273" lon="2.35077">
        <ele>118</ele>
        <time>2017-05-07T08:20:02.372Z</time>
      </trkpt>
      <trkpt lat="47.77273" lon="2.35077">
        <ele>118</ele>
        <time>2017-05-07T08:20:03.367Z</time>
      </trkpt>
      <trkpt lat="47.77277" lon="2.35063">
        <ele>118</ele>
        <time>2017-05-07T08:20:04.372Z</time>
      </trkpt>
      <trkpt lat="47.77277" lon="2.35063">
        <ele>118</ele>
        <time>2017-05-07T08:20:05.367Z</time>
      </trkpt>
      <trkpt lat="47.7728" lon="2.35051">
        <ele>118</ele>
        <time>2017-05-07T08:20:06.375Z</time>
      </trkpt>
      <trkpt lat="47.7728" lon="2.35051">
        <ele>118</ele>
        <time>2017-05-07T08:20:07.382Z</time>
      </trkpt>
      <trkpt lat="47.77284" lon="2.3504">
        <ele>118</ele>
        <time>2017-05-07T08:20:08.371Z</time>
      </trkpt>
      <trkpt lat="47.77287" lon="2.35036">
        <ele>118</ele>
        <time>2017-05-07T08:20:09.373Z</time>
      </trkpt>
      <trkpt lat="47.77287" lon="2.35036">
        <ele>118</ele>
        <time>2017-05-07T08:20:10.367Z</time>
      </trkpt>
      <trkpt lat="47.77294" lon="2.35028">
        <ele>117</ele>
        <time>2017-05-07T08:20:11.373Z</time>
      </trkpt>
      <trkpt lat="47.77294" lon="2.35028">
        <ele>117</ele>
        <time>2017-05-07T08:20:12.369Z</time>
      </trkpt>
      <trkpt lat="47.77303" lon="2.35023">
        <ele>117</ele>
        <time>2017-05-07T08:20:13.373Z</time>
      </trkpt>
      <trkpt lat="47.77307" lon="2.35021">
        <ele>117</ele>
        <time>2017-05-07T08:20:14.372Z</time>
      </trkpt>
      <trkpt lat="47.77307" lon="2.35021">
        <ele>117</ele>
        <time>2017-05-07T08:20:15.367Z</time>
      </trkpt>
      <trkpt lat="47.77317" lon="2.35017">
        <ele>118</ele>
        <time>2017-05-07T08:20:16.370Z</time>
      </trkpt>
      <trkpt lat="47.77317" lon="2.35017">
        <ele>118</ele>
        <time>2017-05-07T08:20:17.364Z</time>
      </trkpt>
      <trkpt lat="47.77327" lon="2.35014">
        <ele>118</ele>
        <time>2017-05-07T08:20:18.355Z</time>
      </trkpt>
      <trkpt lat="47.77327" lon="2.35014">
        <ele>118</ele>
        <time>2017-05-07T08:20:19.388Z</time>
      </trkpt>
      <trkpt lat="47.77327" lon="2.35014">
        <ele>118</ele>
        <time>2017-05-07T08:20:20.371Z</time>
      </trkpt>
      <trkpt lat="47.77337" lon="2.3501">
        <ele>119</ele>
        <time>2017-05-07T08:20:21.368Z</time>
      </trkpt>
      <trkpt lat="47.77345" lon="2.35002">
        <ele>119</ele>
        <time>2017-05-07T08:20:22.373Z</time>
      </trkpt>
      <trkpt lat="47.77345" lon="2.35002">
        <ele>119</ele>
        <time>2017-05-07T08:20:23.367Z</time>
      </trkpt>
      <trkpt lat="47.77354" lon="2.34995">
        <ele>119</ele>
        <time>2017-05-07T08:20:24.375Z</time>
      </trkpt>
      <trkpt lat="47.77354" lon="2.34995">
        <ele>119</ele>
        <time>2017-05-07T08:20:25.368Z</time>
      </trkpt>
      <trkpt lat="47.77362" lon="2.34993">
        <ele>119</ele>
        <time>2017-05-07T08:20:26.373Z</time>
      </trkpt>
      <trkpt lat="47.77362" lon="2.34993">
        <ele>119</ele>
        <time>2017-05-07T08:20:27.371Z</time>
      </trkpt>
      <trkpt lat="47.7737" lon="2.34995">
        <ele>119</ele>
        <time>2017-05-07T08:20:28.372Z</time>
      </trkpt>
      <trkpt lat="47.77376" lon="2.34994">
        <ele>119</ele>
        <time>2017-05-07T08:20:29.375Z</time>
      </trkpt>
      <trkpt lat="47.77376" lon="2.34994">
        <ele>119</ele>
        <time>2017-05-07T08:20:30.370Z</time>
      </trkpt>
      <trkpt lat="47.77385" lon="2.34987">
        <ele>119</ele>
        <time>2017-05-07T08:20:31.372Z</time>
      </trkpt>
      <trkpt lat="47.77385" lon="2.34987">
        <ele>119</ele>
        <time>2017-05-07T08:20:32.369Z</time>
      </trkpt>
      <trkpt lat="47.77393" lon="2.34977">
        <ele>118</ele>
        <time>2017-05-07T08:20:33.373Z</time>
      </trkpt>
      <trkpt lat="47.77397" lon="2.34972">
        <ele>119</ele>
        <time>2017-05-07T08:20:34.370Z</time>
      </trkpt>
      <trkpt lat="47.77397" lon="2.34972">
        <ele>119</ele>
        <time>2017-05-07T08:20:35.367Z</time>
      </trkpt>
      <trkpt lat="47.77403" lon="2.3496">
        <ele>117</ele>
        <time>2017-05-07T08:20:36.374Z</time>
      </trkpt>
      <trkpt lat="47.77403" lon="2.3496">
        <ele>117</ele>
        <time>2017-05-07T08:20:37.375Z</time>
      </trkpt>
      <trkpt lat="47.7741" lon="2.34951">
        <ele>117</ele>
        <time>2017-05-07T08:20:38.372Z</time>
      </trkpt>
      <trkpt lat="47.7741" lon="2.34951">
        <ele>117</ele>
        <time>2017-05-07T08:20:39.368Z</time>
      </trkpt>
      <trkpt lat="47.77418" lon="2.34944">
        <ele>116</ele>
        <time>2017-05-07T08:20:40.372Z</time>
      </trkpt>
      <trkpt lat="47.77418" lon="2.34944">
        <ele>116</ele>
        <time>2017-05-07T08:20:41.367Z</time>
      </trkpt>
      <trkpt lat="47.77427" lon="2.34935">
        <ele>116</ele>
        <time>2017-05-07T08:20:42.374Z</time>
      </trkpt>
      <trkpt lat="47.77427" lon="2.34935">
        <ele>116</ele>
        <time>2017-05-07T08:20:43.366Z</time>
      </trkpt>
      <trkpt lat="47.77435" lon="2.34927">
        <ele>115</ele>
        <time>2017-05-07T08:20:44.372Z</time>
      </trkpt>
      <trkpt lat="47.77435" lon="2.34927">
        <ele>115</ele>
        <time>2017-05-07T08:20:45.367Z</time>
      </trkpt>
      <trkpt lat="47.77442" lon="2.3492">
        <ele>115</ele>
        <time>2017-05-07T08:20:46.444Z</time>
      </trkpt>
      <trkpt lat="47.77442" lon="2.3492">
        <ele>115</ele>
        <time>2017-05-07T08:20:47.382Z</time>
      </trkpt>
      <trkpt lat="47.77447" lon="2.34911">
        <ele>115</ele>
        <time>2017-05-07T08:20:48.375Z</time>
      </trkpt>
      <trkpt lat="47.77447" lon="2.34911">
        <ele>115</ele>
        <time>2017-05-07T08:20:49.367Z</time>
      </trkpt>
      <trkpt lat="47.77451" lon="2.34899">
        <ele>115</ele>
        <time>2017-05-07T08:20:50.374Z</time>
      </trkpt>
      <trkpt lat="47.77452" lon="2.34892">
        <ele>115</ele>
        <time>2017-05-07T08:20:51.368Z</time>
      </trkpt>
      <trkpt lat="47.77452" lon="2.34892">
        <ele>115</ele>
        <time>2017-05-07T08:20:52.368Z</time>
      </trkpt>
      <trkpt lat="47.77455" lon="2.34878">
        <ele>115</ele>
        <time>2017-05-07T08:20:53.370Z</time>
      </trkpt>
      <trkpt lat="47.77457" lon="2.3487">
        <ele>114</ele>
        <time>2017-05-07T08:20:54.372Z</time>
      </trkpt>
      <trkpt lat="47.77458" lon="2.34862">
        <ele>114</ele>
        <time>2017-05-07T08:20:55.373Z</time>
      </trkpt>
      <trkpt lat="47.77458" lon="2.34862">
        <ele>114</ele>
        <time>2017-05-07T08:20:56.367Z</time>
      </trkpt>
      <trkpt lat="47.77461" lon="2.34846">
        <ele>114</ele>
        <time>2017-05-07T08:20:57.375Z</time>
      </trkpt>
      <trkpt lat="47.77461" lon="2.34846">
        <ele>114</ele>
        <time>2017-05-07T08:20:58.367Z</time>
      </trkpt>
      <trkpt lat="47.77463" lon="2.34832">
        <ele>113</ele>
        <time>2017-05-07T08:20:59.372Z</time>
      </trkpt>
      <trkpt lat="47.77464" lon="2.34825">
        <ele>114</ele>
        <time>2017-05-07T08:21:00.392Z</time>
      </trkpt>
      <trkpt lat="47.77464" lon="2.34825">
        <ele>114</ele>
        <time>2017-05-07T08:21:01.373Z</time>
      </trkpt>
      <trkpt lat="47.77465" lon="2.34812">
        <ele>114</ele>
        <time>2017-05-07T08:21:02.373Z</time>
      </trkpt>
      <trkpt lat="47.77465" lon="2.34812">
        <ele>114</ele>
        <time>2017-05-07T08:21:03.368Z</time>
      </trkpt>
      <trkpt lat="47.7747" lon="2.34804">
        <ele>114</ele>
        <time>2017-05-07T08:21:04.373Z</time>
      </trkpt>
      <trkpt lat="47.7747" lon="2.34804">
        <ele>114</ele>
        <time>2017-05-07T08:21:05.381Z</time>
      </trkpt>
      <trkpt lat="47.77477" lon="2.34803">
        <ele>115</ele>
        <time>2017-05-07T08:21:06.375Z</time>
      </trkpt>
      <trkpt lat="47.77477" lon="2.34803">
        <ele>115</ele>
        <time>2017-05-07T08:21:07.373Z</time>
      </trkpt>
      <trkpt lat="47.77482" lon="2.34806">
        <ele>116</ele>
        <time>2017-05-07T08:21:08.371Z</time>
      </trkpt>
      <trkpt lat="47.77482" lon="2.34806">
        <ele>116</ele>
        <time>2017-05-07T08:21:09.367Z</time>
      </trkpt>
      <trkpt lat="47.77488" lon="2.34807">
        <ele>117</ele>
        <time>2017-05-07T08:21:10.369Z</time>
      </trkpt>
      <trkpt lat="47.77488" lon="2.34807">
        <ele>117</ele>
        <time>2017-05-07T08:21:11.369Z</time>
      </trkpt>
      <trkpt lat="47.77496" lon="2.34809">
        <ele>118</ele>
        <time>2017-05-07T08:21:12.371Z</time>
      </trkpt>
      <trkpt lat="47.77496" lon="2.34809">
        <ele>118</ele>
        <time>2017-05-07T08:21:13.367Z</time>
      </trkpt>
      <trkpt lat="47.77502" lon="2.34808">
        <ele>119</ele>
        <time>2017-05-07T08:21:14.372Z</time>
      </trkpt>
      <trkpt lat="47.77502" lon="2.34808">
        <ele>119</ele>
        <time>2017-05-07T08:21:15.368Z</time>
      </trkpt>
      <trkpt lat="47.77507" lon="2.34802">
        <ele>119</ele>
        <time>2017-05-07T08:21:16.371Z</time>
      </trkpt>
      <trkpt lat="47.77507" lon="2.34802">
        <ele>119</ele>
        <time>2017-05-07T08:21:17.366Z</time>
      </trkpt>
      <trkpt lat="47.77514" lon="2.34793">
        <ele>119</ele>
        <time>2017-05-07T08:21:18.374Z</time>
      </trkpt>
      <trkpt lat="47.77514" lon="2.34793">
        <ele>119</ele>
        <time>2017-05-07T08:21:19.391Z</time>
      </trkpt>
      <trkpt lat="47.77522" lon="2.34784">
        <ele>119</ele>
        <time>2017-05-07T08:21:20.371Z</time>
      </trkpt>
      <trkpt lat="47.77526" lon="2.3478">
        <ele>119</ele>
        <time>2017-05-07T08:21:21.371Z</time>
      </trkpt>
      <trkpt lat="47.77526" lon="2.3478">
        <ele>119</ele>
        <time>2017-05-07T08:21:22.365Z</time>
      </trkpt>
      <trkpt lat="47.77533" lon="2.34772">
        <ele>119</ele>
        <time>2017-05-07T08:21:23.371Z</time>
      </trkpt>
      <trkpt lat="47.77536" lon="2.34768">
        <ele>119</ele>
        <time>2017-05-07T08:21:24.394Z</time>
      </trkpt>
      <trkpt lat="47.77536" lon="2.34768">
        <ele>119</ele>
        <time>2017-05-07T08:21:25.381Z</time>
      </trkpt>
      <trkpt lat="47.77542" lon="2.34761">
        <ele>119</ele>
        <time>2017-05-07T08:21:26.373Z</time>
      </trkpt>
      <trkpt lat="47.77542" lon="2.34761">
        <ele>119</ele>
        <time>2017-05-07T08:21:27.373Z</time>
      </trkpt>
      <trkpt lat="47.77546" lon="2.34751">
        <ele>119</ele>
        <time>2017-05-07T08:21:28.371Z</time>
      </trkpt>
      <trkpt lat="47.77546" lon="2.34751">
        <ele>119</ele>
        <time>2017-05-07T08:21:29.368Z</time>
      </trkpt>
      <trkpt lat="47.77551" lon="2.34742">
        <ele>120</ele>
        <time>2017-05-07T08:21:30.369Z</time>
      </trkpt>
      <trkpt lat="47.77551" lon="2.34742">
        <ele>120</ele>
        <time>2017-05-07T08:21:31.368Z</time>
      </trkpt>
      <trkpt lat="47.77555" lon="2.34733">
        <ele>120</ele>
        <time>2017-05-07T08:21:32.371Z</time>
      </trkpt>
      <trkpt lat="47.77556" lon="2.34728">
        <ele>121</ele>
        <time>2017-05-07T08:21:33.369Z</time>
      </trkpt>
      <trkpt lat="47.77556" lon="2.34728">
        <ele>121</ele>
        <time>2017-05-07T08:21:34.368Z</time>
      </trkpt>
      <trkpt lat="47.77558" lon="2.34719">
        <ele>121</ele>
        <time>2017-05-07T08:21:35.371Z</time>
      </trkpt>
      <trkpt lat="47.7756" lon="2.34714">
        <ele>121</ele>
        <time>2017-05-07T08:21:36.372Z</time>
      </trkpt>
      <trkpt lat="47.7756" lon="2.34714">
        <ele>121</ele>
        <time>2017-05-07T08:21:37.384Z</time>
      </trkpt>
      <trkpt lat="47.77563" lon="2.34706">
        <ele>122</ele>
        <time>2017-05-07T08:21:38.374Z</time>
      </trkpt>
      <trkpt lat="47.77563" lon="2.34706">
        <ele>122</ele>
        <time>2017-05-07T08:21:39.365Z</time>
      </trkpt>
      <trkpt lat="47.77568" lon="2.34697">
        <ele>122</ele>
        <time>2017-05-07T08:21:40.370Z</time>
      </trkpt>
      <trkpt lat="47.77568" lon="2.34697">
        <ele>122</ele>
        <time>2017-05-07T08:21:41.366Z</time>
      </trkpt>
      <trkpt lat="47.77572" lon="2.34687">
        <ele>122</ele>
        <time>2017-05-07T08:21:42.372Z</time>
      </trkpt>
      <trkpt lat="47.77572" lon="2.34687">
        <ele>122</ele>
        <time>2017-05-07T08:21:43.368Z</time>
      </trkpt>
      <trkpt lat="47.7758" lon="2.34677">
        <ele>123</ele>
        <time>2017-05-07T08:21:44.370Z</time>
      </trkpt>
      <trkpt lat="47.7758" lon="2.34677">
        <ele>123</ele>
        <time>2017-05-07T08:21:45.361Z</time>
      </trkpt>
      <trkpt lat="47.77589" lon="2.34669">
        <ele>123</ele>
        <time>2017-05-07T08:21:46.368Z</time>
      </trkpt>
      <trkpt lat="47.77589" lon="2.34669">
        <ele>123</ele>
        <time>2017-05-07T08:21:47.392Z</time>
      </trkpt>
      <trkpt lat="47.77596" lon="2.34665">
        <ele>124</ele>
        <time>2017-05-07T08:21:48.382Z</time>
      </trkpt>
      <trkpt lat="47.77596" lon="2.34665">
        <ele>124</ele>
        <time>2017-05-07T08:21:49.366Z</time>
      </trkpt>
      <trkpt lat="47.77603" lon="2.34659">
        <ele>124</ele>
        <time>2017-05-07T08:21:50.371Z</time>
      </trkpt>
      <trkpt lat="47.77607" lon="2.34656">
        <ele>124</ele>
        <time>2017-05-07T08:21:51.371Z</time>
      </trkpt>
      <trkpt lat="47.77607" lon="2.34656">
        <ele>124</ele>
        <time>2017-05-07T08:21:52.368Z</time>
      </trkpt>
      <trkpt lat="47.77614" lon="2.34651">
        <ele>124</ele>
        <time>2017-05-07T08:21:53.368Z</time>
      </trkpt>
      <trkpt lat="47.77617" lon="2.34649">
        <ele>124</ele>
        <time>2017-05-07T08:21:54.382Z</time>
      </trkpt>
      <trkpt lat="47.77617" lon="2.34649">
        <ele>124</ele>
        <time>2017-05-07T08:21:55.379Z</time>
      </trkpt>
      <trkpt lat="47.77625" lon="2.34643">
        <ele>124</ele>
        <time>2017-05-07T08:21:56.371Z</time>
      </trkpt>
      <trkpt lat="47.77625" lon="2.34643">
        <ele>124</ele>
        <time>2017-05-07T08:21:57.371Z</time>
      </trkpt>
      <trkpt lat="47.77632" lon="2.34636">
        <ele>125</ele>
        <time>2017-05-07T08:21:58.372Z</time>
      </trkpt>
      <trkpt lat="47.77632" lon="2.34636">
        <ele>125</ele>
        <time>2017-05-07T08:21:59.390Z</time>
      </trkpt>
      <trkpt lat="47.7764" lon="2.34628">
        <ele>125</ele>
        <time>2017-05-07T08:22:00.380Z</time>
      </trkpt>
      <trkpt lat="47.7764" lon="2.34628">
        <ele>125</ele>
        <time>2017-05-07T08:22:01.367Z</time>
      </trkpt>
      <trkpt lat="47.7765" lon="2.34622">
        <ele>124</ele>
        <time>2017-05-07T08:22:02.371Z</time>
      </trkpt>
      <trkpt lat="47.77655" lon="2.34621">
        <ele>124</ele>
        <time>2017-05-07T08:22:03.369Z</time>
      </trkpt>
      <trkpt lat="47.77655" lon="2.34621">
        <ele>124</ele>
        <time>2017-05-07T08:22:04.368Z</time>
      </trkpt>
      <trkpt lat="47.77663" lon="2.34619">
        <ele>125</ele>
        <time>2017-05-07T08:22:05.369Z</time>
      </trkpt>
      <trkpt lat="47.77668" lon="2.34616">
        <ele>124</ele>
        <time>2017-05-07T08:22:06.374Z</time>
      </trkpt>
      <trkpt lat="47.77668" lon="2.34616">
        <ele>124</ele>
        <time>2017-05-07T08:22:07.374Z</time>
      </trkpt>
      <trkpt lat="47.77678" lon="2.3461">
        <ele>123</ele>
        <time>2017-05-07T08:22:08.371Z</time>
      </trkpt>
      <trkpt lat="47.77678" lon="2.3461">
        <ele>123</ele>
        <time>2017-05-07T08:22:09.368Z</time>
      </trkpt>
      <trkpt lat="47.77688" lon="2.34604">
        <ele>122</ele>
        <time>2017-05-07T08:22:10.369Z</time>
      </trkpt>
      <trkpt lat="47.77688" lon="2.34604">
        <ele>122</ele>
        <time>2017-05-07T08:22:11.367Z</time>
      </trkpt>
      <trkpt lat="47.77698" lon="2.34599">
        <ele>121</ele>
        <time>2017-05-07T08:22:12.370Z</time>
      </trkpt>
      <trkpt lat="47.77698" lon="2.34599">
        <ele>121</ele>
        <time>2017-05-07T08:22:13.392Z</time>
      </trkpt>
      <trkpt lat="47.77709" lon="2.34594">
        <ele>121</ele>
        <time>2017-05-07T08:22:14.380Z</time>
      </trkpt>
      <trkpt lat="47.77714" lon="2.3459">
        <ele>121</ele>
        <time>2017-05-07T08:22:15.371Z</time>
      </trkpt>
      <trkpt lat="47.77714" lon="2.3459">
        <ele>121</ele>
        <time>2017-05-07T08:22:16.367Z</time>
      </trkpt>
      <trkpt lat="47.77722" lon="2.34583">
        <ele>120</ele>
        <time>2017-05-07T08:22:17.371Z</time>
      </trkpt>
      <trkpt lat="47.77727" lon="2.34581">
        <ele>120</ele>
        <time>2017-05-07T08:22:18.372Z</time>
      </trkpt>
      <trkpt lat="47.77727" lon="2.34581">
        <ele>120</ele>
        <time>2017-05-07T08:22:19.368Z</time>
      </trkpt>
      <trkpt lat="47.77737" lon="2.34576">
        <ele>119</ele>
        <time>2017-05-07T08:22:20.371Z</time>
      </trkpt>
      <trkpt lat="47.77741" lon="2.34572">
        <ele>119</ele>
        <time>2017-05-07T08:22:21.369Z</time>
      </trkpt>
      <trkpt lat="47.77741" lon="2.34572">
        <ele>119</ele>
        <time>2017-05-07T08:22:22.390Z</time>
      </trkpt>
      <trkpt lat="47.77748" lon="2.34562">
        <ele>118</ele>
        <time>2017-05-07T08:22:23.380Z</time>
      </trkpt>
      <trkpt lat="47.77753" lon="2.34557">
        <ele>118</ele>
        <time>2017-05-07T08:22:24.393Z</time>
      </trkpt>
      <trkpt lat="47.77753" lon="2.34557">
        <ele>118</ele>
        <time>2017-05-07T08:22:25.369Z</time>
      </trkpt>
      <trkpt lat="47.77762" lon="2.34552">
        <ele>118</ele>
        <time>2017-05-07T08:22:26.371Z</time>
      </trkpt>
      <trkpt lat="47.77766" lon="2.34549">
        <ele>118</ele>
        <time>2017-05-07T08:22:27.369Z</time>
      </trkpt>
      <trkpt lat="47.77766" lon="2.34549">
        <ele>118</ele>
        <time>2017-05-07T08:22:28.369Z</time>
      </trkpt>
      <trkpt lat="47.77774" lon="2.34542">
        <ele>117</ele>
        <time>2017-05-07T08:22:29.369Z</time>
      </trkpt>
      <trkpt lat="47.77774" lon="2.34542">
        <ele>117</ele>
        <time>2017-05-07T08:22:30.367Z</time>
      </trkpt>
      <trkpt lat="47.77783" lon="2.34536">
        <ele>117</ele>
        <time>2017-05-07T08:22:31.372Z</time>
      </trkpt>
      <trkpt lat="47.77783" lon="2.34536">
        <ele>117</ele>
        <time>2017-05-07T08:22:32.366Z</time>
      </trkpt>
      <trkpt lat="47.77791" lon="2.34531">
        <ele>117</ele>
        <time>2017-05-07T08:22:33.372Z</time>
      </trkpt>
      <trkpt lat="47.77791" lon="2.34531">
        <ele>117</ele>
        <time>2017-05-07T08:22:34.369Z</time>
      </trkpt>
      <trkpt lat="47.77799" lon="2.34526">
        <ele>116</ele>
        <time>2017-05-07T08:22:35.372Z</time>
      </trkpt>
      <trkpt lat="47.77799" lon="2.34526">
        <ele>116</ele>
        <time>2017-05-07T08:22:36.369Z</time>
      </trkpt>
      <trkpt lat="47.77807" lon="2.34522">
        <ele>116</ele>
        <time>2017-05-07T08:22:37.372Z</time>
      </trkpt>
      <trkpt lat="47.77807" lon="2.34522">
        <ele>116</ele>
        <time>2017-05-07T08:22:38.366Z</time>
      </trkpt>
      <trkpt lat="47.77815" lon="2.34518">
        <ele>116</ele>
        <time>2017-05-07T08:22:39.372Z</time>
      </trkpt>
      <trkpt lat="47.77815" lon="2.34518">
        <ele>116</ele>
        <time>2017-05-07T08:22:40.366Z</time>
      </trkpt>
      <trkpt lat="47.77822" lon="2.34515">
        <ele>116</ele>
        <time>2017-05-07T08:22:41.370Z</time>
      </trkpt>
      <trkpt lat="47.77825" lon="2.34514">
        <ele>116</ele>
        <time>2017-05-07T08:22:42.370Z</time>
      </trkpt>
      <trkpt lat="47.77825" lon="2.34514">
        <ele>116</ele>
        <time>2017-05-07T08:22:43.392Z</time>
      </trkpt>
      <trkpt lat="47.77832" lon="2.3451">
        <ele>116</ele>
        <time>2017-05-07T08:22:44.379Z</time>
      </trkpt>
      <trkpt lat="47.77835" lon="2.34508">
        <ele>116</ele>
        <time>2017-05-07T08:22:45.370Z</time>
      </trkpt>
      <trkpt lat="47.77838" lon="2.34506">
        <ele>116</ele>
        <time>2017-05-07T08:22:46.371Z</time>
      </trkpt>
      <trkpt lat="47.77838" lon="2.34506">
        <ele>116</ele>
        <time>2017-05-07T08:22:47.375Z</time>
      </trkpt>
      <trkpt lat="47.77845" lon="2.34501">
        <ele>116</ele>
        <time>2017-05-07T08:22:48.373Z</time>
      </trkpt>
      <trkpt lat="47.77845" lon="2.34501">
        <ele>116</ele>
        <time>2017-05-07T08:22:49.368Z</time>
      </trkpt>
      <trkpt lat="47.77852" lon="2.34496">
        <ele>116</ele>
        <time>2017-05-07T08:22:50.386Z</time>
      </trkpt>
      <trkpt lat="47.77855" lon="2.34494">
        <ele>116</ele>
        <time>2017-05-07T08:22:51.377Z</time>
      </trkpt>
      <trkpt lat="47.77855" lon="2.34494">
        <ele>116</ele>
        <time>2017-05-07T08:22:52.367Z</time>
      </trkpt>
      <trkpt lat="47.77861" lon="2.34492">
        <ele>116</ele>
        <time>2017-05-07T08:22:53.372Z</time>
      </trkpt>
      <trkpt lat="47.77861" lon="2.34492">
        <ele>116</ele>
        <time>2017-05-07T08:22:54.367Z</time>
      </trkpt>
      <trkpt lat="47.77868" lon="2.34491">
        <ele>116</ele>
        <time>2017-05-07T08:22:55.369Z</time>
      </trkpt>
      <trkpt lat="47.77868" lon="2.34491">
        <ele>116</ele>
        <time>2017-05-07T08:22:56.366Z</time>
      </trkpt>
      <trkpt lat="47.77875" lon="2.34486">
        <ele>116</ele>
        <time>2017-05-07T08:22:57.371Z</time>
      </trkpt>
      <trkpt lat="47.77878" lon="2.34483">
        <ele>117</ele>
        <time>2017-05-07T08:22:58.372Z</time>
      </trkpt>
      <trkpt lat="47.77878" lon="2.34483">
        <ele>117</ele>
        <time>2017-05-07T08:22:59.375Z</time>
      </trkpt>
      <trkpt lat="47.77883" lon="2.34477">
        <ele>117</ele>
        <time>2017-05-07T08:23:00.372Z</time>
      </trkpt>
      <trkpt lat="47.77883" lon="2.34477">
        <ele>117</ele>
        <time>2017-05-07T08:23:01.374Z</time>
      </trkpt>
      <trkpt lat="47.77885" lon="2.34474">
        <ele>117</ele>
        <time>2017-05-07T08:23:02.367Z</time>
      </trkpt>
      <trkpt lat="47.77889" lon="2.34469">
        <ele>117</ele>
        <time>2017-05-07T08:23:03.370Z</time>
      </trkpt>
      <trkpt lat="47.77889" lon="2.34469">
        <ele>117</ele>
        <time>2017-05-07T08:23:04.367Z</time>
      </trkpt>
      <trkpt lat="47.77892" lon="2.34462">
        <ele>117</ele>
        <time>2017-05-07T08:23:05.373Z</time>
      </trkpt>
      <trkpt lat="47.77892" lon="2.34462">
        <ele>117</ele>
        <time>2017-05-07T08:23:06.371Z</time>
      </trkpt>
      <trkpt lat="47.77895" lon="2.34455">
        <ele>117</ele>
        <time>2017-05-07T08:23:07.371Z</time>
      </trkpt>
      <trkpt lat="47.77895" lon="2.34455">
        <ele>117</ele>
        <time>2017-05-07T08:23:08.393Z</time>
      </trkpt>
      <trkpt lat="47.779" lon="2.3445">
        <ele>117</ele>
        <time>2017-05-07T08:23:09.384Z</time>
      </trkpt>
      <trkpt lat="47.779" lon="2.3445">
        <ele>117</ele>
        <time>2017-05-07T08:23:10.358Z</time>
      </trkpt>
      <trkpt lat="47.77906" lon="2.34449">
        <ele>117</ele>
        <time>2017-05-07T08:23:11.365Z</time>
      </trkpt>
      <trkpt lat="47.77909" lon="2.34447">
        <ele>117</ele>
        <time>2017-05-07T08:23:12.371Z</time>
      </trkpt>
      <trkpt lat="47.77912" lon="2.34445">
        <ele>117</ele>
        <time>2017-05-07T08:23:13.381Z</time>
      </trkpt>
      <trkpt lat="47.77916" lon="2.34443">
        <ele>117</ele>
        <time>2017-05-07T08:23:14.372Z</time>
      </trkpt>
      <trkpt lat="47.77916" lon="2.34443">
        <ele>117</ele>
        <time>2017-05-07T08:23:15.369Z</time>
      </trkpt>
      <trkpt lat="47.77923" lon="2.34439">
        <ele>117</ele>
        <time>2017-05-07T08:23:16.392Z</time>
      </trkpt>
      <trkpt lat="47.77926" lon="2.34438">
        <ele>117</ele>
        <time>2017-05-07T08:23:17.375Z</time>
      </trkpt>
      <trkpt lat="47.77927" lon="2.34438">
        <ele>117</ele>
        <time>2017-05-07T08:23:18.375Z</time>
      </trkpt>
      <trkpt lat="47.77927" lon="2.34438">
        <ele>117</ele>
        <time>2017-05-07T08:23:19.358Z</time>
      </trkpt>
      <trkpt lat="47.77928" lon="2.34438">
        <ele>117</ele>
        <time>2017-05-07T08:23:20.387Z</time>
      </trkpt>
      <trkpt lat="47.77929" lon="2.34438">
        <ele>117</ele>
        <time>2017-05-07T08:23:21.374Z</time>
      </trkpt>
      <trkpt lat="47.77929" lon="2.34438">
        <ele>117</ele>
        <time>2017-05-07T08:23:22.389Z</time>
      </trkpt>
      <trkpt lat="47.77942" lon="2.34427">
        <ele>117</ele>
        <time>2017-05-07T08:23:23.386Z</time>
      </trkpt>
      <trkpt lat="47.77942" lon="2.34427">
        <ele>117</ele>
        <time>2017-05-07T08:23:24.384Z</time>
      </trkpt>
      <trkpt lat="47.77942" lon="2.34427">
        <ele>117</ele>
        <time>2017-05-07T08:23:25.379Z</time>
      </trkpt>
      <trkpt lat="47.77943" lon="2.34426">
        <ele>117</ele>
        <time>2017-05-07T08:23:26.385Z</time>
      </trkpt>
      <trkpt lat="47.77943" lon="2.34426">
        <ele>117</ele>
        <time>2017-05-07T08:23:27.368Z</time>
      </trkpt>
      <trkpt lat="47.77948" lon="2.34421">
        <ele>118</ele>
        <time>2017-05-07T08:23:28.379Z</time>
      </trkpt>
      <trkpt lat="47.77948" lon="2.34421">
        <ele>118</ele>
        <time>2017-05-07T08:23:29.380Z</time>
      </trkpt>
      <trkpt lat="47.7795" lon="2.34419">
        <ele>118</ele>
        <time>2017-05-07T08:23:30.378Z</time>
      </trkpt>
      <trkpt lat="47.7795" lon="2.34419">
        <ele>118</ele>
        <time>2017-05-07T08:23:31.373Z</time>
      </trkpt>
      <trkpt lat="47.77953" lon="2.34417">
        <ele>118</ele>
        <time>2017-05-07T08:23:32.378Z</time>
      </trkpt>
      <trkpt lat="47.77954" lon="2.34415">
        <ele>118</ele>
        <time>2017-05-07T08:23:33.379Z</time>
      </trkpt>
      <trkpt lat="47.77954" lon="2.34415">
        <ele>118</ele>
        <time>2017-05-07T08:23:34.373Z</time>
      </trkpt>
      <trkpt lat="47.77958" lon="2.3441">
        <ele>117</ele>
        <time>2017-05-07T08:23:35.381Z</time>
      </trkpt>
      <trkpt lat="47.77958" lon="2.3441">
        <ele>117</ele>
        <time>2017-05-07T08:23:36.373Z</time>
      </trkpt>
      <trkpt lat="47.77961" lon="2.34407">
        <ele>117</ele>
        <time>2017-05-07T08:23:37.379Z</time>
      </trkpt>
      <trkpt lat="47.77961" lon="2.34407">
        <ele>117</ele>
        <time>2017-05-07T08:23:38.373Z</time>
      </trkpt>
      <trkpt lat="47.77963" lon="2.34403">
        <ele>117</ele>
        <time>2017-05-07T08:23:39.392Z</time>
      </trkpt>
      <trkpt lat="47.77963" lon="2.34403">
        <ele>117</ele>
        <time>2017-05-07T08:23:40.380Z</time>
      </trkpt>
      <trkpt lat="47.77965" lon="2.34398">
        <ele>117</ele>
        <time>2017-05-07T08:23:41.380Z</time>
      </trkpt>
      <trkpt lat="47.77965" lon="2.34398">
        <ele>117</ele>
        <time>2017-05-07T08:23:42.373Z</time>
      </trkpt>
      <trkpt lat="47.77969" lon="2.34393">
        <ele>117</ele>
        <time>2017-05-07T08:23:43.379Z</time>
      </trkpt>
      <trkpt lat="47.77969" lon="2.34393">
        <ele>117</ele>
        <time>2017-05-07T08:23:44.357Z</time>
      </trkpt>
      <trkpt lat="47.77973" lon="2.34388">
        <ele>117</ele>
        <time>2017-05-07T08:23:45.387Z</time>
      </trkpt>
      <trkpt lat="47.77976" lon="2.34385">
        <ele>117</ele>
        <time>2017-05-07T08:23:46.377Z</time>
      </trkpt>
      <trkpt lat="47.77978" lon="2.34383">
        <ele>117</ele>
        <time>2017-05-07T08:23:47.377Z</time>
      </trkpt>
      <trkpt lat="47.77978" lon="2.34383">
        <ele>117</ele>
        <time>2017-05-07T08:23:48.374Z</time>
      </trkpt>
      <trkpt lat="47.77982" lon="2.34382">
        <ele>117</ele>
        <time>2017-05-07T08:23:49.388Z</time>
      </trkpt>
      <trkpt lat="47.77985" lon="2.34381">
        <ele>116</ele>
        <time>2017-05-07T08:23:50.377Z</time>
      </trkpt>
      <trkpt lat="47.77985" lon="2.34381">
        <ele>116</ele>
        <time>2017-05-07T08:23:51.373Z</time>
      </trkpt>
      <trkpt lat="47.77989" lon="2.34377">
        <ele>116</ele>
        <time>2017-05-07T08:23:52.378Z</time>
      </trkpt>
      <trkpt lat="47.77992" lon="2.34373">
        <ele>116</ele>
        <time>2017-05-07T08:23:53.392Z</time>
      </trkpt>
      <trkpt lat="47.77992" lon="2.34373">
        <ele>116</ele>
        <time>2017-05-07T08:23:54.382Z</time>
      </trkpt>
      <trkpt lat="47.77997" lon="2.34367">
        <ele>115</ele>
        <time>2017-05-07T08:23:55.378Z</time>
      </trkpt>
      <trkpt lat="47.77999" lon="2.34365">
        <ele>115</ele>
        <time>2017-05-07T08:23:56.377Z</time>
      </trkpt>
      <trkpt lat="47.78002" lon="2.34362">
        <ele>114</ele>
        <time>2017-05-07T08:23:57.378Z</time>
      </trkpt>
      <trkpt lat="47.78002" lon="2.34362">
        <ele>114</ele>
        <time>2017-05-07T08:23:58.385Z</time>
      </trkpt>
      <trkpt lat="47.78005" lon="2.34357">
        <ele>114</ele>
        <time>2017-05-07T08:23:59.378Z</time>
      </trkpt>
      <trkpt lat="47.78005" lon="2.34357">
        <ele>114</ele>
        <time>2017-05-07T08:24:00.372Z</time>
      </trkpt>
      <trkpt lat="47.78007" lon="2.3435">
        <ele>113</ele>
        <time>2017-05-07T08:24:01.379Z</time>
      </trkpt>
      <trkpt lat="47.78007" lon="2.3435">
        <ele>113</ele>
        <time>2017-05-07T08:24:02.376Z</time>
      </trkpt>
      <trkpt lat="47.7801" lon="2.34344">
        <ele>113</ele>
        <time>2017-05-07T08:24:03.377Z</time>
      </trkpt>
      <trkpt lat="47.78011" lon="2.34341">
        <ele>112</ele>
        <time>2017-05-07T08:24:04.379Z</time>
      </trkpt>
      <trkpt lat="47.78013" lon="2.34338">
        <ele>112</ele>
        <time>2017-05-07T08:24:05.379Z</time>
      </trkpt>
      <trkpt lat="47.78013" lon="2.34338">
        <ele>112</ele>
        <time>2017-05-07T08:24:06.372Z</time>
      </trkpt>
      <trkpt lat="47.78017" lon="2.34333">
        <ele>112</ele>
        <time>2017-05-07T08:24:07.388Z</time>
      </trkpt>
      <trkpt lat="47.7802" lon="2.3433">
        <ele>112</ele>
        <time>2017-05-07T08:24:08.377Z</time>
      </trkpt>
      <trkpt lat="47.7802" lon="2.3433">
        <ele>112</ele>
        <time>2017-05-07T08:24:09.372Z</time>
      </trkpt>
      <trkpt lat="47.78024" lon="2.34325">
        <ele>111</ele>
        <time>2017-05-07T08:24:10.377Z</time>
      </trkpt>
      <trkpt lat="47.78026" lon="2.34323">
        <ele>111</ele>
        <time>2017-05-07T08:24:11.380Z</time>
      </trkpt>
      <trkpt lat="47.78026" lon="2.34323">
        <ele>111</ele>
        <time>2017-05-07T08:24:12.375Z</time>
      </trkpt>
      <trkpt lat="47.78031" lon="2.3432">
        <ele>111</ele>
        <time>2017-05-07T08:24:13.378Z</time>
      </trkpt>
      <trkpt lat="47.78031" lon="2.3432">
        <ele>111</ele>
        <time>2017-05-07T08:24:14.372Z</time>
      </trkpt>
      <trkpt lat="47.78036" lon="2.34317">
        <ele>111</ele>
        <time>2017-05-07T08:24:15.379Z</time>
      </trkpt>
      <trkpt lat="47.78036" lon="2.34317">
        <ele>111</ele>
        <time>2017-05-07T08:24:16.355Z</time>
      </trkpt>
      <trkpt lat="47.7804" lon="2.34314">
        <ele>110</ele>
        <time>2017-05-07T08:24:17.386Z</time>
      </trkpt>
      <trkpt lat="47.7804" lon="2.34314">
        <ele>110</ele>
        <time>2017-05-07T08:24:18.374Z</time>
      </trkpt>
      <trkpt lat="47.78046" lon="2.34312">
        <ele>111</ele>
        <time>2017-05-07T08:24:19.377Z</time>
      </trkpt>
      <trkpt lat="47.78048" lon="2.3431">
        <ele>111</ele>
        <time>2017-05-07T08:24:20.386Z</time>
      </trkpt>
      <trkpt lat="47.78049" lon="2.34308">
        <ele>112</ele>
        <time>2017-05-07T08:24:21.378Z</time>
      </trkpt>
      <trkpt lat="47.78049" lon="2.34308">
        <ele>112</ele>
        <time>2017-05-07T08:24:22.372Z</time>
      </trkpt>
      <trkpt lat="47.78052" lon="2.343">
        <ele>112</ele>
        <time>2017-05-07T08:24:23.379Z</time>
      </trkpt>
      <trkpt lat="47.78054" lon="2.34296">
        <ele>112</ele>
        <time>2017-05-07T08:24:24.379Z</time>
      </trkpt>
      <trkpt lat="47.78054" lon="2.34296">
        <ele>112</ele>
        <time>2017-05-07T08:24:25.388Z</time>
      </trkpt>
      <trkpt lat="47.78059" lon="2.34291">
        <ele>112</ele>
        <time>2017-05-07T08:24:26.379Z</time>
      </trkpt>
      <trkpt lat="47.78059" lon="2.34291">
        <ele>112</ele>
        <time>2017-05-07T08:24:27.374Z</time>
      </trkpt>
      <trkpt lat="47.78066" lon="2.34287">
        <ele>112</ele>
        <time>2017-05-07T08:24:28.378Z</time>
      </trkpt>
      <trkpt lat="47.78069" lon="2.34285">
        <ele>112</ele>
        <time>2017-05-07T08:24:29.379Z</time>
      </trkpt>
      <trkpt lat="47.78069" lon="2.34285">
        <ele>112</ele>
        <time>2017-05-07T08:24:30.371Z</time>
      </trkpt>
      <trkpt lat="47.78072" lon="2.3428">
        <ele>113</ele>
        <time>2017-05-07T08:24:31.377Z</time>
      </trkpt>
      <trkpt lat="47.78072" lon="2.3428">
        <ele>113</ele>
        <time>2017-05-07T08:24:32.374Z</time>
      </trkpt>
      <trkpt lat="47.78075" lon="2.34277">
        <ele>113</ele>
        <time>2017-05-07T08:24:33.379Z</time>
      </trkpt>
      <trkpt lat="47.78075" lon="2.34277">
        <ele>113</ele>
        <time>2017-05-07T08:24:34.371Z</time>
      </trkpt>
      <trkpt lat="47.7808" lon="2.34274">
        <ele>112</ele>
        <time>2017-05-07T08:24:35.379Z</time>
      </trkpt>
      <trkpt lat="47.7808" lon="2.34274">
        <ele>112</ele>
        <time>2017-05-07T08:24:36.358Z</time>
      </trkpt>
      <trkpt lat="47.78086" lon="2.34269">
        <ele>112</ele>
        <time>2017-05-07T08:24:37.387Z</time>
      </trkpt>
      <trkpt lat="47.78088" lon="2.34265">
        <ele>112</ele>
        <time>2017-05-07T08:24:38.377Z</time>
      </trkpt>
      <trkpt lat="47.78091" lon="2.34263">
        <ele>112</ele>
        <time>2017-05-07T08:24:39.379Z</time>
      </trkpt>
      <trkpt lat="47.78092" lon="2.34262">
        <ele>112</ele>
        <time>2017-05-07T08:24:40.385Z</time>
      </trkpt>
      <trkpt lat="47.78095" lon="2.3426">
        <ele>112</ele>
        <time>2017-05-07T08:24:41.379Z</time>
      </trkpt>
      <trkpt lat="47.78095" lon="2.3426">
        <ele>112</ele>
        <time>2017-05-07T08:24:42.372Z</time>
      </trkpt>
      <trkpt lat="47.781" lon="2.34257">
        <ele>112</ele>
        <time>2017-05-07T08:24:43.377Z</time>
      </trkpt>
      <trkpt lat="47.78102" lon="2.34256">
        <ele>112</ele>
        <time>2017-05-07T08:24:44.391Z</time>
      </trkpt>
      <trkpt lat="47.78102" lon="2.34256">
        <ele>112</ele>
        <time>2017-05-07T08:24:45.378Z</time>
      </trkpt>
      <trkpt lat="47.78106" lon="2.34254">
        <ele>112</ele>
        <time>2017-05-07T08:24:46.377Z</time>
      </trkpt>
      <trkpt lat="47.78109" lon="2.34252">
        <ele>112</ele>
        <time>2017-05-07T08:24:47.377Z</time>
      </trkpt>
      <trkpt lat="47.78109" lon="2.34252">
        <ele>112</ele>
        <time>2017-05-07T08:24:48.374Z</time>
      </trkpt>
      <trkpt lat="47.78115" lon="2.34248">
        <ele>112</ele>
        <time>2017-05-07T08:24:49.377Z</time>
      </trkpt>
      <trkpt lat="47.78115" lon="2.34248">
        <ele>112</ele>
        <time>2017-05-07T08:24:50.374Z</time>
      </trkpt>
      <trkpt lat="47.78121" lon="2.34242">
        <ele>112</ele>
        <time>2017-05-07T08:24:51.380Z</time>
      </trkpt>
      <trkpt lat="47.78121" lon="2.34242">
        <ele>112</ele>
        <time>2017-05-07T08:24:52.376Z</time>
      </trkpt>
      <trkpt lat="47.78122" lon="2.34235">
        <ele>112</ele>
        <time>2017-05-07T08:24:53.391Z</time>
      </trkpt>
      <trkpt lat="47.78122" lon="2.34235">
        <ele>112</ele>
        <time>2017-05-07T08:24:54.379Z</time>
      </trkpt>
      <trkpt lat="47.78125" lon="2.34229">
        <ele>112</ele>
        <time>2017-05-07T08:24:55.379Z</time>
      </trkpt>
      <trkpt lat="47.78127" lon="2.34227">
        <ele>112</ele>
        <time>2017-05-07T08:24:56.378Z</time>
      </trkpt>
      <trkpt lat="47.78127" lon="2.34227">
        <ele>112</ele>
        <time>2017-05-07T08:24:57.376Z</time>
      </trkpt>
      <trkpt lat="47.7813" lon="2.34224">
        <ele>113</ele>
        <time>2017-05-07T08:24:58.379Z</time>
      </trkpt>
      <trkpt lat="47.78132" lon="2.34222">
        <ele>113</ele>
        <time>2017-05-07T08:24:59.384Z</time>
      </trkpt>
      <trkpt lat="47.78132" lon="2.34222">
        <ele>113</ele>
        <time>2017-05-07T08:25:00.356Z</time>
      </trkpt>
      <trkpt lat="47.78137" lon="2.34219">
        <ele>113</ele>
        <time>2017-05-07T08:25:01.386Z</time>
      </trkpt>
      <trkpt lat="47.7814" lon="2.34217">
        <ele>113</ele>
        <time>2017-05-07T08:25:02.379Z</time>
      </trkpt>
      <trkpt lat="47.7814" lon="2.34217">
        <ele>113</ele>
        <time>2017-05-07T08:25:03.374Z</time>
      </trkpt>
      <trkpt lat="47.78144" lon="2.34213">
        <ele>113</ele>
        <time>2017-05-07T08:25:04.379Z</time>
      </trkpt>
      <trkpt lat="47.78147" lon="2.34211">
        <ele>113</ele>
        <time>2017-05-07T08:25:05.381Z</time>
      </trkpt>
      <trkpt lat="47.78147" lon="2.34211">
        <ele>113</ele>
        <time>2017-05-07T08:25:06.370Z</time>
      </trkpt>
      <trkpt lat="47.78152" lon="2.34206">
        <ele>112</ele>
        <time>2017-05-07T08:25:07.379Z</time>
      </trkpt>
      <trkpt lat="47.78152" lon="2.34206">
        <ele>112</ele>
        <time>2017-05-07T08:25:08.374Z</time>
      </trkpt>
      <trkpt lat="47.78156" lon="2.34204">
        <ele>113</ele>
        <time>2017-05-07T08:25:09.378Z</time>
      </trkpt>
      <trkpt lat="47.78156" lon="2.34204">
        <ele>113</ele>
        <time>2017-05-07T08:25:10.372Z</time>
      </trkpt>
      <trkpt lat="47.78159" lon="2.34198">
        <ele>113</ele>
        <time>2017-05-07T08:25:11.380Z</time>
      </trkpt>
      <trkpt lat="47.78159" lon="2.34198">
        <ele>113</ele>
        <time>2017-05-07T08:25:12.371Z</time>
      </trkpt>
      <trkpt lat="47.78164" lon="2.34195">
        <ele>113</ele>
        <time>2017-05-07T08:25:13.377Z</time>
      </trkpt>
      <trkpt lat="47.78164" lon="2.34195">
        <ele>113</ele>
        <time>2017-05-07T08:25:14.374Z</time>
      </trkpt>
      <trkpt lat="47.78169" lon="2.3419">
        <ele>113</ele>
        <time>2017-05-07T08:25:15.379Z</time>
      </trkpt>
      <trkpt lat="47.78169" lon="2.3419">
        <ele>113</ele>
        <time>2017-05-07T08:25:16.373Z</time>
      </trkpt>
      <trkpt lat="47.78174" lon="2.34186">
        <ele>113</ele>
        <time>2017-05-07T08:25:17.381Z</time>
      </trkpt>
      <trkpt lat="47.78174" lon="2.34186">
        <ele>113</ele>
        <time>2017-05-07T08:25:18.374Z</time>
      </trkpt>
      <trkpt lat="47.78179" lon="2.34183">
        <ele>113</ele>
        <time>2017-05-07T08:25:19.377Z</time>
      </trkpt>
      <trkpt lat="47.78179" lon="2.34183">
        <ele>113</ele>
        <time>2017-05-07T08:25:20.373Z</time>
      </trkpt>
      <trkpt lat="47.78181" lon="2.3418">
        <ele>112</ele>
        <time>2017-05-07T08:25:21.364Z</time>
      </trkpt>
      <trkpt lat="47.78181" lon="2.3418">
        <ele>112</ele>
        <time>2017-05-07T08:25:22.394Z</time>
      </trkpt>
      <trkpt lat="47.78184" lon="2.34177">
        <ele>112</ele>
        <time>2017-05-07T08:25:23.383Z</time>
      </trkpt>
      <trkpt lat="47.78184" lon="2.34177">
        <ele>112</ele>
        <time>2017-05-07T08:25:24.373Z</time>
      </trkpt>
      <trkpt lat="47.78187" lon="2.34176">
        <ele>113</ele>
        <time>2017-05-07T08:25:25.393Z</time>
      </trkpt>
      <trkpt lat="47.78187" lon="2.34176">
        <ele>113</ele>
        <time>2017-05-07T08:25:26.382Z</time>
      </trkpt>
      <trkpt lat="47.78191" lon="2.34173">
        <ele>113</ele>
        <time>2017-05-07T08:25:27.390Z</time>
      </trkpt>
      <trkpt lat="47.78191" lon="2.34173">
        <ele>113</ele>
        <time>2017-05-07T08:25:28.379Z</time>
      </trkpt>
      <trkpt lat="47.78194" lon="2.34167">
        <ele>113</ele>
        <time>2017-05-07T08:25:29.380Z</time>
      </trkpt>
      <trkpt lat="47.78194" lon="2.34167">
        <ele>113</ele>
        <time>2017-05-07T08:25:30.374Z</time>
      </trkpt>
      <trkpt lat="47.78197" lon="2.34163">
        <ele>114</ele>
        <time>2017-05-07T08:25:31.355Z</time>
      </trkpt>
      <trkpt lat="47.78197" lon="2.34163">
        <ele>114</ele>
        <time>2017-05-07T08:25:32.384Z</time>
      </trkpt>
      <trkpt lat="47.782" lon="2.34159">
        <ele>114</ele>
        <time>2017-05-07T08:25:33.379Z</time>
      </trkpt>
      <trkpt lat="47.782" lon="2.34159">
        <ele>114</ele>
        <time>2017-05-07T08:25:34.374Z</time>
      </trkpt>
      <trkpt lat="47.78204" lon="2.34154">
        <ele>114</ele>
        <time>2017-05-07T08:25:35.382Z</time>
      </trkpt>
      <trkpt lat="47.78204" lon="2.34154">
        <ele>114</ele>
        <time>2017-05-07T08:25:36.374Z</time>
      </trkpt>
      <trkpt lat="47.78207" lon="2.3415">
        <ele>115</ele>
        <time>2017-05-07T08:25:37.379Z</time>
      </trkpt>
      <trkpt lat="47.78207" lon="2.3415">
        <ele>115</ele>
        <time>2017-05-07T08:25:38.374Z</time>
      </trkpt>
      <trkpt lat="47.78215" lon="2.34148">
        <ele>115</ele>
        <time>2017-05-07T08:25:39.382Z</time>
      </trkpt>
      <trkpt lat="47.78215" lon="2.34148">
        <ele>115</ele>
        <time>2017-05-07T08:25:40.374Z</time>
      </trkpt>
      <trkpt lat="47.78221" lon="2.34145">
        <ele>115</ele>
        <time>2017-05-07T08:25:41.381Z</time>
      </trkpt>
      <trkpt lat="47.78221" lon="2.34145">
        <ele>115</ele>
        <time>2017-05-07T08:25:42.373Z</time>
      </trkpt>
      <trkpt lat="47.78225" lon="2.3414">
        <ele>115</ele>
        <time>2017-05-07T08:25:43.377Z</time>
      </trkpt>
      <trkpt lat="47.78225" lon="2.3414">
        <ele>115</ele>
        <time>2017-05-07T08:25:44.373Z</time>
      </trkpt>
      <trkpt lat="47.78228" lon="2.34133">
        <ele>115</ele>
        <time>2017-05-07T08:25:45.379Z</time>
      </trkpt>
      <trkpt lat="47.78228" lon="2.34133">
        <ele>115</ele>
        <time>2017-05-07T08:25:46.375Z</time>
      </trkpt>
      <trkpt lat="47.78231" lon="2.34127">
        <ele>115</ele>
        <time>2017-05-07T08:25:47.382Z</time>
      </trkpt>
      <trkpt lat="47.78231" lon="2.34127">
        <ele>115</ele>
        <time>2017-05-07T08:25:48.370Z</time>
      </trkpt>
      <trkpt lat="47.78235" lon="2.34124">
        <ele>115</ele>
        <time>2017-05-07T08:25:49.356Z</time>
      </trkpt>
      <trkpt lat="47.78235" lon="2.34124">
        <ele>115</ele>
        <time>2017-05-07T08:25:50.383Z</time>
      </trkpt>
      <trkpt lat="47.78239" lon="2.34122">
        <ele>116</ele>
        <time>2017-05-07T08:25:51.378Z</time>
      </trkpt>
      <trkpt lat="47.78239" lon="2.34122">
        <ele>116</ele>
        <time>2017-05-07T08:25:52.384Z</time>
      </trkpt>
      <trkpt lat="47.78244" lon="2.34119">
        <ele>116</ele>
        <time>2017-05-07T08:25:53.381Z</time>
      </trkpt>
      <trkpt lat="47.78244" lon="2.34119">
        <ele>116</ele>
        <time>2017-05-07T08:25:54.381Z</time>
      </trkpt>
      <trkpt lat="47.78248" lon="2.34114">
        <ele>116</ele>
        <time>2017-05-07T08:25:55.377Z</time>
      </trkpt>
      <trkpt lat="47.7825" lon="2.34113">
        <ele>116</ele>
        <time>2017-05-07T08:25:56.378Z</time>
      </trkpt>
      <trkpt lat="47.7825" lon="2.34113">
        <ele>116</ele>
        <time>2017-05-07T08:25:57.372Z</time>
      </trkpt>
      <trkpt lat="47.78254" lon="2.34108">
        <ele>116</ele>
        <time>2017-05-07T08:25:58.380Z</time>
      </trkpt>
      <trkpt lat="47.78256" lon="2.34105">
        <ele>116</ele>
        <time>2017-05-07T08:25:59.382Z</time>
      </trkpt>
      <trkpt lat="47.78256" lon="2.34105">
        <ele>116</ele>
        <time>2017-05-07T08:26:00.375Z</time>
      </trkpt>
      <trkpt lat="47.78261" lon="2.341">
        <ele>116</ele>
        <time>2017-05-07T08:26:01.381Z</time>
      </trkpt>
      <trkpt lat="47.78261" lon="2.341">
        <ele>116</ele>
        <time>2017-05-07T08:26:02.374Z</time>
      </trkpt>
      <trkpt lat="47.78264" lon="2.34096">
        <ele>116</ele>
        <time>2017-05-07T08:26:03.379Z</time>
      </trkpt>
      <trkpt lat="47.78264" lon="2.34096">
        <ele>116</ele>
        <time>2017-05-07T08:26:04.369Z</time>
      </trkpt>
      <trkpt lat="47.78268" lon="2.34092">
        <ele>117</ele>
        <time>2017-05-07T08:26:05.358Z</time>
      </trkpt>
      <trkpt lat="47.78268" lon="2.34092">
        <ele>117</ele>
        <time>2017-05-07T08:26:06.356Z</time>
      </trkpt>
      <trkpt lat="47.78275" lon="2.34092">
        <ele>118</ele>
        <time>2017-05-07T08:26:07.386Z</time>
      </trkpt>
      <trkpt lat="47.78275" lon="2.34092">
        <ele>118</ele>
        <time>2017-05-07T08:26:08.376Z</time>
      </trkpt>
      <trkpt lat="47.78281" lon="2.34089">
        <ele>118</ele>
        <time>2017-05-07T08:26:09.379Z</time>
      </trkpt>
      <trkpt lat="47.78281" lon="2.34089">
        <ele>118</ele>
        <time>2017-05-07T08:26:10.374Z</time>
      </trkpt>
      <trkpt lat="47.78285" lon="2.34085">
        <ele>118</ele>
        <time>2017-05-07T08:26:11.382Z</time>
      </trkpt>
      <trkpt lat="47.78285" lon="2.34085">
        <ele>118</ele>
        <time>2017-05-07T08:26:12.375Z</time>
      </trkpt>
      <trkpt lat="47.78289" lon="2.3408">
        <ele>118</ele>
        <time>2017-05-07T08:26:13.379Z</time>
      </trkpt>
      <trkpt lat="47.78289" lon="2.3408">
        <ele>118</ele>
        <time>2017-05-07T08:26:14.370Z</time>
      </trkpt>
      <trkpt lat="47.78293" lon="2.34076">
        <ele>118</ele>
        <time>2017-05-07T08:26:15.378Z</time>
      </trkpt>
      <trkpt lat="47.78295" lon="2.34073">
        <ele>118</ele>
        <time>2017-05-07T08:26:16.391Z</time>
      </trkpt>
      <trkpt lat="47.78295" lon="2.34073">
        <ele>118</ele>
        <time>2017-05-07T08:26:17.375Z</time>
      </trkpt>
      <trkpt lat="47.78299" lon="2.3407">
        <ele>118</ele>
        <time>2017-05-07T08:26:18.394Z</time>
      </trkpt>
      <trkpt lat="47.78301" lon="2.34069">
        <ele>118</ele>
        <time>2017-05-07T08:26:19.384Z</time>
      </trkpt>
      <trkpt lat="47.78301" lon="2.34069">
        <ele>118</ele>
        <time>2017-05-07T08:26:20.376Z</time>
      </trkpt>
      <trkpt lat="47.78304" lon="2.34068">
        <ele>118</ele>
        <time>2017-05-07T08:26:21.379Z</time>
      </trkpt>
      <trkpt lat="47.78304" lon="2.34068">
        <ele>118</ele>
        <time>2017-05-07T08:26:22.374Z</time>
      </trkpt>
      <trkpt lat="47.78307" lon="2.34067">
        <ele>118</ele>
        <time>2017-05-07T08:26:23.395Z</time>
      </trkpt>
      <trkpt lat="47.78307" lon="2.34067">
        <ele>118</ele>
        <time>2017-05-07T08:26:24.382Z</time>
      </trkpt>
      <trkpt lat="47.78312" lon="2.34065">
        <ele>118</ele>
        <time>2017-05-07T08:26:25.379Z</time>
      </trkpt>
      <trkpt lat="47.78312" lon="2.34065">
        <ele>118</ele>
        <time>2017-05-07T08:26:26.374Z</time>
      </trkpt>
      <trkpt lat="47.78317" lon="2.34064">
        <ele>118</ele>
        <time>2017-05-07T08:26:27.387Z</time>
      </trkpt>
      <trkpt lat="47.78317" lon="2.34064">
        <ele>118</ele>
        <time>2017-05-07T08:26:28.376Z</time>
      </trkpt>
      <trkpt lat="47.78322" lon="2.34063">
        <ele>117</ele>
        <time>2017-05-07T08:26:29.380Z</time>
      </trkpt>
      <trkpt lat="47.78324" lon="2.34063">
        <ele>117</ele>
        <time>2017-05-07T08:26:30.380Z</time>
      </trkpt>
      <trkpt lat="47.78324" lon="2.34063">
        <ele>117</ele>
        <time>2017-05-07T08:26:31.374Z</time>
      </trkpt>
      <trkpt lat="47.78329" lon="2.34064">
        <ele>117</ele>
        <time>2017-05-07T08:26:32.379Z</time>
      </trkpt>
      <trkpt lat="47.78329" lon="2.34064">
        <ele>117</ele>
        <time>2017-05-07T08:26:33.374Z</time>
      </trkpt>
      <trkpt lat="47.78334" lon="2.34063">
        <ele>117</ele>
        <time>2017-05-07T08:26:34.380Z</time>
      </trkpt>
      <trkpt lat="47.78336" lon="2.34061">
        <ele>117</ele>
        <time>2017-05-07T08:26:35.381Z</time>
      </trkpt>
      <trkpt lat="47.78336" lon="2.34061">
        <ele>117</ele>
        <time>2017-05-07T08:26:36.374Z</time>
      </trkpt>
      <trkpt lat="47.78341" lon="2.34058">
        <ele>117</ele>
        <time>2017-05-07T08:26:37.379Z</time>
      </trkpt>
      <trkpt lat="47.78341" lon="2.34058">
        <ele>117</ele>
        <time>2017-05-07T08:26:38.374Z</time>
      </trkpt>
      <trkpt lat="47.78346" lon="2.34054">
        <ele>117</ele>
        <time>2017-05-07T08:26:39.379Z</time>
      </trkpt>
      <trkpt lat="47.78346" lon="2.34054">
        <ele>117</ele>
        <time>2017-05-07T08:26:40.374Z</time>
      </trkpt>
      <trkpt lat="47.7835" lon="2.34052">
        <ele>117</ele>
        <time>2017-05-07T08:26:41.382Z</time>
      </trkpt>
      <trkpt lat="47.7835" lon="2.34052">
        <ele>117</ele>
        <time>2017-05-07T08:26:42.375Z</time>
      </trkpt>
      <trkpt lat="47.78352" lon="2.34052">
        <ele>117</ele>
        <time>2017-05-07T08:26:43.379Z</time>
      </trkpt>
      <trkpt lat="47.78352" lon="2.34052">
        <ele>117</ele>
        <time>2017-05-07T08:26:44.375Z</time>
      </trkpt>
      <trkpt lat="47.78353" lon="2.34052">
        <ele>118</ele>
        <time>2017-05-07T08:26:45.380Z</time>
      </trkpt>
      <trkpt lat="47.78353" lon="2.34052">
        <ele>118</ele>
        <time>2017-05-07T08:26:46.371Z</time>
      </trkpt>
      <trkpt lat="47.78353" lon="2.34052">
        <ele>118</ele>
        <time>2017-05-07T08:26:47.366Z</time>
      </trkpt>
      <trkpt lat="47.78357" lon="2.34058">
        <ele>116</ele>
        <time>2017-05-07T08:26:48.364Z</time>
      </trkpt>
      <trkpt lat="47.78356" lon="2.3406">
        <ele>116</ele>
        <time>2017-05-07T08:26:49.376Z</time>
      </trkpt>
      <trkpt lat="47.78355" lon="2.34061">
        <ele>116</ele>
        <time>2017-05-07T08:26:50.375Z</time>
      </trkpt>
      <trkpt lat="47.78354" lon="2.34063">
        <ele>116</ele>
        <time>2017-05-07T08:26:51.392Z</time>
      </trkpt>
      <trkpt lat="47.78354" lon="2.34063">
        <ele>116</ele>
        <time>2017-05-07T08:26:52.376Z</time>
      </trkpt>
      <trkpt lat="47.78353" lon="2.34066">
        <ele>116</ele>
        <time>2017-05-07T08:26:53.382Z</time>
      </trkpt>
      <trkpt lat="47.78353" lon="2.34066">
        <ele>116</ele>
        <time>2017-05-07T08:26:54.389Z</time>
      </trkpt>
      <trkpt lat="47.78351" lon="2.3407">
        <ele>116</ele>
        <time>2017-05-07T08:26:55.381Z</time>
      </trkpt>
      <trkpt lat="47.78351" lon="2.3407">
        <ele>116</ele>
        <time>2017-05-07T08:26:56.369Z</time>
      </trkpt>
      <trkpt lat="47.78349" lon="2.34075">
        <ele>116</ele>
        <time>2017-05-07T08:26:57.373Z</time>
      </trkpt>
      <trkpt lat="47.78349" lon="2.34075">
        <ele>116</ele>
        <time>2017-05-07T08:26:58.367Z</time>
      </trkpt>
      <trkpt lat="47.78348" lon="2.34081">
        <ele>116</ele>
        <time>2017-05-07T08:26:59.374Z</time>
      </trkpt>
      <trkpt lat="47.78348" lon="2.34081">
        <ele>116</ele>
        <time>2017-05-07T08:27:00.394Z</time>
      </trkpt>
      <trkpt lat="47.78346" lon="2.34085">
        <ele>116</ele>
        <time>2017-05-07T08:27:01.361Z</time>
      </trkpt>
      <trkpt lat="47.78345" lon="2.34087">
        <ele>116</ele>
        <time>2017-05-07T08:27:02.369Z</time>
      </trkpt>
      <trkpt lat="47.78345" lon="2.34087">
        <ele>116</ele>
        <time>2017-05-07T08:27:03.369Z</time>
      </trkpt>
      <trkpt lat="47.78343" lon="2.34094">
        <ele>115</ele>
        <time>2017-05-07T08:27:04.372Z</time>
      </trkpt>
      <trkpt lat="47.78343" lon="2.34094">
        <ele>115</ele>
        <time>2017-05-07T08:27:05.367Z</time>
      </trkpt>
      <trkpt lat="47.78339" lon="2.34103">
        <ele>114</ele>
        <time>2017-05-07T08:27:06.372Z</time>
      </trkpt>
      <trkpt lat="47.78339" lon="2.34103">
        <ele>114</ele>
        <time>2017-05-07T08:27:07.367Z</time>
      </trkpt>
      <trkpt lat="47.78336" lon="2.34112">
        <ele>114</ele>
        <time>2017-05-07T08:27:08.377Z</time>
      </trkpt>
      <trkpt lat="47.78336" lon="2.34116">
        <ele>114</ele>
        <time>2017-05-07T08:27:09.372Z</time>
      </trkpt>
      <trkpt lat="47.78336" lon="2.34116">
        <ele>114</ele>
        <time>2017-05-07T08:27:10.366Z</time>
      </trkpt>
      <trkpt lat="47.78337" lon="2.3412">
        <ele>115</ele>
        <time>2017-05-07T08:27:11.371Z</time>
      </trkpt>
      <trkpt lat="47.78337" lon="2.3412">
        <ele>115</ele>
        <time>2017-05-07T08:27:12.367Z</time>
      </trkpt>
      <trkpt lat="47.78337" lon="2.3412">
        <ele>115</ele>
        <time>2017-05-07T08:27:13.379Z</time>
      </trkpt>
      <trkpt lat="47.78337" lon="2.3412">
        <ele>115</ele>
        <time>2017-05-07T08:27:14.374Z</time>
      </trkpt>
      <trkpt lat="47.78337" lon="2.3412">
        <ele>115</ele>
        <time>2017-05-07T08:27:15.369Z</time>
      </trkpt>
      <trkpt lat="47.78343" lon="2.3412">
        <ele>114</ele>
        <time>2017-05-07T08:27:16.364Z</time>
      </trkpt>
      <trkpt lat="47.78343" lon="2.3412">
        <ele>114</ele>
        <time>2017-05-07T08:27:17.369Z</time>
      </trkpt>
      <trkpt lat="47.78347" lon="2.34113">
        <ele>113</ele>
        <time>2017-05-07T08:27:18.364Z</time>
      </trkpt>
      <trkpt lat="47.78347" lon="2.34113">
        <ele>113</ele>
        <time>2017-05-07T08:27:19.359Z</time>
      </trkpt>
      <trkpt lat="47.78351" lon="2.34108">
        <ele>113</ele>
        <time>2017-05-07T08:27:20.364Z</time>
      </trkpt>
      <trkpt lat="47.78351" lon="2.34108">
        <ele>113</ele>
        <time>2017-05-07T08:27:21.362Z</time>
      </trkpt>
      <trkpt lat="47.78355" lon="2.34102">
        <ele>113</ele>
        <time>2017-05-07T08:27:22.363Z</time>
      </trkpt>
      <trkpt lat="47.78357" lon="2.34098">
        <ele>113</ele>
        <time>2017-05-07T08:27:23.365Z</time>
      </trkpt>
      <trkpt lat="47.78357" lon="2.34098">
        <ele>113</ele>
        <time>2017-05-07T08:27:24.357Z</time>
      </trkpt>
      <trkpt lat="47.78363" lon="2.3409">
        <ele>113</ele>
        <time>2017-05-07T08:27:25.365Z</time>
      </trkpt>
      <trkpt lat="47.78366" lon="2.34086">
        <ele>113</ele>
        <time>2017-05-07T08:27:26.361Z</time>
      </trkpt>
      <trkpt lat="47.78366" lon="2.34086">
        <ele>113</ele>
        <time>2017-05-07T08:27:27.363Z</time>
      </trkpt>
      <trkpt lat="47.78372" lon="2.34076">
        <ele>113</ele>
        <time>2017-05-07T08:27:28.364Z</time>
      </trkpt>
      <trkpt lat="47.78375" lon="2.34071">
        <ele>113</ele>
        <time>2017-05-07T08:27:29.366Z</time>
      </trkpt>
      <trkpt lat="47.78375" lon="2.34071">
        <ele>113</ele>
        <time>2017-05-07T08:27:30.360Z</time>
      </trkpt>
      <trkpt lat="47.78382" lon="2.34061">
        <ele>113</ele>
        <time>2017-05-07T08:27:31.367Z</time>
      </trkpt>
      <trkpt lat="47.78385" lon="2.34055">
        <ele>113</ele>
        <time>2017-05-07T08:27:32.361Z</time>
      </trkpt>
      <trkpt lat="47.78385" lon="2.34055">
        <ele>113</ele>
        <time>2017-05-07T08:27:33.362Z</time>
      </trkpt>
      <trkpt lat="47.78392" lon="2.34044">
        <ele>113</ele>
        <time>2017-05-07T08:27:34.378Z</time>
      </trkpt>
      <trkpt lat="47.78395" lon="2.34038">
        <ele>113</ele>
        <time>2017-05-07T08:27:35.367Z</time>
      </trkpt>
      <trkpt lat="47.78395" lon="2.34038">
        <ele>113</ele>
        <time>2017-05-07T08:27:36.361Z</time>
      </trkpt>
      <trkpt lat="47.78402" lon="2.34027">
        <ele>113</ele>
        <time>2017-05-07T08:27:37.366Z</time>
      </trkpt>
      <trkpt lat="47.78402" lon="2.34027">
        <ele>113</ele>
        <time>2017-05-07T08:27:38.361Z</time>
      </trkpt>
      <trkpt lat="47.78409" lon="2.34016">
        <ele>113</ele>
        <time>2017-05-07T08:27:39.365Z</time>
      </trkpt>
      <trkpt lat="47.78409" lon="2.34016">
        <ele>113</ele>
        <time>2017-05-07T08:27:40.357Z</time>
      </trkpt>
      <trkpt lat="47.78415" lon="2.34005">
        <ele>113</ele>
        <time>2017-05-07T08:27:41.363Z</time>
      </trkpt>
      <trkpt lat="47.78415" lon="2.34005">
        <ele>113</ele>
        <time>2017-05-07T08:27:42.361Z</time>
      </trkpt>
      <trkpt lat="47.78422" lon="2.33994">
        <ele>113</ele>
        <time>2017-05-07T08:27:43.364Z</time>
      </trkpt>
      <trkpt lat="47.78425" lon="2.33989">
        <ele>112</ele>
        <time>2017-05-07T08:27:44.364Z</time>
      </trkpt>
      <trkpt lat="47.78425" lon="2.33989">
        <ele>112</ele>
        <time>2017-05-07T08:27:45.361Z</time>
      </trkpt>
      <trkpt lat="47.78431" lon="2.33979">
        <ele>112</ele>
        <time>2017-05-07T08:27:46.364Z</time>
      </trkpt>
      <trkpt lat="47.78435" lon="2.33973">
        <ele>112</ele>
        <time>2017-05-07T08:27:47.373Z</time>
      </trkpt>
      <trkpt lat="47.78435" lon="2.33973">
        <ele>112</ele>
        <time>2017-05-07T08:27:48.377Z</time>
      </trkpt>
      <trkpt lat="47.78442" lon="2.33962">
        <ele>112</ele>
        <time>2017-05-07T08:27:49.367Z</time>
      </trkpt>
      <trkpt lat="47.78442" lon="2.33962">
        <ele>112</ele>
        <time>2017-05-07T08:27:50.358Z</time>
      </trkpt>
      <trkpt lat="47.78448" lon="2.33951">
        <ele>112</ele>
        <time>2017-05-07T08:27:51.365Z</time>
      </trkpt>
      <trkpt lat="47.78448" lon="2.33951">
        <ele>112</ele>
        <time>2017-05-07T08:27:52.361Z</time>
      </trkpt>
      <trkpt lat="47.78455" lon="2.3394">
        <ele>112</ele>
        <time>2017-05-07T08:27:53.367Z</time>
      </trkpt>
      <trkpt lat="47.78455" lon="2.3394">
        <ele>112</ele>
        <time>2017-05-07T08:27:54.357Z</time>
      </trkpt>
      <trkpt lat="47.78462" lon="2.33929">
        <ele>112</ele>
        <time>2017-05-07T08:27:55.361Z</time>
      </trkpt>
      <trkpt lat="47.78462" lon="2.33929">
        <ele>112</ele>
        <time>2017-05-07T08:27:56.355Z</time>
      </trkpt>
      <trkpt lat="47.78468" lon="2.33918">
        <ele>112</ele>
        <time>2017-05-07T08:27:57.360Z</time>
      </trkpt>
      <trkpt lat="47.78472" lon="2.33913">
        <ele>111</ele>
        <time>2017-05-07T08:27:58.363Z</time>
      </trkpt>
      <trkpt lat="47.78472" lon="2.33913">
        <ele>111</ele>
        <time>2017-05-07T08:27:59.361Z</time>
      </trkpt>
      <trkpt lat="47.78477" lon="2.339">
        <ele>111</ele>
        <time>2017-05-07T08:28:00.373Z</time>
      </trkpt>
      <trkpt lat="47.78477" lon="2.339">
        <ele>111</ele>
        <time>2017-05-07T08:28:01.363Z</time>
      </trkpt>
      <trkpt lat="47.78482" lon="2.33888">
        <ele>111</ele>
        <time>2017-05-07T08:28:02.363Z</time>
      </trkpt>
      <trkpt lat="47.78482" lon="2.33888">
        <ele>111</ele>
        <time>2017-05-07T08:28:03.357Z</time>
      </trkpt>
      <trkpt lat="47.78489" lon="2.33877">
        <ele>111</ele>
        <time>2017-05-07T08:28:04.362Z</time>
      </trkpt>
      <trkpt lat="47.78492" lon="2.33872">
        <ele>111</ele>
        <time>2017-05-07T08:28:05.363Z</time>
      </trkpt>
      <trkpt lat="47.78495" lon="2.33866">
        <ele>111</ele>
        <time>2017-05-07T08:28:06.363Z</time>
      </trkpt>
      <trkpt lat="47.78495" lon="2.33866">
        <ele>111</ele>
        <time>2017-05-07T08:28:07.357Z</time>
      </trkpt>
      <trkpt lat="47.78501" lon="2.33855">
        <ele>111</ele>
        <time>2017-05-07T08:28:08.358Z</time>
      </trkpt>
      <trkpt lat="47.78504" lon="2.3385">
        <ele>111</ele>
        <time>2017-05-07T08:28:09.362Z</time>
      </trkpt>
      <trkpt lat="47.78504" lon="2.3385">
        <ele>111</ele>
        <time>2017-05-07T08:28:10.357Z</time>
      </trkpt>
      <trkpt lat="47.78511" lon="2.33839">
        <ele>110</ele>
        <time>2017-05-07T08:28:11.377Z</time>
      </trkpt>
      <trkpt lat="47.78511" lon="2.33839">
        <ele>110</ele>
        <time>2017-05-07T08:28:12.365Z</time>
      </trkpt>
      <trkpt lat="47.78517" lon="2.33829">
        <ele>111</ele>
        <time>2017-05-07T08:28:13.364Z</time>
      </trkpt>
      <trkpt lat="47.78517" lon="2.33829">
        <ele>111</ele>
        <time>2017-05-07T08:28:14.361Z</time>
      </trkpt>
      <trkpt lat="47.78524" lon="2.33818">
        <ele>111</ele>
        <time>2017-05-07T08:28:15.362Z</time>
      </trkpt>
      <trkpt lat="47.78524" lon="2.33818">
        <ele>111</ele>
        <time>2017-05-07T08:28:16.357Z</time>
      </trkpt>
      <trkpt lat="47.7853" lon="2.33806">
        <ele>110</ele>
        <time>2017-05-07T08:28:17.364Z</time>
      </trkpt>
      <trkpt lat="47.7853" lon="2.33806">
        <ele>110</ele>
        <time>2017-05-07T08:28:18.358Z</time>
      </trkpt>
      <trkpt lat="47.78537" lon="2.33793">
        <ele>111</ele>
        <time>2017-05-07T08:28:19.362Z</time>
      </trkpt>
      <trkpt lat="47.78537" lon="2.33793">
        <ele>111</ele>
        <time>2017-05-07T08:28:20.356Z</time>
      </trkpt>
      <trkpt lat="47.78544" lon="2.33782">
        <ele>111</ele>
        <time>2017-05-07T08:28:21.372Z</time>
      </trkpt>
      <trkpt lat="47.78544" lon="2.33782">
        <ele>111</ele>
        <time>2017-05-07T08:28:22.361Z</time>
      </trkpt>
      <trkpt lat="47.7855" lon="2.3377">
        <ele>110</ele>
        <time>2017-05-07T08:28:23.364Z</time>
      </trkpt>
      <trkpt lat="47.78554" lon="2.33764">
        <ele>110</ele>
        <time>2017-05-07T08:28:24.365Z</time>
      </trkpt>
      <trkpt lat="47.78554" lon="2.33764">
        <ele>110</ele>
        <time>2017-05-07T08:28:25.376Z</time>
      </trkpt>
      <trkpt lat="47.7856" lon="2.33751">
        <ele>110</ele>
        <time>2017-05-07T08:28:26.382Z</time>
      </trkpt>
      <trkpt lat="47.78563" lon="2.33745">
        <ele>110</ele>
        <time>2017-05-07T08:28:27.388Z</time>
      </trkpt>
      <trkpt lat="47.78563" lon="2.33745">
        <ele>110</ele>
        <time>2017-05-07T08:28:28.378Z</time>
      </trkpt>
      <trkpt lat="47.7857" lon="2.33733">
        <ele>110</ele>
        <time>2017-05-07T08:28:29.372Z</time>
      </trkpt>
      <trkpt lat="47.7857" lon="2.33733">
        <ele>110</ele>
        <time>2017-05-07T08:28:30.368Z</time>
      </trkpt>
      <trkpt lat="47.78577" lon="2.33722">
        <ele>110</ele>
        <time>2017-05-07T08:28:31.389Z</time>
      </trkpt>
      <trkpt lat="47.78577" lon="2.33722">
        <ele>110</ele>
        <time>2017-05-07T08:28:32.378Z</time>
      </trkpt>
      <trkpt lat="47.78583" lon="2.33709">
        <ele>110</ele>
        <time>2017-05-07T08:28:33.368Z</time>
      </trkpt>
      <trkpt lat="47.78583" lon="2.33709">
        <ele>110</ele>
        <time>2017-05-07T08:28:34.356Z</time>
      </trkpt>
      <trkpt lat="47.7859" lon="2.33697">
        <ele>111</ele>
        <time>2017-05-07T08:28:35.365Z</time>
      </trkpt>
      <trkpt lat="47.7859" lon="2.33697">
        <ele>111</ele>
        <time>2017-05-07T08:28:36.361Z</time>
      </trkpt>
      <trkpt lat="47.78597" lon="2.33686">
        <ele>110</ele>
        <time>2017-05-07T08:28:37.361Z</time>
      </trkpt>
      <trkpt lat="47.78597" lon="2.33686">
        <ele>110</ele>
        <time>2017-05-07T08:28:38.363Z</time>
      </trkpt>
      <trkpt lat="47.78605" lon="2.33674">
        <ele>111</ele>
        <time>2017-05-07T08:28:39.362Z</time>
      </trkpt>
      <trkpt lat="47.78605" lon="2.33674">
        <ele>111</ele>
        <time>2017-05-07T08:28:40.357Z</time>
      </trkpt>
      <trkpt lat="47.78613" lon="2.33662">
        <ele>111</ele>
        <time>2017-05-07T08:28:41.373Z</time>
      </trkpt>
      <trkpt lat="47.78613" lon="2.33662">
        <ele>111</ele>
        <time>2017-05-07T08:28:42.364Z</time>
      </trkpt>
      <trkpt lat="47.7862" lon="2.33649">
        <ele>111</ele>
        <time>2017-05-07T08:28:43.360Z</time>
      </trkpt>
      <trkpt lat="47.7862" lon="2.33649">
        <ele>111</ele>
        <time>2017-05-07T08:28:44.357Z</time>
      </trkpt>
      <trkpt lat="47.78627" lon="2.33635">
        <ele>111</ele>
        <time>2017-05-07T08:28:45.362Z</time>
      </trkpt>
      <trkpt lat="47.78627" lon="2.33635">
        <ele>111</ele>
        <time>2017-05-07T08:28:46.356Z</time>
      </trkpt>
      <trkpt lat="47.78634" lon="2.33622">
        <ele>111</ele>
        <time>2017-05-07T08:28:47.364Z</time>
      </trkpt>
      <trkpt lat="47.78634" lon="2.33622">
        <ele>111</ele>
        <time>2017-05-07T08:28:48.357Z</time>
      </trkpt>
      <trkpt lat="47.78641" lon="2.33609">
        <ele>111</ele>
        <time>2017-05-07T08:28:49.362Z</time>
      </trkpt>
      <trkpt lat="47.78641" lon="2.33609">
        <ele>111</ele>
        <time>2017-05-07T08:28:50.357Z</time>
      </trkpt>
      <trkpt lat="47.78648" lon="2.33596">
        <ele>111</ele>
        <time>2017-05-07T08:28:51.362Z</time>
      </trkpt>
      <trkpt lat="47.78648" lon="2.33596">
        <ele>111</ele>
        <time>2017-05-07T08:28:52.367Z</time>
      </trkpt>
      <trkpt lat="47.78655" lon="2.33584">
        <ele>112</ele>
        <time>2017-05-07T08:28:53.385Z</time>
      </trkpt>
      <trkpt lat="47.78655" lon="2.33584">
        <ele>112</ele>
        <time>2017-05-07T08:28:54.356Z</time>
      </trkpt>
      <trkpt lat="47.78661" lon="2.33572">
        <ele>112</ele>
        <time>2017-05-07T08:28:55.361Z</time>
      </trkpt>
      <trkpt lat="47.78661" lon="2.33572">
        <ele>112</ele>
        <time>2017-05-07T08:28:56.359Z</time>
      </trkpt>
      <trkpt lat="47.78667" lon="2.33559">
        <ele>112</ele>
        <time>2017-05-07T08:28:57.358Z</time>
      </trkpt>
      <trkpt lat="47.78667" lon="2.33559">
        <ele>112</ele>
        <time>2017-05-07T08:28:58.355Z</time>
      </trkpt>
      <trkpt lat="47.78674" lon="2.33547">
        <ele>112</ele>
        <time>2017-05-07T08:28:59.364Z</time>
      </trkpt>
      <trkpt lat="47.78674" lon="2.33547">
        <ele>112</ele>
        <time>2017-05-07T08:29:00.357Z</time>
      </trkpt>
      <trkpt lat="47.7868" lon="2.33535">
        <ele>112</ele>
        <time>2017-05-07T08:29:01.363Z</time>
      </trkpt>
      <trkpt lat="47.7868" lon="2.33535">
        <ele>112</ele>
        <time>2017-05-07T08:29:02.357Z</time>
      </trkpt>
      <trkpt lat="47.78686" lon="2.33522">
        <ele>112</ele>
        <time>2017-05-07T08:29:03.362Z</time>
      </trkpt>
      <trkpt lat="47.78686" lon="2.33522">
        <ele>112</ele>
        <time>2017-05-07T08:29:04.357Z</time>
      </trkpt>
      <trkpt lat="47.78692" lon="2.33511">
        <ele>112</ele>
        <time>2017-05-07T08:29:05.362Z</time>
      </trkpt>
      <trkpt lat="47.78694" lon="2.33506">
        <ele>112</ele>
        <time>2017-05-07T08:29:06.363Z</time>
      </trkpt>
      <trkpt lat="47.78694" lon="2.33506">
        <ele>112</ele>
        <time>2017-05-07T08:29:07.358Z</time>
      </trkpt>
      <trkpt lat="47.78699" lon="2.33496">
        <ele>112</ele>
        <time>2017-05-07T08:29:08.361Z</time>
      </trkpt>
      <trkpt lat="47.78699" lon="2.33496">
        <ele>112</ele>
        <time>2017-05-07T08:29:09.355Z</time>
      </trkpt>
      <trkpt lat="47.78704" lon="2.33485">
        <ele>112</ele>
        <time>2017-05-07T08:29:10.359Z</time>
      </trkpt>
      <trkpt lat="47.78707" lon="2.33479">
        <ele>112</ele>
        <time>2017-05-07T08:29:11.365Z</time>
      </trkpt>
      <trkpt lat="47.78707" lon="2.33479">
        <ele>112</ele>
        <time>2017-05-07T08:29:12.356Z</time>
      </trkpt>
      <trkpt lat="47.78713" lon="2.33467">
        <ele>112</ele>
        <time>2017-05-07T08:29:13.359Z</time>
      </trkpt>
      <trkpt lat="47.78713" lon="2.33467">
        <ele>112</ele>
        <time>2017-05-07T08:29:14.394Z</time>
      </trkpt>
      <trkpt lat="47.78718" lon="2.33455">
        <ele>112</ele>
        <time>2017-05-07T08:29:15.360Z</time>
      </trkpt>
      <trkpt lat="47.78722" lon="2.33448">
        <ele>112</ele>
        <time>2017-05-07T08:29:16.360Z</time>
      </trkpt>
      <trkpt lat="47.78722" lon="2.33448">
        <ele>112</ele>
        <time>2017-05-07T08:29:17.356Z</time>
      </trkpt>
      <trkpt lat="47.78728" lon="2.33437">
        <ele>113</ele>
        <time>2017-05-07T08:29:18.360Z</time>
      </trkpt>
      <trkpt lat="47.7873" lon="2.33431">
        <ele>113</ele>
        <time>2017-05-07T08:29:19.360Z</time>
      </trkpt>
      <trkpt lat="47.7873" lon="2.33431">
        <ele>113</ele>
        <time>2017-05-07T08:29:20.355Z</time>
      </trkpt>
      <trkpt lat="47.7873" lon="2.33422">
        <ele>113</ele>
        <time>2017-05-07T08:29:21.357Z</time>
      </trkpt>
      <trkpt lat="47.7873" lon="2.33422">
        <ele>113</ele>
        <time>2017-05-07T08:29:22.357Z</time>
      </trkpt>
      <trkpt lat="47.78725" lon="2.33423">
        <ele>114</ele>
        <time>2017-05-07T08:29:23.362Z</time>
      </trkpt>
      <trkpt lat="47.78725" lon="2.33423">
        <ele>114</ele>
        <time>2017-05-07T08:29:24.394Z</time>
      </trkpt>
      <trkpt lat="47.78721" lon="2.33429">
        <ele>114</ele>
        <time>2017-05-07T08:29:25.373Z</time>
      </trkpt>
      <trkpt lat="47.78721" lon="2.33429">
        <ele>114</ele>
        <time>2017-05-07T08:29:26.362Z</time>
      </trkpt>
      <trkpt lat="47.78716" lon="2.33432">
        <ele>114</ele>
        <time>2017-05-07T08:29:27.361Z</time>
      </trkpt>
      <trkpt lat="47.78716" lon="2.33432">
        <ele>114</ele>
        <time>2017-05-07T08:29:28.366Z</time>
      </trkpt>
      <trkpt lat="47.78711" lon="2.33429">
        <ele>115</ele>
        <time>2017-05-07T08:29:29.362Z</time>
      </trkpt>
      <trkpt lat="47.78711" lon="2.33429">
        <ele>115</ele>
        <time>2017-05-07T08:29:30.355Z</time>
      </trkpt>
      <trkpt lat="47.78706" lon="2.33422">
        <ele>115</ele>
        <time>2017-05-07T08:29:31.360Z</time>
      </trkpt>
      <trkpt lat="47.78706" lon="2.33422">
        <ele>115</ele>
        <time>2017-05-07T08:29:32.358Z</time>
      </trkpt>
      <trkpt lat="47.78704" lon="2.33413">
        <ele>115</ele>
        <time>2017-05-07T08:29:33.360Z</time>
      </trkpt>
      <trkpt lat="47.78704" lon="2.33413">
        <ele>115</ele>
        <time>2017-05-07T08:29:34.355Z</time>
      </trkpt>
      <trkpt lat="47.78705" lon="2.33402">
        <ele>116</ele>
        <time>2017-05-07T08:29:35.361Z</time>
      </trkpt>
      <trkpt lat="47.78705" lon="2.33402">
        <ele>116</ele>
        <time>2017-05-07T08:29:36.355Z</time>
      </trkpt>
      <trkpt lat="47.78709" lon="2.33392">
        <ele>116</ele>
        <time>2017-05-07T08:29:37.361Z</time>
      </trkpt>
      <trkpt lat="47.78709" lon="2.33392">
        <ele>116</ele>
        <time>2017-05-07T08:29:38.355Z</time>
      </trkpt>
      <trkpt lat="47.78712" lon="2.33381">
        <ele>116</ele>
        <time>2017-05-07T08:29:39.361Z</time>
      </trkpt>
      <trkpt lat="47.78712" lon="2.33381">
        <ele>116</ele>
        <time>2017-05-07T08:29:40.355Z</time>
      </trkpt>
      <trkpt lat="47.78716" lon="2.33369">
        <ele>116</ele>
        <time>2017-05-07T08:29:41.362Z</time>
      </trkpt>
      <trkpt lat="47.78716" lon="2.33369">
        <ele>116</ele>
        <time>2017-05-07T08:29:42.355Z</time>
      </trkpt>
      <trkpt lat="47.78719" lon="2.33357">
        <ele>116</ele>
        <time>2017-05-07T08:29:43.361Z</time>
      </trkpt>
      <trkpt lat="47.78719" lon="2.33357">
        <ele>116</ele>
        <time>2017-05-07T08:29:44.395Z</time>
      </trkpt>
      <trkpt lat="47.78723" lon="2.33344">
        <ele>116</ele>
        <time>2017-05-07T08:29:45.359Z</time>
      </trkpt>
      <trkpt lat="47.78723" lon="2.33344">
        <ele>116</ele>
        <time>2017-05-07T08:29:46.355Z</time>
      </trkpt>
      <trkpt lat="47.78727" lon="2.33332">
        <ele>116</ele>
        <time>2017-05-07T08:29:47.363Z</time>
      </trkpt>
      <trkpt lat="47.78727" lon="2.33332">
        <ele>116</ele>
        <time>2017-05-07T08:29:48.355Z</time>
      </trkpt>
      <trkpt lat="47.78731" lon="2.33318">
        <ele>116</ele>
        <time>2017-05-07T08:29:49.360Z</time>
      </trkpt>
      <trkpt lat="47.78731" lon="2.33318">
        <ele>116</ele>
        <time>2017-05-07T08:29:50.394Z</time>
      </trkpt>
      <trkpt lat="47.78736" lon="2.33304">
        <ele>116</ele>
        <time>2017-05-07T08:29:51.360Z</time>
      </trkpt>
      <trkpt lat="47.78738" lon="2.33297">
        <ele>116</ele>
        <time>2017-05-07T08:29:52.367Z</time>
      </trkpt>
      <trkpt lat="47.78738" lon="2.33297">
        <ele>116</ele>
        <time>2017-05-07T08:29:53.368Z</time>
      </trkpt>
      <trkpt lat="47.78743" lon="2.33284">
        <ele>116</ele>
        <time>2017-05-07T08:29:54.386Z</time>
      </trkpt>
      <trkpt lat="47.78743" lon="2.33284">
        <ele>116</ele>
        <time>2017-05-07T08:29:55.375Z</time>
      </trkpt>
      <trkpt lat="47.78748" lon="2.33272">
        <ele>116</ele>
        <time>2017-05-07T08:29:56.366Z</time>
      </trkpt>
      <trkpt lat="47.78748" lon="2.33272">
        <ele>116</ele>
        <time>2017-05-07T08:29:57.358Z</time>
      </trkpt>
      <trkpt lat="47.78753" lon="2.3326">
        <ele>116</ele>
        <time>2017-05-07T08:29:58.361Z</time>
      </trkpt>
      <trkpt lat="47.78755" lon="2.33254">
        <ele>116</ele>
        <time>2017-05-07T08:29:59.368Z</time>
      </trkpt>
      <trkpt lat="47.78755" lon="2.33254">
        <ele>116</ele>
        <time>2017-05-07T08:30:00.371Z</time>
      </trkpt>
      <trkpt lat="47.7876" lon="2.33243">
        <ele>116</ele>
        <time>2017-05-07T08:30:01.376Z</time>
      </trkpt>
      <trkpt lat="47.7876" lon="2.33243">
        <ele>116</ele>
        <time>2017-05-07T08:30:02.382Z</time>
      </trkpt>
      <trkpt lat="47.78765" lon="2.33232">
        <ele>116</ele>
        <time>2017-05-07T08:30:03.372Z</time>
      </trkpt>
      <trkpt lat="47.78765" lon="2.33232">
        <ele>116</ele>
        <time>2017-05-07T08:30:04.360Z</time>
      </trkpt>
      <trkpt lat="47.78769" lon="2.3322">
        <ele>116</ele>
        <time>2017-05-07T08:30:05.361Z</time>
      </trkpt>
      <trkpt lat="47.78769" lon="2.3322">
        <ele>116</ele>
        <time>2017-05-07T08:30:06.371Z</time>
      </trkpt>
      <trkpt lat="47.78775" lon="2.33209">
        <ele>116</ele>
        <time>2017-05-07T08:30:07.363Z</time>
      </trkpt>
      <trkpt lat="47.78775" lon="2.33209">
        <ele>116</ele>
        <time>2017-05-07T08:30:08.357Z</time>
      </trkpt>
      <trkpt lat="47.7878" lon="2.33197">
        <ele>116</ele>
        <time>2017-05-07T08:30:09.359Z</time>
      </trkpt>
      <trkpt lat="47.78783" lon="2.3319">
        <ele>116</ele>
        <time>2017-05-07T08:30:10.363Z</time>
      </trkpt>
      <trkpt lat="47.78785" lon="2.33184">
        <ele>116</ele>
        <time>2017-05-07T08:30:11.365Z</time>
      </trkpt>
      <trkpt lat="47.78785" lon="2.33184">
        <ele>116</ele>
        <time>2017-05-07T08:30:12.358Z</time>
      </trkpt>
      <trkpt lat="47.78791" lon="2.33171">
        <ele>116</ele>
        <time>2017-05-07T08:30:13.362Z</time>
      </trkpt>
      <trkpt lat="47.78791" lon="2.33171">
        <ele>116</ele>
        <time>2017-05-07T08:30:14.357Z</time>
      </trkpt>
      <trkpt lat="47.78796" lon="2.33158">
        <ele>116</ele>
        <time>2017-05-07T08:30:15.362Z</time>
      </trkpt>
      <trkpt lat="47.78796" lon="2.33158">
        <ele>116</ele>
        <time>2017-05-07T08:30:16.357Z</time>
      </trkpt>
      <trkpt lat="47.78802" lon="2.33144">
        <ele>116</ele>
        <time>2017-05-07T08:30:17.384Z</time>
      </trkpt>
      <trkpt lat="47.78802" lon="2.33144">
        <ele>116</ele>
        <time>2017-05-07T08:30:18.378Z</time>
      </trkpt>
      <trkpt lat="47.78807" lon="2.33131">
        <ele>116</ele>
        <time>2017-05-07T08:30:19.366Z</time>
      </trkpt>
      <trkpt lat="47.7881" lon="2.33125">
        <ele>116</ele>
        <time>2017-05-07T08:30:20.362Z</time>
      </trkpt>
      <trkpt lat="47.7881" lon="2.33125">
        <ele>116</ele>
        <time>2017-05-07T08:30:21.357Z</time>
      </trkpt>
      <trkpt lat="47.78816" lon="2.33112">
        <ele>116</ele>
        <time>2017-05-07T08:30:22.363Z</time>
      </trkpt>
      <trkpt lat="47.78818" lon="2.33105">
        <ele>116</ele>
        <time>2017-05-07T08:30:23.364Z</time>
      </trkpt>
      <trkpt lat="47.78818" lon="2.33105">
        <ele>116</ele>
        <time>2017-05-07T08:30:24.357Z</time>
      </trkpt>
      <trkpt lat="47.78824" lon="2.33091">
        <ele>116</ele>
        <time>2017-05-07T08:30:25.363Z</time>
      </trkpt>
      <trkpt lat="47.78824" lon="2.33091">
        <ele>116</ele>
        <time>2017-05-07T08:30:26.357Z</time>
      </trkpt>
      <trkpt lat="47.7883" lon="2.33077">
        <ele>115</ele>
        <time>2017-05-07T08:30:27.360Z</time>
      </trkpt>
      <trkpt lat="47.7883" lon="2.33077">
        <ele>115</ele>
        <time>2017-05-07T08:30:28.360Z</time>
      </trkpt>
      <trkpt lat="47.78836" lon="2.33064">
        <ele>115</ele>
        <time>2017-05-07T08:30:29.370Z</time>
      </trkpt>
      <trkpt lat="47.78836" lon="2.33064">
        <ele>115</ele>
        <time>2017-05-07T08:30:30.362Z</time>
      </trkpt>
      <trkpt lat="47.78841" lon="2.33051">
        <ele>115</ele>
        <time>2017-05-07T08:30:31.381Z</time>
      </trkpt>
      <trkpt lat="47.78841" lon="2.33051">
        <ele>115</ele>
        <time>2017-05-07T08:30:32.369Z</time>
      </trkpt>
      <trkpt lat="47.78847" lon="2.33038">
        <ele>115</ele>
        <time>2017-05-07T08:30:33.362Z</time>
      </trkpt>
      <trkpt lat="47.78847" lon="2.33038">
        <ele>115</ele>
        <time>2017-05-07T08:30:34.394Z</time>
      </trkpt>
      <trkpt lat="47.78853" lon="2.33024">
        <ele>115</ele>
        <time>2017-05-07T08:30:35.365Z</time>
      </trkpt>
      <trkpt lat="47.78853" lon="2.33024">
        <ele>115</ele>
        <time>2017-05-07T08:30:36.357Z</time>
      </trkpt>
      <trkpt lat="47.78858" lon="2.33011">
        <ele>115</ele>
        <time>2017-05-07T08:30:37.363Z</time>
      </trkpt>
      <trkpt lat="47.78858" lon="2.33011">
        <ele>115</ele>
        <time>2017-05-07T08:30:38.357Z</time>
      </trkpt>
      <trkpt lat="47.78864" lon="2.32999">
        <ele>115</ele>
        <time>2017-05-07T08:30:39.362Z</time>
      </trkpt>
      <trkpt lat="47.78866" lon="2.32992">
        <ele>115</ele>
        <time>2017-05-07T08:30:40.363Z</time>
      </trkpt>
      <trkpt lat="47.78866" lon="2.32992">
        <ele>115</ele>
        <time>2017-05-07T08:30:41.360Z</time>
      </trkpt>
      <trkpt lat="47.78871" lon="2.3298">
        <ele>115</ele>
        <time>2017-05-07T08:30:42.363Z</time>
      </trkpt>
      <trkpt lat="47.78874" lon="2.32975">
        <ele>115</ele>
        <time>2017-05-07T08:30:43.363Z</time>
      </trkpt>
      <trkpt lat="47.78874" lon="2.32975">
        <ele>115</ele>
        <time>2017-05-07T08:30:44.358Z</time>
      </trkpt>
      <trkpt lat="47.78879" lon="2.32964">
        <ele>115</ele>
        <time>2017-05-07T08:30:45.362Z</time>
      </trkpt>
      <trkpt lat="47.78879" lon="2.32964">
        <ele>115</ele>
        <time>2017-05-07T08:30:46.357Z</time>
      </trkpt>
      <trkpt lat="47.78884" lon="2.32953">
        <ele>115</ele>
        <time>2017-05-07T08:30:47.384Z</time>
      </trkpt>
      <trkpt lat="47.78884" lon="2.32953">
        <ele>115</ele>
        <time>2017-05-07T08:30:48.372Z</time>
      </trkpt>
      <trkpt lat="47.78889" lon="2.32942">
        <ele>115</ele>
        <time>2017-05-07T08:30:49.362Z</time>
      </trkpt>
      <trkpt lat="47.78889" lon="2.32942">
        <ele>115</ele>
        <time>2017-05-07T08:30:50.357Z</time>
      </trkpt>
      <trkpt lat="47.78894" lon="2.3293">
        <ele>115</ele>
        <time>2017-05-07T08:30:51.359Z</time>
      </trkpt>
      <trkpt lat="47.78894" lon="2.3293">
        <ele>115</ele>
        <time>2017-05-07T08:30:52.357Z</time>
      </trkpt>
      <trkpt lat="47.789" lon="2.32918">
        <ele>115</ele>
        <time>2017-05-07T08:30:53.367Z</time>
      </trkpt>
      <trkpt lat="47.789" lon="2.32918">
        <ele>115</ele>
        <time>2017-05-07T08:30:54.356Z</time>
      </trkpt>
      <trkpt lat="47.78905" lon="2.32905">
        <ele>115</ele>
        <time>2017-05-07T08:30:55.361Z</time>
      </trkpt>
      <trkpt lat="47.78908" lon="2.32899">
        <ele>115</ele>
        <time>2017-05-07T08:30:56.360Z</time>
      </trkpt>
      <trkpt lat="47.78908" lon="2.32899">
        <ele>115</ele>
        <time>2017-05-07T08:30:57.356Z</time>
      </trkpt>
      <trkpt lat="47.78914" lon="2.32888">
        <ele>115</ele>
        <time>2017-05-07T08:30:58.361Z</time>
      </trkpt>
      <trkpt lat="47.78916" lon="2.32881">
        <ele>115</ele>
        <time>2017-05-07T08:30:59.365Z</time>
      </trkpt>
      <trkpt lat="47.78916" lon="2.32881">
        <ele>115</ele>
        <time>2017-05-07T08:31:00.361Z</time>
      </trkpt>
      <trkpt lat="47.78921" lon="2.32869">
        <ele>115</ele>
        <time>2017-05-07T08:31:01.363Z</time>
      </trkpt>
      <trkpt lat="47.78921" lon="2.32869">
        <ele>115</ele>
        <time>2017-05-07T08:31:02.357Z</time>
      </trkpt>
      <trkpt lat="47.78926" lon="2.32857">
        <ele>115</ele>
        <time>2017-05-07T08:31:03.363Z</time>
      </trkpt>
      <trkpt lat="47.78929" lon="2.32851">
        <ele>115</ele>
        <time>2017-05-07T08:31:04.364Z</time>
      </trkpt>
      <trkpt lat="47.78929" lon="2.32851">
        <ele>115</ele>
        <time>2017-05-07T08:31:05.360Z</time>
      </trkpt>
      <trkpt lat="47.78935" lon="2.32838">
        <ele>115</ele>
        <time>2017-05-07T08:31:06.363Z</time>
      </trkpt>
      <trkpt lat="47.78935" lon="2.32838">
        <ele>115</ele>
        <time>2017-05-07T08:31:07.359Z</time>
      </trkpt>
      <trkpt lat="47.7894" lon="2.32826">
        <ele>115</ele>
        <time>2017-05-07T08:31:08.360Z</time>
      </trkpt>
      <trkpt lat="47.7894" lon="2.32826">
        <ele>115</ele>
        <time>2017-05-07T08:31:09.358Z</time>
      </trkpt>
      <trkpt lat="47.78946" lon="2.32814">
        <ele>115</ele>
        <time>2017-05-07T08:31:10.362Z</time>
      </trkpt>
      <trkpt lat="47.78948" lon="2.32808">
        <ele>115</ele>
        <time>2017-05-07T08:31:11.364Z</time>
      </trkpt>
      <trkpt lat="47.78948" lon="2.32808">
        <ele>115</ele>
        <time>2017-05-07T08:31:12.357Z</time>
      </trkpt>
      <trkpt lat="47.78953" lon="2.32796">
        <ele>115</ele>
        <time>2017-05-07T08:31:13.363Z</time>
      </trkpt>
      <trkpt lat="47.78953" lon="2.32796">
        <ele>115</ele>
        <time>2017-05-07T08:31:14.357Z</time>
      </trkpt>
      <trkpt lat="47.78958" lon="2.32784">
        <ele>115</ele>
        <time>2017-05-07T08:31:15.363Z</time>
      </trkpt>
      <trkpt lat="47.78958" lon="2.32784">
        <ele>115</ele>
        <time>2017-05-07T08:31:16.357Z</time>
      </trkpt>
      <trkpt lat="47.78964" lon="2.32772">
        <ele>115</ele>
        <time>2017-05-07T08:31:17.385Z</time>
      </trkpt>
      <trkpt lat="47.78964" lon="2.32772">
        <ele>115</ele>
        <time>2017-05-07T08:31:18.383Z</time>
      </trkpt>
      <trkpt lat="47.78969" lon="2.3276">
        <ele>115</ele>
        <time>2017-05-07T08:31:19.372Z</time>
      </trkpt>
      <trkpt lat="47.78969" lon="2.3276">
        <ele>115</ele>
        <time>2017-05-07T08:31:20.357Z</time>
      </trkpt>
      <trkpt lat="47.78975" lon="2.32746">
        <ele>115</ele>
        <time>2017-05-07T08:31:21.378Z</time>
      </trkpt>
      <trkpt lat="47.78975" lon="2.32746">
        <ele>115</ele>
        <time>2017-05-07T08:31:22.365Z</time>
      </trkpt>
      <trkpt lat="47.78979" lon="2.32732">
        <ele>115</ele>
        <time>2017-05-07T08:31:23.379Z</time>
      </trkpt>
      <trkpt lat="47.78979" lon="2.32732">
        <ele>115</ele>
        <time>2017-05-07T08:31:24.378Z</time>
      </trkpt>
      <trkpt lat="47.78984" lon="2.32718">
        <ele>115</ele>
        <time>2017-05-07T08:31:25.367Z</time>
      </trkpt>
      <trkpt lat="47.78984" lon="2.32718">
        <ele>115</ele>
        <time>2017-05-07T08:31:26.359Z</time>
      </trkpt>
      <trkpt lat="47.78988" lon="2.32703">
        <ele>115</ele>
        <time>2017-05-07T08:31:27.363Z</time>
      </trkpt>
      <trkpt lat="47.78988" lon="2.32703">
        <ele>115</ele>
        <time>2017-05-07T08:31:28.383Z</time>
      </trkpt>
      <trkpt lat="47.78992" lon="2.3269">
        <ele>115</ele>
        <time>2017-05-07T08:31:29.375Z</time>
      </trkpt>
      <trkpt lat="47.78992" lon="2.3269">
        <ele>115</ele>
        <time>2017-05-07T08:31:30.358Z</time>
      </trkpt>
      <trkpt lat="47.78995" lon="2.32676">
        <ele>115</ele>
        <time>2017-05-07T08:31:31.373Z</time>
      </trkpt>
      <trkpt lat="47.78995" lon="2.32676">
        <ele>115</ele>
        <time>2017-05-07T08:31:32.357Z</time>
      </trkpt>
      <trkpt lat="47.78999" lon="2.32662">
        <ele>115</ele>
        <time>2017-05-07T08:31:33.364Z</time>
      </trkpt>
      <trkpt lat="47.78999" lon="2.32662">
        <ele>115</ele>
        <time>2017-05-07T08:31:34.370Z</time>
      </trkpt>
      <trkpt lat="47.79002" lon="2.32648">
        <ele>115</ele>
        <time>2017-05-07T08:31:35.376Z</time>
      </trkpt>
      <trkpt lat="47.79002" lon="2.32648">
        <ele>115</ele>
        <time>2017-05-07T08:31:36.364Z</time>
      </trkpt>
      <trkpt lat="47.79005" lon="2.32632">
        <ele>116</ele>
        <time>2017-05-07T08:31:37.360Z</time>
      </trkpt>
      <trkpt lat="47.79005" lon="2.32632">
        <ele>116</ele>
        <time>2017-05-07T08:31:38.394Z</time>
      </trkpt>
      <trkpt lat="47.79007" lon="2.32616">
        <ele>116</ele>
        <time>2017-05-07T08:31:39.363Z</time>
      </trkpt>
      <trkpt lat="47.79007" lon="2.32616">
        <ele>116</ele>
        <time>2017-05-07T08:31:40.367Z</time>
      </trkpt>
      <trkpt lat="47.7901" lon="2.32601">
        <ele>116</ele>
        <time>2017-05-07T08:31:41.364Z</time>
      </trkpt>
      <trkpt lat="47.7901" lon="2.32601">
        <ele>116</ele>
        <time>2017-05-07T08:31:42.357Z</time>
      </trkpt>
      <trkpt lat="47.79013" lon="2.32586">
        <ele>116</ele>
        <time>2017-05-07T08:31:43.362Z</time>
      </trkpt>
      <trkpt lat="47.79013" lon="2.32586">
        <ele>116</ele>
        <time>2017-05-07T08:31:44.394Z</time>
      </trkpt>
      <trkpt lat="47.79017" lon="2.32572">
        <ele>116</ele>
        <time>2017-05-07T08:31:45.363Z</time>
      </trkpt>
      <trkpt lat="47.79017" lon="2.32572">
        <ele>116</ele>
        <time>2017-05-07T08:31:46.358Z</time>
      </trkpt>
      <trkpt lat="47.7902" lon="2.32559">
        <ele>116</ele>
        <time>2017-05-07T08:31:47.365Z</time>
      </trkpt>
      <trkpt lat="47.7902" lon="2.32559">
        <ele>116</ele>
        <time>2017-05-07T08:31:48.357Z</time>
      </trkpt>
      <trkpt lat="47.79023" lon="2.32545">
        <ele>116</ele>
        <time>2017-05-07T08:31:49.363Z</time>
      </trkpt>
      <trkpt lat="47.79023" lon="2.32545">
        <ele>116</ele>
        <time>2017-05-07T08:31:50.357Z</time>
      </trkpt>
      <trkpt lat="47.79026" lon="2.32531">
        <ele>116</ele>
        <time>2017-05-07T08:31:51.362Z</time>
      </trkpt>
      <trkpt lat="47.79026" lon="2.32531">
        <ele>116</ele>
        <time>2017-05-07T08:31:52.362Z</time>
      </trkpt>
      <trkpt lat="47.79029" lon="2.32517">
        <ele>116</ele>
        <time>2017-05-07T08:31:53.365Z</time>
      </trkpt>
      <trkpt lat="47.79029" lon="2.32517">
        <ele>116</ele>
        <time>2017-05-07T08:31:54.378Z</time>
      </trkpt>
      <trkpt lat="47.79032" lon="2.32502">
        <ele>116</ele>
        <time>2017-05-07T08:31:55.368Z</time>
      </trkpt>
      <trkpt lat="47.79033" lon="2.32495">
        <ele>116</ele>
        <time>2017-05-07T08:31:56.361Z</time>
      </trkpt>
      <trkpt lat="47.79033" lon="2.32495">
        <ele>116</ele>
        <time>2017-05-07T08:31:57.355Z</time>
      </trkpt>
      <trkpt lat="47.79036" lon="2.3248">
        <ele>116</ele>
        <time>2017-05-07T08:31:58.361Z</time>
      </trkpt>
      <trkpt lat="47.79036" lon="2.3248">
        <ele>116</ele>
        <time>2017-05-07T08:31:59.371Z</time>
      </trkpt>
      <trkpt lat="47.7904" lon="2.32465">
        <ele>116</ele>
        <time>2017-05-07T08:32:00.381Z</time>
      </trkpt>
      <trkpt lat="47.79041" lon="2.32457">
        <ele>116</ele>
        <time>2017-05-07T08:32:01.388Z</time>
      </trkpt>
      <trkpt lat="47.79041" lon="2.32457">
        <ele>116</ele>
        <time>2017-05-07T08:32:02.393Z</time>
      </trkpt>
      <trkpt lat="47.79045" lon="2.32441">
        <ele>116</ele>
        <time>2017-05-07T08:32:03.362Z</time>
      </trkpt>
      <trkpt lat="47.79045" lon="2.32441">
        <ele>116</ele>
        <time>2017-05-07T08:32:04.390Z</time>
      </trkpt>
      <trkpt lat="47.79048" lon="2.32425">
        <ele>116</ele>
        <time>2017-05-07T08:32:05.379Z</time>
      </trkpt>
      <trkpt lat="47.79048" lon="2.32425">
        <ele>116</ele>
        <time>2017-05-07T08:32:06.373Z</time>
      </trkpt>
      <trkpt lat="47.79051" lon="2.32408">
        <ele>116</ele>
        <time>2017-05-07T08:32:07.363Z</time>
      </trkpt>
      <trkpt lat="47.79051" lon="2.32408">
        <ele>116</ele>
        <time>2017-05-07T08:32:08.358Z</time>
      </trkpt>
      <trkpt lat="47.79055" lon="2.32392">
        <ele>116</ele>
        <time>2017-05-07T08:32:09.363Z</time>
      </trkpt>
      <trkpt lat="47.79055" lon="2.32392">
        <ele>116</ele>
        <time>2017-05-07T08:32:10.393Z</time>
      </trkpt>
      <trkpt lat="47.79058" lon="2.32376">
        <ele>116</ele>
        <time>2017-05-07T08:32:11.381Z</time>
      </trkpt>
      <trkpt lat="47.79058" lon="2.32376">
        <ele>116</ele>
        <time>2017-05-07T08:32:12.378Z</time>
      </trkpt>
      <trkpt lat="47.7906" lon="2.3236">
        <ele>116</ele>
        <time>2017-05-07T08:32:13.373Z</time>
      </trkpt>
      <trkpt lat="47.7906" lon="2.3236">
        <ele>116</ele>
        <time>2017-05-07T08:32:14.361Z</time>
      </trkpt>
      <trkpt lat="47.79063" lon="2.32344">
        <ele>116</ele>
        <time>2017-05-07T08:32:15.363Z</time>
      </trkpt>
      <trkpt lat="47.79063" lon="2.32344">
        <ele>116</ele>
        <time>2017-05-07T08:32:16.358Z</time>
      </trkpt>
      <trkpt lat="47.79065" lon="2.32327">
        <ele>115</ele>
        <time>2017-05-07T08:32:17.366Z</time>
      </trkpt>
      <trkpt lat="47.79065" lon="2.32327">
        <ele>115</ele>
        <time>2017-05-07T08:32:18.363Z</time>
      </trkpt>
      <trkpt lat="47.79067" lon="2.3231">
        <ele>115</ele>
        <time>2017-05-07T08:32:19.363Z</time>
      </trkpt>
      <trkpt lat="47.79067" lon="2.3231">
        <ele>115</ele>
        <time>2017-05-07T08:32:20.361Z</time>
      </trkpt>
      <trkpt lat="47.79069" lon="2.32293">
        <ele>115</ele>
        <time>2017-05-07T08:32:21.379Z</time>
      </trkpt>
      <trkpt lat="47.79069" lon="2.32293">
        <ele>115</ele>
        <time>2017-05-07T08:32:22.367Z</time>
      </trkpt>
      <trkpt lat="47.79071" lon="2.32276">
        <ele>115</ele>
        <time>2017-05-07T08:32:23.367Z</time>
      </trkpt>
      <trkpt lat="47.79072" lon="2.32267">
        <ele>115</ele>
        <time>2017-05-07T08:32:24.382Z</time>
      </trkpt>
      <trkpt lat="47.79072" lon="2.32267">
        <ele>115</ele>
        <time>2017-05-07T08:32:25.370Z</time>
      </trkpt>
      <trkpt lat="47.79073" lon="2.3225">
        <ele>115</ele>
        <time>2017-05-07T08:32:26.362Z</time>
      </trkpt>
      <trkpt lat="47.79073" lon="2.3225">
        <ele>115</ele>
        <time>2017-05-07T08:32:27.358Z</time>
      </trkpt>
      <trkpt lat="47.79075" lon="2.32232">
        <ele>115</ele>
        <time>2017-05-07T08:32:28.364Z</time>
      </trkpt>
      <trkpt lat="47.79076" lon="2.32223">
        <ele>114</ele>
        <time>2017-05-07T08:32:29.362Z</time>
      </trkpt>
      <trkpt lat="47.79076" lon="2.32223">
        <ele>114</ele>
        <time>2017-05-07T08:32:30.358Z</time>
      </trkpt>
      <trkpt lat="47.79078" lon="2.32205">
        <ele>114</ele>
        <time>2017-05-07T08:32:31.363Z</time>
      </trkpt>
      <trkpt lat="47.79078" lon="2.32205">
        <ele>114</ele>
        <time>2017-05-07T08:32:32.359Z</time>
      </trkpt>
      <trkpt lat="47.7908" lon="2.32187">
        <ele>114</ele>
        <time>2017-05-07T08:32:33.363Z</time>
      </trkpt>
      <trkpt lat="47.7908" lon="2.32187">
        <ele>114</ele>
        <time>2017-05-07T08:32:34.362Z</time>
      </trkpt>
      <trkpt lat="47.79082" lon="2.3217">
        <ele>115</ele>
        <time>2017-05-07T08:32:35.367Z</time>
      </trkpt>
      <trkpt lat="47.79082" lon="2.3217">
        <ele>115</ele>
        <time>2017-05-07T08:32:36.358Z</time>
      </trkpt>
      <trkpt lat="47.79083" lon="2.32152">
        <ele>115</ele>
        <time>2017-05-07T08:32:37.365Z</time>
      </trkpt>
      <trkpt lat="47.79083" lon="2.32152">
        <ele>115</ele>
        <time>2017-05-07T08:32:38.357Z</time>
      </trkpt>
      <trkpt lat="47.79085" lon="2.32135">
        <ele>115</ele>
        <time>2017-05-07T08:32:39.363Z</time>
      </trkpt>
      <trkpt lat="47.79085" lon="2.32135">
        <ele>115</ele>
        <time>2017-05-07T08:32:40.357Z</time>
      </trkpt>
      <trkpt lat="47.79085" lon="2.32117">
        <ele>115</ele>
        <time>2017-05-07T08:32:41.371Z</time>
      </trkpt>
      <trkpt lat="47.79085" lon="2.32117">
        <ele>115</ele>
        <time>2017-05-07T08:32:42.360Z</time>
      </trkpt>
      <trkpt lat="47.79085" lon="2.32099">
        <ele>115</ele>
        <time>2017-05-07T08:32:43.363Z</time>
      </trkpt>
      <trkpt lat="47.79085" lon="2.32099">
        <ele>115</ele>
        <time>2017-05-07T08:32:44.358Z</time>
      </trkpt>
      <trkpt lat="47.79085" lon="2.32081">
        <ele>115</ele>
        <time>2017-05-07T08:32:45.363Z</time>
      </trkpt>
      <trkpt lat="47.79085" lon="2.32081">
        <ele>115</ele>
        <time>2017-05-07T08:32:46.358Z</time>
      </trkpt>
      <trkpt lat="47.79085" lon="2.32062">
        <ele>115</ele>
        <time>2017-05-07T08:32:47.364Z</time>
      </trkpt>
      <trkpt lat="47.79085" lon="2.32062">
        <ele>115</ele>
        <time>2017-05-07T08:32:48.358Z</time>
      </trkpt>
      <trkpt lat="47.79085" lon="2.32043">
        <ele>115</ele>
        <time>2017-05-07T08:32:49.363Z</time>
      </trkpt>
      <trkpt lat="47.79085" lon="2.32043">
        <ele>115</ele>
        <time>2017-05-07T08:32:50.358Z</time>
      </trkpt>
      <trkpt lat="47.79084" lon="2.32026">
        <ele>115</ele>
        <time>2017-05-07T08:32:51.378Z</time>
      </trkpt>
      <trkpt lat="47.79084" lon="2.32026">
        <ele>115</ele>
        <time>2017-05-07T08:32:52.366Z</time>
      </trkpt>
      <trkpt lat="47.79084" lon="2.32007">
        <ele>115</ele>
        <time>2017-05-07T08:32:53.366Z</time>
      </trkpt>
      <trkpt lat="47.79084" lon="2.32007">
        <ele>115</ele>
        <time>2017-05-07T08:32:54.358Z</time>
      </trkpt>
      <trkpt lat="47.79084" lon="2.31989">
        <ele>115</ele>
        <time>2017-05-07T08:32:55.363Z</time>
      </trkpt>
      <trkpt lat="47.79084" lon="2.31989">
        <ele>115</ele>
        <time>2017-05-07T08:32:56.358Z</time>
      </trkpt>
      <trkpt lat="47.79083" lon="2.31972">
        <ele>115</ele>
        <time>2017-05-07T08:32:57.363Z</time>
      </trkpt>
      <trkpt lat="47.79083" lon="2.31963">
        <ele>115</ele>
        <time>2017-05-07T08:32:58.363Z</time>
      </trkpt>
      <trkpt lat="47.79083" lon="2.31963">
        <ele>115</ele>
        <time>2017-05-07T08:32:59.356Z</time>
      </trkpt>
      <trkpt lat="47.79082" lon="2.31944">
        <ele>115</ele>
        <time>2017-05-07T08:33:00.378Z</time>
      </trkpt>
      <trkpt lat="47.79082" lon="2.31935">
        <ele>115</ele>
        <time>2017-05-07T08:33:01.363Z</time>
      </trkpt>
      <trkpt lat="47.79082" lon="2.31935">
        <ele>115</ele>
        <time>2017-05-07T08:33:02.358Z</time>
      </trkpt>
      <trkpt lat="47.79082" lon="2.31917">
        <ele>115</ele>
        <time>2017-05-07T08:33:03.361Z</time>
      </trkpt>
      <trkpt lat="47.79082" lon="2.31917">
        <ele>115</ele>
        <time>2017-05-07T08:33:04.358Z</time>
      </trkpt>
      <trkpt lat="47.79081" lon="2.31899">
        <ele>115</ele>
        <time>2017-05-07T08:33:05.366Z</time>
      </trkpt>
      <trkpt lat="47.79081" lon="2.31899">
        <ele>115</ele>
        <time>2017-05-07T08:33:06.358Z</time>
      </trkpt>
      <trkpt lat="47.79081" lon="2.31881">
        <ele>115</ele>
        <time>2017-05-07T08:33:07.363Z</time>
      </trkpt>
      <trkpt lat="47.79081" lon="2.31881">
        <ele>115</ele>
        <time>2017-05-07T08:33:08.358Z</time>
      </trkpt>
      <trkpt lat="47.79081" lon="2.31863">
        <ele>115</ele>
        <time>2017-05-07T08:33:09.370Z</time>
      </trkpt>
      <trkpt lat="47.79081" lon="2.31863">
        <ele>115</ele>
        <time>2017-05-07T08:33:10.362Z</time>
      </trkpt>
      <trkpt lat="47.7908" lon="2.31847">
        <ele>114</ele>
        <time>2017-05-07T08:33:11.363Z</time>
      </trkpt>
      <trkpt lat="47.7908" lon="2.31839">
        <ele>115</ele>
        <time>2017-05-07T08:33:12.361Z</time>
      </trkpt>
      <trkpt lat="47.7908" lon="2.31839">
        <ele>115</ele>
        <time>2017-05-07T08:33:13.356Z</time>
      </trkpt>
      <trkpt lat="47.7908" lon="2.31823">
        <ele>115</ele>
        <time>2017-05-07T08:33:14.362Z</time>
      </trkpt>
      <trkpt lat="47.79079" lon="2.31815">
        <ele>115</ele>
        <time>2017-05-07T08:33:15.363Z</time>
      </trkpt>
      <trkpt lat="47.79079" lon="2.31815">
        <ele>115</ele>
        <time>2017-05-07T08:33:16.358Z</time>
      </trkpt>
      <trkpt lat="47.79079" lon="2.31799">
        <ele>115</ele>
        <time>2017-05-07T08:33:17.365Z</time>
      </trkpt>
      <trkpt lat="47.79079" lon="2.31799">
        <ele>115</ele>
        <time>2017-05-07T08:33:18.358Z</time>
      </trkpt>
      <trkpt lat="47.79078" lon="2.31784">
        <ele>116</ele>
        <time>2017-05-07T08:33:19.363Z</time>
      </trkpt>
      <trkpt lat="47.79078" lon="2.31784">
        <ele>116</ele>
        <time>2017-05-07T08:33:20.358Z</time>
      </trkpt>
      <trkpt lat="47.79078" lon="2.31769">
        <ele>116</ele>
        <time>2017-05-07T08:33:21.382Z</time>
      </trkpt>
      <trkpt lat="47.79078" lon="2.31769">
        <ele>116</ele>
        <time>2017-05-07T08:33:22.369Z</time>
      </trkpt>
      <trkpt lat="47.79078" lon="2.31755">
        <ele>116</ele>
        <time>2017-05-07T08:33:23.367Z</time>
      </trkpt>
      <trkpt lat="47.79078" lon="2.31755">
        <ele>116</ele>
        <time>2017-05-07T08:33:24.357Z</time>
      </trkpt>
      <trkpt lat="47.79079" lon="2.31741">
        <ele>116</ele>
        <time>2017-05-07T08:33:25.383Z</time>
      </trkpt>
      <trkpt lat="47.79079" lon="2.31741">
        <ele>116</ele>
        <time>2017-05-07T08:33:26.371Z</time>
      </trkpt>
      <trkpt lat="47.79079" lon="2.31728">
        <ele>116</ele>
        <time>2017-05-07T08:33:27.363Z</time>
      </trkpt>
      <trkpt lat="47.79079" lon="2.31728">
        <ele>116</ele>
        <time>2017-05-07T08:33:28.359Z</time>
      </trkpt>
      <trkpt lat="47.79081" lon="2.31714">
        <ele>116</ele>
        <time>2017-05-07T08:33:29.371Z</time>
      </trkpt>
      <trkpt lat="47.79081" lon="2.31714">
        <ele>116</ele>
        <time>2017-05-07T08:33:30.362Z</time>
      </trkpt>
      <trkpt lat="47.79082" lon="2.317">
        <ele>116</ele>
        <time>2017-05-07T08:33:31.371Z</time>
      </trkpt>
      <trkpt lat="47.79082" lon="2.31693">
        <ele>116</ele>
        <time>2017-05-07T08:33:32.364Z</time>
      </trkpt>
      <trkpt lat="47.79082" lon="2.31693">
        <ele>116</ele>
        <time>2017-05-07T08:33:33.358Z</time>
      </trkpt>
      <trkpt lat="47.79083" lon="2.31678">
        <ele>116</ele>
        <time>2017-05-07T08:33:34.363Z</time>
      </trkpt>
      <trkpt lat="47.79083" lon="2.3167">
        <ele>116</ele>
        <time>2017-05-07T08:33:35.366Z</time>
      </trkpt>
      <trkpt lat="47.79083" lon="2.3167">
        <ele>116</ele>
        <time>2017-05-07T08:33:36.358Z</time>
      </trkpt>
      <trkpt lat="47.79083" lon="2.31654">
        <ele>116</ele>
        <time>2017-05-07T08:33:37.361Z</time>
      </trkpt>
      <trkpt lat="47.79083" lon="2.31654">
        <ele>116</ele>
        <time>2017-05-07T08:33:38.360Z</time>
      </trkpt>
      <trkpt lat="47.79081" lon="2.31638">
        <ele>116</ele>
        <time>2017-05-07T08:33:39.363Z</time>
      </trkpt>
      <trkpt lat="47.79081" lon="2.31638">
        <ele>116</ele>
        <time>2017-05-07T08:33:40.358Z</time>
      </trkpt>
      <trkpt lat="47.7908" lon="2.31623">
        <ele>116</ele>
        <time>2017-05-07T08:33:41.386Z</time>
      </trkpt>
      <trkpt lat="47.7908" lon="2.31623">
        <ele>116</ele>
        <time>2017-05-07T08:33:42.378Z</time>
      </trkpt>
      <trkpt lat="47.79078" lon="2.31609">
        <ele>116</ele>
        <time>2017-05-07T08:33:43.365Z</time>
      </trkpt>
      <trkpt lat="47.79078" lon="2.31609">
        <ele>116</ele>
        <time>2017-05-07T08:33:44.358Z</time>
      </trkpt>
      <trkpt lat="47.79077" lon="2.31594">
        <ele>116</ele>
        <time>2017-05-07T08:33:45.364Z</time>
      </trkpt>
      <trkpt lat="47.79077" lon="2.31594">
        <ele>116</ele>
        <time>2017-05-07T08:33:46.358Z</time>
      </trkpt>
      <trkpt lat="47.79075" lon="2.3158">
        <ele>116</ele>
        <time>2017-05-07T08:33:47.365Z</time>
      </trkpt>
      <trkpt lat="47.79075" lon="2.3158">
        <ele>116</ele>
        <time>2017-05-07T08:33:48.358Z</time>
      </trkpt>
      <trkpt lat="47.79074" lon="2.31565">
        <ele>116</ele>
        <time>2017-05-07T08:33:49.363Z</time>
      </trkpt>
      <trkpt lat="47.79074" lon="2.31565">
        <ele>116</ele>
        <time>2017-05-07T08:33:50.357Z</time>
      </trkpt>
      <trkpt lat="47.79072" lon="2.31551">
        <ele>116</ele>
        <time>2017-05-07T08:33:51.363Z</time>
      </trkpt>
      <trkpt lat="47.79072" lon="2.31551">
        <ele>116</ele>
        <time>2017-05-07T08:33:52.371Z</time>
      </trkpt>
      <trkpt lat="47.7907" lon="2.31537">
        <ele>116</ele>
        <time>2017-05-07T08:33:53.366Z</time>
      </trkpt>
      <trkpt lat="47.7907" lon="2.31537">
        <ele>116</ele>
        <time>2017-05-07T08:33:54.358Z</time>
      </trkpt>
      <trkpt lat="47.79068" lon="2.31522">
        <ele>116</ele>
        <time>2017-05-07T08:33:55.363Z</time>
      </trkpt>
      <trkpt lat="47.79068" lon="2.31522">
        <ele>116</ele>
        <time>2017-05-07T08:33:56.358Z</time>
      </trkpt>
      <trkpt lat="47.79067" lon="2.31506">
        <ele>116</ele>
        <time>2017-05-07T08:33:57.363Z</time>
      </trkpt>
      <trkpt lat="47.79066" lon="2.31498">
        <ele>116</ele>
        <time>2017-05-07T08:33:58.364Z</time>
      </trkpt>
      <trkpt lat="47.79066" lon="2.31498">
        <ele>116</ele>
        <time>2017-05-07T08:33:59.358Z</time>
      </trkpt>
      <trkpt lat="47.79065" lon="2.31484">
        <ele>116</ele>
        <time>2017-05-07T08:34:00.363Z</time>
      </trkpt>
      <trkpt lat="47.79065" lon="2.31484">
        <ele>116</ele>
        <time>2017-05-07T08:34:01.394Z</time>
      </trkpt>
      <trkpt lat="47.79063" lon="2.31469">
        <ele>116</ele>
        <time>2017-05-07T08:34:02.364Z</time>
      </trkpt>
      <trkpt lat="47.79063" lon="2.31469">
        <ele>116</ele>
        <time>2017-05-07T08:34:03.358Z</time>
      </trkpt>
      <trkpt lat="47.79062" lon="2.31454">
        <ele>116</ele>
        <time>2017-05-07T08:34:04.363Z</time>
      </trkpt>
      <trkpt lat="47.79061" lon="2.31446">
        <ele>115</ele>
        <time>2017-05-07T08:34:05.366Z</time>
      </trkpt>
      <trkpt lat="47.79061" lon="2.31446">
        <ele>115</ele>
        <time>2017-05-07T08:34:06.358Z</time>
      </trkpt>
      <trkpt lat="47.7906" lon="2.3143">
        <ele>115</ele>
        <time>2017-05-07T08:34:07.363Z</time>
      </trkpt>
      <trkpt lat="47.7906" lon="2.3143">
        <ele>115</ele>
        <time>2017-05-07T08:34:08.358Z</time>
      </trkpt>
      <trkpt lat="47.79059" lon="2.31414">
        <ele>115</ele>
        <time>2017-05-07T08:34:09.363Z</time>
      </trkpt>
      <trkpt lat="47.79058" lon="2.31406">
        <ele>115</ele>
        <time>2017-05-07T08:34:10.363Z</time>
      </trkpt>
      <trkpt lat="47.79058" lon="2.31406">
        <ele>115</ele>
        <time>2017-05-07T08:34:11.378Z</time>
      </trkpt>
      <trkpt lat="47.79057" lon="2.3139">
        <ele>115</ele>
        <time>2017-05-07T08:34:12.366Z</time>
      </trkpt>
      <trkpt lat="47.79057" lon="2.31382">
        <ele>115</ele>
        <time>2017-05-07T08:34:13.363Z</time>
      </trkpt>
      <trkpt lat="47.79057" lon="2.31382">
        <ele>115</ele>
        <time>2017-05-07T08:34:14.357Z</time>
      </trkpt>
      <trkpt lat="47.79056" lon="2.31366">
        <ele>115</ele>
        <time>2017-05-07T08:34:15.359Z</time>
      </trkpt>
      <trkpt lat="47.79055" lon="2.31359">
        <ele>115</ele>
        <time>2017-05-07T08:34:16.365Z</time>
      </trkpt>
      <trkpt lat="47.79054" lon="2.31351">
        <ele>115</ele>
        <time>2017-05-07T08:34:17.371Z</time>
      </trkpt>
      <trkpt lat="47.79054" lon="2.31351">
        <ele>115</ele>
        <time>2017-05-07T08:34:18.360Z</time>
      </trkpt>
      <trkpt lat="47.79053" lon="2.31335">
        <ele>115</ele>
        <time>2017-05-07T08:34:19.363Z</time>
      </trkpt>
      <trkpt lat="47.79053" lon="2.31335">
        <ele>115</ele>
        <time>2017-05-07T08:34:20.358Z</time>
      </trkpt>
      <trkpt lat="47.79052" lon="2.3132">
        <ele>114</ele>
        <time>2017-05-07T08:34:21.378Z</time>
      </trkpt>
      <trkpt lat="47.79052" lon="2.3132">
        <ele>114</ele>
        <time>2017-05-07T08:34:22.365Z</time>
      </trkpt>
      <trkpt lat="47.79052" lon="2.31305">
        <ele>115</ele>
        <time>2017-05-07T08:34:23.365Z</time>
      </trkpt>
      <trkpt lat="47.79051" lon="2.31298">
        <ele>114</ele>
        <time>2017-05-07T08:34:24.366Z</time>
      </trkpt>
      <trkpt lat="47.79051" lon="2.31298">
        <ele>114</ele>
        <time>2017-05-07T08:34:25.355Z</time>
      </trkpt>
      <trkpt lat="47.79051" lon="2.31282">
        <ele>114</ele>
        <time>2017-05-07T08:34:26.363Z</time>
      </trkpt>
      <trkpt lat="47.79051" lon="2.31282">
        <ele>114</ele>
        <time>2017-05-07T08:34:27.358Z</time>
      </trkpt>
      <trkpt lat="47.7905" lon="2.31266">
        <ele>114</ele>
        <time>2017-05-07T08:34:28.367Z</time>
      </trkpt>
      <trkpt lat="47.79049" lon="2.31258">
        <ele>114</ele>
        <time>2017-05-07T08:34:29.370Z</time>
      </trkpt>
      <trkpt lat="47.79049" lon="2.31258">
        <ele>114</ele>
        <time>2017-05-07T08:34:30.358Z</time>
      </trkpt>
      <trkpt lat="47.79049" lon="2.31242">
        <ele>114</ele>
        <time>2017-05-07T08:34:31.361Z</time>
      </trkpt>
      <trkpt lat="47.79049" lon="2.31242">
        <ele>114</ele>
        <time>2017-05-07T08:34:32.359Z</time>
      </trkpt>
      <trkpt lat="47.79047" lon="2.31226">
        <ele>114</ele>
        <time>2017-05-07T08:34:33.363Z</time>
      </trkpt>
      <trkpt lat="47.79047" lon="2.31226">
        <ele>114</ele>
        <time>2017-05-07T08:34:34.358Z</time>
      </trkpt>
      <trkpt lat="47.79046" lon="2.3121">
        <ele>114</ele>
        <time>2017-05-07T08:34:35.366Z</time>
      </trkpt>
      <trkpt lat="47.79046" lon="2.3121">
        <ele>114</ele>
        <time>2017-05-07T08:34:36.359Z</time>
      </trkpt>
      <trkpt lat="47.79045" lon="2.31194">
        <ele>114</ele>
        <time>2017-05-07T08:34:37.363Z</time>
      </trkpt>
      <trkpt lat="47.79045" lon="2.31194">
        <ele>114</ele>
        <time>2017-05-07T08:34:38.358Z</time>
      </trkpt>
      <trkpt lat="47.79044" lon="2.31178">
        <ele>114</ele>
        <time>2017-05-07T08:34:39.364Z</time>
      </trkpt>
      <trkpt lat="47.79044" lon="2.31178">
        <ele>114</ele>
        <time>2017-05-07T08:34:40.357Z</time>
      </trkpt>
      <trkpt lat="47.79042" lon="2.31163">
        <ele>114</ele>
        <time>2017-05-07T08:34:41.367Z</time>
      </trkpt>
      <trkpt lat="47.79042" lon="2.31163">
        <ele>114</ele>
        <time>2017-05-07T08:34:42.366Z</time>
      </trkpt>
      <trkpt lat="47.79041" lon="2.31147">
        <ele>114</ele>
        <time>2017-05-07T08:34:43.364Z</time>
      </trkpt>
      <trkpt lat="47.79041" lon="2.31147">
        <ele>114</ele>
        <time>2017-05-07T08:34:44.359Z</time>
      </trkpt>
      <trkpt lat="47.79039" lon="2.31131">
        <ele>114</ele>
        <time>2017-05-07T08:34:45.365Z</time>
      </trkpt>
      <trkpt lat="47.79039" lon="2.31131">
        <ele>114</ele>
        <time>2017-05-07T08:34:46.358Z</time>
      </trkpt>
      <trkpt lat="47.79037" lon="2.31114">
        <ele>114</ele>
        <time>2017-05-07T08:34:47.366Z</time>
      </trkpt>
      <trkpt lat="47.79037" lon="2.31114">
        <ele>114</ele>
        <time>2017-05-07T08:34:48.359Z</time>
      </trkpt>
      <trkpt lat="47.79036" lon="2.31098">
        <ele>114</ele>
        <time>2017-05-07T08:34:49.364Z</time>
      </trkpt>
      <trkpt lat="47.79036" lon="2.31098">
        <ele>114</ele>
        <time>2017-05-07T08:34:50.359Z</time>
      </trkpt>
      <trkpt lat="47.79035" lon="2.31081">
        <ele>114</ele>
        <time>2017-05-07T08:34:51.364Z</time>
      </trkpt>
      <trkpt lat="47.79035" lon="2.31081">
        <ele>114</ele>
        <time>2017-05-07T08:34:52.358Z</time>
      </trkpt>
      <trkpt lat="47.79034" lon="2.31065">
        <ele>114</ele>
        <time>2017-05-07T08:34:53.366Z</time>
      </trkpt>
      <trkpt lat="47.79034" lon="2.31065">
        <ele>114</ele>
        <time>2017-05-07T08:34:54.358Z</time>
      </trkpt>
      <trkpt lat="47.79033" lon="2.31049">
        <ele>114</ele>
        <time>2017-05-07T08:34:55.365Z</time>
      </trkpt>
      <trkpt lat="47.79033" lon="2.31049">
        <ele>114</ele>
        <time>2017-05-07T08:34:56.359Z</time>
      </trkpt>
      <trkpt lat="47.79032" lon="2.31032">
        <ele>114</ele>
        <time>2017-05-07T08:34:57.362Z</time>
      </trkpt>
      <trkpt lat="47.79032" lon="2.31032">
        <ele>114</ele>
        <time>2017-05-07T08:34:58.358Z</time>
      </trkpt>
      <trkpt lat="47.7903" lon="2.31016">
        <ele>114</ele>
        <time>2017-05-07T08:34:59.368Z</time>
      </trkpt>
      <trkpt lat="47.7903" lon="2.31016">
        <ele>114</ele>
        <time>2017-05-07T08:35:00.375Z</time>
      </trkpt>
      <trkpt lat="47.7903" lon="2.31">
        <ele>114</ele>
        <time>2017-05-07T08:35:01.378Z</time>
      </trkpt>
      <trkpt lat="47.7903" lon="2.31">
        <ele>114</ele>
        <time>2017-05-07T08:35:02.367Z</time>
      </trkpt>
      <trkpt lat="47.79029" lon="2.30985">
        <ele>114</ele>
        <time>2017-05-07T08:35:03.364Z</time>
      </trkpt>
      <trkpt lat="47.79029" lon="2.30985">
        <ele>114</ele>
        <time>2017-05-07T08:35:04.358Z</time>
      </trkpt>
      <trkpt lat="47.79028" lon="2.30971">
        <ele>114</ele>
        <time>2017-05-07T08:35:05.366Z</time>
      </trkpt>
      <trkpt lat="47.79028" lon="2.30971">
        <ele>114</ele>
        <time>2017-05-07T08:35:06.359Z</time>
      </trkpt>
      <trkpt lat="47.79027" lon="2.30956">
        <ele>114</ele>
        <time>2017-05-07T08:35:07.364Z</time>
      </trkpt>
      <trkpt lat="47.79027" lon="2.30956">
        <ele>114</ele>
        <time>2017-05-07T08:35:08.359Z</time>
      </trkpt>
      <trkpt lat="47.79026" lon="2.30943">
        <ele>114</ele>
        <time>2017-05-07T08:35:09.363Z</time>
      </trkpt>
      <trkpt lat="47.79026" lon="2.30943">
        <ele>114</ele>
        <time>2017-05-07T08:35:10.394Z</time>
      </trkpt>
      <trkpt lat="47.79025" lon="2.3093">
        <ele>114</ele>
        <time>2017-05-07T08:35:11.364Z</time>
      </trkpt>
      <trkpt lat="47.79025" lon="2.3093">
        <ele>114</ele>
        <time>2017-05-07T08:35:12.357Z</time>
      </trkpt>
      <trkpt lat="47.79025" lon="2.30919">
        <ele>114</ele>
        <time>2017-05-07T08:35:13.368Z</time>
      </trkpt>
      <trkpt lat="47.79025" lon="2.30919">
        <ele>114</ele>
        <time>2017-05-07T08:35:14.361Z</time>
      </trkpt>
      <trkpt lat="47.79026" lon="2.30911">
        <ele>114</ele>
        <time>2017-05-07T08:35:15.371Z</time>
      </trkpt>
      <trkpt lat="47.79026" lon="2.30911">
        <ele>114</ele>
        <time>2017-05-07T08:35:16.362Z</time>
      </trkpt>
      <trkpt lat="47.79026" lon="2.30907">
        <ele>113</ele>
        <time>2017-05-07T08:35:17.367Z</time>
      </trkpt>
      <trkpt lat="47.79026" lon="2.30907">
        <ele>113</ele>
        <time>2017-05-07T08:35:18.359Z</time>
      </trkpt>
      <trkpt lat="47.79026" lon="2.30906">
        <ele>113</ele>
        <time>2017-05-07T08:35:19.364Z</time>
      </trkpt>
      <trkpt lat="47.79026" lon="2.30906">
        <ele>113</ele>
        <time>2017-05-07T08:35:20.359Z</time>
      </trkpt>
      <trkpt lat="47.79025" lon="2.30903">
        <ele>114</ele>
        <time>2017-05-07T08:35:21.379Z</time>
      </trkpt>
      <trkpt lat="47.79025" lon="2.30901">
        <ele>114</ele>
        <time>2017-05-07T08:35:22.377Z</time>
      </trkpt>
      <trkpt lat="47.79025" lon="2.30901">
        <ele>114</ele>
        <time>2017-05-07T08:35:23.374Z</time>
      </trkpt>
      <trkpt lat="47.79024" lon="2.30894">
        <ele>114</ele>
        <time>2017-05-07T08:35:24.364Z</time>
      </trkpt>
      <trkpt lat="47.79024" lon="2.30894">
        <ele>114</ele>
        <time>2017-05-07T08:35:25.390Z</time>
      </trkpt>
      <trkpt lat="47.79024" lon="2.30885">
        <ele>114</ele>
        <time>2017-05-07T08:35:26.381Z</time>
      </trkpt>
      <trkpt lat="47.79024" lon="2.30885">
        <ele>114</ele>
        <time>2017-05-07T08:35:27.375Z</time>
      </trkpt>
      <trkpt lat="47.79023" lon="2.30873">
        <ele>114</ele>
        <time>2017-05-07T08:35:28.378Z</time>
      </trkpt>
      <trkpt lat="47.79023" lon="2.30873">
        <ele>114</ele>
        <time>2017-05-07T08:35:29.374Z</time>
      </trkpt>
      <trkpt lat="47.79023" lon="2.30858">
        <ele>114</ele>
        <time>2017-05-07T08:35:30.379Z</time>
      </trkpt>
      <trkpt lat="47.79023" lon="2.30858">
        <ele>114</ele>
        <time>2017-05-07T08:35:31.373Z</time>
      </trkpt>
      <trkpt lat="47.79022" lon="2.30842">
        <ele>114</ele>
        <time>2017-05-07T08:35:32.376Z</time>
      </trkpt>
      <trkpt lat="47.79022" lon="2.30833">
        <ele>114</ele>
        <time>2017-05-07T08:35:33.389Z</time>
      </trkpt>
      <trkpt lat="47.79021" lon="2.30824">
        <ele>114</ele>
        <time>2017-05-07T08:35:34.394Z</time>
      </trkpt>
      <trkpt lat="47.79021" lon="2.30824">
        <ele>114</ele>
        <time>2017-05-07T08:35:35.380Z</time>
      </trkpt>
      <trkpt lat="47.79021" lon="2.30807">
        <ele>114</ele>
        <time>2017-05-07T08:35:36.382Z</time>
      </trkpt>
      <trkpt lat="47.79021" lon="2.30807">
        <ele>114</ele>
        <time>2017-05-07T08:35:37.375Z</time>
      </trkpt>
      <trkpt lat="47.79019" lon="2.30789">
        <ele>114</ele>
        <time>2017-05-07T08:35:38.383Z</time>
      </trkpt>
      <trkpt lat="47.79019" lon="2.30789">
        <ele>114</ele>
        <time>2017-05-07T08:35:39.375Z</time>
      </trkpt>
      <trkpt lat="47.79017" lon="2.30772">
        <ele>114</ele>
        <time>2017-05-07T08:35:40.380Z</time>
      </trkpt>
      <trkpt lat="47.79017" lon="2.30772">
        <ele>114</ele>
        <time>2017-05-07T08:35:41.374Z</time>
      </trkpt>
      <trkpt lat="47.79015" lon="2.30754">
        <ele>114</ele>
        <time>2017-05-07T08:35:42.382Z</time>
      </trkpt>
      <trkpt lat="47.79015" lon="2.30754">
        <ele>114</ele>
        <time>2017-05-07T08:35:43.374Z</time>
      </trkpt>
      <trkpt lat="47.79014" lon="2.30737">
        <ele>114</ele>
        <time>2017-05-07T08:35:44.380Z</time>
      </trkpt>
      <trkpt lat="47.79014" lon="2.30737">
        <ele>114</ele>
        <time>2017-05-07T08:35:45.374Z</time>
      </trkpt>
      <trkpt lat="47.79012" lon="2.3072">
        <ele>114</ele>
        <time>2017-05-07T08:35:46.380Z</time>
      </trkpt>
      <trkpt lat="47.79012" lon="2.3072">
        <ele>114</ele>
        <time>2017-05-07T08:35:47.375Z</time>
      </trkpt>
      <trkpt lat="47.79011" lon="2.30703">
        <ele>114</ele>
        <time>2017-05-07T08:35:48.394Z</time>
      </trkpt>
      <trkpt lat="47.79011" lon="2.30703">
        <ele>114</ele>
        <time>2017-05-07T08:35:49.360Z</time>
      </trkpt>
      <trkpt lat="47.79011" lon="2.30687">
        <ele>114</ele>
        <time>2017-05-07T08:35:50.391Z</time>
      </trkpt>
      <trkpt lat="47.79011" lon="2.30679">
        <ele>114</ele>
        <time>2017-05-07T08:35:51.382Z</time>
      </trkpt>
      <trkpt lat="47.79011" lon="2.30679">
        <ele>114</ele>
        <time>2017-05-07T08:35:52.375Z</time>
      </trkpt>
      <trkpt lat="47.79012" lon="2.30662">
        <ele>114</ele>
        <time>2017-05-07T08:35:53.380Z</time>
      </trkpt>
      <trkpt lat="47.79012" lon="2.30662">
        <ele>114</ele>
        <time>2017-05-07T08:35:54.380Z</time>
      </trkpt>
      <trkpt lat="47.79013" lon="2.30646">
        <ele>114</ele>
        <time>2017-05-07T08:35:55.380Z</time>
      </trkpt>
      <trkpt lat="47.79014" lon="2.30638">
        <ele>115</ele>
        <time>2017-05-07T08:35:56.380Z</time>
      </trkpt>
      <trkpt lat="47.79014" lon="2.30638">
        <ele>115</ele>
        <time>2017-05-07T08:35:57.375Z</time>
      </trkpt>
      <trkpt lat="47.79015" lon="2.30623">
        <ele>115</ele>
        <time>2017-05-07T08:35:58.380Z</time>
      </trkpt>
      <trkpt lat="47.79015" lon="2.30623">
        <ele>115</ele>
        <time>2017-05-07T08:35:59.375Z</time>
      </trkpt>
      <trkpt lat="47.79017" lon="2.30608">
        <ele>115</ele>
        <time>2017-05-07T08:36:00.385Z</time>
      </trkpt>
      <trkpt lat="47.79017" lon="2.30608">
        <ele>115</ele>
        <time>2017-05-07T08:36:01.391Z</time>
      </trkpt>
      <trkpt lat="47.79018" lon="2.30592">
        <ele>115</ele>
        <time>2017-05-07T08:36:02.382Z</time>
      </trkpt>
      <trkpt lat="47.79018" lon="2.30592">
        <ele>115</ele>
        <time>2017-05-07T08:36:03.375Z</time>
      </trkpt>
      <trkpt lat="47.7902" lon="2.30576">
        <ele>115</ele>
        <time>2017-05-07T08:36:04.380Z</time>
      </trkpt>
      <trkpt lat="47.7902" lon="2.30576">
        <ele>115</ele>
        <time>2017-05-07T08:36:05.375Z</time>
      </trkpt>
      <trkpt lat="47.79021" lon="2.3056">
        <ele>115</ele>
        <time>2017-05-07T08:36:06.383Z</time>
      </trkpt>
      <trkpt lat="47.79021" lon="2.3056">
        <ele>115</ele>
        <time>2017-05-07T08:36:07.375Z</time>
      </trkpt>
      <trkpt lat="47.79022" lon="2.30543">
        <ele>115</ele>
        <time>2017-05-07T08:36:08.382Z</time>
      </trkpt>
      <trkpt lat="47.79022" lon="2.30543">
        <ele>115</ele>
        <time>2017-05-07T08:36:09.375Z</time>
      </trkpt>
      <trkpt lat="47.79023" lon="2.30527">
        <ele>115</ele>
        <time>2017-05-07T08:36:10.379Z</time>
      </trkpt>
      <trkpt lat="47.79023" lon="2.30527">
        <ele>115</ele>
        <time>2017-05-07T08:36:11.381Z</time>
      </trkpt>
      <trkpt lat="47.79023" lon="2.3051">
        <ele>115</ele>
        <time>2017-05-07T08:36:12.383Z</time>
      </trkpt>
      <trkpt lat="47.79023" lon="2.3051">
        <ele>115</ele>
        <time>2017-05-07T08:36:13.374Z</time>
      </trkpt>
      <trkpt lat="47.79023" lon="2.30494">
        <ele>114</ele>
        <time>2017-05-07T08:36:14.386Z</time>
      </trkpt>
      <trkpt lat="47.79023" lon="2.30485">
        <ele>114</ele>
        <time>2017-05-07T08:36:15.380Z</time>
      </trkpt>
      <trkpt lat="47.79023" lon="2.30485">
        <ele>114</ele>
        <time>2017-05-07T08:36:16.375Z</time>
      </trkpt>
      <trkpt lat="47.79023" lon="2.30468">
        <ele>114</ele>
        <time>2017-05-07T08:36:17.380Z</time>
      </trkpt>
      <trkpt lat="47.79023" lon="2.30468">
        <ele>114</ele>
        <time>2017-05-07T08:36:18.378Z</time>
      </trkpt>
      <trkpt lat="47.79023" lon="2.30452">
        <ele>114</ele>
        <time>2017-05-07T08:36:19.380Z</time>
      </trkpt>
      <trkpt lat="47.79023" lon="2.30452">
        <ele>114</ele>
        <time>2017-05-07T08:36:20.375Z</time>
      </trkpt>
      <trkpt lat="47.79024" lon="2.30435">
        <ele>114</ele>
        <time>2017-05-07T08:36:21.380Z</time>
      </trkpt>
      <trkpt lat="47.79024" lon="2.30435">
        <ele>114</ele>
        <time>2017-05-07T08:36:22.378Z</time>
      </trkpt>
      <trkpt lat="47.79023" lon="2.30417">
        <ele>113</ele>
        <time>2017-05-07T08:36:23.380Z</time>
      </trkpt>
      <trkpt lat="47.79022" lon="2.30409">
        <ele>113</ele>
        <time>2017-05-07T08:36:24.382Z</time>
      </trkpt>
      <trkpt lat="47.79022" lon="2.30409">
        <ele>113</ele>
        <time>2017-05-07T08:36:25.375Z</time>
      </trkpt>
      <trkpt lat="47.79021" lon="2.30391">
        <ele>113</ele>
        <time>2017-05-07T08:36:26.381Z</time>
      </trkpt>
      <trkpt lat="47.79021" lon="2.30391">
        <ele>113</ele>
        <time>2017-05-07T08:36:27.376Z</time>
      </trkpt>
      <trkpt lat="47.79019" lon="2.30373">
        <ele>114</ele>
        <time>2017-05-07T08:36:28.382Z</time>
      </trkpt>
      <trkpt lat="47.79019" lon="2.30373">
        <ele>114</ele>
        <time>2017-05-07T08:36:29.373Z</time>
      </trkpt>
      <trkpt lat="47.79017" lon="2.30355">
        <ele>114</ele>
        <time>2017-05-07T08:36:30.371Z</time>
      </trkpt>
      <trkpt lat="47.79016" lon="2.30347">
        <ele>114</ele>
        <time>2017-05-07T08:36:31.378Z</time>
      </trkpt>
      <trkpt lat="47.79016" lon="2.30347">
        <ele>114</ele>
        <time>2017-05-07T08:36:32.370Z</time>
      </trkpt>
      <trkpt lat="47.79014" lon="2.30329">
        <ele>114</ele>
        <time>2017-05-07T08:36:33.380Z</time>
      </trkpt>
      <trkpt lat="47.79014" lon="2.30329">
        <ele>114</ele>
        <time>2017-05-07T08:36:34.375Z</time>
      </trkpt>
      <trkpt lat="47.79012" lon="2.30312">
        <ele>114</ele>
        <time>2017-05-07T08:36:35.381Z</time>
      </trkpt>
      <trkpt lat="47.79012" lon="2.30312">
        <ele>114</ele>
        <time>2017-05-07T08:36:36.377Z</time>
      </trkpt>
      <trkpt lat="47.7901" lon="2.30294">
        <ele>114</ele>
        <time>2017-05-07T08:36:37.380Z</time>
      </trkpt>
      <trkpt lat="47.79009" lon="2.30285">
        <ele>114</ele>
        <time>2017-05-07T08:36:38.380Z</time>
      </trkpt>
      <trkpt lat="47.79009" lon="2.30285">
        <ele>114</ele>
        <time>2017-05-07T08:36:39.377Z</time>
      </trkpt>
      <trkpt lat="47.79007" lon="2.30268">
        <ele>114</ele>
        <time>2017-05-07T08:36:40.383Z</time>
      </trkpt>
      <trkpt lat="47.79006" lon="2.30259">
        <ele>114</ele>
        <time>2017-05-07T08:36:41.380Z</time>
      </trkpt>
      <trkpt lat="47.79004" lon="2.3025">
        <ele>114</ele>
        <time>2017-05-07T08:36:42.383Z</time>
      </trkpt>
      <trkpt lat="47.79004" lon="2.3025">
        <ele>114</ele>
        <time>2017-05-07T08:36:43.375Z</time>
      </trkpt>
      <trkpt lat="47.79002" lon="2.30233">
        <ele>114</ele>
        <time>2017-05-07T08:36:44.386Z</time>
      </trkpt>
      <trkpt lat="47.79002" lon="2.30233">
        <ele>114</ele>
        <time>2017-05-07T08:36:45.377Z</time>
      </trkpt>
      <trkpt lat="47.79001" lon="2.30215">
        <ele>114</ele>
        <time>2017-05-07T08:36:46.380Z</time>
      </trkpt>
      <trkpt lat="47.79001" lon="2.30215">
        <ele>114</ele>
        <time>2017-05-07T08:36:47.375Z</time>
      </trkpt>
      <trkpt lat="47.79" lon="2.30198">
        <ele>114</ele>
        <time>2017-05-07T08:36:48.383Z</time>
      </trkpt>
      <trkpt lat="47.79" lon="2.30198">
        <ele>114</ele>
        <time>2017-05-07T08:36:49.378Z</time>
      </trkpt>
      <trkpt lat="47.78997" lon="2.30181">
        <ele>114</ele>
        <time>2017-05-07T08:36:50.380Z</time>
      </trkpt>
      <trkpt lat="47.78997" lon="2.30181">
        <ele>114</ele>
        <time>2017-05-07T08:36:51.383Z</time>
      </trkpt>
      <trkpt lat="47.78996" lon="2.30165">
        <ele>114</ele>
        <time>2017-05-07T08:36:52.380Z</time>
      </trkpt>
      <trkpt lat="47.78995" lon="2.30157">
        <ele>114</ele>
        <time>2017-05-07T08:36:53.380Z</time>
      </trkpt>
      <trkpt lat="47.78995" lon="2.30149">
        <ele>114</ele>
        <time>2017-05-07T08:36:54.383Z</time>
      </trkpt>
      <trkpt lat="47.78995" lon="2.30149">
        <ele>114</ele>
        <time>2017-05-07T08:36:55.394Z</time>
      </trkpt>
      <trkpt lat="47.78994" lon="2.30134">
        <ele>114</ele>
        <time>2017-05-07T08:36:56.390Z</time>
      </trkpt>
      <trkpt lat="47.78994" lon="2.30134">
        <ele>114</ele>
        <time>2017-05-07T08:36:57.355Z</time>
      </trkpt>
      <trkpt lat="47.78993" lon="2.3012">
        <ele>114</ele>
        <time>2017-05-07T08:36:58.361Z</time>
      </trkpt>
      <trkpt lat="47.78993" lon="2.3012">
        <ele>114</ele>
        <time>2017-05-07T08:36:59.394Z</time>
      </trkpt>
      <trkpt lat="47.78993" lon="2.30108">
        <ele>114</ele>
        <time>2017-05-07T08:37:00.383Z</time>
      </trkpt>
      <trkpt lat="47.78993" lon="2.30108">
        <ele>114</ele>
        <time>2017-05-07T08:37:01.380Z</time>
      </trkpt>
      <trkpt lat="47.78992" lon="2.30097">
        <ele>114</ele>
        <time>2017-05-07T08:37:02.383Z</time>
      </trkpt>
      <trkpt lat="47.78992" lon="2.30097">
        <ele>114</ele>
        <time>2017-05-07T08:37:03.389Z</time>
      </trkpt>
      <trkpt lat="47.78991" lon="2.30085">
        <ele>113</ele>
        <time>2017-05-07T08:37:04.383Z</time>
      </trkpt>
      <trkpt lat="47.78991" lon="2.3008">
        <ele>113</ele>
        <time>2017-05-07T08:37:05.381Z</time>
      </trkpt>
      <trkpt lat="47.78991" lon="2.3008">
        <ele>113</ele>
        <time>2017-05-07T08:37:06.379Z</time>
      </trkpt>
      <trkpt lat="47.78991" lon="2.30067">
        <ele>113</ele>
        <time>2017-05-07T08:37:07.384Z</time>
      </trkpt>
      <trkpt lat="47.78991" lon="2.3006">
        <ele>112</ele>
        <time>2017-05-07T08:37:08.389Z</time>
      </trkpt>
      <trkpt lat="47.78991" lon="2.30052">
        <ele>112</ele>
        <time>2017-05-07T08:37:09.361Z</time>
      </trkpt>
      <trkpt lat="47.78991" lon="2.30052">
        <ele>112</ele>
        <time>2017-05-07T08:37:10.384Z</time>
      </trkpt>
      <trkpt lat="47.78992" lon="2.30037">
        <ele>112</ele>
        <time>2017-05-07T08:37:11.380Z</time>
      </trkpt>
      <trkpt lat="47.78993" lon="2.30029">
        <ele>111</ele>
        <time>2017-05-07T08:37:12.383Z</time>
      </trkpt>
      <trkpt lat="47.78993" lon="2.30029">
        <ele>111</ele>
        <time>2017-05-07T08:37:13.379Z</time>
      </trkpt>
      <trkpt lat="47.78996" lon="2.30013">
        <ele>112</ele>
        <time>2017-05-07T08:37:14.381Z</time>
      </trkpt>
      <trkpt lat="47.78996" lon="2.30013">
        <ele>112</ele>
        <time>2017-05-07T08:37:15.375Z</time>
      </trkpt>
      <trkpt lat="47.78998" lon="2.29998">
        <ele>112</ele>
        <time>2017-05-07T08:37:16.381Z</time>
      </trkpt>
      <trkpt lat="47.78998" lon="2.29998">
        <ele>112</ele>
        <time>2017-05-07T08:37:17.378Z</time>
      </trkpt>
      <trkpt lat="47.79002" lon="2.29984">
        <ele>112</ele>
        <time>2017-05-07T08:37:18.382Z</time>
      </trkpt>
      <trkpt lat="47.79002" lon="2.29984">
        <ele>112</ele>
        <time>2017-05-07T08:37:19.378Z</time>
      </trkpt>
      <trkpt lat="47.79005" lon="2.29971">
        <ele>112</ele>
        <time>2017-05-07T08:37:20.382Z</time>
      </trkpt>
      <trkpt lat="47.79006" lon="2.29964">
        <ele>112</ele>
        <time>2017-05-07T08:37:21.380Z</time>
      </trkpt>
      <trkpt lat="47.79006" lon="2.29964">
        <ele>112</ele>
        <time>2017-05-07T08:37:22.378Z</time>
      </trkpt>
      <trkpt lat="47.79008" lon="2.29949">
        <ele>111</ele>
        <time>2017-05-07T08:37:23.381Z</time>
      </trkpt>
      <trkpt lat="47.79009" lon="2.29941">
        <ele>111</ele>
        <time>2017-05-07T08:37:24.384Z</time>
      </trkpt>
      <trkpt lat="47.79009" lon="2.29941">
        <ele>111</ele>
        <time>2017-05-07T08:37:25.376Z</time>
      </trkpt>
      <trkpt lat="47.79009" lon="2.29923">
        <ele>110</ele>
        <time>2017-05-07T08:37:26.380Z</time>
      </trkpt>
      <trkpt lat="47.79009" lon="2.29923">
        <ele>110</ele>
        <time>2017-05-07T08:37:27.379Z</time>
      </trkpt>
      <trkpt lat="47.7901" lon="2.29904">
        <ele>111</ele>
        <time>2017-05-07T08:37:28.381Z</time>
      </trkpt>
      <trkpt lat="47.7901" lon="2.29904">
        <ele>111</ele>
        <time>2017-05-07T08:37:29.373Z</time>
      </trkpt>
      <trkpt lat="47.79014" lon="2.29886">
        <ele>111</ele>
        <time>2017-05-07T08:37:30.380Z</time>
      </trkpt>
      <trkpt lat="47.79014" lon="2.29886">
        <ele>111</ele>
        <time>2017-05-07T08:37:31.376Z</time>
      </trkpt>
      <trkpt lat="47.79019" lon="2.2987">
        <ele>111</ele>
        <time>2017-05-07T08:37:32.378Z</time>
      </trkpt>
      <trkpt lat="47.79021" lon="2.29862">
        <ele>111</ele>
        <time>2017-05-07T08:37:33.385Z</time>
      </trkpt>
      <trkpt lat="47.79021" lon="2.29862">
        <ele>111</ele>
        <time>2017-05-07T08:37:34.387Z</time>
      </trkpt>
      <trkpt lat="47.79026" lon="2.29847">
        <ele>111</ele>
        <time>2017-05-07T08:37:35.378Z</time>
      </trkpt>
      <trkpt lat="47.79028" lon="2.2984">
        <ele>111</ele>
        <time>2017-05-07T08:37:36.381Z</time>
      </trkpt>
      <trkpt lat="47.79028" lon="2.2984">
        <ele>111</ele>
        <time>2017-05-07T08:37:37.372Z</time>
      </trkpt>
      <trkpt lat="47.79032" lon="2.29825">
        <ele>111</ele>
        <time>2017-05-07T08:37:38.379Z</time>
      </trkpt>
      <trkpt lat="47.79034" lon="2.29817">
        <ele>111</ele>
        <time>2017-05-07T08:37:39.379Z</time>
      </trkpt>
      <trkpt lat="47.79034" lon="2.29817">
        <ele>111</ele>
        <time>2017-05-07T08:37:40.370Z</time>
      </trkpt>
      <trkpt lat="47.79038" lon="2.29802">
        <ele>112</ele>
        <time>2017-05-07T08:37:41.358Z</time>
      </trkpt>
      <trkpt lat="47.7904" lon="2.29795">
        <ele>112</ele>
        <time>2017-05-07T08:37:42.382Z</time>
      </trkpt>
      <trkpt lat="47.7904" lon="2.29795">
        <ele>112</ele>
        <time>2017-05-07T08:37:43.373Z</time>
      </trkpt>
      <trkpt lat="47.79045" lon="2.2978">
        <ele>112</ele>
        <time>2017-05-07T08:37:44.378Z</time>
      </trkpt>
      <trkpt lat="47.79045" lon="2.2978">
        <ele>112</ele>
        <time>2017-05-07T08:37:45.373Z</time>
      </trkpt>
      <trkpt lat="47.79052" lon="2.29767">
        <ele>112</ele>
        <time>2017-05-07T08:37:46.380Z</time>
      </trkpt>
      <trkpt lat="47.79052" lon="2.29767">
        <ele>112</ele>
        <time>2017-05-07T08:37:47.373Z</time>
      </trkpt>
      <trkpt lat="47.79058" lon="2.29755">
        <ele>112</ele>
        <time>2017-05-07T08:37:48.381Z</time>
      </trkpt>
      <trkpt lat="47.79058" lon="2.29755">
        <ele>112</ele>
        <time>2017-05-07T08:37:49.373Z</time>
      </trkpt>
      <trkpt lat="47.79064" lon="2.29743">
        <ele>112</ele>
        <time>2017-05-07T08:37:50.378Z</time>
      </trkpt>
      <trkpt lat="47.79064" lon="2.29743">
        <ele>112</ele>
        <time>2017-05-07T08:37:51.373Z</time>
      </trkpt>
      <trkpt lat="47.79069" lon="2.2973">
        <ele>112</ele>
        <time>2017-05-07T08:37:52.379Z</time>
      </trkpt>
      <trkpt lat="47.79069" lon="2.2973">
        <ele>112</ele>
        <time>2017-05-07T08:37:53.370Z</time>
      </trkpt>
      <trkpt lat="47.79075" lon="2.29718">
        <ele>113</ele>
        <time>2017-05-07T08:37:54.360Z</time>
      </trkpt>
      <trkpt lat="47.79075" lon="2.29718">
        <ele>113</ele>
        <time>2017-05-07T08:37:55.381Z</time>
      </trkpt>
      <trkpt lat="47.79082" lon="2.29705">
        <ele>113</ele>
        <time>2017-05-07T08:37:56.379Z</time>
      </trkpt>
      <trkpt lat="47.79082" lon="2.29705">
        <ele>113</ele>
        <time>2017-05-07T08:37:57.373Z</time>
      </trkpt>
      <trkpt lat="47.79089" lon="2.29693">
        <ele>113</ele>
        <time>2017-05-07T08:37:58.378Z</time>
      </trkpt>
      <trkpt lat="47.79089" lon="2.29693">
        <ele>113</ele>
        <time>2017-05-07T08:37:59.374Z</time>
      </trkpt>
      <trkpt lat="47.79096" lon="2.29681">
        <ele>113</ele>
        <time>2017-05-07T08:38:00.380Z</time>
      </trkpt>
      <trkpt lat="47.79096" lon="2.29681">
        <ele>113</ele>
        <time>2017-05-07T08:38:01.374Z</time>
      </trkpt>
      <trkpt lat="47.79102" lon="2.29669">
        <ele>113</ele>
        <time>2017-05-07T08:38:02.379Z</time>
      </trkpt>
      <trkpt lat="47.79102" lon="2.29669">
        <ele>113</ele>
        <time>2017-05-07T08:38:03.373Z</time>
      </trkpt>
      <trkpt lat="47.7911" lon="2.29658">
        <ele>113</ele>
        <time>2017-05-07T08:38:04.379Z</time>
      </trkpt>
      <trkpt lat="47.7911" lon="2.29658">
        <ele>113</ele>
        <time>2017-05-07T08:38:05.373Z</time>
      </trkpt>
      <trkpt lat="47.79119" lon="2.29648">
        <ele>113</ele>
        <time>2017-05-07T08:38:06.382Z</time>
      </trkpt>
      <trkpt lat="47.79119" lon="2.29648">
        <ele>113</ele>
        <time>2017-05-07T08:38:07.374Z</time>
      </trkpt>
      <trkpt lat="47.79128" lon="2.2964">
        <ele>112</ele>
        <time>2017-05-07T08:38:08.377Z</time>
      </trkpt>
      <trkpt lat="47.79128" lon="2.2964">
        <ele>112</ele>
        <time>2017-05-07T08:38:09.374Z</time>
      </trkpt>
      <trkpt lat="47.79137" lon="2.29632">
        <ele>113</ele>
        <time>2017-05-07T08:38:10.378Z</time>
      </trkpt>
      <trkpt lat="47.79137" lon="2.29632">
        <ele>113</ele>
        <time>2017-05-07T08:38:11.373Z</time>
      </trkpt>
      <trkpt lat="47.79144" lon="2.29622">
        <ele>114</ele>
        <time>2017-05-07T08:38:12.377Z</time>
      </trkpt>
      <trkpt lat="47.79144" lon="2.29622">
        <ele>114</ele>
        <time>2017-05-07T08:38:13.374Z</time>
      </trkpt>
      <trkpt lat="47.79151" lon="2.2961">
        <ele>114</ele>
        <time>2017-05-07T08:38:14.379Z</time>
      </trkpt>
      <trkpt lat="47.79151" lon="2.2961">
        <ele>114</ele>
        <time>2017-05-07T08:38:15.374Z</time>
      </trkpt>
      <trkpt lat="47.79158" lon="2.29597">
        <ele>113</ele>
        <time>2017-05-07T08:38:16.378Z</time>
      </trkpt>
      <trkpt lat="47.79158" lon="2.29597">
        <ele>113</ele>
        <time>2017-05-07T08:38:17.374Z</time>
      </trkpt>
      <trkpt lat="47.79165" lon="2.29585">
        <ele>113</ele>
        <time>2017-05-07T08:38:18.380Z</time>
      </trkpt>
      <trkpt lat="47.79165" lon="2.29585">
        <ele>113</ele>
        <time>2017-05-07T08:38:19.373Z</time>
      </trkpt>
      <trkpt lat="47.79172" lon="2.29574">
        <ele>113</ele>
        <time>2017-05-07T08:38:20.379Z</time>
      </trkpt>
      <trkpt lat="47.79172" lon="2.29574">
        <ele>113</ele>
        <time>2017-05-07T08:38:21.370Z</time>
      </trkpt>
      <trkpt lat="47.7918" lon="2.29564">
        <ele>113</ele>
        <time>2017-05-07T08:38:22.379Z</time>
      </trkpt>
      <trkpt lat="47.7918" lon="2.29564">
        <ele>113</ele>
        <time>2017-05-07T08:38:23.374Z</time>
      </trkpt>
      <trkpt lat="47.79189" lon="2.29556">
        <ele>113</ele>
        <time>2017-05-07T08:38:24.380Z</time>
      </trkpt>
      <trkpt lat="47.79189" lon="2.29556">
        <ele>113</ele>
        <time>2017-05-07T08:38:25.373Z</time>
      </trkpt>
      <trkpt lat="47.79198" lon="2.29547">
        <ele>113</ele>
        <time>2017-05-07T08:38:26.397Z</time>
      </trkpt>
      <trkpt lat="47.79198" lon="2.29547">
        <ele>113</ele>
        <time>2017-05-07T08:38:27.380Z</time>
      </trkpt>
      <trkpt lat="47.79207" lon="2.29539">
        <ele>113</ele>
        <time>2017-05-07T08:38:28.379Z</time>
      </trkpt>
      <trkpt lat="47.79211" lon="2.29535">
        <ele>113</ele>
        <time>2017-05-07T08:38:29.379Z</time>
      </trkpt>
      <trkpt lat="47.79211" lon="2.29535">
        <ele>113</ele>
        <time>2017-05-07T08:38:30.375Z</time>
      </trkpt>
      <trkpt lat="47.79219" lon="2.29525">
        <ele>113</ele>
        <time>2017-05-07T08:38:31.376Z</time>
      </trkpt>
      <trkpt lat="47.79219" lon="2.29525">
        <ele>113</ele>
        <time>2017-05-07T08:38:32.374Z</time>
      </trkpt>
      <trkpt lat="47.79227" lon="2.29515">
        <ele>113</ele>
        <time>2017-05-07T08:38:33.379Z</time>
      </trkpt>
      <trkpt lat="47.79227" lon="2.29515">
        <ele>113</ele>
        <time>2017-05-07T08:38:34.379Z</time>
      </trkpt>
      <trkpt lat="47.79236" lon="2.29507">
        <ele>113</ele>
        <time>2017-05-07T08:38:35.381Z</time>
      </trkpt>
      <trkpt lat="47.79236" lon="2.29507">
        <ele>113</ele>
        <time>2017-05-07T08:38:36.374Z</time>
      </trkpt>
      <trkpt lat="47.79246" lon="2.29499">
        <ele>112</ele>
        <time>2017-05-07T08:38:37.381Z</time>
      </trkpt>
      <trkpt lat="47.79246" lon="2.29499">
        <ele>112</ele>
        <time>2017-05-07T08:38:38.396Z</time>
      </trkpt>
      <trkpt lat="47.79255" lon="2.29492">
        <ele>112</ele>
        <time>2017-05-07T08:38:39.382Z</time>
      </trkpt>
      <trkpt lat="47.79255" lon="2.29492">
        <ele>112</ele>
        <time>2017-05-07T08:38:40.376Z</time>
      </trkpt>
      <trkpt lat="47.79264" lon="2.29486">
        <ele>112</ele>
        <time>2017-05-07T08:38:41.379Z</time>
      </trkpt>
      <trkpt lat="47.79264" lon="2.29486">
        <ele>112</ele>
        <time>2017-05-07T08:38:42.355Z</time>
      </trkpt>
      <trkpt lat="47.79273" lon="2.2948">
        <ele>112</ele>
        <time>2017-05-07T08:38:43.382Z</time>
      </trkpt>
      <trkpt lat="47.79273" lon="2.2948">
        <ele>112</ele>
        <time>2017-05-07T08:38:44.376Z</time>
      </trkpt>
      <trkpt lat="47.79283" lon="2.29474">
        <ele>112</ele>
        <time>2017-05-07T08:38:45.381Z</time>
      </trkpt>
      <trkpt lat="47.79283" lon="2.29474">
        <ele>112</ele>
        <time>2017-05-07T08:38:46.378Z</time>
      </trkpt>
      <trkpt lat="47.79292" lon="2.29469">
        <ele>113</ele>
        <time>2017-05-07T08:38:47.380Z</time>
      </trkpt>
      <trkpt lat="47.79297" lon="2.29466">
        <ele>113</ele>
        <time>2017-05-07T08:38:48.383Z</time>
      </trkpt>
      <trkpt lat="47.79302" lon="2.29464">
        <ele>113</ele>
        <time>2017-05-07T08:38:49.381Z</time>
      </trkpt>
      <trkpt lat="47.79302" lon="2.29464">
        <ele>113</ele>
        <time>2017-05-07T08:38:50.376Z</time>
      </trkpt>
      <trkpt lat="47.79311" lon="2.29458">
        <ele>113</ele>
        <time>2017-05-07T08:38:51.381Z</time>
      </trkpt>
      <trkpt lat="47.79311" lon="2.29458">
        <ele>113</ele>
        <time>2017-05-07T08:38:52.377Z</time>
      </trkpt>
      <trkpt lat="47.79311" lon="2.29458">
        <ele>113</ele>
        <time>2017-05-07T08:38:53.373Z</time>
      </trkpt>
      <trkpt lat="47.7932" lon="2.29452">
        <ele>114</ele>
        <time>2017-05-07T08:38:54.378Z</time>
      </trkpt>
      <trkpt lat="47.7933" lon="2.29446">
        <ele>114</ele>
        <time>2017-05-07T08:38:55.381Z</time>
      </trkpt>
      <trkpt lat="47.79334" lon="2.29444">
        <ele>114</ele>
        <time>2017-05-07T08:38:56.381Z</time>
      </trkpt>
      <trkpt lat="47.79339" lon="2.29441">
        <ele>114</ele>
        <time>2017-05-07T08:38:57.381Z</time>
      </trkpt>
      <trkpt lat="47.79339" lon="2.29441">
        <ele>114</ele>
        <time>2017-05-07T08:38:58.359Z</time>
      </trkpt>
      <trkpt lat="47.79348" lon="2.29435">
        <ele>114</ele>
        <time>2017-05-07T08:38:59.355Z</time>
      </trkpt>
      <trkpt lat="47.79353" lon="2.29432">
        <ele>114</ele>
        <time>2017-05-07T08:39:00.391Z</time>
      </trkpt>
      <trkpt lat="47.79353" lon="2.29432">
        <ele>114</ele>
        <time>2017-05-07T08:39:01.358Z</time>
      </trkpt>
      <trkpt lat="47.79362" lon="2.29426">
        <ele>114</ele>
        <time>2017-05-07T08:39:02.382Z</time>
      </trkpt>
      <trkpt lat="47.79367" lon="2.29424">
        <ele>115</ele>
        <time>2017-05-07T08:39:03.381Z</time>
      </trkpt>
      <trkpt lat="47.79367" lon="2.29424">
        <ele>115</ele>
        <time>2017-05-07T08:39:04.379Z</time>
      </trkpt>
      <trkpt lat="47.79377" lon="2.29419">
        <ele>115</ele>
        <time>2017-05-07T08:39:05.380Z</time>
      </trkpt>
      <trkpt lat="47.79377" lon="2.29419">
        <ele>115</ele>
        <time>2017-05-07T08:39:06.378Z</time>
      </trkpt>
      <trkpt lat="47.79386" lon="2.29413">
        <ele>116</ele>
        <time>2017-05-07T08:39:07.379Z</time>
      </trkpt>
      <trkpt lat="47.79386" lon="2.29413">
        <ele>116</ele>
        <time>2017-05-07T08:39:08.378Z</time>
      </trkpt>
      <trkpt lat="47.79395" lon="2.29407">
        <ele>115</ele>
        <time>2017-05-07T08:39:09.384Z</time>
      </trkpt>
      <trkpt lat="47.794" lon="2.29404">
        <ele>116</ele>
        <time>2017-05-07T08:39:10.379Z</time>
      </trkpt>
      <trkpt lat="47.79405" lon="2.29401">
        <ele>116</ele>
        <time>2017-05-07T08:39:11.384Z</time>
      </trkpt>
      <trkpt lat="47.79405" lon="2.29401">
        <ele>116</ele>
        <time>2017-05-07T08:39:12.381Z</time>
      </trkpt>
      <trkpt lat="47.79414" lon="2.29394">
        <ele>116</ele>
        <time>2017-05-07T08:39:13.381Z</time>
      </trkpt>
      <trkpt lat="47.79414" lon="2.29394">
        <ele>116</ele>
        <time>2017-05-07T08:39:14.376Z</time>
      </trkpt>
      <trkpt lat="47.79422" lon="2.29386">
        <ele>116</ele>
        <time>2017-05-07T08:39:15.380Z</time>
      </trkpt>
      <trkpt lat="47.79427" lon="2.29381">
        <ele>116</ele>
        <time>2017-05-07T08:39:16.382Z</time>
      </trkpt>
      <trkpt lat="47.79427" lon="2.29381">
        <ele>116</ele>
        <time>2017-05-07T08:39:17.378Z</time>
      </trkpt>
      <trkpt lat="47.79436" lon="2.29373">
        <ele>116</ele>
        <time>2017-05-07T08:39:18.384Z</time>
      </trkpt>
      <trkpt lat="47.7944" lon="2.29368">
        <ele>115</ele>
        <time>2017-05-07T08:39:19.395Z</time>
      </trkpt>
      <trkpt lat="47.7944" lon="2.29368">
        <ele>115</ele>
        <time>2017-05-07T08:39:20.378Z</time>
      </trkpt>
      <trkpt lat="47.79449" lon="2.2936">
        <ele>114</ele>
        <time>2017-05-07T08:39:21.381Z</time>
      </trkpt>
      <trkpt lat="47.79449" lon="2.2936">
        <ele>114</ele>
        <time>2017-05-07T08:39:22.379Z</time>
      </trkpt>
      <trkpt lat="47.79458" lon="2.29353">
        <ele>114</ele>
        <time>2017-05-07T08:39:23.381Z</time>
      </trkpt>
      <trkpt lat="47.79462" lon="2.2935">
        <ele>114</ele>
        <time>2017-05-07T08:39:24.383Z</time>
      </trkpt>
      <trkpt lat="47.79467" lon="2.29347">
        <ele>114</ele>
        <time>2017-05-07T08:39:25.380Z</time>
      </trkpt>
      <trkpt lat="47.79467" lon="2.29347">
        <ele>114</ele>
        <time>2017-05-07T08:39:26.376Z</time>
      </trkpt>
      <trkpt lat="47.79477" lon="2.29343">
        <ele>114</ele>
        <time>2017-05-07T08:39:27.381Z</time>
      </trkpt>
      <trkpt lat="47.79477" lon="2.29343">
        <ele>114</ele>
        <time>2017-05-07T08:39:28.377Z</time>
      </trkpt>
      <trkpt lat="47.79487" lon="2.29338">
        <ele>115</ele>
        <time>2017-05-07T08:39:29.365Z</time>
      </trkpt>
      <trkpt lat="47.79492" lon="2.29335">
        <ele>115</ele>
        <time>2017-05-07T08:39:30.391Z</time>
      </trkpt>
      <trkpt lat="47.79492" lon="2.29335">
        <ele>115</ele>
        <time>2017-05-07T08:39:31.382Z</time>
      </trkpt>
      <trkpt lat="47.79502" lon="2.29329">
        <ele>115</ele>
        <time>2017-05-07T08:39:32.380Z</time>
      </trkpt>
      <trkpt lat="47.79502" lon="2.29329">
        <ele>115</ele>
        <time>2017-05-07T08:39:33.375Z</time>
      </trkpt>
      <trkpt lat="47.79512" lon="2.29323">
        <ele>115</ele>
        <time>2017-05-07T08:39:34.382Z</time>
      </trkpt>
      <trkpt lat="47.79516" lon="2.2932">
        <ele>115</ele>
        <time>2017-05-07T08:39:35.380Z</time>
      </trkpt>
      <trkpt lat="47.79516" lon="2.2932">
        <ele>115</ele>
        <time>2017-05-07T08:39:36.378Z</time>
      </trkpt>
      <trkpt lat="47.79526" lon="2.29314">
        <ele>114</ele>
        <time>2017-05-07T08:39:37.381Z</time>
      </trkpt>
      <trkpt lat="47.79526" lon="2.29314">
        <ele>114</ele>
        <time>2017-05-07T08:39:38.377Z</time>
      </trkpt>
      <trkpt lat="47.79535" lon="2.29307">
        <ele>114</ele>
        <time>2017-05-07T08:39:39.379Z</time>
      </trkpt>
      <trkpt lat="47.79535" lon="2.29307">
        <ele>114</ele>
        <time>2017-05-07T08:39:40.376Z</time>
      </trkpt>
      <trkpt lat="47.79544" lon="2.29301">
        <ele>114</ele>
        <time>2017-05-07T08:39:41.380Z</time>
      </trkpt>
      <trkpt lat="47.79549" lon="2.29298">
        <ele>114</ele>
        <time>2017-05-07T08:39:42.385Z</time>
      </trkpt>
      <trkpt lat="47.79549" lon="2.29298">
        <ele>114</ele>
        <time>2017-05-07T08:39:43.376Z</time>
      </trkpt>
      <trkpt lat="47.79558" lon="2.29292">
        <ele>114</ele>
        <time>2017-05-07T08:39:44.381Z</time>
      </trkpt>
      <trkpt lat="47.79558" lon="2.29292">
        <ele>114</ele>
        <time>2017-05-07T08:39:45.375Z</time>
      </trkpt>
      <trkpt lat="47.79568" lon="2.29287">
        <ele>113</ele>
        <time>2017-05-07T08:39:46.357Z</time>
      </trkpt>
      <trkpt lat="47.79572" lon="2.29284">
        <ele>113</ele>
        <time>2017-05-07T08:39:47.381Z</time>
      </trkpt>
      <trkpt lat="47.79572" lon="2.29284">
        <ele>113</ele>
        <time>2017-05-07T08:39:48.379Z</time>
      </trkpt>
      <trkpt lat="47.79582" lon="2.2928">
        <ele>113</ele>
        <time>2017-05-07T08:39:49.381Z</time>
      </trkpt>
      <trkpt lat="47.79582" lon="2.2928">
        <ele>113</ele>
        <time>2017-05-07T08:39:50.376Z</time>
      </trkpt>
      <trkpt lat="47.79591" lon="2.29275">
        <ele>114</ele>
        <time>2017-05-07T08:39:51.381Z</time>
      </trkpt>
      <trkpt lat="47.79591" lon="2.29275">
        <ele>114</ele>
        <time>2017-05-07T08:39:52.384Z</time>
      </trkpt>
      <trkpt lat="47.79601" lon="2.2927">
        <ele>114</ele>
        <time>2017-05-07T08:39:53.380Z</time>
      </trkpt>
      <trkpt lat="47.79605" lon="2.29268">
        <ele>114</ele>
        <time>2017-05-07T08:39:54.391Z</time>
      </trkpt>
      <trkpt lat="47.7961" lon="2.29265">
        <ele>113</ele>
        <time>2017-05-07T08:39:55.383Z</time>
      </trkpt>
      <trkpt lat="47.7961" lon="2.29265">
        <ele>113</ele>
        <time>2017-05-07T08:39:56.375Z</time>
      </trkpt>
      <trkpt lat="47.79619" lon="2.29261">
        <ele>113</ele>
        <time>2017-05-07T08:39:57.382Z</time>
      </trkpt>
      <trkpt lat="47.79619" lon="2.29261">
        <ele>113</ele>
        <time>2017-05-07T08:39:58.384Z</time>
      </trkpt>
      <trkpt lat="47.79629" lon="2.29259">
        <ele>113</ele>
        <time>2017-05-07T08:39:59.388Z</time>
      </trkpt>
      <trkpt lat="47.79629" lon="2.29259">
        <ele>113</ele>
        <time>2017-05-07T08:40:00.393Z</time>
      </trkpt>
      <trkpt lat="47.79638" lon="2.2926">
        <ele>113</ele>
        <time>2017-05-07T08:40:01.382Z</time>
      </trkpt>
      <trkpt lat="47.79638" lon="2.2926">
        <ele>113</ele>
        <time>2017-05-07T08:40:02.387Z</time>
      </trkpt>
      <trkpt lat="47.79645" lon="2.29263">
        <ele>114</ele>
        <time>2017-05-07T08:40:03.382Z</time>
      </trkpt>
      <trkpt lat="47.79645" lon="2.29263">
        <ele>114</ele>
        <time>2017-05-07T08:40:04.380Z</time>
      </trkpt>
      <trkpt lat="47.79654" lon="2.29264">
        <ele>114</ele>
        <time>2017-05-07T08:40:05.382Z</time>
      </trkpt>
      <trkpt lat="47.79658" lon="2.29264">
        <ele>114</ele>
        <time>2017-05-07T08:40:06.386Z</time>
      </trkpt>
      <trkpt lat="47.79658" lon="2.29264">
        <ele>114</ele>
        <time>2017-05-07T08:40:07.376Z</time>
      </trkpt>
      <trkpt lat="47.79667" lon="2.29264">
        <ele>113</ele>
        <time>2017-05-07T08:40:08.396Z</time>
      </trkpt>
      <trkpt lat="47.79667" lon="2.29264">
        <ele>113</ele>
        <time>2017-05-07T08:40:09.377Z</time>
      </trkpt>
      <trkpt lat="47.79675" lon="2.29262">
        <ele>113</ele>
        <time>2017-05-07T08:40:10.382Z</time>
      </trkpt>
      <trkpt lat="47.79675" lon="2.29262">
        <ele>113</ele>
        <time>2017-05-07T08:40:11.376Z</time>
      </trkpt>
      <trkpt lat="47.79685" lon="2.29258">
        <ele>113</ele>
        <time>2017-05-07T08:40:12.376Z</time>
      </trkpt>
      <trkpt lat="47.79685" lon="2.29258">
        <ele>113</ele>
        <time>2017-05-07T08:40:13.357Z</time>
      </trkpt>
      <trkpt lat="47.79695" lon="2.29256">
        <ele>113</ele>
        <time>2017-05-07T08:40:14.386Z</time>
      </trkpt>
      <trkpt lat="47.79695" lon="2.29256">
        <ele>113</ele>
        <time>2017-05-07T08:40:15.376Z</time>
      </trkpt>
      <trkpt lat="47.79704" lon="2.29254">
        <ele>113</ele>
        <time>2017-05-07T08:40:16.381Z</time>
      </trkpt>
      <trkpt lat="47.79704" lon="2.29254">
        <ele>113</ele>
        <time>2017-05-07T08:40:17.376Z</time>
      </trkpt>
      <trkpt lat="47.79714" lon="2.29253">
        <ele>113</ele>
        <time>2017-05-07T08:40:18.385Z</time>
      </trkpt>
      <trkpt lat="47.79714" lon="2.29253">
        <ele>113</ele>
        <time>2017-05-07T08:40:19.376Z</time>
      </trkpt>
      <trkpt lat="47.79724" lon="2.29251">
        <ele>113</ele>
        <time>2017-05-07T08:40:20.381Z</time>
      </trkpt>
      <trkpt lat="47.79724" lon="2.29251">
        <ele>113</ele>
        <time>2017-05-07T08:40:21.377Z</time>
      </trkpt>
      <trkpt lat="47.79734" lon="2.2925">
        <ele>113</ele>
        <time>2017-05-07T08:40:22.383Z</time>
      </trkpt>
      <trkpt lat="47.79739" lon="2.29249">
        <ele>113</ele>
        <time>2017-05-07T08:40:23.382Z</time>
      </trkpt>
      <trkpt lat="47.79745" lon="2.29248">
        <ele>113</ele>
        <time>2017-05-07T08:40:24.385Z</time>
      </trkpt>
      <trkpt lat="47.79745" lon="2.29248">
        <ele>113</ele>
        <time>2017-05-07T08:40:25.377Z</time>
      </trkpt>
      <trkpt lat="47.79755" lon="2.29247">
        <ele>113</ele>
        <time>2017-05-07T08:40:26.382Z</time>
      </trkpt>
      <trkpt lat="47.79755" lon="2.29247">
        <ele>113</ele>
        <time>2017-05-07T08:40:27.377Z</time>
      </trkpt>
      <trkpt lat="47.79765" lon="2.29247">
        <ele>113</ele>
        <time>2017-05-07T08:40:28.380Z</time>
      </trkpt>
      <trkpt lat="47.79765" lon="2.29247">
        <ele>113</ele>
        <time>2017-05-07T08:40:29.376Z</time>
      </trkpt>
      <trkpt lat="47.79775" lon="2.29247">
        <ele>114</ele>
        <time>2017-05-07T08:40:30.383Z</time>
      </trkpt>
      <trkpt lat="47.79775" lon="2.29247">
        <ele>114</ele>
        <time>2017-05-07T08:40:31.376Z</time>
      </trkpt>
      <trkpt lat="47.79784" lon="2.29247">
        <ele>114</ele>
        <time>2017-05-07T08:40:32.382Z</time>
      </trkpt>
      <trkpt lat="47.79784" lon="2.29247">
        <ele>114</ele>
        <time>2017-05-07T08:40:33.377Z</time>
      </trkpt>
      <trkpt lat="47.79794" lon="2.29248">
        <ele>115</ele>
        <time>2017-05-07T08:40:34.383Z</time>
      </trkpt>
      <trkpt lat="47.79794" lon="2.29248">
        <ele>115</ele>
        <time>2017-05-07T08:40:35.376Z</time>
      </trkpt>
      <trkpt lat="47.79804" lon="2.2925">
        <ele>115</ele>
        <time>2017-05-07T08:40:36.382Z</time>
      </trkpt>
      <trkpt lat="47.79804" lon="2.2925">
        <ele>115</ele>
        <time>2017-05-07T08:40:37.376Z</time>
      </trkpt>
      <trkpt lat="47.79814" lon="2.29251">
        <ele>115</ele>
        <time>2017-05-07T08:40:38.385Z</time>
      </trkpt>
      <trkpt lat="47.79814" lon="2.29251">
        <ele>115</ele>
        <time>2017-05-07T08:40:39.376Z</time>
      </trkpt>
      <trkpt lat="47.79824" lon="2.29254">
        <ele>116</ele>
        <time>2017-05-07T08:40:40.381Z</time>
      </trkpt>
      <trkpt lat="47.79824" lon="2.29254">
        <ele>116</ele>
        <time>2017-05-07T08:40:41.376Z</time>
      </trkpt>
      <trkpt lat="47.79835" lon="2.29256">
        <ele>117</ele>
        <time>2017-05-07T08:40:42.382Z</time>
      </trkpt>
      <trkpt lat="47.79835" lon="2.29256">
        <ele>117</ele>
        <time>2017-05-07T08:40:43.376Z</time>
      </trkpt>
      <trkpt lat="47.79846" lon="2.29258">
        <ele>117</ele>
        <time>2017-05-07T08:40:44.382Z</time>
      </trkpt>
      <trkpt lat="47.79846" lon="2.29258">
        <ele>117</ele>
        <time>2017-05-07T08:40:45.376Z</time>
      </trkpt>
      <trkpt lat="47.79856" lon="2.29261">
        <ele>119</ele>
        <time>2017-05-07T08:40:46.388Z</time>
      </trkpt>
      <trkpt lat="47.79856" lon="2.29261">
        <ele>119</ele>
        <time>2017-05-07T08:40:47.379Z</time>
      </trkpt>
      <trkpt lat="47.79867" lon="2.29264">
        <ele>119</ele>
        <time>2017-05-07T08:40:48.385Z</time>
      </trkpt>
      <trkpt lat="47.79867" lon="2.29264">
        <ele>119</ele>
        <time>2017-05-07T08:40:49.377Z</time>
      </trkpt>
      <trkpt lat="47.79878" lon="2.29267">
        <ele>119</ele>
        <time>2017-05-07T08:40:50.379Z</time>
      </trkpt>
      <trkpt lat="47.79878" lon="2.29267">
        <ele>119</ele>
        <time>2017-05-07T08:40:51.376Z</time>
      </trkpt>
      <trkpt lat="47.7989" lon="2.29272">
        <ele>119</ele>
        <time>2017-05-07T08:40:52.379Z</time>
      </trkpt>
      <trkpt lat="47.79895" lon="2.29274">
        <ele>119</ele>
        <time>2017-05-07T08:40:53.379Z</time>
      </trkpt>
      <trkpt lat="47.79901" lon="2.29276">
        <ele>119</ele>
        <time>2017-05-07T08:40:54.382Z</time>
      </trkpt>
      <trkpt lat="47.79901" lon="2.29276">
        <ele>119</ele>
        <time>2017-05-07T08:40:55.377Z</time>
      </trkpt>
      <trkpt lat="47.79912" lon="2.29281">
        <ele>118</ele>
        <time>2017-05-07T08:40:56.379Z</time>
      </trkpt>
      <trkpt lat="47.79917" lon="2.29283">
        <ele>118</ele>
        <time>2017-05-07T08:40:57.377Z</time>
      </trkpt>
      <trkpt lat="47.79922" lon="2.29285">
        <ele>118</ele>
        <time>2017-05-07T08:40:58.399Z</time>
      </trkpt>
      <trkpt lat="47.79922" lon="2.29285">
        <ele>118</ele>
        <time>2017-05-07T08:40:59.377Z</time>
      </trkpt>
      <trkpt lat="47.79934" lon="2.29287">
        <ele>117</ele>
        <time>2017-05-07T08:41:00.384Z</time>
      </trkpt>
      <trkpt lat="47.79934" lon="2.29287">
        <ele>117</ele>
        <time>2017-05-07T08:41:01.377Z</time>
      </trkpt>
      <trkpt lat="47.79946" lon="2.29287">
        <ele>116</ele>
        <time>2017-05-07T08:41:02.379Z</time>
      </trkpt>
      <trkpt lat="47.79946" lon="2.29287">
        <ele>116</ele>
        <time>2017-05-07T08:41:03.377Z</time>
      </trkpt>
      <trkpt lat="47.79957" lon="2.29286">
        <ele>116</ele>
        <time>2017-05-07T08:41:04.382Z</time>
      </trkpt>
      <trkpt lat="47.79957" lon="2.29286">
        <ele>116</ele>
        <time>2017-05-07T08:41:05.376Z</time>
      </trkpt>
      <trkpt lat="47.79968" lon="2.29287">
        <ele>115</ele>
        <time>2017-05-07T08:41:06.385Z</time>
      </trkpt>
      <trkpt lat="47.79968" lon="2.29287">
        <ele>115</ele>
        <time>2017-05-07T08:41:07.377Z</time>
      </trkpt>
      <trkpt lat="47.79978" lon="2.29288">
        <ele>114</ele>
        <time>2017-05-07T08:41:08.380Z</time>
      </trkpt>
      <trkpt lat="47.79978" lon="2.29288">
        <ele>114</ele>
        <time>2017-05-07T08:41:09.380Z</time>
      </trkpt>
      <trkpt lat="47.79988" lon="2.29287">
        <ele>114</ele>
        <time>2017-05-07T08:41:10.382Z</time>
      </trkpt>
      <trkpt lat="47.79988" lon="2.29287">
        <ele>114</ele>
        <time>2017-05-07T08:41:11.377Z</time>
      </trkpt>
      <trkpt lat="47.79998" lon="2.29286">
        <ele>114</ele>
        <time>2017-05-07T08:41:12.384Z</time>
      </trkpt>
      <trkpt lat="47.79998" lon="2.29286">
        <ele>114</ele>
        <time>2017-05-07T08:41:13.383Z</time>
      </trkpt>
      <trkpt lat="47.80007" lon="2.29285">
        <ele>113</ele>
        <time>2017-05-07T08:41:14.381Z</time>
      </trkpt>
      <trkpt lat="47.80007" lon="2.29285">
        <ele>113</ele>
        <time>2017-05-07T08:41:15.376Z</time>
      </trkpt>
      <trkpt lat="47.80017" lon="2.29285">
        <ele>113</ele>
        <time>2017-05-07T08:41:16.382Z</time>
      </trkpt>
      <trkpt lat="47.80017" lon="2.29285">
        <ele>113</ele>
        <time>2017-05-07T08:41:17.376Z</time>
      </trkpt>
      <trkpt lat="47.80026" lon="2.29288">
        <ele>113</ele>
        <time>2017-05-07T08:41:18.385Z</time>
      </trkpt>
      <trkpt lat="47.80026" lon="2.29288">
        <ele>113</ele>
        <time>2017-05-07T08:41:19.376Z</time>
      </trkpt>
      <trkpt lat="47.80034" lon="2.29291">
        <ele>114</ele>
        <time>2017-05-07T08:41:20.382Z</time>
      </trkpt>
      <trkpt lat="47.80034" lon="2.29291">
        <ele>114</ele>
        <time>2017-05-07T08:41:21.379Z</time>
      </trkpt>
      <trkpt lat="47.80043" lon="2.29297">
        <ele>114</ele>
        <time>2017-05-07T08:41:22.381Z</time>
      </trkpt>
      <trkpt lat="47.80043" lon="2.29297">
        <ele>114</ele>
        <time>2017-05-07T08:41:23.384Z</time>
      </trkpt>
      <trkpt lat="47.80051" lon="2.29304">
        <ele>113</ele>
        <time>2017-05-07T08:41:24.384Z</time>
      </trkpt>
      <trkpt lat="47.80051" lon="2.29304">
        <ele>113</ele>
        <time>2017-05-07T08:41:25.377Z</time>
      </trkpt>
      <trkpt lat="47.8006" lon="2.29309">
        <ele>113</ele>
        <time>2017-05-07T08:41:26.379Z</time>
      </trkpt>
      <trkpt lat="47.8006" lon="2.29309">
        <ele>113</ele>
        <time>2017-05-07T08:41:27.376Z</time>
      </trkpt>
      <trkpt lat="47.80068" lon="2.29314">
        <ele>114</ele>
        <time>2017-05-07T08:41:28.381Z</time>
      </trkpt>
      <trkpt lat="47.80068" lon="2.29314">
        <ele>114</ele>
        <time>2017-05-07T08:41:29.377Z</time>
      </trkpt>
      <trkpt lat="47.80075" lon="2.29314">
        <ele>113</ele>
        <time>2017-05-07T08:41:30.384Z</time>
      </trkpt>
      <trkpt lat="47.80075" lon="2.29314">
        <ele>113</ele>
        <time>2017-05-07T08:41:31.376Z</time>
      </trkpt>
      <trkpt lat="47.80081" lon="2.29315">
        <ele>112</ele>
        <time>2017-05-07T08:41:32.381Z</time>
      </trkpt>
      <trkpt lat="47.80081" lon="2.29315">
        <ele>112</ele>
        <time>2017-05-07T08:41:33.377Z</time>
      </trkpt>
      <trkpt lat="47.80087" lon="2.29316">
        <ele>112</ele>
        <time>2017-05-07T08:41:34.382Z</time>
      </trkpt>
      <trkpt lat="47.80087" lon="2.29316">
        <ele>112</ele>
        <time>2017-05-07T08:41:35.377Z</time>
      </trkpt>
      <trkpt lat="47.80091" lon="2.29319">
        <ele>112</ele>
        <time>2017-05-07T08:41:36.385Z</time>
      </trkpt>
      <trkpt lat="47.80091" lon="2.29319">
        <ele>112</ele>
        <time>2017-05-07T08:41:37.376Z</time>
      </trkpt>
      <trkpt lat="47.80095" lon="2.29323">
        <ele>113</ele>
        <time>2017-05-07T08:41:38.382Z</time>
      </trkpt>
      <trkpt lat="47.80095" lon="2.29323">
        <ele>113</ele>
        <time>2017-05-07T08:41:39.376Z</time>
      </trkpt>
      <trkpt lat="47.80097" lon="2.29325">
        <ele>114</ele>
        <time>2017-05-07T08:41:40.379Z</time>
      </trkpt>
      <trkpt lat="47.80097" lon="2.29325">
        <ele>114</ele>
        <time>2017-05-07T08:41:41.377Z</time>
      </trkpt>
      <trkpt lat="47.80098" lon="2.29325">
        <ele>113</ele>
        <time>2017-05-07T08:41:42.384Z</time>
      </trkpt>
      <trkpt lat="47.80098" lon="2.29325">
        <ele>113</ele>
        <time>2017-05-07T08:41:43.384Z</time>
      </trkpt>
      <trkpt lat="47.80098" lon="2.29325">
        <ele>113</ele>
        <time>2017-05-07T08:41:44.383Z</time>
      </trkpt>
      <trkpt lat="47.80107" lon="2.29324">
        <ele>112</ele>
        <time>2017-05-07T08:41:45.392Z</time>
      </trkpt>
      <trkpt lat="47.80109" lon="2.29324">
        <ele>112</ele>
        <time>2017-05-07T08:41:46.384Z</time>
      </trkpt>
      <trkpt lat="47.80111" lon="2.29324">
        <ele>113</ele>
        <time>2017-05-07T08:41:47.373Z</time>
      </trkpt>
      <trkpt lat="47.80111" lon="2.29324">
        <ele>113</ele>
        <time>2017-05-07T08:41:48.365Z</time>
      </trkpt>
      <trkpt lat="47.80116" lon="2.29324">
        <ele>113</ele>
        <time>2017-05-07T08:41:49.371Z</time>
      </trkpt>
      <trkpt lat="47.80116" lon="2.29324">
        <ele>113</ele>
        <time>2017-05-07T08:41:50.371Z</time>
      </trkpt>
      <trkpt lat="47.8012" lon="2.29324">
        <ele>113</ele>
        <time>2017-05-07T08:41:51.372Z</time>
      </trkpt>
      <trkpt lat="47.8012" lon="2.29324">
        <ele>113</ele>
        <time>2017-05-07T08:41:52.366Z</time>
      </trkpt>
      <trkpt lat="47.80125" lon="2.29325">
        <ele>114</ele>
        <time>2017-05-07T08:41:53.370Z</time>
      </trkpt>
      <trkpt lat="47.80125" lon="2.29325">
        <ele>114</ele>
        <time>2017-05-07T08:41:54.363Z</time>
      </trkpt>
      <trkpt lat="47.80129" lon="2.29328">
        <ele>114</ele>
        <time>2017-05-07T08:41:55.372Z</time>
      </trkpt>
      <trkpt lat="47.80131" lon="2.2933">
        <ele>114</ele>
        <time>2017-05-07T08:41:56.368Z</time>
      </trkpt>
      <trkpt lat="47.80131" lon="2.2933">
        <ele>114</ele>
        <time>2017-05-07T08:41:57.368Z</time>
      </trkpt>
      <trkpt lat="47.80135" lon="2.29336">
        <ele>115</ele>
        <time>2017-05-07T08:41:58.368Z</time>
      </trkpt>
      <trkpt lat="47.80135" lon="2.29336">
        <ele>115</ele>
        <time>2017-05-07T08:41:59.372Z</time>
      </trkpt>
      <trkpt lat="47.80138" lon="2.29342">
        <ele>115</ele>
        <time>2017-05-07T08:42:00.374Z</time>
      </trkpt>
      <trkpt lat="47.80138" lon="2.29342">
        <ele>115</ele>
        <time>2017-05-07T08:42:01.364Z</time>
      </trkpt>
      <trkpt lat="47.80141" lon="2.29345">
        <ele>115</ele>
        <time>2017-05-07T08:42:02.368Z</time>
      </trkpt>
      <trkpt lat="47.80141" lon="2.29345">
        <ele>115</ele>
        <time>2017-05-07T08:42:03.363Z</time>
      </trkpt>
      <trkpt lat="47.80143" lon="2.29343">
        <ele>115</ele>
        <time>2017-05-07T08:42:04.368Z</time>
      </trkpt>
      <trkpt lat="47.80143" lon="2.29342">
        <ele>115</ele>
        <time>2017-05-07T08:42:05.387Z</time>
      </trkpt>
      <trkpt lat="47.80143" lon="2.29342">
        <ele>115</ele>
        <time>2017-05-07T08:42:06.377Z</time>
      </trkpt>
      <trkpt lat="47.80145" lon="2.29342">
        <ele>115</ele>
        <time>2017-05-07T08:42:07.378Z</time>
      </trkpt>
      <trkpt lat="47.80145" lon="2.29342">
        <ele>115</ele>
        <time>2017-05-07T08:42:08.366Z</time>
      </trkpt>
      <trkpt lat="47.80146" lon="2.29344">
        <ele>114</ele>
        <time>2017-05-07T08:42:09.367Z</time>
      </trkpt>
      <trkpt lat="47.80146" lon="2.29344">
        <ele>114</ele>
        <time>2017-05-07T08:42:10.375Z</time>
      </trkpt>
      <trkpt lat="47.80149" lon="2.29347">
        <ele>114</ele>
        <time>2017-05-07T08:42:11.369Z</time>
      </trkpt>
      <trkpt lat="47.80149" lon="2.29347">
        <ele>114</ele>
        <time>2017-05-07T08:42:12.366Z</time>
      </trkpt>
      <trkpt lat="47.80152" lon="2.2935">
        <ele>114</ele>
        <time>2017-05-07T08:42:13.369Z</time>
      </trkpt>
      <trkpt lat="47.80153" lon="2.29352">
        <ele>114</ele>
        <time>2017-05-07T08:42:14.369Z</time>
      </trkpt>
      <trkpt lat="47.80153" lon="2.29352">
        <ele>114</ele>
        <time>2017-05-07T08:42:15.367Z</time>
      </trkpt>
      <trkpt lat="47.80157" lon="2.29355">
        <ele>115</ele>
        <time>2017-05-07T08:42:16.368Z</time>
      </trkpt>
      <trkpt lat="47.80159" lon="2.29355">
        <ele>115</ele>
        <time>2017-05-07T08:42:17.372Z</time>
      </trkpt>
      <trkpt lat="47.80159" lon="2.29355">
        <ele>115</ele>
        <time>2017-05-07T08:42:18.363Z</time>
      </trkpt>
      <trkpt lat="47.80164" lon="2.29357">
        <ele>115</ele>
        <time>2017-05-07T08:42:19.367Z</time>
      </trkpt>
      <trkpt lat="47.80164" lon="2.29357">
        <ele>115</ele>
        <time>2017-05-07T08:42:20.367Z</time>
      </trkpt>
      <trkpt lat="47.80169" lon="2.29358">
        <ele>116</ele>
        <time>2017-05-07T08:42:21.370Z</time>
      </trkpt>
      <trkpt lat="47.80169" lon="2.29358">
        <ele>116</ele>
        <time>2017-05-07T08:42:22.363Z</time>
      </trkpt>
      <trkpt lat="47.80175" lon="2.29359">
        <ele>116</ele>
        <time>2017-05-07T08:42:23.370Z</time>
      </trkpt>
      <trkpt lat="47.80175" lon="2.29359">
        <ele>116</ele>
        <time>2017-05-07T08:42:24.365Z</time>
      </trkpt>
      <trkpt lat="47.8018" lon="2.29361">
        <ele>116</ele>
        <time>2017-05-07T08:42:25.368Z</time>
      </trkpt>
      <trkpt lat="47.8018" lon="2.29361">
        <ele>116</ele>
        <time>2017-05-07T08:42:26.363Z</time>
      </trkpt>
      <trkpt lat="47.80185" lon="2.29364">
        <ele>117</ele>
        <time>2017-05-07T08:42:27.368Z</time>
      </trkpt>
      <trkpt lat="47.80185" lon="2.29364">
        <ele>117</ele>
        <time>2017-05-07T08:42:28.359Z</time>
      </trkpt>
      <trkpt lat="47.8019" lon="2.29366">
        <ele>117</ele>
        <time>2017-05-07T08:42:29.391Z</time>
      </trkpt>
      <trkpt lat="47.8019" lon="2.29366">
        <ele>117</ele>
        <time>2017-05-07T08:42:30.394Z</time>
      </trkpt>
      <trkpt lat="47.80198" lon="2.2937">
        <ele>118</ele>
        <time>2017-05-07T08:42:31.388Z</time>
      </trkpt>
      <trkpt lat="47.80198" lon="2.2937">
        <ele>118</ele>
        <time>2017-05-07T08:42:32.377Z</time>
      </trkpt>
      <trkpt lat="47.80204" lon="2.29377">
        <ele>118</ele>
        <time>2017-05-07T08:42:33.368Z</time>
      </trkpt>
      <trkpt lat="47.80204" lon="2.29377">
        <ele>118</ele>
        <time>2017-05-07T08:42:34.363Z</time>
      </trkpt>
      <trkpt lat="47.80209" lon="2.29382">
        <ele>119</ele>
        <time>2017-05-07T08:42:35.370Z</time>
      </trkpt>
      <trkpt lat="47.80209" lon="2.29382">
        <ele>119</ele>
        <time>2017-05-07T08:42:36.365Z</time>
      </trkpt>
      <trkpt lat="47.80214" lon="2.29386">
        <ele>119</ele>
        <time>2017-05-07T08:42:37.368Z</time>
      </trkpt>
      <trkpt lat="47.80214" lon="2.29386">
        <ele>119</ele>
        <time>2017-05-07T08:42:38.363Z</time>
      </trkpt>
      <trkpt lat="47.8022" lon="2.29392">
        <ele>118</ele>
        <time>2017-05-07T08:42:39.385Z</time>
      </trkpt>
      <trkpt lat="47.80223" lon="2.29393">
        <ele>118</ele>
        <time>2017-05-07T08:42:40.382Z</time>
      </trkpt>
      <trkpt lat="47.80223" lon="2.29393">
        <ele>118</ele>
        <time>2017-05-07T08:42:41.369Z</time>
      </trkpt>
      <trkpt lat="47.80228" lon="2.29394">
        <ele>119</ele>
        <time>2017-05-07T08:42:42.368Z</time>
      </trkpt>
      <trkpt lat="47.80231" lon="2.29394">
        <ele>119</ele>
        <time>2017-05-07T08:42:43.369Z</time>
      </trkpt>
      <trkpt lat="47.80231" lon="2.29394">
        <ele>119</ele>
        <time>2017-05-07T08:42:44.366Z</time>
      </trkpt>
      <trkpt lat="47.80236" lon="2.29394">
        <ele>120</ele>
        <time>2017-05-07T08:42:45.372Z</time>
      </trkpt>
      <trkpt lat="47.80236" lon="2.29394">
        <ele>120</ele>
        <time>2017-05-07T08:42:46.367Z</time>
      </trkpt>
      <trkpt lat="47.80242" lon="2.29396">
        <ele>120</ele>
        <time>2017-05-07T08:42:47.356Z</time>
      </trkpt>
      <trkpt lat="47.80242" lon="2.29396">
        <ele>120</ele>
        <time>2017-05-07T08:42:48.385Z</time>
      </trkpt>
      <trkpt lat="47.80246" lon="2.29401">
        <ele>121</ele>
        <time>2017-05-07T08:42:49.375Z</time>
      </trkpt>
      <trkpt lat="47.80246" lon="2.29401">
        <ele>121</ele>
        <time>2017-05-07T08:42:50.372Z</time>
      </trkpt>
      <trkpt lat="47.80251" lon="2.29404">
        <ele>120</ele>
        <time>2017-05-07T08:42:51.370Z</time>
      </trkpt>
      <trkpt lat="47.80251" lon="2.29404">
        <ele>120</ele>
        <time>2017-05-07T08:42:52.380Z</time>
      </trkpt>
      <trkpt lat="47.80257" lon="2.29408">
        <ele>120</ele>
        <time>2017-05-07T08:42:53.374Z</time>
      </trkpt>
      <trkpt lat="47.80257" lon="2.29408">
        <ele>120</ele>
        <time>2017-05-07T08:42:54.366Z</time>
      </trkpt>
      <trkpt lat="47.80261" lon="2.29411">
        <ele>120</ele>
        <time>2017-05-07T08:42:55.373Z</time>
      </trkpt>
      <trkpt lat="47.80261" lon="2.29411">
        <ele>120</ele>
        <time>2017-05-07T08:42:56.365Z</time>
      </trkpt>
      <trkpt lat="47.80267" lon="2.2941">
        <ele>121</ele>
        <time>2017-05-07T08:42:57.370Z</time>
      </trkpt>
      <trkpt lat="47.80267" lon="2.2941">
        <ele>121</ele>
        <time>2017-05-07T08:42:58.365Z</time>
      </trkpt>
      <trkpt lat="47.80274" lon="2.29408">
        <ele>121</ele>
        <time>2017-05-07T08:42:59.366Z</time>
      </trkpt>
      <trkpt lat="47.80274" lon="2.29408">
        <ele>121</ele>
        <time>2017-05-07T08:43:00.374Z</time>
      </trkpt>
      <trkpt lat="47.80282" lon="2.29406">
        <ele>121</ele>
        <time>2017-05-07T08:43:01.379Z</time>
      </trkpt>
      <trkpt lat="47.80282" lon="2.29406">
        <ele>121</ele>
        <time>2017-05-07T08:43:02.367Z</time>
      </trkpt>
      <trkpt lat="47.80293" lon="2.29409">
        <ele>121</ele>
        <time>2017-05-07T08:43:03.371Z</time>
      </trkpt>
      <trkpt lat="47.80293" lon="2.29409">
        <ele>121</ele>
        <time>2017-05-07T08:43:04.366Z</time>
      </trkpt>
      <trkpt lat="47.80302" lon="2.29412">
        <ele>121</ele>
        <time>2017-05-07T08:43:05.374Z</time>
      </trkpt>
      <trkpt lat="47.80302" lon="2.29412">
        <ele>121</ele>
        <time>2017-05-07T08:43:06.367Z</time>
      </trkpt>
      <trkpt lat="47.80309" lon="2.29413">
        <ele>122</ele>
        <time>2017-05-07T08:43:07.370Z</time>
      </trkpt>
      <trkpt lat="47.80309" lon="2.29413">
        <ele>122</ele>
        <time>2017-05-07T08:43:08.366Z</time>
      </trkpt>
      <trkpt lat="47.80315" lon="2.29415">
        <ele>122</ele>
        <time>2017-05-07T08:43:09.370Z</time>
      </trkpt>
      <trkpt lat="47.80315" lon="2.29415">
        <ele>122</ele>
        <time>2017-05-07T08:43:10.360Z</time>
      </trkpt>
      <trkpt lat="47.80321" lon="2.29419">
        <ele>122</ele>
        <time>2017-05-07T08:43:11.372Z</time>
      </trkpt>
      <trkpt lat="47.80321" lon="2.29419">
        <ele>122</ele>
        <time>2017-05-07T08:43:12.365Z</time>
      </trkpt>
      <trkpt lat="47.80325" lon="2.29421">
        <ele>122</ele>
        <time>2017-05-07T08:43:13.370Z</time>
      </trkpt>
      <trkpt lat="47.80325" lon="2.29421">
        <ele>122</ele>
        <time>2017-05-07T08:43:14.365Z</time>
      </trkpt>
      <trkpt lat="47.8033" lon="2.2942">
        <ele>123</ele>
        <time>2017-05-07T08:43:15.372Z</time>
      </trkpt>
      <trkpt lat="47.8033" lon="2.2942">
        <ele>123</ele>
        <time>2017-05-07T08:43:16.368Z</time>
      </trkpt>
      <trkpt lat="47.80335" lon="2.29419">
        <ele>124</ele>
        <time>2017-05-07T08:43:17.376Z</time>
      </trkpt>
      <trkpt lat="47.80335" lon="2.29419">
        <ele>124</ele>
        <time>2017-05-07T08:43:18.365Z</time>
      </trkpt>
      <trkpt lat="47.80341" lon="2.29418">
        <ele>125</ele>
        <time>2017-05-07T08:43:19.370Z</time>
      </trkpt>
      <trkpt lat="47.80341" lon="2.29418">
        <ele>125</ele>
        <time>2017-05-07T08:43:20.363Z</time>
      </trkpt>
      <trkpt lat="47.8035" lon="2.29418">
        <ele>125</ele>
        <time>2017-05-07T08:43:21.377Z</time>
      </trkpt>
      <trkpt lat="47.8035" lon="2.29418">
        <ele>125</ele>
        <time>2017-05-07T08:43:22.365Z</time>
      </trkpt>
      <trkpt lat="47.80357" lon="2.29415">
        <ele>125</ele>
        <time>2017-05-07T08:43:23.374Z</time>
      </trkpt>
      <trkpt lat="47.80357" lon="2.29415">
        <ele>125</ele>
        <time>2017-05-07T08:43:24.365Z</time>
      </trkpt>
      <trkpt lat="47.80363" lon="2.29416">
        <ele>125</ele>
        <time>2017-05-07T08:43:25.372Z</time>
      </trkpt>
      <trkpt lat="47.80363" lon="2.29416">
        <ele>125</ele>
        <time>2017-05-07T08:43:26.365Z</time>
      </trkpt>
      <trkpt lat="47.80369" lon="2.2942">
        <ele>125</ele>
        <time>2017-05-07T08:43:27.370Z</time>
      </trkpt>
      <trkpt lat="47.80369" lon="2.2942">
        <ele>125</ele>
        <time>2017-05-07T08:43:28.366Z</time>
      </trkpt>
      <trkpt lat="47.80374" lon="2.29423">
        <ele>125</ele>
        <time>2017-05-07T08:43:29.375Z</time>
      </trkpt>
      <trkpt lat="47.80374" lon="2.29423">
        <ele>125</ele>
        <time>2017-05-07T08:43:30.363Z</time>
      </trkpt>
      <trkpt lat="47.8038" lon="2.29425">
        <ele>124</ele>
        <time>2017-05-07T08:43:31.364Z</time>
      </trkpt>
      <trkpt lat="47.80383" lon="2.29426">
        <ele>125</ele>
        <time>2017-05-07T08:43:32.371Z</time>
      </trkpt>
      <trkpt lat="47.80383" lon="2.29426">
        <ele>125</ele>
        <time>2017-05-07T08:43:33.365Z</time>
      </trkpt>
      <trkpt lat="47.80395" lon="2.29427">
        <ele>124</ele>
        <time>2017-05-07T08:43:34.370Z</time>
      </trkpt>
      <trkpt lat="47.804" lon="2.29428">
        <ele>123</ele>
        <time>2017-05-07T08:43:35.374Z</time>
      </trkpt>
      <trkpt lat="47.804" lon="2.29428">
        <ele>123</ele>
        <time>2017-05-07T08:43:36.367Z</time>
      </trkpt>
      <trkpt lat="47.80407" lon="2.29432">
        <ele>122</ele>
        <time>2017-05-07T08:43:37.371Z</time>
      </trkpt>
      <trkpt lat="47.80407" lon="2.29432">
        <ele>122</ele>
        <time>2017-05-07T08:43:38.366Z</time>
      </trkpt>
      <trkpt lat="47.80414" lon="2.29434">
        <ele>122</ele>
        <time>2017-05-07T08:43:39.372Z</time>
      </trkpt>
      <trkpt lat="47.80414" lon="2.29434">
        <ele>122</ele>
        <time>2017-05-07T08:43:40.369Z</time>
      </trkpt>
      <trkpt lat="47.80422" lon="2.29434">
        <ele>122</ele>
        <time>2017-05-07T08:43:41.366Z</time>
      </trkpt>
      <trkpt lat="47.80425" lon="2.29436">
        <ele>122</ele>
        <time>2017-05-07T08:43:42.368Z</time>
      </trkpt>
      <trkpt lat="47.80429" lon="2.29436">
        <ele>121</ele>
        <time>2017-05-07T08:43:43.369Z</time>
      </trkpt>
      <trkpt lat="47.80429" lon="2.29436">
        <ele>121</ele>
        <time>2017-05-07T08:43:44.366Z</time>
      </trkpt>
      <trkpt lat="47.80436" lon="2.29436">
        <ele>121</ele>
        <time>2017-05-07T08:43:45.369Z</time>
      </trkpt>
      <trkpt lat="47.80438" lon="2.29436">
        <ele>121</ele>
        <time>2017-05-07T08:43:46.371Z</time>
      </trkpt>
      <trkpt lat="47.80442" lon="2.29436">
        <ele>120</ele>
        <time>2017-05-07T08:43:47.374Z</time>
      </trkpt>
      <trkpt lat="47.80442" lon="2.29436">
        <ele>120</ele>
        <time>2017-05-07T08:43:48.365Z</time>
      </trkpt>
      <trkpt lat="47.8045" lon="2.29436">
        <ele>120</ele>
        <time>2017-05-07T08:43:49.371Z</time>
      </trkpt>
      <trkpt lat="47.80454" lon="2.29436">
        <ele>121</ele>
        <time>2017-05-07T08:43:50.371Z</time>
      </trkpt>
      <trkpt lat="47.80454" lon="2.29436">
        <ele>121</ele>
        <time>2017-05-07T08:43:51.386Z</time>
      </trkpt>
      <trkpt lat="47.80461" lon="2.29437">
        <ele>121</ele>
        <time>2017-05-07T08:43:52.381Z</time>
      </trkpt>
      <trkpt lat="47.80463" lon="2.29437">
        <ele>121</ele>
        <time>2017-05-07T08:43:53.385Z</time>
      </trkpt>
      <trkpt lat="47.80463" lon="2.29437">
        <ele>121</ele>
        <time>2017-05-07T08:43:54.374Z</time>
      </trkpt>
      <trkpt lat="47.8047" lon="2.29436">
        <ele>121</ele>
        <time>2017-05-07T08:43:55.372Z</time>
      </trkpt>
      <trkpt lat="47.8047" lon="2.29436">
        <ele>121</ele>
        <time>2017-05-07T08:43:56.377Z</time>
      </trkpt>
      <trkpt lat="47.80477" lon="2.29434">
        <ele>121</ele>
        <time>2017-05-07T08:43:57.372Z</time>
      </trkpt>
      <trkpt lat="47.80477" lon="2.29434">
        <ele>121</ele>
        <time>2017-05-07T08:43:58.366Z</time>
      </trkpt>
      <trkpt lat="47.80485" lon="2.29431">
        <ele>120</ele>
        <time>2017-05-07T08:43:59.365Z</time>
      </trkpt>
      <trkpt lat="47.80488" lon="2.2943">
        <ele>120</ele>
        <time>2017-05-07T08:44:00.387Z</time>
      </trkpt>
      <trkpt lat="47.80488" lon="2.2943">
        <ele>120</ele>
        <time>2017-05-07T08:44:01.365Z</time>
      </trkpt>
      <trkpt lat="47.80493" lon="2.29426">
        <ele>118</ele>
        <time>2017-05-07T08:44:02.371Z</time>
      </trkpt>
      <trkpt lat="47.80493" lon="2.29426">
        <ele>118</ele>
        <time>2017-05-07T08:44:03.376Z</time>
      </trkpt>
      <trkpt lat="47.80498" lon="2.29424">
        <ele>117</ele>
        <time>2017-05-07T08:44:04.373Z</time>
      </trkpt>
      <trkpt lat="47.805" lon="2.29424">
        <ele>117</ele>
        <time>2017-05-07T08:44:05.371Z</time>
      </trkpt>
      <trkpt lat="47.805" lon="2.29424">
        <ele>117</ele>
        <time>2017-05-07T08:44:06.367Z</time>
      </trkpt>
      <trkpt lat="47.80503" lon="2.29426">
        <ele>116</ele>
        <time>2017-05-07T08:44:07.383Z</time>
      </trkpt>
      <trkpt lat="47.80503" lon="2.29426">
        <ele>116</ele>
        <time>2017-05-07T08:44:08.375Z</time>
      </trkpt>
      <trkpt lat="47.80505" lon="2.29426">
        <ele>115</ele>
        <time>2017-05-07T08:44:09.369Z</time>
      </trkpt>
      <trkpt lat="47.80505" lon="2.29426">
        <ele>115</ele>
        <time>2017-05-07T08:44:10.364Z</time>
      </trkpt>
      <trkpt lat="47.80507" lon="2.29425">
        <ele>115</ele>
        <time>2017-05-07T08:44:11.373Z</time>
      </trkpt>
      <trkpt lat="47.80507" lon="2.29425">
        <ele>115</ele>
        <time>2017-05-07T08:44:12.368Z</time>
      </trkpt>
      <trkpt lat="47.80511" lon="2.29423">
        <ele>114</ele>
        <time>2017-05-07T08:44:13.368Z</time>
      </trkpt>
      <trkpt lat="47.80511" lon="2.29423">
        <ele>114</ele>
        <time>2017-05-07T08:44:14.363Z</time>
      </trkpt>
      <trkpt lat="47.80516" lon="2.29422">
        <ele>114</ele>
        <time>2017-05-07T08:44:15.369Z</time>
      </trkpt>
      <trkpt lat="47.80518" lon="2.29422">
        <ele>114</ele>
        <time>2017-05-07T08:44:16.369Z</time>
      </trkpt>
      <trkpt lat="47.80521" lon="2.29421">
        <ele>114</ele>
        <time>2017-05-07T08:44:17.372Z</time>
      </trkpt>
      <trkpt lat="47.80521" lon="2.29421">
        <ele>114</ele>
        <time>2017-05-07T08:44:18.363Z</time>
      </trkpt>
      <trkpt lat="47.80528" lon="2.2942">
        <ele>114</ele>
        <time>2017-05-07T08:44:19.369Z</time>
      </trkpt>
      <trkpt lat="47.80528" lon="2.2942">
        <ele>114</ele>
        <time>2017-05-07T08:44:20.364Z</time>
      </trkpt>
      <trkpt lat="47.80534" lon="2.2942">
        <ele>115</ele>
        <time>2017-05-07T08:44:21.373Z</time>
      </trkpt>
      <trkpt lat="47.80534" lon="2.2942">
        <ele>115</ele>
        <time>2017-05-07T08:44:22.363Z</time>
      </trkpt>
      <trkpt lat="47.80541" lon="2.29418">
        <ele>115</ele>
        <time>2017-05-07T08:44:23.370Z</time>
      </trkpt>
      <trkpt lat="47.80541" lon="2.29418">
        <ele>115</ele>
        <time>2017-05-07T08:44:24.360Z</time>
      </trkpt>
      <trkpt lat="47.80547" lon="2.29416">
        <ele>115</ele>
        <time>2017-05-07T08:44:25.373Z</time>
      </trkpt>
      <trkpt lat="47.80547" lon="2.29416">
        <ele>115</ele>
        <time>2017-05-07T08:44:26.365Z</time>
      </trkpt>
      <trkpt lat="47.80552" lon="2.29414">
        <ele>115</ele>
        <time>2017-05-07T08:44:27.361Z</time>
      </trkpt>
      <trkpt lat="47.80555" lon="2.29413">
        <ele>115</ele>
        <time>2017-05-07T08:44:28.369Z</time>
      </trkpt>
      <trkpt lat="47.80555" lon="2.29413">
        <ele>115</ele>
        <time>2017-05-07T08:44:29.365Z</time>
      </trkpt>
      <trkpt lat="47.80561" lon="2.29411">
        <ele>115</ele>
        <time>2017-05-07T08:44:30.369Z</time>
      </trkpt>
      <trkpt lat="47.80561" lon="2.29411">
        <ele>115</ele>
        <time>2017-05-07T08:44:31.370Z</time>
      </trkpt>
      <trkpt lat="47.80567" lon="2.29409">
        <ele>115</ele>
        <time>2017-05-07T08:44:32.370Z</time>
      </trkpt>
      <trkpt lat="47.80571" lon="2.29408">
        <ele>114</ele>
        <time>2017-05-07T08:44:33.369Z</time>
      </trkpt>
      <trkpt lat="47.80576" lon="2.29406">
        <ele>114</ele>
        <time>2017-05-07T08:44:34.369Z</time>
      </trkpt>
      <trkpt lat="47.80576" lon="2.29406">
        <ele>114</ele>
        <time>2017-05-07T08:44:35.373Z</time>
      </trkpt>
      <trkpt lat="47.80585" lon="2.29406">
        <ele>114</ele>
        <time>2017-05-07T08:44:36.369Z</time>
      </trkpt>
      <trkpt lat="47.80589" lon="2.29407">
        <ele>114</ele>
        <time>2017-05-07T08:44:37.371Z</time>
      </trkpt>
      <trkpt lat="47.80589" lon="2.29407">
        <ele>114</ele>
        <time>2017-05-07T08:44:38.367Z</time>
      </trkpt>
      <trkpt lat="47.80596" lon="2.29409">
        <ele>114</ele>
        <time>2017-05-07T08:44:39.369Z</time>
      </trkpt>
      <trkpt lat="47.80596" lon="2.29409">
        <ele>114</ele>
        <time>2017-05-07T08:44:40.363Z</time>
      </trkpt>
      <trkpt lat="47.80603" lon="2.29413">
        <ele>113</ele>
        <time>2017-05-07T08:44:41.373Z</time>
      </trkpt>
      <trkpt lat="47.80606" lon="2.29416">
        <ele>114</ele>
        <time>2017-05-07T08:44:42.369Z</time>
      </trkpt>
      <trkpt lat="47.80606" lon="2.29416">
        <ele>114</ele>
        <time>2017-05-07T08:44:43.364Z</time>
      </trkpt>
      <trkpt lat="47.80612" lon="2.29422">
        <ele>113</ele>
        <time>2017-05-07T08:44:44.369Z</time>
      </trkpt>
      <trkpt lat="47.80612" lon="2.29422">
        <ele>113</ele>
        <time>2017-05-07T08:44:45.365Z</time>
      </trkpt>
      <trkpt lat="47.80619" lon="2.29429">
        <ele>113</ele>
        <time>2017-05-07T08:44:46.368Z</time>
      </trkpt>
      <trkpt lat="47.80619" lon="2.29429">
        <ele>113</ele>
        <time>2017-05-07T08:44:47.365Z</time>
      </trkpt>
      <trkpt lat="47.80624" lon="2.29434">
        <ele>113</ele>
        <time>2017-05-07T08:44:48.368Z</time>
      </trkpt>
      <trkpt lat="47.80624" lon="2.29434">
        <ele>113</ele>
        <time>2017-05-07T08:44:49.364Z</time>
      </trkpt>
      <trkpt lat="47.80629" lon="2.29437">
        <ele>112</ele>
        <time>2017-05-07T08:44:50.369Z</time>
      </trkpt>
      <trkpt lat="47.80631" lon="2.29439">
        <ele>112</ele>
        <time>2017-05-07T08:44:51.370Z</time>
      </trkpt>
      <trkpt lat="47.80631" lon="2.29439">
        <ele>112</ele>
        <time>2017-05-07T08:44:52.370Z</time>
      </trkpt>
      <trkpt lat="47.80635" lon="2.29443">
        <ele>112</ele>
        <time>2017-05-07T08:44:53.379Z</time>
      </trkpt>
      <trkpt lat="47.80635" lon="2.29443">
        <ele>112</ele>
        <time>2017-05-07T08:44:54.364Z</time>
      </trkpt>
      <trkpt lat="47.80639" lon="2.29451">
        <ele>112</ele>
        <time>2017-05-07T08:44:55.371Z</time>
      </trkpt>
      <trkpt lat="47.80639" lon="2.29451">
        <ele>112</ele>
        <time>2017-05-07T08:44:56.364Z</time>
      </trkpt>
      <trkpt lat="47.80643" lon="2.29458">
        <ele>113</ele>
        <time>2017-05-07T08:44:57.369Z</time>
      </trkpt>
      <trkpt lat="47.80643" lon="2.29458">
        <ele>113</ele>
        <time>2017-05-07T08:44:58.364Z</time>
      </trkpt>
      <trkpt lat="47.80647" lon="2.29465">
        <ele>113</ele>
        <time>2017-05-07T08:44:59.363Z</time>
      </trkpt>
      <trkpt lat="47.8065" lon="2.29469">
        <ele>113</ele>
        <time>2017-05-07T08:45:00.369Z</time>
      </trkpt>
      <trkpt lat="47.80652" lon="2.29472">
        <ele>113</ele>
        <time>2017-05-07T08:45:01.372Z</time>
      </trkpt>
      <trkpt lat="47.80652" lon="2.29472">
        <ele>113</ele>
        <time>2017-05-07T08:45:02.385Z</time>
      </trkpt>
      <trkpt lat="47.80656" lon="2.29478">
        <ele>112</ele>
        <time>2017-05-07T08:45:03.375Z</time>
      </trkpt>
      <trkpt lat="47.80656" lon="2.29478">
        <ele>112</ele>
        <time>2017-05-07T08:45:04.366Z</time>
      </trkpt>
      <trkpt lat="47.8066" lon="2.29482">
        <ele>113</ele>
        <time>2017-05-07T08:45:05.386Z</time>
      </trkpt>
      <trkpt lat="47.8066" lon="2.29482">
        <ele>113</ele>
        <time>2017-05-07T08:45:06.376Z</time>
      </trkpt>
      <trkpt lat="47.80664" lon="2.29487">
        <ele>112</ele>
        <time>2017-05-07T08:45:07.367Z</time>
      </trkpt>
      <trkpt lat="47.80664" lon="2.29487">
        <ele>112</ele>
        <time>2017-05-07T08:45:08.364Z</time>
      </trkpt>
      <trkpt lat="47.80669" lon="2.2949">
        <ele>112</ele>
        <time>2017-05-07T08:45:09.370Z</time>
      </trkpt>
      <trkpt lat="47.80669" lon="2.2949">
        <ele>112</ele>
        <time>2017-05-07T08:45:10.366Z</time>
      </trkpt>
      <trkpt lat="47.80672" lon="2.29492">
        <ele>112</ele>
        <time>2017-05-07T08:45:11.374Z</time>
      </trkpt>
      <trkpt lat="47.80672" lon="2.29492">
        <ele>112</ele>
        <time>2017-05-07T08:45:12.368Z</time>
      </trkpt>
      <trkpt lat="47.80675" lon="2.29493">
        <ele>112</ele>
        <time>2017-05-07T08:45:13.371Z</time>
      </trkpt>
      <trkpt lat="47.80675" lon="2.29493">
        <ele>112</ele>
        <time>2017-05-07T08:45:14.366Z</time>
      </trkpt>
      <trkpt lat="47.80678" lon="2.29494">
        <ele>112</ele>
        <time>2017-05-07T08:45:15.371Z</time>
      </trkpt>
      <trkpt lat="47.80678" lon="2.29494">
        <ele>112</ele>
        <time>2017-05-07T08:45:16.362Z</time>
      </trkpt>
      <trkpt lat="47.8068" lon="2.29495">
        <ele>112</ele>
        <time>2017-05-07T08:45:17.374Z</time>
      </trkpt>
      <trkpt lat="47.8068" lon="2.29495">
        <ele>112</ele>
        <time>2017-05-07T08:45:18.365Z</time>
      </trkpt>
      <trkpt lat="47.80683" lon="2.29496">
        <ele>112</ele>
        <time>2017-05-07T08:45:19.371Z</time>
      </trkpt>
      <trkpt lat="47.80683" lon="2.29496">
        <ele>112</ele>
        <time>2017-05-07T08:45:20.365Z</time>
      </trkpt>
      <trkpt lat="47.80685" lon="2.29498">
        <ele>112</ele>
        <time>2017-05-07T08:45:21.385Z</time>
      </trkpt>
      <trkpt lat="47.80685" lon="2.29498">
        <ele>112</ele>
        <time>2017-05-07T08:45:22.375Z</time>
      </trkpt>
      <trkpt lat="47.80685" lon="2.29498">
        <ele>112</ele>
        <time>2017-05-07T08:45:23.374Z</time>
      </trkpt>
      <trkpt lat="47.80685" lon="2.29498">
        <ele>112</ele>
        <time>2017-05-07T08:45:24.370Z</time>
      </trkpt>
      <trkpt lat="47.80688" lon="2.29504">
        <ele>111</ele>
        <time>2017-05-07T08:45:25.363Z</time>
      </trkpt>
      <trkpt lat="47.80688" lon="2.29504">
        <ele>111</ele>
        <time>2017-05-07T08:45:26.357Z</time>
      </trkpt>
      <trkpt lat="47.80692" lon="2.29508">
        <ele>111</ele>
        <time>2017-05-07T08:45:27.364Z</time>
      </trkpt>
      <trkpt lat="47.80692" lon="2.29508">
        <ele>111</ele>
        <time>2017-05-07T08:45:28.356Z</time>
      </trkpt>
      <trkpt lat="47.80698" lon="2.29512">
        <ele>111</ele>
        <time>2017-05-07T08:45:29.361Z</time>
      </trkpt>
      <trkpt lat="47.80698" lon="2.29512">
        <ele>111</ele>
        <time>2017-05-07T08:45:30.356Z</time>
      </trkpt>
      <trkpt lat="47.80704" lon="2.29519">
        <ele>111</ele>
        <time>2017-05-07T08:45:31.361Z</time>
      </trkpt>
      <trkpt lat="47.80704" lon="2.29519">
        <ele>111</ele>
        <time>2017-05-07T08:45:32.357Z</time>
      </trkpt>
      <trkpt lat="47.8071" lon="2.29527">
        <ele>111</ele>
        <time>2017-05-07T08:45:33.363Z</time>
      </trkpt>
      <trkpt lat="47.8071" lon="2.29527">
        <ele>111</ele>
        <time>2017-05-07T08:45:34.356Z</time>
      </trkpt>
      <trkpt lat="47.80716" lon="2.29536">
        <ele>111</ele>
        <time>2017-05-07T08:45:35.362Z</time>
      </trkpt>
      <trkpt lat="47.80716" lon="2.29536">
        <ele>111</ele>
        <time>2017-05-07T08:45:36.355Z</time>
      </trkpt>
      <trkpt lat="47.80724" lon="2.29545">
        <ele>111</ele>
        <time>2017-05-07T08:45:37.358Z</time>
      </trkpt>
      <trkpt lat="47.80728" lon="2.29549">
        <ele>111</ele>
        <time>2017-05-07T08:45:38.362Z</time>
      </trkpt>
      <trkpt lat="47.80732" lon="2.29554">
        <ele>111</ele>
        <time>2017-05-07T08:45:39.368Z</time>
      </trkpt>
      <trkpt lat="47.80732" lon="2.29554">
        <ele>111</ele>
        <time>2017-05-07T08:45:40.358Z</time>
      </trkpt>
      <trkpt lat="47.8074" lon="2.29563">
        <ele>111</ele>
        <time>2017-05-07T08:45:41.361Z</time>
      </trkpt>
      <trkpt lat="47.80744" lon="2.29567">
        <ele>111</ele>
        <time>2017-05-07T08:45:42.361Z</time>
      </trkpt>
      <trkpt lat="47.80744" lon="2.29567">
        <ele>111</ele>
        <time>2017-05-07T08:45:43.361Z</time>
      </trkpt>
      <trkpt lat="47.80752" lon="2.29575">
        <ele>111</ele>
        <time>2017-05-07T08:45:44.396Z</time>
      </trkpt>
      <trkpt lat="47.80752" lon="2.29575">
        <ele>111</ele>
        <time>2017-05-07T08:45:45.360Z</time>
      </trkpt>
      <trkpt lat="47.8076" lon="2.29582">
        <ele>110</ele>
        <time>2017-05-07T08:45:46.362Z</time>
      </trkpt>
      <trkpt lat="47.8076" lon="2.29582">
        <ele>110</ele>
        <time>2017-05-07T08:45:47.356Z</time>
      </trkpt>
      <trkpt lat="47.80768" lon="2.29588">
        <ele>110</ele>
        <time>2017-05-07T08:45:48.361Z</time>
      </trkpt>
      <trkpt lat="47.80772" lon="2.2959">
        <ele>111</ele>
        <time>2017-05-07T08:45:49.362Z</time>
      </trkpt>
      <trkpt lat="47.80772" lon="2.2959">
        <ele>111</ele>
        <time>2017-05-07T08:45:50.375Z</time>
      </trkpt>
      <trkpt lat="47.8078" lon="2.29594">
        <ele>111</ele>
        <time>2017-05-07T08:45:51.375Z</time>
      </trkpt>
      <trkpt lat="47.8078" lon="2.29594">
        <ele>111</ele>
        <time>2017-05-07T08:45:52.366Z</time>
      </trkpt>
      <trkpt lat="47.80789" lon="2.29598">
        <ele>111</ele>
        <time>2017-05-07T08:45:53.376Z</time>
      </trkpt>
      <trkpt lat="47.80793" lon="2.296">
        <ele>111</ele>
        <time>2017-05-07T08:45:54.362Z</time>
      </trkpt>
      <trkpt lat="47.80793" lon="2.296">
        <ele>111</ele>
        <time>2017-05-07T08:45:55.355Z</time>
      </trkpt>
      <trkpt lat="47.80801" lon="2.29603">
        <ele>110</ele>
        <time>2017-05-07T08:45:56.361Z</time>
      </trkpt>
      <trkpt lat="47.80805" lon="2.29605">
        <ele>110</ele>
        <time>2017-05-07T08:45:57.364Z</time>
      </trkpt>
      <trkpt lat="47.80805" lon="2.29605">
        <ele>110</ele>
        <time>2017-05-07T08:45:58.356Z</time>
      </trkpt>
      <trkpt lat="47.80813" lon="2.29607">
        <ele>110</ele>
        <time>2017-05-07T08:45:59.373Z</time>
      </trkpt>
      <trkpt lat="47.80813" lon="2.29607">
        <ele>110</ele>
        <time>2017-05-07T08:46:00.356Z</time>
      </trkpt>
      <trkpt lat="47.80822" lon="2.2961">
        <ele>110</ele>
        <time>2017-05-07T08:46:01.362Z</time>
      </trkpt>
      <trkpt lat="47.80822" lon="2.2961">
        <ele>110</ele>
        <time>2017-05-07T08:46:02.359Z</time>
      </trkpt>
      <trkpt lat="47.80831" lon="2.29613">
        <ele>110</ele>
        <time>2017-05-07T08:46:03.365Z</time>
      </trkpt>
      <trkpt lat="47.80831" lon="2.29613">
        <ele>110</ele>
        <time>2017-05-07T08:46:04.355Z</time>
      </trkpt>
      <trkpt lat="47.80839" lon="2.29615">
        <ele>110</ele>
        <time>2017-05-07T08:46:05.359Z</time>
      </trkpt>
      <trkpt lat="47.80839" lon="2.29615">
        <ele>110</ele>
        <time>2017-05-07T08:46:06.361Z</time>
      </trkpt>
      <trkpt lat="47.80849" lon="2.29617">
        <ele>110</ele>
        <time>2017-05-07T08:46:07.360Z</time>
      </trkpt>
      <trkpt lat="47.80849" lon="2.29617">
        <ele>110</ele>
        <time>2017-05-07T08:46:08.357Z</time>
      </trkpt>
      <trkpt lat="47.80859" lon="2.29619">
        <ele>110</ele>
        <time>2017-05-07T08:46:09.365Z</time>
      </trkpt>
      <trkpt lat="47.80864" lon="2.2962">
        <ele>110</ele>
        <time>2017-05-07T08:46:10.361Z</time>
      </trkpt>
      <trkpt lat="47.80864" lon="2.2962">
        <ele>110</ele>
        <time>2017-05-07T08:46:11.357Z</time>
      </trkpt>
      <trkpt lat="47.80874" lon="2.29622">
        <ele>110</ele>
        <time>2017-05-07T08:46:12.361Z</time>
      </trkpt>
      <trkpt lat="47.80874" lon="2.29622">
        <ele>110</ele>
        <time>2017-05-07T08:46:13.358Z</time>
      </trkpt>
      <trkpt lat="47.80884" lon="2.29623">
        <ele>110</ele>
        <time>2017-05-07T08:46:14.360Z</time>
      </trkpt>
      <trkpt lat="47.80889" lon="2.29624">
        <ele>110</ele>
        <time>2017-05-07T08:46:15.365Z</time>
      </trkpt>
      <trkpt lat="47.80889" lon="2.29624">
        <ele>110</ele>
        <time>2017-05-07T08:46:16.356Z</time>
      </trkpt>
      <trkpt lat="47.80897" lon="2.29627">
        <ele>110</ele>
        <time>2017-05-07T08:46:17.360Z</time>
      </trkpt>
      <trkpt lat="47.80897" lon="2.29627">
        <ele>110</ele>
        <time>2017-05-07T08:46:18.355Z</time>
      </trkpt>
      <trkpt lat="47.80906" lon="2.29629">
        <ele>109</ele>
        <time>2017-05-07T08:46:19.361Z</time>
      </trkpt>
      <trkpt lat="47.80906" lon="2.29629">
        <ele>109</ele>
        <time>2017-05-07T08:46:20.356Z</time>
      </trkpt>
      <trkpt lat="47.80915" lon="2.29632">
        <ele>109</ele>
        <time>2017-05-07T08:46:21.355Z</time>
      </trkpt>
      <trkpt lat="47.80915" lon="2.29632">
        <ele>109</ele>
        <time>2017-05-07T08:46:22.392Z</time>
      </trkpt>
      <trkpt lat="47.80924" lon="2.29637">
        <ele>109</ele>
        <time>2017-05-07T08:46:23.376Z</time>
      </trkpt>
      <trkpt lat="47.80924" lon="2.29637">
        <ele>109</ele>
        <time>2017-05-07T08:46:24.358Z</time>
      </trkpt>
      <trkpt lat="47.80933" lon="2.29645">
        <ele>109</ele>
        <time>2017-05-07T08:46:25.376Z</time>
      </trkpt>
      <trkpt lat="47.80933" lon="2.29645">
        <ele>109</ele>
        <time>2017-05-07T08:46:26.359Z</time>
      </trkpt>
      <trkpt lat="47.80941" lon="2.29652">
        <ele>108</ele>
        <time>2017-05-07T08:46:27.358Z</time>
      </trkpt>
      <trkpt lat="47.80941" lon="2.29652">
        <ele>108</ele>
        <time>2017-05-07T08:46:28.356Z</time>
      </trkpt>
      <trkpt lat="47.80948" lon="2.2966">
        <ele>108</ele>
        <time>2017-05-07T08:46:29.361Z</time>
      </trkpt>
      <trkpt lat="47.80948" lon="2.2966">
        <ele>108</ele>
        <time>2017-05-07T08:46:30.357Z</time>
      </trkpt>
      <trkpt lat="47.80956" lon="2.29668">
        <ele>108</ele>
        <time>2017-05-07T08:46:31.393Z</time>
      </trkpt>
      <trkpt lat="47.8096" lon="2.29672">
        <ele>108</ele>
        <time>2017-05-07T08:46:32.362Z</time>
      </trkpt>
      <trkpt lat="47.80964" lon="2.29677">
        <ele>108</ele>
        <time>2017-05-07T08:46:33.363Z</time>
      </trkpt>
      <trkpt lat="47.80964" lon="2.29677">
        <ele>108</ele>
        <time>2017-05-07T08:46:34.358Z</time>
      </trkpt>
      <trkpt lat="47.80972" lon="2.29686">
        <ele>108</ele>
        <time>2017-05-07T08:46:35.361Z</time>
      </trkpt>
      <trkpt lat="47.80972" lon="2.29686">
        <ele>108</ele>
        <time>2017-05-07T08:46:36.356Z</time>
      </trkpt>
      <trkpt lat="47.8098" lon="2.29695">
        <ele>108</ele>
        <time>2017-05-07T08:46:37.361Z</time>
      </trkpt>
      <trkpt lat="47.8098" lon="2.29695">
        <ele>108</ele>
        <time>2017-05-07T08:46:38.356Z</time>
      </trkpt>
      <trkpt lat="47.80987" lon="2.29704">
        <ele>108</ele>
        <time>2017-05-07T08:46:39.363Z</time>
      </trkpt>
      <trkpt lat="47.80991" lon="2.29709">
        <ele>108</ele>
        <time>2017-05-07T08:46:40.361Z</time>
      </trkpt>
      <trkpt lat="47.80991" lon="2.29709">
        <ele>108</ele>
        <time>2017-05-07T08:46:41.361Z</time>
      </trkpt>
      <trkpt lat="47.80998" lon="2.29719">
        <ele>108</ele>
        <time>2017-05-07T08:46:42.361Z</time>
      </trkpt>
      <trkpt lat="47.80998" lon="2.29719">
        <ele>108</ele>
        <time>2017-05-07T08:46:43.357Z</time>
      </trkpt>
      <trkpt lat="47.81003" lon="2.29728">
        <ele>109</ele>
        <time>2017-05-07T08:46:44.361Z</time>
      </trkpt>
      <trkpt lat="47.81006" lon="2.29733">
        <ele>109</ele>
        <time>2017-05-07T08:46:45.363Z</time>
      </trkpt>
      <trkpt lat="47.81006" lon="2.29733">
        <ele>109</ele>
        <time>2017-05-07T08:46:46.356Z</time>
      </trkpt>
      <trkpt lat="47.81011" lon="2.2974">
        <ele>110</ele>
        <time>2017-05-07T08:46:47.361Z</time>
      </trkpt>
      <trkpt lat="47.81011" lon="2.2974">
        <ele>110</ele>
        <time>2017-05-07T08:46:48.356Z</time>
      </trkpt>
      <trkpt lat="47.81015" lon="2.29745">
        <ele>110</ele>
        <time>2017-05-07T08:46:49.361Z</time>
      </trkpt>
      <trkpt lat="47.81015" lon="2.29745">
        <ele>110</ele>
        <time>2017-05-07T08:46:50.356Z</time>
      </trkpt>
      <trkpt lat="47.8102" lon="2.29748">
        <ele>111</ele>
        <time>2017-05-07T08:46:51.382Z</time>
      </trkpt>
      <trkpt lat="47.8102" lon="2.29748">
        <ele>111</ele>
        <time>2017-05-07T08:46:52.371Z</time>
      </trkpt>
      <trkpt lat="47.81028" lon="2.29751">
        <ele>111</ele>
        <time>2017-05-07T08:46:53.381Z</time>
      </trkpt>
      <trkpt lat="47.81028" lon="2.29751">
        <ele>111</ele>
        <time>2017-05-07T08:46:54.371Z</time>
      </trkpt>
      <trkpt lat="47.81036" lon="2.29753">
        <ele>111</ele>
        <time>2017-05-07T08:46:55.362Z</time>
      </trkpt>
      <trkpt lat="47.81036" lon="2.29753">
        <ele>111</ele>
        <time>2017-05-07T08:46:56.356Z</time>
      </trkpt>
      <trkpt lat="47.81045" lon="2.29756">
        <ele>111</ele>
        <time>2017-05-07T08:46:57.369Z</time>
      </trkpt>
      <trkpt lat="47.81045" lon="2.29756">
        <ele>111</ele>
        <time>2017-05-07T08:46:58.360Z</time>
      </trkpt>
      <trkpt lat="47.81053" lon="2.29758">
        <ele>111</ele>
        <time>2017-05-07T08:46:59.363Z</time>
      </trkpt>
      <trkpt lat="47.81053" lon="2.29758">
        <ele>111</ele>
        <time>2017-05-07T08:47:00.390Z</time>
      </trkpt>
      <trkpt lat="47.81062" lon="2.29761">
        <ele>111</ele>
        <time>2017-05-07T08:47:01.357Z</time>
      </trkpt>
      <trkpt lat="47.81062" lon="2.29761">
        <ele>111</ele>
        <time>2017-05-07T08:47:02.356Z</time>
      </trkpt>
      <trkpt lat="47.81071" lon="2.29763">
        <ele>111</ele>
        <time>2017-05-07T08:47:03.366Z</time>
      </trkpt>
      <trkpt lat="47.81071" lon="2.29763">
        <ele>111</ele>
        <time>2017-05-07T08:47:04.358Z</time>
      </trkpt>
      <trkpt lat="47.8108" lon="2.29766">
        <ele>111</ele>
        <time>2017-05-07T08:47:05.362Z</time>
      </trkpt>
      <trkpt lat="47.8108" lon="2.29766">
        <ele>111</ele>
        <time>2017-05-07T08:47:06.367Z</time>
      </trkpt>
      <trkpt lat="47.81088" lon="2.29769">
        <ele>111</ele>
        <time>2017-05-07T08:47:07.363Z</time>
      </trkpt>
      <trkpt lat="47.81088" lon="2.29769">
        <ele>111</ele>
        <time>2017-05-07T08:47:08.357Z</time>
      </trkpt>
      <trkpt lat="47.81097" lon="2.29773">
        <ele>111</ele>
        <time>2017-05-07T08:47:09.361Z</time>
      </trkpt>
      <trkpt lat="47.81097" lon="2.29773">
        <ele>111</ele>
        <time>2017-05-07T08:47:10.357Z</time>
      </trkpt>
      <trkpt lat="47.81105" lon="2.29777">
        <ele>111</ele>
        <time>2017-05-07T08:47:11.361Z</time>
      </trkpt>
      <trkpt lat="47.81105" lon="2.29777">
        <ele>111</ele>
        <time>2017-05-07T08:47:12.357Z</time>
      </trkpt>
      <trkpt lat="47.81114" lon="2.29781">
        <ele>112</ele>
        <time>2017-05-07T08:47:13.360Z</time>
      </trkpt>
      <trkpt lat="47.81114" lon="2.29781">
        <ele>112</ele>
        <time>2017-05-07T08:47:14.357Z</time>
      </trkpt>
      <trkpt lat="47.81123" lon="2.29785">
        <ele>112</ele>
        <time>2017-05-07T08:47:15.360Z</time>
      </trkpt>
      <trkpt lat="47.81127" lon="2.29786">
        <ele>112</ele>
        <time>2017-05-07T08:47:16.360Z</time>
      </trkpt>
      <trkpt lat="47.81127" lon="2.29786">
        <ele>112</ele>
        <time>2017-05-07T08:47:17.394Z</time>
      </trkpt>
      <trkpt lat="47.81134" lon="2.29789">
        <ele>112</ele>
        <time>2017-05-07T08:47:18.360Z</time>
      </trkpt>
      <trkpt lat="47.81134" lon="2.29789">
        <ele>112</ele>
        <time>2017-05-07T08:47:19.394Z</time>
      </trkpt>
      <trkpt lat="47.81141" lon="2.29792">
        <ele>112</ele>
        <time>2017-05-07T08:47:20.360Z</time>
      </trkpt>
      <trkpt lat="47.81141" lon="2.29792">
        <ele>112</ele>
        <time>2017-05-07T08:47:21.355Z</time>
      </trkpt>
      <trkpt lat="47.81148" lon="2.29795">
        <ele>112</ele>
        <time>2017-05-07T08:47:22.359Z</time>
      </trkpt>
      <trkpt lat="47.81148" lon="2.29795">
        <ele>112</ele>
        <time>2017-05-07T08:47:23.358Z</time>
      </trkpt>
      <trkpt lat="47.81155" lon="2.29798">
        <ele>112</ele>
        <time>2017-05-07T08:47:24.359Z</time>
      </trkpt>
      <trkpt lat="47.81155" lon="2.29798">
        <ele>112</ele>
        <time>2017-05-07T08:47:25.394Z</time>
      </trkpt>
      <trkpt lat="47.81161" lon="2.298">
        <ele>112</ele>
        <time>2017-05-07T08:47:26.359Z</time>
      </trkpt>
      <trkpt lat="47.81161" lon="2.298">
        <ele>112</ele>
        <time>2017-05-07T08:47:27.356Z</time>
      </trkpt>
      <trkpt lat="47.81168" lon="2.29803">
        <ele>111</ele>
        <time>2017-05-07T08:47:28.358Z</time>
      </trkpt>
      <trkpt lat="47.81168" lon="2.29803">
        <ele>111</ele>
        <time>2017-05-07T08:47:29.355Z</time>
      </trkpt>
      <trkpt lat="47.81175" lon="2.29805">
        <ele>111</ele>
        <time>2017-05-07T08:47:30.360Z</time>
      </trkpt>
      <trkpt lat="47.81175" lon="2.29805">
        <ele>111</ele>
        <time>2017-05-07T08:47:31.355Z</time>
      </trkpt>
      <trkpt lat="47.81183" lon="2.29808">
        <ele>111</ele>
        <time>2017-05-07T08:47:32.357Z</time>
      </trkpt>
      <trkpt lat="47.81183" lon="2.29808">
        <ele>111</ele>
        <time>2017-05-07T08:47:33.358Z</time>
      </trkpt>
      <trkpt lat="47.81191" lon="2.2981">
        <ele>111</ele>
        <time>2017-05-07T08:47:34.359Z</time>
      </trkpt>
      <trkpt lat="47.81191" lon="2.2981">
        <ele>111</ele>
        <time>2017-05-07T08:47:35.394Z</time>
      </trkpt>
      <trkpt lat="47.81198" lon="2.29813">
        <ele>111</ele>
        <time>2017-05-07T08:47:36.359Z</time>
      </trkpt>
      <trkpt lat="47.81198" lon="2.29813">
        <ele>111</ele>
        <time>2017-05-07T08:47:37.391Z</time>
      </trkpt>
      <trkpt lat="47.81205" lon="2.29815">
        <ele>112</ele>
        <time>2017-05-07T08:47:38.359Z</time>
      </trkpt>
      <trkpt lat="47.81205" lon="2.29815">
        <ele>112</ele>
        <time>2017-05-07T08:47:39.356Z</time>
      </trkpt>
      <trkpt lat="47.81213" lon="2.29818">
        <ele>112</ele>
        <time>2017-05-07T08:47:40.360Z</time>
      </trkpt>
      <trkpt lat="47.81213" lon="2.29818">
        <ele>112</ele>
        <time>2017-05-07T08:47:41.394Z</time>
      </trkpt>
      <trkpt lat="47.81222" lon="2.29821">
        <ele>112</ele>
        <time>2017-05-07T08:47:42.360Z</time>
      </trkpt>
      <trkpt lat="47.81222" lon="2.29821">
        <ele>112</ele>
        <time>2017-05-07T08:47:43.358Z</time>
      </trkpt>
      <trkpt lat="47.8123" lon="2.29824">
        <ele>112</ele>
        <time>2017-05-07T08:47:44.363Z</time>
      </trkpt>
      <trkpt lat="47.8123" lon="2.29824">
        <ele>112</ele>
        <time>2017-05-07T08:47:45.355Z</time>
      </trkpt>
      <trkpt lat="47.81239" lon="2.29826">
        <ele>112</ele>
        <time>2017-05-07T08:47:46.360Z</time>
      </trkpt>
      <trkpt lat="47.81239" lon="2.29826">
        <ele>112</ele>
        <time>2017-05-07T08:47:47.355Z</time>
      </trkpt>
      <trkpt lat="47.81247" lon="2.29829">
        <ele>112</ele>
        <time>2017-05-07T08:47:48.357Z</time>
      </trkpt>
      <trkpt lat="47.81247" lon="2.29829">
        <ele>112</ele>
        <time>2017-05-07T08:47:49.366Z</time>
      </trkpt>
      <trkpt lat="47.81256" lon="2.29832">
        <ele>112</ele>
        <time>2017-05-07T08:47:50.360Z</time>
      </trkpt>
      <trkpt lat="47.81256" lon="2.29832">
        <ele>112</ele>
        <time>2017-05-07T08:47:51.355Z</time>
      </trkpt>
      <trkpt lat="47.81264" lon="2.29836">
        <ele>112</ele>
        <time>2017-05-07T08:47:52.360Z</time>
      </trkpt>
      <trkpt lat="47.81264" lon="2.29836">
        <ele>112</ele>
        <time>2017-05-07T08:47:53.361Z</time>
      </trkpt>
      <trkpt lat="47.81272" lon="2.29838">
        <ele>112</ele>
        <time>2017-05-07T08:47:54.360Z</time>
      </trkpt>
      <trkpt lat="47.81272" lon="2.29838">
        <ele>112</ele>
        <time>2017-05-07T08:47:55.357Z</time>
      </trkpt>
      <trkpt lat="47.8128" lon="2.29841">
        <ele>112</ele>
        <time>2017-05-07T08:47:56.360Z</time>
      </trkpt>
      <trkpt lat="47.8128" lon="2.29841">
        <ele>112</ele>
        <time>2017-05-07T08:47:57.356Z</time>
      </trkpt>
      <trkpt lat="47.81288" lon="2.29843">
        <ele>112</ele>
        <time>2017-05-07T08:47:58.360Z</time>
      </trkpt>
      <trkpt lat="47.81288" lon="2.29843">
        <ele>112</ele>
        <time>2017-05-07T08:47:59.374Z</time>
      </trkpt>
      <trkpt lat="47.81297" lon="2.29846">
        <ele>112</ele>
        <time>2017-05-07T08:48:00.360Z</time>
      </trkpt>
      <trkpt lat="47.81297" lon="2.29846">
        <ele>112</ele>
        <time>2017-05-07T08:48:01.364Z</time>
      </trkpt>
      <trkpt lat="47.81304" lon="2.29849">
        <ele>112</ele>
        <time>2017-05-07T08:48:02.370Z</time>
      </trkpt>
      <trkpt lat="47.81304" lon="2.29849">
        <ele>112</ele>
        <time>2017-05-07T08:48:03.376Z</time>
      </trkpt>
      <trkpt lat="47.81313" lon="2.29852">
        <ele>112</ele>
        <time>2017-05-07T08:48:04.369Z</time>
      </trkpt>
      <trkpt lat="47.81313" lon="2.29852">
        <ele>112</ele>
        <time>2017-05-07T08:48:05.355Z</time>
      </trkpt>
      <trkpt lat="47.81321" lon="2.29855">
        <ele>112</ele>
        <time>2017-05-07T08:48:06.358Z</time>
      </trkpt>
      <trkpt lat="47.81321" lon="2.29855">
        <ele>112</ele>
        <time>2017-05-07T08:48:07.357Z</time>
      </trkpt>
      <trkpt lat="47.8133" lon="2.29858">
        <ele>111</ele>
        <time>2017-05-07T08:48:08.361Z</time>
      </trkpt>
      <trkpt lat="47.8133" lon="2.29858">
        <ele>111</ele>
        <time>2017-05-07T08:48:09.359Z</time>
      </trkpt>
      <trkpt lat="47.81338" lon="2.29862">
        <ele>111</ele>
        <time>2017-05-07T08:48:10.357Z</time>
      </trkpt>
      <trkpt lat="47.81343" lon="2.29863">
        <ele>111</ele>
        <time>2017-05-07T08:48:11.375Z</time>
      </trkpt>
      <trkpt lat="47.81343" lon="2.29863">
        <ele>111</ele>
        <time>2017-05-07T08:48:12.368Z</time>
      </trkpt>
      <trkpt lat="47.81352" lon="2.29867">
        <ele>111</ele>
        <time>2017-05-07T08:48:13.360Z</time>
      </trkpt>
      <trkpt lat="47.81357" lon="2.29868">
        <ele>111</ele>
        <time>2017-05-07T08:48:14.363Z</time>
      </trkpt>
      <trkpt lat="47.81361" lon="2.2987">
        <ele>112</ele>
        <time>2017-05-07T08:48:15.366Z</time>
      </trkpt>
      <trkpt lat="47.81361" lon="2.2987">
        <ele>112</ele>
        <time>2017-05-07T08:48:16.357Z</time>
      </trkpt>
      <trkpt lat="47.81369" lon="2.29873">
        <ele>111</ele>
        <time>2017-05-07T08:48:17.362Z</time>
      </trkpt>
      <trkpt lat="47.81369" lon="2.29873">
        <ele>111</ele>
        <time>2017-05-07T08:48:18.357Z</time>
      </trkpt>
      <trkpt lat="47.81377" lon="2.29876">
        <ele>111</ele>
        <time>2017-05-07T08:48:19.362Z</time>
      </trkpt>
      <trkpt lat="47.81377" lon="2.29876">
        <ele>111</ele>
        <time>2017-05-07T08:48:20.357Z</time>
      </trkpt>
      <trkpt lat="47.81385" lon="2.2988">
        <ele>111</ele>
        <time>2017-05-07T08:48:21.363Z</time>
      </trkpt>
      <trkpt lat="47.81385" lon="2.2988">
        <ele>111</ele>
        <time>2017-05-07T08:48:22.394Z</time>
      </trkpt>
      <trkpt lat="47.81394" lon="2.29884">
        <ele>111</ele>
        <time>2017-05-07T08:48:23.362Z</time>
      </trkpt>
      <trkpt lat="47.81398" lon="2.29886">
        <ele>111</ele>
        <time>2017-05-07T08:48:24.363Z</time>
      </trkpt>
      <trkpt lat="47.81398" lon="2.29886">
        <ele>111</ele>
        <time>2017-05-07T08:48:25.356Z</time>
      </trkpt>
      <trkpt lat="47.81407" lon="2.29891">
        <ele>111</ele>
        <time>2017-05-07T08:48:26.361Z</time>
      </trkpt>
      <trkpt lat="47.81411" lon="2.29893">
        <ele>111</ele>
        <time>2017-05-07T08:48:27.365Z</time>
      </trkpt>
      <trkpt lat="47.81411" lon="2.29893">
        <ele>111</ele>
        <time>2017-05-07T08:48:28.363Z</time>
      </trkpt>
      <trkpt lat="47.81419" lon="2.29897">
        <ele>111</ele>
        <time>2017-05-07T08:48:29.362Z</time>
      </trkpt>
      <trkpt lat="47.81419" lon="2.29897">
        <ele>111</ele>
        <time>2017-05-07T08:48:30.357Z</time>
      </trkpt>
      <trkpt lat="47.81427" lon="2.29902">
        <ele>111</ele>
        <time>2017-05-07T08:48:31.362Z</time>
      </trkpt>
      <trkpt lat="47.81427" lon="2.29902">
        <ele>111</ele>
        <time>2017-05-07T08:48:32.361Z</time>
      </trkpt>
      <trkpt lat="47.81435" lon="2.29907">
        <ele>111</ele>
        <time>2017-05-07T08:48:33.375Z</time>
      </trkpt>
      <trkpt lat="47.81435" lon="2.29907">
        <ele>111</ele>
        <time>2017-05-07T08:48:34.360Z</time>
      </trkpt>
      <trkpt lat="47.81444" lon="2.29912">
        <ele>112</ele>
        <time>2017-05-07T08:48:35.363Z</time>
      </trkpt>
      <trkpt lat="47.81444" lon="2.29912">
        <ele>112</ele>
        <time>2017-05-07T08:48:36.359Z</time>
      </trkpt>
      <trkpt lat="47.81452" lon="2.29919">
        <ele>111</ele>
        <time>2017-05-07T08:48:37.360Z</time>
      </trkpt>
      <trkpt lat="47.81452" lon="2.29919">
        <ele>111</ele>
        <time>2017-05-07T08:48:38.357Z</time>
      </trkpt>
      <trkpt lat="47.81461" lon="2.29926">
        <ele>112</ele>
        <time>2017-05-07T08:48:39.361Z</time>
      </trkpt>
      <trkpt lat="47.81461" lon="2.29926">
        <ele>112</ele>
        <time>2017-05-07T08:48:40.356Z</time>
      </trkpt>
      <trkpt lat="47.81469" lon="2.29931">
        <ele>112</ele>
        <time>2017-05-07T08:48:41.360Z</time>
      </trkpt>
      <trkpt lat="47.81469" lon="2.29931">
        <ele>112</ele>
        <time>2017-05-07T08:48:42.394Z</time>
      </trkpt>
      <trkpt lat="47.81477" lon="2.29937">
        <ele>112</ele>
        <time>2017-05-07T08:48:43.382Z</time>
      </trkpt>
      <trkpt lat="47.81477" lon="2.29937">
        <ele>112</ele>
        <time>2017-05-07T08:48:44.368Z</time>
      </trkpt>
      <trkpt lat="47.81485" lon="2.29942">
        <ele>112</ele>
        <time>2017-05-07T08:48:45.361Z</time>
      </trkpt>
      <trkpt lat="47.81485" lon="2.29942">
        <ele>112</ele>
        <time>2017-05-07T08:48:46.355Z</time>
      </trkpt>
      <trkpt lat="47.81493" lon="2.29946">
        <ele>112</ele>
        <time>2017-05-07T08:48:47.357Z</time>
      </trkpt>
      <trkpt lat="47.81493" lon="2.29946">
        <ele>112</ele>
        <time>2017-05-07T08:48:48.394Z</time>
      </trkpt>
      <trkpt lat="47.81502" lon="2.29951">
        <ele>112</ele>
        <time>2017-05-07T08:48:49.359Z</time>
      </trkpt>
      <trkpt lat="47.81502" lon="2.29951">
        <ele>112</ele>
        <time>2017-05-07T08:48:50.355Z</time>
      </trkpt>
      <trkpt lat="47.8151" lon="2.29956">
        <ele>112</ele>
        <time>2017-05-07T08:48:51.363Z</time>
      </trkpt>
      <trkpt lat="47.8151" lon="2.29956">
        <ele>112</ele>
        <time>2017-05-07T08:48:52.355Z</time>
      </trkpt>
      <trkpt lat="47.81518" lon="2.2996">
        <ele>112</ele>
        <time>2017-05-07T08:48:53.358Z</time>
      </trkpt>
      <trkpt lat="47.81518" lon="2.2996">
        <ele>112</ele>
        <time>2017-05-07T08:48:54.355Z</time>
      </trkpt>
      <trkpt lat="47.81527" lon="2.29963">
        <ele>112</ele>
        <time>2017-05-07T08:48:55.357Z</time>
      </trkpt>
      <trkpt lat="47.81527" lon="2.29963">
        <ele>112</ele>
        <time>2017-05-07T08:48:56.355Z</time>
      </trkpt>
      <trkpt lat="47.81535" lon="2.29966">
        <ele>112</ele>
        <time>2017-05-07T08:48:57.359Z</time>
      </trkpt>
      <trkpt lat="47.81535" lon="2.29966">
        <ele>112</ele>
        <time>2017-05-07T08:48:58.355Z</time>
      </trkpt>
      <trkpt lat="47.81543" lon="2.29971">
        <ele>112</ele>
        <time>2017-05-07T08:48:59.360Z</time>
      </trkpt>
      <trkpt lat="47.81543" lon="2.29971">
        <ele>112</ele>
        <time>2017-05-07T08:49:00.361Z</time>
      </trkpt>
      <trkpt lat="47.8155" lon="2.29979">
        <ele>112</ele>
        <time>2017-05-07T08:49:01.359Z</time>
      </trkpt>
      <trkpt lat="47.81553" lon="2.29981">
        <ele>112</ele>
        <time>2017-05-07T08:49:02.360Z</time>
      </trkpt>
      <trkpt lat="47.81557" lon="2.29984">
        <ele>112</ele>
        <time>2017-05-07T08:49:03.362Z</time>
      </trkpt>
      <trkpt lat="47.81557" lon="2.29984">
        <ele>112</ele>
        <time>2017-05-07T08:49:04.357Z</time>
      </trkpt>
      <trkpt lat="47.81564" lon="2.29989">
        <ele>111</ele>
        <time>2017-05-07T08:49:05.360Z</time>
      </trkpt>
      <trkpt lat="47.81564" lon="2.29989">
        <ele>111</ele>
        <time>2017-05-07T08:49:06.355Z</time>
      </trkpt>
      <trkpt lat="47.81572" lon="2.29995">
        <ele>111</ele>
        <time>2017-05-07T08:49:07.360Z</time>
      </trkpt>
      <trkpt lat="47.81572" lon="2.29995">
        <ele>111</ele>
        <time>2017-05-07T08:49:08.355Z</time>
      </trkpt>
      <trkpt lat="47.8158" lon="2.3">
        <ele>111</ele>
        <time>2017-05-07T08:49:09.372Z</time>
      </trkpt>
      <trkpt lat="47.81584" lon="2.30002">
        <ele>110</ele>
        <time>2017-05-07T08:49:10.363Z</time>
      </trkpt>
      <trkpt lat="47.81584" lon="2.30002">
        <ele>110</ele>
        <time>2017-05-07T08:49:11.355Z</time>
      </trkpt>
      <trkpt lat="47.81591" lon="2.30005">
        <ele>110</ele>
        <time>2017-05-07T08:49:12.360Z</time>
      </trkpt>
      <trkpt lat="47.81591" lon="2.30005">
        <ele>110</ele>
        <time>2017-05-07T08:49:13.355Z</time>
      </trkpt>
      <trkpt lat="47.81597" lon="2.30009">
        <ele>109</ele>
        <time>2017-05-07T08:49:14.361Z</time>
      </trkpt>
      <trkpt lat="47.81597" lon="2.30009">
        <ele>109</ele>
        <time>2017-05-07T08:49:15.359Z</time>
      </trkpt>
      <trkpt lat="47.816" lon="2.30015">
        <ele>109</ele>
        <time>2017-05-07T08:49:16.359Z</time>
      </trkpt>
      <trkpt lat="47.81601" lon="2.30019">
        <ele>108</ele>
        <time>2017-05-07T08:49:17.360Z</time>
      </trkpt>
      <trkpt lat="47.81601" lon="2.30019">
        <ele>108</ele>
        <time>2017-05-07T08:49:18.394Z</time>
      </trkpt>
      <trkpt lat="47.81602" lon="2.30027">
        <ele>108</ele>
        <time>2017-05-07T08:49:19.357Z</time>
      </trkpt>
      <trkpt lat="47.81602" lon="2.30027">
        <ele>108</ele>
        <time>2017-05-07T08:49:20.355Z</time>
      </trkpt>
      <trkpt lat="47.81604" lon="2.30034">
        <ele>107</ele>
        <time>2017-05-07T08:49:21.362Z</time>
      </trkpt>
      <trkpt lat="47.81604" lon="2.30034">
        <ele>107</ele>
        <time>2017-05-07T08:49:22.355Z</time>
      </trkpt>
      <trkpt lat="47.8161" lon="2.30036">
        <ele>107</ele>
        <time>2017-05-07T08:49:23.360Z</time>
      </trkpt>
      <trkpt lat="47.8161" lon="2.30036">
        <ele>107</ele>
        <time>2017-05-07T08:49:24.355Z</time>
      </trkpt>
      <trkpt lat="47.81618" lon="2.30035">
        <ele>108</ele>
        <time>2017-05-07T08:49:25.359Z</time>
      </trkpt>
      <trkpt lat="47.81622" lon="2.30035">
        <ele>108</ele>
        <time>2017-05-07T08:49:26.360Z</time>
      </trkpt>
      <trkpt lat="47.81626" lon="2.30035">
        <ele>108</ele>
        <time>2017-05-07T08:49:27.362Z</time>
      </trkpt>
      <trkpt lat="47.81626" lon="2.30035">
        <ele>108</ele>
        <time>2017-05-07T08:49:28.355Z</time>
      </trkpt>
      <trkpt lat="47.81634" lon="2.30035">
        <ele>108</ele>
        <time>2017-05-07T08:49:29.360Z</time>
      </trkpt>
      <trkpt lat="47.81634" lon="2.30035">
        <ele>108</ele>
        <time>2017-05-07T08:49:30.355Z</time>
      </trkpt>
      <trkpt lat="47.81643" lon="2.30036">
        <ele>108</ele>
        <time>2017-05-07T08:49:31.360Z</time>
      </trkpt>
      <trkpt lat="47.81643" lon="2.30036">
        <ele>108</ele>
        <time>2017-05-07T08:49:32.355Z</time>
      </trkpt>
      <trkpt lat="47.81651" lon="2.30037">
        <ele>108</ele>
        <time>2017-05-07T08:49:33.362Z</time>
      </trkpt>
      <trkpt lat="47.81651" lon="2.30037">
        <ele>108</ele>
        <time>2017-05-07T08:49:34.358Z</time>
      </trkpt>
      <trkpt lat="47.81661" lon="2.3004">
        <ele>109</ele>
        <time>2017-05-07T08:49:35.360Z</time>
      </trkpt>
      <trkpt lat="47.81666" lon="2.3004">
        <ele>109</ele>
        <time>2017-05-07T08:49:36.360Z</time>
      </trkpt>
      <trkpt lat="47.81666" lon="2.3004">
        <ele>109</ele>
        <time>2017-05-07T08:49:37.358Z</time>
      </trkpt>
      <trkpt lat="47.81675" lon="2.30041">
        <ele>109</ele>
        <time>2017-05-07T08:49:38.360Z</time>
      </trkpt>
      <trkpt lat="47.8168" lon="2.30041">
        <ele>110</ele>
        <time>2017-05-07T08:49:39.363Z</time>
      </trkpt>
      <trkpt lat="47.8168" lon="2.30041">
        <ele>110</ele>
        <time>2017-05-07T08:49:40.356Z</time>
      </trkpt>
      <trkpt lat="47.8169" lon="2.30042">
        <ele>110</ele>
        <time>2017-05-07T08:49:41.362Z</time>
      </trkpt>
      <trkpt lat="47.8169" lon="2.30042">
        <ele>110</ele>
        <time>2017-05-07T08:49:42.357Z</time>
      </trkpt>
      <trkpt lat="47.81701" lon="2.30042">
        <ele>111</ele>
        <time>2017-05-07T08:49:43.362Z</time>
      </trkpt>
      <trkpt lat="47.81701" lon="2.30042">
        <ele>111</ele>
        <time>2017-05-07T08:49:44.356Z</time>
      </trkpt>
      <trkpt lat="47.81712" lon="2.30043">
        <ele>112</ele>
        <time>2017-05-07T08:49:45.385Z</time>
      </trkpt>
      <trkpt lat="47.81712" lon="2.30043">
        <ele>112</ele>
        <time>2017-05-07T08:49:46.372Z</time>
      </trkpt>
      <trkpt lat="47.81724" lon="2.30044">
        <ele>112</ele>
        <time>2017-05-07T08:49:47.362Z</time>
      </trkpt>
      <trkpt lat="47.81724" lon="2.30044">
        <ele>112</ele>
        <time>2017-05-07T08:49:48.357Z</time>
      </trkpt>
      <trkpt lat="47.81734" lon="2.30044">
        <ele>112</ele>
        <time>2017-05-07T08:49:49.362Z</time>
      </trkpt>
      <trkpt lat="47.81734" lon="2.30044">
        <ele>112</ele>
        <time>2017-05-07T08:49:50.357Z</time>
      </trkpt>
      <trkpt lat="47.81745" lon="2.30046">
        <ele>111</ele>
        <time>2017-05-07T08:49:51.367Z</time>
      </trkpt>
      <trkpt lat="47.81745" lon="2.30046">
        <ele>111</ele>
        <time>2017-05-07T08:49:52.357Z</time>
      </trkpt>
      <trkpt lat="47.81757" lon="2.30051">
        <ele>111</ele>
        <time>2017-05-07T08:49:53.362Z</time>
      </trkpt>
      <trkpt lat="47.81757" lon="2.30051">
        <ele>111</ele>
        <time>2017-05-07T08:49:54.357Z</time>
      </trkpt>
      <trkpt lat="47.81771" lon="2.30051">
        <ele>110</ele>
        <time>2017-05-07T08:49:55.363Z</time>
      </trkpt>
      <trkpt lat="47.81771" lon="2.30051">
        <ele>110</ele>
        <time>2017-05-07T08:49:56.356Z</time>
      </trkpt>
      <trkpt lat="47.81785" lon="2.30049">
        <ele>109</ele>
        <time>2017-05-07T08:49:57.367Z</time>
      </trkpt>
      <trkpt lat="47.81785" lon="2.30049">
        <ele>109</ele>
        <time>2017-05-07T08:49:58.357Z</time>
      </trkpt>
      <trkpt lat="47.81799" lon="2.30046">
        <ele>109</ele>
        <time>2017-05-07T08:49:59.383Z</time>
      </trkpt>
      <trkpt lat="47.81799" lon="2.30046">
        <ele>109</ele>
        <time>2017-05-07T08:50:00.368Z</time>
      </trkpt>
      <trkpt lat="47.81812" lon="2.30043">
        <ele>109</ele>
        <time>2017-05-07T08:50:01.363Z</time>
      </trkpt>
      <trkpt lat="47.81812" lon="2.30043">
        <ele>109</ele>
        <time>2017-05-07T08:50:02.357Z</time>
      </trkpt>
      <trkpt lat="47.81825" lon="2.30038">
        <ele>108</ele>
        <time>2017-05-07T08:50:03.365Z</time>
      </trkpt>
      <trkpt lat="47.81825" lon="2.30038">
        <ele>108</ele>
        <time>2017-05-07T08:50:04.358Z</time>
      </trkpt>
      <trkpt lat="47.81838" lon="2.30032">
        <ele>108</ele>
        <time>2017-05-07T08:50:05.362Z</time>
      </trkpt>
      <trkpt lat="47.81838" lon="2.30032">
        <ele>108</ele>
        <time>2017-05-07T08:50:06.357Z</time>
      </trkpt>
      <trkpt lat="47.8185" lon="2.30026">
        <ele>108</ele>
        <time>2017-05-07T08:50:07.363Z</time>
      </trkpt>
      <trkpt lat="47.81856" lon="2.30023">
        <ele>108</ele>
        <time>2017-05-07T08:50:08.364Z</time>
      </trkpt>
      <trkpt lat="47.81856" lon="2.30023">
        <ele>108</ele>
        <time>2017-05-07T08:50:09.360Z</time>
      </trkpt>
      <trkpt lat="47.81868" lon="2.30016">
        <ele>107</ele>
        <time>2017-05-07T08:50:10.361Z</time>
      </trkpt>
      <trkpt lat="47.81873" lon="2.30013">
        <ele>107</ele>
        <time>2017-05-07T08:50:11.362Z</time>
      </trkpt>
      <trkpt lat="47.81873" lon="2.30013">
        <ele>107</ele>
        <time>2017-05-07T08:50:12.357Z</time>
      </trkpt>
      <trkpt lat="47.81883" lon="2.30008">
        <ele>107</ele>
        <time>2017-05-07T08:50:13.386Z</time>
      </trkpt>
      <trkpt lat="47.81883" lon="2.30008">
        <ele>107</ele>
        <time>2017-05-07T08:50:14.368Z</time>
      </trkpt>
      <trkpt lat="47.81894" lon="2.30002">
        <ele>107</ele>
        <time>2017-05-07T08:50:15.367Z</time>
      </trkpt>
      <trkpt lat="47.81894" lon="2.30002">
        <ele>107</ele>
        <time>2017-05-07T08:50:16.359Z</time>
      </trkpt>
      <trkpt lat="47.81905" lon="2.29996">
        <ele>107</ele>
        <time>2017-05-07T08:50:17.362Z</time>
      </trkpt>
      <trkpt lat="47.81905" lon="2.29996">
        <ele>107</ele>
        <time>2017-05-07T08:50:18.357Z</time>
      </trkpt>
      <trkpt lat="47.81916" lon="2.2999">
        <ele>107</ele>
        <time>2017-05-07T08:50:19.362Z</time>
      </trkpt>
      <trkpt lat="47.81916" lon="2.2999">
        <ele>107</ele>
        <time>2017-05-07T08:50:20.357Z</time>
      </trkpt>
      <trkpt lat="47.81928" lon="2.29984">
        <ele>107</ele>
        <time>2017-05-07T08:50:21.366Z</time>
      </trkpt>
      <trkpt lat="47.81928" lon="2.29984">
        <ele>107</ele>
        <time>2017-05-07T08:50:22.357Z</time>
      </trkpt>
      <trkpt lat="47.8194" lon="2.29977">
        <ele>106</ele>
        <time>2017-05-07T08:50:23.355Z</time>
      </trkpt>
      <trkpt lat="47.81946" lon="2.29974">
        <ele>106</ele>
        <time>2017-05-07T08:50:24.364Z</time>
      </trkpt>
      <trkpt lat="47.81952" lon="2.29971">
        <ele>106</ele>
        <time>2017-05-07T08:50:25.362Z</time>
      </trkpt>
      <trkpt lat="47.81952" lon="2.29971">
        <ele>106</ele>
        <time>2017-05-07T08:50:26.392Z</time>
      </trkpt>
      <trkpt lat="47.81963" lon="2.29965">
        <ele>105</ele>
        <time>2017-05-07T08:50:27.381Z</time>
      </trkpt>
      <trkpt lat="47.81963" lon="2.29965">
        <ele>105</ele>
        <time>2017-05-07T08:50:28.362Z</time>
      </trkpt>
      <trkpt lat="47.81973" lon="2.2996">
        <ele>106</ele>
        <time>2017-05-07T08:50:29.376Z</time>
      </trkpt>
      <trkpt lat="47.81973" lon="2.2996">
        <ele>106</ele>
        <time>2017-05-07T08:50:30.367Z</time>
      </trkpt>
      <trkpt lat="47.81982" lon="2.29956">
        <ele>106</ele>
        <time>2017-05-07T08:50:31.362Z</time>
      </trkpt>
      <trkpt lat="47.81982" lon="2.29956">
        <ele>106</ele>
        <time>2017-05-07T08:50:32.394Z</time>
      </trkpt>
      <trkpt lat="47.81992" lon="2.29951">
        <ele>107</ele>
        <time>2017-05-07T08:50:33.384Z</time>
      </trkpt>
      <trkpt lat="47.81992" lon="2.29951">
        <ele>107</ele>
        <time>2017-05-07T08:50:34.365Z</time>
      </trkpt>
      <trkpt lat="47.82002" lon="2.29946">
        <ele>107</ele>
        <time>2017-05-07T08:50:35.362Z</time>
      </trkpt>
      <trkpt lat="47.82006" lon="2.29944">
        <ele>108</ele>
        <time>2017-05-07T08:50:36.364Z</time>
      </trkpt>
      <trkpt lat="47.82006" lon="2.29944">
        <ele>108</ele>
        <time>2017-05-07T08:50:37.356Z</time>
      </trkpt>
      <trkpt lat="47.82016" lon="2.29939">
        <ele>108</ele>
        <time>2017-05-07T08:50:38.362Z</time>
      </trkpt>
      <trkpt lat="47.82021" lon="2.29937">
        <ele>108</ele>
        <time>2017-05-07T08:50:39.363Z</time>
      </trkpt>
      <trkpt lat="47.82021" lon="2.29937">
        <ele>108</ele>
        <time>2017-05-07T08:50:40.359Z</time>
      </trkpt>
      <trkpt lat="47.82031" lon="2.29932">
        <ele>109</ele>
        <time>2017-05-07T08:50:41.361Z</time>
      </trkpt>
      <trkpt lat="47.82036" lon="2.2993">
        <ele>109</ele>
        <time>2017-05-07T08:50:42.367Z</time>
      </trkpt>
      <trkpt lat="47.82036" lon="2.2993">
        <ele>109</ele>
        <time>2017-05-07T08:50:43.359Z</time>
      </trkpt>
      <trkpt lat="47.82046" lon="2.29925">
        <ele>109</ele>
        <time>2017-05-07T08:50:44.363Z</time>
      </trkpt>
      <trkpt lat="47.82051" lon="2.29923">
        <ele>109</ele>
        <time>2017-05-07T08:50:45.365Z</time>
      </trkpt>
      <trkpt lat="47.82051" lon="2.29923">
        <ele>109</ele>
        <time>2017-05-07T08:50:46.358Z</time>
      </trkpt>
      <trkpt lat="47.82061" lon="2.29918">
        <ele>109</ele>
        <time>2017-05-07T08:50:47.359Z</time>
      </trkpt>
      <trkpt lat="47.82061" lon="2.29918">
        <ele>109</ele>
        <time>2017-05-07T08:50:48.358Z</time>
      </trkpt>
      <trkpt lat="47.82071" lon="2.29913">
        <ele>109</ele>
        <time>2017-05-07T08:50:49.360Z</time>
      </trkpt>
      <trkpt lat="47.82077" lon="2.2991">
        <ele>109</ele>
        <time>2017-05-07T08:50:50.362Z</time>
      </trkpt>
      <trkpt lat="47.82082" lon="2.29908">
        <ele>109</ele>
        <time>2017-05-07T08:50:51.363Z</time>
      </trkpt>
      <trkpt lat="47.82082" lon="2.29908">
        <ele>109</ele>
        <time>2017-05-07T08:50:52.359Z</time>
      </trkpt>
      <trkpt lat="47.82092" lon="2.29903">
        <ele>109</ele>
        <time>2017-05-07T08:50:53.363Z</time>
      </trkpt>
      <trkpt lat="47.82092" lon="2.29903">
        <ele>109</ele>
        <time>2017-05-07T08:50:54.356Z</time>
      </trkpt>
      <trkpt lat="47.82102" lon="2.29898">
        <ele>109</ele>
        <time>2017-05-07T08:50:55.360Z</time>
      </trkpt>
      <trkpt lat="47.82102" lon="2.29898">
        <ele>109</ele>
        <time>2017-05-07T08:50:56.356Z</time>
      </trkpt>
      <trkpt lat="47.82111" lon="2.29894">
        <ele>109</ele>
        <time>2017-05-07T08:50:57.363Z</time>
      </trkpt>
      <trkpt lat="47.82111" lon="2.29894">
        <ele>109</ele>
        <time>2017-05-07T08:50:58.356Z</time>
      </trkpt>
      <trkpt lat="47.8212" lon="2.2989">
        <ele>109</ele>
        <time>2017-05-07T08:50:59.361Z</time>
      </trkpt>
      <trkpt lat="47.8212" lon="2.2989">
        <ele>109</ele>
        <time>2017-05-07T08:51:00.355Z</time>
      </trkpt>
      <trkpt lat="47.8213" lon="2.29886">
        <ele>109</ele>
        <time>2017-05-07T08:51:01.361Z</time>
      </trkpt>
      <trkpt lat="47.8213" lon="2.29886">
        <ele>109</ele>
        <time>2017-05-07T08:51:02.355Z</time>
      </trkpt>
      <trkpt lat="47.82139" lon="2.29883">
        <ele>109</ele>
        <time>2017-05-07T08:51:03.381Z</time>
      </trkpt>
      <trkpt lat="47.82143" lon="2.29881">
        <ele>109</ele>
        <time>2017-05-07T08:51:04.385Z</time>
      </trkpt>
      <trkpt lat="47.82143" lon="2.29881">
        <ele>109</ele>
        <time>2017-05-07T08:51:05.358Z</time>
      </trkpt>
      <trkpt lat="47.8215" lon="2.29876">
        <ele>109</ele>
        <time>2017-05-07T08:51:06.365Z</time>
      </trkpt>
      <trkpt lat="47.8215" lon="2.29876">
        <ele>109</ele>
        <time>2017-05-07T08:51:07.371Z</time>
      </trkpt>
      <trkpt lat="47.82157" lon="2.29872">
        <ele>109</ele>
        <time>2017-05-07T08:51:08.361Z</time>
      </trkpt>
      <trkpt lat="47.82161" lon="2.29869">
        <ele>109</ele>
        <time>2017-05-07T08:51:09.362Z</time>
      </trkpt>
      <trkpt lat="47.82166" lon="2.29867">
        <ele>109</ele>
        <time>2017-05-07T08:51:10.384Z</time>
      </trkpt>
      <trkpt lat="47.82166" lon="2.29867">
        <ele>109</ele>
        <time>2017-05-07T08:51:11.374Z</time>
      </trkpt>
      <trkpt lat="47.82176" lon="2.29863">
        <ele>109</ele>
        <time>2017-05-07T08:51:12.363Z</time>
      </trkpt>
      <trkpt lat="47.82176" lon="2.29863">
        <ele>109</ele>
        <time>2017-05-07T08:51:13.359Z</time>
      </trkpt>
      <trkpt lat="47.82186" lon="2.29858">
        <ele>110</ele>
        <time>2017-05-07T08:51:14.360Z</time>
      </trkpt>
      <trkpt lat="47.82191" lon="2.29856">
        <ele>110</ele>
        <time>2017-05-07T08:51:15.363Z</time>
      </trkpt>
      <trkpt lat="47.82191" lon="2.29856">
        <ele>110</ele>
        <time>2017-05-07T08:51:16.356Z</time>
      </trkpt>
      <trkpt lat="47.822" lon="2.29852">
        <ele>110</ele>
        <time>2017-05-07T08:51:17.360Z</time>
      </trkpt>
      <trkpt lat="47.822" lon="2.29852">
        <ele>110</ele>
        <time>2017-05-07T08:51:18.355Z</time>
      </trkpt>
      <trkpt lat="47.8221" lon="2.29847">
        <ele>110</ele>
        <time>2017-05-07T08:51:19.361Z</time>
      </trkpt>
      <trkpt lat="47.82215" lon="2.29845">
        <ele>110</ele>
        <time>2017-05-07T08:51:20.363Z</time>
      </trkpt>
      <trkpt lat="47.82215" lon="2.29845">
        <ele>110</ele>
        <time>2017-05-07T08:51:21.393Z</time>
      </trkpt>
      <trkpt lat="47.82224" lon="2.29841">
        <ele>110</ele>
        <time>2017-05-07T08:51:22.360Z</time>
      </trkpt>
      <trkpt lat="47.82229" lon="2.29839">
        <ele>110</ele>
        <time>2017-05-07T08:51:23.363Z</time>
      </trkpt>
      <trkpt lat="47.82229" lon="2.29839">
        <ele>110</ele>
        <time>2017-05-07T08:51:24.357Z</time>
      </trkpt>
      <trkpt lat="47.82238" lon="2.29834">
        <ele>110</ele>
        <time>2017-05-07T08:51:25.360Z</time>
      </trkpt>
      <trkpt lat="47.82238" lon="2.29834">
        <ele>110</ele>
        <time>2017-05-07T08:51:26.355Z</time>
      </trkpt>
      <trkpt lat="47.82247" lon="2.29831">
        <ele>110</ele>
        <time>2017-05-07T08:51:27.361Z</time>
      </trkpt>
      <trkpt lat="47.82247" lon="2.29831">
        <ele>110</ele>
        <time>2017-05-07T08:51:28.355Z</time>
      </trkpt>
      <trkpt lat="47.82256" lon="2.2983">
        <ele>110</ele>
        <time>2017-05-07T08:51:29.362Z</time>
      </trkpt>
      <trkpt lat="47.82256" lon="2.2983">
        <ele>110</ele>
        <time>2017-05-07T08:51:30.361Z</time>
      </trkpt>
      <trkpt lat="47.82265" lon="2.2983">
        <ele>110</ele>
        <time>2017-05-07T08:51:31.360Z</time>
      </trkpt>
      <trkpt lat="47.82265" lon="2.2983">
        <ele>110</ele>
        <time>2017-05-07T08:51:32.363Z</time>
      </trkpt>
      <trkpt lat="47.82274" lon="2.29829">
        <ele>110</ele>
        <time>2017-05-07T08:51:33.365Z</time>
      </trkpt>
      <trkpt lat="47.82274" lon="2.29829">
        <ele>110</ele>
        <time>2017-05-07T08:51:34.359Z</time>
      </trkpt>
      <trkpt lat="47.82284" lon="2.29828">
        <ele>110</ele>
        <time>2017-05-07T08:51:35.360Z</time>
      </trkpt>
      <trkpt lat="47.82284" lon="2.29828">
        <ele>110</ele>
        <time>2017-05-07T08:51:36.356Z</time>
      </trkpt>
      <trkpt lat="47.82295" lon="2.29825">
        <ele>111</ele>
        <time>2017-05-07T08:51:37.361Z</time>
      </trkpt>
      <trkpt lat="47.82295" lon="2.29825">
        <ele>111</ele>
        <time>2017-05-07T08:51:38.357Z</time>
      </trkpt>
      <trkpt lat="47.82305" lon="2.29822">
        <ele>111</ele>
        <time>2017-05-07T08:51:39.361Z</time>
      </trkpt>
      <trkpt lat="47.8231" lon="2.2982">
        <ele>111</ele>
        <time>2017-05-07T08:51:40.359Z</time>
      </trkpt>
      <trkpt lat="47.8231" lon="2.2982">
        <ele>111</ele>
        <time>2017-05-07T08:51:41.392Z</time>
      </trkpt>
      <trkpt lat="47.82321" lon="2.29814">
        <ele>111</ele>
        <time>2017-05-07T08:51:42.362Z</time>
      </trkpt>
      <trkpt lat="47.82321" lon="2.29814">
        <ele>111</ele>
        <time>2017-05-07T08:51:43.359Z</time>
      </trkpt>
      <trkpt lat="47.82332" lon="2.29808">
        <ele>110</ele>
        <time>2017-05-07T08:51:44.361Z</time>
      </trkpt>
      <trkpt lat="47.82338" lon="2.29806">
        <ele>110</ele>
        <time>2017-05-07T08:51:45.365Z</time>
      </trkpt>
      <trkpt lat="47.82343" lon="2.29803">
        <ele>110</ele>
        <time>2017-05-07T08:51:46.364Z</time>
      </trkpt>
      <trkpt lat="47.82343" lon="2.29803">
        <ele>110</ele>
        <time>2017-05-07T08:51:47.357Z</time>
      </trkpt>
      <trkpt lat="47.82355" lon="2.29799">
        <ele>110</ele>
        <time>2017-05-07T08:51:48.363Z</time>
      </trkpt>
      <trkpt lat="47.82355" lon="2.29799">
        <ele>110</ele>
        <time>2017-05-07T08:51:49.361Z</time>
      </trkpt>
      <trkpt lat="47.82368" lon="2.29796">
        <ele>110</ele>
        <time>2017-05-07T08:51:50.362Z</time>
      </trkpt>
      <trkpt lat="47.82373" lon="2.29797">
        <ele>110</ele>
        <time>2017-05-07T08:51:51.378Z</time>
      </trkpt>
      <trkpt lat="47.82379" lon="2.29797">
        <ele>111</ele>
        <time>2017-05-07T08:51:52.370Z</time>
      </trkpt>
      <trkpt lat="47.82379" lon="2.29797">
        <ele>111</ele>
        <time>2017-05-07T08:51:53.359Z</time>
      </trkpt>
      <trkpt lat="47.8239" lon="2.298">
        <ele>111</ele>
        <time>2017-05-07T08:51:54.361Z</time>
      </trkpt>
      <trkpt lat="47.82395" lon="2.29802">
        <ele>112</ele>
        <time>2017-05-07T08:51:55.361Z</time>
      </trkpt>
      <trkpt lat="47.82395" lon="2.29802">
        <ele>112</ele>
        <time>2017-05-07T08:51:56.360Z</time>
      </trkpt>
      <trkpt lat="47.82406" lon="2.29805">
        <ele>111</ele>
        <time>2017-05-07T08:51:57.363Z</time>
      </trkpt>
      <trkpt lat="47.82406" lon="2.29805">
        <ele>111</ele>
        <time>2017-05-07T08:51:58.355Z</time>
      </trkpt>
      <trkpt lat="47.82416" lon="2.29807">
        <ele>111</ele>
        <time>2017-05-07T08:51:59.363Z</time>
      </trkpt>
      <trkpt lat="47.82422" lon="2.29809">
        <ele>111</ele>
        <time>2017-05-07T08:52:00.392Z</time>
      </trkpt>
      <trkpt lat="47.82422" lon="2.29809">
        <ele>111</ele>
        <time>2017-05-07T08:52:01.359Z</time>
      </trkpt>
      <trkpt lat="47.82433" lon="2.2981">
        <ele>110</ele>
        <time>2017-05-07T08:52:02.360Z</time>
      </trkpt>
      <trkpt lat="47.82433" lon="2.2981">
        <ele>110</ele>
        <time>2017-05-07T08:52:03.359Z</time>
      </trkpt>
      <trkpt lat="47.82444" lon="2.29811">
        <ele>111</ele>
        <time>2017-05-07T08:52:04.357Z</time>
      </trkpt>
      <trkpt lat="47.8245" lon="2.29812">
        <ele>111</ele>
        <time>2017-05-07T08:52:05.362Z</time>
      </trkpt>
      <trkpt lat="47.8245" lon="2.29812">
        <ele>111</ele>
        <time>2017-05-07T08:52:06.355Z</time>
      </trkpt>
      <trkpt lat="47.82461" lon="2.29813">
        <ele>111</ele>
        <time>2017-05-07T08:52:07.360Z</time>
      </trkpt>
      <trkpt lat="47.82461" lon="2.29813">
        <ele>111</ele>
        <time>2017-05-07T08:52:08.358Z</time>
      </trkpt>
      <trkpt lat="47.82472" lon="2.29812">
        <ele>111</ele>
        <time>2017-05-07T08:52:09.369Z</time>
      </trkpt>
      <trkpt lat="47.82472" lon="2.29812">
        <ele>111</ele>
        <time>2017-05-07T08:52:10.360Z</time>
      </trkpt>
      <trkpt lat="47.82484" lon="2.29809">
        <ele>111</ele>
        <time>2017-05-07T08:52:11.361Z</time>
      </trkpt>
      <trkpt lat="47.82484" lon="2.29809">
        <ele>111</ele>
        <time>2017-05-07T08:52:12.357Z</time>
      </trkpt>
      <trkpt lat="47.82495" lon="2.29807">
        <ele>111</ele>
        <time>2017-05-07T08:52:13.363Z</time>
      </trkpt>
      <trkpt lat="47.82495" lon="2.29807">
        <ele>111</ele>
        <time>2017-05-07T08:52:14.362Z</time>
      </trkpt>
      <trkpt lat="47.82507" lon="2.29804">
        <ele>111</ele>
        <time>2017-05-07T08:52:15.366Z</time>
      </trkpt>
      <trkpt lat="47.82507" lon="2.29804">
        <ele>111</ele>
        <time>2017-05-07T08:52:16.394Z</time>
      </trkpt>
      <trkpt lat="47.82518" lon="2.298">
        <ele>111</ele>
        <time>2017-05-07T08:52:17.362Z</time>
      </trkpt>
      <trkpt lat="47.82518" lon="2.298">
        <ele>111</ele>
        <time>2017-05-07T08:52:18.357Z</time>
      </trkpt>
      <trkpt lat="47.82529" lon="2.29796">
        <ele>110</ele>
        <time>2017-05-07T08:52:19.361Z</time>
      </trkpt>
      <trkpt lat="47.82529" lon="2.29796">
        <ele>110</ele>
        <time>2017-05-07T08:52:20.357Z</time>
      </trkpt>
      <trkpt lat="47.8254" lon="2.29792">
        <ele>111</ele>
        <time>2017-05-07T08:52:21.365Z</time>
      </trkpt>
      <trkpt lat="47.8254" lon="2.29792">
        <ele>111</ele>
        <time>2017-05-07T08:52:22.357Z</time>
      </trkpt>
      <trkpt lat="47.82551" lon="2.29787">
        <ele>110</ele>
        <time>2017-05-07T08:52:23.375Z</time>
      </trkpt>
      <trkpt lat="47.82551" lon="2.29787">
        <ele>110</ele>
        <time>2017-05-07T08:52:24.360Z</time>
      </trkpt>
      <trkpt lat="47.82562" lon="2.29781">
        <ele>110</ele>
        <time>2017-05-07T08:52:25.383Z</time>
      </trkpt>
      <trkpt lat="47.82562" lon="2.29781">
        <ele>110</ele>
        <time>2017-05-07T08:52:26.377Z</time>
      </trkpt>
      <trkpt lat="47.82573" lon="2.29776">
        <ele>110</ele>
        <time>2017-05-07T08:52:27.380Z</time>
      </trkpt>
      <trkpt lat="47.82573" lon="2.29776">
        <ele>110</ele>
        <time>2017-05-07T08:52:28.369Z</time>
      </trkpt>
      <trkpt lat="47.82584" lon="2.29769">
        <ele>110</ele>
        <time>2017-05-07T08:52:29.361Z</time>
      </trkpt>
      <trkpt lat="47.82584" lon="2.29769">
        <ele>110</ele>
        <time>2017-05-07T08:52:30.358Z</time>
      </trkpt>
      <trkpt lat="47.82594" lon="2.29763">
        <ele>111</ele>
        <time>2017-05-07T08:52:31.364Z</time>
      </trkpt>
      <trkpt lat="47.82594" lon="2.29763">
        <ele>111</ele>
        <time>2017-05-07T08:52:32.358Z</time>
      </trkpt>
      <trkpt lat="47.82605" lon="2.29758">
        <ele>111</ele>
        <time>2017-05-07T08:52:33.367Z</time>
      </trkpt>
      <trkpt lat="47.82605" lon="2.29758">
        <ele>111</ele>
        <time>2017-05-07T08:52:34.360Z</time>
      </trkpt>
      <trkpt lat="47.82615" lon="2.29751">
        <ele>111</ele>
        <time>2017-05-07T08:52:35.363Z</time>
      </trkpt>
      <trkpt lat="47.82615" lon="2.29751">
        <ele>111</ele>
        <time>2017-05-07T08:52:36.357Z</time>
      </trkpt>
      <trkpt lat="47.82626" lon="2.29745">
        <ele>111</ele>
        <time>2017-05-07T08:52:37.363Z</time>
      </trkpt>
      <trkpt lat="47.82626" lon="2.29745">
        <ele>111</ele>
        <time>2017-05-07T08:52:38.358Z</time>
      </trkpt>
      <trkpt lat="47.82636" lon="2.29738">
        <ele>111</ele>
        <time>2017-05-07T08:52:39.366Z</time>
      </trkpt>
      <trkpt lat="47.82636" lon="2.29738">
        <ele>111</ele>
        <time>2017-05-07T08:52:40.371Z</time>
      </trkpt>
      <trkpt lat="47.82645" lon="2.29731">
        <ele>111</ele>
        <time>2017-05-07T08:52:41.363Z</time>
      </trkpt>
      <trkpt lat="47.82645" lon="2.29731">
        <ele>111</ele>
        <time>2017-05-07T08:52:42.358Z</time>
      </trkpt>
      <trkpt lat="47.82654" lon="2.29724">
        <ele>111</ele>
        <time>2017-05-07T08:52:43.381Z</time>
      </trkpt>
      <trkpt lat="47.82654" lon="2.29724">
        <ele>111</ele>
        <time>2017-05-07T08:52:44.364Z</time>
      </trkpt>
      <trkpt lat="47.82662" lon="2.29716">
        <ele>111</ele>
        <time>2017-05-07T08:52:45.366Z</time>
      </trkpt>
      <trkpt lat="47.82662" lon="2.29716">
        <ele>111</ele>
        <time>2017-05-07T08:52:46.358Z</time>
      </trkpt>
      <trkpt lat="47.82669" lon="2.29708">
        <ele>111</ele>
        <time>2017-05-07T08:52:47.363Z</time>
      </trkpt>
      <trkpt lat="47.82669" lon="2.29708">
        <ele>111</ele>
        <time>2017-05-07T08:52:48.357Z</time>
      </trkpt>
      <trkpt lat="47.82677" lon="2.29699">
        <ele>110</ele>
        <time>2017-05-07T08:52:49.362Z</time>
      </trkpt>
      <trkpt lat="47.82677" lon="2.29699">
        <ele>110</ele>
        <time>2017-05-07T08:52:50.359Z</time>
      </trkpt>
      <trkpt lat="47.82685" lon="2.29689">
        <ele>110</ele>
        <time>2017-05-07T08:52:51.367Z</time>
      </trkpt>
      <trkpt lat="47.82685" lon="2.29689">
        <ele>110</ele>
        <time>2017-05-07T08:52:52.358Z</time>
      </trkpt>
      <trkpt lat="47.82693" lon="2.29679">
        <ele>110</ele>
        <time>2017-05-07T08:52:53.363Z</time>
      </trkpt>
      <trkpt lat="47.82697" lon="2.29673">
        <ele>110</ele>
        <time>2017-05-07T08:52:54.383Z</time>
      </trkpt>
      <trkpt lat="47.82697" lon="2.29673">
        <ele>110</ele>
        <time>2017-05-07T08:52:55.365Z</time>
      </trkpt>
      <trkpt lat="47.82706" lon="2.29662">
        <ele>110</ele>
        <time>2017-05-07T08:52:56.363Z</time>
      </trkpt>
      <trkpt lat="47.8271" lon="2.29656">
        <ele>111</ele>
        <time>2017-05-07T08:52:57.368Z</time>
      </trkpt>
      <trkpt lat="47.8271" lon="2.29656">
        <ele>111</ele>
        <time>2017-05-07T08:52:58.360Z</time>
      </trkpt>
      <trkpt lat="47.82719" lon="2.29644">
        <ele>111</ele>
        <time>2017-05-07T08:52:59.369Z</time>
      </trkpt>
      <trkpt lat="47.82719" lon="2.29644">
        <ele>111</ele>
        <time>2017-05-07T08:53:00.358Z</time>
      </trkpt>
      <trkpt lat="47.82727" lon="2.29632">
        <ele>111</ele>
        <time>2017-05-07T08:53:01.364Z</time>
      </trkpt>
      <trkpt lat="47.82727" lon="2.29632">
        <ele>111</ele>
        <time>2017-05-07T08:53:02.358Z</time>
      </trkpt>
      <trkpt lat="47.82734" lon="2.2962">
        <ele>111</ele>
        <time>2017-05-07T08:53:03.366Z</time>
      </trkpt>
      <trkpt lat="47.82734" lon="2.2962">
        <ele>111</ele>
        <time>2017-05-07T08:53:04.358Z</time>
      </trkpt>
      <trkpt lat="47.82741" lon="2.29607">
        <ele>111</ele>
        <time>2017-05-07T08:53:05.361Z</time>
      </trkpt>
      <trkpt lat="47.82741" lon="2.29607">
        <ele>111</ele>
        <time>2017-05-07T08:53:06.361Z</time>
      </trkpt>
      <trkpt lat="47.82748" lon="2.29595">
        <ele>110</ele>
        <time>2017-05-07T08:53:07.365Z</time>
      </trkpt>
      <trkpt lat="47.82752" lon="2.29588">
        <ele>110</ele>
        <time>2017-05-07T08:53:08.362Z</time>
      </trkpt>
      <trkpt lat="47.82752" lon="2.29588">
        <ele>110</ele>
        <time>2017-05-07T08:53:09.359Z</time>
      </trkpt>
      <trkpt lat="47.82758" lon="2.29575">
        <ele>110</ele>
        <time>2017-05-07T08:53:10.377Z</time>
      </trkpt>
      <trkpt lat="47.82762" lon="2.29569">
        <ele>110</ele>
        <time>2017-05-07T08:53:11.372Z</time>
      </trkpt>
      <trkpt lat="47.82762" lon="2.29569">
        <ele>110</ele>
        <time>2017-05-07T08:53:12.362Z</time>
      </trkpt>
      <trkpt lat="47.8277" lon="2.29557">
        <ele>110</ele>
        <time>2017-05-07T08:53:13.365Z</time>
      </trkpt>
      <trkpt lat="47.8277" lon="2.29557">
        <ele>110</ele>
        <time>2017-05-07T08:53:14.358Z</time>
      </trkpt>
      <trkpt lat="47.82777" lon="2.29544">
        <ele>110</ele>
        <time>2017-05-07T08:53:15.386Z</time>
      </trkpt>
      <trkpt lat="47.82777" lon="2.29544">
        <ele>110</ele>
        <time>2017-05-07T08:53:16.377Z</time>
      </trkpt>
      <trkpt lat="47.82785" lon="2.29532">
        <ele>110</ele>
        <time>2017-05-07T08:53:17.365Z</time>
      </trkpt>
      <trkpt lat="47.82785" lon="2.29532">
        <ele>110</ele>
        <time>2017-05-07T08:53:18.394Z</time>
      </trkpt>
      <trkpt lat="47.82793" lon="2.29519">
        <ele>110</ele>
        <time>2017-05-07T08:53:19.363Z</time>
      </trkpt>
      <trkpt lat="47.82793" lon="2.29519">
        <ele>110</ele>
        <time>2017-05-07T08:53:20.360Z</time>
      </trkpt>
      <trkpt lat="47.828" lon="2.29507">
        <ele>110</ele>
        <time>2017-05-07T08:53:21.368Z</time>
      </trkpt>
      <trkpt lat="47.828" lon="2.29507">
        <ele>110</ele>
        <time>2017-05-07T08:53:22.358Z</time>
      </trkpt>
      <trkpt lat="47.82807" lon="2.29494">
        <ele>110</ele>
        <time>2017-05-07T08:53:23.375Z</time>
      </trkpt>
      <trkpt lat="47.82807" lon="2.29494">
        <ele>110</ele>
        <time>2017-05-07T08:53:24.357Z</time>
      </trkpt>
      <trkpt lat="47.82815" lon="2.29482">
        <ele>109</ele>
        <time>2017-05-07T08:53:25.363Z</time>
      </trkpt>
      <trkpt lat="47.82815" lon="2.29482">
        <ele>109</ele>
        <time>2017-05-07T08:53:26.371Z</time>
      </trkpt>
      <trkpt lat="47.82823" lon="2.29469">
        <ele>109</ele>
        <time>2017-05-07T08:53:27.367Z</time>
      </trkpt>
      <trkpt lat="47.82823" lon="2.29469">
        <ele>109</ele>
        <time>2017-05-07T08:53:28.359Z</time>
      </trkpt>
      <trkpt lat="47.82831" lon="2.29457">
        <ele>109</ele>
        <time>2017-05-07T08:53:29.364Z</time>
      </trkpt>
      <trkpt lat="47.82831" lon="2.29457">
        <ele>109</ele>
        <time>2017-05-07T08:53:30.358Z</time>
      </trkpt>
      <trkpt lat="47.82839" lon="2.29445">
        <ele>109</ele>
        <time>2017-05-07T08:53:31.363Z</time>
      </trkpt>
      <trkpt lat="47.82839" lon="2.29445">
        <ele>109</ele>
        <time>2017-05-07T08:53:32.358Z</time>
      </trkpt>
      <trkpt lat="47.82848" lon="2.29433">
        <ele>109</ele>
        <time>2017-05-07T08:53:33.366Z</time>
      </trkpt>
      <trkpt lat="47.82848" lon="2.29433">
        <ele>109</ele>
        <time>2017-05-07T08:53:34.357Z</time>
      </trkpt>
      <trkpt lat="47.82855" lon="2.29423">
        <ele>109</ele>
        <time>2017-05-07T08:53:35.361Z</time>
      </trkpt>
      <trkpt lat="47.82855" lon="2.29423">
        <ele>109</ele>
        <time>2017-05-07T08:53:36.358Z</time>
      </trkpt>
      <trkpt lat="47.82863" lon="2.29411">
        <ele>109</ele>
        <time>2017-05-07T08:53:37.363Z</time>
      </trkpt>
      <trkpt lat="47.82863" lon="2.29411">
        <ele>109</ele>
        <time>2017-05-07T08:53:38.358Z</time>
      </trkpt>
      <trkpt lat="47.8287" lon="2.29401">
        <ele>109</ele>
        <time>2017-05-07T08:53:39.363Z</time>
      </trkpt>
      <trkpt lat="47.8287" lon="2.29401">
        <ele>109</ele>
        <time>2017-05-07T08:53:40.358Z</time>
      </trkpt>
      <trkpt lat="47.82877" lon="2.2939">
        <ele>109</ele>
        <time>2017-05-07T08:53:41.363Z</time>
      </trkpt>
      <trkpt lat="47.82881" lon="2.29384">
        <ele>108</ele>
        <time>2017-05-07T08:53:42.364Z</time>
      </trkpt>
      <trkpt lat="47.82881" lon="2.29384">
        <ele>108</ele>
        <time>2017-05-07T08:53:43.358Z</time>
      </trkpt>
      <trkpt lat="47.82889" lon="2.29373">
        <ele>108</ele>
        <time>2017-05-07T08:53:44.363Z</time>
      </trkpt>
      <trkpt lat="47.82893" lon="2.29368">
        <ele>108</ele>
        <time>2017-05-07T08:53:45.366Z</time>
      </trkpt>
      <trkpt lat="47.82897" lon="2.29362">
        <ele>108</ele>
        <time>2017-05-07T08:53:46.364Z</time>
      </trkpt>
      <trkpt lat="47.82897" lon="2.29362">
        <ele>108</ele>
        <time>2017-05-07T08:53:47.365Z</time>
      </trkpt>
      <trkpt lat="47.82903" lon="2.29351">
        <ele>109</ele>
        <time>2017-05-07T08:53:48.361Z</time>
      </trkpt>
      <trkpt lat="47.82903" lon="2.29351">
        <ele>109</ele>
        <time>2017-05-07T08:53:49.360Z</time>
      </trkpt>
      <trkpt lat="47.8291" lon="2.2934">
        <ele>109</ele>
        <time>2017-05-07T08:53:50.356Z</time>
      </trkpt>
      <trkpt lat="47.82913" lon="2.29335">
        <ele>109</ele>
        <time>2017-05-07T08:53:51.362Z</time>
      </trkpt>
      <trkpt lat="47.82913" lon="2.29335">
        <ele>109</ele>
        <time>2017-05-07T08:53:52.368Z</time>
      </trkpt>
      <trkpt lat="47.82919" lon="2.29324">
        <ele>109</ele>
        <time>2017-05-07T08:53:53.361Z</time>
      </trkpt>
      <trkpt lat="47.82919" lon="2.29324">
        <ele>109</ele>
        <time>2017-05-07T08:53:54.359Z</time>
      </trkpt>
      <trkpt lat="47.82925" lon="2.29312">
        <ele>109</ele>
        <time>2017-05-07T08:53:55.394Z</time>
      </trkpt>
      <trkpt lat="47.82928" lon="2.29305">
        <ele>108</ele>
        <time>2017-05-07T08:53:56.363Z</time>
      </trkpt>
      <trkpt lat="47.82932" lon="2.29299">
        <ele>108</ele>
        <time>2017-05-07T08:53:57.361Z</time>
      </trkpt>
      <trkpt lat="47.82932" lon="2.29299">
        <ele>108</ele>
        <time>2017-05-07T08:53:58.360Z</time>
      </trkpt>
      <trkpt lat="47.82939" lon="2.29287">
        <ele>108</ele>
        <time>2017-05-07T08:53:59.364Z</time>
      </trkpt>
      <trkpt lat="47.82939" lon="2.29287">
        <ele>108</ele>
        <time>2017-05-07T08:54:00.359Z</time>
      </trkpt>
      <trkpt lat="47.82946" lon="2.29277">
        <ele>108</ele>
        <time>2017-05-07T08:54:01.363Z</time>
      </trkpt>
      <trkpt lat="47.82946" lon="2.29277">
        <ele>108</ele>
        <time>2017-05-07T08:54:02.359Z</time>
      </trkpt>
      <trkpt lat="47.82954" lon="2.29267">
        <ele>108</ele>
        <time>2017-05-07T08:54:03.368Z</time>
      </trkpt>
      <trkpt lat="47.82954" lon="2.29267">
        <ele>108</ele>
        <time>2017-05-07T08:54:04.359Z</time>
      </trkpt>
      <trkpt lat="47.82961" lon="2.29256">
        <ele>108</ele>
        <time>2017-05-07T08:54:05.357Z</time>
      </trkpt>
      <trkpt lat="47.82965" lon="2.29251">
        <ele>108</ele>
        <time>2017-05-07T08:54:06.365Z</time>
      </trkpt>
      <trkpt lat="47.82965" lon="2.29251">
        <ele>108</ele>
        <time>2017-05-07T08:54:07.355Z</time>
      </trkpt>
      <trkpt lat="47.82973" lon="2.29239">
        <ele>108</ele>
        <time>2017-05-07T08:54:08.363Z</time>
      </trkpt>
      <trkpt lat="47.82976" lon="2.29233">
        <ele>108</ele>
        <time>2017-05-07T08:54:09.367Z</time>
      </trkpt>
      <trkpt lat="47.82976" lon="2.29233">
        <ele>108</ele>
        <time>2017-05-07T08:54:10.358Z</time>
      </trkpt>
      <trkpt lat="47.82983" lon="2.29221">
        <ele>108</ele>
        <time>2017-05-07T08:54:11.363Z</time>
      </trkpt>
      <trkpt lat="47.82983" lon="2.29221">
        <ele>108</ele>
        <time>2017-05-07T08:54:12.355Z</time>
      </trkpt>
      <trkpt lat="47.82989" lon="2.29207">
        <ele>108</ele>
        <time>2017-05-07T08:54:13.374Z</time>
      </trkpt>
      <trkpt lat="47.82989" lon="2.29207">
        <ele>108</ele>
        <time>2017-05-07T08:54:14.366Z</time>
      </trkpt>
      <trkpt lat="47.82996" lon="2.29195">
        <ele>108</ele>
        <time>2017-05-07T08:54:15.393Z</time>
      </trkpt>
      <trkpt lat="47.82996" lon="2.29195">
        <ele>108</ele>
        <time>2017-05-07T08:54:16.358Z</time>
      </trkpt>
      <trkpt lat="47.83002" lon="2.29181">
        <ele>109</ele>
        <time>2017-05-07T08:54:17.366Z</time>
      </trkpt>
      <trkpt lat="47.83002" lon="2.29181">
        <ele>109</ele>
        <time>2017-05-07T08:54:18.371Z</time>
      </trkpt>
      <trkpt lat="47.83008" lon="2.29168">
        <ele>109</ele>
        <time>2017-05-07T08:54:19.363Z</time>
      </trkpt>
      <trkpt lat="47.83011" lon="2.29161">
        <ele>109</ele>
        <time>2017-05-07T08:54:20.364Z</time>
      </trkpt>
      <trkpt lat="47.83013" lon="2.29154">
        <ele>109</ele>
        <time>2017-05-07T08:54:21.367Z</time>
      </trkpt>
      <trkpt lat="47.83013" lon="2.29154">
        <ele>109</ele>
        <time>2017-05-07T08:54:22.358Z</time>
      </trkpt>
      <trkpt lat="47.8302" lon="2.29141">
        <ele>110</ele>
        <time>2017-05-07T08:54:23.364Z</time>
      </trkpt>
      <trkpt lat="47.8302" lon="2.29141">
        <ele>110</ele>
        <time>2017-05-07T08:54:24.358Z</time>
      </trkpt>
      <trkpt lat="47.83025" lon="2.29127">
        <ele>110</ele>
        <time>2017-05-07T08:54:25.364Z</time>
      </trkpt>
      <trkpt lat="47.83025" lon="2.29127">
        <ele>110</ele>
        <time>2017-05-07T08:54:26.368Z</time>
      </trkpt>
      <trkpt lat="47.83031" lon="2.29113">
        <ele>110</ele>
        <time>2017-05-07T08:54:27.367Z</time>
      </trkpt>
      <trkpt lat="47.83031" lon="2.29113">
        <ele>110</ele>
        <time>2017-05-07T08:54:28.358Z</time>
      </trkpt>
      <trkpt lat="47.83037" lon="2.29098">
        <ele>110</ele>
        <time>2017-05-07T08:54:29.363Z</time>
      </trkpt>
      <trkpt lat="47.8304" lon="2.29091">
        <ele>110</ele>
        <time>2017-05-07T08:54:30.363Z</time>
      </trkpt>
      <trkpt lat="47.8304" lon="2.29091">
        <ele>110</ele>
        <time>2017-05-07T08:54:31.355Z</time>
      </trkpt>
      <trkpt lat="47.83046" lon="2.29076">
        <ele>110</ele>
        <time>2017-05-07T08:54:32.363Z</time>
      </trkpt>
      <trkpt lat="47.83048" lon="2.29069">
        <ele>110</ele>
        <time>2017-05-07T08:54:33.367Z</time>
      </trkpt>
      <trkpt lat="47.83048" lon="2.29069">
        <ele>110</ele>
        <time>2017-05-07T08:54:34.358Z</time>
      </trkpt>
      <trkpt lat="47.83054" lon="2.29055">
        <ele>110</ele>
        <time>2017-05-07T08:54:35.363Z</time>
      </trkpt>
      <trkpt lat="47.83054" lon="2.29055">
        <ele>110</ele>
        <time>2017-05-07T08:54:36.358Z</time>
      </trkpt>
      <trkpt lat="47.8306" lon="2.29041">
        <ele>110</ele>
        <time>2017-05-07T08:54:37.364Z</time>
      </trkpt>
      <trkpt lat="47.8306" lon="2.29041">
        <ele>110</ele>
        <time>2017-05-07T08:54:38.358Z</time>
      </trkpt>
      <trkpt lat="47.83065" lon="2.29027">
        <ele>110</ele>
        <time>2017-05-07T08:54:39.367Z</time>
      </trkpt>
      <trkpt lat="47.83065" lon="2.29027">
        <ele>110</ele>
        <time>2017-05-07T08:54:40.360Z</time>
      </trkpt>
      <trkpt lat="47.83071" lon="2.29012">
        <ele>110</ele>
        <time>2017-05-07T08:54:41.363Z</time>
      </trkpt>
      <trkpt lat="47.83071" lon="2.29012">
        <ele>110</ele>
        <time>2017-05-07T08:54:42.358Z</time>
      </trkpt>
      <trkpt lat="47.83075" lon="2.28997">
        <ele>110</ele>
        <time>2017-05-07T08:54:43.363Z</time>
      </trkpt>
      <trkpt lat="47.83075" lon="2.28997">
        <ele>110</ele>
        <time>2017-05-07T08:54:44.362Z</time>
      </trkpt>
      <trkpt lat="47.8308" lon="2.28982">
        <ele>110</ele>
        <time>2017-05-07T08:54:45.389Z</time>
      </trkpt>
      <trkpt lat="47.83082" lon="2.28975">
        <ele>109</ele>
        <time>2017-05-07T08:54:46.364Z</time>
      </trkpt>
      <trkpt lat="47.83082" lon="2.28975">
        <ele>109</ele>
        <time>2017-05-07T08:54:47.373Z</time>
      </trkpt>
      <trkpt lat="47.83086" lon="2.2896">
        <ele>109</ele>
        <time>2017-05-07T08:54:48.379Z</time>
      </trkpt>
      <trkpt lat="47.83086" lon="2.2896">
        <ele>109</ele>
        <time>2017-05-07T08:54:49.391Z</time>
      </trkpt>
      <trkpt lat="47.83089" lon="2.28946">
        <ele>109</ele>
        <time>2017-05-07T08:54:50.365Z</time>
      </trkpt>
      <trkpt lat="47.83091" lon="2.28939">
        <ele>109</ele>
        <time>2017-05-07T08:54:51.381Z</time>
      </trkpt>
      <trkpt lat="47.83091" lon="2.28939">
        <ele>109</ele>
        <time>2017-05-07T08:54:52.370Z</time>
      </trkpt>
      <trkpt lat="47.83094" lon="2.28927">
        <ele>109</ele>
        <time>2017-05-07T08:54:53.376Z</time>
      </trkpt>
      <trkpt lat="47.83094" lon="2.28927">
        <ele>109</ele>
        <time>2017-05-07T08:54:54.360Z</time>
      </trkpt>
      <trkpt lat="47.83097" lon="2.28915">
        <ele>109</ele>
        <time>2017-05-07T08:54:55.362Z</time>
      </trkpt>
      <trkpt lat="47.83097" lon="2.28915">
        <ele>109</ele>
        <time>2017-05-07T08:54:56.357Z</time>
      </trkpt>
      <trkpt lat="47.83101" lon="2.28904">
        <ele>109</ele>
        <time>2017-05-07T08:54:57.363Z</time>
      </trkpt>
      <trkpt lat="47.83101" lon="2.28904">
        <ele>109</ele>
        <time>2017-05-07T08:54:58.358Z</time>
      </trkpt>
      <trkpt lat="47.83104" lon="2.2889">
        <ele>109</ele>
        <time>2017-05-07T08:54:59.363Z</time>
      </trkpt>
      <trkpt lat="47.83104" lon="2.2889">
        <ele>109</ele>
        <time>2017-05-07T08:55:00.373Z</time>
      </trkpt>
      <trkpt lat="47.83106" lon="2.28875">
        <ele>108</ele>
        <time>2017-05-07T08:55:01.379Z</time>
      </trkpt>
      <trkpt lat="47.83107" lon="2.28868">
        <ele>108</ele>
        <time>2017-05-07T08:55:02.365Z</time>
      </trkpt>
      <trkpt lat="47.83108" lon="2.28861">
        <ele>108</ele>
        <time>2017-05-07T08:55:03.376Z</time>
      </trkpt>
      <trkpt lat="47.83108" lon="2.28861">
        <ele>108</ele>
        <time>2017-05-07T08:55:04.359Z</time>
      </trkpt>
      <trkpt lat="47.8311" lon="2.28846">
        <ele>108</ele>
        <time>2017-05-07T08:55:05.364Z</time>
      </trkpt>
      <trkpt lat="47.8311" lon="2.28846">
        <ele>108</ele>
        <time>2017-05-07T08:55:06.361Z</time>
      </trkpt>
      <trkpt lat="47.83111" lon="2.28831">
        <ele>108</ele>
        <time>2017-05-07T08:55:07.364Z</time>
      </trkpt>
      <trkpt lat="47.83111" lon="2.28831">
        <ele>108</ele>
        <time>2017-05-07T08:55:08.359Z</time>
      </trkpt>
      <trkpt lat="47.83111" lon="2.28816">
        <ele>108</ele>
        <time>2017-05-07T08:55:09.369Z</time>
      </trkpt>
      <trkpt lat="47.83111" lon="2.28816">
        <ele>108</ele>
        <time>2017-05-07T08:55:10.359Z</time>
      </trkpt>
      <trkpt lat="47.83108" lon="2.28803">
        <ele>109</ele>
        <time>2017-05-07T08:55:11.365Z</time>
      </trkpt>
      <trkpt lat="47.83108" lon="2.28803">
        <ele>109</ele>
        <time>2017-05-07T08:55:12.368Z</time>
      </trkpt>
      <trkpt lat="47.83102" lon="2.28791">
        <ele>110</ele>
        <time>2017-05-07T08:55:13.363Z</time>
      </trkpt>
      <trkpt lat="47.83102" lon="2.28791">
        <ele>110</ele>
        <time>2017-05-07T08:55:14.359Z</time>
      </trkpt>
      <trkpt lat="47.83096" lon="2.28779">
        <ele>110</ele>
        <time>2017-05-07T08:55:15.367Z</time>
      </trkpt>
      <trkpt lat="47.83096" lon="2.28779">
        <ele>110</ele>
        <time>2017-05-07T08:55:16.361Z</time>
      </trkpt>
      <trkpt lat="47.8309" lon="2.28768">
        <ele>110</ele>
        <time>2017-05-07T08:55:17.359Z</time>
      </trkpt>
      <trkpt lat="47.8309" lon="2.28768">
        <ele>110</ele>
        <time>2017-05-07T08:55:18.358Z</time>
      </trkpt>
      <trkpt lat="47.83084" lon="2.28755">
        <ele>110</ele>
        <time>2017-05-07T08:55:19.363Z</time>
      </trkpt>
      <trkpt lat="47.83084" lon="2.28755">
        <ele>110</ele>
        <time>2017-05-07T08:55:20.359Z</time>
      </trkpt>
      <trkpt lat="47.83079" lon="2.28741">
        <ele>110</ele>
        <time>2017-05-07T08:55:21.369Z</time>
      </trkpt>
      <trkpt lat="47.83079" lon="2.28741">
        <ele>110</ele>
        <time>2017-05-07T08:55:22.359Z</time>
      </trkpt>
      <trkpt lat="47.83076" lon="2.28725">
        <ele>109</ele>
        <time>2017-05-07T08:55:23.362Z</time>
      </trkpt>
      <trkpt lat="47.83076" lon="2.28725">
        <ele>109</ele>
        <time>2017-05-07T08:55:24.386Z</time>
      </trkpt>
      <trkpt lat="47.83078" lon="2.28709">
        <ele>109</ele>
        <time>2017-05-07T08:55:25.374Z</time>
      </trkpt>
      <trkpt lat="47.8308" lon="2.28702">
        <ele>110</ele>
        <time>2017-05-07T08:55:26.366Z</time>
      </trkpt>
      <trkpt lat="47.8308" lon="2.28702">
        <ele>110</ele>
        <time>2017-05-07T08:55:27.361Z</time>
      </trkpt>
      <trkpt lat="47.83085" lon="2.28688">
        <ele>110</ele>
        <time>2017-05-07T08:55:28.364Z</time>
      </trkpt>
      <trkpt lat="47.83088" lon="2.28681">
        <ele>109</ele>
        <time>2017-05-07T08:55:29.364Z</time>
      </trkpt>
      <trkpt lat="47.83091" lon="2.28673">
        <ele>109</ele>
        <time>2017-05-07T08:55:30.364Z</time>
      </trkpt>
      <trkpt lat="47.83091" lon="2.28673">
        <ele>109</ele>
        <time>2017-05-07T08:55:31.359Z</time>
      </trkpt>
      <trkpt lat="47.83095" lon="2.28658">
        <ele>109</ele>
        <time>2017-05-07T08:55:32.363Z</time>
      </trkpt>
      <trkpt lat="47.83097" lon="2.2865">
        <ele>109</ele>
        <time>2017-05-07T08:55:33.366Z</time>
      </trkpt>
      <trkpt lat="47.83097" lon="2.2865">
        <ele>109</ele>
        <time>2017-05-07T08:55:34.359Z</time>
      </trkpt>
      <trkpt lat="47.831" lon="2.28634">
        <ele>108</ele>
        <time>2017-05-07T08:55:35.363Z</time>
      </trkpt>
      <trkpt lat="47.831" lon="2.28634">
        <ele>108</ele>
        <time>2017-05-07T08:55:36.357Z</time>
      </trkpt>
      <trkpt lat="47.83104" lon="2.28618">
        <ele>109</ele>
        <time>2017-05-07T08:55:37.363Z</time>
      </trkpt>
      <trkpt lat="47.83104" lon="2.28618">
        <ele>109</ele>
        <time>2017-05-07T08:55:38.358Z</time>
      </trkpt>
      <trkpt lat="47.83107" lon="2.28603">
        <ele>109</ele>
        <time>2017-05-07T08:55:39.369Z</time>
      </trkpt>
      <trkpt lat="47.83107" lon="2.28603">
        <ele>109</ele>
        <time>2017-05-07T08:55:40.374Z</time>
      </trkpt>
      <trkpt lat="47.83109" lon="2.28587">
        <ele>109</ele>
        <time>2017-05-07T08:55:41.364Z</time>
      </trkpt>
      <trkpt lat="47.83109" lon="2.28587">
        <ele>109</ele>
        <time>2017-05-07T08:55:42.358Z</time>
      </trkpt>
      <trkpt lat="47.8311" lon="2.28572">
        <ele>109</ele>
        <time>2017-05-07T08:55:43.362Z</time>
      </trkpt>
      <trkpt lat="47.8311" lon="2.28572">
        <ele>109</ele>
        <time>2017-05-07T08:55:44.378Z</time>
      </trkpt>
      <trkpt lat="47.8311" lon="2.28557">
        <ele>109</ele>
        <time>2017-05-07T08:55:45.368Z</time>
      </trkpt>
      <trkpt lat="47.8311" lon="2.28557">
        <ele>109</ele>
        <time>2017-05-07T08:55:46.360Z</time>
      </trkpt>
      <trkpt lat="47.83107" lon="2.28542">
        <ele>109</ele>
        <time>2017-05-07T08:55:47.364Z</time>
      </trkpt>
      <trkpt lat="47.83107" lon="2.28542">
        <ele>109</ele>
        <time>2017-05-07T08:55:48.359Z</time>
      </trkpt>
      <trkpt lat="47.83104" lon="2.28529">
        <ele>109</ele>
        <time>2017-05-07T08:55:49.367Z</time>
      </trkpt>
      <trkpt lat="47.83104" lon="2.28529">
        <ele>109</ele>
        <time>2017-05-07T08:55:50.359Z</time>
      </trkpt>
      <trkpt lat="47.83102" lon="2.28517">
        <ele>109</ele>
        <time>2017-05-07T08:55:51.368Z</time>
      </trkpt>
      <trkpt lat="47.83102" lon="2.28517">
        <ele>109</ele>
        <time>2017-05-07T08:55:52.359Z</time>
      </trkpt>
      <trkpt lat="47.83105" lon="2.28504">
        <ele>109</ele>
        <time>2017-05-07T08:55:53.368Z</time>
      </trkpt>
      <trkpt lat="47.83107" lon="2.28497">
        <ele>108</ele>
        <time>2017-05-07T08:55:54.365Z</time>
      </trkpt>
      <trkpt lat="47.83107" lon="2.28497">
        <ele>108</ele>
        <time>2017-05-07T08:55:55.359Z</time>
      </trkpt>
      <trkpt lat="47.83111" lon="2.28481">
        <ele>108</ele>
        <time>2017-05-07T08:55:56.361Z</time>
      </trkpt>
      <trkpt lat="47.83113" lon="2.28473">
        <ele>108</ele>
        <time>2017-05-07T08:55:57.366Z</time>
      </trkpt>
      <trkpt lat="47.83113" lon="2.28473">
        <ele>108</ele>
        <time>2017-05-07T08:55:58.357Z</time>
      </trkpt>
      <trkpt lat="47.83117" lon="2.28456">
        <ele>108</ele>
        <time>2017-05-07T08:55:59.383Z</time>
      </trkpt>
      <trkpt lat="47.83117" lon="2.28456">
        <ele>108</ele>
        <time>2017-05-07T08:56:00.387Z</time>
      </trkpt>
      <trkpt lat="47.8312" lon="2.2844">
        <ele>108</ele>
        <time>2017-05-07T08:56:01.365Z</time>
      </trkpt>
      <trkpt lat="47.8312" lon="2.2844">
        <ele>108</ele>
        <time>2017-05-07T08:56:02.359Z</time>
      </trkpt>
      <trkpt lat="47.83123" lon="2.28425">
        <ele>107</ele>
        <time>2017-05-07T08:56:03.377Z</time>
      </trkpt>
      <trkpt lat="47.83123" lon="2.28425">
        <ele>107</ele>
        <time>2017-05-07T08:56:04.361Z</time>
      </trkpt>
      <trkpt lat="47.83125" lon="2.2841">
        <ele>108</ele>
        <time>2017-05-07T08:56:05.367Z</time>
      </trkpt>
      <trkpt lat="47.83126" lon="2.28402">
        <ele>108</ele>
        <time>2017-05-07T08:56:06.365Z</time>
      </trkpt>
      <trkpt lat="47.83126" lon="2.28402">
        <ele>108</ele>
        <time>2017-05-07T08:56:07.359Z</time>
      </trkpt>
      <trkpt lat="47.83129" lon="2.28388">
        <ele>108</ele>
        <time>2017-05-07T08:56:08.366Z</time>
      </trkpt>
      <trkpt lat="47.8313" lon="2.2838">
        <ele>108</ele>
        <time>2017-05-07T08:56:09.368Z</time>
      </trkpt>
      <trkpt lat="47.8313" lon="2.2838">
        <ele>108</ele>
        <time>2017-05-07T08:56:10.359Z</time>
      </trkpt>
      <trkpt lat="47.83132" lon="2.28367">
        <ele>108</ele>
        <time>2017-05-07T08:56:11.361Z</time>
      </trkpt>
      <trkpt lat="47.83132" lon="2.28367">
        <ele>108</ele>
        <time>2017-05-07T08:56:12.359Z</time>
      </trkpt>
      <trkpt lat="47.83134" lon="2.28353">
        <ele>107</ele>
        <time>2017-05-07T08:56:13.381Z</time>
      </trkpt>
      <trkpt lat="47.83134" lon="2.28353">
        <ele>107</ele>
        <time>2017-05-07T08:56:14.366Z</time>
      </trkpt>
      <trkpt lat="47.83137" lon="2.2834">
        <ele>108</ele>
        <time>2017-05-07T08:56:15.368Z</time>
      </trkpt>
      <trkpt lat="47.83137" lon="2.2834">
        <ele>108</ele>
        <time>2017-05-07T08:56:16.359Z</time>
      </trkpt>
      <trkpt lat="47.83139" lon="2.28328">
        <ele>107</ele>
        <time>2017-05-07T08:56:17.359Z</time>
      </trkpt>
      <trkpt lat="47.83139" lon="2.28328">
        <ele>107</ele>
        <time>2017-05-07T08:56:18.386Z</time>
      </trkpt>
      <trkpt lat="47.83142" lon="2.28316">
        <ele>107</ele>
        <time>2017-05-07T08:56:19.375Z</time>
      </trkpt>
      <trkpt lat="47.83142" lon="2.28316">
        <ele>107</ele>
        <time>2017-05-07T08:56:20.364Z</time>
      </trkpt>
      <trkpt lat="47.83143" lon="2.28304">
        <ele>107</ele>
        <time>2017-05-07T08:56:21.368Z</time>
      </trkpt>
      <trkpt lat="47.83145" lon="2.28298">
        <ele>107</ele>
        <time>2017-05-07T08:56:22.364Z</time>
      </trkpt>
      <trkpt lat="47.83145" lon="2.28298">
        <ele>107</ele>
        <time>2017-05-07T08:56:23.360Z</time>
      </trkpt>
      <trkpt lat="47.83147" lon="2.28287">
        <ele>108</ele>
        <time>2017-05-07T08:56:24.366Z</time>
      </trkpt>
      <trkpt lat="47.83147" lon="2.28287">
        <ele>108</ele>
        <time>2017-05-07T08:56:25.362Z</time>
      </trkpt>
      <trkpt lat="47.83149" lon="2.28275">
        <ele>108</ele>
        <time>2017-05-07T08:56:26.364Z</time>
      </trkpt>
      <trkpt lat="47.8315" lon="2.28269">
        <ele>108</ele>
        <time>2017-05-07T08:56:27.374Z</time>
      </trkpt>
      <trkpt lat="47.8315" lon="2.28269">
        <ele>108</ele>
        <time>2017-05-07T08:56:28.364Z</time>
      </trkpt>
      <trkpt lat="47.83152" lon="2.28255">
        <ele>108</ele>
        <time>2017-05-07T08:56:29.363Z</time>
      </trkpt>
      <trkpt lat="47.83153" lon="2.28248">
        <ele>108</ele>
        <time>2017-05-07T08:56:30.367Z</time>
      </trkpt>
      <trkpt lat="47.83155" lon="2.28242">
        <ele>109</ele>
        <time>2017-05-07T08:56:31.367Z</time>
      </trkpt>
      <trkpt lat="47.83155" lon="2.28242">
        <ele>109</ele>
        <time>2017-05-07T08:56:32.359Z</time>
      </trkpt>
      <trkpt lat="47.83161" lon="2.2823">
        <ele>109</ele>
        <time>2017-05-07T08:56:33.368Z</time>
      </trkpt>
      <trkpt lat="47.83161" lon="2.2823">
        <ele>109</ele>
        <time>2017-05-07T08:56:34.360Z</time>
      </trkpt>
      <trkpt lat="47.83159" lon="2.2822">
        <ele>109</ele>
        <time>2017-05-07T08:56:35.365Z</time>
      </trkpt>
      <trkpt lat="47.83159" lon="2.2822">
        <ele>109</ele>
        <time>2017-05-07T08:56:36.359Z</time>
      </trkpt>
      <trkpt lat="47.83155" lon="2.28223">
        <ele>110</ele>
        <time>2017-05-07T08:56:37.365Z</time>
      </trkpt>
      <trkpt lat="47.83155" lon="2.28223">
        <ele>110</ele>
        <time>2017-05-07T08:56:38.359Z</time>
      </trkpt>
      <trkpt lat="47.83153" lon="2.28229">
        <ele>110</ele>
        <time>2017-05-07T08:56:39.368Z</time>
      </trkpt>
      <trkpt lat="47.83151" lon="2.28232">
        <ele>110</ele>
        <time>2017-05-07T08:56:40.364Z</time>
      </trkpt>
      <trkpt lat="47.83151" lon="2.28232">
        <ele>110</ele>
        <time>2017-05-07T08:56:41.359Z</time>
      </trkpt>
      <trkpt lat="47.83149" lon="2.28236">
        <ele>111</ele>
        <time>2017-05-07T08:56:42.365Z</time>
      </trkpt>
      <trkpt lat="47.83149" lon="2.28236">
        <ele>111</ele>
        <time>2017-05-07T08:56:43.358Z</time>
      </trkpt>
      <trkpt lat="47.83146" lon="2.2824">
        <ele>111</ele>
        <time>2017-05-07T08:56:44.380Z</time>
      </trkpt>
      <trkpt lat="47.83145" lon="2.28242">
        <ele>111</ele>
        <time>2017-05-07T08:56:45.367Z</time>
      </trkpt>
      <trkpt lat="47.83145" lon="2.28242">
        <ele>111</ele>
        <time>2017-05-07T08:56:46.359Z</time>
      </trkpt>
      <trkpt lat="47.83142" lon="2.28243">
        <ele>111</ele>
        <time>2017-05-07T08:56:47.364Z</time>
      </trkpt>
      <trkpt lat="47.83141" lon="2.28243">
        <ele>112</ele>
        <time>2017-05-07T08:56:48.365Z</time>
      </trkpt>
      <trkpt lat="47.83141" lon="2.28243">
        <ele>112</ele>
        <time>2017-05-07T08:56:49.359Z</time>
      </trkpt>
      <trkpt lat="47.83141" lon="2.28243">
        <ele>112</ele>
        <time>2017-05-07T08:56:50.384Z</time>
      </trkpt>
      <trkpt lat="47.83141" lon="2.28243">
        <ele>112</ele>
        <time>2017-05-07T08:56:51.373Z</time>
      </trkpt>
      <trkpt lat="47.83141" lon="2.28243">
        <ele>112</ele>
        <time>2017-05-07T08:56:52.363Z</time>
      </trkpt>
      <trkpt lat="47.83141" lon="2.28243">
        <ele>112</ele>
        <time>2017-05-07T08:56:53.366Z</time>
      </trkpt>
      <trkpt lat="47.83137" lon="2.28237">
        <ele>107</ele>
        <time>2017-05-07T08:56:54.363Z</time>
      </trkpt>
      <trkpt lat="47.83137" lon="2.28237">
        <ele>107</ele>
        <time>2017-05-07T08:56:55.355Z</time>
      </trkpt>
      <trkpt lat="47.83135" lon="2.28233">
        <ele>107</ele>
        <time>2017-05-07T08:56:56.359Z</time>
      </trkpt>
      <trkpt lat="47.83135" lon="2.28233">
        <ele>107</ele>
        <time>2017-05-07T08:56:57.356Z</time>
      </trkpt>
      <trkpt lat="47.83135" lon="2.28227">
        <ele>107</ele>
        <time>2017-05-07T08:56:58.359Z</time>
      </trkpt>
      <trkpt lat="47.83135" lon="2.28227">
        <ele>107</ele>
        <time>2017-05-07T08:56:59.358Z</time>
      </trkpt>
      <trkpt lat="47.83135" lon="2.28219">
        <ele>107</ele>
        <time>2017-05-07T08:57:00.361Z</time>
      </trkpt>
      <trkpt lat="47.83135" lon="2.28219">
        <ele>107</ele>
        <time>2017-05-07T08:57:01.381Z</time>
      </trkpt>
      <trkpt lat="47.83135" lon="2.2821">
        <ele>107</ele>
        <time>2017-05-07T08:57:02.370Z</time>
      </trkpt>
      <trkpt lat="47.83135" lon="2.2821">
        <ele>107</ele>
        <time>2017-05-07T08:57:03.363Z</time>
      </trkpt>
      <trkpt lat="47.83135" lon="2.28199">
        <ele>107</ele>
        <time>2017-05-07T08:57:04.360Z</time>
      </trkpt>
      <trkpt lat="47.83135" lon="2.28199">
        <ele>107</ele>
        <time>2017-05-07T08:57:05.394Z</time>
      </trkpt>
      <trkpt lat="47.83135" lon="2.28188">
        <ele>107</ele>
        <time>2017-05-07T08:57:06.360Z</time>
      </trkpt>
      <trkpt lat="47.83135" lon="2.28188">
        <ele>107</ele>
        <time>2017-05-07T08:57:07.367Z</time>
      </trkpt>
      <trkpt lat="47.83136" lon="2.28177">
        <ele>107</ele>
        <time>2017-05-07T08:57:08.373Z</time>
      </trkpt>
      <trkpt lat="47.83136" lon="2.28177">
        <ele>107</ele>
        <time>2017-05-07T08:57:09.363Z</time>
      </trkpt>
      <trkpt lat="47.83137" lon="2.28164">
        <ele>107</ele>
        <time>2017-05-07T08:57:10.359Z</time>
      </trkpt>
      <trkpt lat="47.83137" lon="2.28164">
        <ele>107</ele>
        <time>2017-05-07T08:57:11.357Z</time>
      </trkpt>
      <trkpt lat="47.83137" lon="2.28151">
        <ele>108</ele>
        <time>2017-05-07T08:57:12.359Z</time>
      </trkpt>
      <trkpt lat="47.83137" lon="2.28151">
        <ele>108</ele>
        <time>2017-05-07T08:57:13.394Z</time>
      </trkpt>
      <trkpt lat="47.83138" lon="2.28137">
        <ele>108</ele>
        <time>2017-05-07T08:57:14.358Z</time>
      </trkpt>
      <trkpt lat="47.83138" lon="2.28137">
        <ele>108</ele>
        <time>2017-05-07T08:57:15.394Z</time>
      </trkpt>
      <trkpt lat="47.83138" lon="2.28123">
        <ele>108</ele>
        <time>2017-05-07T08:57:16.360Z</time>
      </trkpt>
      <trkpt lat="47.83138" lon="2.28123">
        <ele>108</ele>
        <time>2017-05-07T08:57:17.394Z</time>
      </trkpt>
      <trkpt lat="47.83138" lon="2.28107">
        <ele>108</ele>
        <time>2017-05-07T08:57:18.361Z</time>
      </trkpt>
      <trkpt lat="47.83138" lon="2.28107">
        <ele>108</ele>
        <time>2017-05-07T08:57:19.393Z</time>
      </trkpt>
      <trkpt lat="47.83137" lon="2.28092">
        <ele>108</ele>
        <time>2017-05-07T08:57:20.374Z</time>
      </trkpt>
      <trkpt lat="47.83137" lon="2.28085">
        <ele>108</ele>
        <time>2017-05-07T08:57:21.373Z</time>
      </trkpt>
      <trkpt lat="47.83137" lon="2.28085">
        <ele>108</ele>
        <time>2017-05-07T08:57:22.362Z</time>
      </trkpt>
      <trkpt lat="47.83136" lon="2.2807">
        <ele>107</ele>
        <time>2017-05-07T08:57:23.358Z</time>
      </trkpt>
      <trkpt lat="47.83136" lon="2.28063">
        <ele>107</ele>
        <time>2017-05-07T08:57:24.361Z</time>
      </trkpt>
      <trkpt lat="47.83136" lon="2.28063">
        <ele>107</ele>
        <time>2017-05-07T08:57:25.394Z</time>
      </trkpt>
      <trkpt lat="47.83135" lon="2.28048">
        <ele>107</ele>
        <time>2017-05-07T08:57:26.360Z</time>
      </trkpt>
      <trkpt lat="47.83134" lon="2.28041">
        <ele>107</ele>
        <time>2017-05-07T08:57:27.360Z</time>
      </trkpt>
      <trkpt lat="47.83134" lon="2.28041">
        <ele>107</ele>
        <time>2017-05-07T08:57:28.357Z</time>
      </trkpt>
      <trkpt lat="47.83133" lon="2.28025">
        <ele>107</ele>
        <time>2017-05-07T08:57:29.361Z</time>
      </trkpt>
      <trkpt lat="47.83132" lon="2.28018">
        <ele>107</ele>
        <time>2017-05-07T08:57:30.362Z</time>
      </trkpt>
      <trkpt lat="47.83132" lon="2.28018">
        <ele>107</ele>
        <time>2017-05-07T08:57:31.356Z</time>
      </trkpt>
      <trkpt lat="47.83131" lon="2.28002">
        <ele>108</ele>
        <time>2017-05-07T08:57:32.375Z</time>
      </trkpt>
      <trkpt lat="47.83131" lon="2.27994">
        <ele>108</ele>
        <time>2017-05-07T08:57:33.361Z</time>
      </trkpt>
      <trkpt lat="47.83131" lon="2.27994">
        <ele>108</ele>
        <time>2017-05-07T08:57:34.357Z</time>
      </trkpt>
      <trkpt lat="47.83129" lon="2.27978">
        <ele>108</ele>
        <time>2017-05-07T08:57:35.361Z</time>
      </trkpt>
      <trkpt lat="47.83128" lon="2.2797">
        <ele>108</ele>
        <time>2017-05-07T08:57:36.364Z</time>
      </trkpt>
      <trkpt lat="47.83128" lon="2.2797">
        <ele>108</ele>
        <time>2017-05-07T08:57:37.361Z</time>
      </trkpt>
      <trkpt lat="47.83127" lon="2.27953">
        <ele>108</ele>
        <time>2017-05-07T08:57:38.361Z</time>
      </trkpt>
      <trkpt lat="47.83127" lon="2.27953">
        <ele>108</ele>
        <time>2017-05-07T08:57:39.356Z</time>
      </trkpt>
      <trkpt lat="47.83125" lon="2.27938">
        <ele>108</ele>
        <time>2017-05-07T08:57:40.361Z</time>
      </trkpt>
      <trkpt lat="47.83125" lon="2.27938">
        <ele>108</ele>
        <time>2017-05-07T08:57:41.358Z</time>
      </trkpt>
      <trkpt lat="47.83123" lon="2.27922">
        <ele>108</ele>
        <time>2017-05-07T08:57:42.365Z</time>
      </trkpt>
      <trkpt lat="47.83123" lon="2.27922">
        <ele>108</ele>
        <time>2017-05-07T08:57:43.356Z</time>
      </trkpt>
      <trkpt lat="47.83121" lon="2.27906">
        <ele>109</ele>
        <time>2017-05-07T08:57:44.365Z</time>
      </trkpt>
      <trkpt lat="47.83121" lon="2.27906">
        <ele>109</ele>
        <time>2017-05-07T08:57:45.356Z</time>
      </trkpt>
      <trkpt lat="47.83118" lon="2.2789">
        <ele>109</ele>
        <time>2017-05-07T08:57:46.363Z</time>
      </trkpt>
      <trkpt lat="47.83118" lon="2.2789">
        <ele>109</ele>
        <time>2017-05-07T08:57:47.358Z</time>
      </trkpt>
      <trkpt lat="47.83115" lon="2.27874">
        <ele>109</ele>
        <time>2017-05-07T08:57:48.365Z</time>
      </trkpt>
      <trkpt lat="47.83115" lon="2.27874">
        <ele>109</ele>
        <time>2017-05-07T08:57:49.356Z</time>
      </trkpt>
      <trkpt lat="47.83112" lon="2.27858">
        <ele>110</ele>
        <time>2017-05-07T08:57:50.361Z</time>
      </trkpt>
      <trkpt lat="47.83112" lon="2.27858">
        <ele>110</ele>
        <time>2017-05-07T08:57:51.356Z</time>
      </trkpt>
      <trkpt lat="47.83109" lon="2.27842">
        <ele>110</ele>
        <time>2017-05-07T08:57:52.361Z</time>
      </trkpt>
      <trkpt lat="47.83109" lon="2.27842">
        <ele>110</ele>
        <time>2017-05-07T08:57:53.355Z</time>
      </trkpt>
      <trkpt lat="47.83106" lon="2.27827">
        <ele>110</ele>
        <time>2017-05-07T08:57:54.364Z</time>
      </trkpt>
      <trkpt lat="47.83106" lon="2.27827">
        <ele>110</ele>
        <time>2017-05-07T08:57:55.356Z</time>
      </trkpt>
      <trkpt lat="47.83104" lon="2.27811">
        <ele>110</ele>
        <time>2017-05-07T08:57:56.361Z</time>
      </trkpt>
      <trkpt lat="47.83103" lon="2.27804">
        <ele>110</ele>
        <time>2017-05-07T08:57:57.362Z</time>
      </trkpt>
      <trkpt lat="47.83103" lon="2.27804">
        <ele>110</ele>
        <time>2017-05-07T08:57:58.355Z</time>
      </trkpt>
      <trkpt lat="47.831" lon="2.27789">
        <ele>110</ele>
        <time>2017-05-07T08:57:59.363Z</time>
      </trkpt>
      <trkpt lat="47.83098" lon="2.27781">
        <ele>110</ele>
        <time>2017-05-07T08:58:00.374Z</time>
      </trkpt>
      <trkpt lat="47.83098" lon="2.27781">
        <ele>110</ele>
        <time>2017-05-07T08:58:01.378Z</time>
      </trkpt>
      <trkpt lat="47.83095" lon="2.27765">
        <ele>110</ele>
        <time>2017-05-07T08:58:02.369Z</time>
      </trkpt>
      <trkpt lat="47.83095" lon="2.27765">
        <ele>110</ele>
        <time>2017-05-07T08:58:03.358Z</time>
      </trkpt>
      <trkpt lat="47.83092" lon="2.2775">
        <ele>110</ele>
        <time>2017-05-07T08:58:04.363Z</time>
      </trkpt>
      <trkpt lat="47.83092" lon="2.2775">
        <ele>110</ele>
        <time>2017-05-07T08:58:05.356Z</time>
      </trkpt>
      <trkpt lat="47.83089" lon="2.27734">
        <ele>110</ele>
        <time>2017-05-07T08:58:06.364Z</time>
      </trkpt>
      <trkpt lat="47.83089" lon="2.27734">
        <ele>110</ele>
        <time>2017-05-07T08:58:07.356Z</time>
      </trkpt>
      <trkpt lat="47.83086" lon="2.27718">
        <ele>109</ele>
        <time>2017-05-07T08:58:08.361Z</time>
      </trkpt>
      <trkpt lat="47.83086" lon="2.27718">
        <ele>109</ele>
        <time>2017-05-07T08:58:09.356Z</time>
      </trkpt>
      <trkpt lat="47.83083" lon="2.27703">
        <ele>110</ele>
        <time>2017-05-07T08:58:10.362Z</time>
      </trkpt>
      <trkpt lat="47.83082" lon="2.27695">
        <ele>110</ele>
        <time>2017-05-07T08:58:11.371Z</time>
      </trkpt>
      <trkpt lat="47.8308" lon="2.27687">
        <ele>110</ele>
        <time>2017-05-07T08:58:12.365Z</time>
      </trkpt>
      <trkpt lat="47.8308" lon="2.27687">
        <ele>110</ele>
        <time>2017-05-07T08:58:13.358Z</time>
      </trkpt>
      <trkpt lat="47.83077" lon="2.27671">
        <ele>110</ele>
        <time>2017-05-07T08:58:14.361Z</time>
      </trkpt>
      <trkpt lat="47.83077" lon="2.27671">
        <ele>110</ele>
        <time>2017-05-07T08:58:15.356Z</time>
      </trkpt>
      <trkpt lat="47.83075" lon="2.27656">
        <ele>110</ele>
        <time>2017-05-07T08:58:16.374Z</time>
      </trkpt>
      <trkpt lat="47.83075" lon="2.27656">
        <ele>110</ele>
        <time>2017-05-07T08:58:17.366Z</time>
      </trkpt>
      <trkpt lat="47.83073" lon="2.2764">
        <ele>111</ele>
        <time>2017-05-07T08:58:18.361Z</time>
      </trkpt>
      <trkpt lat="47.83073" lon="2.2764">
        <ele>111</ele>
        <time>2017-05-07T08:58:19.394Z</time>
      </trkpt>
      <trkpt lat="47.83072" lon="2.27623">
        <ele>111</ele>
        <time>2017-05-07T08:58:20.358Z</time>
      </trkpt>
      <trkpt lat="47.83072" lon="2.27623">
        <ele>111</ele>
        <time>2017-05-07T08:58:21.360Z</time>
      </trkpt>
      <trkpt lat="47.83073" lon="2.27607">
        <ele>111</ele>
        <time>2017-05-07T08:58:22.358Z</time>
      </trkpt>
      <trkpt lat="47.83073" lon="2.27607">
        <ele>111</ele>
        <time>2017-05-07T08:58:23.394Z</time>
      </trkpt>
      <trkpt lat="47.83075" lon="2.27592">
        <ele>111</ele>
        <time>2017-05-07T08:58:24.360Z</time>
      </trkpt>
      <trkpt lat="47.83075" lon="2.27592">
        <ele>111</ele>
        <time>2017-05-07T08:58:25.393Z</time>
      </trkpt>
      <trkpt lat="47.83078" lon="2.27576">
        <ele>112</ele>
        <time>2017-05-07T08:58:26.372Z</time>
      </trkpt>
      <trkpt lat="47.83078" lon="2.27576">
        <ele>112</ele>
        <time>2017-05-07T08:58:27.360Z</time>
      </trkpt>
      <trkpt lat="47.83081" lon="2.27561">
        <ele>111</ele>
        <time>2017-05-07T08:58:28.359Z</time>
      </trkpt>
      <trkpt lat="47.83081" lon="2.27561">
        <ele>111</ele>
        <time>2017-05-07T08:58:29.394Z</time>
      </trkpt>
      <trkpt lat="47.83083" lon="2.27545">
        <ele>111</ele>
        <time>2017-05-07T08:58:30.361Z</time>
      </trkpt>
      <trkpt lat="47.83083" lon="2.27545">
        <ele>111</ele>
        <time>2017-05-07T08:58:31.357Z</time>
      </trkpt>
      <trkpt lat="47.83086" lon="2.27529">
        <ele>111</ele>
        <time>2017-05-07T08:58:32.360Z</time>
      </trkpt>
      <trkpt lat="47.83086" lon="2.27529">
        <ele>111</ele>
        <time>2017-05-07T08:58:33.394Z</time>
      </trkpt>
      <trkpt lat="47.83088" lon="2.27513">
        <ele>111</ele>
        <time>2017-05-07T08:58:34.360Z</time>
      </trkpt>
      <trkpt lat="47.83088" lon="2.27513">
        <ele>111</ele>
        <time>2017-05-07T08:58:35.394Z</time>
      </trkpt>
      <trkpt lat="47.8309" lon="2.27497">
        <ele>111</ele>
        <time>2017-05-07T08:58:36.361Z</time>
      </trkpt>
      <trkpt lat="47.8309" lon="2.27497">
        <ele>111</ele>
        <time>2017-05-07T08:58:37.394Z</time>
      </trkpt>
      <trkpt lat="47.83091" lon="2.27481">
        <ele>111</ele>
        <time>2017-05-07T08:58:38.359Z</time>
      </trkpt>
      <trkpt lat="47.83091" lon="2.27481">
        <ele>111</ele>
        <time>2017-05-07T08:58:39.394Z</time>
      </trkpt>
      <trkpt lat="47.83092" lon="2.27465">
        <ele>111</ele>
        <time>2017-05-07T08:58:40.359Z</time>
      </trkpt>
      <trkpt lat="47.83092" lon="2.27465">
        <ele>111</ele>
        <time>2017-05-07T08:58:41.397Z</time>
      </trkpt>
      <trkpt lat="47.83093" lon="2.27448">
        <ele>111</ele>
        <time>2017-05-07T08:58:42.376Z</time>
      </trkpt>
      <trkpt lat="47.83093" lon="2.27448">
        <ele>111</ele>
        <time>2017-05-07T08:58:43.378Z</time>
      </trkpt>
      <trkpt lat="47.83093" lon="2.27432">
        <ele>111</ele>
        <time>2017-05-07T08:58:44.368Z</time>
      </trkpt>
      <trkpt lat="47.83093" lon="2.27424">
        <ele>111</ele>
        <time>2017-05-07T08:58:45.360Z</time>
      </trkpt>
      <trkpt lat="47.83093" lon="2.27424">
        <ele>111</ele>
        <time>2017-05-07T08:58:46.357Z</time>
      </trkpt>
      <trkpt lat="47.83094" lon="2.27409">
        <ele>111</ele>
        <time>2017-05-07T08:58:47.358Z</time>
      </trkpt>
      <trkpt lat="47.83093" lon="2.27401">
        <ele>111</ele>
        <time>2017-05-07T08:58:48.361Z</time>
      </trkpt>
      <trkpt lat="47.83093" lon="2.27401">
        <ele>111</ele>
        <time>2017-05-07T08:58:49.394Z</time>
      </trkpt>
      <trkpt lat="47.83093" lon="2.27385">
        <ele>111</ele>
        <time>2017-05-07T08:58:50.356Z</time>
      </trkpt>
      <trkpt lat="47.83093" lon="2.27385">
        <ele>111</ele>
        <time>2017-05-07T08:58:51.394Z</time>
      </trkpt>
      <trkpt lat="47.83093" lon="2.27369">
        <ele>111</ele>
        <time>2017-05-07T08:58:52.358Z</time>
      </trkpt>
      <trkpt lat="47.83093" lon="2.27369">
        <ele>111</ele>
        <time>2017-05-07T08:58:53.367Z</time>
      </trkpt>
      <trkpt lat="47.83092" lon="2.27353">
        <ele>111</ele>
        <time>2017-05-07T08:58:54.361Z</time>
      </trkpt>
      <trkpt lat="47.83092" lon="2.27353">
        <ele>111</ele>
        <time>2017-05-07T08:58:55.394Z</time>
      </trkpt>
      <trkpt lat="47.83092" lon="2.27336">
        <ele>111</ele>
        <time>2017-05-07T08:58:56.361Z</time>
      </trkpt>
      <trkpt lat="47.83092" lon="2.27336">
        <ele>111</ele>
        <time>2017-05-07T08:58:57.394Z</time>
      </trkpt>
      <trkpt lat="47.83092" lon="2.2732">
        <ele>111</ele>
        <time>2017-05-07T08:58:58.361Z</time>
      </trkpt>
      <trkpt lat="47.83092" lon="2.2732">
        <ele>111</ele>
        <time>2017-05-07T08:58:59.359Z</time>
      </trkpt>
      <trkpt lat="47.83093" lon="2.27303">
        <ele>111</ele>
        <time>2017-05-07T08:59:00.390Z</time>
      </trkpt>
      <trkpt lat="47.83093" lon="2.27303">
        <ele>111</ele>
        <time>2017-05-07T08:59:01.357Z</time>
      </trkpt>
      <trkpt lat="47.83095" lon="2.27287">
        <ele>111</ele>
        <time>2017-05-07T08:59:02.364Z</time>
      </trkpt>
      <trkpt lat="47.83095" lon="2.27287">
        <ele>111</ele>
        <time>2017-05-07T08:59:03.394Z</time>
      </trkpt>
      <trkpt lat="47.83097" lon="2.27271">
        <ele>111</ele>
        <time>2017-05-07T08:59:04.361Z</time>
      </trkpt>
      <trkpt lat="47.83097" lon="2.27271">
        <ele>111</ele>
        <time>2017-05-07T08:59:05.394Z</time>
      </trkpt>
      <trkpt lat="47.831" lon="2.27255">
        <ele>111</ele>
        <time>2017-05-07T08:59:06.362Z</time>
      </trkpt>
      <trkpt lat="47.831" lon="2.27255">
        <ele>111</ele>
        <time>2017-05-07T08:59:07.394Z</time>
      </trkpt>
      <trkpt lat="47.83102" lon="2.27239">
        <ele>111</ele>
        <time>2017-05-07T08:59:08.359Z</time>
      </trkpt>
      <trkpt lat="47.83102" lon="2.27239">
        <ele>111</ele>
        <time>2017-05-07T08:59:09.393Z</time>
      </trkpt>
      <trkpt lat="47.83105" lon="2.27224">
        <ele>111</ele>
        <time>2017-05-07T08:59:10.358Z</time>
      </trkpt>
      <trkpt lat="47.83105" lon="2.27224">
        <ele>111</ele>
        <time>2017-05-07T08:59:11.393Z</time>
      </trkpt>
      <trkpt lat="47.83107" lon="2.27208">
        <ele>111</ele>
        <time>2017-05-07T08:59:12.357Z</time>
      </trkpt>
      <trkpt lat="47.83107" lon="2.27199">
        <ele>111</ele>
        <time>2017-05-07T08:59:13.363Z</time>
      </trkpt>
      <trkpt lat="47.83107" lon="2.27199">
        <ele>111</ele>
        <time>2017-05-07T08:59:14.355Z</time>
      </trkpt>
      <trkpt lat="47.83107" lon="2.27182">
        <ele>110</ele>
        <time>2017-05-07T08:59:15.357Z</time>
      </trkpt>
      <trkpt lat="47.83107" lon="2.27182">
        <ele>110</ele>
        <time>2017-05-07T08:59:16.355Z</time>
      </trkpt>
      <trkpt lat="47.83105" lon="2.27166">
        <ele>110</ele>
        <time>2017-05-07T08:59:17.357Z</time>
      </trkpt>
      <trkpt lat="47.83104" lon="2.27157">
        <ele>110</ele>
        <time>2017-05-07T08:59:18.364Z</time>
      </trkpt>
      <trkpt lat="47.83104" lon="2.27157">
        <ele>110</ele>
        <time>2017-05-07T08:59:19.356Z</time>
      </trkpt>
      <trkpt lat="47.83101" lon="2.27141">
        <ele>110</ele>
        <time>2017-05-07T08:59:20.361Z</time>
      </trkpt>
      <trkpt lat="47.83101" lon="2.27141">
        <ele>110</ele>
        <time>2017-05-07T08:59:21.356Z</time>
      </trkpt>
      <trkpt lat="47.83098" lon="2.27124">
        <ele>110</ele>
        <time>2017-05-07T08:59:22.361Z</time>
      </trkpt>
      <trkpt lat="47.83098" lon="2.27124">
        <ele>110</ele>
        <time>2017-05-07T08:59:23.356Z</time>
      </trkpt>
      <trkpt lat="47.83094" lon="2.27108">
        <ele>111</ele>
        <time>2017-05-07T08:59:24.363Z</time>
      </trkpt>
      <trkpt lat="47.83094" lon="2.27108">
        <ele>111</ele>
        <time>2017-05-07T08:59:25.356Z</time>
      </trkpt>
      <trkpt lat="47.8309" lon="2.27092">
        <ele>111</ele>
        <time>2017-05-07T08:59:26.372Z</time>
      </trkpt>
      <trkpt lat="47.8309" lon="2.27092">
        <ele>111</ele>
        <time>2017-05-07T08:59:27.358Z</time>
      </trkpt>
      <trkpt lat="47.83086" lon="2.27076">
        <ele>111</ele>
        <time>2017-05-07T08:59:28.361Z</time>
      </trkpt>
      <trkpt lat="47.83086" lon="2.27076">
        <ele>111</ele>
        <time>2017-05-07T08:59:29.356Z</time>
      </trkpt>
      <trkpt lat="47.83081" lon="2.2706">
        <ele>111</ele>
        <time>2017-05-07T08:59:30.364Z</time>
      </trkpt>
      <trkpt lat="47.83081" lon="2.2706">
        <ele>111</ele>
        <time>2017-05-07T08:59:31.356Z</time>
      </trkpt>
      <trkpt lat="47.83077" lon="2.27044">
        <ele>111</ele>
        <time>2017-05-07T08:59:32.363Z</time>
      </trkpt>
      <trkpt lat="47.83077" lon="2.27044">
        <ele>111</ele>
        <time>2017-05-07T08:59:33.356Z</time>
      </trkpt>
      <trkpt lat="47.83074" lon="2.27028">
        <ele>111</ele>
        <time>2017-05-07T08:59:34.364Z</time>
      </trkpt>
      <trkpt lat="47.83074" lon="2.27028">
        <ele>111</ele>
        <time>2017-05-07T08:59:35.356Z</time>
      </trkpt>
      <trkpt lat="47.83071" lon="2.27012">
        <ele>112</ele>
        <time>2017-05-07T08:59:36.366Z</time>
      </trkpt>
      <trkpt lat="47.83071" lon="2.27012">
        <ele>112</ele>
        <time>2017-05-07T08:59:37.358Z</time>
      </trkpt>
      <trkpt lat="47.8307" lon="2.26995">
        <ele>112</ele>
        <time>2017-05-07T08:59:38.362Z</time>
      </trkpt>
      <trkpt lat="47.8307" lon="2.26987">
        <ele>112</ele>
        <time>2017-05-07T08:59:39.363Z</time>
      </trkpt>
      <trkpt lat="47.8307" lon="2.26987">
        <ele>112</ele>
        <time>2017-05-07T08:59:40.356Z</time>
      </trkpt>
      <trkpt lat="47.8307" lon="2.26971">
        <ele>112</ele>
        <time>2017-05-07T08:59:41.363Z</time>
      </trkpt>
      <trkpt lat="47.8307" lon="2.26962">
        <ele>112</ele>
        <time>2017-05-07T08:59:42.362Z</time>
      </trkpt>
      <trkpt lat="47.8307" lon="2.26962">
        <ele>112</ele>
        <time>2017-05-07T08:59:43.356Z</time>
      </trkpt>
      <trkpt lat="47.83071" lon="2.26945">
        <ele>112</ele>
        <time>2017-05-07T08:59:44.361Z</time>
      </trkpt>
      <trkpt lat="47.83071" lon="2.26945">
        <ele>112</ele>
        <time>2017-05-07T08:59:45.356Z</time>
      </trkpt>
      <trkpt lat="47.83073" lon="2.26928">
        <ele>111</ele>
        <time>2017-05-07T08:59:46.361Z</time>
      </trkpt>
      <trkpt lat="47.83073" lon="2.26928">
        <ele>111</ele>
        <time>2017-05-07T08:59:47.356Z</time>
      </trkpt>
      <trkpt lat="47.83075" lon="2.26912">
        <ele>111</ele>
        <time>2017-05-07T08:59:48.364Z</time>
      </trkpt>
      <trkpt lat="47.83075" lon="2.26912">
        <ele>111</ele>
        <time>2017-05-07T08:59:49.356Z</time>
      </trkpt>
      <trkpt lat="47.83077" lon="2.26896">
        <ele>111</ele>
        <time>2017-05-07T08:59:50.364Z</time>
      </trkpt>
      <trkpt lat="47.83078" lon="2.26888">
        <ele>112</ele>
        <time>2017-05-07T08:59:51.363Z</time>
      </trkpt>
      <trkpt lat="47.83078" lon="2.26888">
        <ele>112</ele>
        <time>2017-05-07T08:59:52.389Z</time>
      </trkpt>
      <trkpt lat="47.83079" lon="2.26872">
        <ele>112</ele>
        <time>2017-05-07T08:59:53.356Z</time>
      </trkpt>
      <trkpt lat="47.8308" lon="2.26864">
        <ele>112</ele>
        <time>2017-05-07T08:59:54.362Z</time>
      </trkpt>
      <trkpt lat="47.8308" lon="2.26864">
        <ele>112</ele>
        <time>2017-05-07T08:59:55.378Z</time>
      </trkpt>
      <trkpt lat="47.83082" lon="2.26847">
        <ele>112</ele>
        <time>2017-05-07T08:59:56.368Z</time>
      </trkpt>
      <trkpt lat="47.83082" lon="2.26847">
        <ele>112</ele>
        <time>2017-05-07T08:59:57.357Z</time>
      </trkpt>
      <trkpt lat="47.83083" lon="2.2683">
        <ele>112</ele>
        <time>2017-05-07T08:59:58.361Z</time>
      </trkpt>
      <trkpt lat="47.83083" lon="2.2683">
        <ele>112</ele>
        <time>2017-05-07T08:59:59.369Z</time>
      </trkpt>
      <trkpt lat="47.83084" lon="2.26813">
        <ele>111</ele>
        <time>2017-05-07T09:00:00.382Z</time>
      </trkpt>
      <trkpt lat="47.83084" lon="2.26813">
        <ele>111</ele>
        <time>2017-05-07T09:00:01.388Z</time>
      </trkpt>
      <trkpt lat="47.83086" lon="2.26796">
        <ele>111</ele>
        <time>2017-05-07T09:00:02.394Z</time>
      </trkpt>
      <trkpt lat="47.83086" lon="2.26788">
        <ele>111</ele>
        <time>2017-05-07T09:00:03.364Z</time>
      </trkpt>
      <trkpt lat="47.83086" lon="2.26788">
        <ele>111</ele>
        <time>2017-05-07T09:00:04.357Z</time>
      </trkpt>
      <trkpt lat="47.83087" lon="2.26771">
        <ele>111</ele>
        <time>2017-05-07T09:00:05.363Z</time>
      </trkpt>
      <trkpt lat="47.83088" lon="2.26763">
        <ele>111</ele>
        <time>2017-05-07T09:00:06.365Z</time>
      </trkpt>
      <trkpt lat="47.83089" lon="2.26755">
        <ele>111</ele>
        <time>2017-05-07T09:00:07.378Z</time>
      </trkpt>
      <trkpt lat="47.83089" lon="2.26755">
        <ele>111</ele>
        <time>2017-05-07T09:00:08.367Z</time>
      </trkpt>
      <trkpt lat="47.8309" lon="2.26738">
        <ele>111</ele>
        <time>2017-05-07T09:00:09.361Z</time>
      </trkpt>
      <trkpt lat="47.8309" lon="2.26738">
        <ele>111</ele>
        <time>2017-05-07T09:00:10.393Z</time>
      </trkpt>
      <trkpt lat="47.8309" lon="2.26721">
        <ele>111</ele>
        <time>2017-05-07T09:00:11.361Z</time>
      </trkpt>
      <trkpt lat="47.8309" lon="2.26721">
        <ele>111</ele>
        <time>2017-05-07T09:00:12.360Z</time>
      </trkpt>
      <trkpt lat="47.83091" lon="2.26704">
        <ele>111</ele>
        <time>2017-05-07T09:00:13.362Z</time>
      </trkpt>
      <trkpt lat="47.83091" lon="2.26695">
        <ele>111</ele>
        <time>2017-05-07T09:00:14.362Z</time>
      </trkpt>
      <trkpt lat="47.83091" lon="2.26695">
        <ele>111</ele>
        <time>2017-05-07T09:00:15.394Z</time>
      </trkpt>
      <trkpt lat="47.83093" lon="2.26678">
        <ele>111</ele>
        <time>2017-05-07T09:00:16.374Z</time>
      </trkpt>
      <trkpt lat="47.83093" lon="2.26678">
        <ele>111</ele>
        <time>2017-05-07T09:00:17.366Z</time>
      </trkpt>
      <trkpt lat="47.83093" lon="2.26661">
        <ele>110</ele>
        <time>2017-05-07T09:00:18.369Z</time>
      </trkpt>
      <trkpt lat="47.83093" lon="2.26661">
        <ele>110</ele>
        <time>2017-05-07T09:00:19.358Z</time>
      </trkpt>
      <trkpt lat="47.83094" lon="2.26645">
        <ele>110</ele>
        <time>2017-05-07T09:00:20.362Z</time>
      </trkpt>
      <trkpt lat="47.83094" lon="2.26645">
        <ele>110</ele>
        <time>2017-05-07T09:00:21.356Z</time>
      </trkpt>
      <trkpt lat="47.83095" lon="2.26628">
        <ele>110</ele>
        <time>2017-05-07T09:00:22.363Z</time>
      </trkpt>
      <trkpt lat="47.83095" lon="2.26628">
        <ele>110</ele>
        <time>2017-05-07T09:00:23.358Z</time>
      </trkpt>
      <trkpt lat="47.83094" lon="2.26611">
        <ele>110</ele>
        <time>2017-05-07T09:00:24.364Z</time>
      </trkpt>
      <trkpt lat="47.83094" lon="2.26611">
        <ele>110</ele>
        <time>2017-05-07T09:00:25.356Z</time>
      </trkpt>
      <trkpt lat="47.83093" lon="2.26595">
        <ele>110</ele>
        <time>2017-05-07T09:00:26.364Z</time>
      </trkpt>
      <trkpt lat="47.83093" lon="2.26595">
        <ele>110</ele>
        <time>2017-05-07T09:00:27.356Z</time>
      </trkpt>
      <trkpt lat="47.8309" lon="2.26578">
        <ele>110</ele>
        <time>2017-05-07T09:00:28.362Z</time>
      </trkpt>
      <trkpt lat="47.8309" lon="2.26578">
        <ele>110</ele>
        <time>2017-05-07T09:00:29.361Z</time>
      </trkpt>
      <trkpt lat="47.83088" lon="2.26561">
        <ele>110</ele>
        <time>2017-05-07T09:00:30.366Z</time>
      </trkpt>
      <trkpt lat="47.83088" lon="2.26561">
        <ele>110</ele>
        <time>2017-05-07T09:00:31.356Z</time>
      </trkpt>
      <trkpt lat="47.83085" lon="2.26545">
        <ele>110</ele>
        <time>2017-05-07T09:00:32.363Z</time>
      </trkpt>
      <trkpt lat="47.83085" lon="2.26545">
        <ele>110</ele>
        <time>2017-05-07T09:00:33.373Z</time>
      </trkpt>
      <trkpt lat="47.83082" lon="2.26528">
        <ele>110</ele>
        <time>2017-05-07T09:00:34.364Z</time>
      </trkpt>
      <trkpt lat="47.83082" lon="2.26528">
        <ele>110</ele>
        <time>2017-05-07T09:00:35.393Z</time>
      </trkpt>
      <trkpt lat="47.83079" lon="2.26512">
        <ele>110</ele>
        <time>2017-05-07T09:00:36.364Z</time>
      </trkpt>
      <trkpt lat="47.83079" lon="2.26512">
        <ele>110</ele>
        <time>2017-05-07T09:00:37.356Z</time>
      </trkpt>
      <trkpt lat="47.83076" lon="2.26497">
        <ele>111</ele>
        <time>2017-05-07T09:00:38.363Z</time>
      </trkpt>
      <trkpt lat="47.83076" lon="2.26497">
        <ele>111</ele>
        <time>2017-05-07T09:00:39.356Z</time>
      </trkpt>
      <trkpt lat="47.83074" lon="2.2648">
        <ele>111</ele>
        <time>2017-05-07T09:00:40.363Z</time>
      </trkpt>
      <trkpt lat="47.83074" lon="2.2648">
        <ele>111</ele>
        <time>2017-05-07T09:00:41.356Z</time>
      </trkpt>
      <trkpt lat="47.83072" lon="2.26464">
        <ele>111</ele>
        <time>2017-05-07T09:00:42.384Z</time>
      </trkpt>
      <trkpt lat="47.83072" lon="2.26464">
        <ele>111</ele>
        <time>2017-05-07T09:00:43.375Z</time>
      </trkpt>
      <trkpt lat="47.8307" lon="2.26448">
        <ele>111</ele>
        <time>2017-05-07T09:00:44.364Z</time>
      </trkpt>
      <trkpt lat="47.8307" lon="2.26448">
        <ele>111</ele>
        <time>2017-05-07T09:00:45.356Z</time>
      </trkpt>
      <trkpt lat="47.83069" lon="2.26433">
        <ele>111</ele>
        <time>2017-05-07T09:00:46.363Z</time>
      </trkpt>
      <trkpt lat="47.83069" lon="2.26433">
        <ele>111</ele>
        <time>2017-05-07T09:00:47.356Z</time>
      </trkpt>
      <trkpt lat="47.83068" lon="2.26419">
        <ele>111</ele>
        <time>2017-05-07T09:00:48.365Z</time>
      </trkpt>
      <trkpt lat="47.83068" lon="2.26419">
        <ele>111</ele>
        <time>2017-05-07T09:00:49.356Z</time>
      </trkpt>
      <trkpt lat="47.83067" lon="2.26406">
        <ele>111</ele>
        <time>2017-05-07T09:00:50.363Z</time>
      </trkpt>
      <trkpt lat="47.83067" lon="2.26406">
        <ele>111</ele>
        <time>2017-05-07T09:00:51.357Z</time>
      </trkpt>
      <trkpt lat="47.83066" lon="2.26393">
        <ele>111</ele>
        <time>2017-05-07T09:00:52.363Z</time>
      </trkpt>
      <trkpt lat="47.83066" lon="2.26393">
        <ele>111</ele>
        <time>2017-05-07T09:00:53.356Z</time>
      </trkpt>
      <trkpt lat="47.83066" lon="2.2638">
        <ele>111</ele>
        <time>2017-05-07T09:00:54.365Z</time>
      </trkpt>
      <trkpt lat="47.83066" lon="2.2638">
        <ele>111</ele>
        <time>2017-05-07T09:00:55.356Z</time>
      </trkpt>
      <trkpt lat="47.83065" lon="2.26369">
        <ele>111</ele>
        <time>2017-05-07T09:00:56.364Z</time>
      </trkpt>
      <trkpt lat="47.83065" lon="2.26369">
        <ele>111</ele>
        <time>2017-05-07T09:00:57.356Z</time>
      </trkpt>
      <trkpt lat="47.83064" lon="2.26359">
        <ele>111</ele>
        <time>2017-05-07T09:00:58.361Z</time>
      </trkpt>
      <trkpt lat="47.83064" lon="2.26359">
        <ele>111</ele>
        <time>2017-05-07T09:00:59.392Z</time>
      </trkpt>
      <trkpt lat="47.83063" lon="2.26348">
        <ele>111</ele>
        <time>2017-05-07T09:01:00.361Z</time>
      </trkpt>
      <trkpt lat="47.83063" lon="2.26348">
        <ele>111</ele>
        <time>2017-05-07T09:01:01.367Z</time>
      </trkpt>
      <trkpt lat="47.83063" lon="2.26336">
        <ele>111</ele>
        <time>2017-05-07T09:01:02.373Z</time>
      </trkpt>
      <trkpt lat="47.83063" lon="2.26336">
        <ele>111</ele>
        <time>2017-05-07T09:01:03.365Z</time>
      </trkpt>
      <trkpt lat="47.83061" lon="2.26322">
        <ele>111</ele>
        <time>2017-05-07T09:01:04.363Z</time>
      </trkpt>
      <trkpt lat="47.83061" lon="2.26315">
        <ele>111</ele>
        <time>2017-05-07T09:01:05.379Z</time>
      </trkpt>
      <trkpt lat="47.83061" lon="2.26315">
        <ele>111</ele>
        <time>2017-05-07T09:01:06.369Z</time>
      </trkpt>
      <trkpt lat="47.83059" lon="2.263">
        <ele>111</ele>
        <time>2017-05-07T09:01:07.362Z</time>
      </trkpt>
      <trkpt lat="47.83059" lon="2.26293">
        <ele>111</ele>
        <time>2017-05-07T09:01:08.363Z</time>
      </trkpt>
      <trkpt lat="47.83058" lon="2.26286">
        <ele>111</ele>
        <time>2017-05-07T09:01:09.363Z</time>
      </trkpt>
      <trkpt lat="47.83058" lon="2.26286">
        <ele>111</ele>
        <time>2017-05-07T09:01:10.357Z</time>
      </trkpt>
      <trkpt lat="47.83057" lon="2.26272">
        <ele>111</ele>
        <time>2017-05-07T09:01:11.361Z</time>
      </trkpt>
      <trkpt lat="47.83057" lon="2.26265">
        <ele>111</ele>
        <time>2017-05-07T09:01:12.364Z</time>
      </trkpt>
      <trkpt lat="47.83057" lon="2.26265">
        <ele>111</ele>
        <time>2017-05-07T09:01:13.357Z</time>
      </trkpt>
      <trkpt lat="47.83057" lon="2.26253">
        <ele>111</ele>
        <time>2017-05-07T09:01:14.362Z</time>
      </trkpt>
      <trkpt lat="47.83057" lon="2.26253">
        <ele>111</ele>
        <time>2017-05-07T09:01:15.357Z</time>
      </trkpt>
      <trkpt lat="47.83056" lon="2.26241">
        <ele>111</ele>
        <time>2017-05-07T09:01:16.357Z</time>
      </trkpt>
      <trkpt lat="47.83056" lon="2.26241">
        <ele>111</ele>
        <time>2017-05-07T09:01:17.355Z</time>
      </trkpt>
      <trkpt lat="47.83056" lon="2.26229">
        <ele>111</ele>
        <time>2017-05-07T09:01:18.360Z</time>
      </trkpt>
      <trkpt lat="47.83056" lon="2.26229">
        <ele>111</ele>
        <time>2017-05-07T09:01:19.357Z</time>
      </trkpt>
      <trkpt lat="47.83055" lon="2.26216">
        <ele>112</ele>
        <time>2017-05-07T09:01:20.364Z</time>
      </trkpt>
      <trkpt lat="47.83055" lon="2.26216">
        <ele>112</ele>
        <time>2017-05-07T09:01:21.359Z</time>
      </trkpt>
      <trkpt lat="47.83054" lon="2.26205">
        <ele>112</ele>
        <time>2017-05-07T09:01:22.364Z</time>
      </trkpt>
      <trkpt lat="47.83054" lon="2.26205">
        <ele>112</ele>
        <time>2017-05-07T09:01:23.356Z</time>
      </trkpt>
      <trkpt lat="47.83053" lon="2.26194">
        <ele>112</ele>
        <time>2017-05-07T09:01:24.366Z</time>
      </trkpt>
      <trkpt lat="47.83053" lon="2.26194">
        <ele>112</ele>
        <time>2017-05-07T09:01:25.356Z</time>
      </trkpt>
      <trkpt lat="47.83051" lon="2.26187">
        <ele>113</ele>
        <time>2017-05-07T09:01:26.369Z</time>
      </trkpt>
      <trkpt lat="47.83051" lon="2.26187">
        <ele>113</ele>
        <time>2017-05-07T09:01:27.376Z</time>
      </trkpt>
      <trkpt lat="47.83049" lon="2.26181">
        <ele>113</ele>
        <time>2017-05-07T09:01:28.367Z</time>
      </trkpt>
      <trkpt lat="47.83049" lon="2.26181">
        <ele>113</ele>
        <time>2017-05-07T09:01:29.357Z</time>
      </trkpt>
      <trkpt lat="47.83046" lon="2.26177">
        <ele>112</ele>
        <time>2017-05-07T09:01:30.364Z</time>
      </trkpt>
      <trkpt lat="47.83046" lon="2.26177">
        <ele>112</ele>
        <time>2017-05-07T09:01:31.357Z</time>
      </trkpt>
      <trkpt lat="47.83042" lon="2.26169">
        <ele>111</ele>
        <time>2017-05-07T09:01:32.364Z</time>
      </trkpt>
      <trkpt lat="47.83042" lon="2.26169">
        <ele>111</ele>
        <time>2017-05-07T09:01:33.362Z</time>
      </trkpt>
      <trkpt lat="47.83037" lon="2.26157">
        <ele>110</ele>
        <time>2017-05-07T09:01:34.363Z</time>
      </trkpt>
      <trkpt lat="47.83037" lon="2.26157">
        <ele>110</ele>
        <time>2017-05-07T09:01:35.357Z</time>
      </trkpt>
      <trkpt lat="47.83032" lon="2.26145">
        <ele>110</ele>
        <time>2017-05-07T09:01:36.364Z</time>
      </trkpt>
      <trkpt lat="47.83032" lon="2.26145">
        <ele>110</ele>
        <time>2017-05-07T09:01:37.356Z</time>
      </trkpt>
      <trkpt lat="47.83026" lon="2.26135">
        <ele>110</ele>
        <time>2017-05-07T09:01:38.363Z</time>
      </trkpt>
      <trkpt lat="47.83026" lon="2.26135">
        <ele>110</ele>
        <time>2017-05-07T09:01:39.357Z</time>
      </trkpt>
      <trkpt lat="47.83018" lon="2.26126">
        <ele>109</ele>
        <time>2017-05-07T09:01:40.363Z</time>
      </trkpt>
      <trkpt lat="47.83018" lon="2.26126">
        <ele>109</ele>
        <time>2017-05-07T09:01:41.357Z</time>
      </trkpt>
      <trkpt lat="47.83011" lon="2.26118">
        <ele>109</ele>
        <time>2017-05-07T09:01:42.362Z</time>
      </trkpt>
      <trkpt lat="47.83011" lon="2.26118">
        <ele>109</ele>
        <time>2017-05-07T09:01:43.394Z</time>
      </trkpt>
      <trkpt lat="47.83005" lon="2.26109">
        <ele>109</ele>
        <time>2017-05-07T09:01:44.362Z</time>
      </trkpt>
      <trkpt lat="47.83005" lon="2.26109">
        <ele>109</ele>
        <time>2017-05-07T09:01:45.357Z</time>
      </trkpt>
      <trkpt lat="47.82999" lon="2.26102">
        <ele>109</ele>
        <time>2017-05-07T09:01:46.363Z</time>
      </trkpt>
      <trkpt lat="47.82999" lon="2.26102">
        <ele>109</ele>
        <time>2017-05-07T09:01:47.356Z</time>
      </trkpt>
      <trkpt lat="47.82994" lon="2.26095">
        <ele>108</ele>
        <time>2017-05-07T09:01:48.365Z</time>
      </trkpt>
      <trkpt lat="47.82994" lon="2.26095">
        <ele>108</ele>
        <time>2017-05-07T09:01:49.357Z</time>
      </trkpt>
      <trkpt lat="47.8299" lon="2.26087">
        <ele>108</ele>
        <time>2017-05-07T09:01:50.363Z</time>
      </trkpt>
      <trkpt lat="47.8299" lon="2.26087">
        <ele>108</ele>
        <time>2017-05-07T09:01:51.356Z</time>
      </trkpt>
      <trkpt lat="47.82985" lon="2.2608">
        <ele>108</ele>
        <time>2017-05-07T09:01:52.363Z</time>
      </trkpt>
      <trkpt lat="47.82985" lon="2.2608">
        <ele>108</ele>
        <time>2017-05-07T09:01:53.392Z</time>
      </trkpt>
      <trkpt lat="47.82981" lon="2.26073">
        <ele>108</ele>
        <time>2017-05-07T09:01:54.367Z</time>
      </trkpt>
      <trkpt lat="47.82981" lon="2.26073">
        <ele>108</ele>
        <time>2017-05-07T09:01:55.357Z</time>
      </trkpt>
      <trkpt lat="47.82978" lon="2.26067">
        <ele>108</ele>
        <time>2017-05-07T09:01:56.364Z</time>
      </trkpt>
      <trkpt lat="47.82978" lon="2.26067">
        <ele>108</ele>
        <time>2017-05-07T09:01:57.358Z</time>
      </trkpt>
      <trkpt lat="47.82975" lon="2.26063">
        <ele>108</ele>
        <time>2017-05-07T09:01:58.363Z</time>
      </trkpt>
      <trkpt lat="47.82975" lon="2.26063">
        <ele>108</ele>
        <time>2017-05-07T09:01:59.359Z</time>
      </trkpt>
      <trkpt lat="47.82972" lon="2.26061">
        <ele>108</ele>
        <time>2017-05-07T09:02:00.391Z</time>
      </trkpt>
      <trkpt lat="47.82972" lon="2.26061">
        <ele>108</ele>
        <time>2017-05-07T09:02:01.357Z</time>
      </trkpt>
      <trkpt lat="47.82969" lon="2.26058">
        <ele>108</ele>
        <time>2017-05-07T09:02:02.365Z</time>
      </trkpt>
      <trkpt lat="47.82969" lon="2.26058">
        <ele>108</ele>
        <time>2017-05-07T09:02:03.360Z</time>
      </trkpt>
      <trkpt lat="47.82966" lon="2.26056">
        <ele>108</ele>
        <time>2017-05-07T09:02:04.363Z</time>
      </trkpt>
      <trkpt lat="47.82966" lon="2.26056">
        <ele>108</ele>
        <time>2017-05-07T09:02:05.357Z</time>
      </trkpt>
      <trkpt lat="47.82963" lon="2.26054">
        <ele>108</ele>
        <time>2017-05-07T09:02:06.374Z</time>
      </trkpt>
      <trkpt lat="47.82963" lon="2.26054">
        <ele>108</ele>
        <time>2017-05-07T09:02:07.371Z</time>
      </trkpt>
      <trkpt lat="47.82959" lon="2.26052">
        <ele>108</ele>
        <time>2017-05-07T09:02:08.363Z</time>
      </trkpt>
      <trkpt lat="47.82959" lon="2.26052">
        <ele>108</ele>
        <time>2017-05-07T09:02:09.356Z</time>
      </trkpt>
      <trkpt lat="47.82954" lon="2.26052">
        <ele>108</ele>
        <time>2017-05-07T09:02:10.362Z</time>
      </trkpt>
      <trkpt lat="47.82954" lon="2.26052">
        <ele>108</ele>
        <time>2017-05-07T09:02:11.393Z</time>
      </trkpt>
      <trkpt lat="47.82948" lon="2.26052">
        <ele>108</ele>
        <time>2017-05-07T09:02:12.364Z</time>
      </trkpt>
      <trkpt lat="47.82948" lon="2.26052">
        <ele>108</ele>
        <time>2017-05-07T09:02:13.356Z</time>
      </trkpt>
      <trkpt lat="47.82942" lon="2.26051">
        <ele>108</ele>
        <time>2017-05-07T09:02:14.361Z</time>
      </trkpt>
      <trkpt lat="47.82939" lon="2.2605">
        <ele>108</ele>
        <time>2017-05-07T09:02:15.361Z</time>
      </trkpt>
      <trkpt lat="47.82939" lon="2.2605">
        <ele>108</ele>
        <time>2017-05-07T09:02:16.355Z</time>
      </trkpt>
      <trkpt lat="47.82931" lon="2.26046">
        <ele>107</ele>
        <time>2017-05-07T09:02:17.376Z</time>
      </trkpt>
      <trkpt lat="47.82928" lon="2.26044">
        <ele>108</ele>
        <time>2017-05-07T09:02:18.369Z</time>
      </trkpt>
      <trkpt lat="47.82924" lon="2.26041">
        <ele>107</ele>
        <time>2017-05-07T09:02:19.364Z</time>
      </trkpt>
      <trkpt lat="47.82924" lon="2.26041">
        <ele>107</ele>
        <time>2017-05-07T09:02:20.357Z</time>
      </trkpt>
      <trkpt lat="47.82919" lon="2.26033">
        <ele>108</ele>
        <time>2017-05-07T09:02:21.364Z</time>
      </trkpt>
      <trkpt lat="47.82916" lon="2.26029">
        <ele>108</ele>
        <time>2017-05-07T09:02:22.363Z</time>
      </trkpt>
      <trkpt lat="47.82916" lon="2.26029">
        <ele>108</ele>
        <time>2017-05-07T09:02:23.361Z</time>
      </trkpt>
      <trkpt lat="47.82913" lon="2.2602">
        <ele>108</ele>
        <time>2017-05-07T09:02:24.375Z</time>
      </trkpt>
      <trkpt lat="47.82912" lon="2.26016">
        <ele>108</ele>
        <time>2017-05-07T09:02:25.370Z</time>
      </trkpt>
      <trkpt lat="47.82912" lon="2.26016">
        <ele>108</ele>
        <time>2017-05-07T09:02:26.361Z</time>
      </trkpt>
      <trkpt lat="47.82909" lon="2.26009">
        <ele>108</ele>
        <time>2017-05-07T09:02:27.384Z</time>
      </trkpt>
      <trkpt lat="47.82908" lon="2.26005">
        <ele>108</ele>
        <time>2017-05-07T09:02:28.374Z</time>
      </trkpt>
      <trkpt lat="47.82908" lon="2.26005">
        <ele>108</ele>
        <time>2017-05-07T09:02:29.362Z</time>
      </trkpt>
      <trkpt lat="47.82905" lon="2.25997">
        <ele>108</ele>
        <time>2017-05-07T09:02:30.365Z</time>
      </trkpt>
      <trkpt lat="47.82905" lon="2.25997">
        <ele>108</ele>
        <time>2017-05-07T09:02:31.358Z</time>
      </trkpt>
      <trkpt lat="47.82903" lon="2.25988">
        <ele>109</ele>
        <time>2017-05-07T09:02:32.363Z</time>
      </trkpt>
      <trkpt lat="47.82902" lon="2.25984">
        <ele>110</ele>
        <time>2017-05-07T09:02:33.362Z</time>
      </trkpt>
      <trkpt lat="47.82901" lon="2.2598">
        <ele>110</ele>
        <time>2017-05-07T09:02:34.364Z</time>
      </trkpt>
      <trkpt lat="47.829" lon="2.25976">
        <ele>110</ele>
        <time>2017-05-07T09:02:35.365Z</time>
      </trkpt>
      <trkpt lat="47.829" lon="2.25976">
        <ele>110</ele>
        <time>2017-05-07T09:02:36.362Z</time>
      </trkpt>
      <trkpt lat="47.82897" lon="2.25967">
        <ele>111</ele>
        <time>2017-05-07T09:02:37.376Z</time>
      </trkpt>
      <trkpt lat="47.82897" lon="2.25967">
        <ele>111</ele>
        <time>2017-05-07T09:02:38.368Z</time>
      </trkpt>
      <trkpt lat="47.82894" lon="2.25958">
        <ele>111</ele>
        <time>2017-05-07T09:02:39.363Z</time>
      </trkpt>
      <trkpt lat="47.82893" lon="2.25954">
        <ele>111</ele>
        <time>2017-05-07T09:02:40.363Z</time>
      </trkpt>
      <trkpt lat="47.82893" lon="2.25954">
        <ele>111</ele>
        <time>2017-05-07T09:02:41.362Z</time>
      </trkpt>
      <trkpt lat="47.8289" lon="2.25945">
        <ele>112</ele>
        <time>2017-05-07T09:02:42.376Z</time>
      </trkpt>
      <trkpt lat="47.82888" lon="2.2594">
        <ele>111</ele>
        <time>2017-05-07T09:02:43.367Z</time>
      </trkpt>
      <trkpt lat="47.82888" lon="2.2594">
        <ele>111</ele>
        <time>2017-05-07T09:02:44.357Z</time>
      </trkpt>
      <trkpt lat="47.82886" lon="2.25931">
        <ele>111</ele>
        <time>2017-05-07T09:02:45.365Z</time>
      </trkpt>
      <trkpt lat="47.82886" lon="2.25931">
        <ele>111</ele>
        <time>2017-05-07T09:02:46.361Z</time>
      </trkpt>
      <trkpt lat="47.82883" lon="2.25921">
        <ele>111</ele>
        <time>2017-05-07T09:02:47.364Z</time>
      </trkpt>
      <trkpt lat="47.82883" lon="2.25921">
        <ele>111</ele>
        <time>2017-05-07T09:02:48.361Z</time>
      </trkpt>
      <trkpt lat="47.8288" lon="2.25911">
        <ele>111</ele>
        <time>2017-05-07T09:02:49.363Z</time>
      </trkpt>
      <trkpt lat="47.8288" lon="2.25911">
        <ele>111</ele>
        <time>2017-05-07T09:02:50.358Z</time>
      </trkpt>
      <trkpt lat="47.82876" lon="2.25901">
        <ele>111</ele>
        <time>2017-05-07T09:02:51.365Z</time>
      </trkpt>
      <trkpt lat="47.82876" lon="2.25901">
        <ele>111</ele>
        <time>2017-05-07T09:02:52.366Z</time>
      </trkpt>
      <trkpt lat="47.82873" lon="2.25891">
        <ele>111</ele>
        <time>2017-05-07T09:02:53.364Z</time>
      </trkpt>
      <trkpt lat="47.82871" lon="2.25886">
        <ele>111</ele>
        <time>2017-05-07T09:02:54.364Z</time>
      </trkpt>
      <trkpt lat="47.82869" lon="2.25882">
        <ele>111</ele>
        <time>2017-05-07T09:02:55.364Z</time>
      </trkpt>
      <trkpt lat="47.82869" lon="2.25882">
        <ele>111</ele>
        <time>2017-05-07T09:02:56.359Z</time>
      </trkpt>
      <trkpt lat="47.82866" lon="2.25873">
        <ele>112</ele>
        <time>2017-05-07T09:02:57.384Z</time>
      </trkpt>
      <trkpt lat="47.82866" lon="2.25873">
        <ele>112</ele>
        <time>2017-05-07T09:02:58.375Z</time>
      </trkpt>
      <trkpt lat="47.82863" lon="2.25863">
        <ele>113</ele>
        <time>2017-05-07T09:02:59.364Z</time>
      </trkpt>
      <trkpt lat="47.82862" lon="2.25858">
        <ele>113</ele>
        <time>2017-05-07T09:03:00.366Z</time>
      </trkpt>
      <trkpt lat="47.82862" lon="2.25858">
        <ele>113</ele>
        <time>2017-05-07T09:03:01.359Z</time>
      </trkpt>
      <trkpt lat="47.82861" lon="2.2585">
        <ele>114</ele>
        <time>2017-05-07T09:03:02.364Z</time>
      </trkpt>
      <trkpt lat="47.8286" lon="2.25846">
        <ele>114</ele>
        <time>2017-05-07T09:03:03.364Z</time>
      </trkpt>
      <trkpt lat="47.82859" lon="2.25841">
        <ele>114</ele>
        <time>2017-05-07T09:03:04.365Z</time>
      </trkpt>
      <trkpt lat="47.82859" lon="2.25841">
        <ele>114</ele>
        <time>2017-05-07T09:03:05.359Z</time>
      </trkpt>
      <trkpt lat="47.82858" lon="2.25832">
        <ele>115</ele>
        <time>2017-05-07T09:03:06.366Z</time>
      </trkpt>
      <trkpt lat="47.82858" lon="2.25832">
        <ele>115</ele>
        <time>2017-05-07T09:03:07.362Z</time>
      </trkpt>
      <trkpt lat="47.82857" lon="2.25821">
        <ele>116</ele>
        <time>2017-05-07T09:03:08.363Z</time>
      </trkpt>
      <trkpt lat="47.82857" lon="2.25821">
        <ele>116</ele>
        <time>2017-05-07T09:03:09.362Z</time>
      </trkpt>
      <trkpt lat="47.82855" lon="2.2581">
        <ele>117</ele>
        <time>2017-05-07T09:03:10.365Z</time>
      </trkpt>
      <trkpt lat="47.82855" lon="2.2581">
        <ele>117</ele>
        <time>2017-05-07T09:03:11.363Z</time>
      </trkpt>
      <trkpt lat="47.82851" lon="2.25798">
        <ele>116</ele>
        <time>2017-05-07T09:03:12.368Z</time>
      </trkpt>
      <trkpt lat="47.82851" lon="2.25798">
        <ele>116</ele>
        <time>2017-05-07T09:03:13.362Z</time>
      </trkpt>
      <trkpt lat="47.82848" lon="2.25786">
        <ele>116</ele>
        <time>2017-05-07T09:03:14.368Z</time>
      </trkpt>
      <trkpt lat="47.82847" lon="2.25779">
        <ele>116</ele>
        <time>2017-05-07T09:03:15.356Z</time>
      </trkpt>
      <trkpt lat="47.82846" lon="2.25773">
        <ele>117</ele>
        <time>2017-05-07T09:03:16.363Z</time>
      </trkpt>
      <trkpt lat="47.82846" lon="2.25773">
        <ele>117</ele>
        <time>2017-05-07T09:03:17.356Z</time>
      </trkpt>
      <trkpt lat="47.82844" lon="2.2576">
        <ele>117</ele>
        <time>2017-05-07T09:03:18.362Z</time>
      </trkpt>
      <trkpt lat="47.82844" lon="2.2576">
        <ele>117</ele>
        <time>2017-05-07T09:03:19.356Z</time>
      </trkpt>
      <trkpt lat="47.82842" lon="2.25749">
        <ele>117</ele>
        <time>2017-05-07T09:03:20.364Z</time>
      </trkpt>
      <trkpt lat="47.82842" lon="2.25749">
        <ele>117</ele>
        <time>2017-05-07T09:03:21.357Z</time>
      </trkpt>
      <trkpt lat="47.82839" lon="2.25737">
        <ele>118</ele>
        <time>2017-05-07T09:03:22.363Z</time>
      </trkpt>
      <trkpt lat="47.82837" lon="2.25731">
        <ele>117</ele>
        <time>2017-05-07T09:03:23.375Z</time>
      </trkpt>
      <trkpt lat="47.82837" lon="2.25731">
        <ele>117</ele>
        <time>2017-05-07T09:03:24.366Z</time>
      </trkpt>
      <trkpt lat="47.82834" lon="2.25718">
        <ele>117</ele>
        <time>2017-05-07T09:03:25.364Z</time>
      </trkpt>
      <trkpt lat="47.82832" lon="2.25711">
        <ele>117</ele>
        <time>2017-05-07T09:03:26.365Z</time>
      </trkpt>
      <trkpt lat="47.8283" lon="2.25705">
        <ele>116</ele>
        <time>2017-05-07T09:03:27.366Z</time>
      </trkpt>
      <trkpt lat="47.8283" lon="2.25705">
        <ele>116</ele>
        <time>2017-05-07T09:03:28.372Z</time>
      </trkpt>
      <trkpt lat="47.82827" lon="2.25692">
        <ele>116</ele>
        <time>2017-05-07T09:03:29.378Z</time>
      </trkpt>
      <trkpt lat="47.82825" lon="2.25685">
        <ele>116</ele>
        <time>2017-05-07T09:03:30.371Z</time>
      </trkpt>
      <trkpt lat="47.82825" lon="2.25685">
        <ele>116</ele>
        <time>2017-05-07T09:03:31.360Z</time>
      </trkpt>
      <trkpt lat="47.82822" lon="2.25672">
        <ele>116</ele>
        <time>2017-05-07T09:03:32.363Z</time>
      </trkpt>
      <trkpt lat="47.82822" lon="2.25672">
        <ele>116</ele>
        <time>2017-05-07T09:03:33.362Z</time>
      </trkpt>
      <trkpt lat="47.82818" lon="2.25659">
        <ele>116</ele>
        <time>2017-05-07T09:03:34.375Z</time>
      </trkpt>
      <trkpt lat="47.82817" lon="2.25652">
        <ele>115</ele>
        <time>2017-05-07T09:03:35.366Z</time>
      </trkpt>
      <trkpt lat="47.82815" lon="2.25646">
        <ele>115</ele>
        <time>2017-05-07T09:03:36.366Z</time>
      </trkpt>
      <trkpt lat="47.82815" lon="2.25646">
        <ele>115</ele>
        <time>2017-05-07T09:03:37.357Z</time>
      </trkpt>
      <trkpt lat="47.82812" lon="2.25634">
        <ele>115</ele>
        <time>2017-05-07T09:03:38.365Z</time>
      </trkpt>
      <trkpt lat="47.82812" lon="2.25634">
        <ele>115</ele>
        <time>2017-05-07T09:03:39.357Z</time>
      </trkpt>
      <trkpt lat="47.8281" lon="2.2562">
        <ele>114</ele>
        <time>2017-05-07T09:03:40.364Z</time>
      </trkpt>
      <trkpt lat="47.8281" lon="2.2562">
        <ele>114</ele>
        <time>2017-05-07T09:03:41.357Z</time>
      </trkpt>
      <trkpt lat="47.82809" lon="2.25607">
        <ele>114</ele>
        <time>2017-05-07T09:03:42.378Z</time>
      </trkpt>
      <trkpt lat="47.82809" lon="2.25607">
        <ele>114</ele>
        <time>2017-05-07T09:03:43.368Z</time>
      </trkpt>
      <trkpt lat="47.82807" lon="2.25594">
        <ele>113</ele>
        <time>2017-05-07T09:03:44.360Z</time>
      </trkpt>
      <trkpt lat="47.82807" lon="2.25587">
        <ele>113</ele>
        <time>2017-05-07T09:03:45.363Z</time>
      </trkpt>
      <trkpt lat="47.82807" lon="2.25587">
        <ele>113</ele>
        <time>2017-05-07T09:03:46.359Z</time>
      </trkpt>
      <trkpt lat="47.82807" lon="2.25574">
        <ele>112</ele>
        <time>2017-05-07T09:03:47.361Z</time>
      </trkpt>
      <trkpt lat="47.82807" lon="2.25568">
        <ele>112</ele>
        <time>2017-05-07T09:03:48.363Z</time>
      </trkpt>
      <trkpt lat="47.82807" lon="2.25568">
        <ele>112</ele>
        <time>2017-05-07T09:03:49.356Z</time>
      </trkpt>
      <trkpt lat="47.82806" lon="2.25556">
        <ele>113</ele>
        <time>2017-05-07T09:03:50.360Z</time>
      </trkpt>
      <trkpt lat="47.82806" lon="2.25556">
        <ele>113</ele>
        <time>2017-05-07T09:03:51.394Z</time>
      </trkpt>
      <trkpt lat="47.82806" lon="2.25544">
        <ele>113</ele>
        <time>2017-05-07T09:03:52.363Z</time>
      </trkpt>
      <trkpt lat="47.82805" lon="2.25539">
        <ele>113</ele>
        <time>2017-05-07T09:03:53.363Z</time>
      </trkpt>
      <trkpt lat="47.82805" lon="2.25533">
        <ele>114</ele>
        <time>2017-05-07T09:03:54.357Z</time>
      </trkpt>
      <trkpt lat="47.82805" lon="2.25533">
        <ele>114</ele>
        <time>2017-05-07T09:03:55.357Z</time>
      </trkpt>
      <trkpt lat="47.82803" lon="2.25523">
        <ele>115</ele>
        <time>2017-05-07T09:03:56.374Z</time>
      </trkpt>
      <trkpt lat="47.82803" lon="2.25523">
        <ele>115</ele>
        <time>2017-05-07T09:03:57.366Z</time>
      </trkpt>
      <trkpt lat="47.82804" lon="2.25511">
        <ele>116</ele>
        <time>2017-05-07T09:03:58.364Z</time>
      </trkpt>
      <trkpt lat="47.82804" lon="2.25511">
        <ele>116</ele>
        <time>2017-05-07T09:03:59.359Z</time>
      </trkpt>
      <trkpt lat="47.82803" lon="2.25499">
        <ele>117</ele>
        <time>2017-05-07T09:04:00.356Z</time>
      </trkpt>
      <trkpt lat="47.82803" lon="2.25499">
        <ele>117</ele>
        <time>2017-05-07T09:04:01.362Z</time>
      </trkpt>
      <trkpt lat="47.82803" lon="2.25486">
        <ele>118</ele>
        <time>2017-05-07T09:04:02.368Z</time>
      </trkpt>
      <trkpt lat="47.82804" lon="2.25478">
        <ele>118</ele>
        <time>2017-05-07T09:04:03.369Z</time>
      </trkpt>
      <trkpt lat="47.82804" lon="2.25478">
        <ele>118</ele>
        <time>2017-05-07T09:04:04.364Z</time>
      </trkpt>
      <trkpt lat="47.82804" lon="2.25465">
        <ele>118</ele>
        <time>2017-05-07T09:04:05.365Z</time>
      </trkpt>
      <trkpt lat="47.82804" lon="2.25458">
        <ele>118</ele>
        <time>2017-05-07T09:04:06.366Z</time>
      </trkpt>
      <trkpt lat="47.82804" lon="2.25458">
        <ele>118</ele>
        <time>2017-05-07T09:04:07.373Z</time>
      </trkpt>
      <trkpt lat="47.82805" lon="2.25443">
        <ele>118</ele>
        <time>2017-05-07T09:04:08.364Z</time>
      </trkpt>
      <trkpt lat="47.82805" lon="2.25443">
        <ele>118</ele>
        <time>2017-05-07T09:04:09.357Z</time>
      </trkpt>
      <trkpt lat="47.82805" lon="2.2543">
        <ele>118</ele>
        <time>2017-05-07T09:04:10.363Z</time>
      </trkpt>
      <trkpt lat="47.82805" lon="2.2543">
        <ele>118</ele>
        <time>2017-05-07T09:04:11.394Z</time>
      </trkpt>
      <trkpt lat="47.82806" lon="2.25418">
        <ele>118</ele>
        <time>2017-05-07T09:04:12.366Z</time>
      </trkpt>
      <trkpt lat="47.82806" lon="2.25418">
        <ele>118</ele>
        <time>2017-05-07T09:04:13.359Z</time>
      </trkpt>
      <trkpt lat="47.82808" lon="2.25404">
        <ele>118</ele>
        <time>2017-05-07T09:04:14.363Z</time>
      </trkpt>
      <trkpt lat="47.82808" lon="2.25404">
        <ele>118</ele>
        <time>2017-05-07T09:04:15.357Z</time>
      </trkpt>
      <trkpt lat="47.82809" lon="2.2539">
        <ele>118</ele>
        <time>2017-05-07T09:04:16.363Z</time>
      </trkpt>
      <trkpt lat="47.82809" lon="2.2539">
        <ele>118</ele>
        <time>2017-05-07T09:04:17.357Z</time>
      </trkpt>
      <trkpt lat="47.82808" lon="2.2538">
        <ele>119</ele>
        <time>2017-05-07T09:04:18.362Z</time>
      </trkpt>
      <trkpt lat="47.82808" lon="2.2538">
        <ele>119</ele>
        <time>2017-05-07T09:04:19.357Z</time>
      </trkpt>
      <trkpt lat="47.82807" lon="2.25368">
        <ele>119</ele>
        <time>2017-05-07T09:04:20.365Z</time>
      </trkpt>
      <trkpt lat="47.82807" lon="2.25368">
        <ele>119</ele>
        <time>2017-05-07T09:04:21.357Z</time>
      </trkpt>
      <trkpt lat="47.82808" lon="2.25355">
        <ele>120</ele>
        <time>2017-05-07T09:04:22.364Z</time>
      </trkpt>
      <trkpt lat="47.82808" lon="2.25355">
        <ele>120</ele>
        <time>2017-05-07T09:04:23.357Z</time>
      </trkpt>
      <trkpt lat="47.82808" lon="2.25345">
        <ele>120</ele>
        <time>2017-05-07T09:04:24.393Z</time>
      </trkpt>
      <trkpt lat="47.82808" lon="2.25345">
        <ele>120</ele>
        <time>2017-05-07T09:04:25.357Z</time>
      </trkpt>
      <trkpt lat="47.82809" lon="2.25333">
        <ele>121</ele>
        <time>2017-05-07T09:04:26.364Z</time>
      </trkpt>
      <trkpt lat="47.82809" lon="2.25333">
        <ele>121</ele>
        <time>2017-05-07T09:04:27.357Z</time>
      </trkpt>
      <trkpt lat="47.82812" lon="2.25321">
        <ele>121</ele>
        <time>2017-05-07T09:04:28.365Z</time>
      </trkpt>
      <trkpt lat="47.82812" lon="2.25321">
        <ele>121</ele>
        <time>2017-05-07T09:04:29.361Z</time>
      </trkpt>
      <trkpt lat="47.82814" lon="2.25308">
        <ele>122</ele>
        <time>2017-05-07T09:04:30.366Z</time>
      </trkpt>
      <trkpt lat="47.82814" lon="2.25308">
        <ele>122</ele>
        <time>2017-05-07T09:04:31.362Z</time>
      </trkpt>
      <trkpt lat="47.82816" lon="2.25293">
        <ele>122</ele>
        <time>2017-05-07T09:04:32.356Z</time>
      </trkpt>
      <trkpt lat="47.82817" lon="2.25287">
        <ele>122</ele>
        <time>2017-05-07T09:04:33.362Z</time>
      </trkpt>
      <trkpt lat="47.82819" lon="2.25282">
        <ele>122</ele>
        <time>2017-05-07T09:04:34.361Z</time>
      </trkpt>
      <trkpt lat="47.82819" lon="2.25275">
        <ele>123</ele>
        <time>2017-05-07T09:04:35.361Z</time>
      </trkpt>
      <trkpt lat="47.82819" lon="2.25275">
        <ele>123</ele>
        <time>2017-05-07T09:04:36.358Z</time>
      </trkpt>
      <trkpt lat="47.82821" lon="2.2526">
        <ele>123</ele>
        <time>2017-05-07T09:04:37.359Z</time>
      </trkpt>
      <trkpt lat="47.82821" lon="2.2526">
        <ele>123</ele>
        <time>2017-05-07T09:04:38.392Z</time>
      </trkpt>
      <trkpt lat="47.82823" lon="2.25245">
        <ele>123</ele>
        <time>2017-05-07T09:04:39.361Z</time>
      </trkpt>
      <trkpt lat="47.82823" lon="2.25245">
        <ele>123</ele>
        <time>2017-05-07T09:04:40.355Z</time>
      </trkpt>
      <trkpt lat="47.82828" lon="2.25232">
        <ele>123</ele>
        <time>2017-05-07T09:04:41.360Z</time>
      </trkpt>
      <trkpt lat="47.8283" lon="2.25225">
        <ele>123</ele>
        <time>2017-05-07T09:04:42.364Z</time>
      </trkpt>
      <trkpt lat="47.8283" lon="2.25225">
        <ele>123</ele>
        <time>2017-05-07T09:04:43.355Z</time>
      </trkpt>
      <trkpt lat="47.82832" lon="2.2521">
        <ele>123</ele>
        <time>2017-05-07T09:04:44.361Z</time>
      </trkpt>
      <trkpt lat="47.82832" lon="2.2521">
        <ele>123</ele>
        <time>2017-05-07T09:04:45.357Z</time>
      </trkpt>
      <trkpt lat="47.8283" lon="2.2519">
        <ele>123</ele>
        <time>2017-05-07T09:04:46.367Z</time>
      </trkpt>
      <trkpt lat="47.8283" lon="2.2519">
        <ele>123</ele>
        <time>2017-05-07T09:04:47.357Z</time>
      </trkpt>
      <trkpt lat="47.82827" lon="2.25176">
        <ele>123</ele>
        <time>2017-05-07T09:04:48.364Z</time>
      </trkpt>
      <trkpt lat="47.82827" lon="2.25176">
        <ele>123</ele>
        <time>2017-05-07T09:04:49.394Z</time>
      </trkpt>
      <trkpt lat="47.82826" lon="2.2516">
        <ele>123</ele>
        <time>2017-05-07T09:04:50.361Z</time>
      </trkpt>
      <trkpt lat="47.82825" lon="2.25153">
        <ele>124</ele>
        <time>2017-05-07T09:04:51.370Z</time>
      </trkpt>
      <trkpt lat="47.82825" lon="2.25153">
        <ele>124</ele>
        <time>2017-05-07T09:04:52.356Z</time>
      </trkpt>
      <trkpt lat="47.82822" lon="2.25138">
        <ele>123</ele>
        <time>2017-05-07T09:04:53.356Z</time>
      </trkpt>
      <trkpt lat="47.82821" lon="2.2513">
        <ele>123</ele>
        <time>2017-05-07T09:04:54.363Z</time>
      </trkpt>
      <trkpt lat="47.82821" lon="2.2513">
        <ele>123</ele>
        <time>2017-05-07T09:04:55.359Z</time>
      </trkpt>
      <trkpt lat="47.82817" lon="2.25115">
        <ele>122</ele>
        <time>2017-05-07T09:04:56.375Z</time>
      </trkpt>
      <trkpt lat="47.82817" lon="2.25115">
        <ele>122</ele>
        <time>2017-05-07T09:04:57.358Z</time>
      </trkpt>
      <trkpt lat="47.82814" lon="2.25102">
        <ele>120</ele>
        <time>2017-05-07T09:04:58.363Z</time>
      </trkpt>
      <trkpt lat="47.82813" lon="2.25097">
        <ele>120</ele>
        <time>2017-05-07T09:04:59.369Z</time>
      </trkpt>
      <trkpt lat="47.82811" lon="2.25092">
        <ele>119</ele>
        <time>2017-05-07T09:05:00.365Z</time>
      </trkpt>
      <trkpt lat="47.82811" lon="2.25092">
        <ele>119</ele>
        <time>2017-05-07T09:05:01.358Z</time>
      </trkpt>
      <trkpt lat="47.82804" lon="2.25083">
        <ele>116</ele>
        <time>2017-05-07T09:05:02.360Z</time>
      </trkpt>
      <trkpt lat="47.82801" lon="2.25078">
        <ele>116</ele>
        <time>2017-05-07T09:05:03.361Z</time>
      </trkpt>
      <trkpt lat="47.82798" lon="2.25073">
        <ele>116</ele>
        <time>2017-05-07T09:05:04.360Z</time>
      </trkpt>
      <trkpt lat="47.82798" lon="2.25073">
        <ele>116</ele>
        <time>2017-05-07T09:05:05.355Z</time>
      </trkpt>
      <trkpt lat="47.82796" lon="2.25062">
        <ele>114</ele>
        <time>2017-05-07T09:05:06.363Z</time>
      </trkpt>
      <trkpt lat="47.82796" lon="2.25062">
        <ele>114</ele>
        <time>2017-05-07T09:05:07.358Z</time>
      </trkpt>
      <trkpt lat="47.82797" lon="2.25049">
        <ele>114</ele>
        <time>2017-05-07T09:05:08.361Z</time>
      </trkpt>
      <trkpt lat="47.82796" lon="2.25042">
        <ele>114</ele>
        <time>2017-05-07T09:05:09.362Z</time>
      </trkpt>
      <trkpt lat="47.82796" lon="2.25042">
        <ele>114</ele>
        <time>2017-05-07T09:05:10.355Z</time>
      </trkpt>
      <trkpt lat="47.82795" lon="2.25029">
        <ele>113</ele>
        <time>2017-05-07T09:05:11.359Z</time>
      </trkpt>
      <trkpt lat="47.82795" lon="2.25022">
        <ele>113</ele>
        <time>2017-05-07T09:05:12.363Z</time>
      </trkpt>
      <trkpt lat="47.82795" lon="2.25022">
        <ele>113</ele>
        <time>2017-05-07T09:05:13.359Z</time>
      </trkpt>
      <trkpt lat="47.82795" lon="2.2501">
        <ele>113</ele>
        <time>2017-05-07T09:05:14.362Z</time>
      </trkpt>
      <trkpt lat="47.82796" lon="2.25004">
        <ele>113</ele>
        <time>2017-05-07T09:05:15.361Z</time>
      </trkpt>
      <trkpt lat="47.82796" lon="2.25004">
        <ele>113</ele>
        <time>2017-05-07T09:05:16.363Z</time>
      </trkpt>
      <trkpt lat="47.82797" lon="2.24993">
        <ele>112</ele>
        <time>2017-05-07T09:05:17.360Z</time>
      </trkpt>
      <trkpt lat="47.82797" lon="2.24993">
        <ele>112</ele>
        <time>2017-05-07T09:05:18.357Z</time>
      </trkpt>
      <trkpt lat="47.82799" lon="2.24982">
        <ele>112</ele>
        <time>2017-05-07T09:05:19.361Z</time>
      </trkpt>
      <trkpt lat="47.82799" lon="2.24982">
        <ele>112</ele>
        <time>2017-05-07T09:05:20.356Z</time>
      </trkpt>
      <trkpt lat="47.828" lon="2.24971">
        <ele>112</ele>
        <time>2017-05-07T09:05:21.361Z</time>
      </trkpt>
      <trkpt lat="47.828" lon="2.24971">
        <ele>112</ele>
        <time>2017-05-07T09:05:22.356Z</time>
      </trkpt>
      <trkpt lat="47.82801" lon="2.2496">
        <ele>112</ele>
        <time>2017-05-07T09:05:23.357Z</time>
      </trkpt>
      <trkpt lat="47.82802" lon="2.24955">
        <ele>111</ele>
        <time>2017-05-07T09:05:24.365Z</time>
      </trkpt>
      <trkpt lat="47.82802" lon="2.24955">
        <ele>111</ele>
        <time>2017-05-07T09:05:25.358Z</time>
      </trkpt>
      <trkpt lat="47.82802" lon="2.24943">
        <ele>111</ele>
        <time>2017-05-07T09:05:26.362Z</time>
      </trkpt>
      <trkpt lat="47.82803" lon="2.24937">
        <ele>111</ele>
        <time>2017-05-07T09:05:27.363Z</time>
      </trkpt>
      <trkpt lat="47.82803" lon="2.24937">
        <ele>111</ele>
        <time>2017-05-07T09:05:28.356Z</time>
      </trkpt>
      <trkpt lat="47.82804" lon="2.24925">
        <ele>111</ele>
        <time>2017-05-07T09:05:29.361Z</time>
      </trkpt>
      <trkpt lat="47.82805" lon="2.24919">
        <ele>111</ele>
        <time>2017-05-07T09:05:30.363Z</time>
      </trkpt>
      <trkpt lat="47.82805" lon="2.24919">
        <ele>111</ele>
        <time>2017-05-07T09:05:31.356Z</time>
      </trkpt>
      <trkpt lat="47.82807" lon="2.24908">
        <ele>111</ele>
        <time>2017-05-07T09:05:32.366Z</time>
      </trkpt>
      <trkpt lat="47.82808" lon="2.24903">
        <ele>111</ele>
        <time>2017-05-07T09:05:33.361Z</time>
      </trkpt>
      <trkpt lat="47.82809" lon="2.24899">
        <ele>111</ele>
        <time>2017-05-07T09:05:34.361Z</time>
      </trkpt>
      <trkpt lat="47.82809" lon="2.24899">
        <ele>111</ele>
        <time>2017-05-07T09:05:35.356Z</time>
      </trkpt>
      <trkpt lat="47.82811" lon="2.24888">
        <ele>111</ele>
        <time>2017-05-07T09:05:36.374Z</time>
      </trkpt>
      <trkpt lat="47.82811" lon="2.24888">
        <ele>111</ele>
        <time>2017-05-07T09:05:37.365Z</time>
      </trkpt>
      <trkpt lat="47.82814" lon="2.24877">
        <ele>110</ele>
        <time>2017-05-07T09:05:38.360Z</time>
      </trkpt>
      <trkpt lat="47.82814" lon="2.24877">
        <ele>110</ele>
        <time>2017-05-07T09:05:39.357Z</time>
      </trkpt>
      <trkpt lat="47.82816" lon="2.24867">
        <ele>110</ele>
        <time>2017-05-07T09:05:40.361Z</time>
      </trkpt>
      <trkpt lat="47.82816" lon="2.24867">
        <ele>110</ele>
        <time>2017-05-07T09:05:41.355Z</time>
      </trkpt>
      <trkpt lat="47.82818" lon="2.24857">
        <ele>110</ele>
        <time>2017-05-07T09:05:42.359Z</time>
      </trkpt>
      <trkpt lat="47.82818" lon="2.24857">
        <ele>110</ele>
        <time>2017-05-07T09:05:43.355Z</time>
      </trkpt>
      <trkpt lat="47.82821" lon="2.24844">
        <ele>110</ele>
        <time>2017-05-07T09:05:44.360Z</time>
      </trkpt>
      <trkpt lat="47.82821" lon="2.24844">
        <ele>110</ele>
        <time>2017-05-07T09:05:45.364Z</time>
      </trkpt>
      <trkpt lat="47.82824" lon="2.24832">
        <ele>109</ele>
        <time>2017-05-07T09:05:46.362Z</time>
      </trkpt>
      <trkpt lat="47.82824" lon="2.24832">
        <ele>109</ele>
        <time>2017-05-07T09:05:47.355Z</time>
      </trkpt>
      <trkpt lat="47.8283" lon="2.24822">
        <ele>109</ele>
        <time>2017-05-07T09:05:48.363Z</time>
      </trkpt>
      <trkpt lat="47.8283" lon="2.24822">
        <ele>109</ele>
        <time>2017-05-07T09:05:49.364Z</time>
      </trkpt>
      <trkpt lat="47.82834" lon="2.24811">
        <ele>109</ele>
        <time>2017-05-07T09:05:50.370Z</time>
      </trkpt>
      <trkpt lat="47.82834" lon="2.24811">
        <ele>109</ele>
        <time>2017-05-07T09:05:51.355Z</time>
      </trkpt>
      <trkpt lat="47.82836" lon="2.24799">
        <ele>109</ele>
        <time>2017-05-07T09:05:52.363Z</time>
      </trkpt>
      <trkpt lat="47.82836" lon="2.24799">
        <ele>109</ele>
        <time>2017-05-07T09:05:53.355Z</time>
      </trkpt>
      <trkpt lat="47.82836" lon="2.24786">
        <ele>108</ele>
        <time>2017-05-07T09:05:54.365Z</time>
      </trkpt>
      <trkpt lat="47.82836" lon="2.24786">
        <ele>108</ele>
        <time>2017-05-07T09:05:55.372Z</time>
      </trkpt>
      <trkpt lat="47.82837" lon="2.24774">
        <ele>108</ele>
        <time>2017-05-07T09:05:56.362Z</time>
      </trkpt>
      <trkpt lat="47.82837" lon="2.24774">
        <ele>108</ele>
        <time>2017-05-07T09:05:57.355Z</time>
      </trkpt>
      <trkpt lat="47.82839" lon="2.24762">
        <ele>107</ele>
        <time>2017-05-07T09:05:58.361Z</time>
      </trkpt>
      <trkpt lat="47.82839" lon="2.24762">
        <ele>107</ele>
        <time>2017-05-07T09:05:59.368Z</time>
      </trkpt>
      <trkpt lat="47.82842" lon="2.2475">
        <ele>107</ele>
        <time>2017-05-07T09:06:00.365Z</time>
      </trkpt>
      <trkpt lat="47.82842" lon="2.2475">
        <ele>107</ele>
        <time>2017-05-07T09:06:01.359Z</time>
      </trkpt>
      <trkpt lat="47.82844" lon="2.24739">
        <ele>107</ele>
        <time>2017-05-07T09:06:02.361Z</time>
      </trkpt>
      <trkpt lat="47.82844" lon="2.24739">
        <ele>107</ele>
        <time>2017-05-07T09:06:03.356Z</time>
      </trkpt>
      <trkpt lat="47.82846" lon="2.24729">
        <ele>107</ele>
        <time>2017-05-07T09:06:04.361Z</time>
      </trkpt>
      <trkpt lat="47.82846" lon="2.24729">
        <ele>107</ele>
        <time>2017-05-07T09:06:05.357Z</time>
      </trkpt>
      <trkpt lat="47.82849" lon="2.24718">
        <ele>107</ele>
        <time>2017-05-07T09:06:06.363Z</time>
      </trkpt>
      <trkpt lat="47.82849" lon="2.24718">
        <ele>107</ele>
        <time>2017-05-07T09:06:07.356Z</time>
      </trkpt>
      <trkpt lat="47.82854" lon="2.24711">
        <ele>107</ele>
        <time>2017-05-07T09:06:08.362Z</time>
      </trkpt>
      <trkpt lat="47.82854" lon="2.24711">
        <ele>107</ele>
        <time>2017-05-07T09:06:09.355Z</time>
      </trkpt>
      <trkpt lat="47.82859" lon="2.24704">
        <ele>107</ele>
        <time>2017-05-07T09:06:10.361Z</time>
      </trkpt>
      <trkpt lat="47.82859" lon="2.24704">
        <ele>107</ele>
        <time>2017-05-07T09:06:11.355Z</time>
      </trkpt>
      <trkpt lat="47.82863" lon="2.24695">
        <ele>107</ele>
        <time>2017-05-07T09:06:12.361Z</time>
      </trkpt>
      <trkpt lat="47.82863" lon="2.24695">
        <ele>107</ele>
        <time>2017-05-07T09:06:13.355Z</time>
      </trkpt>
      <trkpt lat="47.82866" lon="2.24684">
        <ele>107</ele>
        <time>2017-05-07T09:06:14.361Z</time>
      </trkpt>
      <trkpt lat="47.82866" lon="2.24684">
        <ele>107</ele>
        <time>2017-05-07T09:06:15.356Z</time>
      </trkpt>
      <trkpt lat="47.82869" lon="2.24674">
        <ele>107</ele>
        <time>2017-05-07T09:06:16.362Z</time>
      </trkpt>
      <trkpt lat="47.82869" lon="2.24674">
        <ele>107</ele>
        <time>2017-05-07T09:06:17.356Z</time>
      </trkpt>
      <trkpt lat="47.82873" lon="2.24663">
        <ele>107</ele>
        <time>2017-05-07T09:06:18.383Z</time>
      </trkpt>
      <trkpt lat="47.82873" lon="2.24663">
        <ele>107</ele>
        <time>2017-05-07T09:06:19.373Z</time>
      </trkpt>
      <trkpt lat="47.82877" lon="2.24652">
        <ele>107</ele>
        <time>2017-05-07T09:06:20.377Z</time>
      </trkpt>
      <trkpt lat="47.82877" lon="2.24652">
        <ele>107</ele>
        <time>2017-05-07T09:06:21.358Z</time>
      </trkpt>
      <trkpt lat="47.82883" lon="2.24641">
        <ele>108</ele>
        <time>2017-05-07T09:06:22.360Z</time>
      </trkpt>
      <trkpt lat="47.82883" lon="2.24641">
        <ele>108</ele>
        <time>2017-05-07T09:06:23.356Z</time>
      </trkpt>
      <trkpt lat="47.8289" lon="2.24632">
        <ele>108</ele>
        <time>2017-05-07T09:06:24.364Z</time>
      </trkpt>
      <trkpt lat="47.8289" lon="2.24632">
        <ele>108</ele>
        <time>2017-05-07T09:06:25.360Z</time>
      </trkpt>
      <trkpt lat="47.82896" lon="2.24621">
        <ele>108</ele>
        <time>2017-05-07T09:06:26.364Z</time>
      </trkpt>
      <trkpt lat="47.82896" lon="2.24621">
        <ele>108</ele>
        <time>2017-05-07T09:06:27.355Z</time>
      </trkpt>
      <trkpt lat="47.829" lon="2.24609">
        <ele>108</ele>
        <time>2017-05-07T09:06:28.361Z</time>
      </trkpt>
      <trkpt lat="47.829" lon="2.24609">
        <ele>108</ele>
        <time>2017-05-07T09:06:29.356Z</time>
      </trkpt>
      <trkpt lat="47.82905" lon="2.24597">
        <ele>108</ele>
        <time>2017-05-07T09:06:30.365Z</time>
      </trkpt>
      <trkpt lat="47.82905" lon="2.24597">
        <ele>108</ele>
        <time>2017-05-07T09:06:31.355Z</time>
      </trkpt>
      <trkpt lat="47.82909" lon="2.24585">
        <ele>108</ele>
        <time>2017-05-07T09:06:32.361Z</time>
      </trkpt>
      <trkpt lat="47.82912" lon="2.2458">
        <ele>108</ele>
        <time>2017-05-07T09:06:33.364Z</time>
      </trkpt>
      <trkpt lat="47.82915" lon="2.24575">
        <ele>108</ele>
        <time>2017-05-07T09:06:34.362Z</time>
      </trkpt>
      <trkpt lat="47.82915" lon="2.24575">
        <ele>108</ele>
        <time>2017-05-07T09:06:35.357Z</time>
      </trkpt>
      <trkpt lat="47.82919" lon="2.24567">
        <ele>108</ele>
        <time>2017-05-07T09:06:36.363Z</time>
      </trkpt>
      <trkpt lat="47.82919" lon="2.24567">
        <ele>108</ele>
        <time>2017-05-07T09:06:37.356Z</time>
      </trkpt>
      <trkpt lat="47.82923" lon="2.2456">
        <ele>109</ele>
        <time>2017-05-07T09:06:38.364Z</time>
      </trkpt>
      <trkpt lat="47.82923" lon="2.2456">
        <ele>109</ele>
        <time>2017-05-07T09:06:39.357Z</time>
      </trkpt>
      <trkpt lat="47.82925" lon="2.24554">
        <ele>109</ele>
        <time>2017-05-07T09:06:40.364Z</time>
      </trkpt>
      <trkpt lat="47.82925" lon="2.24554">
        <ele>109</ele>
        <time>2017-05-07T09:06:41.357Z</time>
      </trkpt>
      <trkpt lat="47.82927" lon="2.2455">
        <ele>109</ele>
        <time>2017-05-07T09:06:42.367Z</time>
      </trkpt>
      <trkpt lat="47.82927" lon="2.2455">
        <ele>109</ele>
        <time>2017-05-07T09:06:43.357Z</time>
      </trkpt>
      <trkpt lat="47.8293" lon="2.24546">
        <ele>110</ele>
        <time>2017-05-07T09:06:44.366Z</time>
      </trkpt>
      <trkpt lat="47.8293" lon="2.24546">
        <ele>110</ele>
        <time>2017-05-07T09:06:45.362Z</time>
      </trkpt>
      <trkpt lat="47.82932" lon="2.24543">
        <ele>110</ele>
        <time>2017-05-07T09:06:46.365Z</time>
      </trkpt>
      <trkpt lat="47.82932" lon="2.24543">
        <ele>110</ele>
        <time>2017-05-07T09:06:47.357Z</time>
      </trkpt>
      <trkpt lat="47.82935" lon="2.24539">
        <ele>110</ele>
        <time>2017-05-07T09:06:48.376Z</time>
      </trkpt>
      <trkpt lat="47.82935" lon="2.24539">
        <ele>110</ele>
        <time>2017-05-07T09:06:49.360Z</time>
      </trkpt>
      <trkpt lat="47.8294" lon="2.24533">
        <ele>111</ele>
        <time>2017-05-07T09:06:50.364Z</time>
      </trkpt>
      <trkpt lat="47.8294" lon="2.24533">
        <ele>111</ele>
        <time>2017-05-07T09:06:51.357Z</time>
      </trkpt>
      <trkpt lat="47.82944" lon="2.24528">
        <ele>111</ele>
        <time>2017-05-07T09:06:52.365Z</time>
      </trkpt>
      <trkpt lat="47.82944" lon="2.24528">
        <ele>111</ele>
        <time>2017-05-07T09:06:53.364Z</time>
      </trkpt>
      <trkpt lat="47.82946" lon="2.24522">
        <ele>112</ele>
        <time>2017-05-07T09:06:54.366Z</time>
      </trkpt>
      <trkpt lat="47.82946" lon="2.24522">
        <ele>112</ele>
        <time>2017-05-07T09:06:55.359Z</time>
      </trkpt>
      <trkpt lat="47.82948" lon="2.24517">
        <ele>112</ele>
        <time>2017-05-07T09:06:56.364Z</time>
      </trkpt>
      <trkpt lat="47.82948" lon="2.24517">
        <ele>112</ele>
        <time>2017-05-07T09:06:57.357Z</time>
      </trkpt>
      <trkpt lat="47.8295" lon="2.24512">
        <ele>113</ele>
        <time>2017-05-07T09:06:58.364Z</time>
      </trkpt>
      <trkpt lat="47.8295" lon="2.24512">
        <ele>113</ele>
        <time>2017-05-07T09:06:59.368Z</time>
      </trkpt>
      <trkpt lat="47.82952" lon="2.24507">
        <ele>113</ele>
        <time>2017-05-07T09:07:00.365Z</time>
      </trkpt>
      <trkpt lat="47.82952" lon="2.24507">
        <ele>113</ele>
        <time>2017-05-07T09:07:01.358Z</time>
      </trkpt>
      <trkpt lat="47.82953" lon="2.24503">
        <ele>113</ele>
        <time>2017-05-07T09:07:02.362Z</time>
      </trkpt>
      <trkpt lat="47.82953" lon="2.24503">
        <ele>113</ele>
        <time>2017-05-07T09:07:03.357Z</time>
      </trkpt>
      <trkpt lat="47.82953" lon="2.24502">
        <ele>113</ele>
        <time>2017-05-07T09:07:04.364Z</time>
      </trkpt>
      <trkpt lat="47.82953" lon="2.24502">
        <ele>113</ele>
        <time>2017-05-07T09:07:05.390Z</time>
      </trkpt>
      <trkpt lat="47.82963" lon="2.24489">
        <ele>109</ele>
        <time>2017-05-07T09:07:06.379Z</time>
      </trkpt>
      <trkpt lat="47.82963" lon="2.24489">
        <ele>109</ele>
        <time>2017-05-07T09:07:07.378Z</time>
      </trkpt>
      <trkpt lat="47.82966" lon="2.24484">
        <ele>109</ele>
        <time>2017-05-07T09:07:08.379Z</time>
      </trkpt>
      <trkpt lat="47.82968" lon="2.2448">
        <ele>109</ele>
        <time>2017-05-07T09:07:09.387Z</time>
      </trkpt>
      <trkpt lat="47.82968" lon="2.2448">
        <ele>109</ele>
        <time>2017-05-07T09:07:10.378Z</time>
      </trkpt>
      <trkpt lat="47.82972" lon="2.24472">
        <ele>109</ele>
        <time>2017-05-07T09:07:11.377Z</time>
      </trkpt>
      <trkpt lat="47.82972" lon="2.24472">
        <ele>109</ele>
        <time>2017-05-07T09:07:12.370Z</time>
      </trkpt>
      <trkpt lat="47.82976" lon="2.24464">
        <ele>109</ele>
        <time>2017-05-07T09:07:13.391Z</time>
      </trkpt>
      <trkpt lat="47.82977" lon="2.24459">
        <ele>109</ele>
        <time>2017-05-07T09:07:14.357Z</time>
      </trkpt>
      <trkpt lat="47.82977" lon="2.24459">
        <ele>109</ele>
        <time>2017-05-07T09:07:15.366Z</time>
      </trkpt>
      <trkpt lat="47.82981" lon="2.24449">
        <ele>109</ele>
        <time>2017-05-07T09:07:16.378Z</time>
      </trkpt>
      <trkpt lat="47.82983" lon="2.24445">
        <ele>109</ele>
        <time>2017-05-07T09:07:17.383Z</time>
      </trkpt>
      <trkpt lat="47.82983" lon="2.24445">
        <ele>109</ele>
        <time>2017-05-07T09:07:18.373Z</time>
      </trkpt>
      <trkpt lat="47.82987" lon="2.24437">
        <ele>109</ele>
        <time>2017-05-07T09:07:19.374Z</time>
      </trkpt>
      <trkpt lat="47.82987" lon="2.24437">
        <ele>109</ele>
        <time>2017-05-07T09:07:20.368Z</time>
      </trkpt>
      <trkpt lat="47.8299" lon="2.24427">
        <ele>110</ele>
        <time>2017-05-07T09:07:21.371Z</time>
      </trkpt>
      <trkpt lat="47.82993" lon="2.24422">
        <ele>110</ele>
        <time>2017-05-07T09:07:22.375Z</time>
      </trkpt>
      <trkpt lat="47.82993" lon="2.24422">
        <ele>110</ele>
        <time>2017-05-07T09:07:23.370Z</time>
      </trkpt>
      <trkpt lat="47.82998" lon="2.24412">
        <ele>110</ele>
        <time>2017-05-07T09:07:24.379Z</time>
      </trkpt>
      <trkpt lat="47.82998" lon="2.24412">
        <ele>110</ele>
        <time>2017-05-07T09:07:25.370Z</time>
      </trkpt>
      <trkpt lat="47.83004" lon="2.24405">
        <ele>110</ele>
        <time>2017-05-07T09:07:26.379Z</time>
      </trkpt>
      <trkpt lat="47.83004" lon="2.24405">
        <ele>110</ele>
        <time>2017-05-07T09:07:27.371Z</time>
      </trkpt>
      <trkpt lat="47.83011" lon="2.24399">
        <ele>110</ele>
        <time>2017-05-07T09:07:28.377Z</time>
      </trkpt>
      <trkpt lat="47.83011" lon="2.24399">
        <ele>110</ele>
        <time>2017-05-07T09:07:29.370Z</time>
      </trkpt>
      <trkpt lat="47.83017" lon="2.2439">
        <ele>109</ele>
        <time>2017-05-07T09:07:30.391Z</time>
      </trkpt>
      <trkpt lat="47.83017" lon="2.2439">
        <ele>109</ele>
        <time>2017-05-07T09:07:31.379Z</time>
      </trkpt>
      <trkpt lat="47.83022" lon="2.24381">
        <ele>109</ele>
        <time>2017-05-07T09:07:32.374Z</time>
      </trkpt>
      <trkpt lat="47.83022" lon="2.24381">
        <ele>109</ele>
        <time>2017-05-07T09:07:33.370Z</time>
      </trkpt>
      <trkpt lat="47.83025" lon="2.24372">
        <ele>108</ele>
        <time>2017-05-07T09:07:34.377Z</time>
      </trkpt>
      <trkpt lat="47.83025" lon="2.24372">
        <ele>108</ele>
        <time>2017-05-07T09:07:35.370Z</time>
      </trkpt>
      <trkpt lat="47.83029" lon="2.24364">
        <ele>108</ele>
        <time>2017-05-07T09:07:36.377Z</time>
      </trkpt>
      <trkpt lat="47.83032" lon="2.2436">
        <ele>108</ele>
        <time>2017-05-07T09:07:37.376Z</time>
      </trkpt>
      <trkpt lat="47.83034" lon="2.24356">
        <ele>108</ele>
        <time>2017-05-07T09:07:38.379Z</time>
      </trkpt>
      <trkpt lat="47.83034" lon="2.24356">
        <ele>108</ele>
        <time>2017-05-07T09:07:39.370Z</time>
      </trkpt>
      <trkpt lat="47.8304" lon="2.24345">
        <ele>108</ele>
        <time>2017-05-07T09:07:40.376Z</time>
      </trkpt>
      <trkpt lat="47.83043" lon="2.2434">
        <ele>107</ele>
        <time>2017-05-07T09:07:41.390Z</time>
      </trkpt>
      <trkpt lat="47.83043" lon="2.2434">
        <ele>107</ele>
        <time>2017-05-07T09:07:42.379Z</time>
      </trkpt>
      <trkpt lat="47.83049" lon="2.24331">
        <ele>107</ele>
        <time>2017-05-07T09:07:43.377Z</time>
      </trkpt>
      <trkpt lat="47.83052" lon="2.24329">
        <ele>107</ele>
        <time>2017-05-07T09:07:44.380Z</time>
      </trkpt>
      <trkpt lat="47.83052" lon="2.24329">
        <ele>107</ele>
        <time>2017-05-07T09:07:45.370Z</time>
      </trkpt>
      <trkpt lat="47.8306" lon="2.24326">
        <ele>107</ele>
        <time>2017-05-07T09:07:46.377Z</time>
      </trkpt>
      <trkpt lat="47.83064" lon="2.24326">
        <ele>107</ele>
        <time>2017-05-07T09:07:47.377Z</time>
      </trkpt>
      <trkpt lat="47.83064" lon="2.24326">
        <ele>107</ele>
        <time>2017-05-07T09:07:48.370Z</time>
      </trkpt>
      <trkpt lat="47.8307" lon="2.24325">
        <ele>107</ele>
        <time>2017-05-07T09:07:49.377Z</time>
      </trkpt>
      <trkpt lat="47.83073" lon="2.24324">
        <ele>108</ele>
        <time>2017-05-07T09:07:50.380Z</time>
      </trkpt>
      <trkpt lat="47.83073" lon="2.24324">
        <ele>108</ele>
        <time>2017-05-07T09:07:51.370Z</time>
      </trkpt>
      <trkpt lat="47.83081" lon="2.24323">
        <ele>107</ele>
        <time>2017-05-07T09:07:52.378Z</time>
      </trkpt>
      <trkpt lat="47.83081" lon="2.24323">
        <ele>107</ele>
        <time>2017-05-07T09:07:53.370Z</time>
      </trkpt>
      <trkpt lat="47.83087" lon="2.24326">
        <ele>107</ele>
        <time>2017-05-07T09:07:54.376Z</time>
      </trkpt>
      <trkpt lat="47.83087" lon="2.24326">
        <ele>107</ele>
        <time>2017-05-07T09:07:55.370Z</time>
      </trkpt>
      <trkpt lat="47.83093" lon="2.24326">
        <ele>107</ele>
        <time>2017-05-07T09:07:56.380Z</time>
      </trkpt>
      <trkpt lat="47.83093" lon="2.24326">
        <ele>107</ele>
        <time>2017-05-07T09:07:57.370Z</time>
      </trkpt>
      <trkpt lat="47.83101" lon="2.24321">
        <ele>108</ele>
        <time>2017-05-07T09:07:58.386Z</time>
      </trkpt>
      <trkpt lat="47.83101" lon="2.24321">
        <ele>108</ele>
        <time>2017-05-07T09:07:59.373Z</time>
      </trkpt>
      <trkpt lat="47.83108" lon="2.24312">
        <ele>108</ele>
        <time>2017-05-07T09:08:00.391Z</time>
      </trkpt>
      <trkpt lat="47.83108" lon="2.24312">
        <ele>108</ele>
        <time>2017-05-07T09:08:01.365Z</time>
      </trkpt>
      <trkpt lat="47.83115" lon="2.24304">
        <ele>107</ele>
        <time>2017-05-07T09:08:02.390Z</time>
      </trkpt>
      <trkpt lat="47.83115" lon="2.24304">
        <ele>107</ele>
        <time>2017-05-07T09:08:03.378Z</time>
      </trkpt>
      <trkpt lat="47.83122" lon="2.24295">
        <ele>107</ele>
        <time>2017-05-07T09:08:04.377Z</time>
      </trkpt>
      <trkpt lat="47.83124" lon="2.2429">
        <ele>107</ele>
        <time>2017-05-07T09:08:05.377Z</time>
      </trkpt>
      <trkpt lat="47.83124" lon="2.2429">
        <ele>107</ele>
        <time>2017-05-07T09:08:06.370Z</time>
      </trkpt>
      <trkpt lat="47.83128" lon="2.2428">
        <ele>107</ele>
        <time>2017-05-07T09:08:07.378Z</time>
      </trkpt>
      <trkpt lat="47.83131" lon="2.24276">
        <ele>108</ele>
        <time>2017-05-07T09:08:08.379Z</time>
      </trkpt>
      <trkpt lat="47.83131" lon="2.24276">
        <ele>108</ele>
        <time>2017-05-07T09:08:09.370Z</time>
      </trkpt>
      <trkpt lat="47.8314" lon="2.24268">
        <ele>108</ele>
        <time>2017-05-07T09:08:10.377Z</time>
      </trkpt>
      <trkpt lat="47.8314" lon="2.24268">
        <ele>108</ele>
        <time>2017-05-07T09:08:11.367Z</time>
      </trkpt>
      <trkpt lat="47.83149" lon="2.24264">
        <ele>109</ele>
        <time>2017-05-07T09:08:12.377Z</time>
      </trkpt>
      <trkpt lat="47.83149" lon="2.24264">
        <ele>109</ele>
        <time>2017-05-07T09:08:13.367Z</time>
      </trkpt>
      <trkpt lat="47.83158" lon="2.24263">
        <ele>108</ele>
        <time>2017-05-07T09:08:14.378Z</time>
      </trkpt>
      <trkpt lat="47.83158" lon="2.24263">
        <ele>108</ele>
        <time>2017-05-07T09:08:15.370Z</time>
      </trkpt>
      <trkpt lat="47.83166" lon="2.24262">
        <ele>109</ele>
        <time>2017-05-07T09:08:16.378Z</time>
      </trkpt>
      <trkpt lat="47.83166" lon="2.24262">
        <ele>109</ele>
        <time>2017-05-07T09:08:17.370Z</time>
      </trkpt>
      <trkpt lat="47.83174" lon="2.24261">
        <ele>109</ele>
        <time>2017-05-07T09:08:18.378Z</time>
      </trkpt>
      <trkpt lat="47.83174" lon="2.24261">
        <ele>109</ele>
        <time>2017-05-07T09:08:19.370Z</time>
      </trkpt>
      <trkpt lat="47.83182" lon="2.24258">
        <ele>109</ele>
        <time>2017-05-07T09:08:20.387Z</time>
      </trkpt>
      <trkpt lat="47.83182" lon="2.24258">
        <ele>109</ele>
        <time>2017-05-07T09:08:21.374Z</time>
      </trkpt>
      <trkpt lat="47.83191" lon="2.24254">
        <ele>109</ele>
        <time>2017-05-07T09:08:22.377Z</time>
      </trkpt>
      <trkpt lat="47.83191" lon="2.24254">
        <ele>109</ele>
        <time>2017-05-07T09:08:23.379Z</time>
      </trkpt>
      <trkpt lat="47.83199" lon="2.24251">
        <ele>108</ele>
        <time>2017-05-07T09:08:24.377Z</time>
      </trkpt>
      <trkpt lat="47.83199" lon="2.24251">
        <ele>108</ele>
        <time>2017-05-07T09:08:25.370Z</time>
      </trkpt>
      <trkpt lat="47.83207" lon="2.24247">
        <ele>108</ele>
        <time>2017-05-07T09:08:26.379Z</time>
      </trkpt>
      <trkpt lat="47.83207" lon="2.24247">
        <ele>108</ele>
        <time>2017-05-07T09:08:27.372Z</time>
      </trkpt>
      <trkpt lat="47.83215" lon="2.24243">
        <ele>108</ele>
        <time>2017-05-07T09:08:28.377Z</time>
      </trkpt>
      <trkpt lat="47.83215" lon="2.24243">
        <ele>108</ele>
        <time>2017-05-07T09:08:29.370Z</time>
      </trkpt>
      <trkpt lat="47.83221" lon="2.24242">
        <ele>108</ele>
        <time>2017-05-07T09:08:30.377Z</time>
      </trkpt>
      <trkpt lat="47.83221" lon="2.24242">
        <ele>108</ele>
        <time>2017-05-07T09:08:31.370Z</time>
      </trkpt>
      <trkpt lat="47.83226" lon="2.2424">
        <ele>108</ele>
        <time>2017-05-07T09:08:32.375Z</time>
      </trkpt>
      <trkpt lat="47.83226" lon="2.2424">
        <ele>108</ele>
        <time>2017-05-07T09:08:33.370Z</time>
      </trkpt>
      <trkpt lat="47.83232" lon="2.24235">
        <ele>108</ele>
        <time>2017-05-07T09:08:34.377Z</time>
      </trkpt>
      <trkpt lat="47.83232" lon="2.24235">
        <ele>108</ele>
        <time>2017-05-07T09:08:35.371Z</time>
      </trkpt>
      <trkpt lat="47.83239" lon="2.24227">
        <ele>108</ele>
        <time>2017-05-07T09:08:36.377Z</time>
      </trkpt>
      <trkpt lat="47.83243" lon="2.24222">
        <ele>108</ele>
        <time>2017-05-07T09:08:37.377Z</time>
      </trkpt>
      <trkpt lat="47.83247" lon="2.24218">
        <ele>108</ele>
        <time>2017-05-07T09:08:38.377Z</time>
      </trkpt>
      <trkpt lat="47.83247" lon="2.24218">
        <ele>108</ele>
        <time>2017-05-07T09:08:39.370Z</time>
      </trkpt>
      <trkpt lat="47.83256" lon="2.2421">
        <ele>108</ele>
        <time>2017-05-07T09:08:40.377Z</time>
      </trkpt>
      <trkpt lat="47.83261" lon="2.24205">
        <ele>107</ele>
        <time>2017-05-07T09:08:41.377Z</time>
      </trkpt>
      <trkpt lat="47.83261" lon="2.24205">
        <ele>107</ele>
        <time>2017-05-07T09:08:42.371Z</time>
      </trkpt>
      <trkpt lat="47.83269" lon="2.24197">
        <ele>108</ele>
        <time>2017-05-07T09:08:43.377Z</time>
      </trkpt>
      <trkpt lat="47.83273" lon="2.24195">
        <ele>107</ele>
        <time>2017-05-07T09:08:44.379Z</time>
      </trkpt>
      <trkpt lat="47.83273" lon="2.24195">
        <ele>107</ele>
        <time>2017-05-07T09:08:45.371Z</time>
      </trkpt>
      <trkpt lat="47.83281" lon="2.24193">
        <ele>108</ele>
        <time>2017-05-07T09:08:46.378Z</time>
      </trkpt>
      <trkpt lat="47.83281" lon="2.24193">
        <ele>108</ele>
        <time>2017-05-07T09:08:47.370Z</time>
      </trkpt>
      <trkpt lat="47.83288" lon="2.24193">
        <ele>108</ele>
        <time>2017-05-07T09:08:48.377Z</time>
      </trkpt>
      <trkpt lat="47.83288" lon="2.24193">
        <ele>108</ele>
        <time>2017-05-07T09:08:49.370Z</time>
      </trkpt>
      <trkpt lat="47.83292" lon="2.24191">
        <ele>109</ele>
        <time>2017-05-07T09:08:50.378Z</time>
      </trkpt>
      <trkpt lat="47.83292" lon="2.24191">
        <ele>109</ele>
        <time>2017-05-07T09:08:51.379Z</time>
      </trkpt>
      <trkpt lat="47.83294" lon="2.2419">
        <ele>109</ele>
        <time>2017-05-07T09:08:52.377Z</time>
      </trkpt>
      <trkpt lat="47.83294" lon="2.2419">
        <ele>109</ele>
        <time>2017-05-07T09:08:53.370Z</time>
      </trkpt>
      <trkpt lat="47.83293" lon="2.2419">
        <ele>108</ele>
        <time>2017-05-07T09:08:54.375Z</time>
      </trkpt>
      <trkpt lat="47.83298" lon="2.24184">
        <ele>104</ele>
        <time>2017-05-07T09:08:55.375Z</time>
      </trkpt>
      <trkpt lat="47.83298" lon="2.24184">
        <ele>104</ele>
        <time>2017-05-07T09:08:56.367Z</time>
      </trkpt>
      <trkpt lat="47.83301" lon="2.24181">
        <ele>104</ele>
        <time>2017-05-07T09:08:57.377Z</time>
      </trkpt>
      <trkpt lat="47.83301" lon="2.24181">
        <ele>104</ele>
        <time>2017-05-07T09:08:58.367Z</time>
      </trkpt>
      <trkpt lat="47.83304" lon="2.24176">
        <ele>104</ele>
        <time>2017-05-07T09:08:59.379Z</time>
      </trkpt>
      <trkpt lat="47.83306" lon="2.24173">
        <ele>104</ele>
        <time>2017-05-07T09:09:00.376Z</time>
      </trkpt>
      <trkpt lat="47.83306" lon="2.24173">
        <ele>104</ele>
        <time>2017-05-07T09:09:01.367Z</time>
      </trkpt>
      <trkpt lat="47.83312" lon="2.24166">
        <ele>104</ele>
        <time>2017-05-07T09:09:02.372Z</time>
      </trkpt>
      <trkpt lat="47.83312" lon="2.24166">
        <ele>104</ele>
        <time>2017-05-07T09:09:03.364Z</time>
      </trkpt>
      <trkpt lat="47.83319" lon="2.2416">
        <ele>104</ele>
        <time>2017-05-07T09:09:04.372Z</time>
      </trkpt>
      <trkpt lat="47.83319" lon="2.2416">
        <ele>104</ele>
        <time>2017-05-07T09:09:05.367Z</time>
      </trkpt>
      <trkpt lat="47.83327" lon="2.24153">
        <ele>105</ele>
        <time>2017-05-07T09:09:06.375Z</time>
      </trkpt>
      <trkpt lat="47.83327" lon="2.24153">
        <ele>105</ele>
        <time>2017-05-07T09:09:07.367Z</time>
      </trkpt>
      <trkpt lat="47.83337" lon="2.24147">
        <ele>105</ele>
        <time>2017-05-07T09:09:08.372Z</time>
      </trkpt>
      <trkpt lat="47.83337" lon="2.24147">
        <ele>105</ele>
        <time>2017-05-07T09:09:09.364Z</time>
      </trkpt>
      <trkpt lat="47.83345" lon="2.2414">
        <ele>105</ele>
        <time>2017-05-07T09:09:10.377Z</time>
      </trkpt>
      <trkpt lat="47.83345" lon="2.2414">
        <ele>105</ele>
        <time>2017-05-07T09:09:11.369Z</time>
      </trkpt>
      <trkpt lat="47.83354" lon="2.24134">
        <ele>105</ele>
        <time>2017-05-07T09:09:12.376Z</time>
      </trkpt>
      <trkpt lat="47.83354" lon="2.24134">
        <ele>105</ele>
        <time>2017-05-07T09:09:13.366Z</time>
      </trkpt>
      <trkpt lat="47.83363" lon="2.24128">
        <ele>105</ele>
        <time>2017-05-07T09:09:14.372Z</time>
      </trkpt>
      <trkpt lat="47.83363" lon="2.24128">
        <ele>105</ele>
        <time>2017-05-07T09:09:15.373Z</time>
      </trkpt>
      <trkpt lat="47.83373" lon="2.24124">
        <ele>106</ele>
        <time>2017-05-07T09:09:16.373Z</time>
      </trkpt>
      <trkpt lat="47.83373" lon="2.24124">
        <ele>106</ele>
        <time>2017-05-07T09:09:17.367Z</time>
      </trkpt>
      <trkpt lat="47.83382" lon="2.24119">
        <ele>106</ele>
        <time>2017-05-07T09:09:18.375Z</time>
      </trkpt>
      <trkpt lat="47.83382" lon="2.24119">
        <ele>106</ele>
        <time>2017-05-07T09:09:19.367Z</time>
      </trkpt>
      <trkpt lat="47.8339" lon="2.24113">
        <ele>106</ele>
        <time>2017-05-07T09:09:20.374Z</time>
      </trkpt>
      <trkpt lat="47.8339" lon="2.24113">
        <ele>106</ele>
        <time>2017-05-07T09:09:21.389Z</time>
      </trkpt>
      <trkpt lat="47.83399" lon="2.24105">
        <ele>106</ele>
        <time>2017-05-07T09:09:22.376Z</time>
      </trkpt>
      <trkpt lat="47.83399" lon="2.24105">
        <ele>106</ele>
        <time>2017-05-07T09:09:23.381Z</time>
      </trkpt>
      <trkpt lat="47.83406" lon="2.24097">
        <ele>106</ele>
        <time>2017-05-07T09:09:24.393Z</time>
      </trkpt>
      <trkpt lat="47.83406" lon="2.24097">
        <ele>106</ele>
        <time>2017-05-07T09:09:25.382Z</time>
      </trkpt>
      <trkpt lat="47.83414" lon="2.2409">
        <ele>107</ele>
        <time>2017-05-07T09:09:26.393Z</time>
      </trkpt>
      <trkpt lat="47.83414" lon="2.2409">
        <ele>107</ele>
        <time>2017-05-07T09:09:27.383Z</time>
      </trkpt>
      <trkpt lat="47.83423" lon="2.24083">
        <ele>107</ele>
        <time>2017-05-07T09:09:28.375Z</time>
      </trkpt>
      <trkpt lat="47.83423" lon="2.24083">
        <ele>107</ele>
        <time>2017-05-07T09:09:29.369Z</time>
      </trkpt>
      <trkpt lat="47.83431" lon="2.24076">
        <ele>107</ele>
        <time>2017-05-07T09:09:30.377Z</time>
      </trkpt>
      <trkpt lat="47.83431" lon="2.24076">
        <ele>107</ele>
        <time>2017-05-07T09:09:31.369Z</time>
      </trkpt>
      <trkpt lat="47.83439" lon="2.24068">
        <ele>107</ele>
        <time>2017-05-07T09:09:32.375Z</time>
      </trkpt>
      <trkpt lat="47.83439" lon="2.24068">
        <ele>107</ele>
        <time>2017-05-07T09:09:33.369Z</time>
      </trkpt>
      <trkpt lat="47.83447" lon="2.2406">
        <ele>108</ele>
        <time>2017-05-07T09:09:34.375Z</time>
      </trkpt>
      <trkpt lat="47.83447" lon="2.2406">
        <ele>108</ele>
        <time>2017-05-07T09:09:35.369Z</time>
      </trkpt>
      <trkpt lat="47.83456" lon="2.24053">
        <ele>108</ele>
        <time>2017-05-07T09:09:36.386Z</time>
      </trkpt>
      <trkpt lat="47.83456" lon="2.24053">
        <ele>108</ele>
        <time>2017-05-07T09:09:37.376Z</time>
      </trkpt>
      <trkpt lat="47.83464" lon="2.24048">
        <ele>108</ele>
        <time>2017-05-07T09:09:38.375Z</time>
      </trkpt>
      <trkpt lat="47.83464" lon="2.24048">
        <ele>108</ele>
        <time>2017-05-07T09:09:39.370Z</time>
      </trkpt>
      <trkpt lat="47.83473" lon="2.24043">
        <ele>109</ele>
        <time>2017-05-07T09:09:40.376Z</time>
      </trkpt>
      <trkpt lat="47.83473" lon="2.24043">
        <ele>109</ele>
        <time>2017-05-07T09:09:41.369Z</time>
      </trkpt>
      <trkpt lat="47.83484" lon="2.24039">
        <ele>109</ele>
        <time>2017-05-07T09:09:42.357Z</time>
      </trkpt>
      <trkpt lat="47.83484" lon="2.24039">
        <ele>109</ele>
        <time>2017-05-07T09:09:43.358Z</time>
      </trkpt>
      <trkpt lat="47.83494" lon="2.24036">
        <ele>109</ele>
        <time>2017-05-07T09:09:44.387Z</time>
      </trkpt>
      <trkpt lat="47.83494" lon="2.24036">
        <ele>109</ele>
        <time>2017-05-07T09:09:45.376Z</time>
      </trkpt>
      <trkpt lat="47.83503" lon="2.24033">
        <ele>110</ele>
        <time>2017-05-07T09:09:46.386Z</time>
      </trkpt>
      <trkpt lat="47.83503" lon="2.24033">
        <ele>110</ele>
        <time>2017-05-07T09:09:47.376Z</time>
      </trkpt>
      <trkpt lat="47.83512" lon="2.24027">
        <ele>110</ele>
        <time>2017-05-07T09:09:48.378Z</time>
      </trkpt>
      <trkpt lat="47.83512" lon="2.24027">
        <ele>110</ele>
        <time>2017-05-07T09:09:49.367Z</time>
      </trkpt>
      <trkpt lat="47.83521" lon="2.24024">
        <ele>110</ele>
        <time>2017-05-07T09:09:50.389Z</time>
      </trkpt>
      <trkpt lat="47.83521" lon="2.24024">
        <ele>110</ele>
        <time>2017-05-07T09:09:51.380Z</time>
      </trkpt>
      <trkpt lat="47.83529" lon="2.24022">
        <ele>110</ele>
        <time>2017-05-07T09:09:52.376Z</time>
      </trkpt>
      <trkpt lat="47.83529" lon="2.24022">
        <ele>110</ele>
        <time>2017-05-07T09:09:53.370Z</time>
      </trkpt>
      <trkpt lat="47.8354" lon="2.2402">
        <ele>110</ele>
        <time>2017-05-07T09:09:54.377Z</time>
      </trkpt>
      <trkpt lat="47.8354" lon="2.2402">
        <ele>110</ele>
        <time>2017-05-07T09:09:55.370Z</time>
      </trkpt>
      <trkpt lat="47.83552" lon="2.24023">
        <ele>110</ele>
        <time>2017-05-07T09:09:56.375Z</time>
      </trkpt>
      <trkpt lat="47.83552" lon="2.24023">
        <ele>110</ele>
        <time>2017-05-07T09:09:57.369Z</time>
      </trkpt>
      <trkpt lat="47.83564" lon="2.24023">
        <ele>110</ele>
        <time>2017-05-07T09:09:58.372Z</time>
      </trkpt>
      <trkpt lat="47.83569" lon="2.24023">
        <ele>110</ele>
        <time>2017-05-07T09:09:59.375Z</time>
      </trkpt>
      <trkpt lat="47.83575" lon="2.24022">
        <ele>110</ele>
        <time>2017-05-07T09:10:00.378Z</time>
      </trkpt>
      <trkpt lat="47.83575" lon="2.24022">
        <ele>110</ele>
        <time>2017-05-07T09:10:01.370Z</time>
      </trkpt>
      <trkpt lat="47.83586" lon="2.2402">
        <ele>110</ele>
        <time>2017-05-07T09:10:02.375Z</time>
      </trkpt>
      <trkpt lat="47.83586" lon="2.2402">
        <ele>110</ele>
        <time>2017-05-07T09:10:03.371Z</time>
      </trkpt>
      <trkpt lat="47.83597" lon="2.24018">
        <ele>110</ele>
        <time>2017-05-07T09:10:04.375Z</time>
      </trkpt>
      <trkpt lat="47.83597" lon="2.24018">
        <ele>110</ele>
        <time>2017-05-07T09:10:05.370Z</time>
      </trkpt>
      <trkpt lat="47.83609" lon="2.24016">
        <ele>109</ele>
        <time>2017-05-07T09:10:06.377Z</time>
      </trkpt>
      <trkpt lat="47.83609" lon="2.24016">
        <ele>109</ele>
        <time>2017-05-07T09:10:07.375Z</time>
      </trkpt>
      <trkpt lat="47.8362" lon="2.24013">
        <ele>109</ele>
        <time>2017-05-07T09:10:08.373Z</time>
      </trkpt>
      <trkpt lat="47.83626" lon="2.24011">
        <ele>109</ele>
        <time>2017-05-07T09:10:09.376Z</time>
      </trkpt>
      <trkpt lat="47.83626" lon="2.24011">
        <ele>109</ele>
        <time>2017-05-07T09:10:10.371Z</time>
      </trkpt>
      <trkpt lat="47.83635" lon="2.24007">
        <ele>109</ele>
        <time>2017-05-07T09:10:11.376Z</time>
      </trkpt>
      <trkpt lat="47.83635" lon="2.24007">
        <ele>109</ele>
        <time>2017-05-07T09:10:12.373Z</time>
      </trkpt>
      <trkpt lat="47.83645" lon="2.24004">
        <ele>109</ele>
        <time>2017-05-07T09:10:13.375Z</time>
      </trkpt>
      <trkpt lat="47.8365" lon="2.24003">
        <ele>109</ele>
        <time>2017-05-07T09:10:14.376Z</time>
      </trkpt>
      <trkpt lat="47.8365" lon="2.24003">
        <ele>109</ele>
        <time>2017-05-07T09:10:15.372Z</time>
      </trkpt>
      <trkpt lat="47.83659" lon="2.24002">
        <ele>109</ele>
        <time>2017-05-07T09:10:16.377Z</time>
      </trkpt>
      <trkpt lat="47.83659" lon="2.24002">
        <ele>109</ele>
        <time>2017-05-07T09:10:17.370Z</time>
      </trkpt>
      <trkpt lat="47.83667" lon="2.24">
        <ele>109</ele>
        <time>2017-05-07T09:10:18.380Z</time>
      </trkpt>
      <trkpt lat="47.83671" lon="2.24001">
        <ele>108</ele>
        <time>2017-05-07T09:10:19.374Z</time>
      </trkpt>
      <trkpt lat="47.83671" lon="2.24001">
        <ele>108</ele>
        <time>2017-05-07T09:10:20.368Z</time>
      </trkpt>
      <trkpt lat="47.8368" lon="2.24">
        <ele>109</ele>
        <time>2017-05-07T09:10:21.373Z</time>
      </trkpt>
      <trkpt lat="47.8368" lon="2.24">
        <ele>109</ele>
        <time>2017-05-07T09:10:22.371Z</time>
      </trkpt>
      <trkpt lat="47.8369" lon="2.23999">
        <ele>109</ele>
        <time>2017-05-07T09:10:23.375Z</time>
      </trkpt>
      <trkpt lat="47.83696" lon="2.23998">
        <ele>109</ele>
        <time>2017-05-07T09:10:24.392Z</time>
      </trkpt>
      <trkpt lat="47.83696" lon="2.23998">
        <ele>109</ele>
        <time>2017-05-07T09:10:25.382Z</time>
      </trkpt>
      <trkpt lat="47.8371" lon="2.23996">
        <ele>109</ele>
        <time>2017-05-07T09:10:26.388Z</time>
      </trkpt>
      <trkpt lat="47.8371" lon="2.23996">
        <ele>109</ele>
        <time>2017-05-07T09:10:27.378Z</time>
      </trkpt>
      <trkpt lat="47.83721" lon="2.23996">
        <ele>110</ele>
        <time>2017-05-07T09:10:28.375Z</time>
      </trkpt>
      <trkpt lat="47.83727" lon="2.23997">
        <ele>110</ele>
        <time>2017-05-07T09:10:29.375Z</time>
      </trkpt>
      <trkpt lat="47.83727" lon="2.23997">
        <ele>110</ele>
        <time>2017-05-07T09:10:30.372Z</time>
      </trkpt>
      <trkpt lat="47.83738" lon="2.23998">
        <ele>111</ele>
        <time>2017-05-07T09:10:31.375Z</time>
      </trkpt>
      <trkpt lat="47.83738" lon="2.23998">
        <ele>111</ele>
        <time>2017-05-07T09:10:32.370Z</time>
      </trkpt>
      <trkpt lat="47.83748" lon="2.23998">
        <ele>112</ele>
        <time>2017-05-07T09:10:33.375Z</time>
      </trkpt>
      <trkpt lat="47.83752" lon="2.23997">
        <ele>112</ele>
        <time>2017-05-07T09:10:34.388Z</time>
      </trkpt>
      <trkpt lat="47.83752" lon="2.23997">
        <ele>112</ele>
        <time>2017-05-07T09:10:35.379Z</time>
      </trkpt>
      <trkpt lat="47.83763" lon="2.23997">
        <ele>111</ele>
        <time>2017-05-07T09:10:36.376Z</time>
      </trkpt>
      <trkpt lat="47.83763" lon="2.23997">
        <ele>111</ele>
        <time>2017-05-07T09:10:37.370Z</time>
      </trkpt>
      <trkpt lat="47.83775" lon="2.23999">
        <ele>111</ele>
        <time>2017-05-07T09:10:38.374Z</time>
      </trkpt>
      <trkpt lat="47.83775" lon="2.23999">
        <ele>111</ele>
        <time>2017-05-07T09:10:39.389Z</time>
      </trkpt>
      <trkpt lat="47.83786" lon="2.24003">
        <ele>111</ele>
        <time>2017-05-07T09:10:40.378Z</time>
      </trkpt>
      <trkpt lat="47.83786" lon="2.24003">
        <ele>111</ele>
        <time>2017-05-07T09:10:41.370Z</time>
      </trkpt>
      <trkpt lat="47.83796" lon="2.24009">
        <ele>110</ele>
        <time>2017-05-07T09:10:42.379Z</time>
      </trkpt>
      <trkpt lat="47.83801" lon="2.2401">
        <ele>110</ele>
        <time>2017-05-07T09:10:43.378Z</time>
      </trkpt>
      <trkpt lat="47.83801" lon="2.2401">
        <ele>110</ele>
        <time>2017-05-07T09:10:44.374Z</time>
      </trkpt>
      <trkpt lat="47.83811" lon="2.24011">
        <ele>111</ele>
        <time>2017-05-07T09:10:45.376Z</time>
      </trkpt>
      <trkpt lat="47.83815" lon="2.24012">
        <ele>111</ele>
        <time>2017-05-07T09:10:46.373Z</time>
      </trkpt>
      <trkpt lat="47.83815" lon="2.24012">
        <ele>111</ele>
        <time>2017-05-07T09:10:47.370Z</time>
      </trkpt>
      <trkpt lat="47.83825" lon="2.24013">
        <ele>111</ele>
        <time>2017-05-07T09:10:48.358Z</time>
      </trkpt>
      <trkpt lat="47.83825" lon="2.24013">
        <ele>111</ele>
        <time>2017-05-07T09:10:49.390Z</time>
      </trkpt>
      <trkpt lat="47.83835" lon="2.24016">
        <ele>111</ele>
        <time>2017-05-07T09:10:50.379Z</time>
      </trkpt>
      <trkpt lat="47.83835" lon="2.24016">
        <ele>111</ele>
        <time>2017-05-07T09:10:51.370Z</time>
      </trkpt>
      <trkpt lat="47.83845" lon="2.24017">
        <ele>110</ele>
        <time>2017-05-07T09:10:52.376Z</time>
      </trkpt>
      <trkpt lat="47.83845" lon="2.24017">
        <ele>110</ele>
        <time>2017-05-07T09:10:53.371Z</time>
      </trkpt>
      <trkpt lat="47.83854" lon="2.24016">
        <ele>110</ele>
        <time>2017-05-07T09:10:54.378Z</time>
      </trkpt>
      <trkpt lat="47.83854" lon="2.24016">
        <ele>110</ele>
        <time>2017-05-07T09:10:55.370Z</time>
      </trkpt>
      <trkpt lat="47.83866" lon="2.24018">
        <ele>110</ele>
        <time>2017-05-07T09:10:56.378Z</time>
      </trkpt>
      <trkpt lat="47.83866" lon="2.24018">
        <ele>110</ele>
        <time>2017-05-07T09:10:57.370Z</time>
      </trkpt>
      <trkpt lat="47.83877" lon="2.24017">
        <ele>110</ele>
        <time>2017-05-07T09:10:58.373Z</time>
      </trkpt>
      <trkpt lat="47.83877" lon="2.24017">
        <ele>110</ele>
        <time>2017-05-07T09:10:59.380Z</time>
      </trkpt>
      <trkpt lat="47.83887" lon="2.24015">
        <ele>110</ele>
        <time>2017-05-07T09:11:00.370Z</time>
      </trkpt>
      <trkpt lat="47.83887" lon="2.24015">
        <ele>110</ele>
        <time>2017-05-07T09:11:01.376Z</time>
      </trkpt>
      <trkpt lat="47.83897" lon="2.24014">
        <ele>110</ele>
        <time>2017-05-07T09:11:02.383Z</time>
      </trkpt>
      <trkpt lat="47.83902" lon="2.24013">
        <ele>110</ele>
        <time>2017-05-07T09:11:03.375Z</time>
      </trkpt>
      <trkpt lat="47.83902" lon="2.24013">
        <ele>110</ele>
        <time>2017-05-07T09:11:04.371Z</time>
      </trkpt>
      <trkpt lat="47.83912" lon="2.24012">
        <ele>110</ele>
        <time>2017-05-07T09:11:05.390Z</time>
      </trkpt>
      <trkpt lat="47.83917" lon="2.24013">
        <ele>109</ele>
        <time>2017-05-07T09:11:06.389Z</time>
      </trkpt>
      <trkpt lat="47.83923" lon="2.24014">
        <ele>108</ele>
        <time>2017-05-07T09:11:07.377Z</time>
      </trkpt>
      <trkpt lat="47.83923" lon="2.24014">
        <ele>108</ele>
        <time>2017-05-07T09:11:08.374Z</time>
      </trkpt>
      <trkpt lat="47.83934" lon="2.24018">
        <ele>108</ele>
        <time>2017-05-07T09:11:09.376Z</time>
      </trkpt>
      <trkpt lat="47.83939" lon="2.2402">
        <ele>108</ele>
        <time>2017-05-07T09:11:10.376Z</time>
      </trkpt>
      <trkpt lat="47.83939" lon="2.2402">
        <ele>108</ele>
        <time>2017-05-07T09:11:11.372Z</time>
      </trkpt>
      <trkpt lat="47.8395" lon="2.24026">
        <ele>107</ele>
        <time>2017-05-07T09:11:12.379Z</time>
      </trkpt>
      <trkpt lat="47.83954" lon="2.24029">
        <ele>107</ele>
        <time>2017-05-07T09:11:13.375Z</time>
      </trkpt>
      <trkpt lat="47.83954" lon="2.24029">
        <ele>107</ele>
        <time>2017-05-07T09:11:14.371Z</time>
      </trkpt>
      <trkpt lat="47.83961" lon="2.24034">
        <ele>107</ele>
        <time>2017-05-07T09:11:15.375Z</time>
      </trkpt>
      <trkpt lat="47.83961" lon="2.24034">
        <ele>107</ele>
        <time>2017-05-07T09:11:16.375Z</time>
      </trkpt>
      <trkpt lat="47.8397" lon="2.24039">
        <ele>107</ele>
        <time>2017-05-07T09:11:17.370Z</time>
      </trkpt>
      <trkpt lat="47.83975" lon="2.24042">
        <ele>107</ele>
        <time>2017-05-07T09:11:18.376Z</time>
      </trkpt>
      <trkpt lat="47.83975" lon="2.24042">
        <ele>107</ele>
        <time>2017-05-07T09:11:19.371Z</time>
      </trkpt>
      <trkpt lat="47.83984" lon="2.2405">
        <ele>106</ele>
        <time>2017-05-07T09:11:20.374Z</time>
      </trkpt>
      <trkpt lat="47.83984" lon="2.2405">
        <ele>106</ele>
        <time>2017-05-07T09:11:21.368Z</time>
      </trkpt>
      <trkpt lat="47.83993" lon="2.24056">
        <ele>106</ele>
        <time>2017-05-07T09:11:22.381Z</time>
      </trkpt>
      <trkpt lat="47.83993" lon="2.24056">
        <ele>106</ele>
        <time>2017-05-07T09:11:23.371Z</time>
      </trkpt>
      <trkpt lat="47.84003" lon="2.24062">
        <ele>105</ele>
        <time>2017-05-07T09:11:24.378Z</time>
      </trkpt>
      <trkpt lat="47.84007" lon="2.24064">
        <ele>105</ele>
        <time>2017-05-07T09:11:25.376Z</time>
      </trkpt>
      <trkpt lat="47.84007" lon="2.24064">
        <ele>105</ele>
        <time>2017-05-07T09:11:26.374Z</time>
      </trkpt>
      <trkpt lat="47.84016" lon="2.24071">
        <ele>105</ele>
        <time>2017-05-07T09:11:27.377Z</time>
      </trkpt>
      <trkpt lat="47.8402" lon="2.24075">
        <ele>105</ele>
        <time>2017-05-07T09:11:28.373Z</time>
      </trkpt>
      <trkpt lat="47.84023" lon="2.24079">
        <ele>105</ele>
        <time>2017-05-07T09:11:29.377Z</time>
      </trkpt>
      <trkpt lat="47.84023" lon="2.24079">
        <ele>105</ele>
        <time>2017-05-07T09:11:30.373Z</time>
      </trkpt>
      <trkpt lat="47.84032" lon="2.24084">
        <ele>105</ele>
        <time>2017-05-07T09:11:31.376Z</time>
      </trkpt>
      <trkpt lat="47.84036" lon="2.24088">
        <ele>105</ele>
        <time>2017-05-07T09:11:32.374Z</time>
      </trkpt>
      <trkpt lat="47.84036" lon="2.24088">
        <ele>105</ele>
        <time>2017-05-07T09:11:33.371Z</time>
      </trkpt>
      <trkpt lat="47.84043" lon="2.24095">
        <ele>105</ele>
        <time>2017-05-07T09:11:34.374Z</time>
      </trkpt>
      <trkpt lat="47.84043" lon="2.24095">
        <ele>105</ele>
        <time>2017-05-07T09:11:35.370Z</time>
      </trkpt>
      <trkpt lat="47.84049" lon="2.24102">
        <ele>105</ele>
        <time>2017-05-07T09:11:36.378Z</time>
      </trkpt>
      <trkpt lat="47.84049" lon="2.24102">
        <ele>105</ele>
        <time>2017-05-07T09:11:37.374Z</time>
      </trkpt>
      <trkpt lat="47.84054" lon="2.24106">
        <ele>105</ele>
        <time>2017-05-07T09:11:38.378Z</time>
      </trkpt>
      <trkpt lat="47.84054" lon="2.24106">
        <ele>105</ele>
        <time>2017-05-07T09:11:39.373Z</time>
      </trkpt>
      <trkpt lat="47.84056" lon="2.24108">
        <ele>105</ele>
        <time>2017-05-07T09:11:40.378Z</time>
      </trkpt>
      <trkpt lat="47.84056" lon="2.24108">
        <ele>105</ele>
        <time>2017-05-07T09:11:41.370Z</time>
      </trkpt>
      <trkpt lat="47.84058" lon="2.24109">
        <ele>105</ele>
        <time>2017-05-07T09:11:42.377Z</time>
      </trkpt>
      <trkpt lat="47.8406" lon="2.2411">
        <ele>105</ele>
        <time>2017-05-07T09:11:43.373Z</time>
      </trkpt>
      <trkpt lat="47.8406" lon="2.2411">
        <ele>105</ele>
        <time>2017-05-07T09:11:44.371Z</time>
      </trkpt>
      <trkpt lat="47.84065" lon="2.24111">
        <ele>105</ele>
        <time>2017-05-07T09:11:45.373Z</time>
      </trkpt>
      <trkpt lat="47.84065" lon="2.24111">
        <ele>105</ele>
        <time>2017-05-07T09:11:46.371Z</time>
      </trkpt>
      <trkpt lat="47.84071" lon="2.24112">
        <ele>105</ele>
        <time>2017-05-07T09:11:47.356Z</time>
      </trkpt>
      <trkpt lat="47.84074" lon="2.24113">
        <ele>106</ele>
        <time>2017-05-07T09:11:48.388Z</time>
      </trkpt>
      <trkpt lat="47.84074" lon="2.24113">
        <ele>106</ele>
        <time>2017-05-07T09:11:49.382Z</time>
      </trkpt>
      <trkpt lat="47.84081" lon="2.24116">
        <ele>105</ele>
        <time>2017-05-07T09:11:50.379Z</time>
      </trkpt>
      <trkpt lat="47.84081" lon="2.24116">
        <ele>105</ele>
        <time>2017-05-07T09:11:51.371Z</time>
      </trkpt>
      <trkpt lat="47.84088" lon="2.24121">
        <ele>105</ele>
        <time>2017-05-07T09:11:52.374Z</time>
      </trkpt>
      <trkpt lat="47.84092" lon="2.24123">
        <ele>106</ele>
        <time>2017-05-07T09:11:53.374Z</time>
      </trkpt>
      <trkpt lat="47.84095" lon="2.24125">
        <ele>106</ele>
        <time>2017-05-07T09:11:54.378Z</time>
      </trkpt>
      <trkpt lat="47.84095" lon="2.24125">
        <ele>106</ele>
        <time>2017-05-07T09:11:55.370Z</time>
      </trkpt>
      <trkpt lat="47.84103" lon="2.2413">
        <ele>106</ele>
        <time>2017-05-07T09:11:56.375Z</time>
      </trkpt>
      <trkpt lat="47.84107" lon="2.24133">
        <ele>107</ele>
        <time>2017-05-07T09:11:57.376Z</time>
      </trkpt>
      <trkpt lat="47.84107" lon="2.24133">
        <ele>107</ele>
        <time>2017-05-07T09:11:58.371Z</time>
      </trkpt>
      <trkpt lat="47.84115" lon="2.2414">
        <ele>107</ele>
        <time>2017-05-07T09:11:59.390Z</time>
      </trkpt>
      <trkpt lat="47.84118" lon="2.24143">
        <ele>107</ele>
        <time>2017-05-07T09:12:00.386Z</time>
      </trkpt>
      <trkpt lat="47.84118" lon="2.24143">
        <ele>107</ele>
        <time>2017-05-07T09:12:01.393Z</time>
      </trkpt>
      <trkpt lat="47.84126" lon="2.24148">
        <ele>106</ele>
        <time>2017-05-07T09:12:02.374Z</time>
      </trkpt>
      <trkpt lat="47.84131" lon="2.2415">
        <ele>106</ele>
        <time>2017-05-07T09:12:03.374Z</time>
      </trkpt>
      <trkpt lat="47.84131" lon="2.2415">
        <ele>106</ele>
        <time>2017-05-07T09:12:04.373Z</time>
      </trkpt>
      <trkpt lat="47.84139" lon="2.24152">
        <ele>106</ele>
        <time>2017-05-07T09:12:05.374Z</time>
      </trkpt>
      <trkpt lat="47.84143" lon="2.24153">
        <ele>106</ele>
        <time>2017-05-07T09:12:06.379Z</time>
      </trkpt>
      <trkpt lat="47.84148" lon="2.24155">
        <ele>106</ele>
        <time>2017-05-07T09:12:07.377Z</time>
      </trkpt>
      <trkpt lat="47.84148" lon="2.24155">
        <ele>106</ele>
        <time>2017-05-07T09:12:08.372Z</time>
      </trkpt>
      <trkpt lat="47.84157" lon="2.24158">
        <ele>105</ele>
        <time>2017-05-07T09:12:09.381Z</time>
      </trkpt>
      <trkpt lat="47.84157" lon="2.24158">
        <ele>105</ele>
        <time>2017-05-07T09:12:10.375Z</time>
      </trkpt>
      <trkpt lat="47.84167" lon="2.24162">
        <ele>106</ele>
        <time>2017-05-07T09:12:11.373Z</time>
      </trkpt>
      <trkpt lat="47.84167" lon="2.24162">
        <ele>106</ele>
        <time>2017-05-07T09:12:12.373Z</time>
      </trkpt>
      <trkpt lat="47.84177" lon="2.24167">
        <ele>106</ele>
        <time>2017-05-07T09:12:13.375Z</time>
      </trkpt>
      <trkpt lat="47.84182" lon="2.24169">
        <ele>106</ele>
        <time>2017-05-07T09:12:14.384Z</time>
      </trkpt>
      <trkpt lat="47.84182" lon="2.24169">
        <ele>106</ele>
        <time>2017-05-07T09:12:15.371Z</time>
      </trkpt>
      <trkpt lat="47.84191" lon="2.24173">
        <ele>106</ele>
        <time>2017-05-07T09:12:16.373Z</time>
      </trkpt>
      <trkpt lat="47.84191" lon="2.24173">
        <ele>106</ele>
        <time>2017-05-07T09:12:17.381Z</time>
      </trkpt>
      <trkpt lat="47.842" lon="2.24177">
        <ele>106</ele>
        <time>2017-05-07T09:12:18.374Z</time>
      </trkpt>
      <trkpt lat="47.842" lon="2.24177">
        <ele>106</ele>
        <time>2017-05-07T09:12:19.368Z</time>
      </trkpt>
      <trkpt lat="47.84208" lon="2.24183">
        <ele>106</ele>
        <time>2017-05-07T09:12:20.375Z</time>
      </trkpt>
      <trkpt lat="47.84208" lon="2.24183">
        <ele>106</ele>
        <time>2017-05-07T09:12:21.368Z</time>
      </trkpt>
      <trkpt lat="47.84218" lon="2.24189">
        <ele>105</ele>
        <time>2017-05-07T09:12:22.377Z</time>
      </trkpt>
      <trkpt lat="47.84218" lon="2.24189">
        <ele>105</ele>
        <time>2017-05-07T09:12:23.374Z</time>
      </trkpt>
      <trkpt lat="47.84228" lon="2.24199">
        <ele>105</ele>
        <time>2017-05-07T09:12:24.379Z</time>
      </trkpt>
      <trkpt lat="47.84233" lon="2.24205">
        <ele>105</ele>
        <time>2017-05-07T09:12:25.373Z</time>
      </trkpt>
      <trkpt lat="47.84238" lon="2.24211">
        <ele>105</ele>
        <time>2017-05-07T09:12:26.377Z</time>
      </trkpt>
      <trkpt lat="47.84238" lon="2.24211">
        <ele>105</ele>
        <time>2017-05-07T09:12:27.371Z</time>
      </trkpt>
      <trkpt lat="47.84249" lon="2.2422">
        <ele>105</ele>
        <time>2017-05-07T09:12:28.376Z</time>
      </trkpt>
      <trkpt lat="47.84249" lon="2.2422">
        <ele>105</ele>
        <time>2017-05-07T09:12:29.370Z</time>
      </trkpt>
      <trkpt lat="47.84262" lon="2.24228">
        <ele>106</ele>
        <time>2017-05-07T09:12:30.379Z</time>
      </trkpt>
      <trkpt lat="47.84268" lon="2.24231">
        <ele>106</ele>
        <time>2017-05-07T09:12:31.374Z</time>
      </trkpt>
      <trkpt lat="47.84268" lon="2.24231">
        <ele>106</ele>
        <time>2017-05-07T09:12:32.373Z</time>
      </trkpt>
      <trkpt lat="47.8428" lon="2.24238">
        <ele>107</ele>
        <time>2017-05-07T09:12:33.376Z</time>
      </trkpt>
      <trkpt lat="47.84286" lon="2.24243">
        <ele>107</ele>
        <time>2017-05-07T09:12:34.377Z</time>
      </trkpt>
      <trkpt lat="47.84286" lon="2.24243">
        <ele>107</ele>
        <time>2017-05-07T09:12:35.374Z</time>
      </trkpt>
      <trkpt lat="47.84298" lon="2.24254">
        <ele>106</ele>
        <time>2017-05-07T09:12:36.377Z</time>
      </trkpt>
      <trkpt lat="47.84304" lon="2.24258">
        <ele>106</ele>
        <time>2017-05-07T09:12:37.376Z</time>
      </trkpt>
      <trkpt lat="47.84304" lon="2.24258">
        <ele>106</ele>
        <time>2017-05-07T09:12:38.371Z</time>
      </trkpt>
      <trkpt lat="47.84317" lon="2.24267">
        <ele>106</ele>
        <time>2017-05-07T09:12:39.376Z</time>
      </trkpt>
      <trkpt lat="47.84323" lon="2.24271">
        <ele>106</ele>
        <time>2017-05-07T09:12:40.376Z</time>
      </trkpt>
      <trkpt lat="47.84323" lon="2.24271">
        <ele>106</ele>
        <time>2017-05-07T09:12:41.386Z</time>
      </trkpt>
      <trkpt lat="47.84335" lon="2.24279">
        <ele>106</ele>
        <time>2017-05-07T09:12:42.379Z</time>
      </trkpt>
      <trkpt lat="47.84335" lon="2.24279">
        <ele>106</ele>
        <time>2017-05-07T09:12:43.370Z</time>
      </trkpt>
      <trkpt lat="47.84347" lon="2.24285">
        <ele>106</ele>
        <time>2017-05-07T09:12:44.377Z</time>
      </trkpt>
      <trkpt lat="47.84352" lon="2.24289">
        <ele>106</ele>
        <time>2017-05-07T09:12:45.377Z</time>
      </trkpt>
      <trkpt lat="47.84352" lon="2.24289">
        <ele>106</ele>
        <time>2017-05-07T09:12:46.375Z</time>
      </trkpt>
      <trkpt lat="47.84359" lon="2.24301">
        <ele>106</ele>
        <time>2017-05-07T09:12:47.368Z</time>
      </trkpt>
      <trkpt lat="47.84359" lon="2.24301">
        <ele>106</ele>
        <time>2017-05-07T09:12:48.374Z</time>
      </trkpt>
      <trkpt lat="47.84368" lon="2.2431">
        <ele>106</ele>
        <time>2017-05-07T09:12:49.375Z</time>
      </trkpt>
      <trkpt lat="47.84374" lon="2.24315">
        <ele>105</ele>
        <time>2017-05-07T09:12:50.374Z</time>
      </trkpt>
      <trkpt lat="47.8438" lon="2.24321">
        <ele>105</ele>
        <time>2017-05-07T09:12:51.375Z</time>
      </trkpt>
      <trkpt lat="47.8438" lon="2.24321">
        <ele>105</ele>
        <time>2017-05-07T09:12:52.373Z</time>
      </trkpt>
      <trkpt lat="47.84393" lon="2.2433">
        <ele>104</ele>
        <time>2017-05-07T09:12:53.375Z</time>
      </trkpt>
      <trkpt lat="47.84393" lon="2.2433">
        <ele>104</ele>
        <time>2017-05-07T09:12:54.373Z</time>
      </trkpt>
      <trkpt lat="47.84405" lon="2.24338">
        <ele>103</ele>
        <time>2017-05-07T09:12:55.375Z</time>
      </trkpt>
      <trkpt lat="47.84411" lon="2.24343">
        <ele>102</ele>
        <time>2017-05-07T09:12:56.376Z</time>
      </trkpt>
      <trkpt lat="47.84411" lon="2.24343">
        <ele>102</ele>
        <time>2017-05-07T09:12:57.374Z</time>
      </trkpt>
      <trkpt lat="47.84423" lon="2.24355">
        <ele>102</ele>
        <time>2017-05-07T09:12:58.376Z</time>
      </trkpt>
      <trkpt lat="47.84429" lon="2.2436">
        <ele>102</ele>
        <time>2017-05-07T09:12:59.390Z</time>
      </trkpt>
      <trkpt lat="47.84429" lon="2.2436">
        <ele>102</ele>
        <time>2017-05-07T09:13:00.387Z</time>
      </trkpt>
      <trkpt lat="47.84442" lon="2.24374">
        <ele>102</ele>
        <time>2017-05-07T09:13:01.377Z</time>
      </trkpt>
      <trkpt lat="47.84442" lon="2.24374">
        <ele>102</ele>
        <time>2017-05-07T09:13:02.369Z</time>
      </trkpt>
      <trkpt lat="47.84453" lon="2.24388">
        <ele>102</ele>
        <time>2017-05-07T09:13:03.375Z</time>
      </trkpt>
      <trkpt lat="47.84453" lon="2.24388">
        <ele>102</ele>
        <time>2017-05-07T09:13:04.369Z</time>
      </trkpt>
      <trkpt lat="47.84462" lon="2.24405">
        <ele>101</ele>
        <time>2017-05-07T09:13:05.374Z</time>
      </trkpt>
      <trkpt lat="47.84466" lon="2.24411">
        <ele>101</ele>
        <time>2017-05-07T09:13:06.376Z</time>
      </trkpt>
      <trkpt lat="47.84466" lon="2.24411">
        <ele>101</ele>
        <time>2017-05-07T09:13:07.368Z</time>
      </trkpt>
      <trkpt lat="47.84477" lon="2.24423">
        <ele>101</ele>
        <time>2017-05-07T09:13:08.375Z</time>
      </trkpt>
      <trkpt lat="47.84482" lon="2.24428">
        <ele>101</ele>
        <time>2017-05-07T09:13:09.375Z</time>
      </trkpt>
      <trkpt lat="47.84482" lon="2.24428">
        <ele>101</ele>
        <time>2017-05-07T09:13:10.371Z</time>
      </trkpt>
      <trkpt lat="47.84492" lon="2.24438">
        <ele>102</ele>
        <time>2017-05-07T09:13:11.375Z</time>
      </trkpt>
      <trkpt lat="47.84492" lon="2.24438">
        <ele>102</ele>
        <time>2017-05-07T09:13:12.370Z</time>
      </trkpt>
      <trkpt lat="47.84503" lon="2.24446">
        <ele>103</ele>
        <time>2017-05-07T09:13:13.375Z</time>
      </trkpt>
      <trkpt lat="47.84503" lon="2.24446">
        <ele>103</ele>
        <time>2017-05-07T09:13:14.369Z</time>
      </trkpt>
      <trkpt lat="47.84516" lon="2.24452">
        <ele>104</ele>
        <time>2017-05-07T09:13:15.374Z</time>
      </trkpt>
      <trkpt lat="47.84516" lon="2.24452">
        <ele>104</ele>
        <time>2017-05-07T09:13:16.369Z</time>
      </trkpt>
      <trkpt lat="47.84527" lon="2.24461">
        <ele>104</ele>
        <time>2017-05-07T09:13:17.375Z</time>
      </trkpt>
      <trkpt lat="47.84533" lon="2.24466">
        <ele>104</ele>
        <time>2017-05-07T09:13:18.375Z</time>
      </trkpt>
      <trkpt lat="47.84533" lon="2.24466">
        <ele>104</ele>
        <time>2017-05-07T09:13:19.372Z</time>
      </trkpt>
      <trkpt lat="47.84545" lon="2.24476">
        <ele>104</ele>
        <time>2017-05-07T09:13:20.374Z</time>
      </trkpt>
      <trkpt lat="47.84545" lon="2.24476">
        <ele>104</ele>
        <time>2017-05-07T09:13:21.368Z</time>
      </trkpt>
      <trkpt lat="47.84559" lon="2.24487">
        <ele>103</ele>
        <time>2017-05-07T09:13:22.375Z</time>
      </trkpt>
      <trkpt lat="47.84567" lon="2.24491">
        <ele>103</ele>
        <time>2017-05-07T09:13:23.377Z</time>
      </trkpt>
      <trkpt lat="47.84574" lon="2.24495">
        <ele>102</ele>
        <time>2017-05-07T09:13:24.378Z</time>
      </trkpt>
      <trkpt lat="47.84574" lon="2.24495">
        <ele>102</ele>
        <time>2017-05-07T09:13:25.373Z</time>
      </trkpt>
      <trkpt lat="47.84588" lon="2.24503">
        <ele>102</ele>
        <time>2017-05-07T09:13:26.377Z</time>
      </trkpt>
      <trkpt lat="47.84594" lon="2.24506">
        <ele>102</ele>
        <time>2017-05-07T09:13:27.366Z</time>
      </trkpt>
      <trkpt lat="47.84594" lon="2.24506">
        <ele>102</ele>
        <time>2017-05-07T09:13:28.372Z</time>
      </trkpt>
      <trkpt lat="47.84606" lon="2.24513">
        <ele>103</ele>
        <time>2017-05-07T09:13:29.381Z</time>
      </trkpt>
      <trkpt lat="47.84606" lon="2.24513">
        <ele>103</ele>
        <time>2017-05-07T09:13:30.370Z</time>
      </trkpt>
      <trkpt lat="47.84617" lon="2.2452">
        <ele>103</ele>
        <time>2017-05-07T09:13:31.375Z</time>
      </trkpt>
      <trkpt lat="47.84617" lon="2.2452">
        <ele>103</ele>
        <time>2017-05-07T09:13:32.369Z</time>
      </trkpt>
      <trkpt lat="47.84627" lon="2.24526">
        <ele>103</ele>
        <time>2017-05-07T09:13:33.375Z</time>
      </trkpt>
      <trkpt lat="47.84627" lon="2.24526">
        <ele>103</ele>
        <time>2017-05-07T09:13:34.368Z</time>
      </trkpt>
      <trkpt lat="47.84637" lon="2.24531">
        <ele>103</ele>
        <time>2017-05-07T09:13:35.376Z</time>
      </trkpt>
      <trkpt lat="47.84641" lon="2.24536">
        <ele>104</ele>
        <time>2017-05-07T09:13:36.386Z</time>
      </trkpt>
      <trkpt lat="47.84645" lon="2.2454">
        <ele>104</ele>
        <time>2017-05-07T09:13:37.376Z</time>
      </trkpt>
      <trkpt lat="47.84645" lon="2.2454">
        <ele>104</ele>
        <time>2017-05-07T09:13:38.369Z</time>
      </trkpt>
      <trkpt lat="47.84654" lon="2.24546">
        <ele>104</ele>
        <time>2017-05-07T09:13:39.376Z</time>
      </trkpt>
      <trkpt lat="47.84654" lon="2.24546">
        <ele>104</ele>
        <time>2017-05-07T09:13:40.367Z</time>
      </trkpt>
      <trkpt lat="47.84662" lon="2.24551">
        <ele>105</ele>
        <time>2017-05-07T09:13:41.375Z</time>
      </trkpt>
      <trkpt lat="47.84666" lon="2.24553">
        <ele>105</ele>
        <time>2017-05-07T09:13:42.376Z</time>
      </trkpt>
      <trkpt lat="47.84669" lon="2.24555">
        <ele>105</ele>
        <time>2017-05-07T09:13:43.375Z</time>
      </trkpt>
      <trkpt lat="47.84669" lon="2.24555">
        <ele>105</ele>
        <time>2017-05-07T09:13:44.369Z</time>
      </trkpt>
      <trkpt lat="47.84676" lon="2.24557">
        <ele>106</ele>
        <time>2017-05-07T09:13:45.375Z</time>
      </trkpt>
      <trkpt lat="47.84676" lon="2.24557">
        <ele>106</ele>
        <time>2017-05-07T09:13:46.369Z</time>
      </trkpt>
      <trkpt lat="47.84682" lon="2.24559">
        <ele>106</ele>
        <time>2017-05-07T09:13:47.375Z</time>
      </trkpt>
      <trkpt lat="47.84684" lon="2.24559">
        <ele>106</ele>
        <time>2017-05-07T09:13:48.380Z</time>
      </trkpt>
      <trkpt lat="47.84684" lon="2.24559">
        <ele>106</ele>
        <time>2017-05-07T09:13:49.372Z</time>
      </trkpt>
      <trkpt lat="47.84688" lon="2.24559">
        <ele>106</ele>
        <time>2017-05-07T09:13:50.375Z</time>
      </trkpt>
      <trkpt lat="47.84689" lon="2.24559">
        <ele>106</ele>
        <time>2017-05-07T09:13:51.376Z</time>
      </trkpt>
      <trkpt lat="47.84689" lon="2.24559">
        <ele>106</ele>
        <time>2017-05-07T09:13:52.378Z</time>
      </trkpt>
      <trkpt lat="47.84692" lon="2.24559">
        <ele>107</ele>
        <time>2017-05-07T09:13:53.377Z</time>
      </trkpt>
      <trkpt lat="47.84692" lon="2.24559">
        <ele>107</ele>
        <time>2017-05-07T09:13:54.393Z</time>
      </trkpt>
      <trkpt lat="47.84692" lon="2.24558">
        <ele>107</ele>
        <time>2017-05-07T09:13:55.380Z</time>
      </trkpt>
      <trkpt lat="47.84692" lon="2.24558">
        <ele>107</ele>
        <time>2017-05-07T09:13:56.375Z</time>
      </trkpt>
      <trkpt lat="47.84693" lon="2.24558">
        <ele>108</ele>
        <time>2017-05-07T09:13:57.356Z</time>
      </trkpt>
      <trkpt lat="47.84693" lon="2.24558">
        <ele>108</ele>
        <time>2017-05-07T09:13:58.383Z</time>
      </trkpt>
      <trkpt lat="47.8468" lon="2.24555">
        <ele>115</ele>
        <time>2017-05-07T09:13:59.391Z</time>
      </trkpt>
      <trkpt lat="47.8468" lon="2.24555">
        <ele>115</ele>
        <time>2017-05-07T09:14:00.371Z</time>
      </trkpt>
      <trkpt lat="47.84675" lon="2.24555">
        <ele>115</ele>
        <time>2017-05-07T09:14:01.377Z</time>
      </trkpt>
      <trkpt lat="47.84675" lon="2.24555">
        <ele>115</ele>
        <time>2017-05-07T09:14:02.383Z</time>
      </trkpt>
      <trkpt lat="47.84669" lon="2.24554">
        <ele>114</ele>
        <time>2017-05-07T09:14:03.391Z</time>
      </trkpt>
      <trkpt lat="47.84669" lon="2.24554">
        <ele>114</ele>
        <time>2017-05-07T09:14:04.381Z</time>
      </trkpt>
      <trkpt lat="47.84663" lon="2.24551">
        <ele>114</ele>
        <time>2017-05-07T09:14:05.379Z</time>
      </trkpt>
      <trkpt lat="47.84663" lon="2.24551">
        <ele>114</ele>
        <time>2017-05-07T09:14:06.378Z</time>
      </trkpt>
      <trkpt lat="47.84656" lon="2.24547">
        <ele>113</ele>
        <time>2017-05-07T09:14:07.377Z</time>
      </trkpt>
      <trkpt lat="47.84656" lon="2.24547">
        <ele>113</ele>
        <time>2017-05-07T09:14:08.376Z</time>
      </trkpt>
      <trkpt lat="47.84649" lon="2.24543">
        <ele>113</ele>
        <time>2017-05-07T09:14:09.383Z</time>
      </trkpt>
      <trkpt lat="47.84649" lon="2.24543">
        <ele>113</ele>
        <time>2017-05-07T09:14:10.374Z</time>
      </trkpt>
      <trkpt lat="47.84642" lon="2.24538">
        <ele>112</ele>
        <time>2017-05-07T09:14:11.376Z</time>
      </trkpt>
      <trkpt lat="47.84642" lon="2.24538">
        <ele>112</ele>
        <time>2017-05-07T09:14:12.377Z</time>
      </trkpt>
      <trkpt lat="47.84635" lon="2.24532">
        <ele>111</ele>
        <time>2017-05-07T09:14:13.377Z</time>
      </trkpt>
      <trkpt lat="47.84635" lon="2.24532">
        <ele>111</ele>
        <time>2017-05-07T09:14:14.375Z</time>
      </trkpt>
      <trkpt lat="47.84627" lon="2.24526">
        <ele>110</ele>
        <time>2017-05-07T09:14:15.390Z</time>
      </trkpt>
      <trkpt lat="47.84627" lon="2.24526">
        <ele>110</ele>
        <time>2017-05-07T09:14:16.377Z</time>
      </trkpt>
      <trkpt lat="47.84619" lon="2.2452">
        <ele>109</ele>
        <time>2017-05-07T09:14:17.379Z</time>
      </trkpt>
      <trkpt lat="47.84619" lon="2.2452">
        <ele>109</ele>
        <time>2017-05-07T09:14:18.375Z</time>
      </trkpt>
      <trkpt lat="47.84611" lon="2.24513">
        <ele>109</ele>
        <time>2017-05-07T09:14:19.377Z</time>
      </trkpt>
      <trkpt lat="47.84607" lon="2.2451">
        <ele>109</ele>
        <time>2017-05-07T09:14:20.379Z</time>
      </trkpt>
      <trkpt lat="47.84607" lon="2.2451">
        <ele>109</ele>
        <time>2017-05-07T09:14:21.378Z</time>
      </trkpt>
      <trkpt lat="47.846" lon="2.24505">
        <ele>109</ele>
        <time>2017-05-07T09:14:22.377Z</time>
      </trkpt>
      <trkpt lat="47.846" lon="2.24505">
        <ele>109</ele>
        <time>2017-05-07T09:14:23.376Z</time>
      </trkpt>
      <trkpt lat="47.84592" lon="2.245">
        <ele>109</ele>
        <time>2017-05-07T09:14:24.378Z</time>
      </trkpt>
      <trkpt lat="47.84592" lon="2.245">
        <ele>109</ele>
        <time>2017-05-07T09:14:25.389Z</time>
      </trkpt>
      <trkpt lat="47.84584" lon="2.24495">
        <ele>109</ele>
        <time>2017-05-07T09:14:26.390Z</time>
      </trkpt>
      <trkpt lat="47.84584" lon="2.24495">
        <ele>109</ele>
        <time>2017-05-07T09:14:27.382Z</time>
      </trkpt>
      <trkpt lat="47.84576" lon="2.2449">
        <ele>108</ele>
        <time>2017-05-07T09:14:28.378Z</time>
      </trkpt>
      <trkpt lat="47.84576" lon="2.2449">
        <ele>108</ele>
        <time>2017-05-07T09:14:29.386Z</time>
      </trkpt>
      <trkpt lat="47.84568" lon="2.24483">
        <ele>108</ele>
        <time>2017-05-07T09:14:30.377Z</time>
      </trkpt>
      <trkpt lat="47.84568" lon="2.24483">
        <ele>108</ele>
        <time>2017-05-07T09:14:31.374Z</time>
      </trkpt>
      <trkpt lat="47.84562" lon="2.24474">
        <ele>108</ele>
        <time>2017-05-07T09:14:32.379Z</time>
      </trkpt>
      <trkpt lat="47.84559" lon="2.2447">
        <ele>108</ele>
        <time>2017-05-07T09:14:33.383Z</time>
      </trkpt>
      <trkpt lat="47.84559" lon="2.2447">
        <ele>108</ele>
        <time>2017-05-07T09:14:34.376Z</time>
      </trkpt>
      <trkpt lat="47.84552" lon="2.24461">
        <ele>108</ele>
        <time>2017-05-07T09:14:35.380Z</time>
      </trkpt>
      <trkpt lat="47.84552" lon="2.24461">
        <ele>108</ele>
        <time>2017-05-07T09:14:36.377Z</time>
      </trkpt>
      <trkpt lat="47.84545" lon="2.24454">
        <ele>107</ele>
        <time>2017-05-07T09:14:37.377Z</time>
      </trkpt>
      <trkpt lat="47.84545" lon="2.24454">
        <ele>107</ele>
        <time>2017-05-07T09:14:38.375Z</time>
      </trkpt>
      <trkpt lat="47.84536" lon="2.24448">
        <ele>106</ele>
        <time>2017-05-07T09:14:39.384Z</time>
      </trkpt>
      <trkpt lat="47.84536" lon="2.24448">
        <ele>106</ele>
        <time>2017-05-07T09:14:40.376Z</time>
      </trkpt>
      <trkpt lat="47.84526" lon="2.24444">
        <ele>106</ele>
        <time>2017-05-07T09:14:41.379Z</time>
      </trkpt>
      <trkpt lat="47.84521" lon="2.24442">
        <ele>106</ele>
        <time>2017-05-07T09:14:42.380Z</time>
      </trkpt>
      <trkpt lat="47.84521" lon="2.24442">
        <ele>106</ele>
        <time>2017-05-07T09:14:43.381Z</time>
      </trkpt>
      <trkpt lat="47.84512" lon="2.24439">
        <ele>106</ele>
        <time>2017-05-07T09:14:44.380Z</time>
      </trkpt>
      <trkpt lat="47.84508" lon="2.24438">
        <ele>106</ele>
        <time>2017-05-07T09:14:45.384Z</time>
      </trkpt>
      <trkpt lat="47.84508" lon="2.24438">
        <ele>106</ele>
        <time>2017-05-07T09:14:46.376Z</time>
      </trkpt>
      <trkpt lat="47.84499" lon="2.24435">
        <ele>105</ele>
        <time>2017-05-07T09:14:47.377Z</time>
      </trkpt>
      <trkpt lat="47.84499" lon="2.24435">
        <ele>105</ele>
        <time>2017-05-07T09:14:48.377Z</time>
      </trkpt>
      <trkpt lat="47.8449" lon="2.24433">
        <ele>105</ele>
        <time>2017-05-07T09:14:49.378Z</time>
      </trkpt>
      <trkpt lat="47.8449" lon="2.24433">
        <ele>105</ele>
        <time>2017-05-07T09:14:50.378Z</time>
      </trkpt>
      <trkpt lat="47.84482" lon="2.24428">
        <ele>104</ele>
        <time>2017-05-07T09:14:51.385Z</time>
      </trkpt>
      <trkpt lat="47.84482" lon="2.24428">
        <ele>104</ele>
        <time>2017-05-07T09:14:52.377Z</time>
      </trkpt>
      <trkpt lat="47.84476" lon="2.24421">
        <ele>104</ele>
        <time>2017-05-07T09:14:53.377Z</time>
      </trkpt>
      <trkpt lat="47.84476" lon="2.24421">
        <ele>104</ele>
        <time>2017-05-07T09:14:54.378Z</time>
      </trkpt>
      <trkpt lat="47.84469" lon="2.24412">
        <ele>104</ele>
        <time>2017-05-07T09:14:55.381Z</time>
      </trkpt>
      <trkpt lat="47.84469" lon="2.24412">
        <ele>104</ele>
        <time>2017-05-07T09:14:56.376Z</time>
      </trkpt>
      <trkpt lat="47.84463" lon="2.24404">
        <ele>104</ele>
        <time>2017-05-07T09:14:57.383Z</time>
      </trkpt>
      <trkpt lat="47.84463" lon="2.24404">
        <ele>104</ele>
        <time>2017-05-07T09:14:58.378Z</time>
      </trkpt>
      <trkpt lat="47.84458" lon="2.24396">
        <ele>104</ele>
        <time>2017-05-07T09:14:59.368Z</time>
      </trkpt>
      <trkpt lat="47.84458" lon="2.24396">
        <ele>104</ele>
        <time>2017-05-07T09:15:00.371Z</time>
      </trkpt>
      <trkpt lat="47.84453" lon="2.24386">
        <ele>104</ele>
        <time>2017-05-07T09:15:01.383Z</time>
      </trkpt>
      <trkpt lat="47.84449" lon="2.24382">
        <ele>104</ele>
        <time>2017-05-07T09:15:02.377Z</time>
      </trkpt>
      <trkpt lat="47.84449" lon="2.24382">
        <ele>104</ele>
        <time>2017-05-07T09:15:03.368Z</time>
      </trkpt>
      <trkpt lat="47.84442" lon="2.24374">
        <ele>104</ele>
        <time>2017-05-07T09:15:04.374Z</time>
      </trkpt>
      <trkpt lat="47.84438" lon="2.2437">
        <ele>104</ele>
        <time>2017-05-07T09:15:05.378Z</time>
      </trkpt>
      <trkpt lat="47.84438" lon="2.2437">
        <ele>104</ele>
        <time>2017-05-07T09:15:06.374Z</time>
      </trkpt>
      <trkpt lat="47.84431" lon="2.24363">
        <ele>104</ele>
        <time>2017-05-07T09:15:07.378Z</time>
      </trkpt>
      <trkpt lat="47.84431" lon="2.24363">
        <ele>104</ele>
        <time>2017-05-07T09:15:08.373Z</time>
      </trkpt>
      <trkpt lat="47.84423" lon="2.24355">
        <ele>104</ele>
        <time>2017-05-07T09:15:09.381Z</time>
      </trkpt>
      <trkpt lat="47.84423" lon="2.24355">
        <ele>104</ele>
        <time>2017-05-07T09:15:10.376Z</time>
      </trkpt>
      <trkpt lat="47.84415" lon="2.24348">
        <ele>104</ele>
        <time>2017-05-07T09:15:11.378Z</time>
      </trkpt>
      <trkpt lat="47.84415" lon="2.24348">
        <ele>104</ele>
        <time>2017-05-07T09:15:12.368Z</time>
      </trkpt>
      <trkpt lat="47.84407" lon="2.24342">
        <ele>104</ele>
        <time>2017-05-07T09:15:13.359Z</time>
      </trkpt>
      <trkpt lat="47.84407" lon="2.24342">
        <ele>104</ele>
        <time>2017-05-07T09:15:14.388Z</time>
      </trkpt>
      <trkpt lat="47.844" lon="2.24337">
        <ele>104</ele>
        <time>2017-05-07T09:15:15.380Z</time>
      </trkpt>
      <trkpt lat="47.844" lon="2.24337">
        <ele>104</ele>
        <time>2017-05-07T09:15:16.377Z</time>
      </trkpt>
      <trkpt lat="47.84395" lon="2.24333">
        <ele>103</ele>
        <time>2017-05-07T09:15:17.380Z</time>
      </trkpt>
      <trkpt lat="47.84395" lon="2.24333">
        <ele>103</ele>
        <time>2017-05-07T09:15:18.375Z</time>
      </trkpt>
      <trkpt lat="47.84391" lon="2.2433">
        <ele>103</ele>
        <time>2017-05-07T09:15:19.380Z</time>
      </trkpt>
      <trkpt lat="47.84391" lon="2.2433">
        <ele>103</ele>
        <time>2017-05-07T09:15:20.375Z</time>
      </trkpt>
      <trkpt lat="47.84391" lon="2.2433">
        <ele>103</ele>
        <time>2017-05-07T09:15:21.381Z</time>
      </trkpt>
      <trkpt lat="47.84391" lon="2.2433">
        <ele>103</ele>
        <time>2017-05-07T09:15:22.375Z</time>
      </trkpt>
      <trkpt lat="47.84391" lon="2.2433">
        <ele>103</ele>
        <time>2017-05-07T09:15:23.378Z</time>
      </trkpt>
      <trkpt lat="47.84391" lon="2.2433">
        <ele>103</ele>
        <time>2017-05-07T09:15:24.371Z</time>
      </trkpt>
      <trkpt lat="47.844" lon="2.24335">
        <ele>101</ele>
        <time>2017-05-07T09:15:25.374Z</time>
      </trkpt>
      <trkpt lat="47.844" lon="2.24335">
        <ele>101</ele>
        <time>2017-05-07T09:15:26.372Z</time>
      </trkpt>
      <trkpt lat="47.84404" lon="2.24338">
        <ele>101</ele>
        <time>2017-05-07T09:15:27.377Z</time>
      </trkpt>
      <trkpt lat="47.84404" lon="2.24338">
        <ele>101</ele>
        <time>2017-05-07T09:15:28.371Z</time>
      </trkpt>
      <trkpt lat="47.8441" lon="2.24342">
        <ele>100</ele>
        <time>2017-05-07T09:15:29.385Z</time>
      </trkpt>
      <trkpt lat="47.8441" lon="2.24342">
        <ele>100</ele>
        <time>2017-05-07T09:15:30.375Z</time>
      </trkpt>
      <trkpt lat="47.84416" lon="2.24348">
        <ele>101</ele>
        <time>2017-05-07T09:15:31.376Z</time>
      </trkpt>
      <trkpt lat="47.84416" lon="2.24348">
        <ele>101</ele>
        <time>2017-05-07T09:15:32.371Z</time>
      </trkpt>
      <trkpt lat="47.84423" lon="2.24355">
        <ele>101</ele>
        <time>2017-05-07T09:15:33.375Z</time>
      </trkpt>
      <trkpt lat="47.84423" lon="2.24355">
        <ele>101</ele>
        <time>2017-05-07T09:15:34.370Z</time>
      </trkpt>
      <trkpt lat="47.8443" lon="2.24361">
        <ele>101</ele>
        <time>2017-05-07T09:15:35.379Z</time>
      </trkpt>
      <trkpt lat="47.8443" lon="2.24361">
        <ele>101</ele>
        <time>2017-05-07T09:15:36.371Z</time>
      </trkpt>
      <trkpt lat="47.84437" lon="2.24368">
        <ele>101</ele>
        <time>2017-05-07T09:15:37.378Z</time>
      </trkpt>
      <trkpt lat="47.84441" lon="2.24371">
        <ele>101</ele>
        <time>2017-05-07T09:15:38.375Z</time>
      </trkpt>
      <trkpt lat="47.84441" lon="2.24371">
        <ele>101</ele>
        <time>2017-05-07T09:15:39.377Z</time>
      </trkpt>
      <trkpt lat="47.84448" lon="2.24379">
        <ele>101</ele>
        <time>2017-05-07T09:15:40.376Z</time>
      </trkpt>
      <trkpt lat="47.84452" lon="2.24383">
        <ele>101</ele>
        <time>2017-05-07T09:15:41.361Z</time>
      </trkpt>
      <trkpt lat="47.84452" lon="2.24383">
        <ele>101</ele>
        <time>2017-05-07T09:15:42.355Z</time>
      </trkpt>
      <trkpt lat="47.84458" lon="2.24394">
        <ele>101</ele>
        <time>2017-05-07T09:15:43.386Z</time>
      </trkpt>
      <trkpt lat="47.84458" lon="2.24394">
        <ele>101</ele>
        <time>2017-05-07T09:15:44.375Z</time>
      </trkpt>
      <trkpt lat="47.84464" lon="2.24405">
        <ele>101</ele>
        <time>2017-05-07T09:15:45.376Z</time>
      </trkpt>
      <trkpt lat="47.84464" lon="2.24405">
        <ele>101</ele>
        <time>2017-05-07T09:15:46.376Z</time>
      </trkpt>
      <trkpt lat="47.8447" lon="2.24416">
        <ele>101</ele>
        <time>2017-05-07T09:15:47.379Z</time>
      </trkpt>
      <trkpt lat="47.8447" lon="2.24416">
        <ele>101</ele>
        <time>2017-05-07T09:15:48.371Z</time>
      </trkpt>
      <trkpt lat="47.84477" lon="2.24424">
        <ele>100</ele>
        <time>2017-05-07T09:15:49.384Z</time>
      </trkpt>
      <trkpt lat="47.84481" lon="2.24429">
        <ele>101</ele>
        <time>2017-05-07T09:15:50.383Z</time>
      </trkpt>
      <trkpt lat="47.84481" lon="2.24429">
        <ele>101</ele>
        <time>2017-05-07T09:15:51.374Z</time>
      </trkpt>
      <trkpt lat="47.84488" lon="2.24436">
        <ele>101</ele>
        <time>2017-05-07T09:15:52.380Z</time>
      </trkpt>
      <trkpt lat="47.84493" lon="2.24439">
        <ele>101</ele>
        <time>2017-05-07T09:15:53.380Z</time>
      </trkpt>
      <trkpt lat="47.84493" lon="2.24439">
        <ele>101</ele>
        <time>2017-05-07T09:15:54.371Z</time>
      </trkpt>
      <trkpt lat="47.84502" lon="2.24445">
        <ele>101</ele>
        <time>2017-05-07T09:15:55.376Z</time>
      </trkpt>
      <trkpt lat="47.84502" lon="2.24445">
        <ele>101</ele>
        <time>2017-05-07T09:15:56.372Z</time>
      </trkpt>
      <trkpt lat="47.84511" lon="2.24448">
        <ele>101</ele>
        <time>2017-05-07T09:15:57.379Z</time>
      </trkpt>
      <trkpt lat="47.84511" lon="2.24448">
        <ele>101</ele>
        <time>2017-05-07T09:15:58.375Z</time>
      </trkpt>
      <trkpt lat="47.8452" lon="2.24453">
        <ele>102</ele>
        <time>2017-05-07T09:15:59.375Z</time>
      </trkpt>
      <trkpt lat="47.8452" lon="2.24453">
        <ele>102</ele>
        <time>2017-05-07T09:16:00.376Z</time>
      </trkpt>
      <trkpt lat="47.84528" lon="2.24459">
        <ele>102</ele>
        <time>2017-05-07T09:16:01.382Z</time>
      </trkpt>
      <trkpt lat="47.84528" lon="2.24459">
        <ele>102</ele>
        <time>2017-05-07T09:16:02.388Z</time>
      </trkpt>
      <trkpt lat="47.84536" lon="2.24466">
        <ele>102</ele>
        <time>2017-05-07T09:16:03.378Z</time>
      </trkpt>
      <trkpt lat="47.84536" lon="2.24466">
        <ele>102</ele>
        <time>2017-05-07T09:16:04.375Z</time>
      </trkpt>
      <trkpt lat="47.84545" lon="2.24474">
        <ele>102</ele>
        <time>2017-05-07T09:16:05.376Z</time>
      </trkpt>
      <trkpt lat="47.84545" lon="2.24474">
        <ele>102</ele>
        <time>2017-05-07T09:16:06.386Z</time>
      </trkpt>
      <trkpt lat="47.84554" lon="2.24482">
        <ele>102</ele>
        <time>2017-05-07T09:16:07.377Z</time>
      </trkpt>
      <trkpt lat="47.84554" lon="2.24482">
        <ele>102</ele>
        <time>2017-05-07T09:16:08.373Z</time>
      </trkpt>
      <trkpt lat="47.84562" lon="2.24489">
        <ele>102</ele>
        <time>2017-05-07T09:16:09.371Z</time>
      </trkpt>
      <trkpt lat="47.84562" lon="2.24489">
        <ele>102</ele>
        <time>2017-05-07T09:16:10.364Z</time>
      </trkpt>
      <trkpt lat="47.84571" lon="2.24496">
        <ele>102</ele>
        <time>2017-05-07T09:16:11.375Z</time>
      </trkpt>
      <trkpt lat="47.84571" lon="2.24496">
        <ele>102</ele>
        <time>2017-05-07T09:16:12.373Z</time>
      </trkpt>
      <trkpt lat="47.84581" lon="2.24501">
        <ele>103</ele>
        <time>2017-05-07T09:16:13.374Z</time>
      </trkpt>
      <trkpt lat="47.84581" lon="2.24501">
        <ele>103</ele>
        <time>2017-05-07T09:16:14.373Z</time>
      </trkpt>
      <trkpt lat="47.8459" lon="2.24507">
        <ele>103</ele>
        <time>2017-05-07T09:16:15.374Z</time>
      </trkpt>
      <trkpt lat="47.84595" lon="2.24509">
        <ele>103</ele>
        <time>2017-05-07T09:16:16.375Z</time>
      </trkpt>
      <trkpt lat="47.84595" lon="2.24509">
        <ele>103</ele>
        <time>2017-05-07T09:16:17.373Z</time>
      </trkpt>
      <trkpt lat="47.84603" lon="2.24515">
        <ele>102</ele>
        <time>2017-05-07T09:16:18.375Z</time>
      </trkpt>
      <trkpt lat="47.84603" lon="2.24515">
        <ele>102</ele>
        <time>2017-05-07T09:16:19.373Z</time>
      </trkpt>
      <trkpt lat="47.84611" lon="2.2452">
        <ele>103</ele>
        <time>2017-05-07T09:16:20.387Z</time>
      </trkpt>
      <trkpt lat="47.84615" lon="2.24522">
        <ele>103</ele>
        <time>2017-05-07T09:16:21.377Z</time>
      </trkpt>
      <trkpt lat="47.84615" lon="2.24522">
        <ele>103</ele>
        <time>2017-05-07T09:16:22.373Z</time>
      </trkpt>
      <trkpt lat="47.84622" lon="2.24525">
        <ele>103</ele>
        <time>2017-05-07T09:16:23.376Z</time>
      </trkpt>
      <trkpt lat="47.84626" lon="2.24526">
        <ele>103</ele>
        <time>2017-05-07T09:16:24.375Z</time>
      </trkpt>
      <trkpt lat="47.84626" lon="2.24526">
        <ele>103</ele>
        <time>2017-05-07T09:16:25.370Z</time>
      </trkpt>
      <trkpt lat="47.84635" lon="2.2453">
        <ele>103</ele>
        <time>2017-05-07T09:16:26.374Z</time>
      </trkpt>
      <trkpt lat="47.84639" lon="2.24533">
        <ele>103</ele>
        <time>2017-05-07T09:16:27.374Z</time>
      </trkpt>
      <trkpt lat="47.84639" lon="2.24533">
        <ele>103</ele>
        <time>2017-05-07T09:16:28.372Z</time>
      </trkpt>
      <trkpt lat="47.84647" lon="2.2454">
        <ele>103</ele>
        <time>2017-05-07T09:16:29.374Z</time>
      </trkpt>
      <trkpt lat="47.84647" lon="2.2454">
        <ele>103</ele>
        <time>2017-05-07T09:16:30.372Z</time>
      </trkpt>
      <trkpt lat="47.84654" lon="2.24546">
        <ele>103</ele>
        <time>2017-05-07T09:16:31.375Z</time>
      </trkpt>
      <trkpt lat="47.84654" lon="2.24546">
        <ele>103</ele>
        <time>2017-05-07T09:16:32.372Z</time>
      </trkpt>
      <trkpt lat="47.84662" lon="2.24551">
        <ele>104</ele>
        <time>2017-05-07T09:16:33.371Z</time>
      </trkpt>
      <trkpt lat="47.84665" lon="2.24553">
        <ele>104</ele>
        <time>2017-05-07T09:16:34.373Z</time>
      </trkpt>
      <trkpt lat="47.84665" lon="2.24553">
        <ele>104</ele>
        <time>2017-05-07T09:16:35.371Z</time>
      </trkpt>
      <trkpt lat="47.84673" lon="2.24557">
        <ele>104</ele>
        <time>2017-05-07T09:16:36.373Z</time>
      </trkpt>
      <trkpt lat="47.84673" lon="2.24557">
        <ele>104</ele>
        <time>2017-05-07T09:16:37.387Z</time>
      </trkpt>
      <trkpt lat="47.8468" lon="2.24559">
        <ele>104</ele>
        <time>2017-05-07T09:16:38.376Z</time>
      </trkpt>
      <trkpt lat="47.84684" lon="2.24559">
        <ele>104</ele>
        <time>2017-05-07T09:16:39.374Z</time>
      </trkpt>
      <trkpt lat="47.84684" lon="2.24559">
        <ele>104</ele>
        <time>2017-05-07T09:16:40.372Z</time>
      </trkpt>
      <trkpt lat="47.84691" lon="2.24559">
        <ele>105</ele>
        <time>2017-05-07T09:16:41.375Z</time>
      </trkpt>
      <trkpt lat="47.84691" lon="2.24559">
        <ele>105</ele>
        <time>2017-05-07T09:16:42.370Z</time>
      </trkpt>
      <trkpt lat="47.84698" lon="2.24556">
        <ele>105</ele>
        <time>2017-05-07T09:16:43.372Z</time>
      </trkpt>
      <trkpt lat="47.84698" lon="2.24556">
        <ele>105</ele>
        <time>2017-05-07T09:16:44.371Z</time>
      </trkpt>
      <trkpt lat="47.84704" lon="2.24554">
        <ele>106</ele>
        <time>2017-05-07T09:16:45.374Z</time>
      </trkpt>
      <trkpt lat="47.84704" lon="2.24554">
        <ele>106</ele>
        <time>2017-05-07T09:16:46.379Z</time>
      </trkpt>
      <trkpt lat="47.84713" lon="2.24552">
        <ele>107</ele>
        <time>2017-05-07T09:16:47.375Z</time>
      </trkpt>
      <trkpt lat="47.84713" lon="2.24552">
        <ele>107</ele>
        <time>2017-05-07T09:16:48.371Z</time>
      </trkpt>
      <trkpt lat="47.84722" lon="2.24551">
        <ele>107</ele>
        <time>2017-05-07T09:16:49.373Z</time>
      </trkpt>
      <trkpt lat="47.84726" lon="2.24551">
        <ele>107</ele>
        <time>2017-05-07T09:16:50.373Z</time>
      </trkpt>
      <trkpt lat="47.84731" lon="2.2455">
        <ele>107</ele>
        <time>2017-05-07T09:16:51.380Z</time>
      </trkpt>
      <trkpt lat="47.84731" lon="2.2455">
        <ele>107</ele>
        <time>2017-05-07T09:16:52.394Z</time>
      </trkpt>
      <trkpt lat="47.8474" lon="2.24551">
        <ele>108</ele>
        <time>2017-05-07T09:16:53.386Z</time>
      </trkpt>
      <trkpt lat="47.8474" lon="2.24551">
        <ele>108</ele>
        <time>2017-05-07T09:16:54.374Z</time>
      </trkpt>
      <trkpt lat="47.8475" lon="2.24553">
        <ele>109</ele>
        <time>2017-05-07T09:16:55.374Z</time>
      </trkpt>
      <trkpt lat="47.84756" lon="2.24553">
        <ele>110</ele>
        <time>2017-05-07T09:16:56.374Z</time>
      </trkpt>
      <trkpt lat="47.84756" lon="2.24553">
        <ele>110</ele>
        <time>2017-05-07T09:16:57.392Z</time>
      </trkpt>
      <trkpt lat="47.84766" lon="2.24553">
        <ele>110</ele>
        <time>2017-05-07T09:16:58.356Z</time>
      </trkpt>
      <trkpt lat="47.84766" lon="2.24553">
        <ele>110</ele>
        <time>2017-05-07T09:16:59.386Z</time>
      </trkpt>
      <trkpt lat="47.84776" lon="2.24553">
        <ele>110</ele>
        <time>2017-05-07T09:17:00.357Z</time>
      </trkpt>
      <trkpt lat="47.84776" lon="2.24553">
        <ele>110</ele>
        <time>2017-05-07T09:17:01.361Z</time>
      </trkpt>
      <trkpt lat="47.84787" lon="2.24556">
        <ele>109</ele>
        <time>2017-05-07T09:17:02.368Z</time>
      </trkpt>
      <trkpt lat="47.84793" lon="2.24559">
        <ele>108</ele>
        <time>2017-05-07T09:17:03.373Z</time>
      </trkpt>
      <trkpt lat="47.84793" lon="2.24559">
        <ele>108</ele>
        <time>2017-05-07T09:17:04.385Z</time>
      </trkpt>
      <trkpt lat="47.84805" lon="2.24561">
        <ele>106</ele>
        <time>2017-05-07T09:17:05.375Z</time>
      </trkpt>
      <trkpt lat="47.84805" lon="2.24561">
        <ele>106</ele>
        <time>2017-05-07T09:17:06.370Z</time>
      </trkpt>
      <trkpt lat="47.84818" lon="2.24563">
        <ele>105</ele>
        <time>2017-05-07T09:17:07.376Z</time>
      </trkpt>
      <trkpt lat="47.84818" lon="2.24563">
        <ele>105</ele>
        <time>2017-05-07T09:17:08.370Z</time>
      </trkpt>
      <trkpt lat="47.84829" lon="2.24565">
        <ele>104</ele>
        <time>2017-05-07T09:17:09.374Z</time>
      </trkpt>
      <trkpt lat="47.84835" lon="2.24566">
        <ele>103</ele>
        <time>2017-05-07T09:17:10.376Z</time>
      </trkpt>
      <trkpt lat="47.8484" lon="2.24567">
        <ele>103</ele>
        <time>2017-05-07T09:17:11.387Z</time>
      </trkpt>
      <trkpt lat="47.8484" lon="2.24567">
        <ele>103</ele>
        <time>2017-05-07T09:17:12.375Z</time>
      </trkpt>
      <trkpt lat="47.84851" lon="2.24568">
        <ele>102</ele>
        <time>2017-05-07T09:17:13.377Z</time>
      </trkpt>
      <trkpt lat="47.84856" lon="2.24569">
        <ele>101</ele>
        <time>2017-05-07T09:17:14.377Z</time>
      </trkpt>
      <trkpt lat="47.84856" lon="2.24569">
        <ele>101</ele>
        <time>2017-05-07T09:17:15.370Z</time>
      </trkpt>
      <trkpt lat="47.84867" lon="2.24568">
        <ele>100</ele>
        <time>2017-05-07T09:17:16.375Z</time>
      </trkpt>
      <trkpt lat="47.84872" lon="2.24568">
        <ele>101</ele>
        <time>2017-05-07T09:17:17.380Z</time>
      </trkpt>
      <trkpt lat="47.84872" lon="2.24568">
        <ele>101</ele>
        <time>2017-05-07T09:17:18.371Z</time>
      </trkpt>
      <trkpt lat="47.84883" lon="2.24567">
        <ele>101</ele>
        <time>2017-05-07T09:17:19.374Z</time>
      </trkpt>
      <trkpt lat="47.84883" lon="2.24567">
        <ele>101</ele>
        <time>2017-05-07T09:17:20.371Z</time>
      </trkpt>
      <trkpt lat="47.84894" lon="2.24566">
        <ele>101</ele>
        <time>2017-05-07T09:17:21.376Z</time>
      </trkpt>
      <trkpt lat="47.84894" lon="2.24566">
        <ele>101</ele>
        <time>2017-05-07T09:17:22.371Z</time>
      </trkpt>
      <trkpt lat="47.84905" lon="2.24565">
        <ele>101</ele>
        <time>2017-05-07T09:17:23.380Z</time>
      </trkpt>
      <trkpt lat="47.84905" lon="2.24565">
        <ele>101</ele>
        <time>2017-05-07T09:17:24.371Z</time>
      </trkpt>
      <trkpt lat="47.84918" lon="2.24565">
        <ele>103</ele>
        <time>2017-05-07T09:17:25.376Z</time>
      </trkpt>
      <trkpt lat="47.84918" lon="2.24565">
        <ele>103</ele>
        <time>2017-05-07T09:17:26.371Z</time>
      </trkpt>
      <trkpt lat="47.84931" lon="2.24564">
        <ele>104</ele>
        <time>2017-05-07T09:17:27.376Z</time>
      </trkpt>
      <trkpt lat="47.84931" lon="2.24564">
        <ele>104</ele>
        <time>2017-05-07T09:17:28.371Z</time>
      </trkpt>
      <trkpt lat="47.84942" lon="2.24563">
        <ele>104</ele>
        <time>2017-05-07T09:17:29.388Z</time>
      </trkpt>
      <trkpt lat="47.84948" lon="2.24562">
        <ele>104</ele>
        <time>2017-05-07T09:17:30.377Z</time>
      </trkpt>
      <trkpt lat="47.84948" lon="2.24562">
        <ele>104</ele>
        <time>2017-05-07T09:17:31.373Z</time>
      </trkpt>
      <trkpt lat="47.8496" lon="2.24562">
        <ele>103</ele>
        <time>2017-05-07T09:17:32.376Z</time>
      </trkpt>
      <trkpt lat="47.84966" lon="2.24562">
        <ele>103</ele>
        <time>2017-05-07T09:17:33.376Z</time>
      </trkpt>
      <trkpt lat="47.84966" lon="2.24562">
        <ele>103</ele>
        <time>2017-05-07T09:17:34.376Z</time>
      </trkpt>
      <trkpt lat="47.84976" lon="2.24563">
        <ele>102</ele>
        <time>2017-05-07T09:17:35.379Z</time>
      </trkpt>
      <trkpt lat="47.84976" lon="2.24563">
        <ele>102</ele>
        <time>2017-05-07T09:17:36.370Z</time>
      </trkpt>
      <trkpt lat="47.84987" lon="2.24565">
        <ele>103</ele>
        <time>2017-05-07T09:17:37.377Z</time>
      </trkpt>
      <trkpt lat="47.84987" lon="2.24565">
        <ele>103</ele>
        <time>2017-05-07T09:17:38.371Z</time>
      </trkpt>
      <trkpt lat="47.84998" lon="2.24566">
        <ele>102</ele>
        <time>2017-05-07T09:17:39.376Z</time>
      </trkpt>
      <trkpt lat="47.84998" lon="2.24566">
        <ele>102</ele>
        <time>2017-05-07T09:17:40.371Z</time>
      </trkpt>
      <trkpt lat="47.85008" lon="2.24567">
        <ele>102</ele>
        <time>2017-05-07T09:17:41.392Z</time>
      </trkpt>
      <trkpt lat="47.85008" lon="2.24567">
        <ele>102</ele>
        <time>2017-05-07T09:17:42.381Z</time>
      </trkpt>
      <trkpt lat="47.85018" lon="2.24571">
        <ele>102</ele>
        <time>2017-05-07T09:17:43.376Z</time>
      </trkpt>
      <trkpt lat="47.85018" lon="2.24571">
        <ele>102</ele>
        <time>2017-05-07T09:17:44.371Z</time>
      </trkpt>
      <trkpt lat="47.85027" lon="2.2458">
        <ele>102</ele>
        <time>2017-05-07T09:17:45.375Z</time>
      </trkpt>
      <trkpt lat="47.85027" lon="2.2458">
        <ele>102</ele>
        <time>2017-05-07T09:17:46.370Z</time>
      </trkpt>
      <trkpt lat="47.85034" lon="2.2459">
        <ele>103</ele>
        <time>2017-05-07T09:17:47.378Z</time>
      </trkpt>
      <trkpt lat="47.85037" lon="2.24594">
        <ele>103</ele>
        <time>2017-05-07T09:17:48.373Z</time>
      </trkpt>
      <trkpt lat="47.85037" lon="2.24594">
        <ele>103</ele>
        <time>2017-05-07T09:17:49.371Z</time>
      </trkpt>
      <trkpt lat="47.85043" lon="2.24596">
        <ele>104</ele>
        <time>2017-05-07T09:17:50.376Z</time>
      </trkpt>
      <trkpt lat="47.85043" lon="2.24596">
        <ele>104</ele>
        <time>2017-05-07T09:17:51.355Z</time>
      </trkpt>
      <trkpt lat="47.85048" lon="2.24592">
        <ele>104</ele>
        <time>2017-05-07T09:17:52.386Z</time>
      </trkpt>
      <trkpt lat="47.85051" lon="2.24589">
        <ele>105</ele>
        <time>2017-05-07T09:17:53.378Z</time>
      </trkpt>
      <trkpt lat="47.85051" lon="2.24589">
        <ele>105</ele>
        <time>2017-05-07T09:17:54.370Z</time>
      </trkpt>
      <trkpt lat="47.85058" lon="2.24583">
        <ele>105</ele>
        <time>2017-05-07T09:17:55.375Z</time>
      </trkpt>
      <trkpt lat="47.85058" lon="2.24583">
        <ele>105</ele>
        <time>2017-05-07T09:17:56.371Z</time>
      </trkpt>
      <trkpt lat="47.85065" lon="2.24575">
        <ele>105</ele>
        <time>2017-05-07T09:17:57.361Z</time>
      </trkpt>
      <trkpt lat="47.85065" lon="2.24575">
        <ele>105</ele>
        <time>2017-05-07T09:17:58.357Z</time>
      </trkpt>
      <trkpt lat="47.85075" lon="2.24568">
        <ele>105</ele>
        <time>2017-05-07T09:17:59.358Z</time>
      </trkpt>
      <trkpt lat="47.85075" lon="2.24568">
        <ele>105</ele>
        <time>2017-05-07T09:18:00.380Z</time>
      </trkpt>
      <trkpt lat="47.85086" lon="2.24564">
        <ele>104</ele>
        <time>2017-05-07T09:18:01.369Z</time>
      </trkpt>
      <trkpt lat="47.85091" lon="2.24561">
        <ele>105</ele>
        <time>2017-05-07T09:18:02.377Z</time>
      </trkpt>
      <trkpt lat="47.85091" lon="2.24561">
        <ele>105</ele>
        <time>2017-05-07T09:18:03.371Z</time>
      </trkpt>
      <trkpt lat="47.85101" lon="2.24557">
        <ele>104</ele>
        <time>2017-05-07T09:18:04.385Z</time>
      </trkpt>
      <trkpt lat="47.85101" lon="2.24557">
        <ele>104</ele>
        <time>2017-05-07T09:18:05.374Z</time>
      </trkpt>
      <trkpt lat="47.85111" lon="2.24553">
        <ele>104</ele>
        <time>2017-05-07T09:18:06.374Z</time>
      </trkpt>
      <trkpt lat="47.85111" lon="2.24553">
        <ele>104</ele>
        <time>2017-05-07T09:18:07.373Z</time>
      </trkpt>
      <trkpt lat="47.85122" lon="2.2455">
        <ele>104</ele>
        <time>2017-05-07T09:18:08.375Z</time>
      </trkpt>
      <trkpt lat="47.85128" lon="2.24549">
        <ele>104</ele>
        <time>2017-05-07T09:18:09.374Z</time>
      </trkpt>
      <trkpt lat="47.85128" lon="2.24549">
        <ele>104</ele>
        <time>2017-05-07T09:18:10.371Z</time>
      </trkpt>
      <trkpt lat="47.8514" lon="2.24548">
        <ele>104</ele>
        <time>2017-05-07T09:18:11.387Z</time>
      </trkpt>
      <trkpt lat="47.8514" lon="2.24548">
        <ele>104</ele>
        <time>2017-05-07T09:18:12.375Z</time>
      </trkpt>
      <trkpt lat="47.85151" lon="2.24545">
        <ele>105</ele>
        <time>2017-05-07T09:18:13.374Z</time>
      </trkpt>
      <trkpt lat="47.85151" lon="2.24545">
        <ele>105</ele>
        <time>2017-05-07T09:18:14.374Z</time>
      </trkpt>
      <trkpt lat="47.85161" lon="2.2454">
        <ele>105</ele>
        <time>2017-05-07T09:18:15.364Z</time>
      </trkpt>
      <trkpt lat="47.85161" lon="2.2454">
        <ele>105</ele>
        <time>2017-05-07T09:18:16.392Z</time>
      </trkpt>
      <trkpt lat="47.85171" lon="2.24534">
        <ele>105</ele>
        <time>2017-05-07T09:18:17.385Z</time>
      </trkpt>
      <trkpt lat="47.85171" lon="2.24534">
        <ele>105</ele>
        <time>2017-05-07T09:18:18.373Z</time>
      </trkpt>
      <trkpt lat="47.85182" lon="2.24528">
        <ele>104</ele>
        <time>2017-05-07T09:18:19.378Z</time>
      </trkpt>
      <trkpt lat="47.85182" lon="2.24528">
        <ele>104</ele>
        <time>2017-05-07T09:18:20.371Z</time>
      </trkpt>
      <trkpt lat="47.85194" lon="2.24523">
        <ele>103</ele>
        <time>2017-05-07T09:18:21.383Z</time>
      </trkpt>
      <trkpt lat="47.85194" lon="2.24523">
        <ele>103</ele>
        <time>2017-05-07T09:18:22.371Z</time>
      </trkpt>
      <trkpt lat="47.85206" lon="2.24517">
        <ele>102</ele>
        <time>2017-05-07T09:18:23.379Z</time>
      </trkpt>
      <trkpt lat="47.85206" lon="2.24517">
        <ele>102</ele>
        <time>2017-05-07T09:18:24.371Z</time>
      </trkpt>
      <trkpt lat="47.85217" lon="2.24511">
        <ele>102</ele>
        <time>2017-05-07T09:18:25.369Z</time>
      </trkpt>
      <trkpt lat="47.85217" lon="2.24511">
        <ele>102</ele>
        <time>2017-05-07T09:18:26.371Z</time>
      </trkpt>
      <trkpt lat="47.85228" lon="2.24505">
        <ele>101</ele>
        <time>2017-05-07T09:18:27.376Z</time>
      </trkpt>
      <trkpt lat="47.85233" lon="2.24502">
        <ele>101</ele>
        <time>2017-05-07T09:18:28.376Z</time>
      </trkpt>
      <trkpt lat="47.85238" lon="2.24499">
        <ele>101</ele>
        <time>2017-05-07T09:18:29.380Z</time>
      </trkpt>
      <trkpt lat="47.85238" lon="2.24499">
        <ele>101</ele>
        <time>2017-05-07T09:18:30.372Z</time>
      </trkpt>
      <trkpt lat="47.85248" lon="2.24492">
        <ele>101</ele>
        <time>2017-05-07T09:18:31.387Z</time>
      </trkpt>
      <trkpt lat="47.85248" lon="2.24492">
        <ele>101</ele>
        <time>2017-05-07T09:18:32.375Z</time>
      </trkpt>
      <trkpt lat="47.85258" lon="2.24486">
        <ele>100</ele>
        <time>2017-05-07T09:18:33.376Z</time>
      </trkpt>
      <trkpt lat="47.85258" lon="2.24486">
        <ele>100</ele>
        <time>2017-05-07T09:18:34.371Z</time>
      </trkpt>
      <trkpt lat="47.85268" lon="2.2448">
        <ele>100</ele>
        <time>2017-05-07T09:18:35.371Z</time>
      </trkpt>
      <trkpt lat="47.85268" lon="2.2448">
        <ele>100</ele>
        <time>2017-05-07T09:18:36.371Z</time>
      </trkpt>
      <trkpt lat="47.85279" lon="2.24474">
        <ele>100</ele>
        <time>2017-05-07T09:18:37.376Z</time>
      </trkpt>
      <trkpt lat="47.85279" lon="2.24474">
        <ele>100</ele>
        <time>2017-05-07T09:18:38.372Z</time>
      </trkpt>
      <trkpt lat="47.8529" lon="2.24468">
        <ele>100</ele>
        <time>2017-05-07T09:18:39.375Z</time>
      </trkpt>
      <trkpt lat="47.85295" lon="2.24465">
        <ele>100</ele>
        <time>2017-05-07T09:18:40.377Z</time>
      </trkpt>
      <trkpt lat="47.85295" lon="2.24465">
        <ele>100</ele>
        <time>2017-05-07T09:18:41.366Z</time>
      </trkpt>
      <trkpt lat="47.85306" lon="2.24457">
        <ele>100</ele>
        <time>2017-05-07T09:18:42.376Z</time>
      </trkpt>
      <trkpt lat="47.85306" lon="2.24457">
        <ele>100</ele>
        <time>2017-05-07T09:18:43.371Z</time>
      </trkpt>
      <trkpt lat="47.85316" lon="2.24451">
        <ele>100</ele>
        <time>2017-05-07T09:18:44.376Z</time>
      </trkpt>
      <trkpt lat="47.85316" lon="2.24451">
        <ele>100</ele>
        <time>2017-05-07T09:18:45.365Z</time>
      </trkpt>
      <trkpt lat="47.85325" lon="2.24444">
        <ele>100</ele>
        <time>2017-05-07T09:18:46.393Z</time>
      </trkpt>
      <trkpt lat="47.85329" lon="2.2444">
        <ele>100</ele>
        <time>2017-05-07T09:18:47.385Z</time>
      </trkpt>
      <trkpt lat="47.85329" lon="2.2444">
        <ele>100</ele>
        <time>2017-05-07T09:18:48.373Z</time>
      </trkpt>
      <trkpt lat="47.85338" lon="2.24433">
        <ele>100</ele>
        <time>2017-05-07T09:18:49.379Z</time>
      </trkpt>
      <trkpt lat="47.85338" lon="2.24433">
        <ele>100</ele>
        <time>2017-05-07T09:18:50.371Z</time>
      </trkpt>
      <trkpt lat="47.85348" lon="2.24426">
        <ele>101</ele>
        <time>2017-05-07T09:18:51.376Z</time>
      </trkpt>
      <trkpt lat="47.85348" lon="2.24426">
        <ele>101</ele>
        <time>2017-05-07T09:18:52.374Z</time>
      </trkpt>
      <trkpt lat="47.85358" lon="2.2442">
        <ele>100</ele>
        <time>2017-05-07T09:18:53.378Z</time>
      </trkpt>
      <trkpt lat="47.85358" lon="2.2442">
        <ele>100</ele>
        <time>2017-05-07T09:18:54.371Z</time>
      </trkpt>
      <trkpt lat="47.85367" lon="2.24414">
        <ele>101</ele>
        <time>2017-05-07T09:18:55.367Z</time>
      </trkpt>
      <trkpt lat="47.85367" lon="2.24414">
        <ele>101</ele>
        <time>2017-05-07T09:18:56.371Z</time>
      </trkpt>
      <trkpt lat="47.85378" lon="2.24409">
        <ele>101</ele>
        <time>2017-05-07T09:18:57.375Z</time>
      </trkpt>
      <trkpt lat="47.85384" lon="2.24406">
        <ele>101</ele>
        <time>2017-05-07T09:18:58.375Z</time>
      </trkpt>
      <trkpt lat="47.85389" lon="2.24403">
        <ele>101</ele>
        <time>2017-05-07T09:18:59.381Z</time>
      </trkpt>
      <trkpt lat="47.85389" lon="2.24403">
        <ele>101</ele>
        <time>2017-05-07T09:19:00.377Z</time>
      </trkpt>
      <trkpt lat="47.854" lon="2.24395">
        <ele>101</ele>
        <time>2017-05-07T09:19:01.384Z</time>
      </trkpt>
      <trkpt lat="47.854" lon="2.24395">
        <ele>101</ele>
        <time>2017-05-07T09:19:02.390Z</time>
      </trkpt>
      <trkpt lat="47.85411" lon="2.24388">
        <ele>101</ele>
        <time>2017-05-07T09:19:03.379Z</time>
      </trkpt>
      <trkpt lat="47.85416" lon="2.24385">
        <ele>101</ele>
        <time>2017-05-07T09:19:04.376Z</time>
      </trkpt>
      <trkpt lat="47.85416" lon="2.24385">
        <ele>101</ele>
        <time>2017-05-07T09:19:05.376Z</time>
      </trkpt>
      <trkpt lat="47.85426" lon="2.24378">
        <ele>101</ele>
        <time>2017-05-07T09:19:06.376Z</time>
      </trkpt>
      <trkpt lat="47.85431" lon="2.24375">
        <ele>101</ele>
        <time>2017-05-07T09:19:07.375Z</time>
      </trkpt>
      <trkpt lat="47.85431" lon="2.24375">
        <ele>101</ele>
        <time>2017-05-07T09:19:08.371Z</time>
      </trkpt>
      <trkpt lat="47.8544" lon="2.24368">
        <ele>102</ele>
        <time>2017-05-07T09:19:09.373Z</time>
      </trkpt>
      <trkpt lat="47.8544" lon="2.24368">
        <ele>102</ele>
        <time>2017-05-07T09:19:10.371Z</time>
      </trkpt>
      <trkpt lat="47.85449" lon="2.2436">
        <ele>102</ele>
        <time>2017-05-07T09:19:11.388Z</time>
      </trkpt>
      <trkpt lat="47.85453" lon="2.24356">
        <ele>103</ele>
        <time>2017-05-07T09:19:12.380Z</time>
      </trkpt>
      <trkpt lat="47.85453" lon="2.24356">
        <ele>103</ele>
        <time>2017-05-07T09:19:13.371Z</time>
      </trkpt>
      <trkpt lat="47.85462" lon="2.2435">
        <ele>103</ele>
        <time>2017-05-07T09:19:14.376Z</time>
      </trkpt>
      <trkpt lat="47.85462" lon="2.2435">
        <ele>103</ele>
        <time>2017-05-07T09:19:15.372Z</time>
      </trkpt>
      <trkpt lat="47.85472" lon="2.24344">
        <ele>103</ele>
        <time>2017-05-07T09:19:16.376Z</time>
      </trkpt>
      <trkpt lat="47.85476" lon="2.2434">
        <ele>103</ele>
        <time>2017-05-07T09:19:17.379Z</time>
      </trkpt>
      <trkpt lat="47.85476" lon="2.2434">
        <ele>103</ele>
        <time>2017-05-07T09:19:18.371Z</time>
      </trkpt>
      <trkpt lat="47.85486" lon="2.2433">
        <ele>103</ele>
        <time>2017-05-07T09:19:19.378Z</time>
      </trkpt>
      <trkpt lat="47.85486" lon="2.2433">
        <ele>103</ele>
        <time>2017-05-07T09:19:20.372Z</time>
      </trkpt>
      <trkpt lat="47.85497" lon="2.2432">
        <ele>103</ele>
        <time>2017-05-07T09:19:21.377Z</time>
      </trkpt>
      <trkpt lat="47.85497" lon="2.2432">
        <ele>103</ele>
        <time>2017-05-07T09:19:22.368Z</time>
      </trkpt>
      <trkpt lat="47.85509" lon="2.24309">
        <ele>102</ele>
        <time>2017-05-07T09:19:23.380Z</time>
      </trkpt>
      <trkpt lat="47.85509" lon="2.24309">
        <ele>102</ele>
        <time>2017-05-07T09:19:24.371Z</time>
      </trkpt>
      <trkpt lat="47.85521" lon="2.24299">
        <ele>102</ele>
        <time>2017-05-07T09:19:25.379Z</time>
      </trkpt>
      <trkpt lat="47.85521" lon="2.24299">
        <ele>102</ele>
        <time>2017-05-07T09:19:26.371Z</time>
      </trkpt>
      <trkpt lat="47.85532" lon="2.24288">
        <ele>102</ele>
        <time>2017-05-07T09:19:27.376Z</time>
      </trkpt>
      <trkpt lat="47.85532" lon="2.24288">
        <ele>102</ele>
        <time>2017-05-07T09:19:28.371Z</time>
      </trkpt>
      <trkpt lat="47.85543" lon="2.24277">
        <ele>102</ele>
        <time>2017-05-07T09:19:29.381Z</time>
      </trkpt>
      <trkpt lat="47.85543" lon="2.24277">
        <ele>102</ele>
        <time>2017-05-07T09:19:30.371Z</time>
      </trkpt>
      <trkpt lat="47.85554" lon="2.24267">
        <ele>102</ele>
        <time>2017-05-07T09:19:31.388Z</time>
      </trkpt>
      <trkpt lat="47.85554" lon="2.24267">
        <ele>102</ele>
        <time>2017-05-07T09:19:32.374Z</time>
      </trkpt>
      <trkpt lat="47.85565" lon="2.24257">
        <ele>102</ele>
        <time>2017-05-07T09:19:33.376Z</time>
      </trkpt>
      <trkpt lat="47.85565" lon="2.24257">
        <ele>102</ele>
        <time>2017-05-07T09:19:34.372Z</time>
      </trkpt>
      <trkpt lat="47.85575" lon="2.24246">
        <ele>102</ele>
        <time>2017-05-07T09:19:35.380Z</time>
      </trkpt>
      <trkpt lat="47.85575" lon="2.24246">
        <ele>102</ele>
        <time>2017-05-07T09:19:36.371Z</time>
      </trkpt>
      <trkpt lat="47.85585" lon="2.24236">
        <ele>102</ele>
        <time>2017-05-07T09:19:37.378Z</time>
      </trkpt>
      <trkpt lat="47.8559" lon="2.24231">
        <ele>102</ele>
        <time>2017-05-07T09:19:38.363Z</time>
      </trkpt>
      <trkpt lat="47.8559" lon="2.24231">
        <ele>102</ele>
        <time>2017-05-07T09:19:39.391Z</time>
      </trkpt>
      <trkpt lat="47.856" lon="2.2422">
        <ele>101</ele>
        <time>2017-05-07T09:19:40.380Z</time>
      </trkpt>
      <trkpt lat="47.856" lon="2.2422">
        <ele>101</ele>
        <time>2017-05-07T09:19:41.376Z</time>
      </trkpt>
      <trkpt lat="47.8561" lon="2.2421">
        <ele>101</ele>
        <time>2017-05-07T09:19:42.361Z</time>
      </trkpt>
      <trkpt lat="47.85615" lon="2.24205">
        <ele>101</ele>
        <time>2017-05-07T09:19:43.369Z</time>
      </trkpt>
      <trkpt lat="47.85615" lon="2.24205">
        <ele>101</ele>
        <time>2017-05-07T09:19:44.375Z</time>
      </trkpt>
      <trkpt lat="47.85625" lon="2.24195">
        <ele>101</ele>
        <time>2017-05-07T09:19:45.381Z</time>
      </trkpt>
      <trkpt lat="47.8563" lon="2.2419">
        <ele>101</ele>
        <time>2017-05-07T09:19:46.377Z</time>
      </trkpt>
      <trkpt lat="47.85635" lon="2.24185">
        <ele>101</ele>
        <time>2017-05-07T09:19:47.378Z</time>
      </trkpt>
      <trkpt lat="47.85635" lon="2.24185">
        <ele>101</ele>
        <time>2017-05-07T09:19:48.380Z</time>
      </trkpt>
      <trkpt lat="47.85645" lon="2.24176">
        <ele>101</ele>
        <time>2017-05-07T09:19:49.375Z</time>
      </trkpt>
      <trkpt lat="47.85645" lon="2.24176">
        <ele>101</ele>
        <time>2017-05-07T09:19:50.388Z</time>
      </trkpt>
      <trkpt lat="47.85655" lon="2.24166">
        <ele>101</ele>
        <time>2017-05-07T09:19:51.388Z</time>
      </trkpt>
      <trkpt lat="47.85655" lon="2.24166">
        <ele>101</ele>
        <time>2017-05-07T09:19:52.382Z</time>
      </trkpt>
      <trkpt lat="47.85665" lon="2.24156">
        <ele>101</ele>
        <time>2017-05-07T09:19:53.373Z</time>
      </trkpt>
      <trkpt lat="47.85665" lon="2.24156">
        <ele>101</ele>
        <time>2017-05-07T09:19:54.371Z</time>
      </trkpt>
      <trkpt lat="47.85674" lon="2.24146">
        <ele>101</ele>
        <time>2017-05-07T09:19:55.374Z</time>
      </trkpt>
      <trkpt lat="47.85674" lon="2.24146">
        <ele>101</ele>
        <time>2017-05-07T09:19:56.371Z</time>
      </trkpt>
      <trkpt lat="47.85683" lon="2.24136">
        <ele>101</ele>
        <time>2017-05-07T09:19:57.376Z</time>
      </trkpt>
      <trkpt lat="47.85688" lon="2.24132">
        <ele>101</ele>
        <time>2017-05-07T09:19:58.382Z</time>
      </trkpt>
      <trkpt lat="47.85692" lon="2.2413">
        <ele>101</ele>
        <time>2017-05-07T09:19:59.386Z</time>
      </trkpt>
      <trkpt lat="47.85692" lon="2.2413">
        <ele>101</ele>
        <time>2017-05-07T09:20:00.383Z</time>
      </trkpt>
      <trkpt lat="47.85699" lon="2.24131">
        <ele>102</ele>
        <time>2017-05-07T09:20:01.389Z</time>
      </trkpt>
      <trkpt lat="47.85699" lon="2.24131">
        <ele>102</ele>
        <time>2017-05-07T09:20:02.355Z</time>
      </trkpt>
      <trkpt lat="47.85706" lon="2.24131">
        <ele>102</ele>
        <time>2017-05-07T09:20:03.387Z</time>
      </trkpt>
      <trkpt lat="47.85706" lon="2.24131">
        <ele>102</ele>
        <time>2017-05-07T09:20:04.375Z</time>
      </trkpt>
      <trkpt lat="47.85711" lon="2.24122">
        <ele>103</ele>
        <time>2017-05-07T09:20:05.378Z</time>
      </trkpt>
      <trkpt lat="47.85711" lon="2.24122">
        <ele>103</ele>
        <time>2017-05-07T09:20:06.372Z</time>
      </trkpt>
      <trkpt lat="47.85714" lon="2.24109">
        <ele>103</ele>
        <time>2017-05-07T09:20:07.378Z</time>
      </trkpt>
      <trkpt lat="47.85714" lon="2.24109">
        <ele>103</ele>
        <time>2017-05-07T09:20:08.372Z</time>
      </trkpt>
      <trkpt lat="47.85716" lon="2.24094">
        <ele>104</ele>
        <time>2017-05-07T09:20:09.378Z</time>
      </trkpt>
      <trkpt lat="47.85716" lon="2.24094">
        <ele>104</ele>
        <time>2017-05-07T09:20:10.372Z</time>
      </trkpt>
      <trkpt lat="47.8572" lon="2.24078">
        <ele>104</ele>
        <time>2017-05-07T09:20:11.380Z</time>
      </trkpt>
      <trkpt lat="47.8572" lon="2.24078">
        <ele>104</ele>
        <time>2017-05-07T09:20:12.375Z</time>
      </trkpt>
      <trkpt lat="47.85723" lon="2.24061">
        <ele>105</ele>
        <time>2017-05-07T09:20:13.378Z</time>
      </trkpt>
      <trkpt lat="47.85723" lon="2.24061">
        <ele>105</ele>
        <time>2017-05-07T09:20:14.376Z</time>
      </trkpt>
      <trkpt lat="47.85726" lon="2.24044">
        <ele>105</ele>
        <time>2017-05-07T09:20:15.377Z</time>
      </trkpt>
      <trkpt lat="47.85726" lon="2.24044">
        <ele>105</ele>
        <time>2017-05-07T09:20:16.372Z</time>
      </trkpt>
      <trkpt lat="47.85731" lon="2.24027">
        <ele>105</ele>
        <time>2017-05-07T09:20:17.381Z</time>
      </trkpt>
      <trkpt lat="47.85733" lon="2.24018">
        <ele>105</ele>
        <time>2017-05-07T09:20:18.388Z</time>
      </trkpt>
      <trkpt lat="47.85733" lon="2.24018">
        <ele>105</ele>
        <time>2017-05-07T09:20:19.376Z</time>
      </trkpt>
      <trkpt lat="47.85737" lon="2.24001">
        <ele>106</ele>
        <time>2017-05-07T09:20:20.377Z</time>
      </trkpt>
      <trkpt lat="47.85737" lon="2.24001">
        <ele>106</ele>
        <time>2017-05-07T09:20:21.375Z</time>
      </trkpt>
      <trkpt lat="47.85742" lon="2.23985">
        <ele>106</ele>
        <time>2017-05-07T09:20:22.377Z</time>
      </trkpt>
      <trkpt lat="47.85744" lon="2.23977">
        <ele>106</ele>
        <time>2017-05-07T09:20:23.381Z</time>
      </trkpt>
      <trkpt lat="47.85744" lon="2.23977">
        <ele>106</ele>
        <time>2017-05-07T09:20:24.372Z</time>
      </trkpt>
      <trkpt lat="47.85749" lon="2.23958">
        <ele>106</ele>
        <time>2017-05-07T09:20:25.378Z</time>
      </trkpt>
      <trkpt lat="47.85749" lon="2.23958">
        <ele>106</ele>
        <time>2017-05-07T09:20:26.371Z</time>
      </trkpt>
      <trkpt lat="47.85753" lon="2.2394">
        <ele>106</ele>
        <time>2017-05-07T09:20:27.378Z</time>
      </trkpt>
      <trkpt lat="47.85753" lon="2.2394">
        <ele>106</ele>
        <time>2017-05-07T09:20:28.372Z</time>
      </trkpt>
      <trkpt lat="47.85757" lon="2.23923">
        <ele>106</ele>
        <time>2017-05-07T09:20:29.380Z</time>
      </trkpt>
      <trkpt lat="47.85759" lon="2.23915">
        <ele>106</ele>
        <time>2017-05-07T09:20:30.374Z</time>
      </trkpt>
      <trkpt lat="47.85759" lon="2.23915">
        <ele>106</ele>
        <time>2017-05-07T09:20:31.373Z</time>
      </trkpt>
      <trkpt lat="47.85763" lon="2.23902">
        <ele>106</ele>
        <time>2017-05-07T09:20:32.378Z</time>
      </trkpt>
      <trkpt lat="47.85764" lon="2.23897">
        <ele>106</ele>
        <time>2017-05-07T09:20:33.358Z</time>
      </trkpt>
      <trkpt lat="47.85764" lon="2.23897">
        <ele>106</ele>
        <time>2017-05-07T09:20:34.386Z</time>
      </trkpt>
      <trkpt lat="47.85767" lon="2.23885">
        <ele>106</ele>
        <time>2017-05-07T09:20:35.376Z</time>
      </trkpt>
      <trkpt lat="47.85769" lon="2.2388">
        <ele>106</ele>
        <time>2017-05-07T09:20:36.376Z</time>
      </trkpt>
      <trkpt lat="47.8577" lon="2.23874">
        <ele>106</ele>
        <time>2017-05-07T09:20:37.375Z</time>
      </trkpt>
      <trkpt lat="47.8577" lon="2.23874">
        <ele>106</ele>
        <time>2017-05-07T09:20:38.370Z</time>
      </trkpt>
      <trkpt lat="47.85772" lon="2.23863">
        <ele>106</ele>
        <time>2017-05-07T09:20:39.378Z</time>
      </trkpt>
      <trkpt lat="47.85772" lon="2.23863">
        <ele>106</ele>
        <time>2017-05-07T09:20:40.371Z</time>
      </trkpt>
      <trkpt lat="47.85774" lon="2.2385">
        <ele>106</ele>
        <time>2017-05-07T09:20:41.380Z</time>
      </trkpt>
      <trkpt lat="47.85774" lon="2.2385">
        <ele>106</ele>
        <time>2017-05-07T09:20:42.378Z</time>
      </trkpt>
      <trkpt lat="47.85775" lon="2.23836">
        <ele>106</ele>
        <time>2017-05-07T09:20:43.379Z</time>
      </trkpt>
      <trkpt lat="47.85775" lon="2.23836">
        <ele>106</ele>
        <time>2017-05-07T09:20:44.371Z</time>
      </trkpt>
      <trkpt lat="47.85776" lon="2.23823">
        <ele>106</ele>
        <time>2017-05-07T09:20:45.376Z</time>
      </trkpt>
      <trkpt lat="47.85776" lon="2.23823">
        <ele>106</ele>
        <time>2017-05-07T09:20:46.384Z</time>
      </trkpt>
      <trkpt lat="47.85779" lon="2.23811">
        <ele>106</ele>
        <time>2017-05-07T09:20:47.379Z</time>
      </trkpt>
      <trkpt lat="47.85779" lon="2.23811">
        <ele>106</ele>
        <time>2017-05-07T09:20:48.368Z</time>
      </trkpt>
      <trkpt lat="47.85783" lon="2.238">
        <ele>106</ele>
        <time>2017-05-07T09:20:49.376Z</time>
      </trkpt>
      <trkpt lat="47.85784" lon="2.23796">
        <ele>106</ele>
        <time>2017-05-07T09:20:50.376Z</time>
      </trkpt>
      <trkpt lat="47.85784" lon="2.23796">
        <ele>106</ele>
        <time>2017-05-07T09:20:51.375Z</time>
      </trkpt>
      <trkpt lat="47.85786" lon="2.23788">
        <ele>106</ele>
        <time>2017-05-07T09:20:52.378Z</time>
      </trkpt>
      <trkpt lat="47.85787" lon="2.23784">
        <ele>107</ele>
        <time>2017-05-07T09:20:53.380Z</time>
      </trkpt>
      <trkpt lat="47.85787" lon="2.23784">
        <ele>107</ele>
        <time>2017-05-07T09:20:54.372Z</time>
      </trkpt>
      <trkpt lat="47.85789" lon="2.23776">
        <ele>107</ele>
        <time>2017-05-07T09:20:55.378Z</time>
      </trkpt>
      <trkpt lat="47.85789" lon="2.23776">
        <ele>107</ele>
        <time>2017-05-07T09:20:56.371Z</time>
      </trkpt>
      <trkpt lat="47.85792" lon="2.23769">
        <ele>107</ele>
        <time>2017-05-07T09:20:57.377Z</time>
      </trkpt>
      <trkpt lat="47.85792" lon="2.23769">
        <ele>107</ele>
        <time>2017-05-07T09:20:58.385Z</time>
      </trkpt>
      <trkpt lat="47.85794" lon="2.23761">
        <ele>107</ele>
        <time>2017-05-07T09:20:59.387Z</time>
      </trkpt>
      <trkpt lat="47.85794" lon="2.23761">
        <ele>107</ele>
        <time>2017-05-07T09:21:00.388Z</time>
      </trkpt>
      <trkpt lat="47.85797" lon="2.23753">
        <ele>107</ele>
        <time>2017-05-07T09:21:01.394Z</time>
      </trkpt>
      <trkpt lat="47.85797" lon="2.23753">
        <ele>107</ele>
        <time>2017-05-07T09:21:02.363Z</time>
      </trkpt>
      <trkpt lat="47.85799" lon="2.23745">
        <ele>108</ele>
        <time>2017-05-07T09:21:03.390Z</time>
      </trkpt>
      <trkpt lat="47.85799" lon="2.23745">
        <ele>108</ele>
        <time>2017-05-07T09:21:04.379Z</time>
      </trkpt>
      <trkpt lat="47.85802" lon="2.23736">
        <ele>107</ele>
        <time>2017-05-07T09:21:05.380Z</time>
      </trkpt>
      <trkpt lat="47.85802" lon="2.23736">
        <ele>107</ele>
        <time>2017-05-07T09:21:06.371Z</time>
      </trkpt>
      <trkpt lat="47.85804" lon="2.23725">
        <ele>107</ele>
        <time>2017-05-07T09:21:07.377Z</time>
      </trkpt>
      <trkpt lat="47.85804" lon="2.23725">
        <ele>107</ele>
        <time>2017-05-07T09:21:08.372Z</time>
      </trkpt>
      <trkpt lat="47.85807" lon="2.23713">
        <ele>108</ele>
        <time>2017-05-07T09:21:09.376Z</time>
      </trkpt>
      <trkpt lat="47.85807" lon="2.23713">
        <ele>108</ele>
        <time>2017-05-07T09:21:10.371Z</time>
      </trkpt>
      <trkpt lat="47.8581" lon="2.23702">
        <ele>108</ele>
        <time>2017-05-07T09:21:11.389Z</time>
      </trkpt>
      <trkpt lat="47.8581" lon="2.23702">
        <ele>108</ele>
        <time>2017-05-07T09:21:12.377Z</time>
      </trkpt>
      <trkpt lat="47.85813" lon="2.23694">
        <ele>108</ele>
        <time>2017-05-07T09:21:13.377Z</time>
      </trkpt>
      <trkpt lat="47.85813" lon="2.23694">
        <ele>108</ele>
        <time>2017-05-07T09:21:14.372Z</time>
      </trkpt>
      <trkpt lat="47.85817" lon="2.23685">
        <ele>108</ele>
        <time>2017-05-07T09:21:15.377Z</time>
      </trkpt>
      <trkpt lat="47.85817" lon="2.23685">
        <ele>108</ele>
        <time>2017-05-07T09:21:16.371Z</time>
      </trkpt>
      <trkpt lat="47.85819" lon="2.23674">
        <ele>108</ele>
        <time>2017-05-07T09:21:17.383Z</time>
      </trkpt>
      <trkpt lat="47.85819" lon="2.23674">
        <ele>108</ele>
        <time>2017-05-07T09:21:18.372Z</time>
      </trkpt>
      <trkpt lat="47.85822" lon="2.23664">
        <ele>108</ele>
        <time>2017-05-07T09:21:19.377Z</time>
      </trkpt>
      <trkpt lat="47.85822" lon="2.23664">
        <ele>108</ele>
        <time>2017-05-07T09:21:20.386Z</time>
      </trkpt>
      <trkpt lat="47.85825" lon="2.23651">
        <ele>107</ele>
        <time>2017-05-07T09:21:21.388Z</time>
      </trkpt>
      <trkpt lat="47.85825" lon="2.23651">
        <ele>107</ele>
        <time>2017-05-07T09:21:22.379Z</time>
      </trkpt>
      <trkpt lat="47.85826" lon="2.23637">
        <ele>107</ele>
        <time>2017-05-07T09:21:23.379Z</time>
      </trkpt>
      <trkpt lat="47.85826" lon="2.23637">
        <ele>107</ele>
        <time>2017-05-07T09:21:24.372Z</time>
      </trkpt>
      <trkpt lat="47.85827" lon="2.23623">
        <ele>107</ele>
        <time>2017-05-07T09:21:25.377Z</time>
      </trkpt>
      <trkpt lat="47.85827" lon="2.23623">
        <ele>107</ele>
        <time>2017-05-07T09:21:26.372Z</time>
      </trkpt>
      <trkpt lat="47.85829" lon="2.2361">
        <ele>107</ele>
        <time>2017-05-07T09:21:27.376Z</time>
      </trkpt>
      <trkpt lat="47.85829" lon="2.2361">
        <ele>107</ele>
        <time>2017-05-07T09:21:28.373Z</time>
      </trkpt>
      <trkpt lat="47.8583" lon="2.23597">
        <ele>107</ele>
        <time>2017-05-07T09:21:29.379Z</time>
      </trkpt>
      <trkpt lat="47.8583" lon="2.23597">
        <ele>107</ele>
        <time>2017-05-07T09:21:30.372Z</time>
      </trkpt>
      <trkpt lat="47.85832" lon="2.23584">
        <ele>107</ele>
        <time>2017-05-07T09:21:31.377Z</time>
      </trkpt>
      <trkpt lat="47.85832" lon="2.23584">
        <ele>107</ele>
        <time>2017-05-07T09:21:32.372Z</time>
      </trkpt>
      <trkpt lat="47.85835" lon="2.23568">
        <ele>107</ele>
        <time>2017-05-07T09:21:33.385Z</time>
      </trkpt>
      <trkpt lat="47.85837" lon="2.23559">
        <ele>107</ele>
        <time>2017-05-07T09:21:34.377Z</time>
      </trkpt>
      <trkpt lat="47.85837" lon="2.23559">
        <ele>107</ele>
        <time>2017-05-07T09:21:35.374Z</time>
      </trkpt>
      <trkpt lat="47.8584" lon="2.23542">
        <ele>107</ele>
        <time>2017-05-07T09:21:36.373Z</time>
      </trkpt>
      <trkpt lat="47.85841" lon="2.23533">
        <ele>107</ele>
        <time>2017-05-07T09:21:37.376Z</time>
      </trkpt>
      <trkpt lat="47.85841" lon="2.23533">
        <ele>107</ele>
        <time>2017-05-07T09:21:38.371Z</time>
      </trkpt>
      <trkpt lat="47.85843" lon="2.23516">
        <ele>107</ele>
        <time>2017-05-07T09:21:39.374Z</time>
      </trkpt>
      <trkpt lat="47.85843" lon="2.23516">
        <ele>107</ele>
        <time>2017-05-07T09:21:40.372Z</time>
      </trkpt>
      <trkpt lat="47.85848" lon="2.23495">
        <ele>107</ele>
        <time>2017-05-07T09:21:41.380Z</time>
      </trkpt>
      <trkpt lat="47.85848" lon="2.23495">
        <ele>107</ele>
        <time>2017-05-07T09:21:42.369Z</time>
      </trkpt>
      <trkpt lat="47.85851" lon="2.23476">
        <ele>106</ele>
        <time>2017-05-07T09:21:43.358Z</time>
      </trkpt>
      <trkpt lat="47.85852" lon="2.23467">
        <ele>106</ele>
        <time>2017-05-07T09:21:44.386Z</time>
      </trkpt>
      <trkpt lat="47.85852" lon="2.23467">
        <ele>106</ele>
        <time>2017-05-07T09:21:45.374Z</time>
      </trkpt>
      <trkpt lat="47.85856" lon="2.23447">
        <ele>107</ele>
        <time>2017-05-07T09:21:46.376Z</time>
      </trkpt>
      <trkpt lat="47.85858" lon="2.23435">
        <ele>107</ele>
        <time>2017-05-07T09:21:47.380Z</time>
      </trkpt>
      <trkpt lat="47.85858" lon="2.23435">
        <ele>107</ele>
        <time>2017-05-07T09:21:48.379Z</time>
      </trkpt>
      <trkpt lat="47.85863" lon="2.23415">
        <ele>107</ele>
        <time>2017-05-07T09:21:49.378Z</time>
      </trkpt>
      <trkpt lat="47.85863" lon="2.23415">
        <ele>107</ele>
        <time>2017-05-07T09:21:50.372Z</time>
      </trkpt>
      <trkpt lat="47.85865" lon="2.23399">
        <ele>107</ele>
        <time>2017-05-07T09:21:51.377Z</time>
      </trkpt>
      <trkpt lat="47.85867" lon="2.23389">
        <ele>107</ele>
        <time>2017-05-07T09:21:52.377Z</time>
      </trkpt>
      <trkpt lat="47.85867" lon="2.23389">
        <ele>107</ele>
        <time>2017-05-07T09:21:53.376Z</time>
      </trkpt>
      <trkpt lat="47.8587" lon="2.2337">
        <ele>106</ele>
        <time>2017-05-07T09:21:54.378Z</time>
      </trkpt>
      <trkpt lat="47.8587" lon="2.2337">
        <ele>106</ele>
        <time>2017-05-07T09:21:55.372Z</time>
      </trkpt>
      <trkpt lat="47.85874" lon="2.23351">
        <ele>106</ele>
        <time>2017-05-07T09:21:56.377Z</time>
      </trkpt>
      <trkpt lat="47.85874" lon="2.23351">
        <ele>106</ele>
        <time>2017-05-07T09:21:57.372Z</time>
      </trkpt>
      <trkpt lat="47.8588" lon="2.23327">
        <ele>106</ele>
        <time>2017-05-07T09:21:58.377Z</time>
      </trkpt>
      <trkpt lat="47.85882" lon="2.23317">
        <ele>106</ele>
        <time>2017-05-07T09:21:59.380Z</time>
      </trkpt>
      <trkpt lat="47.85882" lon="2.23317">
        <ele>106</ele>
        <time>2017-05-07T09:22:00.372Z</time>
      </trkpt>
      <trkpt lat="47.85886" lon="2.23297">
        <ele>106</ele>
        <time>2017-05-07T09:22:01.377Z</time>
      </trkpt>
      <trkpt lat="47.85886" lon="2.23297">
        <ele>106</ele>
        <time>2017-05-07T09:22:02.375Z</time>
      </trkpt>
      <trkpt lat="47.85891" lon="2.23275">
        <ele>105</ele>
        <time>2017-05-07T09:22:03.371Z</time>
      </trkpt>
      <trkpt lat="47.85894" lon="2.23262">
        <ele>105</ele>
        <time>2017-05-07T09:22:04.374Z</time>
      </trkpt>
      <trkpt lat="47.85894" lon="2.23262">
        <ele>105</ele>
        <time>2017-05-07T09:22:05.373Z</time>
      </trkpt>
      <trkpt lat="47.85898" lon="2.23242">
        <ele>105</ele>
        <time>2017-05-07T09:22:06.375Z</time>
      </trkpt>
      <trkpt lat="47.859" lon="2.23233">
        <ele>105</ele>
        <time>2017-05-07T09:22:07.376Z</time>
      </trkpt>
      <trkpt lat="47.85902" lon="2.23224">
        <ele>105</ele>
        <time>2017-05-07T09:22:08.379Z</time>
      </trkpt>
      <trkpt lat="47.85902" lon="2.23224">
        <ele>105</ele>
        <time>2017-05-07T09:22:09.371Z</time>
      </trkpt>
      <trkpt lat="47.85907" lon="2.23201">
        <ele>105</ele>
        <time>2017-05-07T09:22:10.377Z</time>
      </trkpt>
      <trkpt lat="47.85909" lon="2.23191">
        <ele>105</ele>
        <time>2017-05-07T09:22:11.380Z</time>
      </trkpt>
      <trkpt lat="47.85909" lon="2.23191">
        <ele>105</ele>
        <time>2017-05-07T09:22:12.372Z</time>
      </trkpt>
      <trkpt lat="47.85913" lon="2.23172">
        <ele>105</ele>
        <time>2017-05-07T09:22:13.378Z</time>
      </trkpt>
      <trkpt lat="47.85913" lon="2.23172">
        <ele>105</ele>
        <time>2017-05-07T09:22:14.372Z</time>
      </trkpt>
      <trkpt lat="47.85918" lon="2.23154">
        <ele>105</ele>
        <time>2017-05-07T09:22:15.376Z</time>
      </trkpt>
      <trkpt lat="47.85918" lon="2.23154">
        <ele>105</ele>
        <time>2017-05-07T09:22:16.373Z</time>
      </trkpt>
      <trkpt lat="47.85923" lon="2.23134">
        <ele>105</ele>
        <time>2017-05-07T09:22:17.378Z</time>
      </trkpt>
      <trkpt lat="47.85923" lon="2.23134">
        <ele>105</ele>
        <time>2017-05-07T09:22:18.372Z</time>
      </trkpt>
      <trkpt lat="47.85927" lon="2.23115">
        <ele>105</ele>
        <time>2017-05-07T09:22:19.377Z</time>
      </trkpt>
      <trkpt lat="47.85927" lon="2.23115">
        <ele>105</ele>
        <time>2017-05-07T09:22:20.372Z</time>
      </trkpt>
      <trkpt lat="47.85931" lon="2.23098">
        <ele>105</ele>
        <time>2017-05-07T09:22:21.388Z</time>
      </trkpt>
      <trkpt lat="47.85931" lon="2.23098">
        <ele>105</ele>
        <time>2017-05-07T09:22:22.376Z</time>
      </trkpt>
      <trkpt lat="47.85935" lon="2.23083">
        <ele>105</ele>
        <time>2017-05-07T09:22:23.380Z</time>
      </trkpt>
      <trkpt lat="47.85935" lon="2.23083">
        <ele>105</ele>
        <time>2017-05-07T09:22:24.372Z</time>
      </trkpt>
      <trkpt lat="47.85937" lon="2.23068">
        <ele>106</ele>
        <time>2017-05-07T09:22:25.368Z</time>
      </trkpt>
      <trkpt lat="47.85937" lon="2.23068">
        <ele>106</ele>
        <time>2017-05-07T09:22:26.372Z</time>
      </trkpt>
      <trkpt lat="47.8594" lon="2.23052">
        <ele>106</ele>
        <time>2017-05-07T09:22:27.378Z</time>
      </trkpt>
      <trkpt lat="47.8594" lon="2.23052">
        <ele>106</ele>
        <time>2017-05-07T09:22:28.373Z</time>
      </trkpt>
      <trkpt lat="47.85942" lon="2.23039">
        <ele>106</ele>
        <time>2017-05-07T09:22:29.393Z</time>
      </trkpt>
      <trkpt lat="47.85942" lon="2.23039">
        <ele>106</ele>
        <time>2017-05-07T09:22:30.365Z</time>
      </trkpt>
      <trkpt lat="47.85945" lon="2.23025">
        <ele>106</ele>
        <time>2017-05-07T09:22:31.373Z</time>
      </trkpt>
      <trkpt lat="47.85945" lon="2.23025">
        <ele>106</ele>
        <time>2017-05-07T09:22:32.378Z</time>
      </trkpt>
      <trkpt lat="47.85947" lon="2.23011">
        <ele>106</ele>
        <time>2017-05-07T09:22:33.378Z</time>
      </trkpt>
      <trkpt lat="47.85948" lon="2.23006">
        <ele>106</ele>
        <time>2017-05-07T09:22:34.378Z</time>
      </trkpt>
      <trkpt lat="47.85948" lon="2.23006">
        <ele>106</ele>
        <time>2017-05-07T09:22:35.375Z</time>
      </trkpt>
      <trkpt lat="47.8595" lon="2.22993">
        <ele>106</ele>
        <time>2017-05-07T09:22:36.391Z</time>
      </trkpt>
      <trkpt lat="47.85952" lon="2.22988">
        <ele>106</ele>
        <time>2017-05-07T09:22:37.379Z</time>
      </trkpt>
      <trkpt lat="47.85952" lon="2.22988">
        <ele>106</ele>
        <time>2017-05-07T09:22:38.373Z</time>
      </trkpt>
      <trkpt lat="47.85954" lon="2.22978">
        <ele>106</ele>
        <time>2017-05-07T09:22:39.374Z</time>
      </trkpt>
      <trkpt lat="47.85954" lon="2.22978">
        <ele>106</ele>
        <time>2017-05-07T09:22:40.372Z</time>
      </trkpt>
      <trkpt lat="47.85957" lon="2.22966">
        <ele>107</ele>
        <time>2017-05-07T09:22:41.378Z</time>
      </trkpt>
      <trkpt lat="47.85957" lon="2.22966">
        <ele>107</ele>
        <time>2017-05-07T09:22:42.377Z</time>
      </trkpt>
      <trkpt lat="47.8596" lon="2.22953">
        <ele>107</ele>
        <time>2017-05-07T09:22:43.376Z</time>
      </trkpt>
      <trkpt lat="47.8596" lon="2.22953">
        <ele>107</ele>
        <time>2017-05-07T09:22:44.369Z</time>
      </trkpt>
      <trkpt lat="47.8596" lon="2.2294">
        <ele>107</ele>
        <time>2017-05-07T09:22:45.377Z</time>
      </trkpt>
      <trkpt lat="47.8596" lon="2.2294">
        <ele>107</ele>
        <time>2017-05-07T09:22:46.372Z</time>
      </trkpt>
      <trkpt lat="47.85964" lon="2.22921">
        <ele>107</ele>
        <time>2017-05-07T09:22:47.390Z</time>
      </trkpt>
      <trkpt lat="47.85964" lon="2.22921">
        <ele>107</ele>
        <time>2017-05-07T09:22:48.378Z</time>
      </trkpt>
      <trkpt lat="47.85965" lon="2.22905">
        <ele>107</ele>
        <time>2017-05-07T09:22:49.376Z</time>
      </trkpt>
      <trkpt lat="47.85965" lon="2.22905">
        <ele>107</ele>
        <time>2017-05-07T09:22:50.373Z</time>
      </trkpt>
      <trkpt lat="47.85965" lon="2.22891">
        <ele>107</ele>
        <time>2017-05-07T09:22:51.375Z</time>
      </trkpt>
      <trkpt lat="47.85966" lon="2.22885">
        <ele>107</ele>
        <time>2017-05-07T09:22:52.374Z</time>
      </trkpt>
      <trkpt lat="47.85968" lon="2.22876">
        <ele>107</ele>
        <time>2017-05-07T09:22:53.385Z</time>
      </trkpt>
      <trkpt lat="47.85969" lon="2.22868">
        <ele>107</ele>
        <time>2017-05-07T09:22:54.378Z</time>
      </trkpt>
      <trkpt lat="47.85969" lon="2.22868">
        <ele>107</ele>
        <time>2017-05-07T09:22:55.373Z</time>
      </trkpt>
      <trkpt lat="47.85971" lon="2.22854">
        <ele>107</ele>
        <time>2017-05-07T09:22:56.378Z</time>
      </trkpt>
      <trkpt lat="47.85971" lon="2.22854">
        <ele>107</ele>
        <time>2017-05-07T09:22:57.373Z</time>
      </trkpt>
      <trkpt lat="47.85971" lon="2.22842">
        <ele>106</ele>
        <time>2017-05-07T09:22:58.378Z</time>
      </trkpt>
      <trkpt lat="47.85972" lon="2.22837">
        <ele>106</ele>
        <time>2017-05-07T09:22:59.388Z</time>
      </trkpt>
      <trkpt lat="47.85972" lon="2.22837">
        <ele>106</ele>
        <time>2017-05-07T09:23:00.393Z</time>
      </trkpt>
      <trkpt lat="47.85973" lon="2.22824">
        <ele>106</ele>
        <time>2017-05-07T09:23:01.365Z</time>
      </trkpt>
      <trkpt lat="47.85973" lon="2.22818">
        <ele>106</ele>
        <time>2017-05-07T09:23:02.371Z</time>
      </trkpt>
      <trkpt lat="47.85973" lon="2.22812">
        <ele>106</ele>
        <time>2017-05-07T09:23:03.376Z</time>
      </trkpt>
      <trkpt lat="47.85973" lon="2.22812">
        <ele>106</ele>
        <time>2017-05-07T09:23:04.372Z</time>
      </trkpt>
      <trkpt lat="47.85974" lon="2.22798">
        <ele>106</ele>
        <time>2017-05-07T09:23:05.381Z</time>
      </trkpt>
      <trkpt lat="47.85974" lon="2.22798">
        <ele>106</ele>
        <time>2017-05-07T09:23:06.389Z</time>
      </trkpt>
      <trkpt lat="47.85976" lon="2.22785">
        <ele>106</ele>
        <time>2017-05-07T09:23:07.379Z</time>
      </trkpt>
      <trkpt lat="47.85976" lon="2.22785">
        <ele>106</ele>
        <time>2017-05-07T09:23:08.373Z</time>
      </trkpt>
      <trkpt lat="47.85977" lon="2.22771">
        <ele>106</ele>
        <time>2017-05-07T09:23:09.377Z</time>
      </trkpt>
      <trkpt lat="47.85977" lon="2.22771">
        <ele>106</ele>
        <time>2017-05-07T09:23:10.373Z</time>
      </trkpt>
      <trkpt lat="47.85979" lon="2.22757">
        <ele>107</ele>
        <time>2017-05-07T09:23:11.382Z</time>
      </trkpt>
      <trkpt lat="47.85979" lon="2.22757">
        <ele>107</ele>
        <time>2017-05-07T09:23:12.375Z</time>
      </trkpt>
      <trkpt lat="47.85979" lon="2.22745">
        <ele>107</ele>
        <time>2017-05-07T09:23:13.377Z</time>
      </trkpt>
      <trkpt lat="47.85979" lon="2.22745">
        <ele>107</ele>
        <time>2017-05-07T09:23:14.388Z</time>
      </trkpt>
      <trkpt lat="47.8598" lon="2.22732">
        <ele>107</ele>
        <time>2017-05-07T09:23:15.377Z</time>
      </trkpt>
      <trkpt lat="47.8598" lon="2.22727">
        <ele>107</ele>
        <time>2017-05-07T09:23:16.374Z</time>
      </trkpt>
      <trkpt lat="47.8598" lon="2.2272">
        <ele>107</ele>
        <time>2017-05-07T09:23:17.381Z</time>
      </trkpt>
      <trkpt lat="47.8598" lon="2.2272">
        <ele>107</ele>
        <time>2017-05-07T09:23:18.372Z</time>
      </trkpt>
      <trkpt lat="47.85982" lon="2.22709">
        <ele>107</ele>
        <time>2017-05-07T09:23:19.377Z</time>
      </trkpt>
      <trkpt lat="47.85982" lon="2.22709">
        <ele>107</ele>
        <time>2017-05-07T09:23:20.375Z</time>
      </trkpt>
      <trkpt lat="47.85983" lon="2.22699">
        <ele>107</ele>
        <time>2017-05-07T09:23:21.393Z</time>
      </trkpt>
      <trkpt lat="47.85984" lon="2.22695">
        <ele>108</ele>
        <time>2017-05-07T09:23:22.382Z</time>
      </trkpt>
      <trkpt lat="47.85985" lon="2.22691">
        <ele>108</ele>
        <time>2017-05-07T09:23:23.381Z</time>
      </trkpt>
      <trkpt lat="47.85985" lon="2.22691">
        <ele>108</ele>
        <time>2017-05-07T09:23:24.370Z</time>
      </trkpt>
      <trkpt lat="47.85986" lon="2.22682">
        <ele>108</ele>
        <time>2017-05-07T09:23:25.377Z</time>
      </trkpt>
      <trkpt lat="47.85986" lon="2.22682">
        <ele>108</ele>
        <time>2017-05-07T09:23:26.373Z</time>
      </trkpt>
      <trkpt lat="47.85986" lon="2.22671">
        <ele>109</ele>
        <time>2017-05-07T09:23:27.378Z</time>
      </trkpt>
      <trkpt lat="47.85987" lon="2.22667">
        <ele>109</ele>
        <time>2017-05-07T09:23:28.375Z</time>
      </trkpt>
      <trkpt lat="47.85987" lon="2.22662">
        <ele>109</ele>
        <time>2017-05-07T09:23:29.386Z</time>
      </trkpt>
      <trkpt lat="47.85987" lon="2.22662">
        <ele>109</ele>
        <time>2017-05-07T09:23:30.375Z</time>
      </trkpt>
      <trkpt lat="47.85989" lon="2.22653">
        <ele>109</ele>
        <time>2017-05-07T09:23:31.378Z</time>
      </trkpt>
      <trkpt lat="47.85989" lon="2.22653">
        <ele>109</ele>
        <time>2017-05-07T09:23:32.373Z</time>
      </trkpt>
      <trkpt lat="47.85985" lon="2.22649">
        <ele>109</ele>
        <time>2017-05-07T09:23:33.376Z</time>
      </trkpt>
      <trkpt lat="47.85985" lon="2.22649">
        <ele>109</ele>
        <time>2017-05-07T09:23:34.378Z</time>
      </trkpt>
      <trkpt lat="47.85981" lon="2.2265">
        <ele>107</ele>
        <time>2017-05-07T09:23:35.382Z</time>
      </trkpt>
      <trkpt lat="47.85981" lon="2.2265">
        <ele>107</ele>
        <time>2017-05-07T09:23:36.374Z</time>
      </trkpt>
      <trkpt lat="47.8598" lon="2.22655">
        <ele>107</ele>
        <time>2017-05-07T09:23:37.379Z</time>
      </trkpt>
      <trkpt lat="47.8598" lon="2.22655">
        <ele>107</ele>
        <time>2017-05-07T09:23:38.374Z</time>
      </trkpt>
      <trkpt lat="47.85979" lon="2.22662">
        <ele>106</ele>
        <time>2017-05-07T09:23:39.378Z</time>
      </trkpt>
      <trkpt lat="47.85979" lon="2.22666">
        <ele>105</ele>
        <time>2017-05-07T09:23:40.377Z</time>
      </trkpt>
      <trkpt lat="47.85978" lon="2.22669">
        <ele>105</ele>
        <time>2017-05-07T09:23:41.388Z</time>
      </trkpt>
      <trkpt lat="47.85978" lon="2.22669">
        <ele>105</ele>
        <time>2017-05-07T09:23:42.376Z</time>
      </trkpt>
      <trkpt lat="47.85976" lon="2.22674">
        <ele>104</ele>
        <time>2017-05-07T09:23:43.378Z</time>
      </trkpt>
      <trkpt lat="47.85976" lon="2.22674">
        <ele>104</ele>
        <time>2017-05-07T09:23:44.373Z</time>
      </trkpt>
      <trkpt lat="47.85974" lon="2.22677">
        <ele>103</ele>
        <time>2017-05-07T09:23:45.377Z</time>
      </trkpt>
      <trkpt lat="47.85972" lon="2.22678">
        <ele>103</ele>
        <time>2017-05-07T09:23:46.378Z</time>
      </trkpt>
      <trkpt lat="47.85972" lon="2.22678">
        <ele>102</ele>
        <time>2017-05-07T09:23:47.382Z</time>
      </trkpt>
      <trkpt lat="47.85972" lon="2.22678">
        <ele>102</ele>
        <time>2017-05-07T09:23:48.374Z</time>
      </trkpt>
      <trkpt lat="47.85972" lon="2.22676">
        <ele>102</ele>
        <time>2017-05-07T09:23:49.377Z</time>
      </trkpt>
      <trkpt lat="47.85974" lon="2.22676">
        <ele>100</ele>
        <time>2017-05-07T09:23:50.393Z</time>
      </trkpt>
      <trkpt lat="47.85974" lon="2.22676">
        <ele>100</ele>
        <time>2017-05-07T09:23:51.382Z</time>
      </trkpt>
      <trkpt lat="47.85974" lon="2.22676">
        <ele>100</ele>
        <time>2017-05-07T09:23:52.363Z</time>
      </trkpt>
      <trkpt lat="47.8598" lon="2.22669">
        <ele>101</ele>
        <time>2017-05-07T09:23:53.379Z</time>
      </trkpt>
      <trkpt lat="47.85982" lon="2.22666">
        <ele>101</ele>
        <time>2017-05-07T09:23:54.380Z</time>
      </trkpt>
      <trkpt lat="47.85982" lon="2.22666">
        <ele>101</ele>
        <time>2017-05-07T09:23:55.377Z</time>
      </trkpt>
      <trkpt lat="47.85984" lon="2.2266">
        <ele>101</ele>
        <time>2017-05-07T09:23:56.380Z</time>
      </trkpt>
      <trkpt lat="47.85985" lon="2.22657">
        <ele>101</ele>
        <time>2017-05-07T09:23:57.382Z</time>
      </trkpt>
      <trkpt lat="47.85985" lon="2.22657">
        <ele>101</ele>
        <time>2017-05-07T09:23:58.375Z</time>
      </trkpt>
      <trkpt lat="47.85988" lon="2.22649">
        <ele>101</ele>
        <time>2017-05-07T09:23:59.380Z</time>
      </trkpt>
      <trkpt lat="47.85988" lon="2.22649">
        <ele>101</ele>
        <time>2017-05-07T09:24:00.375Z</time>
      </trkpt>
      <trkpt lat="47.85991" lon="2.22641">
        <ele>101</ele>
        <time>2017-05-07T09:24:01.380Z</time>
      </trkpt>
      <trkpt lat="47.85991" lon="2.22641">
        <ele>101</ele>
        <time>2017-05-07T09:24:02.375Z</time>
      </trkpt>
      <trkpt lat="47.85994" lon="2.22633">
        <ele>101</ele>
        <time>2017-05-07T09:24:03.379Z</time>
      </trkpt>
      <trkpt lat="47.85994" lon="2.22633">
        <ele>101</ele>
        <time>2017-05-07T09:24:04.375Z</time>
      </trkpt>
      <trkpt lat="47.85994" lon="2.22624">
        <ele>102</ele>
        <time>2017-05-07T09:24:05.379Z</time>
      </trkpt>
      <trkpt lat="47.85994" lon="2.22624">
        <ele>102</ele>
        <time>2017-05-07T09:24:06.374Z</time>
      </trkpt>
      <trkpt lat="47.85994" lon="2.22616">
        <ele>102</ele>
        <time>2017-05-07T09:24:07.381Z</time>
      </trkpt>
      <trkpt lat="47.85993" lon="2.22611">
        <ele>102</ele>
        <time>2017-05-07T09:24:08.376Z</time>
      </trkpt>
      <trkpt lat="47.85993" lon="2.22605">
        <ele>103</ele>
        <time>2017-05-07T09:24:09.382Z</time>
      </trkpt>
      <trkpt lat="47.85993" lon="2.22605">
        <ele>103</ele>
        <time>2017-05-07T09:24:10.375Z</time>
      </trkpt>
      <trkpt lat="47.85993" lon="2.22593">
        <ele>103</ele>
        <time>2017-05-07T09:24:11.390Z</time>
      </trkpt>
      <trkpt lat="47.85993" lon="2.22593">
        <ele>103</ele>
        <time>2017-05-07T09:24:12.379Z</time>
      </trkpt>
      <trkpt lat="47.85994" lon="2.2258">
        <ele>103</ele>
        <time>2017-05-07T09:24:13.379Z</time>
      </trkpt>
      <trkpt lat="47.85994" lon="2.2258">
        <ele>103</ele>
        <time>2017-05-07T09:24:14.374Z</time>
      </trkpt>
      <trkpt lat="47.85994" lon="2.22568">
        <ele>104</ele>
        <time>2017-05-07T09:24:15.381Z</time>
      </trkpt>
      <trkpt lat="47.85994" lon="2.22568">
        <ele>104</ele>
        <time>2017-05-07T09:24:16.374Z</time>
      </trkpt>
      <trkpt lat="47.85995" lon="2.22557">
        <ele>104</ele>
        <time>2017-05-07T09:24:17.380Z</time>
      </trkpt>
      <trkpt lat="47.85995" lon="2.22557">
        <ele>104</ele>
        <time>2017-05-07T09:24:18.375Z</time>
      </trkpt>
      <trkpt lat="47.85994" lon="2.22546">
        <ele>104</ele>
        <time>2017-05-07T09:24:19.380Z</time>
      </trkpt>
      <trkpt lat="47.85994" lon="2.22546">
        <ele>104</ele>
        <time>2017-05-07T09:24:20.374Z</time>
      </trkpt>
      <trkpt lat="47.85994" lon="2.22533">
        <ele>104</ele>
        <time>2017-05-07T09:24:21.393Z</time>
      </trkpt>
      <trkpt lat="47.85994" lon="2.22526">
        <ele>104</ele>
        <time>2017-05-07T09:24:22.385Z</time>
      </trkpt>
      <trkpt lat="47.85994" lon="2.22526">
        <ele>104</ele>
        <time>2017-05-07T09:24:23.377Z</time>
      </trkpt>
      <trkpt lat="47.85995" lon="2.22512">
        <ele>104</ele>
        <time>2017-05-07T09:24:24.380Z</time>
      </trkpt>
      <trkpt lat="47.85995" lon="2.22512">
        <ele>104</ele>
        <time>2017-05-07T09:24:25.376Z</time>
      </trkpt>
      <trkpt lat="47.85995" lon="2.22498">
        <ele>104</ele>
        <time>2017-05-07T09:24:26.380Z</time>
      </trkpt>
      <trkpt lat="47.85995" lon="2.22498">
        <ele>104</ele>
        <time>2017-05-07T09:24:27.384Z</time>
      </trkpt>
      <trkpt lat="47.85994" lon="2.22484">
        <ele>104</ele>
        <time>2017-05-07T09:24:28.377Z</time>
      </trkpt>
      <trkpt lat="47.85994" lon="2.22476">
        <ele>104</ele>
        <time>2017-05-07T09:24:29.378Z</time>
      </trkpt>
      <trkpt lat="47.85994" lon="2.22476">
        <ele>104</ele>
        <time>2017-05-07T09:24:30.374Z</time>
      </trkpt>
      <trkpt lat="47.85994" lon="2.22461">
        <ele>104</ele>
        <time>2017-05-07T09:24:31.388Z</time>
      </trkpt>
      <trkpt lat="47.85994" lon="2.22461">
        <ele>104</ele>
        <time>2017-05-07T09:24:32.377Z</time>
      </trkpt>
      <trkpt lat="47.85993" lon="2.22444">
        <ele>104</ele>
        <time>2017-05-07T09:24:33.357Z</time>
      </trkpt>
      <trkpt lat="47.85993" lon="2.22436">
        <ele>104</ele>
        <time>2017-05-07T09:24:34.389Z</time>
      </trkpt>
      <trkpt lat="47.85993" lon="2.22436">
        <ele>104</ele>
        <time>2017-05-07T09:24:35.379Z</time>
      </trkpt>
      <trkpt lat="47.85992" lon="2.22419">
        <ele>105</ele>
        <time>2017-05-07T09:24:36.380Z</time>
      </trkpt>
      <trkpt lat="47.85992" lon="2.22419">
        <ele>105</ele>
        <time>2017-05-07T09:24:37.382Z</time>
      </trkpt>
      <trkpt lat="47.85992" lon="2.22404">
        <ele>105</ele>
        <time>2017-05-07T09:24:38.380Z</time>
      </trkpt>
      <trkpt lat="47.85992" lon="2.22397">
        <ele>105</ele>
        <time>2017-05-07T09:24:39.381Z</time>
      </trkpt>
      <trkpt lat="47.85992" lon="2.22397">
        <ele>105</ele>
        <time>2017-05-07T09:24:40.374Z</time>
      </trkpt>
      <trkpt lat="47.85992" lon="2.22383">
        <ele>105</ele>
        <time>2017-05-07T09:24:41.380Z</time>
      </trkpt>
      <trkpt lat="47.85992" lon="2.22383">
        <ele>105</ele>
        <time>2017-05-07T09:24:42.374Z</time>
      </trkpt>
      <trkpt lat="47.85992" lon="2.2237">
        <ele>106</ele>
        <time>2017-05-07T09:24:43.380Z</time>
      </trkpt>
      <trkpt lat="47.85992" lon="2.2237">
        <ele>106</ele>
        <time>2017-05-07T09:24:44.374Z</time>
      </trkpt>
      <trkpt lat="47.85993" lon="2.22358">
        <ele>106</ele>
        <time>2017-05-07T09:24:45.386Z</time>
      </trkpt>
      <trkpt lat="47.85993" lon="2.22358">
        <ele>106</ele>
        <time>2017-05-07T09:24:46.376Z</time>
      </trkpt>
      <trkpt lat="47.85996" lon="2.22349">
        <ele>107</ele>
        <time>2017-05-07T09:24:47.380Z</time>
      </trkpt>
      <trkpt lat="47.85996" lon="2.22349">
        <ele>107</ele>
        <time>2017-05-07T09:24:48.375Z</time>
      </trkpt>
      <trkpt lat="47.85997" lon="2.22344">
        <ele>107</ele>
        <time>2017-05-07T09:24:49.380Z</time>
      </trkpt>
      <trkpt lat="47.85997" lon="2.22344">
        <ele>107</ele>
        <time>2017-05-07T09:24:50.376Z</time>
      </trkpt>
      <trkpt lat="47.85997" lon="2.22337">
        <ele>106</ele>
        <time>2017-05-07T09:24:51.389Z</time>
      </trkpt>
      <trkpt lat="47.85997" lon="2.22337">
        <ele>106</ele>
        <time>2017-05-07T09:24:52.379Z</time>
      </trkpt>
      <trkpt lat="47.85993" lon="2.22332">
        <ele>107</ele>
        <time>2017-05-07T09:24:53.379Z</time>
      </trkpt>
      <trkpt lat="47.85993" lon="2.22332">
        <ele>107</ele>
        <time>2017-05-07T09:24:54.375Z</time>
      </trkpt>
      <trkpt lat="47.85986" lon="2.22328">
        <ele>106</ele>
        <time>2017-05-07T09:24:55.380Z</time>
      </trkpt>
      <trkpt lat="47.85986" lon="2.22328">
        <ele>106</ele>
        <time>2017-05-07T09:24:56.375Z</time>
      </trkpt>
      <trkpt lat="47.85978" lon="2.22327">
        <ele>107</ele>
        <time>2017-05-07T09:24:57.382Z</time>
      </trkpt>
      <trkpt lat="47.85978" lon="2.22327">
        <ele>107</ele>
        <time>2017-05-07T09:24:58.375Z</time>
      </trkpt>
      <trkpt lat="47.85971" lon="2.22328">
        <ele>107</ele>
        <time>2017-05-07T09:24:59.381Z</time>
      </trkpt>
      <trkpt lat="47.85971" lon="2.22328">
        <ele>107</ele>
        <time>2017-05-07T09:25:00.393Z</time>
      </trkpt>
      <trkpt lat="47.85962" lon="2.22329">
        <ele>107</ele>
        <time>2017-05-07T09:25:01.382Z</time>
      </trkpt>
      <trkpt lat="47.85962" lon="2.22329">
        <ele>107</ele>
        <time>2017-05-07T09:25:02.378Z</time>
      </trkpt>
      <trkpt lat="47.85954" lon="2.22329">
        <ele>107</ele>
        <time>2017-05-07T09:25:03.382Z</time>
      </trkpt>
      <trkpt lat="47.85954" lon="2.22329">
        <ele>107</ele>
        <time>2017-05-07T09:25:04.375Z</time>
      </trkpt>
      <trkpt lat="47.85946" lon="2.22331">
        <ele>107</ele>
        <time>2017-05-07T09:25:05.380Z</time>
      </trkpt>
      <trkpt lat="47.85946" lon="2.22331">
        <ele>107</ele>
        <time>2017-05-07T09:25:06.375Z</time>
      </trkpt>
      <trkpt lat="47.85937" lon="2.22332">
        <ele>107</ele>
        <time>2017-05-07T09:25:07.379Z</time>
      </trkpt>
      <trkpt lat="47.85937" lon="2.22332">
        <ele>107</ele>
        <time>2017-05-07T09:25:08.375Z</time>
      </trkpt>
      <trkpt lat="47.85928" lon="2.22332">
        <ele>107</ele>
        <time>2017-05-07T09:25:09.382Z</time>
      </trkpt>
      <trkpt lat="47.85928" lon="2.22332">
        <ele>107</ele>
        <time>2017-05-07T09:25:10.375Z</time>
      </trkpt>
      <trkpt lat="47.85919" lon="2.22333">
        <ele>107</ele>
        <time>2017-05-07T09:25:11.380Z</time>
      </trkpt>
      <trkpt lat="47.85919" lon="2.22333">
        <ele>107</ele>
        <time>2017-05-07T09:25:12.375Z</time>
      </trkpt>
      <trkpt lat="47.8591" lon="2.22334">
        <ele>106</ele>
        <time>2017-05-07T09:25:13.380Z</time>
      </trkpt>
      <trkpt lat="47.8591" lon="2.22334">
        <ele>106</ele>
        <time>2017-05-07T09:25:14.371Z</time>
      </trkpt>
      <trkpt lat="47.859" lon="2.22335">
        <ele>106</ele>
        <time>2017-05-07T09:25:15.380Z</time>
      </trkpt>
      <trkpt lat="47.859" lon="2.22335">
        <ele>106</ele>
        <time>2017-05-07T09:25:16.375Z</time>
      </trkpt>
      <trkpt lat="47.85891" lon="2.22336">
        <ele>106</ele>
        <time>2017-05-07T09:25:17.380Z</time>
      </trkpt>
      <trkpt lat="47.85891" lon="2.22336">
        <ele>106</ele>
        <time>2017-05-07T09:25:18.378Z</time>
      </trkpt>
      <trkpt lat="47.85882" lon="2.22336">
        <ele>106</ele>
        <time>2017-05-07T09:25:19.380Z</time>
      </trkpt>
      <trkpt lat="47.85882" lon="2.22336">
        <ele>106</ele>
        <time>2017-05-07T09:25:20.374Z</time>
      </trkpt>
      <trkpt lat="47.85873" lon="2.22338">
        <ele>106</ele>
        <time>2017-05-07T09:25:21.382Z</time>
      </trkpt>
      <trkpt lat="47.85873" lon="2.22338">
        <ele>106</ele>
        <time>2017-05-07T09:25:22.377Z</time>
      </trkpt>
      <trkpt lat="47.85865" lon="2.22339">
        <ele>106</ele>
        <time>2017-05-07T09:25:23.380Z</time>
      </trkpt>
      <trkpt lat="47.85865" lon="2.22339">
        <ele>106</ele>
        <time>2017-05-07T09:25:24.375Z</time>
      </trkpt>
      <trkpt lat="47.85855" lon="2.2234">
        <ele>107</ele>
        <time>2017-05-07T09:25:25.380Z</time>
      </trkpt>
      <trkpt lat="47.85855" lon="2.2234">
        <ele>107</ele>
        <time>2017-05-07T09:25:26.374Z</time>
      </trkpt>
      <trkpt lat="47.85846" lon="2.22341">
        <ele>107</ele>
        <time>2017-05-07T09:25:27.384Z</time>
      </trkpt>
      <trkpt lat="47.85846" lon="2.22341">
        <ele>107</ele>
        <time>2017-05-07T09:25:28.374Z</time>
      </trkpt>
      <trkpt lat="47.85836" lon="2.22343">
        <ele>107</ele>
        <time>2017-05-07T09:25:29.379Z</time>
      </trkpt>
      <trkpt lat="47.85836" lon="2.22343">
        <ele>107</ele>
        <time>2017-05-07T09:25:30.375Z</time>
      </trkpt>
      <trkpt lat="47.85828" lon="2.22344">
        <ele>107</ele>
        <time>2017-05-07T09:25:31.378Z</time>
      </trkpt>
      <trkpt lat="47.85828" lon="2.22344">
        <ele>107</ele>
        <time>2017-05-07T09:25:32.376Z</time>
      </trkpt>
      <trkpt lat="47.85819" lon="2.22344">
        <ele>107</ele>
        <time>2017-05-07T09:25:33.379Z</time>
      </trkpt>
      <trkpt lat="47.85819" lon="2.22344">
        <ele>107</ele>
        <time>2017-05-07T09:25:34.375Z</time>
      </trkpt>
      <trkpt lat="47.8581" lon="2.22346">
        <ele>107</ele>
        <time>2017-05-07T09:25:35.380Z</time>
      </trkpt>
      <trkpt lat="47.8581" lon="2.22346">
        <ele>107</ele>
        <time>2017-05-07T09:25:36.377Z</time>
      </trkpt>
      <trkpt lat="47.85801" lon="2.22346">
        <ele>107</ele>
        <time>2017-05-07T09:25:37.380Z</time>
      </trkpt>
      <trkpt lat="47.85801" lon="2.22346">
        <ele>107</ele>
        <time>2017-05-07T09:25:38.374Z</time>
      </trkpt>
      <trkpt lat="47.85792" lon="2.22347">
        <ele>107</ele>
        <time>2017-05-07T09:25:39.382Z</time>
      </trkpt>
      <trkpt lat="47.85792" lon="2.22347">
        <ele>107</ele>
        <time>2017-05-07T09:25:40.374Z</time>
      </trkpt>
      <trkpt lat="47.85783" lon="2.22348">
        <ele>107</ele>
        <time>2017-05-07T09:25:41.357Z</time>
      </trkpt>
      <trkpt lat="47.85783" lon="2.22348">
        <ele>107</ele>
        <time>2017-05-07T09:25:42.388Z</time>
      </trkpt>
      <trkpt lat="47.85774" lon="2.22349">
        <ele>107</ele>
        <time>2017-05-07T09:25:43.379Z</time>
      </trkpt>
      <trkpt lat="47.85774" lon="2.22349">
        <ele>107</ele>
        <time>2017-05-07T09:25:44.375Z</time>
      </trkpt>
      <trkpt lat="47.85765" lon="2.22349">
        <ele>107</ele>
        <time>2017-05-07T09:25:45.379Z</time>
      </trkpt>
      <trkpt lat="47.85765" lon="2.22349">
        <ele>107</ele>
        <time>2017-05-07T09:25:46.377Z</time>
      </trkpt>
      <trkpt lat="47.85756" lon="2.2235">
        <ele>107</ele>
        <time>2017-05-07T09:25:47.380Z</time>
      </trkpt>
      <trkpt lat="47.85756" lon="2.2235">
        <ele>107</ele>
        <time>2017-05-07T09:25:48.378Z</time>
      </trkpt>
      <trkpt lat="47.85746" lon="2.22351">
        <ele>106</ele>
        <time>2017-05-07T09:25:49.380Z</time>
      </trkpt>
      <trkpt lat="47.85746" lon="2.22351">
        <ele>106</ele>
        <time>2017-05-07T09:25:50.374Z</time>
      </trkpt>
      <trkpt lat="47.85736" lon="2.22352">
        <ele>106</ele>
        <time>2017-05-07T09:25:51.381Z</time>
      </trkpt>
      <trkpt lat="47.85736" lon="2.22352">
        <ele>106</ele>
        <time>2017-05-07T09:25:52.377Z</time>
      </trkpt>
      <trkpt lat="47.85725" lon="2.22353">
        <ele>106</ele>
        <time>2017-05-07T09:25:53.380Z</time>
      </trkpt>
      <trkpt lat="47.85725" lon="2.22353">
        <ele>106</ele>
        <time>2017-05-07T09:25:54.374Z</time>
      </trkpt>
      <trkpt lat="47.85713" lon="2.22354">
        <ele>106</ele>
        <time>2017-05-07T09:25:55.393Z</time>
      </trkpt>
      <trkpt lat="47.85713" lon="2.22354">
        <ele>106</ele>
        <time>2017-05-07T09:25:56.383Z</time>
      </trkpt>
      <trkpt lat="47.857" lon="2.22355">
        <ele>105</ele>
        <time>2017-05-07T09:25:57.381Z</time>
      </trkpt>
      <trkpt lat="47.85693" lon="2.22355">
        <ele>105</ele>
        <time>2017-05-07T09:25:58.380Z</time>
      </trkpt>
      <trkpt lat="47.85693" lon="2.22355">
        <ele>105</ele>
        <time>2017-05-07T09:25:59.388Z</time>
      </trkpt>
      <trkpt lat="47.8568" lon="2.22357">
        <ele>104</ele>
        <time>2017-05-07T09:26:00.389Z</time>
      </trkpt>
      <trkpt lat="47.8568" lon="2.22357">
        <ele>104</ele>
        <time>2017-05-07T09:26:01.355Z</time>
      </trkpt>
      <trkpt lat="47.85668" lon="2.22359">
        <ele>105</ele>
        <time>2017-05-07T09:26:02.361Z</time>
      </trkpt>
      <trkpt lat="47.85661" lon="2.22359">
        <ele>105</ele>
        <time>2017-05-07T09:26:03.393Z</time>
      </trkpt>
      <trkpt lat="47.85661" lon="2.22359">
        <ele>105</ele>
        <time>2017-05-07T09:26:04.382Z</time>
      </trkpt>
      <trkpt lat="47.85648" lon="2.22359">
        <ele>105</ele>
        <time>2017-05-07T09:26:05.380Z</time>
      </trkpt>
      <trkpt lat="47.85648" lon="2.22359">
        <ele>105</ele>
        <time>2017-05-07T09:26:06.394Z</time>
      </trkpt>
      <trkpt lat="47.85637" lon="2.2236">
        <ele>105</ele>
        <time>2017-05-07T09:26:07.386Z</time>
      </trkpt>
      <trkpt lat="47.85637" lon="2.2236">
        <ele>105</ele>
        <time>2017-05-07T09:26:08.377Z</time>
      </trkpt>
      <trkpt lat="47.85628" lon="2.22361">
        <ele>105</ele>
        <time>2017-05-07T09:26:09.380Z</time>
      </trkpt>
      <trkpt lat="47.85624" lon="2.2236">
        <ele>105</ele>
        <time>2017-05-07T09:26:10.369Z</time>
      </trkpt>
      <trkpt lat="47.85624" lon="2.2236">
        <ele>105</ele>
        <time>2017-05-07T09:26:11.375Z</time>
      </trkpt>
      <trkpt lat="47.85619" lon="2.22355">
        <ele>105</ele>
        <time>2017-05-07T09:26:12.381Z</time>
      </trkpt>
      <trkpt lat="47.85619" lon="2.22355">
        <ele>105</ele>
        <time>2017-05-07T09:26:13.387Z</time>
      </trkpt>
      <trkpt lat="47.85618" lon="2.2235">
        <ele>105</ele>
        <time>2017-05-07T09:26:14.381Z</time>
      </trkpt>
      <trkpt lat="47.85618" lon="2.2235">
        <ele>105</ele>
        <time>2017-05-07T09:26:15.379Z</time>
      </trkpt>
      <trkpt lat="47.85618" lon="2.2235">
        <ele>105</ele>
        <time>2017-05-07T09:26:16.376Z</time>
      </trkpt>
      <trkpt lat="47.85617" lon="2.2235">
        <ele>105</ele>
        <time>2017-05-07T09:26:17.360Z</time>
      </trkpt>
      <trkpt lat="47.85617" lon="2.2235">
        <ele>105</ele>
        <time>2017-05-07T09:26:18.393Z</time>
      </trkpt>
      <trkpt lat="47.85616" lon="2.22341">
        <ele>102</ele>
        <time>2017-05-07T09:26:19.364Z</time>
      </trkpt>
      <trkpt lat="47.85616" lon="2.22341">
        <ele>102</ele>
        <time>2017-05-07T09:26:20.394Z</time>
      </trkpt>
      <trkpt lat="47.85617" lon="2.22338">
        <ele>102</ele>
        <time>2017-05-07T09:26:21.358Z</time>
      </trkpt>
      <trkpt lat="47.85617" lon="2.22338">
        <ele>102</ele>
        <time>2017-05-07T09:26:22.365Z</time>
      </trkpt>
      <trkpt lat="47.85617" lon="2.22335">
        <ele>102</ele>
        <time>2017-05-07T09:26:23.362Z</time>
      </trkpt>
      <trkpt lat="47.85617" lon="2.22335">
        <ele>102</ele>
        <time>2017-05-07T09:26:24.394Z</time>
      </trkpt>
      <trkpt lat="47.85618" lon="2.2233">
        <ele>103</ele>
        <time>2017-05-07T09:26:25.359Z</time>
      </trkpt>
      <trkpt lat="47.85618" lon="2.2233">
        <ele>103</ele>
        <time>2017-05-07T09:26:26.394Z</time>
      </trkpt>
      <trkpt lat="47.85619" lon="2.22324">
        <ele>102</ele>
        <time>2017-05-07T09:26:27.391Z</time>
      </trkpt>
      <trkpt lat="47.85619" lon="2.22324">
        <ele>102</ele>
        <time>2017-05-07T09:26:28.394Z</time>
      </trkpt>
      <trkpt lat="47.85621" lon="2.22315">
        <ele>102</ele>
        <time>2017-05-07T09:26:29.361Z</time>
      </trkpt>
      <trkpt lat="47.85621" lon="2.22315">
        <ele>102</ele>
        <time>2017-05-07T09:26:30.394Z</time>
      </trkpt>
      <trkpt lat="47.85621" lon="2.22304">
        <ele>102</ele>
        <time>2017-05-07T09:26:31.360Z</time>
      </trkpt>
      <trkpt lat="47.85621" lon="2.22304">
        <ele>102</ele>
        <time>2017-05-07T09:26:32.394Z</time>
      </trkpt>
      <trkpt lat="47.85622" lon="2.22292">
        <ele>102</ele>
        <time>2017-05-07T09:26:33.360Z</time>
      </trkpt>
      <trkpt lat="47.85622" lon="2.22292">
        <ele>102</ele>
        <time>2017-05-07T09:26:34.394Z</time>
      </trkpt>
      <trkpt lat="47.85624" lon="2.22279">
        <ele>102</ele>
        <time>2017-05-07T09:26:35.362Z</time>
      </trkpt>
      <trkpt lat="47.85624" lon="2.22279">
        <ele>102</ele>
        <time>2017-05-07T09:26:36.393Z</time>
      </trkpt>
      <trkpt lat="47.85627" lon="2.22266">
        <ele>103</ele>
        <time>2017-05-07T09:26:37.358Z</time>
      </trkpt>
      <trkpt lat="47.85627" lon="2.22266">
        <ele>103</ele>
        <time>2017-05-07T09:26:38.394Z</time>
      </trkpt>
      <trkpt lat="47.85628" lon="2.22253">
        <ele>103</ele>
        <time>2017-05-07T09:26:39.357Z</time>
      </trkpt>
      <trkpt lat="47.85628" lon="2.22253">
        <ele>103</ele>
        <time>2017-05-07T09:26:40.394Z</time>
      </trkpt>
      <trkpt lat="47.85629" lon="2.22239">
        <ele>105</ele>
        <time>2017-05-07T09:26:41.362Z</time>
      </trkpt>
      <trkpt lat="47.85629" lon="2.22239">
        <ele>105</ele>
        <time>2017-05-07T09:26:42.393Z</time>
      </trkpt>
      <trkpt lat="47.8563" lon="2.22227">
        <ele>106</ele>
        <time>2017-05-07T09:26:43.370Z</time>
      </trkpt>
      <trkpt lat="47.8563" lon="2.22227">
        <ele>106</ele>
        <time>2017-05-07T09:26:44.358Z</time>
      </trkpt>
      <trkpt lat="47.85631" lon="2.22216">
        <ele>107</ele>
        <time>2017-05-07T09:26:45.359Z</time>
      </trkpt>
      <trkpt lat="47.85631" lon="2.2221">
        <ele>107</ele>
        <time>2017-05-07T09:26:46.368Z</time>
      </trkpt>
      <trkpt lat="47.85631" lon="2.2221">
        <ele>107</ele>
        <time>2017-05-07T09:26:47.356Z</time>
      </trkpt>
      <trkpt lat="47.8563" lon="2.22198">
        <ele>108</ele>
        <time>2017-05-07T09:26:48.358Z</time>
      </trkpt>
      <trkpt lat="47.8563" lon="2.22198">
        <ele>108</ele>
        <time>2017-05-07T09:26:49.394Z</time>
      </trkpt>
      <trkpt lat="47.85629" lon="2.22185">
        <ele>109</ele>
        <time>2017-05-07T09:26:50.377Z</time>
      </trkpt>
      <trkpt lat="47.85629" lon="2.22185">
        <ele>109</ele>
        <time>2017-05-07T09:26:51.365Z</time>
      </trkpt>
      <trkpt lat="47.85628" lon="2.22171">
        <ele>110</ele>
        <time>2017-05-07T09:26:52.358Z</time>
      </trkpt>
      <trkpt lat="47.85629" lon="2.22164">
        <ele>111</ele>
        <time>2017-05-07T09:26:53.361Z</time>
      </trkpt>
      <trkpt lat="47.85628" lon="2.22158">
        <ele>112</ele>
        <time>2017-05-07T09:26:54.370Z</time>
      </trkpt>
      <trkpt lat="47.85628" lon="2.22158">
        <ele>112</ele>
        <time>2017-05-07T09:26:55.372Z</time>
      </trkpt>
      <trkpt lat="47.85627" lon="2.22145">
        <ele>113</ele>
        <time>2017-05-07T09:26:56.363Z</time>
      </trkpt>
      <trkpt lat="47.85627" lon="2.22145">
        <ele>113</ele>
        <time>2017-05-07T09:26:57.355Z</time>
      </trkpt>
      <trkpt lat="47.85627" lon="2.22129">
        <ele>114</ele>
        <time>2017-05-07T09:26:58.356Z</time>
      </trkpt>
      <trkpt lat="47.85626" lon="2.22122">
        <ele>114</ele>
        <time>2017-05-07T09:26:59.388Z</time>
      </trkpt>
      <trkpt lat="47.85626" lon="2.22122">
        <ele>114</ele>
        <time>2017-05-07T09:27:00.394Z</time>
      </trkpt>
      <trkpt lat="47.85626" lon="2.22108">
        <ele>115</ele>
        <time>2017-05-07T09:27:01.359Z</time>
      </trkpt>
      <trkpt lat="47.85626" lon="2.22108">
        <ele>115</ele>
        <time>2017-05-07T09:27:02.394Z</time>
      </trkpt>
      <trkpt lat="47.85624" lon="2.22093">
        <ele>115</ele>
        <time>2017-05-07T09:27:03.358Z</time>
      </trkpt>
      <trkpt lat="47.85623" lon="2.22084">
        <ele>115</ele>
        <time>2017-05-07T09:27:04.361Z</time>
      </trkpt>
      <trkpt lat="47.85622" lon="2.22077">
        <ele>116</ele>
        <time>2017-05-07T09:27:05.362Z</time>
      </trkpt>
      <trkpt lat="47.85622" lon="2.22077">
        <ele>116</ele>
        <time>2017-05-07T09:27:06.358Z</time>
      </trkpt>
      <trkpt lat="47.85619" lon="2.22062">
        <ele>116</ele>
        <time>2017-05-07T09:27:07.359Z</time>
      </trkpt>
      <trkpt lat="47.85619" lon="2.22062">
        <ele>116</ele>
        <time>2017-05-07T09:27:08.394Z</time>
      </trkpt>
      <trkpt lat="47.85617" lon="2.22049">
        <ele>117</ele>
        <time>2017-05-07T09:27:09.359Z</time>
      </trkpt>
      <trkpt lat="47.85616" lon="2.22042">
        <ele>117</ele>
        <time>2017-05-07T09:27:10.359Z</time>
      </trkpt>
      <trkpt lat="47.85616" lon="2.22042">
        <ele>117</ele>
        <time>2017-05-07T09:27:11.356Z</time>
      </trkpt>
      <trkpt lat="47.85614" lon="2.22027">
        <ele>117</ele>
        <time>2017-05-07T09:27:12.360Z</time>
      </trkpt>
      <trkpt lat="47.85614" lon="2.22027">
        <ele>117</ele>
        <time>2017-05-07T09:27:13.394Z</time>
      </trkpt>
      <trkpt lat="47.85613" lon="2.22013">
        <ele>118</ele>
        <time>2017-05-07T09:27:14.360Z</time>
      </trkpt>
      <trkpt lat="47.85613" lon="2.22013">
        <ele>118</ele>
        <time>2017-05-07T09:27:15.394Z</time>
      </trkpt>
      <trkpt lat="47.85611" lon="2.21999">
        <ele>118</ele>
        <time>2017-05-07T09:27:16.359Z</time>
      </trkpt>
      <trkpt lat="47.85611" lon="2.21999">
        <ele>118</ele>
        <time>2017-05-07T09:27:17.377Z</time>
      </trkpt>
      <trkpt lat="47.85609" lon="2.21983">
        <ele>118</ele>
        <time>2017-05-07T09:27:18.368Z</time>
      </trkpt>
      <trkpt lat="47.85609" lon="2.21983">
        <ele>118</ele>
        <time>2017-05-07T09:27:19.357Z</time>
      </trkpt>
      <trkpt lat="47.85606" lon="2.21966">
        <ele>117</ele>
        <time>2017-05-07T09:27:20.360Z</time>
      </trkpt>
      <trkpt lat="47.85606" lon="2.21966">
        <ele>117</ele>
        <time>2017-05-07T09:27:21.394Z</time>
      </trkpt>
      <trkpt lat="47.85605" lon="2.21948">
        <ele>118</ele>
        <time>2017-05-07T09:27:22.359Z</time>
      </trkpt>
      <trkpt lat="47.85605" lon="2.21948">
        <ele>118</ele>
        <time>2017-05-07T09:27:23.359Z</time>
      </trkpt>
      <trkpt lat="47.85603" lon="2.21933">
        <ele>118</ele>
        <time>2017-05-07T09:27:24.360Z</time>
      </trkpt>
      <trkpt lat="47.85603" lon="2.21933">
        <ele>118</ele>
        <time>2017-05-07T09:27:25.394Z</time>
      </trkpt>
      <trkpt lat="47.85601" lon="2.21919">
        <ele>118</ele>
        <time>2017-05-07T09:27:26.359Z</time>
      </trkpt>
      <trkpt lat="47.85601" lon="2.21919">
        <ele>118</ele>
        <time>2017-05-07T09:27:27.375Z</time>
      </trkpt>
      <trkpt lat="47.85599" lon="2.21904">
        <ele>118</ele>
        <time>2017-05-07T09:27:28.366Z</time>
      </trkpt>
      <trkpt lat="47.85598" lon="2.21898">
        <ele>119</ele>
        <time>2017-05-07T09:27:29.362Z</time>
      </trkpt>
      <trkpt lat="47.85596" lon="2.21891">
        <ele>119</ele>
        <time>2017-05-07T09:27:30.359Z</time>
      </trkpt>
      <trkpt lat="47.85596" lon="2.21891">
        <ele>119</ele>
        <time>2017-05-07T09:27:31.394Z</time>
      </trkpt>
      <trkpt lat="47.85594" lon="2.21874">
        <ele>119</ele>
        <time>2017-05-07T09:27:32.358Z</time>
      </trkpt>
      <trkpt lat="47.85594" lon="2.21874">
        <ele>119</ele>
        <time>2017-05-07T09:27:33.366Z</time>
      </trkpt>
      <trkpt lat="47.85592" lon="2.21858">
        <ele>119</ele>
        <time>2017-05-07T09:27:34.376Z</time>
      </trkpt>
      <trkpt lat="47.8559" lon="2.21851">
        <ele>119</ele>
        <time>2017-05-07T09:27:35.364Z</time>
      </trkpt>
      <trkpt lat="47.8559" lon="2.21851">
        <ele>119</ele>
        <time>2017-05-07T09:27:36.355Z</time>
      </trkpt>
      <trkpt lat="47.85588" lon="2.21836">
        <ele>119</ele>
        <time>2017-05-07T09:27:37.360Z</time>
      </trkpt>
      <trkpt lat="47.85588" lon="2.21836">
        <ele>119</ele>
        <time>2017-05-07T09:27:38.368Z</time>
      </trkpt>
      <trkpt lat="47.85586" lon="2.21824">
        <ele>119</ele>
        <time>2017-05-07T09:27:39.359Z</time>
      </trkpt>
      <trkpt lat="47.85586" lon="2.21824">
        <ele>119</ele>
        <time>2017-05-07T09:27:40.355Z</time>
      </trkpt>
      <trkpt lat="47.85581" lon="2.21815">
        <ele>119</ele>
        <time>2017-05-07T09:27:41.361Z</time>
      </trkpt>
      <trkpt lat="47.85581" lon="2.21815">
        <ele>119</ele>
        <time>2017-05-07T09:27:42.355Z</time>
      </trkpt>
      <trkpt lat="47.85577" lon="2.21803">
        <ele>120</ele>
        <time>2017-05-07T09:27:43.391Z</time>
      </trkpt>
      <trkpt lat="47.85575" lon="2.21796">
        <ele>120</ele>
        <time>2017-05-07T09:27:44.361Z</time>
      </trkpt>
      <trkpt lat="47.85575" lon="2.21796">
        <ele>120</ele>
        <time>2017-05-07T09:27:45.355Z</time>
      </trkpt>
      <trkpt lat="47.85573" lon="2.21782">
        <ele>120</ele>
        <time>2017-05-07T09:27:46.360Z</time>
      </trkpt>
      <trkpt lat="47.85573" lon="2.21776">
        <ele>120</ele>
        <time>2017-05-07T09:27:47.360Z</time>
      </trkpt>
      <trkpt lat="47.85573" lon="2.21776">
        <ele>120</ele>
        <time>2017-05-07T09:27:48.355Z</time>
      </trkpt>
      <trkpt lat="47.85573" lon="2.21765">
        <ele>120</ele>
        <time>2017-05-07T09:27:49.359Z</time>
      </trkpt>
      <trkpt lat="47.85573" lon="2.21765">
        <ele>120</ele>
        <time>2017-05-07T09:27:50.394Z</time>
      </trkpt>
      <trkpt lat="47.85571" lon="2.21752">
        <ele>120</ele>
        <time>2017-05-07T09:27:51.360Z</time>
      </trkpt>
      <trkpt lat="47.85571" lon="2.21752">
        <ele>120</ele>
        <time>2017-05-07T09:27:52.357Z</time>
      </trkpt>
      <trkpt lat="47.85567" lon="2.21739">
        <ele>120</ele>
        <time>2017-05-07T09:27:53.369Z</time>
      </trkpt>
      <trkpt lat="47.85567" lon="2.21739">
        <ele>120</ele>
        <time>2017-05-07T09:27:54.382Z</time>
      </trkpt>
      <trkpt lat="47.85563" lon="2.21726">
        <ele>120</ele>
        <time>2017-05-07T09:27:55.382Z</time>
      </trkpt>
      <trkpt lat="47.8556" lon="2.2172">
        <ele>120</ele>
        <time>2017-05-07T09:27:56.372Z</time>
      </trkpt>
      <trkpt lat="47.8556" lon="2.2172">
        <ele>120</ele>
        <time>2017-05-07T09:27:57.361Z</time>
      </trkpt>
      <trkpt lat="47.85556" lon="2.21709">
        <ele>120</ele>
        <time>2017-05-07T09:27:58.358Z</time>
      </trkpt>
      <trkpt lat="47.85554" lon="2.21702">
        <ele>120</ele>
        <time>2017-05-07T09:27:59.369Z</time>
      </trkpt>
      <trkpt lat="47.85554" lon="2.21702">
        <ele>120</ele>
        <time>2017-05-07T09:28:00.359Z</time>
      </trkpt>
      <trkpt lat="47.85551" lon="2.21687">
        <ele>120</ele>
        <time>2017-05-07T09:28:01.365Z</time>
      </trkpt>
      <trkpt lat="47.85551" lon="2.21687">
        <ele>120</ele>
        <time>2017-05-07T09:28:02.371Z</time>
      </trkpt>
      <trkpt lat="47.85548" lon="2.21671">
        <ele>121</ele>
        <time>2017-05-07T09:28:03.379Z</time>
      </trkpt>
      <trkpt lat="47.85546" lon="2.21664">
        <ele>121</ele>
        <time>2017-05-07T09:28:04.369Z</time>
      </trkpt>
      <trkpt lat="47.85546" lon="2.21656">
        <ele>121</ele>
        <time>2017-05-07T09:28:05.361Z</time>
      </trkpt>
      <trkpt lat="47.85546" lon="2.21656">
        <ele>121</ele>
        <time>2017-05-07T09:28:06.394Z</time>
      </trkpt>
      <trkpt lat="47.85542" lon="2.21641">
        <ele>121</ele>
        <time>2017-05-07T09:28:07.359Z</time>
      </trkpt>
      <trkpt lat="47.85542" lon="2.21641">
        <ele>121</ele>
        <time>2017-05-07T09:28:08.394Z</time>
      </trkpt>
      <trkpt lat="47.85538" lon="2.21624">
        <ele>119</ele>
        <time>2017-05-07T09:28:09.359Z</time>
      </trkpt>
      <trkpt lat="47.85538" lon="2.21624">
        <ele>119</ele>
        <time>2017-05-07T09:28:10.394Z</time>
      </trkpt>
      <trkpt lat="47.85535" lon="2.2161">
        <ele>119</ele>
        <time>2017-05-07T09:28:11.361Z</time>
      </trkpt>
      <trkpt lat="47.85535" lon="2.2161">
        <ele>119</ele>
        <time>2017-05-07T09:28:12.395Z</time>
      </trkpt>
      <trkpt lat="47.85533" lon="2.21596">
        <ele>118</ele>
        <time>2017-05-07T09:28:13.359Z</time>
      </trkpt>
      <trkpt lat="47.85533" lon="2.21596">
        <ele>118</ele>
        <time>2017-05-07T09:28:14.358Z</time>
      </trkpt>
      <trkpt lat="47.8553" lon="2.21582">
        <ele>117</ele>
        <time>2017-05-07T09:28:15.356Z</time>
      </trkpt>
      <trkpt lat="47.85528" lon="2.21574">
        <ele>116</ele>
        <time>2017-05-07T09:28:16.357Z</time>
      </trkpt>
      <trkpt lat="47.85527" lon="2.21566">
        <ele>116</ele>
        <time>2017-05-07T09:28:17.361Z</time>
      </trkpt>
      <trkpt lat="47.85525" lon="2.21557">
        <ele>115</ele>
        <time>2017-05-07T09:28:18.359Z</time>
      </trkpt>
      <trkpt lat="47.85525" lon="2.21557">
        <ele>115</ele>
        <time>2017-05-07T09:28:19.394Z</time>
      </trkpt>
      <trkpt lat="47.85522" lon="2.2154">
        <ele>114</ele>
        <time>2017-05-07T09:28:20.359Z</time>
      </trkpt>
      <trkpt lat="47.85522" lon="2.2154">
        <ele>114</ele>
        <time>2017-05-07T09:28:21.394Z</time>
      </trkpt>
      <trkpt lat="47.85519" lon="2.21524">
        <ele>113</ele>
        <time>2017-05-07T09:28:22.358Z</time>
      </trkpt>
      <trkpt lat="47.85516" lon="2.21517">
        <ele>113</ele>
        <time>2017-05-07T09:28:23.361Z</time>
      </trkpt>
      <trkpt lat="47.85516" lon="2.21517">
        <ele>113</ele>
        <time>2017-05-07T09:28:24.394Z</time>
      </trkpt>
      <trkpt lat="47.85512" lon="2.21501">
        <ele>112</ele>
        <time>2017-05-07T09:28:25.359Z</time>
      </trkpt>
      <trkpt lat="47.85512" lon="2.21501">
        <ele>112</ele>
        <time>2017-05-07T09:28:26.368Z</time>
      </trkpt>
      <trkpt lat="47.85507" lon="2.21486">
        <ele>111</ele>
        <time>2017-05-07T09:28:27.359Z</time>
      </trkpt>
      <trkpt lat="47.85507" lon="2.21486">
        <ele>111</ele>
        <time>2017-05-07T09:28:28.394Z</time>
      </trkpt>
      <trkpt lat="47.85502" lon="2.21471">
        <ele>110</ele>
        <time>2017-05-07T09:28:29.361Z</time>
      </trkpt>
      <trkpt lat="47.85502" lon="2.21471">
        <ele>110</ele>
        <time>2017-05-07T09:28:30.355Z</time>
      </trkpt>
      <trkpt lat="47.85498" lon="2.21457">
        <ele>109</ele>
        <time>2017-05-07T09:28:31.360Z</time>
      </trkpt>
      <trkpt lat="47.85498" lon="2.21457">
        <ele>109</ele>
        <time>2017-05-07T09:28:32.355Z</time>
      </trkpt>
      <trkpt lat="47.85493" lon="2.21443">
        <ele>108</ele>
        <time>2017-05-07T09:28:33.359Z</time>
      </trkpt>
      <trkpt lat="47.85493" lon="2.21443">
        <ele>108</ele>
        <time>2017-05-07T09:28:34.394Z</time>
      </trkpt>
      <trkpt lat="47.85489" lon="2.21428">
        <ele>107</ele>
        <time>2017-05-07T09:28:35.362Z</time>
      </trkpt>
      <trkpt lat="47.85489" lon="2.21428">
        <ele>107</ele>
        <time>2017-05-07T09:28:36.394Z</time>
      </trkpt>
      <trkpt lat="47.85484" lon="2.21414">
        <ele>107</ele>
        <time>2017-05-07T09:28:37.360Z</time>
      </trkpt>
      <trkpt lat="47.85484" lon="2.21414">
        <ele>107</ele>
        <time>2017-05-07T09:28:38.394Z</time>
      </trkpt>
      <trkpt lat="47.85479" lon="2.214">
        <ele>107</ele>
        <time>2017-05-07T09:28:39.359Z</time>
      </trkpt>
      <trkpt lat="47.85479" lon="2.214">
        <ele>107</ele>
        <time>2017-05-07T09:28:40.394Z</time>
      </trkpt>
      <trkpt lat="47.85475" lon="2.21386">
        <ele>106</ele>
        <time>2017-05-07T09:28:41.363Z</time>
      </trkpt>
      <trkpt lat="47.85475" lon="2.21386">
        <ele>106</ele>
        <time>2017-05-07T09:28:42.394Z</time>
      </trkpt>
      <trkpt lat="47.8547" lon="2.21372">
        <ele>105</ele>
        <time>2017-05-07T09:28:43.360Z</time>
      </trkpt>
      <trkpt lat="47.8547" lon="2.21372">
        <ele>105</ele>
        <time>2017-05-07T09:28:44.391Z</time>
      </trkpt>
      <trkpt lat="47.85466" lon="2.21358">
        <ele>105</ele>
        <time>2017-05-07T09:28:45.359Z</time>
      </trkpt>
      <trkpt lat="47.85463" lon="2.21351">
        <ele>104</ele>
        <time>2017-05-07T09:28:46.360Z</time>
      </trkpt>
      <trkpt lat="47.85463" lon="2.21351">
        <ele>104</ele>
        <time>2017-05-07T09:28:47.356Z</time>
      </trkpt>
      <trkpt lat="47.85459" lon="2.21336">
        <ele>104</ele>
        <time>2017-05-07T09:28:48.360Z</time>
      </trkpt>
      <trkpt lat="47.85456" lon="2.21329">
        <ele>103</ele>
        <time>2017-05-07T09:28:49.359Z</time>
      </trkpt>
      <trkpt lat="47.85456" lon="2.21329">
        <ele>103</ele>
        <time>2017-05-07T09:28:50.394Z</time>
      </trkpt>
      <trkpt lat="47.85452" lon="2.21315">
        <ele>103</ele>
        <time>2017-05-07T09:28:51.359Z</time>
      </trkpt>
      <trkpt lat="47.85452" lon="2.21315">
        <ele>103</ele>
        <time>2017-05-07T09:28:52.394Z</time>
      </trkpt>
      <trkpt lat="47.85448" lon="2.21302">
        <ele>102</ele>
        <time>2017-05-07T09:28:53.361Z</time>
      </trkpt>
      <trkpt lat="47.85448" lon="2.21302">
        <ele>102</ele>
        <time>2017-05-07T09:28:54.366Z</time>
      </trkpt>
      <trkpt lat="47.85444" lon="2.21289">
        <ele>102</ele>
        <time>2017-05-07T09:28:55.373Z</time>
      </trkpt>
      <trkpt lat="47.85441" lon="2.21283">
        <ele>101</ele>
        <time>2017-05-07T09:28:56.363Z</time>
      </trkpt>
      <trkpt lat="47.85441" lon="2.21283">
        <ele>101</ele>
        <time>2017-05-07T09:28:57.355Z</time>
      </trkpt>
      <trkpt lat="47.85436" lon="2.21269">
        <ele>101</ele>
        <time>2017-05-07T09:28:58.357Z</time>
      </trkpt>
      <trkpt lat="47.85433" lon="2.21262">
        <ele>101</ele>
        <time>2017-05-07T09:28:59.365Z</time>
      </trkpt>
      <trkpt lat="47.85433" lon="2.21262">
        <ele>101</ele>
        <time>2017-05-07T09:29:00.364Z</time>
      </trkpt>
      <trkpt lat="47.85429" lon="2.21248">
        <ele>100</ele>
        <time>2017-05-07T09:29:01.370Z</time>
      </trkpt>
      <trkpt lat="47.85429" lon="2.21248">
        <ele>100</ele>
        <time>2017-05-07T09:29:02.376Z</time>
      </trkpt>
      <trkpt lat="47.85424" lon="2.21236">
        <ele>100</ele>
        <time>2017-05-07T09:29:03.357Z</time>
      </trkpt>
      <trkpt lat="47.85421" lon="2.2123">
        <ele>100</ele>
        <time>2017-05-07T09:29:04.360Z</time>
      </trkpt>
      <trkpt lat="47.85419" lon="2.21223">
        <ele>100</ele>
        <time>2017-05-07T09:29:05.362Z</time>
      </trkpt>
      <trkpt lat="47.85419" lon="2.21223">
        <ele>100</ele>
        <time>2017-05-07T09:29:06.394Z</time>
      </trkpt>
      <trkpt lat="47.85414" lon="2.21209">
        <ele>101</ele>
        <time>2017-05-07T09:29:07.360Z</time>
      </trkpt>
      <trkpt lat="47.85411" lon="2.21203">
        <ele>101</ele>
        <time>2017-05-07T09:29:08.361Z</time>
      </trkpt>
      <trkpt lat="47.85411" lon="2.21203">
        <ele>101</ele>
        <time>2017-05-07T09:29:09.360Z</time>
      </trkpt>
      <trkpt lat="47.85405" lon="2.21191">
        <ele>102</ele>
        <time>2017-05-07T09:29:10.359Z</time>
      </trkpt>
      <trkpt lat="47.85403" lon="2.21184">
        <ele>102</ele>
        <time>2017-05-07T09:29:11.362Z</time>
      </trkpt>
      <trkpt lat="47.85403" lon="2.21184">
        <ele>102</ele>
        <time>2017-05-07T09:29:12.394Z</time>
      </trkpt>
      <trkpt lat="47.85398" lon="2.21171">
        <ele>102</ele>
        <time>2017-05-07T09:29:13.362Z</time>
      </trkpt>
      <trkpt lat="47.85398" lon="2.21171">
        <ele>102</ele>
        <time>2017-05-07T09:29:14.365Z</time>
      </trkpt>
      <trkpt lat="47.85392" lon="2.21158">
        <ele>102</ele>
        <time>2017-05-07T09:29:15.359Z</time>
      </trkpt>
      <trkpt lat="47.85392" lon="2.21158">
        <ele>102</ele>
        <time>2017-05-07T09:29:16.365Z</time>
      </trkpt>
      <trkpt lat="47.85385" lon="2.21145">
        <ele>102</ele>
        <time>2017-05-07T09:29:17.371Z</time>
      </trkpt>
      <trkpt lat="47.85385" lon="2.21145">
        <ele>102</ele>
        <time>2017-05-07T09:29:18.362Z</time>
      </trkpt>
      <trkpt lat="47.85379" lon="2.21132">
        <ele>103</ele>
        <time>2017-05-07T09:29:19.359Z</time>
      </trkpt>
      <trkpt lat="47.85379" lon="2.21132">
        <ele>103</ele>
        <time>2017-05-07T09:29:20.392Z</time>
      </trkpt>
      <trkpt lat="47.85373" lon="2.21119">
        <ele>103</ele>
        <time>2017-05-07T09:29:21.358Z</time>
      </trkpt>
      <trkpt lat="47.85373" lon="2.21119">
        <ele>103</ele>
        <time>2017-05-07T09:29:22.364Z</time>
      </trkpt>
      <trkpt lat="47.85367" lon="2.21107">
        <ele>104</ele>
        <time>2017-05-07T09:29:23.371Z</time>
      </trkpt>
      <trkpt lat="47.85367" lon="2.21107">
        <ele>104</ele>
        <time>2017-05-07T09:29:24.376Z</time>
      </trkpt>
      <trkpt lat="47.85362" lon="2.21095">
        <ele>104</ele>
        <time>2017-05-07T09:29:25.366Z</time>
      </trkpt>
      <trkpt lat="47.85362" lon="2.21095">
        <ele>104</ele>
        <time>2017-05-07T09:29:26.368Z</time>
      </trkpt>
      <trkpt lat="47.85355" lon="2.21083">
        <ele>104</ele>
        <time>2017-05-07T09:29:27.359Z</time>
      </trkpt>
      <trkpt lat="47.85355" lon="2.21083">
        <ele>104</ele>
        <time>2017-05-07T09:29:28.355Z</time>
      </trkpt>
      <trkpt lat="47.85348" lon="2.21071">
        <ele>104</ele>
        <time>2017-05-07T09:29:29.362Z</time>
      </trkpt>
      <trkpt lat="47.85345" lon="2.21065">
        <ele>104</ele>
        <time>2017-05-07T09:29:30.370Z</time>
      </trkpt>
      <trkpt lat="47.85345" lon="2.21065">
        <ele>104</ele>
        <time>2017-05-07T09:29:31.358Z</time>
      </trkpt>
      <trkpt lat="47.85337" lon="2.21054">
        <ele>104</ele>
        <time>2017-05-07T09:29:32.359Z</time>
      </trkpt>
      <trkpt lat="47.85337" lon="2.21054">
        <ele>104</ele>
        <time>2017-05-07T09:29:33.393Z</time>
      </trkpt>
      <trkpt lat="47.8533" lon="2.21042">
        <ele>104</ele>
        <time>2017-05-07T09:29:34.356Z</time>
      </trkpt>
      <trkpt lat="47.85326" lon="2.21037">
        <ele>104</ele>
        <time>2017-05-07T09:29:35.358Z</time>
      </trkpt>
      <trkpt lat="47.85323" lon="2.21031">
        <ele>104</ele>
        <time>2017-05-07T09:29:36.360Z</time>
      </trkpt>
      <trkpt lat="47.85323" lon="2.21031">
        <ele>104</ele>
        <time>2017-05-07T09:29:37.355Z</time>
      </trkpt>
      <trkpt lat="47.85315" lon="2.2102">
        <ele>105</ele>
        <time>2017-05-07T09:29:38.359Z</time>
      </trkpt>
      <trkpt lat="47.85315" lon="2.2102">
        <ele>105</ele>
        <time>2017-05-07T09:29:39.394Z</time>
      </trkpt>
      <trkpt lat="47.85308" lon="2.21008">
        <ele>105</ele>
        <time>2017-05-07T09:29:40.361Z</time>
      </trkpt>
      <trkpt lat="47.85308" lon="2.21008">
        <ele>105</ele>
        <time>2017-05-07T09:29:41.357Z</time>
      </trkpt>
      <trkpt lat="47.85302" lon="2.20996">
        <ele>106</ele>
        <time>2017-05-07T09:29:42.360Z</time>
      </trkpt>
      <trkpt lat="47.85299" lon="2.2099">
        <ele>106</ele>
        <time>2017-05-07T09:29:43.360Z</time>
      </trkpt>
      <trkpt lat="47.85299" lon="2.2099">
        <ele>106</ele>
        <time>2017-05-07T09:29:44.362Z</time>
      </trkpt>
      <trkpt lat="47.85293" lon="2.20978">
        <ele>106</ele>
        <time>2017-05-07T09:29:45.360Z</time>
      </trkpt>
      <trkpt lat="47.85293" lon="2.20978">
        <ele>106</ele>
        <time>2017-05-07T09:29:46.394Z</time>
      </trkpt>
      <trkpt lat="47.85291" lon="2.20961">
        <ele>106</ele>
        <time>2017-05-07T09:29:47.358Z</time>
      </trkpt>
      <trkpt lat="47.85291" lon="2.20961">
        <ele>106</ele>
        <time>2017-05-07T09:29:48.360Z</time>
      </trkpt>
      <trkpt lat="47.85288" lon="2.20943">
        <ele>106</ele>
        <time>2017-05-07T09:29:49.360Z</time>
      </trkpt>
      <trkpt lat="47.85288" lon="2.20943">
        <ele>106</ele>
        <time>2017-05-07T09:29:50.391Z</time>
      </trkpt>
      <trkpt lat="47.85281" lon="2.20929">
        <ele>105</ele>
        <time>2017-05-07T09:29:51.360Z</time>
      </trkpt>
      <trkpt lat="47.85281" lon="2.20929">
        <ele>105</ele>
        <time>2017-05-07T09:29:52.367Z</time>
      </trkpt>
      <trkpt lat="47.85273" lon="2.20918">
        <ele>105</ele>
        <time>2017-05-07T09:29:53.373Z</time>
      </trkpt>
      <trkpt lat="47.85273" lon="2.20918">
        <ele>105</ele>
        <time>2017-05-07T09:29:54.361Z</time>
      </trkpt>
      <trkpt lat="47.85266" lon="2.20906">
        <ele>106</ele>
        <time>2017-05-07T09:29:55.360Z</time>
      </trkpt>
      <trkpt lat="47.85266" lon="2.20906">
        <ele>106</ele>
        <time>2017-05-07T09:29:56.394Z</time>
      </trkpt>
      <trkpt lat="47.85256" lon="2.20893">
        <ele>106</ele>
        <time>2017-05-07T09:29:57.359Z</time>
      </trkpt>
      <trkpt lat="47.85253" lon="2.20887">
        <ele>106</ele>
        <time>2017-05-07T09:29:58.360Z</time>
      </trkpt>
      <trkpt lat="47.85253" lon="2.20887">
        <ele>106</ele>
        <time>2017-05-07T09:29:59.374Z</time>
      </trkpt>
      <trkpt lat="47.85247" lon="2.20876">
        <ele>106</ele>
        <time>2017-05-07T09:30:00.381Z</time>
      </trkpt>
      <trkpt lat="47.85248" lon="2.2087">
        <ele>106</ele>
        <time>2017-05-07T09:30:01.370Z</time>
      </trkpt>
      <trkpt lat="47.85248" lon="2.2087">
        <ele>106</ele>
        <time>2017-05-07T09:30:02.358Z</time>
      </trkpt>
      <trkpt lat="47.85249" lon="2.20861">
        <ele>106</ele>
        <time>2017-05-07T09:30:03.357Z</time>
      </trkpt>
      <trkpt lat="47.85249" lon="2.20861">
        <ele>106</ele>
        <time>2017-05-07T09:30:04.355Z</time>
      </trkpt>
      <trkpt lat="47.85251" lon="2.20849">
        <ele>107</ele>
        <time>2017-05-07T09:30:05.360Z</time>
      </trkpt>
      <trkpt lat="47.85251" lon="2.20849">
        <ele>107</ele>
        <time>2017-05-07T09:30:06.355Z</time>
      </trkpt>
      <trkpt lat="47.85252" lon="2.20837">
        <ele>107</ele>
        <time>2017-05-07T09:30:07.361Z</time>
      </trkpt>
      <trkpt lat="47.85252" lon="2.20837">
        <ele>107</ele>
        <time>2017-05-07T09:30:08.355Z</time>
      </trkpt>
      <trkpt lat="47.85248" lon="2.20824">
        <ele>108</ele>
        <time>2017-05-07T09:30:09.369Z</time>
      </trkpt>
      <trkpt lat="47.85246" lon="2.20818">
        <ele>108</ele>
        <time>2017-05-07T09:30:10.360Z</time>
      </trkpt>
      <trkpt lat="47.85244" lon="2.20812">
        <ele>108</ele>
        <time>2017-05-07T09:30:11.360Z</time>
      </trkpt>
      <trkpt lat="47.85244" lon="2.20812">
        <ele>108</ele>
        <time>2017-05-07T09:30:12.355Z</time>
      </trkpt>
      <trkpt lat="47.85238" lon="2.20802">
        <ele>108</ele>
        <time>2017-05-07T09:30:13.360Z</time>
      </trkpt>
      <trkpt lat="47.85238" lon="2.20802">
        <ele>108</ele>
        <time>2017-05-07T09:30:14.356Z</time>
      </trkpt>
      <trkpt lat="47.85234" lon="2.2079">
        <ele>108</ele>
        <time>2017-05-07T09:30:15.376Z</time>
      </trkpt>
      <trkpt lat="47.85234" lon="2.2079">
        <ele>108</ele>
        <time>2017-05-07T09:30:16.364Z</time>
      </trkpt>
      <trkpt lat="47.85228" lon="2.20777">
        <ele>109</ele>
        <time>2017-05-07T09:30:17.370Z</time>
      </trkpt>
      <trkpt lat="47.85228" lon="2.20777">
        <ele>109</ele>
        <time>2017-05-07T09:30:18.359Z</time>
      </trkpt>
      <trkpt lat="47.85221" lon="2.20769">
        <ele>109</ele>
        <time>2017-05-07T09:30:19.358Z</time>
      </trkpt>
      <trkpt lat="47.85221" lon="2.20769">
        <ele>109</ele>
        <time>2017-05-07T09:30:20.392Z</time>
      </trkpt>
      <trkpt lat="47.85215" lon="2.20759">
        <ele>109</ele>
        <time>2017-05-07T09:30:21.356Z</time>
      </trkpt>
      <trkpt lat="47.85212" lon="2.20752">
        <ele>109</ele>
        <time>2017-05-07T09:30:22.360Z</time>
      </trkpt>
      <trkpt lat="47.85208" lon="2.20746">
        <ele>109</ele>
        <time>2017-05-07T09:30:23.363Z</time>
      </trkpt>
      <trkpt lat="47.85208" lon="2.20746">
        <ele>109</ele>
        <time>2017-05-07T09:30:24.356Z</time>
      </trkpt>
      <trkpt lat="47.85202" lon="2.20734">
        <ele>109</ele>
        <time>2017-05-07T09:30:25.362Z</time>
      </trkpt>
      <trkpt lat="47.85202" lon="2.20734">
        <ele>109</ele>
        <time>2017-05-07T09:30:26.392Z</time>
      </trkpt>
      <trkpt lat="47.85197" lon="2.20719">
        <ele>109</ele>
        <time>2017-05-07T09:30:27.375Z</time>
      </trkpt>
      <trkpt lat="47.85197" lon="2.20719">
        <ele>109</ele>
        <time>2017-05-07T09:30:28.363Z</time>
      </trkpt>
      <trkpt lat="47.85191" lon="2.20706">
        <ele>109</ele>
        <time>2017-05-07T09:30:29.362Z</time>
      </trkpt>
      <trkpt lat="47.85191" lon="2.20706">
        <ele>109</ele>
        <time>2017-05-07T09:30:30.355Z</time>
      </trkpt>
      <trkpt lat="47.85186" lon="2.20693">
        <ele>109</ele>
        <time>2017-05-07T09:30:31.360Z</time>
      </trkpt>
      <trkpt lat="47.85186" lon="2.20693">
        <ele>109</ele>
        <time>2017-05-07T09:30:32.355Z</time>
      </trkpt>
      <trkpt lat="47.85182" lon="2.20678">
        <ele>109</ele>
        <time>2017-05-07T09:30:33.360Z</time>
      </trkpt>
      <trkpt lat="47.85179" lon="2.20671">
        <ele>109</ele>
        <time>2017-05-07T09:30:34.374Z</time>
      </trkpt>
      <trkpt lat="47.85175" lon="2.20664">
        <ele>109</ele>
        <time>2017-05-07T09:30:35.363Z</time>
      </trkpt>
      <trkpt lat="47.85175" lon="2.20664">
        <ele>109</ele>
        <time>2017-05-07T09:30:36.411Z</time>
      </trkpt>
      <trkpt lat="47.85167" lon="2.2065">
        <ele>109</ele>
        <time>2017-05-07T09:30:37.356Z</time>
      </trkpt>
      <trkpt lat="47.85163" lon="2.20643">
        <ele>109</ele>
        <time>2017-05-07T09:30:38.359Z</time>
      </trkpt>
      <trkpt lat="47.85159" lon="2.20637">
        <ele>109</ele>
        <time>2017-05-07T09:30:39.359Z</time>
      </trkpt>
      <trkpt lat="47.85159" lon="2.20637">
        <ele>109</ele>
        <time>2017-05-07T09:30:40.392Z</time>
      </trkpt>
      <trkpt lat="47.85152" lon="2.20625">
        <ele>109</ele>
        <time>2017-05-07T09:30:41.358Z</time>
      </trkpt>
      <trkpt lat="47.85152" lon="2.20625">
        <ele>109</ele>
        <time>2017-05-07T09:30:42.355Z</time>
      </trkpt>
      <trkpt lat="47.85147" lon="2.20611">
        <ele>109</ele>
        <time>2017-05-07T09:30:43.357Z</time>
      </trkpt>
      <trkpt lat="47.85144" lon="2.20604">
        <ele>109</ele>
        <time>2017-05-07T09:30:44.360Z</time>
      </trkpt>
      <trkpt lat="47.85144" lon="2.20604">
        <ele>109</ele>
        <time>2017-05-07T09:30:45.355Z</time>
      </trkpt>
      <trkpt lat="47.85139" lon="2.20591">
        <ele>110</ele>
        <time>2017-05-07T09:30:46.359Z</time>
      </trkpt>
      <trkpt lat="47.85136" lon="2.20586">
        <ele>110</ele>
        <time>2017-05-07T09:30:47.387Z</time>
      </trkpt>
      <trkpt lat="47.85136" lon="2.20586">
        <ele>110</ele>
        <time>2017-05-07T09:30:48.377Z</time>
      </trkpt>
      <trkpt lat="47.85129" lon="2.20576">
        <ele>110</ele>
        <time>2017-05-07T09:30:49.368Z</time>
      </trkpt>
      <trkpt lat="47.85129" lon="2.20576">
        <ele>110</ele>
        <time>2017-05-07T09:30:50.357Z</time>
      </trkpt>
      <trkpt lat="47.85121" lon="2.20564">
        <ele>110</ele>
        <time>2017-05-07T09:30:51.360Z</time>
      </trkpt>
      <trkpt lat="47.85118" lon="2.20558">
        <ele>111</ele>
        <time>2017-05-07T09:30:52.361Z</time>
      </trkpt>
      <trkpt lat="47.85114" lon="2.20552">
        <ele>111</ele>
        <time>2017-05-07T09:30:53.363Z</time>
      </trkpt>
      <trkpt lat="47.85114" lon="2.20552">
        <ele>111</ele>
        <time>2017-05-07T09:30:54.356Z</time>
      </trkpt>
      <trkpt lat="47.85106" lon="2.2054">
        <ele>111</ele>
        <time>2017-05-07T09:30:55.377Z</time>
      </trkpt>
      <trkpt lat="47.85102" lon="2.20535">
        <ele>111</ele>
        <time>2017-05-07T09:30:56.367Z</time>
      </trkpt>
      <trkpt lat="47.85102" lon="2.20535">
        <ele>111</ele>
        <time>2017-05-07T09:30:57.371Z</time>
      </trkpt>
      <trkpt lat="47.85091" lon="2.20524">
        <ele>111</ele>
        <time>2017-05-07T09:30:58.360Z</time>
      </trkpt>
      <trkpt lat="47.85086" lon="2.20519">
        <ele>111</ele>
        <time>2017-05-07T09:30:59.364Z</time>
      </trkpt>
      <trkpt lat="47.85086" lon="2.20519">
        <ele>111</ele>
        <time>2017-05-07T09:31:00.368Z</time>
      </trkpt>
      <trkpt lat="47.85078" lon="2.20509">
        <ele>112</ele>
        <time>2017-05-07T09:31:01.374Z</time>
      </trkpt>
      <trkpt lat="47.85078" lon="2.20509">
        <ele>112</ele>
        <time>2017-05-07T09:31:02.380Z</time>
      </trkpt>
      <trkpt lat="47.85069" lon="2.20499">
        <ele>112</ele>
        <time>2017-05-07T09:31:03.386Z</time>
      </trkpt>
      <trkpt lat="47.85065" lon="2.20495">
        <ele>112</ele>
        <time>2017-05-07T09:31:04.383Z</time>
      </trkpt>
      <trkpt lat="47.85061" lon="2.2049">
        <ele>112</ele>
        <time>2017-05-07T09:31:05.365Z</time>
      </trkpt>
      <trkpt lat="47.85061" lon="2.2049">
        <ele>112</ele>
        <time>2017-05-07T09:31:06.365Z</time>
      </trkpt>
      <trkpt lat="47.85054" lon="2.2048">
        <ele>112</ele>
        <time>2017-05-07T09:31:07.369Z</time>
      </trkpt>
      <trkpt lat="47.85054" lon="2.2048">
        <ele>112</ele>
        <time>2017-05-07T09:31:08.357Z</time>
      </trkpt>
      <trkpt lat="47.85046" lon="2.2047">
        <ele>113</ele>
        <time>2017-05-07T09:31:09.360Z</time>
      </trkpt>
      <trkpt lat="47.85046" lon="2.2047">
        <ele>113</ele>
        <time>2017-05-07T09:31:10.355Z</time>
      </trkpt>
      <trkpt lat="47.85039" lon="2.20459">
        <ele>113</ele>
        <time>2017-05-07T09:31:11.377Z</time>
      </trkpt>
      <trkpt lat="47.85039" lon="2.20459">
        <ele>113</ele>
        <time>2017-05-07T09:31:12.365Z</time>
      </trkpt>
      <trkpt lat="47.85033" lon="2.20447">
        <ele>114</ele>
        <time>2017-05-07T09:31:13.381Z</time>
      </trkpt>
      <trkpt lat="47.85033" lon="2.20447">
        <ele>114</ele>
        <time>2017-05-07T09:31:14.373Z</time>
      </trkpt>
      <trkpt lat="47.85026" lon="2.20436">
        <ele>115</ele>
        <time>2017-05-07T09:31:15.367Z</time>
      </trkpt>
      <trkpt lat="47.85022" lon="2.20432">
        <ele>116</ele>
        <time>2017-05-07T09:31:16.361Z</time>
      </trkpt>
      <trkpt lat="47.85019" lon="2.20427">
        <ele>116</ele>
        <time>2017-05-07T09:31:17.369Z</time>
      </trkpt>
      <trkpt lat="47.85019" lon="2.20427">
        <ele>116</ele>
        <time>2017-05-07T09:31:18.359Z</time>
      </trkpt>
      <trkpt lat="47.8501" lon="2.20417">
        <ele>116</ele>
        <time>2017-05-07T09:31:19.363Z</time>
      </trkpt>
      <trkpt lat="47.8501" lon="2.20417">
        <ele>116</ele>
        <time>2017-05-07T09:31:20.356Z</time>
      </trkpt>
      <trkpt lat="47.85004" lon="2.20404">
        <ele>117</ele>
        <time>2017-05-07T09:31:21.360Z</time>
      </trkpt>
      <trkpt lat="47.85001" lon="2.20398">
        <ele>117</ele>
        <time>2017-05-07T09:31:22.373Z</time>
      </trkpt>
      <trkpt lat="47.85001" lon="2.20398">
        <ele>117</ele>
        <time>2017-05-07T09:31:23.362Z</time>
      </trkpt>
      <trkpt lat="47.84995" lon="2.20386">
        <ele>117</ele>
        <time>2017-05-07T09:31:24.359Z</time>
      </trkpt>
      <trkpt lat="47.84992" lon="2.2038">
        <ele>117</ele>
        <time>2017-05-07T09:31:25.360Z</time>
      </trkpt>
      <trkpt lat="47.84992" lon="2.2038">
        <ele>117</ele>
        <time>2017-05-07T09:31:26.391Z</time>
      </trkpt>
      <trkpt lat="47.84985" lon="2.20368">
        <ele>116</ele>
        <time>2017-05-07T09:31:27.358Z</time>
      </trkpt>
      <trkpt lat="47.84985" lon="2.20368">
        <ele>116</ele>
        <time>2017-05-07T09:31:28.355Z</time>
      </trkpt>
      <trkpt lat="47.84978" lon="2.20355">
        <ele>115</ele>
        <time>2017-05-07T09:31:29.363Z</time>
      </trkpt>
      <trkpt lat="47.84978" lon="2.20355">
        <ele>115</ele>
        <time>2017-05-07T09:31:30.356Z</time>
      </trkpt>
      <trkpt lat="47.84972" lon="2.20344">
        <ele>116</ele>
        <time>2017-05-07T09:31:31.360Z</time>
      </trkpt>
      <trkpt lat="47.84972" lon="2.20344">
        <ele>116</ele>
        <time>2017-05-07T09:31:32.359Z</time>
      </trkpt>
      <trkpt lat="47.84966" lon="2.2033">
        <ele>116</ele>
        <time>2017-05-07T09:31:33.360Z</time>
      </trkpt>
      <trkpt lat="47.84966" lon="2.2033">
        <ele>116</ele>
        <time>2017-05-07T09:31:34.363Z</time>
      </trkpt>
      <trkpt lat="47.84958" lon="2.20318">
        <ele>115</ele>
        <time>2017-05-07T09:31:35.362Z</time>
      </trkpt>
      <trkpt lat="47.84958" lon="2.20318">
        <ele>115</ele>
        <time>2017-05-07T09:31:36.355Z</time>
      </trkpt>
      <trkpt lat="47.8495" lon="2.20305">
        <ele>113</ele>
        <time>2017-05-07T09:31:37.360Z</time>
      </trkpt>
      <trkpt lat="47.8495" lon="2.20305">
        <ele>113</ele>
        <time>2017-05-07T09:31:38.355Z</time>
      </trkpt>
      <trkpt lat="47.84941" lon="2.2029">
        <ele>111</ele>
        <time>2017-05-07T09:31:39.360Z</time>
      </trkpt>
      <trkpt lat="47.84941" lon="2.2029">
        <ele>111</ele>
        <time>2017-05-07T09:31:40.355Z</time>
      </trkpt>
      <trkpt lat="47.84931" lon="2.20273">
        <ele>109</ele>
        <time>2017-05-07T09:31:41.368Z</time>
      </trkpt>
      <trkpt lat="47.84931" lon="2.20273">
        <ele>109</ele>
        <time>2017-05-07T09:31:42.358Z</time>
      </trkpt>
      <trkpt lat="47.84922" lon="2.20257">
        <ele>108</ele>
        <time>2017-05-07T09:31:43.362Z</time>
      </trkpt>
      <trkpt lat="47.84917" lon="2.20249">
        <ele>107</ele>
        <time>2017-05-07T09:31:44.362Z</time>
      </trkpt>
      <trkpt lat="47.84917" lon="2.20249">
        <ele>107</ele>
        <time>2017-05-07T09:31:45.373Z</time>
      </trkpt>
      <trkpt lat="47.84909" lon="2.20232">
        <ele>106</ele>
        <time>2017-05-07T09:31:46.369Z</time>
      </trkpt>
      <trkpt lat="47.84905" lon="2.20223">
        <ele>106</ele>
        <time>2017-05-07T09:31:47.369Z</time>
      </trkpt>
      <trkpt lat="47.84905" lon="2.20223">
        <ele>106</ele>
        <time>2017-05-07T09:31:48.359Z</time>
      </trkpt>
      <trkpt lat="47.84897" lon="2.20208">
        <ele>106</ele>
        <time>2017-05-07T09:31:49.358Z</time>
      </trkpt>
      <trkpt lat="47.84897" lon="2.20208">
        <ele>106</ele>
        <time>2017-05-07T09:31:50.393Z</time>
      </trkpt>
      <trkpt lat="47.8489" lon="2.20195">
        <ele>106</ele>
        <time>2017-05-07T09:31:51.358Z</time>
      </trkpt>
      <trkpt lat="47.8489" lon="2.20195">
        <ele>106</ele>
        <time>2017-05-07T09:31:52.393Z</time>
      </trkpt>
      <trkpt lat="47.84884" lon="2.20183">
        <ele>106</ele>
        <time>2017-05-07T09:31:53.360Z</time>
      </trkpt>
      <trkpt lat="47.84884" lon="2.20183">
        <ele>106</ele>
        <time>2017-05-07T09:31:54.390Z</time>
      </trkpt>
      <trkpt lat="47.84878" lon="2.20172">
        <ele>105</ele>
        <time>2017-05-07T09:31:55.362Z</time>
      </trkpt>
      <trkpt lat="47.84878" lon="2.20172">
        <ele>105</ele>
        <time>2017-05-07T09:31:56.393Z</time>
      </trkpt>
      <trkpt lat="47.84873" lon="2.20161">
        <ele>105</ele>
        <time>2017-05-07T09:31:57.360Z</time>
      </trkpt>
      <trkpt lat="47.84873" lon="2.20161">
        <ele>105</ele>
        <time>2017-05-07T09:31:58.394Z</time>
      </trkpt>
      <trkpt lat="47.84868" lon="2.2015">
        <ele>105</ele>
        <time>2017-05-07T09:31:59.364Z</time>
      </trkpt>
      <trkpt lat="47.84868" lon="2.2015">
        <ele>105</ele>
        <time>2017-05-07T09:32:00.356Z</time>
      </trkpt>
      <trkpt lat="47.84863" lon="2.20138">
        <ele>104</ele>
        <time>2017-05-07T09:32:01.358Z</time>
      </trkpt>
      <trkpt lat="47.84863" lon="2.20138">
        <ele>104</ele>
        <time>2017-05-07T09:32:02.390Z</time>
      </trkpt>
      <trkpt lat="47.84857" lon="2.20129">
        <ele>104</ele>
        <time>2017-05-07T09:32:03.358Z</time>
      </trkpt>
      <trkpt lat="47.84857" lon="2.20129">
        <ele>104</ele>
        <time>2017-05-07T09:32:04.394Z</time>
      </trkpt>
      <trkpt lat="47.84851" lon="2.20121">
        <ele>103</ele>
        <time>2017-05-07T09:32:05.377Z</time>
      </trkpt>
      <trkpt lat="47.84851" lon="2.20121">
        <ele>103</ele>
        <time>2017-05-07T09:32:06.372Z</time>
      </trkpt>
      <trkpt lat="47.84845" lon="2.20114">
        <ele>103</ele>
        <time>2017-05-07T09:32:07.364Z</time>
      </trkpt>
      <trkpt lat="47.84842" lon="2.20111">
        <ele>103</ele>
        <time>2017-05-07T09:32:08.362Z</time>
      </trkpt>
      <trkpt lat="47.84842" lon="2.20111">
        <ele>103</ele>
        <time>2017-05-07T09:32:09.379Z</time>
      </trkpt>
      <trkpt lat="47.84836" lon="2.20106">
        <ele>103</ele>
        <time>2017-05-07T09:32:10.386Z</time>
      </trkpt>
      <trkpt lat="47.84833" lon="2.20104">
        <ele>103</ele>
        <time>2017-05-07T09:32:11.393Z</time>
      </trkpt>
      <trkpt lat="47.84833" lon="2.20104">
        <ele>103</ele>
        <time>2017-05-07T09:32:12.358Z</time>
      </trkpt>
      <trkpt lat="47.84827" lon="2.20103">
        <ele>103</ele>
        <time>2017-05-07T09:32:13.360Z</time>
      </trkpt>
      <trkpt lat="47.84827" lon="2.20103">
        <ele>103</ele>
        <time>2017-05-07T09:32:14.389Z</time>
      </trkpt>
      <trkpt lat="47.84819" lon="2.20105">
        <ele>102</ele>
        <time>2017-05-07T09:32:15.358Z</time>
      </trkpt>
      <trkpt lat="47.84819" lon="2.20105">
        <ele>102</ele>
        <time>2017-05-07T09:32:16.394Z</time>
      </trkpt>
      <trkpt lat="47.84811" lon="2.20106">
        <ele>102</ele>
        <time>2017-05-07T09:32:17.377Z</time>
      </trkpt>
      <trkpt lat="47.84811" lon="2.20106">
        <ele>102</ele>
        <time>2017-05-07T09:32:18.375Z</time>
      </trkpt>
      <trkpt lat="47.84803" lon="2.20108">
        <ele>101</ele>
        <time>2017-05-07T09:32:19.367Z</time>
      </trkpt>
      <trkpt lat="47.84803" lon="2.20108">
        <ele>101</ele>
        <time>2017-05-07T09:32:20.355Z</time>
      </trkpt>
      <trkpt lat="47.84796" lon="2.20109">
        <ele>101</ele>
        <time>2017-05-07T09:32:21.360Z</time>
      </trkpt>
      <trkpt lat="47.84796" lon="2.20109">
        <ele>101</ele>
        <time>2017-05-07T09:32:22.364Z</time>
      </trkpt>
      <trkpt lat="47.84789" lon="2.2011">
        <ele>101</ele>
        <time>2017-05-07T09:32:23.360Z</time>
      </trkpt>
      <trkpt lat="47.84789" lon="2.2011">
        <ele>101</ele>
        <time>2017-05-07T09:32:24.389Z</time>
      </trkpt>
      <trkpt lat="47.84782" lon="2.2011">
        <ele>101</ele>
        <time>2017-05-07T09:32:25.359Z</time>
      </trkpt>
      <trkpt lat="47.84782" lon="2.2011">
        <ele>101</ele>
        <time>2017-05-07T09:32:26.394Z</time>
      </trkpt>
      <trkpt lat="47.84775" lon="2.20107">
        <ele>100</ele>
        <time>2017-05-07T09:32:27.358Z</time>
      </trkpt>
      <trkpt lat="47.84775" lon="2.20107">
        <ele>100</ele>
        <time>2017-05-07T09:32:28.359Z</time>
      </trkpt>
      <trkpt lat="47.8477" lon="2.20099">
        <ele>100</ele>
        <time>2017-05-07T09:32:29.360Z</time>
      </trkpt>
      <trkpt lat="47.8477" lon="2.20099">
        <ele>100</ele>
        <time>2017-05-07T09:32:30.394Z</time>
      </trkpt>
      <trkpt lat="47.84767" lon="2.20088">
        <ele>100</ele>
        <time>2017-05-07T09:32:31.358Z</time>
      </trkpt>
      <trkpt lat="47.84767" lon="2.20088">
        <ele>100</ele>
        <time>2017-05-07T09:32:32.394Z</time>
      </trkpt>
      <trkpt lat="47.84766" lon="2.20075">
        <ele>100</ele>
        <time>2017-05-07T09:32:33.366Z</time>
      </trkpt>
      <trkpt lat="47.84764" lon="2.20069">
        <ele>100</ele>
        <time>2017-05-07T09:32:34.364Z</time>
      </trkpt>
      <trkpt lat="47.84764" lon="2.20069">
        <ele>100</ele>
        <time>2017-05-07T09:32:35.355Z</time>
      </trkpt>
      <trkpt lat="47.84762" lon="2.20057">
        <ele>101</ele>
        <time>2017-05-07T09:32:36.358Z</time>
      </trkpt>
      <trkpt lat="47.84762" lon="2.20057">
        <ele>101</ele>
        <time>2017-05-07T09:32:37.394Z</time>
      </trkpt>
      <trkpt lat="47.8476" lon="2.20046">
        <ele>102</ele>
        <time>2017-05-07T09:32:38.372Z</time>
      </trkpt>
      <trkpt lat="47.8476" lon="2.20046">
        <ele>102</ele>
        <time>2017-05-07T09:32:39.360Z</time>
      </trkpt>
      <trkpt lat="47.84758" lon="2.20036">
        <ele>102</ele>
        <time>2017-05-07T09:32:40.357Z</time>
      </trkpt>
      <trkpt lat="47.84757" lon="2.20031">
        <ele>102</ele>
        <time>2017-05-07T09:32:41.360Z</time>
      </trkpt>
      <trkpt lat="47.84757" lon="2.20031">
        <ele>102</ele>
        <time>2017-05-07T09:32:42.393Z</time>
      </trkpt>
      <trkpt lat="47.84755" lon="2.20023">
        <ele>102</ele>
        <time>2017-05-07T09:32:43.361Z</time>
      </trkpt>
      <trkpt lat="47.84755" lon="2.20023">
        <ele>102</ele>
        <time>2017-05-07T09:32:44.393Z</time>
      </trkpt>
      <trkpt lat="47.84753" lon="2.20018">
        <ele>102</ele>
        <time>2017-05-07T09:32:45.359Z</time>
      </trkpt>
      <trkpt lat="47.84753" lon="2.20018">
        <ele>102</ele>
        <time>2017-05-07T09:32:46.393Z</time>
      </trkpt>
      <trkpt lat="47.84752" lon="2.20014">
        <ele>102</ele>
        <time>2017-05-07T09:32:47.370Z</time>
      </trkpt>
      <trkpt lat="47.84752" lon="2.20014">
        <ele>102</ele>
        <time>2017-05-07T09:32:48.359Z</time>
      </trkpt>
      <trkpt lat="47.8475" lon="2.2001">
        <ele>102</ele>
        <time>2017-05-07T09:32:49.359Z</time>
      </trkpt>
      <trkpt lat="47.8475" lon="2.2001">
        <ele>102</ele>
        <time>2017-05-07T09:32:50.356Z</time>
      </trkpt>
      <trkpt lat="47.84748" lon="2.20007">
        <ele>102</ele>
        <time>2017-05-07T09:32:51.361Z</time>
      </trkpt>
      <trkpt lat="47.84746" lon="2.20005">
        <ele>102</ele>
        <time>2017-05-07T09:32:52.362Z</time>
      </trkpt>
      <trkpt lat="47.84745" lon="2.20004">
        <ele>102</ele>
        <time>2017-05-07T09:32:53.363Z</time>
      </trkpt>
      <trkpt lat="47.84745" lon="2.20004">
        <ele>102</ele>
        <time>2017-05-07T09:32:54.356Z</time>
      </trkpt>
      <trkpt lat="47.84743" lon="2.19998">
        <ele>102</ele>
        <time>2017-05-07T09:32:55.358Z</time>
      </trkpt>
      <trkpt lat="47.84743" lon="2.19998">
        <ele>102</ele>
        <time>2017-05-07T09:32:56.356Z</time>
      </trkpt>
      <trkpt lat="47.84742" lon="2.19991">
        <ele>102</ele>
        <time>2017-05-07T09:32:57.359Z</time>
      </trkpt>
      <trkpt lat="47.84742" lon="2.19991">
        <ele>102</ele>
        <time>2017-05-07T09:32:58.356Z</time>
      </trkpt>
      <trkpt lat="47.84741" lon="2.19985">
        <ele>102</ele>
        <time>2017-05-07T09:32:59.375Z</time>
      </trkpt>
      <trkpt lat="47.84741" lon="2.19985">
        <ele>102</ele>
        <time>2017-05-07T09:33:00.364Z</time>
      </trkpt>
      <trkpt lat="47.8474" lon="2.19979">
        <ele>102</ele>
        <time>2017-05-07T09:33:01.370Z</time>
      </trkpt>
      <trkpt lat="47.8474" lon="2.19979">
        <ele>102</ele>
        <time>2017-05-07T09:33:02.376Z</time>
      </trkpt>
      <trkpt lat="47.84738" lon="2.19973">
        <ele>102</ele>
        <time>2017-05-07T09:33:03.368Z</time>
      </trkpt>
      <trkpt lat="47.84737" lon="2.1997">
        <ele>102</ele>
        <time>2017-05-07T09:33:04.362Z</time>
      </trkpt>
      <trkpt lat="47.84736" lon="2.19966">
        <ele>102</ele>
        <time>2017-05-07T09:33:05.363Z</time>
      </trkpt>
      <trkpt lat="47.84736" lon="2.19966">
        <ele>102</ele>
        <time>2017-05-07T09:33:06.367Z</time>
      </trkpt>
      <trkpt lat="47.84734" lon="2.19959">
        <ele>102</ele>
        <time>2017-05-07T09:33:07.360Z</time>
      </trkpt>
      <trkpt lat="47.84734" lon="2.19959">
        <ele>102</ele>
        <time>2017-05-07T09:33:08.357Z</time>
      </trkpt>
      <trkpt lat="47.84733" lon="2.19951">
        <ele>102</ele>
        <time>2017-05-07T09:33:09.361Z</time>
      </trkpt>
      <trkpt lat="47.84733" lon="2.19951">
        <ele>102</ele>
        <time>2017-05-07T09:33:10.356Z</time>
      </trkpt>
      <trkpt lat="47.84731" lon="2.19945">
        <ele>102</ele>
        <time>2017-05-07T09:33:11.361Z</time>
      </trkpt>
      <trkpt lat="47.84731" lon="2.19945">
        <ele>102</ele>
        <time>2017-05-07T09:33:12.356Z</time>
      </trkpt>
      <trkpt lat="47.8473" lon="2.19938">
        <ele>102</ele>
        <time>2017-05-07T09:33:13.360Z</time>
      </trkpt>
      <trkpt lat="47.84729" lon="2.19935">
        <ele>102</ele>
        <time>2017-05-07T09:33:14.362Z</time>
      </trkpt>
      <trkpt lat="47.84729" lon="2.19935">
        <ele>102</ele>
        <time>2017-05-07T09:33:15.356Z</time>
      </trkpt>
      <trkpt lat="47.84727" lon="2.19926">
        <ele>102</ele>
        <time>2017-05-07T09:33:16.366Z</time>
      </trkpt>
      <trkpt lat="47.84726" lon="2.19921">
        <ele>101</ele>
        <time>2017-05-07T09:33:17.369Z</time>
      </trkpt>
      <trkpt lat="47.84726" lon="2.19921">
        <ele>101</ele>
        <time>2017-05-07T09:33:18.358Z</time>
      </trkpt>
      <trkpt lat="47.84723" lon="2.1991">
        <ele>101</ele>
        <time>2017-05-07T09:33:19.361Z</time>
      </trkpt>
      <trkpt lat="47.84723" lon="2.1991">
        <ele>101</ele>
        <time>2017-05-07T09:33:20.356Z</time>
      </trkpt>
      <trkpt lat="47.84721" lon="2.19898">
        <ele>101</ele>
        <time>2017-05-07T09:33:21.360Z</time>
      </trkpt>
      <trkpt lat="47.84721" lon="2.19898">
        <ele>101</ele>
        <time>2017-05-07T09:33:22.365Z</time>
      </trkpt>
      <trkpt lat="47.84718" lon="2.19885">
        <ele>101</ele>
        <time>2017-05-07T09:33:23.364Z</time>
      </trkpt>
      <trkpt lat="47.84718" lon="2.19885">
        <ele>101</ele>
        <time>2017-05-07T09:33:24.356Z</time>
      </trkpt>
      <trkpt lat="47.84715" lon="2.19871">
        <ele>101</ele>
        <time>2017-05-07T09:33:25.361Z</time>
      </trkpt>
      <trkpt lat="47.84715" lon="2.19871">
        <ele>101</ele>
        <time>2017-05-07T09:33:26.392Z</time>
      </trkpt>
      <trkpt lat="47.84711" lon="2.19856">
        <ele>101</ele>
        <time>2017-05-07T09:33:27.365Z</time>
      </trkpt>
      <trkpt lat="47.84711" lon="2.19856">
        <ele>101</ele>
        <time>2017-05-07T09:33:28.356Z</time>
      </trkpt>
      <trkpt lat="47.84708" lon="2.1984">
        <ele>101</ele>
        <time>2017-05-07T09:33:29.364Z</time>
      </trkpt>
      <trkpt lat="47.84708" lon="2.1984">
        <ele>101</ele>
        <time>2017-05-07T09:33:30.359Z</time>
      </trkpt>
      <trkpt lat="47.84704" lon="2.19824">
        <ele>101</ele>
        <time>2017-05-07T09:33:31.362Z</time>
      </trkpt>
      <trkpt lat="47.84704" lon="2.19824">
        <ele>101</ele>
        <time>2017-05-07T09:33:32.361Z</time>
      </trkpt>
      <trkpt lat="47.84701" lon="2.19809">
        <ele>102</ele>
        <time>2017-05-07T09:33:33.361Z</time>
      </trkpt>
      <trkpt lat="47.84701" lon="2.19809">
        <ele>102</ele>
        <time>2017-05-07T09:33:34.358Z</time>
      </trkpt>
      <trkpt lat="47.84699" lon="2.19794">
        <ele>101</ele>
        <time>2017-05-07T09:33:35.363Z</time>
      </trkpt>
      <trkpt lat="47.84699" lon="2.19794">
        <ele>101</ele>
        <time>2017-05-07T09:33:36.389Z</time>
      </trkpt>
      <trkpt lat="47.84696" lon="2.1978">
        <ele>102</ele>
        <time>2017-05-07T09:33:37.377Z</time>
      </trkpt>
      <trkpt lat="47.84696" lon="2.1978">
        <ele>102</ele>
        <time>2017-05-07T09:33:38.368Z</time>
      </trkpt>
      <trkpt lat="47.84693" lon="2.19766">
        <ele>101</ele>
        <time>2017-05-07T09:33:39.361Z</time>
      </trkpt>
      <trkpt lat="47.84693" lon="2.19766">
        <ele>101</ele>
        <time>2017-05-07T09:33:40.356Z</time>
      </trkpt>
      <trkpt lat="47.8469" lon="2.19751">
        <ele>101</ele>
        <time>2017-05-07T09:33:41.364Z</time>
      </trkpt>
      <trkpt lat="47.8469" lon="2.19751">
        <ele>101</ele>
        <time>2017-05-07T09:33:42.356Z</time>
      </trkpt>
      <trkpt lat="47.84687" lon="2.19737">
        <ele>101</ele>
        <time>2017-05-07T09:33:43.365Z</time>
      </trkpt>
      <trkpt lat="47.84687" lon="2.19737">
        <ele>101</ele>
        <time>2017-05-07T09:33:44.360Z</time>
      </trkpt>
      <trkpt lat="47.84684" lon="2.19723">
        <ele>101</ele>
        <time>2017-05-07T09:33:45.361Z</time>
      </trkpt>
      <trkpt lat="47.84684" lon="2.19723">
        <ele>101</ele>
        <time>2017-05-07T09:33:46.394Z</time>
      </trkpt>
      <trkpt lat="47.8468" lon="2.1971">
        <ele>101</ele>
        <time>2017-05-07T09:33:47.369Z</time>
      </trkpt>
      <trkpt lat="47.8468" lon="2.1971">
        <ele>101</ele>
        <time>2017-05-07T09:33:48.375Z</time>
      </trkpt>
      <trkpt lat="47.84676" lon="2.19696">
        <ele>101</ele>
        <time>2017-05-07T09:33:49.365Z</time>
      </trkpt>
      <trkpt lat="47.84675" lon="2.19689">
        <ele>100</ele>
        <time>2017-05-07T09:33:50.377Z</time>
      </trkpt>
      <trkpt lat="47.84675" lon="2.19689">
        <ele>100</ele>
        <time>2017-05-07T09:33:51.366Z</time>
      </trkpt>
      <trkpt lat="47.84672" lon="2.19674">
        <ele>100</ele>
        <time>2017-05-07T09:33:52.356Z</time>
      </trkpt>
      <trkpt lat="47.84671" lon="2.19667">
        <ele>100</ele>
        <time>2017-05-07T09:33:53.373Z</time>
      </trkpt>
      <trkpt lat="47.84671" lon="2.19667">
        <ele>100</ele>
        <time>2017-05-07T09:33:54.361Z</time>
      </trkpt>
      <trkpt lat="47.84668" lon="2.19652">
        <ele>100</ele>
        <time>2017-05-07T09:33:55.361Z</time>
      </trkpt>
      <trkpt lat="47.84668" lon="2.19652">
        <ele>100</ele>
        <time>2017-05-07T09:33:56.356Z</time>
      </trkpt>
      <trkpt lat="47.84664" lon="2.19637">
        <ele>100</ele>
        <time>2017-05-07T09:33:57.361Z</time>
      </trkpt>
      <trkpt lat="47.84664" lon="2.19637">
        <ele>100</ele>
        <time>2017-05-07T09:33:58.355Z</time>
      </trkpt>
      <trkpt lat="47.84662" lon="2.19622">
        <ele>99</ele>
        <time>2017-05-07T09:33:59.359Z</time>
      </trkpt>
      <trkpt lat="47.84662" lon="2.19622">
        <ele>99</ele>
        <time>2017-05-07T09:34:00.367Z</time>
      </trkpt>
      <trkpt lat="47.84658" lon="2.19606">
        <ele>99</ele>
        <time>2017-05-07T09:34:01.373Z</time>
      </trkpt>
      <trkpt lat="47.84656" lon="2.19598">
        <ele>99</ele>
        <time>2017-05-07T09:34:02.379Z</time>
      </trkpt>
      <trkpt lat="47.84656" lon="2.19598">
        <ele>99</ele>
        <time>2017-05-07T09:34:03.389Z</time>
      </trkpt>
      <trkpt lat="47.84653" lon="2.19582">
        <ele>99</ele>
        <time>2017-05-07T09:34:04.380Z</time>
      </trkpt>
      <trkpt lat="47.84653" lon="2.19582">
        <ele>99</ele>
        <time>2017-05-07T09:34:05.368Z</time>
      </trkpt>
      <trkpt lat="47.84649" lon="2.19565">
        <ele>99</ele>
        <time>2017-05-07T09:34:06.394Z</time>
      </trkpt>
      <trkpt lat="47.84649" lon="2.19565">
        <ele>99</ele>
        <time>2017-05-07T09:34:07.366Z</time>
      </trkpt>
      <trkpt lat="47.84646" lon="2.19549">
        <ele>99</ele>
        <time>2017-05-07T09:34:08.378Z</time>
      </trkpt>
      <trkpt lat="47.84646" lon="2.19549">
        <ele>99</ele>
        <time>2017-05-07T09:34:09.377Z</time>
      </trkpt>
      <trkpt lat="47.84642" lon="2.19533">
        <ele>99</ele>
        <time>2017-05-07T09:34:10.366Z</time>
      </trkpt>
      <trkpt lat="47.84642" lon="2.19533">
        <ele>99</ele>
        <time>2017-05-07T09:34:11.374Z</time>
      </trkpt>
      <trkpt lat="47.84639" lon="2.19516">
        <ele>98</ele>
        <time>2017-05-07T09:34:12.362Z</time>
      </trkpt>
      <trkpt lat="47.84637" lon="2.19507">
        <ele>98</ele>
        <time>2017-05-07T09:34:13.360Z</time>
      </trkpt>
      <trkpt lat="47.84637" lon="2.19507">
        <ele>98</ele>
        <time>2017-05-07T09:34:14.356Z</time>
      </trkpt>
      <trkpt lat="47.84633" lon="2.1949">
        <ele>98</ele>
        <time>2017-05-07T09:34:15.361Z</time>
      </trkpt>
      <trkpt lat="47.84631" lon="2.19481">
        <ele>98</ele>
        <time>2017-05-07T09:34:16.361Z</time>
      </trkpt>
      <trkpt lat="47.84631" lon="2.19481">
        <ele>98</ele>
        <time>2017-05-07T09:34:17.359Z</time>
      </trkpt>
      <trkpt lat="47.84627" lon="2.19463">
        <ele>98</ele>
        <time>2017-05-07T09:34:18.358Z</time>
      </trkpt>
      <trkpt lat="47.84625" lon="2.19455">
        <ele>98</ele>
        <time>2017-05-07T09:34:19.361Z</time>
      </trkpt>
      <trkpt lat="47.84625" lon="2.19455">
        <ele>98</ele>
        <time>2017-05-07T09:34:20.358Z</time>
      </trkpt>
      <trkpt lat="47.84621" lon="2.19436">
        <ele>98</ele>
        <time>2017-05-07T09:34:21.360Z</time>
      </trkpt>
      <trkpt lat="47.84621" lon="2.19436">
        <ele>98</ele>
        <time>2017-05-07T09:34:22.365Z</time>
      </trkpt>
      <trkpt lat="47.84617" lon="2.19417">
        <ele>98</ele>
        <time>2017-05-07T09:34:23.361Z</time>
      </trkpt>
      <trkpt lat="47.84617" lon="2.19417">
        <ele>98</ele>
        <time>2017-05-07T09:34:24.358Z</time>
      </trkpt>
      <trkpt lat="47.84613" lon="2.19395">
        <ele>98</ele>
        <time>2017-05-07T09:34:25.362Z</time>
      </trkpt>
      <trkpt lat="47.84613" lon="2.19395">
        <ele>98</ele>
        <time>2017-05-07T09:34:26.356Z</time>
      </trkpt>
      <trkpt lat="47.84609" lon="2.19371">
        <ele>98</ele>
        <time>2017-05-07T09:34:27.360Z</time>
      </trkpt>
      <trkpt lat="47.84609" lon="2.19371">
        <ele>98</ele>
        <time>2017-05-07T09:34:28.363Z</time>
      </trkpt>
      <trkpt lat="47.84605" lon="2.19346">
        <ele>98</ele>
        <time>2017-05-07T09:34:29.363Z</time>
      </trkpt>
      <trkpt lat="47.84603" lon="2.19334">
        <ele>98</ele>
        <time>2017-05-07T09:34:30.385Z</time>
      </trkpt>
      <trkpt lat="47.84603" lon="2.19334">
        <ele>98</ele>
        <time>2017-05-07T09:34:31.375Z</time>
      </trkpt>
      <trkpt lat="47.84599" lon="2.1931">
        <ele>98</ele>
        <time>2017-05-07T09:34:32.363Z</time>
      </trkpt>
      <trkpt lat="47.84599" lon="2.1931">
        <ele>98</ele>
        <time>2017-05-07T09:34:33.355Z</time>
      </trkpt>
      <trkpt lat="47.84598" lon="2.19287">
        <ele>99</ele>
        <time>2017-05-07T09:34:34.376Z</time>
      </trkpt>
      <trkpt lat="47.84598" lon="2.19287">
        <ele>99</ele>
        <time>2017-05-07T09:34:35.363Z</time>
      </trkpt>
      <trkpt lat="47.84595" lon="2.19264">
        <ele>98</ele>
        <time>2017-05-07T09:34:36.365Z</time>
      </trkpt>
      <trkpt lat="47.84595" lon="2.19264">
        <ele>98</ele>
        <time>2017-05-07T09:34:37.393Z</time>
      </trkpt>
      <trkpt lat="47.84594" lon="2.19241">
        <ele>99</ele>
        <time>2017-05-07T09:34:38.361Z</time>
      </trkpt>
      <trkpt lat="47.84594" lon="2.19241">
        <ele>99</ele>
        <time>2017-05-07T09:34:39.359Z</time>
      </trkpt>
      <trkpt lat="47.84593" lon="2.19219">
        <ele>99</ele>
        <time>2017-05-07T09:34:40.361Z</time>
      </trkpt>
      <trkpt lat="47.84593" lon="2.19219">
        <ele>99</ele>
        <time>2017-05-07T09:34:41.360Z</time>
      </trkpt>
      <trkpt lat="47.84591" lon="2.19197">
        <ele>99</ele>
        <time>2017-05-07T09:34:42.362Z</time>
      </trkpt>
      <trkpt lat="47.84591" lon="2.19197">
        <ele>99</ele>
        <time>2017-05-07T09:34:43.355Z</time>
      </trkpt>
      <trkpt lat="47.8459" lon="2.19175">
        <ele>99</ele>
        <time>2017-05-07T09:34:44.373Z</time>
      </trkpt>
      <trkpt lat="47.8459" lon="2.19175">
        <ele>99</ele>
        <time>2017-05-07T09:34:45.360Z</time>
      </trkpt>
      <trkpt lat="47.84588" lon="2.19153">
        <ele>99</ele>
        <time>2017-05-07T09:34:46.359Z</time>
      </trkpt>
      <trkpt lat="47.84588" lon="2.19143">
        <ele>99</ele>
        <time>2017-05-07T09:34:47.360Z</time>
      </trkpt>
      <trkpt lat="47.84588" lon="2.19143">
        <ele>99</ele>
        <time>2017-05-07T09:34:48.356Z</time>
      </trkpt>
      <trkpt lat="47.84587" lon="2.19121">
        <ele>99</ele>
        <time>2017-05-07T09:34:49.359Z</time>
      </trkpt>
      <trkpt lat="47.84587" lon="2.19121">
        <ele>99</ele>
        <time>2017-05-07T09:34:50.372Z</time>
      </trkpt>
      <trkpt lat="47.84585" lon="2.191">
        <ele>99</ele>
        <time>2017-05-07T09:34:51.361Z</time>
      </trkpt>
      <trkpt lat="47.84585" lon="2.191">
        <ele>99</ele>
        <time>2017-05-07T09:34:52.356Z</time>
      </trkpt>
      <trkpt lat="47.84584" lon="2.19079">
        <ele>99</ele>
        <time>2017-05-07T09:34:53.363Z</time>
      </trkpt>
      <trkpt lat="47.84584" lon="2.19079">
        <ele>99</ele>
        <time>2017-05-07T09:34:54.357Z</time>
      </trkpt>
      <trkpt lat="47.84582" lon="2.19057">
        <ele>99</ele>
        <time>2017-05-07T09:34:55.362Z</time>
      </trkpt>
      <trkpt lat="47.84582" lon="2.19057">
        <ele>99</ele>
        <time>2017-05-07T09:34:56.362Z</time>
      </trkpt>
      <trkpt lat="47.8458" lon="2.19036">
        <ele>99</ele>
        <time>2017-05-07T09:34:57.362Z</time>
      </trkpt>
      <trkpt lat="47.8458" lon="2.19036">
        <ele>99</ele>
        <time>2017-05-07T09:34:58.356Z</time>
      </trkpt>
      <trkpt lat="47.84578" lon="2.19015">
        <ele>99</ele>
        <time>2017-05-07T09:34:59.384Z</time>
      </trkpt>
      <trkpt lat="47.84578" lon="2.19015">
        <ele>99</ele>
        <time>2017-05-07T09:35:00.388Z</time>
      </trkpt>
      <trkpt lat="47.84577" lon="2.18995">
        <ele>99</ele>
        <time>2017-05-07T09:35:01.376Z</time>
      </trkpt>
      <trkpt lat="47.84577" lon="2.18995">
        <ele>99</ele>
        <time>2017-05-07T09:35:02.364Z</time>
      </trkpt>
      <trkpt lat="47.84576" lon="2.18977">
        <ele>99</ele>
        <time>2017-05-07T09:35:03.361Z</time>
      </trkpt>
      <trkpt lat="47.84576" lon="2.18977">
        <ele>99</ele>
        <time>2017-05-07T09:35:04.357Z</time>
      </trkpt>
      <trkpt lat="47.84575" lon="2.18958">
        <ele>99</ele>
        <time>2017-05-07T09:35:05.364Z</time>
      </trkpt>
      <trkpt lat="47.84574" lon="2.18948">
        <ele>99</ele>
        <time>2017-05-07T09:35:06.384Z</time>
      </trkpt>
      <trkpt lat="47.84574" lon="2.18948">
        <ele>99</ele>
        <time>2017-05-07T09:35:07.358Z</time>
      </trkpt>
      <trkpt lat="47.84573" lon="2.18929">
        <ele>99</ele>
        <time>2017-05-07T09:35:08.362Z</time>
      </trkpt>
      <trkpt lat="47.84573" lon="2.18929">
        <ele>99</ele>
        <time>2017-05-07T09:35:09.356Z</time>
      </trkpt>
      <trkpt lat="47.84572" lon="2.18909">
        <ele>99</ele>
        <time>2017-05-07T09:35:10.362Z</time>
      </trkpt>
      <trkpt lat="47.84572" lon="2.189">
        <ele>99</ele>
        <time>2017-05-07T09:35:11.372Z</time>
      </trkpt>
      <trkpt lat="47.84572" lon="2.189">
        <ele>99</ele>
        <time>2017-05-07T09:35:12.360Z</time>
      </trkpt>
      <trkpt lat="47.84571" lon="2.1888">
        <ele>99</ele>
        <time>2017-05-07T09:35:13.367Z</time>
      </trkpt>
      <trkpt lat="47.84571" lon="2.1888">
        <ele>99</ele>
        <time>2017-05-07T09:35:14.356Z</time>
      </trkpt>
      <trkpt lat="47.84571" lon="2.18861">
        <ele>99</ele>
        <time>2017-05-07T09:35:15.359Z</time>
      </trkpt>
      <trkpt lat="47.84571" lon="2.18861">
        <ele>99</ele>
        <time>2017-05-07T09:35:16.356Z</time>
      </trkpt>
      <trkpt lat="47.8457" lon="2.18841">
        <ele>99</ele>
        <time>2017-05-07T09:35:17.364Z</time>
      </trkpt>
      <trkpt lat="47.8457" lon="2.18841">
        <ele>99</ele>
        <time>2017-05-07T09:35:18.357Z</time>
      </trkpt>
      <trkpt lat="47.84571" lon="2.18822">
        <ele>99</ele>
        <time>2017-05-07T09:35:19.363Z</time>
      </trkpt>
      <trkpt lat="47.84571" lon="2.18822">
        <ele>99</ele>
        <time>2017-05-07T09:35:20.356Z</time>
      </trkpt>
      <trkpt lat="47.84572" lon="2.18803">
        <ele>99</ele>
        <time>2017-05-07T09:35:21.374Z</time>
      </trkpt>
      <trkpt lat="47.84572" lon="2.18803">
        <ele>99</ele>
        <time>2017-05-07T09:35:22.364Z</time>
      </trkpt>
      <trkpt lat="47.84574" lon="2.18784">
        <ele>99</ele>
        <time>2017-05-07T09:35:23.361Z</time>
      </trkpt>
      <trkpt lat="47.84574" lon="2.18784">
        <ele>99</ele>
        <time>2017-05-07T09:35:24.357Z</time>
      </trkpt>
      <trkpt lat="47.84575" lon="2.18766">
        <ele>99</ele>
        <time>2017-05-07T09:35:25.359Z</time>
      </trkpt>
      <trkpt lat="47.84575" lon="2.18766">
        <ele>99</ele>
        <time>2017-05-07T09:35:26.368Z</time>
      </trkpt>
      <trkpt lat="47.84576" lon="2.18748">
        <ele>99</ele>
        <time>2017-05-07T09:35:27.361Z</time>
      </trkpt>
      <trkpt lat="47.84576" lon="2.18748">
        <ele>99</ele>
        <time>2017-05-07T09:35:28.356Z</time>
      </trkpt>
      <trkpt lat="47.84577" lon="2.18732">
        <ele>99</ele>
        <time>2017-05-07T09:35:29.363Z</time>
      </trkpt>
      <trkpt lat="47.84577" lon="2.18732">
        <ele>99</ele>
        <time>2017-05-07T09:35:30.356Z</time>
      </trkpt>
      <trkpt lat="47.84578" lon="2.18716">
        <ele>99</ele>
        <time>2017-05-07T09:35:31.361Z</time>
      </trkpt>
      <trkpt lat="47.84578" lon="2.18716">
        <ele>99</ele>
        <time>2017-05-07T09:35:32.358Z</time>
      </trkpt>
      <trkpt lat="47.84579" lon="2.187">
        <ele>99</ele>
        <time>2017-05-07T09:35:33.361Z</time>
      </trkpt>
      <trkpt lat="47.84579" lon="2.187">
        <ele>99</ele>
        <time>2017-05-07T09:35:34.358Z</time>
      </trkpt>
      <trkpt lat="47.8458" lon="2.18684">
        <ele>99</ele>
        <time>2017-05-07T09:35:35.364Z</time>
      </trkpt>
      <trkpt lat="47.8458" lon="2.18676">
        <ele>99</ele>
        <time>2017-05-07T09:35:36.376Z</time>
      </trkpt>
      <trkpt lat="47.8458" lon="2.18676">
        <ele>99</ele>
        <time>2017-05-07T09:35:37.369Z</time>
      </trkpt>
      <trkpt lat="47.84581" lon="2.1866">
        <ele>99</ele>
        <time>2017-05-07T09:35:38.361Z</time>
      </trkpt>
      <trkpt lat="47.84581" lon="2.1866">
        <ele>99</ele>
        <time>2017-05-07T09:35:39.356Z</time>
      </trkpt>
      <trkpt lat="47.84581" lon="2.18644">
        <ele>99</ele>
        <time>2017-05-07T09:35:40.361Z</time>
      </trkpt>
      <trkpt lat="47.84581" lon="2.18636">
        <ele>99</ele>
        <time>2017-05-07T09:35:41.364Z</time>
      </trkpt>
      <trkpt lat="47.84581" lon="2.18636">
        <ele>99</ele>
        <time>2017-05-07T09:35:42.357Z</time>
      </trkpt>
      <trkpt lat="47.84582" lon="2.1862">
        <ele>99</ele>
        <time>2017-05-07T09:35:43.362Z</time>
      </trkpt>
      <trkpt lat="47.84582" lon="2.1862">
        <ele>99</ele>
        <time>2017-05-07T09:35:44.356Z</time>
      </trkpt>
      <trkpt lat="47.84582" lon="2.18603">
        <ele>99</ele>
        <time>2017-05-07T09:35:45.375Z</time>
      </trkpt>
      <trkpt lat="47.84582" lon="2.18595">
        <ele>99</ele>
        <time>2017-05-07T09:35:46.364Z</time>
      </trkpt>
      <trkpt lat="47.84582" lon="2.18595">
        <ele>99</ele>
        <time>2017-05-07T09:35:47.393Z</time>
      </trkpt>
      <trkpt lat="47.84582" lon="2.18579">
        <ele>99</ele>
        <time>2017-05-07T09:35:48.360Z</time>
      </trkpt>
      <trkpt lat="47.84582" lon="2.18571">
        <ele>99</ele>
        <time>2017-05-07T09:35:49.371Z</time>
      </trkpt>
      <trkpt lat="47.84582" lon="2.18571">
        <ele>99</ele>
        <time>2017-05-07T09:35:50.359Z</time>
      </trkpt>
      <trkpt lat="47.84582" lon="2.18555">
        <ele>99</ele>
        <time>2017-05-07T09:35:51.362Z</time>
      </trkpt>
      <trkpt lat="47.84582" lon="2.18547">
        <ele>99</ele>
        <time>2017-05-07T09:35:52.362Z</time>
      </trkpt>
      <trkpt lat="47.84582" lon="2.18547">
        <ele>99</ele>
        <time>2017-05-07T09:35:53.357Z</time>
      </trkpt>
      <trkpt lat="47.84582" lon="2.18532">
        <ele>99</ele>
        <time>2017-05-07T09:35:54.371Z</time>
      </trkpt>
      <trkpt lat="47.84582" lon="2.18524">
        <ele>99</ele>
        <time>2017-05-07T09:35:55.363Z</time>
      </trkpt>
      <trkpt lat="47.84582" lon="2.18524">
        <ele>99</ele>
        <time>2017-05-07T09:35:56.359Z</time>
      </trkpt>
      <trkpt lat="47.84584" lon="2.18509">
        <ele>99</ele>
        <time>2017-05-07T09:35:57.362Z</time>
      </trkpt>
      <trkpt lat="47.84584" lon="2.18502">
        <ele>99</ele>
        <time>2017-05-07T09:35:58.363Z</time>
      </trkpt>
      <trkpt lat="47.84584" lon="2.18502">
        <ele>99</ele>
        <time>2017-05-07T09:35:59.383Z</time>
      </trkpt>
      <trkpt lat="47.84585" lon="2.18488">
        <ele>99</ele>
        <time>2017-05-07T09:36:00.383Z</time>
      </trkpt>
      <trkpt lat="47.84585" lon="2.18488">
        <ele>99</ele>
        <time>2017-05-07T09:36:01.372Z</time>
      </trkpt>
      <trkpt lat="47.84587" lon="2.18473">
        <ele>99</ele>
        <time>2017-05-07T09:36:02.362Z</time>
      </trkpt>
      <trkpt lat="47.84587" lon="2.18473">
        <ele>99</ele>
        <time>2017-05-07T09:36:03.357Z</time>
      </trkpt>
      <trkpt lat="47.84589" lon="2.18459">
        <ele>99</ele>
        <time>2017-05-07T09:36:04.362Z</time>
      </trkpt>
      <trkpt lat="47.8459" lon="2.18452">
        <ele>99</ele>
        <time>2017-05-07T09:36:05.364Z</time>
      </trkpt>
      <trkpt lat="47.8459" lon="2.18452">
        <ele>99</ele>
        <time>2017-05-07T09:36:06.357Z</time>
      </trkpt>
      <trkpt lat="47.84592" lon="2.18438">
        <ele>99</ele>
        <time>2017-05-07T09:36:07.364Z</time>
      </trkpt>
      <trkpt lat="47.84592" lon="2.18438">
        <ele>99</ele>
        <time>2017-05-07T09:36:08.360Z</time>
      </trkpt>
      <trkpt lat="47.84594" lon="2.18424">
        <ele>99</ele>
        <time>2017-05-07T09:36:09.363Z</time>
      </trkpt>
      <trkpt lat="47.84595" lon="2.18417">
        <ele>99</ele>
        <time>2017-05-07T09:36:10.363Z</time>
      </trkpt>
      <trkpt lat="47.84595" lon="2.18417">
        <ele>99</ele>
        <time>2017-05-07T09:36:11.361Z</time>
      </trkpt>
      <trkpt lat="47.84594" lon="2.18403">
        <ele>99</ele>
        <time>2017-05-07T09:36:12.364Z</time>
      </trkpt>
      <trkpt lat="47.84591" lon="2.18397">
        <ele>99</ele>
        <time>2017-05-07T09:36:13.363Z</time>
      </trkpt>
      <trkpt lat="47.84591" lon="2.18397">
        <ele>99</ele>
        <time>2017-05-07T09:36:14.358Z</time>
      </trkpt>
      <trkpt lat="47.84581" lon="2.18392">
        <ele>98</ele>
        <time>2017-05-07T09:36:15.362Z</time>
      </trkpt>
      <trkpt lat="47.84581" lon="2.18392">
        <ele>98</ele>
        <time>2017-05-07T09:36:16.360Z</time>
      </trkpt>
      <trkpt lat="47.84569" lon="2.18392">
        <ele>98</ele>
        <time>2017-05-07T09:36:17.364Z</time>
      </trkpt>
      <trkpt lat="47.84569" lon="2.18392">
        <ele>98</ele>
        <time>2017-05-07T09:36:18.361Z</time>
      </trkpt>
      <trkpt lat="47.84555" lon="2.1839">
        <ele>97</ele>
        <time>2017-05-07T09:36:19.363Z</time>
      </trkpt>
      <trkpt lat="47.84555" lon="2.1839">
        <ele>97</ele>
        <time>2017-05-07T09:36:20.360Z</time>
      </trkpt>
      <trkpt lat="47.8454" lon="2.18389">
        <ele>97</ele>
        <time>2017-05-07T09:36:21.363Z</time>
      </trkpt>
      <trkpt lat="47.8454" lon="2.18389">
        <ele>97</ele>
        <time>2017-05-07T09:36:22.360Z</time>
      </trkpt>
      <trkpt lat="47.84526" lon="2.18387">
        <ele>97</ele>
        <time>2017-05-07T09:36:23.362Z</time>
      </trkpt>
      <trkpt lat="47.84519" lon="2.18386">
        <ele>97</ele>
        <time>2017-05-07T09:36:24.362Z</time>
      </trkpt>
      <trkpt lat="47.84511" lon="2.18385">
        <ele>97</ele>
        <time>2017-05-07T09:36:25.363Z</time>
      </trkpt>
      <trkpt lat="47.84511" lon="2.18385">
        <ele>97</ele>
        <time>2017-05-07T09:36:26.360Z</time>
      </trkpt>
      <trkpt lat="47.84497" lon="2.18383">
        <ele>97</ele>
        <time>2017-05-07T09:36:27.359Z</time>
      </trkpt>
      <trkpt lat="47.84497" lon="2.18383">
        <ele>97</ele>
        <time>2017-05-07T09:36:28.382Z</time>
      </trkpt>
      <trkpt lat="47.84483" lon="2.18381">
        <ele>98</ele>
        <time>2017-05-07T09:36:29.374Z</time>
      </trkpt>
      <trkpt lat="47.84483" lon="2.18381">
        <ele>98</ele>
        <time>2017-05-07T09:36:30.361Z</time>
      </trkpt>
      <trkpt lat="47.84467" lon="2.18379">
        <ele>97</ele>
        <time>2017-05-07T09:36:31.362Z</time>
      </trkpt>
      <trkpt lat="47.84467" lon="2.18379">
        <ele>97</ele>
        <time>2017-05-07T09:36:32.357Z</time>
      </trkpt>
      <trkpt lat="47.84452" lon="2.18377">
        <ele>97</ele>
        <time>2017-05-07T09:36:33.376Z</time>
      </trkpt>
      <trkpt lat="47.84452" lon="2.18377">
        <ele>97</ele>
        <time>2017-05-07T09:36:34.371Z</time>
      </trkpt>
      <trkpt lat="47.84436" lon="2.18375">
        <ele>98</ele>
        <time>2017-05-07T09:36:35.363Z</time>
      </trkpt>
      <trkpt lat="47.84436" lon="2.18375">
        <ele>98</ele>
        <time>2017-05-07T09:36:36.359Z</time>
      </trkpt>
      <trkpt lat="47.84419" lon="2.18373">
        <ele>98</ele>
        <time>2017-05-07T09:36:37.362Z</time>
      </trkpt>
      <trkpt lat="47.84411" lon="2.18373">
        <ele>98</ele>
        <time>2017-05-07T09:36:38.361Z</time>
      </trkpt>
      <trkpt lat="47.84403" lon="2.18372">
        <ele>98</ele>
        <time>2017-05-07T09:36:39.362Z</time>
      </trkpt>
      <trkpt lat="47.84403" lon="2.18372">
        <ele>98</ele>
        <time>2017-05-07T09:36:40.365Z</time>
      </trkpt>
      <trkpt lat="47.84387" lon="2.18371">
        <ele>98</ele>
        <time>2017-05-07T09:36:41.363Z</time>
      </trkpt>
      <trkpt lat="47.84387" lon="2.18371">
        <ele>98</ele>
        <time>2017-05-07T09:36:42.359Z</time>
      </trkpt>
      <trkpt lat="47.8437" lon="2.1837">
        <ele>98</ele>
        <time>2017-05-07T09:36:43.362Z</time>
      </trkpt>
      <trkpt lat="47.84362" lon="2.18369">
        <ele>98</ele>
        <time>2017-05-07T09:36:44.362Z</time>
      </trkpt>
      <trkpt lat="47.84362" lon="2.18369">
        <ele>98</ele>
        <time>2017-05-07T09:36:45.367Z</time>
      </trkpt>
      <trkpt lat="47.84345" lon="2.18366">
        <ele>98</ele>
        <time>2017-05-07T09:36:46.360Z</time>
      </trkpt>
      <trkpt lat="47.84337" lon="2.18365">
        <ele>98</ele>
        <time>2017-05-07T09:36:47.363Z</time>
      </trkpt>
      <trkpt lat="47.84337" lon="2.18365">
        <ele>98</ele>
        <time>2017-05-07T09:36:48.393Z</time>
      </trkpt>
      <trkpt lat="47.84321" lon="2.18362">
        <ele>98</ele>
        <time>2017-05-07T09:36:49.364Z</time>
      </trkpt>
      <trkpt lat="47.84321" lon="2.18362">
        <ele>98</ele>
        <time>2017-05-07T09:36:50.357Z</time>
      </trkpt>
      <trkpt lat="47.84305" lon="2.18361">
        <ele>99</ele>
        <time>2017-05-07T09:36:51.360Z</time>
      </trkpt>
      <trkpt lat="47.84305" lon="2.18361">
        <ele>99</ele>
        <time>2017-05-07T09:36:52.358Z</time>
      </trkpt>
      <trkpt lat="47.84291" lon="2.1836">
        <ele>99</ele>
        <time>2017-05-07T09:36:53.362Z</time>
      </trkpt>
      <trkpt lat="47.84291" lon="2.1836">
        <ele>99</ele>
        <time>2017-05-07T09:36:54.364Z</time>
      </trkpt>
      <trkpt lat="47.84277" lon="2.18358">
        <ele>99</ele>
        <time>2017-05-07T09:36:55.357Z</time>
      </trkpt>
      <trkpt lat="47.8427" lon="2.18357">
        <ele>99</ele>
        <time>2017-05-07T09:36:56.360Z</time>
      </trkpt>
      <trkpt lat="47.84264" lon="2.18356">
        <ele>99</ele>
        <time>2017-05-07T09:36:57.361Z</time>
      </trkpt>
      <trkpt lat="47.84264" lon="2.18356">
        <ele>99</ele>
        <time>2017-05-07T09:36:58.390Z</time>
      </trkpt>
      <trkpt lat="47.8425" lon="2.18354">
        <ele>100</ele>
        <time>2017-05-07T09:36:59.393Z</time>
      </trkpt>
      <trkpt lat="47.8425" lon="2.18354">
        <ele>100</ele>
        <time>2017-05-07T09:37:00.378Z</time>
      </trkpt>
      <trkpt lat="47.84238" lon="2.18352">
        <ele>100</ele>
        <time>2017-05-07T09:37:01.370Z</time>
      </trkpt>
      <trkpt lat="47.84232" lon="2.18352">
        <ele>100</ele>
        <time>2017-05-07T09:37:02.360Z</time>
      </trkpt>
      <trkpt lat="47.84232" lon="2.18352">
        <ele>100</ele>
        <time>2017-05-07T09:37:03.355Z</time>
      </trkpt>
      <trkpt lat="47.8422" lon="2.18349">
        <ele>100</ele>
        <time>2017-05-07T09:37:04.357Z</time>
      </trkpt>
      <trkpt lat="47.84215" lon="2.18346">
        <ele>100</ele>
        <time>2017-05-07T09:37:05.361Z</time>
      </trkpt>
      <trkpt lat="47.84215" lon="2.18346">
        <ele>100</ele>
        <time>2017-05-07T09:37:06.356Z</time>
      </trkpt>
      <trkpt lat="47.84208" lon="2.18332">
        <ele>101</ele>
        <time>2017-05-07T09:37:07.370Z</time>
      </trkpt>
      <trkpt lat="47.84208" lon="2.18332">
        <ele>101</ele>
        <time>2017-05-07T09:37:08.358Z</time>
      </trkpt>
      <trkpt lat="47.84206" lon="2.18312">
        <ele>101</ele>
        <time>2017-05-07T09:37:09.360Z</time>
      </trkpt>
      <trkpt lat="47.84206" lon="2.18312">
        <ele>101</ele>
        <time>2017-05-07T09:37:10.356Z</time>
      </trkpt>
      <trkpt lat="47.84203" lon="2.18288">
        <ele>100</ele>
        <time>2017-05-07T09:37:11.362Z</time>
      </trkpt>
      <trkpt lat="47.84201" lon="2.18277">
        <ele>99</ele>
        <time>2017-05-07T09:37:12.361Z</time>
      </trkpt>
      <trkpt lat="47.84198" lon="2.18266">
        <ele>99</ele>
        <time>2017-05-07T09:37:13.360Z</time>
      </trkpt>
      <trkpt lat="47.84198" lon="2.18266">
        <ele>99</ele>
        <time>2017-05-07T09:37:14.358Z</time>
      </trkpt>
      <trkpt lat="47.84192" lon="2.18245">
        <ele>99</ele>
        <time>2017-05-07T09:37:15.360Z</time>
      </trkpt>
      <trkpt lat="47.84192" lon="2.18245">
        <ele>99</ele>
        <time>2017-05-07T09:37:16.357Z</time>
      </trkpt>
      <trkpt lat="47.84186" lon="2.18224">
        <ele>99</ele>
        <time>2017-05-07T09:37:17.361Z</time>
      </trkpt>
      <trkpt lat="47.84186" lon="2.18224">
        <ele>99</ele>
        <time>2017-05-07T09:37:18.355Z</time>
      </trkpt>
      <trkpt lat="47.8418" lon="2.18204">
        <ele>99</ele>
        <time>2017-05-07T09:37:19.360Z</time>
      </trkpt>
      <trkpt lat="47.84177" lon="2.18194">
        <ele>99</ele>
        <time>2017-05-07T09:37:20.359Z</time>
      </trkpt>
      <trkpt lat="47.84174" lon="2.18184">
        <ele>98</ele>
        <time>2017-05-07T09:37:21.360Z</time>
      </trkpt>
      <trkpt lat="47.84174" lon="2.18184">
        <ele>98</ele>
        <time>2017-05-07T09:37:22.355Z</time>
      </trkpt>
      <trkpt lat="47.84168" lon="2.18166">
        <ele>98</ele>
        <time>2017-05-07T09:37:23.361Z</time>
      </trkpt>
      <trkpt lat="47.84168" lon="2.18166">
        <ele>98</ele>
        <time>2017-05-07T09:37:24.357Z</time>
      </trkpt>
      <trkpt lat="47.84163" lon="2.18148">
        <ele>98</ele>
        <time>2017-05-07T09:37:25.360Z</time>
      </trkpt>
      <trkpt lat="47.84163" lon="2.18148">
        <ele>98</ele>
        <time>2017-05-07T09:37:26.373Z</time>
      </trkpt>
      <trkpt lat="47.84157" lon="2.18131">
        <ele>98</ele>
        <time>2017-05-07T09:37:27.356Z</time>
      </trkpt>
      <trkpt lat="47.84153" lon="2.18124">
        <ele>98</ele>
        <time>2017-05-07T09:37:28.361Z</time>
      </trkpt>
      <trkpt lat="47.84153" lon="2.18124">
        <ele>98</ele>
        <time>2017-05-07T09:37:29.359Z</time>
      </trkpt>
      <trkpt lat="47.84141" lon="2.18114">
        <ele>98</ele>
        <time>2017-05-07T09:37:30.378Z</time>
      </trkpt>
      <trkpt lat="47.84134" lon="2.18113">
        <ele>98</ele>
        <time>2017-05-07T09:37:31.392Z</time>
      </trkpt>
      <trkpt lat="47.84134" lon="2.18113">
        <ele>98</ele>
        <time>2017-05-07T09:37:32.358Z</time>
      </trkpt>
      <trkpt lat="47.84119" lon="2.18112">
        <ele>99</ele>
        <time>2017-05-07T09:37:33.364Z</time>
      </trkpt>
      <trkpt lat="47.84112" lon="2.18114">
        <ele>99</ele>
        <time>2017-05-07T09:37:34.375Z</time>
      </trkpt>
      <trkpt lat="47.84105" lon="2.18115">
        <ele>99</ele>
        <time>2017-05-07T09:37:35.363Z</time>
      </trkpt>
      <trkpt lat="47.84105" lon="2.18115">
        <ele>99</ele>
        <time>2017-05-07T09:37:36.355Z</time>
      </trkpt>
      <trkpt lat="47.8409" lon="2.18119">
        <ele>100</ele>
        <time>2017-05-07T09:37:37.370Z</time>
      </trkpt>
      <trkpt lat="47.84083" lon="2.18121">
        <ele>100</ele>
        <time>2017-05-07T09:37:38.360Z</time>
      </trkpt>
      <trkpt lat="47.84083" lon="2.18121">
        <ele>100</ele>
        <time>2017-05-07T09:37:39.355Z</time>
      </trkpt>
      <trkpt lat="47.84068" lon="2.18126">
        <ele>99</ele>
        <time>2017-05-07T09:37:40.359Z</time>
      </trkpt>
      <trkpt lat="47.84061" lon="2.18128">
        <ele>99</ele>
        <time>2017-05-07T09:37:41.361Z</time>
      </trkpt>
      <trkpt lat="47.84061" lon="2.18128">
        <ele>99</ele>
        <time>2017-05-07T09:37:42.356Z</time>
      </trkpt>
      <trkpt lat="47.84047" lon="2.18133">
        <ele>99</ele>
        <time>2017-05-07T09:37:43.361Z</time>
      </trkpt>
      <trkpt lat="47.8404" lon="2.18134">
        <ele>99</ele>
        <time>2017-05-07T09:37:44.360Z</time>
      </trkpt>
      <trkpt lat="47.8404" lon="2.18134">
        <ele>99</ele>
        <time>2017-05-07T09:37:45.361Z</time>
      </trkpt>
      <trkpt lat="47.84025" lon="2.18136">
        <ele>99</ele>
        <time>2017-05-07T09:37:46.369Z</time>
      </trkpt>
      <trkpt lat="47.84017" lon="2.18137">
        <ele>98</ele>
        <time>2017-05-07T09:37:47.359Z</time>
      </trkpt>
      <trkpt lat="47.8401" lon="2.18136">
        <ele>99</ele>
        <time>2017-05-07T09:37:48.362Z</time>
      </trkpt>
      <trkpt lat="47.8401" lon="2.18136">
        <ele>99</ele>
        <time>2017-05-07T09:37:49.358Z</time>
      </trkpt>
      <trkpt lat="47.83995" lon="2.18134">
        <ele>99</ele>
        <time>2017-05-07T09:37:50.361Z</time>
      </trkpt>
      <trkpt lat="47.83988" lon="2.18133">
        <ele>99</ele>
        <time>2017-05-07T09:37:51.362Z</time>
      </trkpt>
      <trkpt lat="47.83988" lon="2.18133">
        <ele>99</ele>
        <time>2017-05-07T09:37:52.357Z</time>
      </trkpt>
      <trkpt lat="47.83974" lon="2.1813">
        <ele>98</ele>
        <time>2017-05-07T09:37:53.377Z</time>
      </trkpt>
      <trkpt lat="47.83967" lon="2.18129">
        <ele>98</ele>
        <time>2017-05-07T09:37:54.368Z</time>
      </trkpt>
      <trkpt lat="47.83967" lon="2.18129">
        <ele>98</ele>
        <time>2017-05-07T09:37:55.361Z</time>
      </trkpt>
      <trkpt lat="47.83954" lon="2.18126">
        <ele>98</ele>
        <time>2017-05-07T09:37:56.362Z</time>
      </trkpt>
      <trkpt lat="47.83954" lon="2.18126">
        <ele>98</ele>
        <time>2017-05-07T09:37:57.376Z</time>
      </trkpt>
      <trkpt lat="47.8394" lon="2.18123">
        <ele>98</ele>
        <time>2017-05-07T09:37:58.365Z</time>
      </trkpt>
      <trkpt lat="47.83933" lon="2.18122">
        <ele>98</ele>
        <time>2017-05-07T09:37:59.390Z</time>
      </trkpt>
      <trkpt lat="47.83933" lon="2.18122">
        <ele>98</ele>
        <time>2017-05-07T09:38:00.375Z</time>
      </trkpt>
      <trkpt lat="47.83919" lon="2.1812">
        <ele>98</ele>
        <time>2017-05-07T09:38:01.381Z</time>
      </trkpt>
      <trkpt lat="47.83911" lon="2.18119">
        <ele>98</ele>
        <time>2017-05-07T09:38:02.393Z</time>
      </trkpt>
      <trkpt lat="47.83911" lon="2.18119">
        <ele>98</ele>
        <time>2017-05-07T09:38:03.357Z</time>
      </trkpt>
      <trkpt lat="47.83897" lon="2.18117">
        <ele>98</ele>
        <time>2017-05-07T09:38:04.363Z</time>
      </trkpt>
      <trkpt lat="47.8389" lon="2.18116">
        <ele>98</ele>
        <time>2017-05-07T09:38:05.364Z</time>
      </trkpt>
      <trkpt lat="47.8389" lon="2.18116">
        <ele>98</ele>
        <time>2017-05-07T09:38:06.357Z</time>
      </trkpt>
      <trkpt lat="47.83877" lon="2.18113">
        <ele>98</ele>
        <time>2017-05-07T09:38:07.364Z</time>
      </trkpt>
      <trkpt lat="47.83877" lon="2.18113">
        <ele>98</ele>
        <time>2017-05-07T09:38:08.357Z</time>
      </trkpt>
      <trkpt lat="47.83864" lon="2.18111">
        <ele>98</ele>
        <time>2017-05-07T09:38:09.362Z</time>
      </trkpt>
      <trkpt lat="47.83864" lon="2.18111">
        <ele>98</ele>
        <time>2017-05-07T09:38:10.358Z</time>
      </trkpt>
      <trkpt lat="47.83851" lon="2.18108">
        <ele>98</ele>
        <time>2017-05-07T09:38:11.364Z</time>
      </trkpt>
      <trkpt lat="47.83851" lon="2.18108">
        <ele>98</ele>
        <time>2017-05-07T09:38:12.357Z</time>
      </trkpt>
      <trkpt lat="47.83839" lon="2.18106">
        <ele>98</ele>
        <time>2017-05-07T09:38:13.361Z</time>
      </trkpt>
      <trkpt lat="47.83839" lon="2.18106">
        <ele>98</ele>
        <time>2017-05-07T09:38:14.357Z</time>
      </trkpt>
      <trkpt lat="47.83826" lon="2.18103">
        <ele>98</ele>
        <time>2017-05-07T09:38:15.361Z</time>
      </trkpt>
      <trkpt lat="47.83826" lon="2.18103">
        <ele>98</ele>
        <time>2017-05-07T09:38:16.357Z</time>
      </trkpt>
      <trkpt lat="47.83814" lon="2.181">
        <ele>98</ele>
        <time>2017-05-07T09:38:17.363Z</time>
      </trkpt>
      <trkpt lat="47.83814" lon="2.181">
        <ele>98</ele>
        <time>2017-05-07T09:38:18.358Z</time>
      </trkpt>
      <trkpt lat="47.83801" lon="2.18095">
        <ele>98</ele>
        <time>2017-05-07T09:38:19.362Z</time>
      </trkpt>
      <trkpt lat="47.83801" lon="2.18095">
        <ele>98</ele>
        <time>2017-05-07T09:38:20.360Z</time>
      </trkpt>
      <trkpt lat="47.83788" lon="2.18092">
        <ele>98</ele>
        <time>2017-05-07T09:38:21.361Z</time>
      </trkpt>
      <trkpt lat="47.83788" lon="2.18092">
        <ele>98</ele>
        <time>2017-05-07T09:38:22.388Z</time>
      </trkpt>
      <trkpt lat="47.83775" lon="2.18088">
        <ele>98</ele>
        <time>2017-05-07T09:38:23.378Z</time>
      </trkpt>
      <trkpt lat="47.83775" lon="2.18088">
        <ele>98</ele>
        <time>2017-05-07T09:38:24.366Z</time>
      </trkpt>
      <trkpt lat="47.83762" lon="2.18084">
        <ele>98</ele>
        <time>2017-05-07T09:38:25.363Z</time>
      </trkpt>
      <trkpt lat="47.83762" lon="2.18084">
        <ele>98</ele>
        <time>2017-05-07T09:38:26.357Z</time>
      </trkpt>
      <trkpt lat="47.83749" lon="2.1808">
        <ele>98</ele>
        <time>2017-05-07T09:38:27.363Z</time>
      </trkpt>
      <trkpt lat="47.83743" lon="2.18078">
        <ele>98</ele>
        <time>2017-05-07T09:38:28.363Z</time>
      </trkpt>
      <trkpt lat="47.83743" lon="2.18078">
        <ele>98</ele>
        <time>2017-05-07T09:38:29.358Z</time>
      </trkpt>
      <trkpt lat="47.8373" lon="2.18074">
        <ele>99</ele>
        <time>2017-05-07T09:38:30.362Z</time>
      </trkpt>
      <trkpt lat="47.8373" lon="2.18074">
        <ele>99</ele>
        <time>2017-05-07T09:38:31.358Z</time>
      </trkpt>
      <trkpt lat="47.83717" lon="2.1807">
        <ele>99</ele>
        <time>2017-05-07T09:38:32.362Z</time>
      </trkpt>
      <trkpt lat="47.8371" lon="2.18068">
        <ele>99</ele>
        <time>2017-05-07T09:38:33.362Z</time>
      </trkpt>
      <trkpt lat="47.8371" lon="2.18068">
        <ele>99</ele>
        <time>2017-05-07T09:38:34.364Z</time>
      </trkpt>
      <trkpt lat="47.83697" lon="2.18064">
        <ele>99</ele>
        <time>2017-05-07T09:38:35.362Z</time>
      </trkpt>
      <trkpt lat="47.83697" lon="2.18064">
        <ele>99</ele>
        <time>2017-05-07T09:38:36.357Z</time>
      </trkpt>
      <trkpt lat="47.83683" lon="2.18061">
        <ele>98</ele>
        <time>2017-05-07T09:38:37.363Z</time>
      </trkpt>
      <trkpt lat="47.83683" lon="2.18061">
        <ele>98</ele>
        <time>2017-05-07T09:38:38.357Z</time>
      </trkpt>
      <trkpt lat="47.8367" lon="2.18057">
        <ele>98</ele>
        <time>2017-05-07T09:38:39.360Z</time>
      </trkpt>
      <trkpt lat="47.83663" lon="2.18055">
        <ele>98</ele>
        <time>2017-05-07T09:38:40.363Z</time>
      </trkpt>
      <trkpt lat="47.83663" lon="2.18055">
        <ele>98</ele>
        <time>2017-05-07T09:38:41.359Z</time>
      </trkpt>
      <trkpt lat="47.83649" lon="2.18051">
        <ele>98</ele>
        <time>2017-05-07T09:38:42.368Z</time>
      </trkpt>
      <trkpt lat="47.83649" lon="2.18051">
        <ele>98</ele>
        <time>2017-05-07T09:38:43.358Z</time>
      </trkpt>
      <trkpt lat="47.83636" lon="2.18047">
        <ele>98</ele>
        <time>2017-05-07T09:38:44.362Z</time>
      </trkpt>
      <trkpt lat="47.83636" lon="2.18047">
        <ele>98</ele>
        <time>2017-05-07T09:38:45.360Z</time>
      </trkpt>
      <trkpt lat="47.83623" lon="2.18043">
        <ele>98</ele>
        <time>2017-05-07T09:38:46.369Z</time>
      </trkpt>
      <trkpt lat="47.83616" lon="2.18041">
        <ele>98</ele>
        <time>2017-05-07T09:38:47.363Z</time>
      </trkpt>
      <trkpt lat="47.83616" lon="2.18041">
        <ele>98</ele>
        <time>2017-05-07T09:38:48.356Z</time>
      </trkpt>
      <trkpt lat="47.83603" lon="2.18037">
        <ele>98</ele>
        <time>2017-05-07T09:38:49.393Z</time>
      </trkpt>
      <trkpt lat="47.83597" lon="2.18035">
        <ele>98</ele>
        <time>2017-05-07T09:38:50.380Z</time>
      </trkpt>
      <trkpt lat="47.83597" lon="2.18035">
        <ele>98</ele>
        <time>2017-05-07T09:38:51.369Z</time>
      </trkpt>
      <trkpt lat="47.83585" lon="2.1803">
        <ele>98</ele>
        <time>2017-05-07T09:38:52.362Z</time>
      </trkpt>
      <trkpt lat="47.83585" lon="2.1803">
        <ele>98</ele>
        <time>2017-05-07T09:38:53.363Z</time>
      </trkpt>
      <trkpt lat="47.83572" lon="2.18025">
        <ele>98</ele>
        <time>2017-05-07T09:38:54.383Z</time>
      </trkpt>
      <trkpt lat="47.83572" lon="2.18025">
        <ele>98</ele>
        <time>2017-05-07T09:38:55.373Z</time>
      </trkpt>
      <trkpt lat="47.8356" lon="2.18019">
        <ele>98</ele>
        <time>2017-05-07T09:38:56.368Z</time>
      </trkpt>
      <trkpt lat="47.8356" lon="2.18019">
        <ele>98</ele>
        <time>2017-05-07T09:38:57.367Z</time>
      </trkpt>
      <trkpt lat="47.83547" lon="2.18012">
        <ele>98</ele>
        <time>2017-05-07T09:38:58.363Z</time>
      </trkpt>
      <trkpt lat="47.83541" lon="2.18009">
        <ele>98</ele>
        <time>2017-05-07T09:38:59.379Z</time>
      </trkpt>
      <trkpt lat="47.83541" lon="2.18009">
        <ele>98</ele>
        <time>2017-05-07T09:39:00.378Z</time>
      </trkpt>
      <trkpt lat="47.83529" lon="2.18001">
        <ele>98</ele>
        <time>2017-05-07T09:39:01.384Z</time>
      </trkpt>
      <trkpt lat="47.83529" lon="2.18001">
        <ele>98</ele>
        <time>2017-05-07T09:39:02.390Z</time>
      </trkpt>
      <trkpt lat="47.83516" lon="2.17995">
        <ele>98</ele>
        <time>2017-05-07T09:39:03.359Z</time>
      </trkpt>
      <trkpt lat="47.8351" lon="2.17992">
        <ele>98</ele>
        <time>2017-05-07T09:39:04.363Z</time>
      </trkpt>
      <trkpt lat="47.8351" lon="2.17992">
        <ele>98</ele>
        <time>2017-05-07T09:39:05.360Z</time>
      </trkpt>
      <trkpt lat="47.83497" lon="2.1799">
        <ele>98</ele>
        <time>2017-05-07T09:39:06.360Z</time>
      </trkpt>
      <trkpt lat="47.8349" lon="2.17988">
        <ele>98</ele>
        <time>2017-05-07T09:39:07.363Z</time>
      </trkpt>
      <trkpt lat="47.83484" lon="2.17986">
        <ele>98</ele>
        <time>2017-05-07T09:39:08.364Z</time>
      </trkpt>
      <trkpt lat="47.83479" lon="2.17986">
        <ele>98</ele>
        <time>2017-05-07T09:39:09.362Z</time>
      </trkpt>
      <trkpt lat="47.83479" lon="2.17986">
        <ele>98</ele>
        <time>2017-05-07T09:39:10.360Z</time>
      </trkpt>
      <trkpt lat="47.83469" lon="2.17984">
        <ele>98</ele>
        <time>2017-05-07T09:39:11.364Z</time>
      </trkpt>
      <trkpt lat="47.83469" lon="2.17984">
        <ele>98</ele>
        <time>2017-05-07T09:39:12.358Z</time>
      </trkpt>
      <trkpt lat="47.83456" lon="2.17979">
        <ele>98</ele>
        <time>2017-05-07T09:39:13.375Z</time>
      </trkpt>
      <trkpt lat="47.83456" lon="2.17979">
        <ele>98</ele>
        <time>2017-05-07T09:39:14.364Z</time>
      </trkpt>
      <trkpt lat="47.83443" lon="2.17973">
        <ele>99</ele>
        <time>2017-05-07T09:39:15.362Z</time>
      </trkpt>
      <trkpt lat="47.83443" lon="2.17973">
        <ele>99</ele>
        <time>2017-05-07T09:39:16.360Z</time>
      </trkpt>
      <trkpt lat="47.8343" lon="2.17966">
        <ele>98</ele>
        <time>2017-05-07T09:39:17.364Z</time>
      </trkpt>
      <trkpt lat="47.83423" lon="2.17963">
        <ele>98</ele>
        <time>2017-05-07T09:39:18.363Z</time>
      </trkpt>
      <trkpt lat="47.83423" lon="2.17963">
        <ele>98</ele>
        <time>2017-05-07T09:39:19.358Z</time>
      </trkpt>
      <trkpt lat="47.8341" lon="2.17958">
        <ele>98</ele>
        <time>2017-05-07T09:39:20.363Z</time>
      </trkpt>
      <trkpt lat="47.8341" lon="2.17958">
        <ele>98</ele>
        <time>2017-05-07T09:39:21.360Z</time>
      </trkpt>
      <trkpt lat="47.83395" lon="2.17954">
        <ele>98</ele>
        <time>2017-05-07T09:39:22.363Z</time>
      </trkpt>
      <trkpt lat="47.83395" lon="2.17954">
        <ele>98</ele>
        <time>2017-05-07T09:39:23.369Z</time>
      </trkpt>
      <trkpt lat="47.83381" lon="2.17953">
        <ele>98</ele>
        <time>2017-05-07T09:39:24.360Z</time>
      </trkpt>
      <trkpt lat="47.83374" lon="2.17953">
        <ele>98</ele>
        <time>2017-05-07T09:39:25.364Z</time>
      </trkpt>
      <trkpt lat="47.83366" lon="2.17952">
        <ele>98</ele>
        <time>2017-05-07T09:39:26.362Z</time>
      </trkpt>
      <trkpt lat="47.83359" lon="2.17952">
        <ele>98</ele>
        <time>2017-05-07T09:39:27.363Z</time>
      </trkpt>
      <trkpt lat="47.83359" lon="2.17952">
        <ele>98</ele>
        <time>2017-05-07T09:39:28.361Z</time>
      </trkpt>
      <trkpt lat="47.83344" lon="2.1795">
        <ele>98</ele>
        <time>2017-05-07T09:39:29.364Z</time>
      </trkpt>
      <trkpt lat="47.83337" lon="2.17948">
        <ele>98</ele>
        <time>2017-05-07T09:39:30.390Z</time>
      </trkpt>
      <trkpt lat="47.83337" lon="2.17948">
        <ele>98</ele>
        <time>2017-05-07T09:39:31.357Z</time>
      </trkpt>
      <trkpt lat="47.83324" lon="2.17941">
        <ele>99</ele>
        <time>2017-05-07T09:39:32.361Z</time>
      </trkpt>
      <trkpt lat="47.83324" lon="2.17941">
        <ele>99</ele>
        <time>2017-05-07T09:39:33.359Z</time>
      </trkpt>
      <trkpt lat="47.83312" lon="2.17928">
        <ele>99</ele>
        <time>2017-05-07T09:39:34.378Z</time>
      </trkpt>
      <trkpt lat="47.83312" lon="2.17928">
        <ele>99</ele>
        <time>2017-05-07T09:39:35.365Z</time>
      </trkpt>
      <trkpt lat="47.83304" lon="2.17912">
        <ele>100</ele>
        <time>2017-05-07T09:39:36.363Z</time>
      </trkpt>
      <trkpt lat="47.83304" lon="2.17912">
        <ele>100</ele>
        <time>2017-05-07T09:39:37.390Z</time>
      </trkpt>
      <trkpt lat="47.83299" lon="2.17894">
        <ele>99</ele>
        <time>2017-05-07T09:39:38.383Z</time>
      </trkpt>
      <trkpt lat="47.83296" lon="2.17885">
        <ele>99</ele>
        <time>2017-05-07T09:39:39.375Z</time>
      </trkpt>
      <trkpt lat="47.83296" lon="2.17885">
        <ele>99</ele>
        <time>2017-05-07T09:39:40.363Z</time>
      </trkpt>
      <trkpt lat="47.83291" lon="2.17872">
        <ele>100</ele>
        <time>2017-05-07T09:39:41.378Z</time>
      </trkpt>
      <trkpt lat="47.83287" lon="2.17868">
        <ele>100</ele>
        <time>2017-05-07T09:39:42.369Z</time>
      </trkpt>
      <trkpt lat="47.83287" lon="2.17868">
        <ele>100</ele>
        <time>2017-05-07T09:39:43.361Z</time>
      </trkpt>
      <trkpt lat="47.83276" lon="2.17867">
        <ele>101</ele>
        <time>2017-05-07T09:39:44.362Z</time>
      </trkpt>
      <trkpt lat="47.83276" lon="2.17867">
        <ele>101</ele>
        <time>2017-05-07T09:39:45.357Z</time>
      </trkpt>
      <trkpt lat="47.83263" lon="2.17871">
        <ele>101</ele>
        <time>2017-05-07T09:39:46.363Z</time>
      </trkpt>
      <trkpt lat="47.83263" lon="2.17871">
        <ele>101</ele>
        <time>2017-05-07T09:39:47.359Z</time>
      </trkpt>
      <trkpt lat="47.83249" lon="2.17872">
        <ele>102</ele>
        <time>2017-05-07T09:39:48.355Z</time>
      </trkpt>
      <trkpt lat="47.83249" lon="2.17872">
        <ele>102</ele>
        <time>2017-05-07T09:39:49.359Z</time>
      </trkpt>
      <trkpt lat="47.83236" lon="2.17867">
        <ele>102</ele>
        <time>2017-05-07T09:39:50.367Z</time>
      </trkpt>
      <trkpt lat="47.83229" lon="2.17864">
        <ele>102</ele>
        <time>2017-05-07T09:39:51.363Z</time>
      </trkpt>
      <trkpt lat="47.83229" lon="2.17864">
        <ele>102</ele>
        <time>2017-05-07T09:39:52.361Z</time>
      </trkpt>
      <trkpt lat="47.83216" lon="2.17856">
        <ele>102</ele>
        <time>2017-05-07T09:39:53.369Z</time>
      </trkpt>
      <trkpt lat="47.8321" lon="2.17852">
        <ele>103</ele>
        <time>2017-05-07T09:39:54.364Z</time>
      </trkpt>
      <trkpt lat="47.83204" lon="2.17847">
        <ele>103</ele>
        <time>2017-05-07T09:39:55.364Z</time>
      </trkpt>
      <trkpt lat="47.83204" lon="2.17847">
        <ele>103</ele>
        <time>2017-05-07T09:39:56.361Z</time>
      </trkpt>
      <trkpt lat="47.83192" lon="2.17838">
        <ele>103</ele>
        <time>2017-05-07T09:39:57.363Z</time>
      </trkpt>
      <trkpt lat="47.83185" lon="2.17833">
        <ele>103</ele>
        <time>2017-05-07T09:39:58.372Z</time>
      </trkpt>
      <trkpt lat="47.83185" lon="2.17833">
        <ele>103</ele>
        <time>2017-05-07T09:39:59.375Z</time>
      </trkpt>
      <trkpt lat="47.83172" lon="2.17825">
        <ele>104</ele>
        <time>2017-05-07T09:40:00.357Z</time>
      </trkpt>
      <trkpt lat="47.83166" lon="2.17819">
        <ele>104</ele>
        <time>2017-05-07T09:40:01.363Z</time>
      </trkpt>
      <trkpt lat="47.83166" lon="2.17819">
        <ele>104</ele>
        <time>2017-05-07T09:40:02.369Z</time>
      </trkpt>
      <trkpt lat="47.83155" lon="2.17808">
        <ele>104</ele>
        <time>2017-05-07T09:40:03.376Z</time>
      </trkpt>
      <trkpt lat="47.8315" lon="2.17802">
        <ele>104</ele>
        <time>2017-05-07T09:40:04.365Z</time>
      </trkpt>
      <trkpt lat="47.8315" lon="2.17802">
        <ele>104</ele>
        <time>2017-05-07T09:40:05.360Z</time>
      </trkpt>
      <trkpt lat="47.83139" lon="2.1779">
        <ele>104</ele>
        <time>2017-05-07T09:40:06.379Z</time>
      </trkpt>
      <trkpt lat="47.83139" lon="2.1779">
        <ele>104</ele>
        <time>2017-05-07T09:40:07.366Z</time>
      </trkpt>
      <trkpt lat="47.83128" lon="2.17777">
        <ele>104</ele>
        <time>2017-05-07T09:40:08.364Z</time>
      </trkpt>
      <trkpt lat="47.83123" lon="2.1777">
        <ele>104</ele>
        <time>2017-05-07T09:40:09.364Z</time>
      </trkpt>
      <trkpt lat="47.83119" lon="2.17762">
        <ele>103</ele>
        <time>2017-05-07T09:40:10.363Z</time>
      </trkpt>
      <trkpt lat="47.83119" lon="2.17762">
        <ele>103</ele>
        <time>2017-05-07T09:40:11.360Z</time>
      </trkpt>
      <trkpt lat="47.83109" lon="2.17745">
        <ele>103</ele>
        <time>2017-05-07T09:40:12.363Z</time>
      </trkpt>
      <trkpt lat="47.83109" lon="2.17745">
        <ele>103</ele>
        <time>2017-05-07T09:40:13.360Z</time>
      </trkpt>
      <trkpt lat="47.831" lon="2.17728">
        <ele>102</ele>
        <time>2017-05-07T09:40:14.364Z</time>
      </trkpt>
      <trkpt lat="47.831" lon="2.17728">
        <ele>102</ele>
        <time>2017-05-07T09:40:15.364Z</time>
      </trkpt>
      <trkpt lat="47.83091" lon="2.17709">
        <ele>101</ele>
        <time>2017-05-07T09:40:16.363Z</time>
      </trkpt>
      <trkpt lat="47.83091" lon="2.17709">
        <ele>101</ele>
        <time>2017-05-07T09:40:17.360Z</time>
      </trkpt>
      <trkpt lat="47.83083" lon="2.17689">
        <ele>100</ele>
        <time>2017-05-07T09:40:18.360Z</time>
      </trkpt>
      <trkpt lat="47.8308" lon="2.17678">
        <ele>100</ele>
        <time>2017-05-07T09:40:19.362Z</time>
      </trkpt>
      <trkpt lat="47.8308" lon="2.17678">
        <ele>100</ele>
        <time>2017-05-07T09:40:20.355Z</time>
      </trkpt>
      <trkpt lat="47.83075" lon="2.17657">
        <ele>100</ele>
        <time>2017-05-07T09:40:21.361Z</time>
      </trkpt>
      <trkpt lat="47.83075" lon="2.17657">
        <ele>100</ele>
        <time>2017-05-07T09:40:22.369Z</time>
      </trkpt>
      <trkpt lat="47.83066" lon="2.17638">
        <ele>99</ele>
        <time>2017-05-07T09:40:23.381Z</time>
      </trkpt>
      <trkpt lat="47.83066" lon="2.17638">
        <ele>99</ele>
        <time>2017-05-07T09:40:24.372Z</time>
      </trkpt>
      <trkpt lat="47.83052" lon="2.17626">
        <ele>98</ele>
        <time>2017-05-07T09:40:25.363Z</time>
      </trkpt>
      <trkpt lat="47.83052" lon="2.17626">
        <ele>98</ele>
        <time>2017-05-07T09:40:26.358Z</time>
      </trkpt>
      <trkpt lat="47.83037" lon="2.17621">
        <ele>98</ele>
        <time>2017-05-07T09:40:27.363Z</time>
      </trkpt>
      <trkpt lat="47.83037" lon="2.17621">
        <ele>98</ele>
        <time>2017-05-07T09:40:28.361Z</time>
      </trkpt>
      <trkpt lat="47.83021" lon="2.17617">
        <ele>97</ele>
        <time>2017-05-07T09:40:29.370Z</time>
      </trkpt>
      <trkpt lat="47.83021" lon="2.17617">
        <ele>97</ele>
        <time>2017-05-07T09:40:30.389Z</time>
      </trkpt>
      <trkpt lat="47.83005" lon="2.17615">
        <ele>96</ele>
        <time>2017-05-07T09:40:31.378Z</time>
      </trkpt>
      <trkpt lat="47.82997" lon="2.17614">
        <ele>96</ele>
        <time>2017-05-07T09:40:32.369Z</time>
      </trkpt>
      <trkpt lat="47.82988" lon="2.17612">
        <ele>95</ele>
        <time>2017-05-07T09:40:33.363Z</time>
      </trkpt>
      <trkpt lat="47.82988" lon="2.17612">
        <ele>95</ele>
        <time>2017-05-07T09:40:34.371Z</time>
      </trkpt>
      <trkpt lat="47.82972" lon="2.1761">
        <ele>95</ele>
        <time>2017-05-07T09:40:35.366Z</time>
      </trkpt>
      <trkpt lat="47.82972" lon="2.1761">
        <ele>95</ele>
        <time>2017-05-07T09:40:36.361Z</time>
      </trkpt>
      <trkpt lat="47.82955" lon="2.17606">
        <ele>95</ele>
        <time>2017-05-07T09:40:37.371Z</time>
      </trkpt>
      <trkpt lat="47.82947" lon="2.17602">
        <ele>94</ele>
        <time>2017-05-07T09:40:38.364Z</time>
      </trkpt>
      <trkpt lat="47.82947" lon="2.17602">
        <ele>94</ele>
        <time>2017-05-07T09:40:39.360Z</time>
      </trkpt>
      <trkpt lat="47.82932" lon="2.17595">
        <ele>94</ele>
        <time>2017-05-07T09:40:40.361Z</time>
      </trkpt>
      <trkpt lat="47.82925" lon="2.17592">
        <ele>94</ele>
        <time>2017-05-07T09:40:41.367Z</time>
      </trkpt>
      <trkpt lat="47.82925" lon="2.17592">
        <ele>94</ele>
        <time>2017-05-07T09:40:42.358Z</time>
      </trkpt>
      <trkpt lat="47.8291" lon="2.17585">
        <ele>95</ele>
        <time>2017-05-07T09:40:43.363Z</time>
      </trkpt>
      <trkpt lat="47.82904" lon="2.17582">
        <ele>95</ele>
        <time>2017-05-07T09:40:44.361Z</time>
      </trkpt>
      <trkpt lat="47.82897" lon="2.17578">
        <ele>95</ele>
        <time>2017-05-07T09:40:45.362Z</time>
      </trkpt>
      <trkpt lat="47.82897" lon="2.17578">
        <ele>95</ele>
        <time>2017-05-07T09:40:46.358Z</time>
      </trkpt>
      <trkpt lat="47.82884" lon="2.17572">
        <ele>95</ele>
        <time>2017-05-07T09:40:47.370Z</time>
      </trkpt>
      <trkpt lat="47.82884" lon="2.17572">
        <ele>95</ele>
        <time>2017-05-07T09:40:48.358Z</time>
      </trkpt>
      <trkpt lat="47.82872" lon="2.17565">
        <ele>96</ele>
        <time>2017-05-07T09:40:49.363Z</time>
      </trkpt>
      <trkpt lat="47.82872" lon="2.17565">
        <ele>96</ele>
        <time>2017-05-07T09:40:50.356Z</time>
      </trkpt>
      <trkpt lat="47.82861" lon="2.17558">
        <ele>96</ele>
        <time>2017-05-07T09:40:51.362Z</time>
      </trkpt>
      <trkpt lat="47.82861" lon="2.17558">
        <ele>96</ele>
        <time>2017-05-07T09:40:52.359Z</time>
      </trkpt>
      <trkpt lat="47.82851" lon="2.1755">
        <ele>97</ele>
        <time>2017-05-07T09:40:53.366Z</time>
      </trkpt>
      <trkpt lat="47.82851" lon="2.1755">
        <ele>97</ele>
        <time>2017-05-07T09:40:54.358Z</time>
      </trkpt>
      <trkpt lat="47.82842" lon="2.17543">
        <ele>97</ele>
        <time>2017-05-07T09:40:55.364Z</time>
      </trkpt>
      <trkpt lat="47.82842" lon="2.17543">
        <ele>97</ele>
        <time>2017-05-07T09:40:56.358Z</time>
      </trkpt>
      <trkpt lat="47.82833" lon="2.17536">
        <ele>97</ele>
        <time>2017-05-07T09:40:57.362Z</time>
      </trkpt>
      <trkpt lat="47.82833" lon="2.17536">
        <ele>97</ele>
        <time>2017-05-07T09:40:58.359Z</time>
      </trkpt>
      <trkpt lat="47.82824" lon="2.17528">
        <ele>97</ele>
        <time>2017-05-07T09:40:59.390Z</time>
      </trkpt>
      <trkpt lat="47.82824" lon="2.17528">
        <ele>97</ele>
        <time>2017-05-07T09:41:00.370Z</time>
      </trkpt>
      <trkpt lat="47.82816" lon="2.17517">
        <ele>97</ele>
        <time>2017-05-07T09:41:01.363Z</time>
      </trkpt>
      <trkpt lat="47.82816" lon="2.17517">
        <ele>97</ele>
        <time>2017-05-07T09:41:02.358Z</time>
      </trkpt>
      <trkpt lat="47.82808" lon="2.17507">
        <ele>97</ele>
        <time>2017-05-07T09:41:03.365Z</time>
      </trkpt>
      <trkpt lat="47.82808" lon="2.17507">
        <ele>97</ele>
        <time>2017-05-07T09:41:04.359Z</time>
      </trkpt>
      <trkpt lat="47.82799" lon="2.17495">
        <ele>97</ele>
        <time>2017-05-07T09:41:05.373Z</time>
      </trkpt>
      <trkpt lat="47.82799" lon="2.17495">
        <ele>97</ele>
        <time>2017-05-07T09:41:06.361Z</time>
      </trkpt>
      <trkpt lat="47.82792" lon="2.17483">
        <ele>97</ele>
        <time>2017-05-07T09:41:07.363Z</time>
      </trkpt>
      <trkpt lat="47.82792" lon="2.17483">
        <ele>97</ele>
        <time>2017-05-07T09:41:08.358Z</time>
      </trkpt>
      <trkpt lat="47.82784" lon="2.17472">
        <ele>97</ele>
        <time>2017-05-07T09:41:09.363Z</time>
      </trkpt>
      <trkpt lat="47.82784" lon="2.17472">
        <ele>97</ele>
        <time>2017-05-07T09:41:10.365Z</time>
      </trkpt>
      <trkpt lat="47.82777" lon="2.1746">
        <ele>97</ele>
        <time>2017-05-07T09:41:11.367Z</time>
      </trkpt>
      <trkpt lat="47.82777" lon="2.1746">
        <ele>97</ele>
        <time>2017-05-07T09:41:12.358Z</time>
      </trkpt>
      <trkpt lat="47.82771" lon="2.17446">
        <ele>98</ele>
        <time>2017-05-07T09:41:13.363Z</time>
      </trkpt>
      <trkpt lat="47.82771" lon="2.17446">
        <ele>98</ele>
        <time>2017-05-07T09:41:14.358Z</time>
      </trkpt>
      <trkpt lat="47.82765" lon="2.17432">
        <ele>97</ele>
        <time>2017-05-07T09:41:15.383Z</time>
      </trkpt>
      <trkpt lat="47.82765" lon="2.17432">
        <ele>97</ele>
        <time>2017-05-07T09:41:16.357Z</time>
      </trkpt>
      <trkpt lat="47.8276" lon="2.17416">
        <ele>97</ele>
        <time>2017-05-07T09:41:17.372Z</time>
      </trkpt>
      <trkpt lat="47.8276" lon="2.17416">
        <ele>97</ele>
        <time>2017-05-07T09:41:18.361Z</time>
      </trkpt>
      <trkpt lat="47.82755" lon="2.17401">
        <ele>97</ele>
        <time>2017-05-07T09:41:19.361Z</time>
      </trkpt>
      <trkpt lat="47.82755" lon="2.17401">
        <ele>97</ele>
        <time>2017-05-07T09:41:20.361Z</time>
      </trkpt>
      <trkpt lat="47.82752" lon="2.17385">
        <ele>97</ele>
        <time>2017-05-07T09:41:21.372Z</time>
      </trkpt>
      <trkpt lat="47.82752" lon="2.17385">
        <ele>97</ele>
        <time>2017-05-07T09:41:22.360Z</time>
      </trkpt>
      <trkpt lat="47.82748" lon="2.1737">
        <ele>97</ele>
        <time>2017-05-07T09:41:23.365Z</time>
      </trkpt>
      <trkpt lat="47.82748" lon="2.1737">
        <ele>97</ele>
        <time>2017-05-07T09:41:24.358Z</time>
      </trkpt>
      <trkpt lat="47.82745" lon="2.17353">
        <ele>97</ele>
        <time>2017-05-07T09:41:25.365Z</time>
      </trkpt>
      <trkpt lat="47.82745" lon="2.17353">
        <ele>97</ele>
        <time>2017-05-07T09:41:26.355Z</time>
      </trkpt>
      <trkpt lat="47.82742" lon="2.17336">
        <ele>97</ele>
        <time>2017-05-07T09:41:27.363Z</time>
      </trkpt>
      <trkpt lat="47.82742" lon="2.17336">
        <ele>97</ele>
        <time>2017-05-07T09:41:28.378Z</time>
      </trkpt>
      <trkpt lat="47.82739" lon="2.17318">
        <ele>97</ele>
        <time>2017-05-07T09:41:29.368Z</time>
      </trkpt>
      <trkpt lat="47.82739" lon="2.17318">
        <ele>97</ele>
        <time>2017-05-07T09:41:30.364Z</time>
      </trkpt>
      <trkpt lat="47.82734" lon="2.173">
        <ele>96</ele>
        <time>2017-05-07T09:41:31.364Z</time>
      </trkpt>
      <trkpt lat="47.82734" lon="2.173">
        <ele>96</ele>
        <time>2017-05-07T09:41:32.359Z</time>
      </trkpt>
      <trkpt lat="47.82725" lon="2.17286">
        <ele>96</ele>
        <time>2017-05-07T09:41:33.365Z</time>
      </trkpt>
      <trkpt lat="47.82725" lon="2.17286">
        <ele>96</ele>
        <time>2017-05-07T09:41:34.371Z</time>
      </trkpt>
      <trkpt lat="47.82714" lon="2.17276">
        <ele>96</ele>
        <time>2017-05-07T09:41:35.364Z</time>
      </trkpt>
      <trkpt lat="47.82714" lon="2.17276">
        <ele>96</ele>
        <time>2017-05-07T09:41:36.394Z</time>
      </trkpt>
      <trkpt lat="47.82702" lon="2.17269">
        <ele>96</ele>
        <time>2017-05-07T09:41:37.363Z</time>
      </trkpt>
      <trkpt lat="47.82702" lon="2.17269">
        <ele>96</ele>
        <time>2017-05-07T09:41:38.362Z</time>
      </trkpt>
      <trkpt lat="47.82689" lon="2.17262">
        <ele>96</ele>
        <time>2017-05-07T09:41:39.363Z</time>
      </trkpt>
      <trkpt lat="47.82689" lon="2.17262">
        <ele>96</ele>
        <time>2017-05-07T09:41:40.361Z</time>
      </trkpt>
      <trkpt lat="47.82676" lon="2.17256">
        <ele>96</ele>
        <time>2017-05-07T09:41:41.364Z</time>
      </trkpt>
      <trkpt lat="47.82676" lon="2.17256">
        <ele>96</ele>
        <time>2017-05-07T09:41:42.358Z</time>
      </trkpt>
      <trkpt lat="47.82664" lon="2.17249">
        <ele>96</ele>
        <time>2017-05-07T09:41:43.364Z</time>
      </trkpt>
      <trkpt lat="47.82664" lon="2.17249">
        <ele>96</ele>
        <time>2017-05-07T09:41:44.358Z</time>
      </trkpt>
      <trkpt lat="47.82651" lon="2.17242">
        <ele>96</ele>
        <time>2017-05-07T09:41:45.364Z</time>
      </trkpt>
      <trkpt lat="47.82651" lon="2.17242">
        <ele>96</ele>
        <time>2017-05-07T09:41:46.358Z</time>
      </trkpt>
      <trkpt lat="47.82638" lon="2.17234">
        <ele>96</ele>
        <time>2017-05-07T09:41:47.367Z</time>
      </trkpt>
      <trkpt lat="47.82638" lon="2.17234">
        <ele>96</ele>
        <time>2017-05-07T09:41:48.366Z</time>
      </trkpt>
      <trkpt lat="47.82625" lon="2.17225">
        <ele>96</ele>
        <time>2017-05-07T09:41:49.360Z</time>
      </trkpt>
      <trkpt lat="47.82625" lon="2.17225">
        <ele>96</ele>
        <time>2017-05-07T09:41:50.364Z</time>
      </trkpt>
      <trkpt lat="47.82613" lon="2.17215">
        <ele>96</ele>
        <time>2017-05-07T09:41:51.363Z</time>
      </trkpt>
      <trkpt lat="47.82613" lon="2.17215">
        <ele>96</ele>
        <time>2017-05-07T09:41:52.358Z</time>
      </trkpt>
      <trkpt lat="47.82602" lon="2.17202">
        <ele>96</ele>
        <time>2017-05-07T09:41:53.385Z</time>
      </trkpt>
      <trkpt lat="47.82602" lon="2.17202">
        <ele>96</ele>
        <time>2017-05-07T09:41:54.375Z</time>
      </trkpt>
      <trkpt lat="47.82595" lon="2.17185">
        <ele>96</ele>
        <time>2017-05-07T09:41:55.364Z</time>
      </trkpt>
      <trkpt lat="47.82595" lon="2.17185">
        <ele>96</ele>
        <time>2017-05-07T09:41:56.359Z</time>
      </trkpt>
      <trkpt lat="47.82593" lon="2.17165">
        <ele>95</ele>
        <time>2017-05-07T09:41:57.388Z</time>
      </trkpt>
      <trkpt lat="47.82594" lon="2.17155">
        <ele>95</ele>
        <time>2017-05-07T09:41:58.356Z</time>
      </trkpt>
      <trkpt lat="47.82595" lon="2.17146">
        <ele>96</ele>
        <time>2017-05-07T09:41:59.373Z</time>
      </trkpt>
      <trkpt lat="47.82595" lon="2.17146">
        <ele>96</ele>
        <time>2017-05-07T09:42:00.394Z</time>
      </trkpt>
      <trkpt lat="47.82598" lon="2.17126">
        <ele>96</ele>
        <time>2017-05-07T09:42:01.359Z</time>
      </trkpt>
      <trkpt lat="47.82598" lon="2.17126">
        <ele>96</ele>
        <time>2017-05-07T09:42:02.367Z</time>
      </trkpt>
      <trkpt lat="47.826" lon="2.17105">
        <ele>95</ele>
        <time>2017-05-07T09:42:03.363Z</time>
      </trkpt>
      <trkpt lat="47.826" lon="2.17105">
        <ele>95</ele>
        <time>2017-05-07T09:42:04.358Z</time>
      </trkpt>
      <trkpt lat="47.82599" lon="2.17084">
        <ele>95</ele>
        <time>2017-05-07T09:42:05.367Z</time>
      </trkpt>
      <trkpt lat="47.82599" lon="2.17084">
        <ele>95</ele>
        <time>2017-05-07T09:42:06.358Z</time>
      </trkpt>
      <trkpt lat="47.82592" lon="2.17067">
        <ele>95</ele>
        <time>2017-05-07T09:42:07.364Z</time>
      </trkpt>
      <trkpt lat="47.82592" lon="2.17067">
        <ele>95</ele>
        <time>2017-05-07T09:42:08.361Z</time>
      </trkpt>
      <trkpt lat="47.8258" lon="2.17056">
        <ele>96</ele>
        <time>2017-05-07T09:42:09.364Z</time>
      </trkpt>
      <trkpt lat="47.8258" lon="2.17056">
        <ele>96</ele>
        <time>2017-05-07T09:42:10.359Z</time>
      </trkpt>
      <trkpt lat="47.82566" lon="2.1705">
        <ele>97</ele>
        <time>2017-05-07T09:42:11.366Z</time>
      </trkpt>
      <trkpt lat="47.82566" lon="2.1705">
        <ele>97</ele>
        <time>2017-05-07T09:42:12.355Z</time>
      </trkpt>
      <trkpt lat="47.82553" lon="2.17045">
        <ele>97</ele>
        <time>2017-05-07T09:42:13.363Z</time>
      </trkpt>
      <trkpt lat="47.82546" lon="2.17042">
        <ele>97</ele>
        <time>2017-05-07T09:42:14.363Z</time>
      </trkpt>
      <trkpt lat="47.82546" lon="2.17042">
        <ele>97</ele>
        <time>2017-05-07T09:42:15.359Z</time>
      </trkpt>
      <trkpt lat="47.82532" lon="2.17037">
        <ele>97</ele>
        <time>2017-05-07T09:42:16.361Z</time>
      </trkpt>
      <trkpt lat="47.82526" lon="2.17034">
        <ele>97</ele>
        <time>2017-05-07T09:42:17.382Z</time>
      </trkpt>
      <trkpt lat="47.82526" lon="2.17034">
        <ele>97</ele>
        <time>2017-05-07T09:42:18.372Z</time>
      </trkpt>
      <trkpt lat="47.82513" lon="2.17028">
        <ele>97</ele>
        <time>2017-05-07T09:42:19.362Z</time>
      </trkpt>
      <trkpt lat="47.82513" lon="2.17028">
        <ele>97</ele>
        <time>2017-05-07T09:42:20.356Z</time>
      </trkpt>
      <trkpt lat="47.825" lon="2.17021">
        <ele>98</ele>
        <time>2017-05-07T09:42:21.361Z</time>
      </trkpt>
      <trkpt lat="47.825" lon="2.17021">
        <ele>98</ele>
        <time>2017-05-07T09:42:22.355Z</time>
      </trkpt>
      <trkpt lat="47.82487" lon="2.17014">
        <ele>98</ele>
        <time>2017-05-07T09:42:23.366Z</time>
      </trkpt>
      <trkpt lat="47.82487" lon="2.17014">
        <ele>98</ele>
        <time>2017-05-07T09:42:24.359Z</time>
      </trkpt>
      <trkpt lat="47.82475" lon="2.17004">
        <ele>98</ele>
        <time>2017-05-07T09:42:25.358Z</time>
      </trkpt>
      <trkpt lat="47.82475" lon="2.17004">
        <ele>98</ele>
        <time>2017-05-07T09:42:26.358Z</time>
      </trkpt>
      <trkpt lat="47.82464" lon="2.16993">
        <ele>98</ele>
        <time>2017-05-07T09:42:27.363Z</time>
      </trkpt>
      <trkpt lat="47.82464" lon="2.16993">
        <ele>98</ele>
        <time>2017-05-07T09:42:28.359Z</time>
      </trkpt>
      <trkpt lat="47.82453" lon="2.16982">
        <ele>98</ele>
        <time>2017-05-07T09:42:29.366Z</time>
      </trkpt>
      <trkpt lat="47.82453" lon="2.16982">
        <ele>98</ele>
        <time>2017-05-07T09:42:30.358Z</time>
      </trkpt>
      <trkpt lat="47.82441" lon="2.1697">
        <ele>98</ele>
        <time>2017-05-07T09:42:31.361Z</time>
      </trkpt>
      <trkpt lat="47.82435" lon="2.16964">
        <ele>98</ele>
        <time>2017-05-07T09:42:32.364Z</time>
      </trkpt>
      <trkpt lat="47.82435" lon="2.16964">
        <ele>98</ele>
        <time>2017-05-07T09:42:33.365Z</time>
      </trkpt>
      <trkpt lat="47.82423" lon="2.16952">
        <ele>98</ele>
        <time>2017-05-07T09:42:34.373Z</time>
      </trkpt>
      <trkpt lat="47.82417" lon="2.16947">
        <ele>98</ele>
        <time>2017-05-07T09:42:35.367Z</time>
      </trkpt>
      <trkpt lat="47.82417" lon="2.16947">
        <ele>98</ele>
        <time>2017-05-07T09:42:36.358Z</time>
      </trkpt>
      <trkpt lat="47.82404" lon="2.16937">
        <ele>97</ele>
        <time>2017-05-07T09:42:37.371Z</time>
      </trkpt>
      <trkpt lat="47.82404" lon="2.16937">
        <ele>97</ele>
        <time>2017-05-07T09:42:38.361Z</time>
      </trkpt>
      <trkpt lat="47.8239" lon="2.16929">
        <ele>97</ele>
        <time>2017-05-07T09:42:39.364Z</time>
      </trkpt>
      <trkpt lat="47.8239" lon="2.16929">
        <ele>97</ele>
        <time>2017-05-07T09:42:40.355Z</time>
      </trkpt>
      <trkpt lat="47.82376" lon="2.16922">
        <ele>97</ele>
        <time>2017-05-07T09:42:41.383Z</time>
      </trkpt>
      <trkpt lat="47.8237" lon="2.16919">
        <ele>97</ele>
        <time>2017-05-07T09:42:42.383Z</time>
      </trkpt>
      <trkpt lat="47.8237" lon="2.16919">
        <ele>97</ele>
        <time>2017-05-07T09:42:43.372Z</time>
      </trkpt>
      <trkpt lat="47.82356" lon="2.16914">
        <ele>97</ele>
        <time>2017-05-07T09:42:44.363Z</time>
      </trkpt>
      <trkpt lat="47.82356" lon="2.16914">
        <ele>97</ele>
        <time>2017-05-07T09:42:45.369Z</time>
      </trkpt>
      <trkpt lat="47.82343" lon="2.16908">
        <ele>98</ele>
        <time>2017-05-07T09:42:46.364Z</time>
      </trkpt>
      <trkpt lat="47.82336" lon="2.16906">
        <ele>97</ele>
        <time>2017-05-07T09:42:47.367Z</time>
      </trkpt>
      <trkpt lat="47.82336" lon="2.16906">
        <ele>97</ele>
        <time>2017-05-07T09:42:48.359Z</time>
      </trkpt>
      <trkpt lat="47.82322" lon="2.16901">
        <ele>97</ele>
        <time>2017-05-07T09:42:49.372Z</time>
      </trkpt>
      <trkpt lat="47.82322" lon="2.16901">
        <ele>97</ele>
        <time>2017-05-07T09:42:50.364Z</time>
      </trkpt>
      <trkpt lat="47.82308" lon="2.16896">
        <ele>97</ele>
        <time>2017-05-07T09:42:51.362Z</time>
      </trkpt>
      <trkpt lat="47.82308" lon="2.16896">
        <ele>97</ele>
        <time>2017-05-07T09:42:52.360Z</time>
      </trkpt>
      <trkpt lat="47.82294" lon="2.16891">
        <ele>97</ele>
        <time>2017-05-07T09:42:53.361Z</time>
      </trkpt>
      <trkpt lat="47.82294" lon="2.16891">
        <ele>97</ele>
        <time>2017-05-07T09:42:54.357Z</time>
      </trkpt>
      <trkpt lat="47.8228" lon="2.16886">
        <ele>97</ele>
        <time>2017-05-07T09:42:55.365Z</time>
      </trkpt>
      <trkpt lat="47.8228" lon="2.16886">
        <ele>97</ele>
        <time>2017-05-07T09:42:56.358Z</time>
      </trkpt>
      <trkpt lat="47.82266" lon="2.16881">
        <ele>97</ele>
        <time>2017-05-07T09:42:57.363Z</time>
      </trkpt>
      <trkpt lat="47.82266" lon="2.16881">
        <ele>97</ele>
        <time>2017-05-07T09:42:58.359Z</time>
      </trkpt>
      <trkpt lat="47.82253" lon="2.16876">
        <ele>97</ele>
        <time>2017-05-07T09:42:59.392Z</time>
      </trkpt>
      <trkpt lat="47.82253" lon="2.16876">
        <ele>97</ele>
        <time>2017-05-07T09:43:00.359Z</time>
      </trkpt>
      <trkpt lat="47.82239" lon="2.16871">
        <ele>97</ele>
        <time>2017-05-07T09:43:01.366Z</time>
      </trkpt>
      <trkpt lat="47.82239" lon="2.16871">
        <ele>97</ele>
        <time>2017-05-07T09:43:02.372Z</time>
      </trkpt>
      <trkpt lat="47.82226" lon="2.16867">
        <ele>97</ele>
        <time>2017-05-07T09:43:03.364Z</time>
      </trkpt>
      <trkpt lat="47.82219" lon="2.16866">
        <ele>97</ele>
        <time>2017-05-07T09:43:04.361Z</time>
      </trkpt>
      <trkpt lat="47.82213" lon="2.16864">
        <ele>97</ele>
        <time>2017-05-07T09:43:05.367Z</time>
      </trkpt>
      <trkpt lat="47.82213" lon="2.16864">
        <ele>97</ele>
        <time>2017-05-07T09:43:06.369Z</time>
      </trkpt>
      <trkpt lat="47.822" lon="2.16862">
        <ele>97</ele>
        <time>2017-05-07T09:43:07.364Z</time>
      </trkpt>
      <trkpt lat="47.822" lon="2.16862">
        <ele>97</ele>
        <time>2017-05-07T09:43:08.360Z</time>
      </trkpt>
      <trkpt lat="47.82186" lon="2.1686">
        <ele>97</ele>
        <time>2017-05-07T09:43:09.363Z</time>
      </trkpt>
      <trkpt lat="47.8218" lon="2.1686">
        <ele>97</ele>
        <time>2017-05-07T09:43:10.363Z</time>
      </trkpt>
      <trkpt lat="47.82173" lon="2.16859">
        <ele>97</ele>
        <time>2017-05-07T09:43:11.365Z</time>
      </trkpt>
      <trkpt lat="47.82166" lon="2.16858">
        <ele>97</ele>
        <time>2017-05-07T09:43:12.364Z</time>
      </trkpt>
      <trkpt lat="47.82166" lon="2.16858">
        <ele>97</ele>
        <time>2017-05-07T09:43:13.359Z</time>
      </trkpt>
      <trkpt lat="47.82152" lon="2.16856">
        <ele>97</ele>
        <time>2017-05-07T09:43:14.363Z</time>
      </trkpt>
      <trkpt lat="47.82152" lon="2.16856">
        <ele>97</ele>
        <time>2017-05-07T09:43:15.359Z</time>
      </trkpt>
      <trkpt lat="47.82137" lon="2.16854">
        <ele>97</ele>
        <time>2017-05-07T09:43:16.367Z</time>
      </trkpt>
      <trkpt lat="47.8213" lon="2.16853">
        <ele>97</ele>
        <time>2017-05-07T09:43:17.366Z</time>
      </trkpt>
      <trkpt lat="47.8213" lon="2.16853">
        <ele>97</ele>
        <time>2017-05-07T09:43:18.359Z</time>
      </trkpt>
      <trkpt lat="47.82115" lon="2.16851">
        <ele>97</ele>
        <time>2017-05-07T09:43:19.365Z</time>
      </trkpt>
      <trkpt lat="47.82115" lon="2.16851">
        <ele>97</ele>
        <time>2017-05-07T09:43:20.359Z</time>
      </trkpt>
      <trkpt lat="47.821" lon="2.1685">
        <ele>97</ele>
        <time>2017-05-07T09:43:21.364Z</time>
      </trkpt>
      <trkpt lat="47.821" lon="2.1685">
        <ele>97</ele>
        <time>2017-05-07T09:43:22.359Z</time>
      </trkpt>
      <trkpt lat="47.82086" lon="2.16848">
        <ele>97</ele>
        <time>2017-05-07T09:43:23.366Z</time>
      </trkpt>
      <trkpt lat="47.82086" lon="2.16848">
        <ele>97</ele>
        <time>2017-05-07T09:43:24.365Z</time>
      </trkpt>
      <trkpt lat="47.82071" lon="2.16846">
        <ele>97</ele>
        <time>2017-05-07T09:43:25.364Z</time>
      </trkpt>
      <trkpt lat="47.82071" lon="2.16846">
        <ele>97</ele>
        <time>2017-05-07T09:43:26.359Z</time>
      </trkpt>
      <trkpt lat="47.82056" lon="2.16843">
        <ele>97</ele>
        <time>2017-05-07T09:43:27.372Z</time>
      </trkpt>
      <trkpt lat="47.82048" lon="2.16842">
        <ele>97</ele>
        <time>2017-05-07T09:43:28.367Z</time>
      </trkpt>
      <trkpt lat="47.82048" lon="2.16842">
        <ele>97</ele>
        <time>2017-05-07T09:43:29.362Z</time>
      </trkpt>
      <trkpt lat="47.82033" lon="2.16839">
        <ele>97</ele>
        <time>2017-05-07T09:43:30.364Z</time>
      </trkpt>
      <trkpt lat="47.82033" lon="2.16839">
        <ele>97</ele>
        <time>2017-05-07T09:43:31.359Z</time>
      </trkpt>
      <trkpt lat="47.82017" lon="2.16836">
        <ele>97</ele>
        <time>2017-05-07T09:43:32.364Z</time>
      </trkpt>
      <trkpt lat="47.82017" lon="2.16836">
        <ele>97</ele>
        <time>2017-05-07T09:43:33.359Z</time>
      </trkpt>
      <trkpt lat="47.82003" lon="2.16833">
        <ele>97</ele>
        <time>2017-05-07T09:43:34.372Z</time>
      </trkpt>
      <trkpt lat="47.81995" lon="2.16832">
        <ele>97</ele>
        <time>2017-05-07T09:43:35.368Z</time>
      </trkpt>
      <trkpt lat="47.81995" lon="2.16832">
        <ele>97</ele>
        <time>2017-05-07T09:43:36.359Z</time>
      </trkpt>
      <trkpt lat="47.8198" lon="2.16828">
        <ele>97</ele>
        <time>2017-05-07T09:43:37.364Z</time>
      </trkpt>
      <trkpt lat="47.8198" lon="2.16828">
        <ele>97</ele>
        <time>2017-05-07T09:43:38.359Z</time>
      </trkpt>
      <trkpt lat="47.81962" lon="2.16825">
        <ele>96</ele>
        <time>2017-05-07T09:43:39.364Z</time>
      </trkpt>
      <trkpt lat="47.81962" lon="2.16825">
        <ele>96</ele>
        <time>2017-05-07T09:43:40.359Z</time>
      </trkpt>
      <trkpt lat="47.81943" lon="2.16821">
        <ele>97</ele>
        <time>2017-05-07T09:43:41.366Z</time>
      </trkpt>
      <trkpt lat="47.81943" lon="2.16821">
        <ele>97</ele>
        <time>2017-05-07T09:43:42.359Z</time>
      </trkpt>
      <trkpt lat="47.81926" lon="2.16818">
        <ele>96</ele>
        <time>2017-05-07T09:43:43.365Z</time>
      </trkpt>
      <trkpt lat="47.81926" lon="2.16818">
        <ele>96</ele>
        <time>2017-05-07T09:43:44.359Z</time>
      </trkpt>
      <trkpt lat="47.81909" lon="2.16815">
        <ele>96</ele>
        <time>2017-05-07T09:43:45.365Z</time>
      </trkpt>
      <trkpt lat="47.81909" lon="2.16815">
        <ele>96</ele>
        <time>2017-05-07T09:43:46.359Z</time>
      </trkpt>
      <trkpt lat="47.81893" lon="2.16813">
        <ele>96</ele>
        <time>2017-05-07T09:43:47.364Z</time>
      </trkpt>
      <trkpt lat="47.81893" lon="2.16813">
        <ele>96</ele>
        <time>2017-05-07T09:43:48.359Z</time>
      </trkpt>
      <trkpt lat="47.81877" lon="2.1681">
        <ele>96</ele>
        <time>2017-05-07T09:43:49.370Z</time>
      </trkpt>
      <trkpt lat="47.8187" lon="2.16809">
        <ele>96</ele>
        <time>2017-05-07T09:43:50.365Z</time>
      </trkpt>
      <trkpt lat="47.8187" lon="2.16809">
        <ele>96</ele>
        <time>2017-05-07T09:43:51.360Z</time>
      </trkpt>
      <trkpt lat="47.81856" lon="2.16808">
        <ele>96</ele>
        <time>2017-05-07T09:43:52.363Z</time>
      </trkpt>
      <trkpt lat="47.81856" lon="2.16808">
        <ele>96</ele>
        <time>2017-05-07T09:43:53.364Z</time>
      </trkpt>
      <trkpt lat="47.81842" lon="2.16806">
        <ele>96</ele>
        <time>2017-05-07T09:43:54.362Z</time>
      </trkpt>
      <trkpt lat="47.81835" lon="2.16805">
        <ele>96</ele>
        <time>2017-05-07T09:43:55.362Z</time>
      </trkpt>
      <trkpt lat="47.81835" lon="2.16805">
        <ele>96</ele>
        <time>2017-05-07T09:43:56.359Z</time>
      </trkpt>
      <trkpt lat="47.81822" lon="2.16803">
        <ele>96</ele>
        <time>2017-05-07T09:43:57.390Z</time>
      </trkpt>
      <trkpt lat="47.81822" lon="2.16803">
        <ele>96</ele>
        <time>2017-05-07T09:43:58.379Z</time>
      </trkpt>
      <trkpt lat="47.8181" lon="2.168">
        <ele>96</ele>
        <time>2017-05-07T09:43:59.374Z</time>
      </trkpt>
      <trkpt lat="47.8181" lon="2.168">
        <ele>96</ele>
        <time>2017-05-07T09:44:00.374Z</time>
      </trkpt>
      <trkpt lat="47.81799" lon="2.16798">
        <ele>96</ele>
        <time>2017-05-07T09:44:01.372Z</time>
      </trkpt>
      <trkpt lat="47.81793" lon="2.16797">
        <ele>96</ele>
        <time>2017-05-07T09:44:02.378Z</time>
      </trkpt>
      <trkpt lat="47.81793" lon="2.16797">
        <ele>96</ele>
        <time>2017-05-07T09:44:03.383Z</time>
      </trkpt>
      <trkpt lat="47.81781" lon="2.16795">
        <ele>96</ele>
        <time>2017-05-07T09:44:04.374Z</time>
      </trkpt>
      <trkpt lat="47.81781" lon="2.16795">
        <ele>96</ele>
        <time>2017-05-07T09:44:05.364Z</time>
      </trkpt>
      <trkpt lat="47.81769" lon="2.16793">
        <ele>95</ele>
        <time>2017-05-07T09:44:06.364Z</time>
      </trkpt>
      <trkpt lat="47.81764" lon="2.16791">
        <ele>95</ele>
        <time>2017-05-07T09:44:07.371Z</time>
      </trkpt>
      <trkpt lat="47.81764" lon="2.16791">
        <ele>95</ele>
        <time>2017-05-07T09:44:08.362Z</time>
      </trkpt>
      <trkpt lat="47.81753" lon="2.16789">
        <ele>95</ele>
        <time>2017-05-07T09:44:09.363Z</time>
      </trkpt>
      <trkpt lat="47.81753" lon="2.16789">
        <ele>95</ele>
        <time>2017-05-07T09:44:10.392Z</time>
      </trkpt>
      <trkpt lat="47.81744" lon="2.16789">
        <ele>96</ele>
        <time>2017-05-07T09:44:11.382Z</time>
      </trkpt>
      <trkpt lat="47.81744" lon="2.16789">
        <ele>96</ele>
        <time>2017-05-07T09:44:12.363Z</time>
      </trkpt>
      <trkpt lat="47.81735" lon="2.16787">
        <ele>96</ele>
        <time>2017-05-07T09:44:13.364Z</time>
      </trkpt>
      <trkpt lat="47.81735" lon="2.16787">
        <ele>96</ele>
        <time>2017-05-07T09:44:14.359Z</time>
      </trkpt>
      <trkpt lat="47.81727" lon="2.16785">
        <ele>96</ele>
        <time>2017-05-07T09:44:15.364Z</time>
      </trkpt>
      <trkpt lat="47.81724" lon="2.16783">
        <ele>96</ele>
        <time>2017-05-07T09:44:16.365Z</time>
      </trkpt>
      <trkpt lat="47.81722" lon="2.16781">
        <ele>96</ele>
        <time>2017-05-07T09:44:17.367Z</time>
      </trkpt>
      <trkpt lat="47.81722" lon="2.16781">
        <ele>96</ele>
        <time>2017-05-07T09:44:18.362Z</time>
      </trkpt>
      <trkpt lat="47.81719" lon="2.16778">
        <ele>96</ele>
        <time>2017-05-07T09:44:19.361Z</time>
      </trkpt>
      <trkpt lat="47.81719" lon="2.16778">
        <ele>96</ele>
        <time>2017-05-07T09:44:20.390Z</time>
      </trkpt>
      <trkpt lat="47.81718" lon="2.16776">
        <ele>96</ele>
        <time>2017-05-07T09:44:21.379Z</time>
      </trkpt>
      <trkpt lat="47.81718" lon="2.16776">
        <ele>96</ele>
        <time>2017-05-07T09:44:22.355Z</time>
      </trkpt>
      <trkpt lat="47.81718" lon="2.16776">
        <ele>96</ele>
        <time>2017-05-07T09:44:23.383Z</time>
      </trkpt>
      <trkpt lat="47.81713" lon="2.16773">
        <ele>97</ele>
        <time>2017-05-07T09:44:24.369Z</time>
      </trkpt>
      <trkpt lat="47.81713" lon="2.16773">
        <ele>97</ele>
        <time>2017-05-07T09:44:25.365Z</time>
      </trkpt>
      <trkpt lat="47.81705" lon="2.16772">
        <ele>97</ele>
        <time>2017-05-07T09:44:26.371Z</time>
      </trkpt>
      <trkpt lat="47.81705" lon="2.16772">
        <ele>97</ele>
        <time>2017-05-07T09:44:27.364Z</time>
      </trkpt>
      <trkpt lat="47.81696" lon="2.16771">
        <ele>97</ele>
        <time>2017-05-07T09:44:28.379Z</time>
      </trkpt>
      <trkpt lat="47.81696" lon="2.16771">
        <ele>97</ele>
        <time>2017-05-07T09:44:29.363Z</time>
      </trkpt>
      <trkpt lat="47.81686" lon="2.1677">
        <ele>97</ele>
        <time>2017-05-07T09:44:30.369Z</time>
      </trkpt>
      <trkpt lat="47.81686" lon="2.1677">
        <ele>97</ele>
        <time>2017-05-07T09:44:31.377Z</time>
      </trkpt>
      <trkpt lat="47.81675" lon="2.16767">
        <ele>97</ele>
        <time>2017-05-07T09:44:32.375Z</time>
      </trkpt>
      <trkpt lat="47.81675" lon="2.16767">
        <ele>97</ele>
        <time>2017-05-07T09:44:33.367Z</time>
      </trkpt>
      <trkpt lat="47.81665" lon="2.16762">
        <ele>97</ele>
        <time>2017-05-07T09:44:34.362Z</time>
      </trkpt>
      <trkpt lat="47.8166" lon="2.1676">
        <ele>97</ele>
        <time>2017-05-07T09:44:35.370Z</time>
      </trkpt>
      <trkpt lat="47.8166" lon="2.1676">
        <ele>97</ele>
        <time>2017-05-07T09:44:36.364Z</time>
      </trkpt>
      <trkpt lat="47.81651" lon="2.16756">
        <ele>98</ele>
        <time>2017-05-07T09:44:37.369Z</time>
      </trkpt>
      <trkpt lat="47.81645" lon="2.16754">
        <ele>98</ele>
        <time>2017-05-07T09:44:38.369Z</time>
      </trkpt>
      <trkpt lat="47.8164" lon="2.16751">
        <ele>98</ele>
        <time>2017-05-07T09:44:39.367Z</time>
      </trkpt>
      <trkpt lat="47.8164" lon="2.16751">
        <ele>98</ele>
        <time>2017-05-07T09:44:40.368Z</time>
      </trkpt>
      <trkpt lat="47.81629" lon="2.16747">
        <ele>98</ele>
        <time>2017-05-07T09:44:41.369Z</time>
      </trkpt>
      <trkpt lat="47.81629" lon="2.16747">
        <ele>98</ele>
        <time>2017-05-07T09:44:42.365Z</time>
      </trkpt>
      <trkpt lat="47.81617" lon="2.16741">
        <ele>99</ele>
        <time>2017-05-07T09:44:43.367Z</time>
      </trkpt>
      <trkpt lat="47.81611" lon="2.16738">
        <ele>99</ele>
        <time>2017-05-07T09:44:44.372Z</time>
      </trkpt>
      <trkpt lat="47.81611" lon="2.16738">
        <ele>99</ele>
        <time>2017-05-07T09:44:45.365Z</time>
      </trkpt>
      <trkpt lat="47.816" lon="2.16733">
        <ele>99</ele>
        <time>2017-05-07T09:44:46.370Z</time>
      </trkpt>
      <trkpt lat="47.816" lon="2.16733">
        <ele>99</ele>
        <time>2017-05-07T09:44:47.365Z</time>
      </trkpt>
      <trkpt lat="47.81588" lon="2.16728">
        <ele>99</ele>
        <time>2017-05-07T09:44:48.367Z</time>
      </trkpt>
      <trkpt lat="47.81582" lon="2.16726">
        <ele>99</ele>
        <time>2017-05-07T09:44:49.368Z</time>
      </trkpt>
      <trkpt lat="47.81582" lon="2.16726">
        <ele>99</ele>
        <time>2017-05-07T09:44:50.364Z</time>
      </trkpt>
      <trkpt lat="47.8157" lon="2.16721">
        <ele>99</ele>
        <time>2017-05-07T09:44:51.367Z</time>
      </trkpt>
      <trkpt lat="47.8157" lon="2.16721">
        <ele>99</ele>
        <time>2017-05-07T09:44:52.364Z</time>
      </trkpt>
      <trkpt lat="47.81557" lon="2.16719">
        <ele>99</ele>
        <time>2017-05-07T09:44:53.369Z</time>
      </trkpt>
      <trkpt lat="47.81551" lon="2.16718">
        <ele>99</ele>
        <time>2017-05-07T09:44:54.376Z</time>
      </trkpt>
      <trkpt lat="47.81551" lon="2.16718">
        <ele>99</ele>
        <time>2017-05-07T09:44:55.367Z</time>
      </trkpt>
      <trkpt lat="47.81538" lon="2.16716">
        <ele>99</ele>
        <time>2017-05-07T09:44:56.374Z</time>
      </trkpt>
      <trkpt lat="47.81538" lon="2.16716">
        <ele>99</ele>
        <time>2017-05-07T09:44:57.381Z</time>
      </trkpt>
      <trkpt lat="47.81524" lon="2.16715">
        <ele>99</ele>
        <time>2017-05-07T09:44:58.371Z</time>
      </trkpt>
      <trkpt lat="47.81524" lon="2.16715">
        <ele>99</ele>
        <time>2017-05-07T09:44:59.356Z</time>
      </trkpt>
      <trkpt lat="47.8151" lon="2.16713">
        <ele>99</ele>
        <time>2017-05-07T09:45:00.372Z</time>
      </trkpt>
      <trkpt lat="47.81504" lon="2.16713">
        <ele>99</ele>
        <time>2017-05-07T09:45:01.377Z</time>
      </trkpt>
      <trkpt lat="47.81497" lon="2.16712">
        <ele>98</ele>
        <time>2017-05-07T09:45:02.371Z</time>
      </trkpt>
      <trkpt lat="47.8149" lon="2.16711">
        <ele>98</ele>
        <time>2017-05-07T09:45:03.370Z</time>
      </trkpt>
      <trkpt lat="47.8149" lon="2.16711">
        <ele>98</ele>
        <time>2017-05-07T09:45:04.364Z</time>
      </trkpt>
      <trkpt lat="47.81477" lon="2.1671">
        <ele>98</ele>
        <time>2017-05-07T09:45:05.384Z</time>
      </trkpt>
      <trkpt lat="47.8147" lon="2.16708">
        <ele>98</ele>
        <time>2017-05-07T09:45:06.373Z</time>
      </trkpt>
      <trkpt lat="47.8147" lon="2.16708">
        <ele>98</ele>
        <time>2017-05-07T09:45:07.365Z</time>
      </trkpt>
      <trkpt lat="47.81456" lon="2.16706">
        <ele>97</ele>
        <time>2017-05-07T09:45:08.372Z</time>
      </trkpt>
      <trkpt lat="47.81449" lon="2.16706">
        <ele>97</ele>
        <time>2017-05-07T09:45:09.370Z</time>
      </trkpt>
      <trkpt lat="47.81442" lon="2.16705">
        <ele>97</ele>
        <time>2017-05-07T09:45:10.372Z</time>
      </trkpt>
      <trkpt lat="47.81442" lon="2.16705">
        <ele>97</ele>
        <time>2017-05-07T09:45:11.364Z</time>
      </trkpt>
      <trkpt lat="47.81429" lon="2.16703">
        <ele>97</ele>
        <time>2017-05-07T09:45:12.369Z</time>
      </trkpt>
      <trkpt lat="47.81429" lon="2.16703">
        <ele>97</ele>
        <time>2017-05-07T09:45:13.364Z</time>
      </trkpt>
      <trkpt lat="47.81414" lon="2.16702">
        <ele>97</ele>
        <time>2017-05-07T09:45:14.380Z</time>
      </trkpt>
      <trkpt lat="47.81414" lon="2.16702">
        <ele>97</ele>
        <time>2017-05-07T09:45:15.368Z</time>
      </trkpt>
      <trkpt lat="47.814" lon="2.16701">
        <ele>97</ele>
        <time>2017-05-07T09:45:16.369Z</time>
      </trkpt>
      <trkpt lat="47.814" lon="2.16701">
        <ele>97</ele>
        <time>2017-05-07T09:45:17.367Z</time>
      </trkpt>
      <trkpt lat="47.81386" lon="2.16699">
        <ele>96</ele>
        <time>2017-05-07T09:45:18.370Z</time>
      </trkpt>
      <trkpt lat="47.81386" lon="2.16699">
        <ele>96</ele>
        <time>2017-05-07T09:45:19.367Z</time>
      </trkpt>
      <trkpt lat="47.81372" lon="2.16698">
        <ele>97</ele>
        <time>2017-05-07T09:45:20.374Z</time>
      </trkpt>
      <trkpt lat="47.81372" lon="2.16698">
        <ele>97</ele>
        <time>2017-05-07T09:45:21.364Z</time>
      </trkpt>
      <trkpt lat="47.81358" lon="2.16696">
        <ele>97</ele>
        <time>2017-05-07T09:45:22.371Z</time>
      </trkpt>
      <trkpt lat="47.81351" lon="2.16695">
        <ele>96</ele>
        <time>2017-05-07T09:45:23.369Z</time>
      </trkpt>
      <trkpt lat="47.81351" lon="2.16695">
        <ele>96</ele>
        <time>2017-05-07T09:45:24.366Z</time>
      </trkpt>
      <trkpt lat="47.81337" lon="2.16691">
        <ele>96</ele>
        <time>2017-05-07T09:45:25.371Z</time>
      </trkpt>
      <trkpt lat="47.8133" lon="2.1669">
        <ele>96</ele>
        <time>2017-05-07T09:45:26.369Z</time>
      </trkpt>
      <trkpt lat="47.8133" lon="2.1669">
        <ele>96</ele>
        <time>2017-05-07T09:45:27.355Z</time>
      </trkpt>
      <trkpt lat="47.81316" lon="2.16687">
        <ele>96</ele>
        <time>2017-05-07T09:45:28.385Z</time>
      </trkpt>
      <trkpt lat="47.81316" lon="2.16687">
        <ele>96</ele>
        <time>2017-05-07T09:45:29.373Z</time>
      </trkpt>
      <trkpt lat="47.81303" lon="2.16684">
        <ele>96</ele>
        <time>2017-05-07T09:45:30.371Z</time>
      </trkpt>
      <trkpt lat="47.81303" lon="2.16684">
        <ele>96</ele>
        <time>2017-05-07T09:45:31.386Z</time>
      </trkpt>
      <trkpt lat="47.8129" lon="2.1668">
        <ele>96</ele>
        <time>2017-05-07T09:45:32.385Z</time>
      </trkpt>
      <trkpt lat="47.8129" lon="2.1668">
        <ele>96</ele>
        <time>2017-05-07T09:45:33.372Z</time>
      </trkpt>
      <trkpt lat="47.81277" lon="2.16676">
        <ele>97</ele>
        <time>2017-05-07T09:45:34.370Z</time>
      </trkpt>
      <trkpt lat="47.8127" lon="2.16674">
        <ele>97</ele>
        <time>2017-05-07T09:45:35.368Z</time>
      </trkpt>
      <trkpt lat="47.81263" lon="2.16671">
        <ele>97</ele>
        <time>2017-05-07T09:45:36.370Z</time>
      </trkpt>
      <trkpt lat="47.81263" lon="2.16671">
        <ele>97</ele>
        <time>2017-05-07T09:45:37.372Z</time>
      </trkpt>
      <trkpt lat="47.81249" lon="2.16665">
        <ele>97</ele>
        <time>2017-05-07T09:45:38.372Z</time>
      </trkpt>
      <trkpt lat="47.81242" lon="2.16662">
        <ele>97</ele>
        <time>2017-05-07T09:45:39.370Z</time>
      </trkpt>
      <trkpt lat="47.81242" lon="2.16662">
        <ele>97</ele>
        <time>2017-05-07T09:45:40.370Z</time>
      </trkpt>
      <trkpt lat="47.81228" lon="2.16655">
        <ele>97</ele>
        <time>2017-05-07T09:45:41.370Z</time>
      </trkpt>
      <trkpt lat="47.81228" lon="2.16655">
        <ele>97</ele>
        <time>2017-05-07T09:45:42.368Z</time>
      </trkpt>
      <trkpt lat="47.81215" lon="2.16649">
        <ele>97</ele>
        <time>2017-05-07T09:45:43.371Z</time>
      </trkpt>
      <trkpt lat="47.81215" lon="2.16649">
        <ele>97</ele>
        <time>2017-05-07T09:45:44.368Z</time>
      </trkpt>
      <trkpt lat="47.81201" lon="2.16642">
        <ele>97</ele>
        <time>2017-05-07T09:45:45.371Z</time>
      </trkpt>
      <trkpt lat="47.81201" lon="2.16642">
        <ele>97</ele>
        <time>2017-05-07T09:45:46.361Z</time>
      </trkpt>
      <trkpt lat="47.81187" lon="2.16635">
        <ele>96</ele>
        <time>2017-05-07T09:45:47.373Z</time>
      </trkpt>
      <trkpt lat="47.81187" lon="2.16635">
        <ele>96</ele>
        <time>2017-05-07T09:45:48.367Z</time>
      </trkpt>
      <trkpt lat="47.81174" lon="2.16628">
        <ele>96</ele>
        <time>2017-05-07T09:45:49.368Z</time>
      </trkpt>
      <trkpt lat="47.81167" lon="2.16624">
        <ele>96</ele>
        <time>2017-05-07T09:45:50.371Z</time>
      </trkpt>
      <trkpt lat="47.81167" lon="2.16624">
        <ele>96</ele>
        <time>2017-05-07T09:45:51.366Z</time>
      </trkpt>
      <trkpt lat="47.81154" lon="2.16616">
        <ele>96</ele>
        <time>2017-05-07T09:45:52.368Z</time>
      </trkpt>
      <trkpt lat="47.81154" lon="2.16616">
        <ele>96</ele>
        <time>2017-05-07T09:45:53.364Z</time>
      </trkpt>
      <trkpt lat="47.81141" lon="2.16608">
        <ele>96</ele>
        <time>2017-05-07T09:45:54.367Z</time>
      </trkpt>
      <trkpt lat="47.81141" lon="2.16608">
        <ele>96</ele>
        <time>2017-05-07T09:45:55.390Z</time>
      </trkpt>
      <trkpt lat="47.81128" lon="2.16598">
        <ele>96</ele>
        <time>2017-05-07T09:45:56.379Z</time>
      </trkpt>
      <trkpt lat="47.81122" lon="2.16593">
        <ele>96</ele>
        <time>2017-05-07T09:45:57.370Z</time>
      </trkpt>
      <trkpt lat="47.81116" lon="2.16588">
        <ele>96</ele>
        <time>2017-05-07T09:45:58.367Z</time>
      </trkpt>
      <trkpt lat="47.81116" lon="2.16588">
        <ele>96</ele>
        <time>2017-05-07T09:45:59.389Z</time>
      </trkpt>
      <trkpt lat="47.81104" lon="2.16578">
        <ele>96</ele>
        <time>2017-05-07T09:46:00.386Z</time>
      </trkpt>
      <trkpt lat="47.81098" lon="2.16573">
        <ele>96</ele>
        <time>2017-05-07T09:46:01.377Z</time>
      </trkpt>
      <trkpt lat="47.81098" lon="2.16573">
        <ele>96</ele>
        <time>2017-05-07T09:46:02.366Z</time>
      </trkpt>
      <trkpt lat="47.81085" lon="2.16563">
        <ele>96</ele>
        <time>2017-05-07T09:46:03.368Z</time>
      </trkpt>
      <trkpt lat="47.81079" lon="2.16558">
        <ele>96</ele>
        <time>2017-05-07T09:46:04.369Z</time>
      </trkpt>
      <trkpt lat="47.81079" lon="2.16558">
        <ele>96</ele>
        <time>2017-05-07T09:46:05.366Z</time>
      </trkpt>
      <trkpt lat="47.81066" lon="2.1655">
        <ele>96</ele>
        <time>2017-05-07T09:46:06.368Z</time>
      </trkpt>
      <trkpt lat="47.81066" lon="2.1655">
        <ele>96</ele>
        <time>2017-05-07T09:46:07.363Z</time>
      </trkpt>
      <trkpt lat="47.81053" lon="2.16542">
        <ele>96</ele>
        <time>2017-05-07T09:46:08.369Z</time>
      </trkpt>
      <trkpt lat="47.81053" lon="2.16542">
        <ele>96</ele>
        <time>2017-05-07T09:46:09.365Z</time>
      </trkpt>
      <trkpt lat="47.8104" lon="2.16534">
        <ele>96</ele>
        <time>2017-05-07T09:46:10.369Z</time>
      </trkpt>
      <trkpt lat="47.81034" lon="2.16531">
        <ele>96</ele>
        <time>2017-05-07T09:46:11.368Z</time>
      </trkpt>
      <trkpt lat="47.81034" lon="2.16531">
        <ele>96</ele>
        <time>2017-05-07T09:46:12.366Z</time>
      </trkpt>
      <trkpt lat="47.81022" lon="2.16524">
        <ele>96</ele>
        <time>2017-05-07T09:46:13.368Z</time>
      </trkpt>
      <trkpt lat="47.81022" lon="2.16524">
        <ele>96</ele>
        <time>2017-05-07T09:46:14.364Z</time>
      </trkpt>
      <trkpt lat="47.81011" lon="2.16518">
        <ele>96</ele>
        <time>2017-05-07T09:46:15.365Z</time>
      </trkpt>
      <trkpt lat="47.81011" lon="2.16518">
        <ele>96</ele>
        <time>2017-05-07T09:46:16.363Z</time>
      </trkpt>
      <trkpt lat="47.81" lon="2.16512">
        <ele>95</ele>
        <time>2017-05-07T09:46:17.368Z</time>
      </trkpt>
      <trkpt lat="47.81" lon="2.16512">
        <ele>95</ele>
        <time>2017-05-07T09:46:18.366Z</time>
      </trkpt>
      <trkpt lat="47.80988" lon="2.16506">
        <ele>95</ele>
        <time>2017-05-07T09:46:19.364Z</time>
      </trkpt>
      <trkpt lat="47.80982" lon="2.16503">
        <ele>96</ele>
        <time>2017-05-07T09:46:20.375Z</time>
      </trkpt>
      <trkpt lat="47.80976" lon="2.165">
        <ele>96</ele>
        <time>2017-05-07T09:46:21.367Z</time>
      </trkpt>
      <trkpt lat="47.80976" lon="2.165">
        <ele>96</ele>
        <time>2017-05-07T09:46:22.387Z</time>
      </trkpt>
      <trkpt lat="47.80964" lon="2.16494">
        <ele>96</ele>
        <time>2017-05-07T09:46:23.379Z</time>
      </trkpt>
      <trkpt lat="47.80964" lon="2.16494">
        <ele>96</ele>
        <time>2017-05-07T09:46:24.368Z</time>
      </trkpt>
      <trkpt lat="47.80953" lon="2.16488">
        <ele>96</ele>
        <time>2017-05-07T09:46:25.369Z</time>
      </trkpt>
      <trkpt lat="47.80953" lon="2.16488">
        <ele>96</ele>
        <time>2017-05-07T09:46:26.371Z</time>
      </trkpt>
      <trkpt lat="47.80942" lon="2.16482">
        <ele>96</ele>
        <time>2017-05-07T09:46:27.376Z</time>
      </trkpt>
      <trkpt lat="47.80936" lon="2.16479">
        <ele>96</ele>
        <time>2017-05-07T09:46:28.383Z</time>
      </trkpt>
      <trkpt lat="47.80936" lon="2.16479">
        <ele>96</ele>
        <time>2017-05-07T09:46:29.389Z</time>
      </trkpt>
      <trkpt lat="47.80925" lon="2.16474">
        <ele>96</ele>
        <time>2017-05-07T09:46:30.381Z</time>
      </trkpt>
      <trkpt lat="47.80925" lon="2.16474">
        <ele>96</ele>
        <time>2017-05-07T09:46:31.376Z</time>
      </trkpt>
      <trkpt lat="47.80913" lon="2.16468">
        <ele>96</ele>
        <time>2017-05-07T09:46:32.385Z</time>
      </trkpt>
      <trkpt lat="47.80907" lon="2.16465">
        <ele>96</ele>
        <time>2017-05-07T09:46:33.373Z</time>
      </trkpt>
      <trkpt lat="47.80907" lon="2.16465">
        <ele>96</ele>
        <time>2017-05-07T09:46:34.365Z</time>
      </trkpt>
      <trkpt lat="47.80894" lon="2.16459">
        <ele>96</ele>
        <time>2017-05-07T09:46:35.368Z</time>
      </trkpt>
      <trkpt lat="47.80894" lon="2.16459">
        <ele>96</ele>
        <time>2017-05-07T09:46:36.364Z</time>
      </trkpt>
      <trkpt lat="47.80882" lon="2.16454">
        <ele>96</ele>
        <time>2017-05-07T09:46:37.371Z</time>
      </trkpt>
      <trkpt lat="47.80882" lon="2.16454">
        <ele>96</ele>
        <time>2017-05-07T09:46:38.365Z</time>
      </trkpt>
      <trkpt lat="47.8087" lon="2.16449">
        <ele>96</ele>
        <time>2017-05-07T09:46:39.373Z</time>
      </trkpt>
      <trkpt lat="47.8087" lon="2.16449">
        <ele>96</ele>
        <time>2017-05-07T09:46:40.369Z</time>
      </trkpt>
      <trkpt lat="47.80858" lon="2.16443">
        <ele>96</ele>
        <time>2017-05-07T09:46:41.368Z</time>
      </trkpt>
      <trkpt lat="47.80858" lon="2.16443">
        <ele>96</ele>
        <time>2017-05-07T09:46:42.380Z</time>
      </trkpt>
      <trkpt lat="47.80846" lon="2.16437">
        <ele>96</ele>
        <time>2017-05-07T09:46:43.368Z</time>
      </trkpt>
      <trkpt lat="47.80841" lon="2.16434">
        <ele>96</ele>
        <time>2017-05-07T09:46:44.372Z</time>
      </trkpt>
      <trkpt lat="47.80835" lon="2.16431">
        <ele>95</ele>
        <time>2017-05-07T09:46:45.371Z</time>
      </trkpt>
      <trkpt lat="47.80835" lon="2.16431">
        <ele>95</ele>
        <time>2017-05-07T09:46:46.364Z</time>
      </trkpt>
      <trkpt lat="47.80824" lon="2.16426">
        <ele>96</ele>
        <time>2017-05-07T09:46:47.369Z</time>
      </trkpt>
      <trkpt lat="47.80824" lon="2.16426">
        <ele>96</ele>
        <time>2017-05-07T09:46:48.367Z</time>
      </trkpt>
      <trkpt lat="47.80813" lon="2.16421">
        <ele>96</ele>
        <time>2017-05-07T09:46:49.368Z</time>
      </trkpt>
      <trkpt lat="47.80808" lon="2.16418">
        <ele>96</ele>
        <time>2017-05-07T09:46:50.374Z</time>
      </trkpt>
      <trkpt lat="47.80808" lon="2.16418">
        <ele>96</ele>
        <time>2017-05-07T09:46:51.367Z</time>
      </trkpt>
      <trkpt lat="47.80796" lon="2.16413">
        <ele>97</ele>
        <time>2017-05-07T09:46:52.377Z</time>
      </trkpt>
      <trkpt lat="47.80796" lon="2.16413">
        <ele>97</ele>
        <time>2017-05-07T09:46:53.366Z</time>
      </trkpt>
      <trkpt lat="47.80784" lon="2.16407">
        <ele>97</ele>
        <time>2017-05-07T09:46:54.390Z</time>
      </trkpt>
      <trkpt lat="47.80778" lon="2.16404">
        <ele>97</ele>
        <time>2017-05-07T09:46:55.382Z</time>
      </trkpt>
      <trkpt lat="47.80778" lon="2.16404">
        <ele>97</ele>
        <time>2017-05-07T09:46:56.371Z</time>
      </trkpt>
      <trkpt lat="47.80767" lon="2.16398">
        <ele>97</ele>
        <time>2017-05-07T09:46:57.372Z</time>
      </trkpt>
      <trkpt lat="47.80761" lon="2.16395">
        <ele>97</ele>
        <time>2017-05-07T09:46:58.372Z</time>
      </trkpt>
      <trkpt lat="47.80761" lon="2.16395">
        <ele>97</ele>
        <time>2017-05-07T09:46:59.385Z</time>
      </trkpt>
      <trkpt lat="47.8075" lon="2.16389">
        <ele>97</ele>
        <time>2017-05-07T09:47:00.373Z</time>
      </trkpt>
      <trkpt lat="47.80744" lon="2.16386">
        <ele>97</ele>
        <time>2017-05-07T09:47:01.379Z</time>
      </trkpt>
      <trkpt lat="47.80738" lon="2.16383">
        <ele>97</ele>
        <time>2017-05-07T09:47:02.385Z</time>
      </trkpt>
      <trkpt lat="47.80738" lon="2.16383">
        <ele>97</ele>
        <time>2017-05-07T09:47:03.373Z</time>
      </trkpt>
      <trkpt lat="47.80726" lon="2.16379">
        <ele>97</ele>
        <time>2017-05-07T09:47:04.379Z</time>
      </trkpt>
      <trkpt lat="47.80726" lon="2.16379">
        <ele>97</ele>
        <time>2017-05-07T09:47:05.380Z</time>
      </trkpt>
      <trkpt lat="47.80714" lon="2.16374">
        <ele>97</ele>
        <time>2017-05-07T09:47:06.372Z</time>
      </trkpt>
      <trkpt lat="47.80714" lon="2.16374">
        <ele>97</ele>
        <time>2017-05-07T09:47:07.367Z</time>
      </trkpt>
      <trkpt lat="47.80702" lon="2.1637">
        <ele>97</ele>
        <time>2017-05-07T09:47:08.374Z</time>
      </trkpt>
      <trkpt lat="47.80702" lon="2.1637">
        <ele>97</ele>
        <time>2017-05-07T09:47:09.366Z</time>
      </trkpt>
      <trkpt lat="47.80691" lon="2.16366">
        <ele>97</ele>
        <time>2017-05-07T09:47:10.373Z</time>
      </trkpt>
      <trkpt lat="47.80685" lon="2.16364">
        <ele>97</ele>
        <time>2017-05-07T09:47:11.374Z</time>
      </trkpt>
      <trkpt lat="47.80685" lon="2.16364">
        <ele>97</ele>
        <time>2017-05-07T09:47:12.366Z</time>
      </trkpt>
      <trkpt lat="47.80673" lon="2.1636">
        <ele>96</ele>
        <time>2017-05-07T09:47:13.370Z</time>
      </trkpt>
      <trkpt lat="47.80667" lon="2.16358">
        <ele>96</ele>
        <time>2017-05-07T09:47:14.380Z</time>
      </trkpt>
      <trkpt lat="47.80667" lon="2.16358">
        <ele>96</ele>
        <time>2017-05-07T09:47:15.368Z</time>
      </trkpt>
      <trkpt lat="47.80655" lon="2.16355">
        <ele>96</ele>
        <time>2017-05-07T09:47:16.371Z</time>
      </trkpt>
      <trkpt lat="47.80655" lon="2.16355">
        <ele>96</ele>
        <time>2017-05-07T09:47:17.366Z</time>
      </trkpt>
      <trkpt lat="47.80644" lon="2.1635">
        <ele>96</ele>
        <time>2017-05-07T09:47:18.368Z</time>
      </trkpt>
      <trkpt lat="47.80638" lon="2.16348">
        <ele>96</ele>
        <time>2017-05-07T09:47:19.371Z</time>
      </trkpt>
      <trkpt lat="47.80632" lon="2.16346">
        <ele>96</ele>
        <time>2017-05-07T09:47:20.381Z</time>
      </trkpt>
      <trkpt lat="47.80626" lon="2.16345">
        <ele>96</ele>
        <time>2017-05-07T09:47:21.392Z</time>
      </trkpt>
      <trkpt lat="47.80626" lon="2.16345">
        <ele>96</ele>
        <time>2017-05-07T09:47:22.360Z</time>
      </trkpt>
      <trkpt lat="47.80616" lon="2.16341">
        <ele>96</ele>
        <time>2017-05-07T09:47:23.366Z</time>
      </trkpt>
      <trkpt lat="47.80616" lon="2.16341">
        <ele>96</ele>
        <time>2017-05-07T09:47:24.372Z</time>
      </trkpt>
      <trkpt lat="47.80604" lon="2.16337">
        <ele>96</ele>
        <time>2017-05-07T09:47:25.378Z</time>
      </trkpt>
      <trkpt lat="47.80598" lon="2.16335">
        <ele>96</ele>
        <time>2017-05-07T09:47:26.374Z</time>
      </trkpt>
      <trkpt lat="47.80598" lon="2.16335">
        <ele>96</ele>
        <time>2017-05-07T09:47:27.366Z</time>
      </trkpt>
      <trkpt lat="47.80587" lon="2.1633">
        <ele>96</ele>
        <time>2017-05-07T09:47:28.372Z</time>
      </trkpt>
      <trkpt lat="47.80587" lon="2.1633">
        <ele>96</ele>
        <time>2017-05-07T09:47:29.366Z</time>
      </trkpt>
      <trkpt lat="47.80576" lon="2.16326">
        <ele>96</ele>
        <time>2017-05-07T09:47:30.388Z</time>
      </trkpt>
      <trkpt lat="47.80576" lon="2.16326">
        <ele>96</ele>
        <time>2017-05-07T09:47:31.379Z</time>
      </trkpt>
      <trkpt lat="47.80563" lon="2.16323">
        <ele>95</ele>
        <time>2017-05-07T09:47:32.374Z</time>
      </trkpt>
      <trkpt lat="47.80563" lon="2.16323">
        <ele>95</ele>
        <time>2017-05-07T09:47:33.365Z</time>
      </trkpt>
      <trkpt lat="47.8055" lon="2.16319">
        <ele>95</ele>
        <time>2017-05-07T09:47:34.372Z</time>
      </trkpt>
      <trkpt lat="47.80544" lon="2.16317">
        <ele>95</ele>
        <time>2017-05-07T09:47:35.384Z</time>
      </trkpt>
      <trkpt lat="47.80544" lon="2.16317">
        <ele>95</ele>
        <time>2017-05-07T09:47:36.371Z</time>
      </trkpt>
      <trkpt lat="47.80531" lon="2.16315">
        <ele>95</ele>
        <time>2017-05-07T09:47:37.371Z</time>
      </trkpt>
      <trkpt lat="47.80525" lon="2.16313">
        <ele>95</ele>
        <time>2017-05-07T09:47:38.374Z</time>
      </trkpt>
      <trkpt lat="47.8052" lon="2.16312">
        <ele>94</ele>
        <time>2017-05-07T09:47:39.370Z</time>
      </trkpt>
      <trkpt lat="47.8052" lon="2.16312">
        <ele>94</ele>
        <time>2017-05-07T09:47:40.379Z</time>
      </trkpt>
      <trkpt lat="47.80507" lon="2.16309">
        <ele>94</ele>
        <time>2017-05-07T09:47:41.366Z</time>
      </trkpt>
      <trkpt lat="47.80501" lon="2.1631">
        <ele>94</ele>
        <time>2017-05-07T09:47:42.371Z</time>
      </trkpt>
      <trkpt lat="47.80501" lon="2.1631">
        <ele>94</ele>
        <time>2017-05-07T09:47:43.366Z</time>
      </trkpt>
      <trkpt lat="47.80489" lon="2.16311">
        <ele>94</ele>
        <time>2017-05-07T09:47:44.372Z</time>
      </trkpt>
      <trkpt lat="47.80489" lon="2.16311">
        <ele>94</ele>
        <time>2017-05-07T09:47:45.366Z</time>
      </trkpt>
      <trkpt lat="47.80477" lon="2.16311">
        <ele>94</ele>
        <time>2017-05-07T09:47:46.371Z</time>
      </trkpt>
      <trkpt lat="47.80477" lon="2.16311">
        <ele>94</ele>
        <time>2017-05-07T09:47:47.370Z</time>
      </trkpt>
      <trkpt lat="47.80466" lon="2.16312">
        <ele>94</ele>
        <time>2017-05-07T09:47:48.391Z</time>
      </trkpt>
      <trkpt lat="47.8046" lon="2.16312">
        <ele>94</ele>
        <time>2017-05-07T09:47:49.383Z</time>
      </trkpt>
      <trkpt lat="47.80454" lon="2.16312">
        <ele>94</ele>
        <time>2017-05-07T09:47:50.373Z</time>
      </trkpt>
      <trkpt lat="47.80454" lon="2.16312">
        <ele>94</ele>
        <time>2017-05-07T09:47:51.364Z</time>
      </trkpt>
      <trkpt lat="47.80443" lon="2.16313">
        <ele>94</ele>
        <time>2017-05-07T09:47:52.370Z</time>
      </trkpt>
      <trkpt lat="47.80443" lon="2.16313">
        <ele>94</ele>
        <time>2017-05-07T09:47:53.380Z</time>
      </trkpt>
      <trkpt lat="47.80432" lon="2.16313">
        <ele>94</ele>
        <time>2017-05-07T09:47:54.372Z</time>
      </trkpt>
      <trkpt lat="47.80432" lon="2.16313">
        <ele>94</ele>
        <time>2017-05-07T09:47:55.366Z</time>
      </trkpt>
      <trkpt lat="47.80421" lon="2.16313">
        <ele>94</ele>
        <time>2017-05-07T09:47:56.374Z</time>
      </trkpt>
      <trkpt lat="47.80415" lon="2.16313">
        <ele>94</ele>
        <time>2017-05-07T09:47:57.370Z</time>
      </trkpt>
      <trkpt lat="47.80415" lon="2.16313">
        <ele>94</ele>
        <time>2017-05-07T09:47:58.367Z</time>
      </trkpt>
      <trkpt lat="47.80405" lon="2.16312">
        <ele>94</ele>
        <time>2017-05-07T09:47:59.371Z</time>
      </trkpt>
      <trkpt lat="47.804" lon="2.16312">
        <ele>94</ele>
        <time>2017-05-07T09:48:00.377Z</time>
      </trkpt>
      <trkpt lat="47.804" lon="2.16312">
        <ele>94</ele>
        <time>2017-05-07T09:48:01.383Z</time>
      </trkpt>
      <trkpt lat="47.8039" lon="2.1631">
        <ele>93</ele>
        <time>2017-05-07T09:48:02.376Z</time>
      </trkpt>
      <trkpt lat="47.8039" lon="2.1631">
        <ele>93</ele>
        <time>2017-05-07T09:48:03.366Z</time>
      </trkpt>
      <trkpt lat="47.8038" lon="2.1631">
        <ele>93</ele>
        <time>2017-05-07T09:48:04.374Z</time>
      </trkpt>
      <trkpt lat="47.8038" lon="2.1631">
        <ele>93</ele>
        <time>2017-05-07T09:48:05.367Z</time>
      </trkpt>
      <trkpt lat="47.80371" lon="2.16312">
        <ele>93</ele>
        <time>2017-05-07T09:48:06.373Z</time>
      </trkpt>
      <trkpt lat="47.80371" lon="2.16312">
        <ele>93</ele>
        <time>2017-05-07T09:48:07.366Z</time>
      </trkpt>
      <trkpt lat="47.80361" lon="2.16313">
        <ele>93</ele>
        <time>2017-05-07T09:48:08.375Z</time>
      </trkpt>
      <trkpt lat="47.80361" lon="2.16313">
        <ele>93</ele>
        <time>2017-05-07T09:48:09.366Z</time>
      </trkpt>
      <trkpt lat="47.80354" lon="2.16307">
        <ele>94</ele>
        <time>2017-05-07T09:48:10.371Z</time>
      </trkpt>
      <trkpt lat="47.80354" lon="2.16307">
        <ele>94</ele>
        <time>2017-05-07T09:48:11.376Z</time>
      </trkpt>
      <trkpt lat="47.80353" lon="2.16295">
        <ele>95</ele>
        <time>2017-05-07T09:48:12.372Z</time>
      </trkpt>
      <trkpt lat="47.80353" lon="2.16289">
        <ele>95</ele>
        <time>2017-05-07T09:48:13.372Z</time>
      </trkpt>
      <trkpt lat="47.80353" lon="2.16289">
        <ele>95</ele>
        <time>2017-05-07T09:48:14.381Z</time>
      </trkpt>
      <trkpt lat="47.80355" lon="2.16275">
        <ele>95</ele>
        <time>2017-05-07T09:48:15.369Z</time>
      </trkpt>
      <trkpt lat="47.80356" lon="2.16268">
        <ele>96</ele>
        <time>2017-05-07T09:48:16.374Z</time>
      </trkpt>
      <trkpt lat="47.80356" lon="2.16268">
        <ele>96</ele>
        <time>2017-05-07T09:48:17.366Z</time>
      </trkpt>
      <trkpt lat="47.80357" lon="2.16254">
        <ele>96</ele>
        <time>2017-05-07T09:48:18.372Z</time>
      </trkpt>
      <trkpt lat="47.80357" lon="2.16254">
        <ele>96</ele>
        <time>2017-05-07T09:48:19.366Z</time>
      </trkpt>
      <trkpt lat="47.80358" lon="2.1624">
        <ele>96</ele>
        <time>2017-05-07T09:48:20.374Z</time>
      </trkpt>
      <trkpt lat="47.80358" lon="2.1624">
        <ele>96</ele>
        <time>2017-05-07T09:48:21.372Z</time>
      </trkpt>
      <trkpt lat="47.8036" lon="2.16226">
        <ele>96</ele>
        <time>2017-05-07T09:48:22.367Z</time>
      </trkpt>
      <trkpt lat="47.8036" lon="2.16226">
        <ele>96</ele>
        <time>2017-05-07T09:48:23.368Z</time>
      </trkpt>
      <trkpt lat="47.80363" lon="2.16213">
        <ele>97</ele>
        <time>2017-05-07T09:48:24.377Z</time>
      </trkpt>
      <trkpt lat="47.80363" lon="2.16213">
        <ele>97</ele>
        <time>2017-05-07T09:48:25.366Z</time>
      </trkpt>
      <trkpt lat="47.80365" lon="2.16201">
        <ele>97</ele>
        <time>2017-05-07T09:48:26.374Z</time>
      </trkpt>
      <trkpt lat="47.80365" lon="2.16201">
        <ele>97</ele>
        <time>2017-05-07T09:48:27.366Z</time>
      </trkpt>
      <trkpt lat="47.80368" lon="2.16188">
        <ele>97</ele>
        <time>2017-05-07T09:48:28.373Z</time>
      </trkpt>
      <trkpt lat="47.80368" lon="2.16188">
        <ele>97</ele>
        <time>2017-05-07T09:48:29.365Z</time>
      </trkpt>
      <trkpt lat="47.80372" lon="2.16174">
        <ele>98</ele>
        <time>2017-05-07T09:48:30.376Z</time>
      </trkpt>
      <trkpt lat="47.80372" lon="2.16174">
        <ele>98</ele>
        <time>2017-05-07T09:48:31.379Z</time>
      </trkpt>
      <trkpt lat="47.80375" lon="2.1616">
        <ele>98</ele>
        <time>2017-05-07T09:48:32.374Z</time>
      </trkpt>
      <trkpt lat="47.80375" lon="2.1616">
        <ele>98</ele>
        <time>2017-05-07T09:48:33.367Z</time>
      </trkpt>
      <trkpt lat="47.80378" lon="2.16146">
        <ele>98</ele>
        <time>2017-05-07T09:48:34.374Z</time>
      </trkpt>
      <trkpt lat="47.80378" lon="2.16146">
        <ele>98</ele>
        <time>2017-05-07T09:48:35.366Z</time>
      </trkpt>
      <trkpt lat="47.80379" lon="2.16134">
        <ele>99</ele>
        <time>2017-05-07T09:48:36.372Z</time>
      </trkpt>
      <trkpt lat="47.80379" lon="2.16134">
        <ele>99</ele>
        <time>2017-05-07T09:48:37.366Z</time>
      </trkpt>
      <trkpt lat="47.80381" lon="2.1612">
        <ele>99</ele>
        <time>2017-05-07T09:48:38.377Z</time>
      </trkpt>
      <trkpt lat="47.80381" lon="2.1612">
        <ele>99</ele>
        <time>2017-05-07T09:48:39.366Z</time>
      </trkpt>
      <trkpt lat="47.80384" lon="2.16107">
        <ele>100</ele>
        <time>2017-05-07T09:48:40.371Z</time>
      </trkpt>
      <trkpt lat="47.80384" lon="2.16107">
        <ele>100</ele>
        <time>2017-05-07T09:48:41.369Z</time>
      </trkpt>
      <trkpt lat="47.80386" lon="2.16093">
        <ele>100</ele>
        <time>2017-05-07T09:48:42.371Z</time>
      </trkpt>
      <trkpt lat="47.80386" lon="2.16093">
        <ele>100</ele>
        <time>2017-05-07T09:48:43.366Z</time>
      </trkpt>
      <trkpt lat="47.80389" lon="2.1608">
        <ele>99</ele>
        <time>2017-05-07T09:48:44.377Z</time>
      </trkpt>
      <trkpt lat="47.80389" lon="2.1608">
        <ele>99</ele>
        <time>2017-05-07T09:48:45.372Z</time>
      </trkpt>
      <trkpt lat="47.8039" lon="2.16068">
        <ele>100</ele>
        <time>2017-05-07T09:48:46.372Z</time>
      </trkpt>
      <trkpt lat="47.8039" lon="2.16068">
        <ele>100</ele>
        <time>2017-05-07T09:48:47.366Z</time>
      </trkpt>
      <trkpt lat="47.80393" lon="2.16056">
        <ele>100</ele>
        <time>2017-05-07T09:48:48.356Z</time>
      </trkpt>
      <trkpt lat="47.80393" lon="2.16056">
        <ele>100</ele>
        <time>2017-05-07T09:48:49.385Z</time>
      </trkpt>
      <trkpt lat="47.80395" lon="2.16042">
        <ele>100</ele>
        <time>2017-05-07T09:48:50.375Z</time>
      </trkpt>
      <trkpt lat="47.80397" lon="2.16035">
        <ele>100</ele>
        <time>2017-05-07T09:48:51.383Z</time>
      </trkpt>
      <trkpt lat="47.80397" lon="2.16035">
        <ele>100</ele>
        <time>2017-05-07T09:48:52.371Z</time>
      </trkpt>
      <trkpt lat="47.804" lon="2.1602">
        <ele>101</ele>
        <time>2017-05-07T09:48:53.380Z</time>
      </trkpt>
      <trkpt lat="47.804" lon="2.1602">
        <ele>101</ele>
        <time>2017-05-07T09:48:54.379Z</time>
      </trkpt>
      <trkpt lat="47.80403" lon="2.16006">
        <ele>101</ele>
        <time>2017-05-07T09:48:55.372Z</time>
      </trkpt>
      <trkpt lat="47.80404" lon="2.15998">
        <ele>102</ele>
        <time>2017-05-07T09:48:56.373Z</time>
      </trkpt>
      <trkpt lat="47.80404" lon="2.15998">
        <ele>102</ele>
        <time>2017-05-07T09:48:57.367Z</time>
      </trkpt>
      <trkpt lat="47.80408" lon="2.15984">
        <ele>101</ele>
        <time>2017-05-07T09:48:58.373Z</time>
      </trkpt>
      <trkpt lat="47.8041" lon="2.15977">
        <ele>102</ele>
        <time>2017-05-07T09:48:59.368Z</time>
      </trkpt>
      <trkpt lat="47.8041" lon="2.15977">
        <ele>102</ele>
        <time>2017-05-07T09:49:00.376Z</time>
      </trkpt>
      <trkpt lat="47.80414" lon="2.15963">
        <ele>101</ele>
        <time>2017-05-07T09:49:01.382Z</time>
      </trkpt>
      <trkpt lat="47.80417" lon="2.15956">
        <ele>101</ele>
        <time>2017-05-07T09:49:02.377Z</time>
      </trkpt>
      <trkpt lat="47.80417" lon="2.15956">
        <ele>101</ele>
        <time>2017-05-07T09:49:03.366Z</time>
      </trkpt>
      <trkpt lat="47.8042" lon="2.15944">
        <ele>101</ele>
        <time>2017-05-07T09:49:04.372Z</time>
      </trkpt>
      <trkpt lat="47.80422" lon="2.15937">
        <ele>101</ele>
        <time>2017-05-07T09:49:05.386Z</time>
      </trkpt>
      <trkpt lat="47.80422" lon="2.15937">
        <ele>101</ele>
        <time>2017-05-07T09:49:06.378Z</time>
      </trkpt>
      <trkpt lat="47.80425" lon="2.15923">
        <ele>101</ele>
        <time>2017-05-07T09:49:07.374Z</time>
      </trkpt>
      <trkpt lat="47.80428" lon="2.15915">
        <ele>101</ele>
        <time>2017-05-07T09:49:08.374Z</time>
      </trkpt>
      <trkpt lat="47.80428" lon="2.15915">
        <ele>101</ele>
        <time>2017-05-07T09:49:09.355Z</time>
      </trkpt>
      <trkpt lat="47.80433" lon="2.15898">
        <ele>100</ele>
        <time>2017-05-07T09:49:10.384Z</time>
      </trkpt>
      <trkpt lat="47.80433" lon="2.15898">
        <ele>100</ele>
        <time>2017-05-07T09:49:11.375Z</time>
      </trkpt>
      <trkpt lat="47.80438" lon="2.15881">
        <ele>99</ele>
        <time>2017-05-07T09:49:12.372Z</time>
      </trkpt>
      <trkpt lat="47.80438" lon="2.15881">
        <ele>99</ele>
        <time>2017-05-07T09:49:13.366Z</time>
      </trkpt>
      <trkpt lat="47.80441" lon="2.15861">
        <ele>98</ele>
        <time>2017-05-07T09:49:14.387Z</time>
      </trkpt>
      <trkpt lat="47.80441" lon="2.15861">
        <ele>98</ele>
        <time>2017-05-07T09:49:15.377Z</time>
      </trkpt>
      <trkpt lat="47.80444" lon="2.15842">
        <ele>98</ele>
        <time>2017-05-07T09:49:16.372Z</time>
      </trkpt>
      <trkpt lat="47.80444" lon="2.15842">
        <ele>98</ele>
        <time>2017-05-07T09:49:17.369Z</time>
      </trkpt>
      <trkpt lat="47.80451" lon="2.15823">
        <ele>98</ele>
        <time>2017-05-07T09:49:18.369Z</time>
      </trkpt>
      <trkpt lat="47.80451" lon="2.15823">
        <ele>98</ele>
        <time>2017-05-07T09:49:19.367Z</time>
      </trkpt>
      <trkpt lat="47.80461" lon="2.15809">
        <ele>98</ele>
        <time>2017-05-07T09:49:20.386Z</time>
      </trkpt>
      <trkpt lat="47.80461" lon="2.15809">
        <ele>98</ele>
        <time>2017-05-07T09:49:21.371Z</time>
      </trkpt>
      <trkpt lat="47.80471" lon="2.15797">
        <ele>98</ele>
        <time>2017-05-07T09:49:22.368Z</time>
      </trkpt>
      <trkpt lat="47.80471" lon="2.15797">
        <ele>98</ele>
        <time>2017-05-07T09:49:23.368Z</time>
      </trkpt>
      <trkpt lat="47.80479" lon="2.15786">
        <ele>98</ele>
        <time>2017-05-07T09:49:24.369Z</time>
      </trkpt>
      <trkpt lat="47.80479" lon="2.15786">
        <ele>98</ele>
        <time>2017-05-07T09:49:25.367Z</time>
      </trkpt>
      <trkpt lat="47.80486" lon="2.15774">
        <ele>98</ele>
        <time>2017-05-07T09:49:26.374Z</time>
      </trkpt>
      <trkpt lat="47.80486" lon="2.15774">
        <ele>98</ele>
        <time>2017-05-07T09:49:27.366Z</time>
      </trkpt>
      <trkpt lat="47.8049" lon="2.15761">
        <ele>99</ele>
        <time>2017-05-07T09:49:28.374Z</time>
      </trkpt>
      <trkpt lat="47.8049" lon="2.15761">
        <ele>99</ele>
        <time>2017-05-07T09:49:29.367Z</time>
      </trkpt>
      <trkpt lat="47.80493" lon="2.15746">
        <ele>99</ele>
        <time>2017-05-07T09:49:30.370Z</time>
      </trkpt>
      <trkpt lat="47.80495" lon="2.15738">
        <ele>99</ele>
        <time>2017-05-07T09:49:31.387Z</time>
      </trkpt>
      <trkpt lat="47.80497" lon="2.15731">
        <ele>99</ele>
        <time>2017-05-07T09:49:32.380Z</time>
      </trkpt>
      <trkpt lat="47.80497" lon="2.15731">
        <ele>99</ele>
        <time>2017-05-07T09:49:33.371Z</time>
      </trkpt>
      <trkpt lat="47.80499" lon="2.15717">
        <ele>98</ele>
        <time>2017-05-07T09:49:34.388Z</time>
      </trkpt>
      <trkpt lat="47.80499" lon="2.15717">
        <ele>98</ele>
        <time>2017-05-07T09:49:35.387Z</time>
      </trkpt>
      <trkpt lat="47.805" lon="2.15704">
        <ele>98</ele>
        <time>2017-05-07T09:49:36.376Z</time>
      </trkpt>
      <trkpt lat="47.805" lon="2.15704">
        <ele>98</ele>
        <time>2017-05-07T09:49:37.366Z</time>
      </trkpt>
      <trkpt lat="47.80502" lon="2.15691">
        <ele>97</ele>
        <time>2017-05-07T09:49:38.382Z</time>
      </trkpt>
      <trkpt lat="47.80505" lon="2.15686">
        <ele>98</ele>
        <time>2017-05-07T09:49:39.374Z</time>
      </trkpt>
      <trkpt lat="47.80505" lon="2.15686">
        <ele>98</ele>
        <time>2017-05-07T09:49:40.372Z</time>
      </trkpt>
      <trkpt lat="47.80511" lon="2.15678">
        <ele>98</ele>
        <time>2017-05-07T09:49:41.374Z</time>
      </trkpt>
      <trkpt lat="47.80511" lon="2.15678">
        <ele>98</ele>
        <time>2017-05-07T09:49:42.392Z</time>
      </trkpt>
      <trkpt lat="47.80513" lon="2.15665">
        <ele>98</ele>
        <time>2017-05-07T09:49:43.372Z</time>
      </trkpt>
      <trkpt lat="47.80512" lon="2.15658">
        <ele>98</ele>
        <time>2017-05-07T09:49:44.380Z</time>
      </trkpt>
      <trkpt lat="47.80512" lon="2.15658">
        <ele>98</ele>
        <time>2017-05-07T09:49:45.373Z</time>
      </trkpt>
      <trkpt lat="47.80509" lon="2.15643">
        <ele>98</ele>
        <time>2017-05-07T09:49:46.373Z</time>
      </trkpt>
      <trkpt lat="47.80509" lon="2.15643">
        <ele>98</ele>
        <time>2017-05-07T09:49:47.370Z</time>
      </trkpt>
      <trkpt lat="47.80507" lon="2.15626">
        <ele>98</ele>
        <time>2017-05-07T09:49:48.374Z</time>
      </trkpt>
      <trkpt lat="47.80506" lon="2.15617">
        <ele>98</ele>
        <time>2017-05-07T09:49:49.373Z</time>
      </trkpt>
      <trkpt lat="47.80505" lon="2.15609">
        <ele>98</ele>
        <time>2017-05-07T09:49:50.379Z</time>
      </trkpt>
      <trkpt lat="47.80505" lon="2.15609">
        <ele>98</ele>
        <time>2017-05-07T09:49:51.369Z</time>
      </trkpt>
      <trkpt lat="47.80502" lon="2.15592">
        <ele>99</ele>
        <time>2017-05-07T09:49:52.365Z</time>
      </trkpt>
      <trkpt lat="47.80501" lon="2.15584">
        <ele>99</ele>
        <time>2017-05-07T09:49:53.373Z</time>
      </trkpt>
      <trkpt lat="47.80501" lon="2.15584">
        <ele>99</ele>
        <time>2017-05-07T09:49:54.367Z</time>
      </trkpt>
      <trkpt lat="47.80498" lon="2.15566">
        <ele>98</ele>
        <time>2017-05-07T09:49:55.373Z</time>
      </trkpt>
      <trkpt lat="47.80498" lon="2.15566">
        <ele>98</ele>
        <time>2017-05-07T09:49:56.372Z</time>
      </trkpt>
      <trkpt lat="47.80496" lon="2.15548">
        <ele>98</ele>
        <time>2017-05-07T09:49:57.375Z</time>
      </trkpt>
      <trkpt lat="47.80495" lon="2.15538">
        <ele>98</ele>
        <time>2017-05-07T09:49:58.372Z</time>
      </trkpt>
      <trkpt lat="47.80495" lon="2.15538">
        <ele>98</ele>
        <time>2017-05-07T09:49:59.381Z</time>
      </trkpt>
      <trkpt lat="47.80493" lon="2.1552">
        <ele>98</ele>
        <time>2017-05-07T09:50:00.377Z</time>
      </trkpt>
      <trkpt lat="47.80491" lon="2.15511">
        <ele>98</ele>
        <time>2017-05-07T09:50:01.383Z</time>
      </trkpt>
      <trkpt lat="47.80491" lon="2.15511">
        <ele>98</ele>
        <time>2017-05-07T09:50:02.389Z</time>
      </trkpt>
      <trkpt lat="47.80488" lon="2.15492">
        <ele>97</ele>
        <time>2017-05-07T09:50:03.379Z</time>
      </trkpt>
      <trkpt lat="47.80488" lon="2.15492">
        <ele>97</ele>
        <time>2017-05-07T09:50:04.382Z</time>
      </trkpt>
      <trkpt lat="47.80485" lon="2.15474">
        <ele>96</ele>
        <time>2017-05-07T09:50:05.386Z</time>
      </trkpt>
      <trkpt lat="47.80485" lon="2.15474">
        <ele>96</ele>
        <time>2017-05-07T09:50:06.376Z</time>
      </trkpt>
      <trkpt lat="47.80483" lon="2.15454">
        <ele>96</ele>
        <time>2017-05-07T09:50:07.372Z</time>
      </trkpt>
      <trkpt lat="47.80481" lon="2.15445">
        <ele>96</ele>
        <time>2017-05-07T09:50:08.377Z</time>
      </trkpt>
      <trkpt lat="47.80481" lon="2.15445">
        <ele>96</ele>
        <time>2017-05-07T09:50:09.365Z</time>
      </trkpt>
      <trkpt lat="47.80479" lon="2.15426">
        <ele>96</ele>
        <time>2017-05-07T09:50:10.374Z</time>
      </trkpt>
      <trkpt lat="47.80478" lon="2.15417">
        <ele>96</ele>
        <time>2017-05-07T09:50:11.373Z</time>
      </trkpt>
      <trkpt lat="47.80478" lon="2.15417">
        <ele>96</ele>
        <time>2017-05-07T09:50:12.368Z</time>
      </trkpt>
      <trkpt lat="47.80477" lon="2.15399">
        <ele>96</ele>
        <time>2017-05-07T09:50:13.374Z</time>
      </trkpt>
      <trkpt lat="47.80477" lon="2.15389">
        <ele>96</ele>
        <time>2017-05-07T09:50:14.380Z</time>
      </trkpt>
      <trkpt lat="47.80477" lon="2.15389">
        <ele>96</ele>
        <time>2017-05-07T09:50:15.370Z</time>
      </trkpt>
      <trkpt lat="47.80478" lon="2.15369">
        <ele>95</ele>
        <time>2017-05-07T09:50:16.375Z</time>
      </trkpt>
      <trkpt lat="47.80478" lon="2.15369">
        <ele>95</ele>
        <time>2017-05-07T09:50:17.363Z</time>
      </trkpt>
      <trkpt lat="47.80479" lon="2.1535">
        <ele>95</ele>
        <time>2017-05-07T09:50:18.383Z</time>
      </trkpt>
      <trkpt lat="47.80479" lon="2.1535">
        <ele>95</ele>
        <time>2017-05-07T09:50:19.371Z</time>
      </trkpt>
      <trkpt lat="47.80479" lon="2.15331">
        <ele>95</ele>
        <time>2017-05-07T09:50:20.376Z</time>
      </trkpt>
      <trkpt lat="47.80479" lon="2.15331">
        <ele>95</ele>
        <time>2017-05-07T09:50:21.366Z</time>
      </trkpt>
      <trkpt lat="47.80479" lon="2.15312">
        <ele>95</ele>
        <time>2017-05-07T09:50:22.371Z</time>
      </trkpt>
      <trkpt lat="47.8048" lon="2.15302">
        <ele>95</ele>
        <time>2017-05-07T09:50:23.374Z</time>
      </trkpt>
      <trkpt lat="47.8048" lon="2.15302">
        <ele>95</ele>
        <time>2017-05-07T09:50:24.366Z</time>
      </trkpt>
      <trkpt lat="47.8048" lon="2.15283">
        <ele>95</ele>
        <time>2017-05-07T09:50:25.370Z</time>
      </trkpt>
      <trkpt lat="47.80481" lon="2.15274">
        <ele>95</ele>
        <time>2017-05-07T09:50:26.370Z</time>
      </trkpt>
      <trkpt lat="47.80481" lon="2.15274">
        <ele>95</ele>
        <time>2017-05-07T09:50:27.366Z</time>
      </trkpt>
      <trkpt lat="47.80481" lon="2.15255">
        <ele>96</ele>
        <time>2017-05-07T09:50:28.374Z</time>
      </trkpt>
      <trkpt lat="47.80481" lon="2.15255">
        <ele>96</ele>
        <time>2017-05-07T09:50:29.367Z</time>
      </trkpt>
      <trkpt lat="47.80482" lon="2.15235">
        <ele>96</ele>
        <time>2017-05-07T09:50:30.371Z</time>
      </trkpt>
      <trkpt lat="47.80482" lon="2.15235">
        <ele>96</ele>
        <time>2017-05-07T09:50:31.377Z</time>
      </trkpt>
      <trkpt lat="47.80483" lon="2.15216">
        <ele>96</ele>
        <time>2017-05-07T09:50:32.376Z</time>
      </trkpt>
      <trkpt lat="47.80483" lon="2.15216">
        <ele>96</ele>
        <time>2017-05-07T09:50:33.367Z</time>
      </trkpt>
      <trkpt lat="47.80483" lon="2.15196">
        <ele>96</ele>
        <time>2017-05-07T09:50:34.378Z</time>
      </trkpt>
      <trkpt lat="47.80484" lon="2.15187">
        <ele>96</ele>
        <time>2017-05-07T09:50:35.372Z</time>
      </trkpt>
      <trkpt lat="47.80484" lon="2.15187">
        <ele>96</ele>
        <time>2017-05-07T09:50:36.367Z</time>
      </trkpt>
      <trkpt lat="47.80484" lon="2.15168">
        <ele>96</ele>
        <time>2017-05-07T09:50:37.369Z</time>
      </trkpt>
      <trkpt lat="47.80485" lon="2.15158">
        <ele>96</ele>
        <time>2017-05-07T09:50:38.376Z</time>
      </trkpt>
      <trkpt lat="47.80485" lon="2.15158">
        <ele>96</ele>
        <time>2017-05-07T09:50:39.366Z</time>
      </trkpt>
      <trkpt lat="47.80485" lon="2.15139">
        <ele>96</ele>
        <time>2017-05-07T09:50:40.370Z</time>
      </trkpt>
      <trkpt lat="47.80485" lon="2.15139">
        <ele>96</ele>
        <time>2017-05-07T09:50:41.367Z</time>
      </trkpt>
      <trkpt lat="47.80486" lon="2.15121">
        <ele>96</ele>
        <time>2017-05-07T09:50:42.369Z</time>
      </trkpt>
      <trkpt lat="47.80486" lon="2.15121">
        <ele>96</ele>
        <time>2017-05-07T09:50:43.367Z</time>
      </trkpt>
      <trkpt lat="47.80487" lon="2.15102">
        <ele>96</ele>
        <time>2017-05-07T09:50:44.380Z</time>
      </trkpt>
      <trkpt lat="47.80487" lon="2.15102">
        <ele>96</ele>
        <time>2017-05-07T09:50:45.369Z</time>
      </trkpt>
      <trkpt lat="47.80488" lon="2.15083">
        <ele>96</ele>
        <time>2017-05-07T09:50:46.385Z</time>
      </trkpt>
      <trkpt lat="47.80488" lon="2.15083">
        <ele>96</ele>
        <time>2017-05-07T09:50:47.375Z</time>
      </trkpt>
      <trkpt lat="47.80488" lon="2.15064">
        <ele>96</ele>
        <time>2017-05-07T09:50:48.374Z</time>
      </trkpt>
      <trkpt lat="47.80488" lon="2.15064">
        <ele>96</ele>
        <time>2017-05-07T09:50:49.367Z</time>
      </trkpt>
      <trkpt lat="47.80489" lon="2.15045">
        <ele>96</ele>
        <time>2017-05-07T09:50:50.377Z</time>
      </trkpt>
      <trkpt lat="47.80489" lon="2.15045">
        <ele>96</ele>
        <time>2017-05-07T09:50:51.370Z</time>
      </trkpt>
      <trkpt lat="47.80489" lon="2.15025">
        <ele>95</ele>
        <time>2017-05-07T09:50:52.372Z</time>
      </trkpt>
      <trkpt lat="47.8049" lon="2.15016">
        <ele>95</ele>
        <time>2017-05-07T09:50:53.375Z</time>
      </trkpt>
      <trkpt lat="47.8049" lon="2.15016">
        <ele>95</ele>
        <time>2017-05-07T09:50:54.367Z</time>
      </trkpt>
      <trkpt lat="47.8049" lon="2.14998">
        <ele>95</ele>
        <time>2017-05-07T09:50:55.372Z</time>
      </trkpt>
      <trkpt lat="47.80491" lon="2.1499">
        <ele>95</ele>
        <time>2017-05-07T09:50:56.380Z</time>
      </trkpt>
      <trkpt lat="47.80491" lon="2.1499">
        <ele>95</ele>
        <time>2017-05-07T09:50:57.372Z</time>
      </trkpt>
      <trkpt lat="47.80491" lon="2.14972">
        <ele>95</ele>
        <time>2017-05-07T09:50:58.372Z</time>
      </trkpt>
      <trkpt lat="47.80491" lon="2.14972">
        <ele>95</ele>
        <time>2017-05-07T09:50:59.375Z</time>
      </trkpt>
      <trkpt lat="47.80493" lon="2.14954">
        <ele>95</ele>
        <time>2017-05-07T09:51:00.368Z</time>
      </trkpt>
      <trkpt lat="47.80493" lon="2.14954">
        <ele>95</ele>
        <time>2017-05-07T09:51:01.374Z</time>
      </trkpt>
      <trkpt lat="47.80493" lon="2.14938">
        <ele>95</ele>
        <time>2017-05-07T09:51:02.387Z</time>
      </trkpt>
      <trkpt lat="47.80493" lon="2.14938">
        <ele>95</ele>
        <time>2017-05-07T09:51:03.376Z</time>
      </trkpt>
      <trkpt lat="47.80493" lon="2.14922">
        <ele>95</ele>
        <time>2017-05-07T09:51:04.373Z</time>
      </trkpt>
      <trkpt lat="47.80493" lon="2.14922">
        <ele>95</ele>
        <time>2017-05-07T09:51:05.367Z</time>
      </trkpt>
      <trkpt lat="47.80494" lon="2.14907">
        <ele>95</ele>
        <time>2017-05-07T09:51:06.369Z</time>
      </trkpt>
      <trkpt lat="47.80494" lon="2.14907">
        <ele>95</ele>
        <time>2017-05-07T09:51:07.370Z</time>
      </trkpt>
      <trkpt lat="47.80495" lon="2.1489">
        <ele>95</ele>
        <time>2017-05-07T09:51:08.375Z</time>
      </trkpt>
      <trkpt lat="47.80495" lon="2.1489">
        <ele>95</ele>
        <time>2017-05-07T09:51:09.367Z</time>
      </trkpt>
      <trkpt lat="47.80496" lon="2.14872">
        <ele>95</ele>
        <time>2017-05-07T09:51:10.375Z</time>
      </trkpt>
      <trkpt lat="47.80496" lon="2.14872">
        <ele>95</ele>
        <time>2017-05-07T09:51:11.367Z</time>
      </trkpt>
      <trkpt lat="47.80498" lon="2.14855">
        <ele>95</ele>
        <time>2017-05-07T09:51:12.375Z</time>
      </trkpt>
      <trkpt lat="47.80498" lon="2.14855">
        <ele>95</ele>
        <time>2017-05-07T09:51:13.367Z</time>
      </trkpt>
      <trkpt lat="47.80499" lon="2.14836">
        <ele>94</ele>
        <time>2017-05-07T09:51:14.387Z</time>
      </trkpt>
      <trkpt lat="47.80499" lon="2.14836">
        <ele>94</ele>
        <time>2017-05-07T09:51:15.355Z</time>
      </trkpt>
      <trkpt lat="47.805" lon="2.14818">
        <ele>94</ele>
        <time>2017-05-07T09:51:16.383Z</time>
      </trkpt>
      <trkpt lat="47.805" lon="2.14818">
        <ele>94</ele>
        <time>2017-05-07T09:51:17.372Z</time>
      </trkpt>
      <trkpt lat="47.80501" lon="2.148">
        <ele>94</ele>
        <time>2017-05-07T09:51:18.374Z</time>
      </trkpt>
      <trkpt lat="47.80501" lon="2.148">
        <ele>94</ele>
        <time>2017-05-07T09:51:19.366Z</time>
      </trkpt>
      <trkpt lat="47.80502" lon="2.14782">
        <ele>94</ele>
        <time>2017-05-07T09:51:20.364Z</time>
      </trkpt>
      <trkpt lat="47.80502" lon="2.14782">
        <ele>94</ele>
        <time>2017-05-07T09:51:21.378Z</time>
      </trkpt>
      <trkpt lat="47.80504" lon="2.14764">
        <ele>94</ele>
        <time>2017-05-07T09:51:22.376Z</time>
      </trkpt>
      <trkpt lat="47.80505" lon="2.14754">
        <ele>94</ele>
        <time>2017-05-07T09:51:23.372Z</time>
      </trkpt>
      <trkpt lat="47.80505" lon="2.14754">
        <ele>94</ele>
        <time>2017-05-07T09:51:24.369Z</time>
      </trkpt>
      <trkpt lat="47.80506" lon="2.14736">
        <ele>94</ele>
        <time>2017-05-07T09:51:25.371Z</time>
      </trkpt>
      <trkpt lat="47.80507" lon="2.14727">
        <ele>94</ele>
        <time>2017-05-07T09:51:26.373Z</time>
      </trkpt>
      <trkpt lat="47.80507" lon="2.14727">
        <ele>94</ele>
        <time>2017-05-07T09:51:27.367Z</time>
      </trkpt>
      <trkpt lat="47.8051" lon="2.14709">
        <ele>95</ele>
        <time>2017-05-07T09:51:28.373Z</time>
      </trkpt>
      <trkpt lat="47.8051" lon="2.14709">
        <ele>95</ele>
        <time>2017-05-07T09:51:29.367Z</time>
      </trkpt>
      <trkpt lat="47.80511" lon="2.1469">
        <ele>94</ele>
        <time>2017-05-07T09:51:30.369Z</time>
      </trkpt>
      <trkpt lat="47.80512" lon="2.1468">
        <ele>94</ele>
        <time>2017-05-07T09:51:31.380Z</time>
      </trkpt>
      <trkpt lat="47.80512" lon="2.1468">
        <ele>94</ele>
        <time>2017-05-07T09:51:32.371Z</time>
      </trkpt>
      <trkpt lat="47.80514" lon="2.1466">
        <ele>93</ele>
        <time>2017-05-07T09:51:33.369Z</time>
      </trkpt>
      <trkpt lat="47.80514" lon="2.1466">
        <ele>93</ele>
        <time>2017-05-07T09:51:34.374Z</time>
      </trkpt>
      <trkpt lat="47.80516" lon="2.14641">
        <ele>94</ele>
        <time>2017-05-07T09:51:35.374Z</time>
      </trkpt>
      <trkpt lat="47.80517" lon="2.14632">
        <ele>94</ele>
        <time>2017-05-07T09:51:36.374Z</time>
      </trkpt>
      <trkpt lat="47.80517" lon="2.14632">
        <ele>94</ele>
        <time>2017-05-07T09:51:37.367Z</time>
      </trkpt>
      <trkpt lat="47.80519" lon="2.14613">
        <ele>93</ele>
        <time>2017-05-07T09:51:38.359Z</time>
      </trkpt>
      <trkpt lat="47.80519" lon="2.14613">
        <ele>93</ele>
        <time>2017-05-07T09:51:39.387Z</time>
      </trkpt>
      <trkpt lat="47.80521" lon="2.14594">
        <ele>94</ele>
        <time>2017-05-07T09:51:40.378Z</time>
      </trkpt>
      <trkpt lat="47.80521" lon="2.14594">
        <ele>94</ele>
        <time>2017-05-07T09:51:41.367Z</time>
      </trkpt>
      <trkpt lat="47.80524" lon="2.14574">
        <ele>93</ele>
        <time>2017-05-07T09:51:42.374Z</time>
      </trkpt>
      <trkpt lat="47.80524" lon="2.14574">
        <ele>93</ele>
        <time>2017-05-07T09:51:43.362Z</time>
      </trkpt>
      <trkpt lat="47.80526" lon="2.14555">
        <ele>93</ele>
        <time>2017-05-07T09:51:44.380Z</time>
      </trkpt>
      <trkpt lat="47.80526" lon="2.14555">
        <ele>93</ele>
        <time>2017-05-07T09:51:45.369Z</time>
      </trkpt>
      <trkpt lat="47.80528" lon="2.14537">
        <ele>93</ele>
        <time>2017-05-07T09:51:46.374Z</time>
      </trkpt>
      <trkpt lat="47.80528" lon="2.14537">
        <ele>93</ele>
        <time>2017-05-07T09:51:47.367Z</time>
      </trkpt>
      <trkpt lat="47.8053" lon="2.14519">
        <ele>93</ele>
        <time>2017-05-07T09:51:48.374Z</time>
      </trkpt>
      <trkpt lat="47.8053" lon="2.14519">
        <ele>93</ele>
        <time>2017-05-07T09:51:49.367Z</time>
      </trkpt>
      <trkpt lat="47.80532" lon="2.14501">
        <ele>94</ele>
        <time>2017-05-07T09:51:50.377Z</time>
      </trkpt>
      <trkpt lat="47.80532" lon="2.14501">
        <ele>94</ele>
        <time>2017-05-07T09:51:51.367Z</time>
      </trkpt>
      <trkpt lat="47.80534" lon="2.14483">
        <ele>95</ele>
        <time>2017-05-07T09:51:52.372Z</time>
      </trkpt>
      <trkpt lat="47.80534" lon="2.14483">
        <ele>95</ele>
        <time>2017-05-07T09:51:53.377Z</time>
      </trkpt>
      <trkpt lat="47.80536" lon="2.14466">
        <ele>95</ele>
        <time>2017-05-07T09:51:54.372Z</time>
      </trkpt>
      <trkpt lat="47.80537" lon="2.14457">
        <ele>95</ele>
        <time>2017-05-07T09:51:55.374Z</time>
      </trkpt>
      <trkpt lat="47.80537" lon="2.14457">
        <ele>95</ele>
        <time>2017-05-07T09:51:56.369Z</time>
      </trkpt>
      <trkpt lat="47.80539" lon="2.14439">
        <ele>95</ele>
        <time>2017-05-07T09:51:57.373Z</time>
      </trkpt>
      <trkpt lat="47.8054" lon="2.1443">
        <ele>95</ele>
        <time>2017-05-07T09:51:58.374Z</time>
      </trkpt>
      <trkpt lat="47.8054" lon="2.1443">
        <ele>95</ele>
        <time>2017-05-07T09:51:59.359Z</time>
      </trkpt>
      <trkpt lat="47.80542" lon="2.14414">
        <ele>95</ele>
        <time>2017-05-07T09:52:00.378Z</time>
      </trkpt>
      <trkpt lat="47.80542" lon="2.14414">
        <ele>95</ele>
        <time>2017-05-07T09:52:01.367Z</time>
      </trkpt>
      <trkpt lat="47.80544" lon="2.14397">
        <ele>95</ele>
        <time>2017-05-07T09:52:02.376Z</time>
      </trkpt>
      <trkpt lat="47.80544" lon="2.14397">
        <ele>95</ele>
        <time>2017-05-07T09:52:03.380Z</time>
      </trkpt>
      <trkpt lat="47.80545" lon="2.14379">
        <ele>96</ele>
        <time>2017-05-07T09:52:04.388Z</time>
      </trkpt>
      <trkpt lat="47.80545" lon="2.14379">
        <ele>96</ele>
        <time>2017-05-07T09:52:05.385Z</time>
      </trkpt>
      <trkpt lat="47.80547" lon="2.14362">
        <ele>95</ele>
        <time>2017-05-07T09:52:06.378Z</time>
      </trkpt>
      <trkpt lat="47.80547" lon="2.14362">
        <ele>95</ele>
        <time>2017-05-07T09:52:07.368Z</time>
      </trkpt>
      <trkpt lat="47.80548" lon="2.14346">
        <ele>95</ele>
        <time>2017-05-07T09:52:08.376Z</time>
      </trkpt>
      <trkpt lat="47.80548" lon="2.14346">
        <ele>95</ele>
        <time>2017-05-07T09:52:09.367Z</time>
      </trkpt>
      <trkpt lat="47.80548" lon="2.14331">
        <ele>95</ele>
        <time>2017-05-07T09:52:10.373Z</time>
      </trkpt>
      <trkpt lat="47.80548" lon="2.14331">
        <ele>95</ele>
        <time>2017-05-07T09:52:11.368Z</time>
      </trkpt>
      <trkpt lat="47.80547" lon="2.1432">
        <ele>94</ele>
        <time>2017-05-07T09:52:12.374Z</time>
      </trkpt>
      <trkpt lat="47.80547" lon="2.1432">
        <ele>94</ele>
        <time>2017-05-07T09:52:13.369Z</time>
      </trkpt>
      <trkpt lat="47.80547" lon="2.14314">
        <ele>95</ele>
        <time>2017-05-07T09:52:14.385Z</time>
      </trkpt>
      <trkpt lat="47.80547" lon="2.14314">
        <ele>95</ele>
        <time>2017-05-07T09:52:15.374Z</time>
      </trkpt>
      <trkpt lat="47.80546" lon="2.14309">
        <ele>96</ele>
        <time>2017-05-07T09:52:16.375Z</time>
      </trkpt>
      <trkpt lat="47.80546" lon="2.14309">
        <ele>96</ele>
        <time>2017-05-07T09:52:17.364Z</time>
      </trkpt>
      <trkpt lat="47.80544" lon="2.14307">
        <ele>96</ele>
        <time>2017-05-07T09:52:18.386Z</time>
      </trkpt>
      <trkpt lat="47.80544" lon="2.14307">
        <ele>96</ele>
        <time>2017-05-07T09:52:19.376Z</time>
      </trkpt>
      <trkpt lat="47.80543" lon="2.14307">
        <ele>96</ele>
        <time>2017-05-07T09:52:20.377Z</time>
      </trkpt>
      <trkpt lat="47.80543" lon="2.14307">
        <ele>96</ele>
        <time>2017-05-07T09:52:21.370Z</time>
      </trkpt>
      <trkpt lat="47.80543" lon="2.14307">
        <ele>96</ele>
        <time>2017-05-07T09:52:22.359Z</time>
      </trkpt>
      <trkpt lat="47.80535" lon="2.14303">
        <ele>93</ele>
        <time>2017-05-07T09:52:23.361Z</time>
      </trkpt>
      <trkpt lat="47.80535" lon="2.14303">
        <ele>93</ele>
        <time>2017-05-07T09:52:24.358Z</time>
      </trkpt>
      <trkpt lat="47.8053" lon="2.14297">
        <ele>93</ele>
        <time>2017-05-07T09:52:25.362Z</time>
      </trkpt>
      <trkpt lat="47.80527" lon="2.14294">
        <ele>93</ele>
        <time>2017-05-07T09:52:26.366Z</time>
      </trkpt>
      <trkpt lat="47.80527" lon="2.14294">
        <ele>93</ele>
        <time>2017-05-07T09:52:27.357Z</time>
      </trkpt>
      <trkpt lat="47.80521" lon="2.14287">
        <ele>93</ele>
        <time>2017-05-07T09:52:28.363Z</time>
      </trkpt>
      <trkpt lat="47.80521" lon="2.14287">
        <ele>93</ele>
        <time>2017-05-07T09:52:29.394Z</time>
      </trkpt>
      <trkpt lat="47.80514" lon="2.1428">
        <ele>94</ele>
        <time>2017-05-07T09:52:30.365Z</time>
      </trkpt>
      <trkpt lat="47.80511" lon="2.14277">
        <ele>94</ele>
        <time>2017-05-07T09:52:31.364Z</time>
      </trkpt>
      <trkpt lat="47.80511" lon="2.14277">
        <ele>94</ele>
        <time>2017-05-07T09:52:32.371Z</time>
      </trkpt>
      <trkpt lat="47.80503" lon="2.1427">
        <ele>94</ele>
        <time>2017-05-07T09:52:33.373Z</time>
      </trkpt>
      <trkpt lat="47.80503" lon="2.1427">
        <ele>94</ele>
        <time>2017-05-07T09:52:34.370Z</time>
      </trkpt>
      <trkpt lat="47.80497" lon="2.14263">
        <ele>94</ele>
        <time>2017-05-07T09:52:35.363Z</time>
      </trkpt>
      <trkpt lat="47.80497" lon="2.14263">
        <ele>94</ele>
        <time>2017-05-07T09:52:36.357Z</time>
      </trkpt>
      <trkpt lat="47.80489" lon="2.14255">
        <ele>94</ele>
        <time>2017-05-07T09:52:37.394Z</time>
      </trkpt>
      <trkpt lat="47.80486" lon="2.14251">
        <ele>93</ele>
        <time>2017-05-07T09:52:38.366Z</time>
      </trkpt>
      <trkpt lat="47.80486" lon="2.14251">
        <ele>93</ele>
        <time>2017-05-07T09:52:39.357Z</time>
      </trkpt>
      <trkpt lat="47.80478" lon="2.14244">
        <ele>93</ele>
        <time>2017-05-07T09:52:40.364Z</time>
      </trkpt>
      <trkpt lat="47.80478" lon="2.14244">
        <ele>93</ele>
        <time>2017-05-07T09:52:41.357Z</time>
      </trkpt>
      <trkpt lat="47.80469" lon="2.14236">
        <ele>93</ele>
        <time>2017-05-07T09:52:42.364Z</time>
      </trkpt>
      <trkpt lat="47.80469" lon="2.14236">
        <ele>93</ele>
        <time>2017-05-07T09:52:43.359Z</time>
      </trkpt>
      <trkpt lat="47.80461" lon="2.14227">
        <ele>93</ele>
        <time>2017-05-07T09:52:44.368Z</time>
      </trkpt>
      <trkpt lat="47.80461" lon="2.14227">
        <ele>93</ele>
        <time>2017-05-07T09:52:45.359Z</time>
      </trkpt>
      <trkpt lat="47.80452" lon="2.14219">
        <ele>93</ele>
        <time>2017-05-07T09:52:46.365Z</time>
      </trkpt>
      <trkpt lat="47.80452" lon="2.14219">
        <ele>93</ele>
        <time>2017-05-07T09:52:47.360Z</time>
      </trkpt>
      <trkpt lat="47.80444" lon="2.14211">
        <ele>93</ele>
        <time>2017-05-07T09:52:48.364Z</time>
      </trkpt>
      <trkpt lat="47.80444" lon="2.14211">
        <ele>93</ele>
        <time>2017-05-07T09:52:49.360Z</time>
      </trkpt>
      <trkpt lat="47.80435" lon="2.14203">
        <ele>93</ele>
        <time>2017-05-07T09:52:50.366Z</time>
      </trkpt>
      <trkpt lat="47.80435" lon="2.14203">
        <ele>93</ele>
        <time>2017-05-07T09:52:51.358Z</time>
      </trkpt>
      <trkpt lat="47.80426" lon="2.14194">
        <ele>93</ele>
        <time>2017-05-07T09:52:52.363Z</time>
      </trkpt>
      <trkpt lat="47.80426" lon="2.14194">
        <ele>93</ele>
        <time>2017-05-07T09:52:53.360Z</time>
      </trkpt>
      <trkpt lat="47.80418" lon="2.14186">
        <ele>93</ele>
        <time>2017-05-07T09:52:54.359Z</time>
      </trkpt>
      <trkpt lat="47.80414" lon="2.14181">
        <ele>93</ele>
        <time>2017-05-07T09:52:55.364Z</time>
      </trkpt>
      <trkpt lat="47.80409" lon="2.14176">
        <ele>93</ele>
        <time>2017-05-07T09:52:56.366Z</time>
      </trkpt>
      <trkpt lat="47.80409" lon="2.14176">
        <ele>93</ele>
        <time>2017-05-07T09:52:57.358Z</time>
      </trkpt>
      <trkpt lat="47.804" lon="2.14167">
        <ele>93</ele>
        <time>2017-05-07T09:52:58.364Z</time>
      </trkpt>
      <trkpt lat="47.804" lon="2.14167">
        <ele>93</ele>
        <time>2017-05-07T09:52:59.386Z</time>
      </trkpt>
      <trkpt lat="47.80392" lon="2.14157">
        <ele>94</ele>
        <time>2017-05-07T09:53:00.383Z</time>
      </trkpt>
      <trkpt lat="47.80392" lon="2.14157">
        <ele>94</ele>
        <time>2017-05-07T09:53:01.390Z</time>
      </trkpt>
      <trkpt lat="47.80383" lon="2.1415">
        <ele>94</ele>
        <time>2017-05-07T09:53:02.363Z</time>
      </trkpt>
      <trkpt lat="47.80383" lon="2.1415">
        <ele>94</ele>
        <time>2017-05-07T09:53:03.356Z</time>
      </trkpt>
      <trkpt lat="47.80375" lon="2.14143">
        <ele>94</ele>
        <time>2017-05-07T09:53:04.390Z</time>
      </trkpt>
      <trkpt lat="47.80371" lon="2.1414">
        <ele>95</ele>
        <time>2017-05-07T09:53:05.381Z</time>
      </trkpt>
      <trkpt lat="47.80368" lon="2.14137">
        <ele>96</ele>
        <time>2017-05-07T09:53:06.371Z</time>
      </trkpt>
      <trkpt lat="47.80368" lon="2.14137">
        <ele>96</ele>
        <time>2017-05-07T09:53:07.360Z</time>
      </trkpt>
      <trkpt lat="47.80361" lon="2.14134">
        <ele>96</ele>
        <time>2017-05-07T09:53:08.366Z</time>
      </trkpt>
      <trkpt lat="47.80361" lon="2.14134">
        <ele>96</ele>
        <time>2017-05-07T09:53:09.357Z</time>
      </trkpt>
      <trkpt lat="47.80355" lon="2.1413">
        <ele>97</ele>
        <time>2017-05-07T09:53:10.367Z</time>
      </trkpt>
      <trkpt lat="47.80355" lon="2.1413">
        <ele>97</ele>
        <time>2017-05-07T09:53:11.355Z</time>
      </trkpt>
      <trkpt lat="47.80349" lon="2.14127">
        <ele>98</ele>
        <time>2017-05-07T09:53:12.363Z</time>
      </trkpt>
      <trkpt lat="47.80349" lon="2.14127">
        <ele>98</ele>
        <time>2017-05-07T09:53:13.357Z</time>
      </trkpt>
      <trkpt lat="47.80342" lon="2.14124">
        <ele>99</ele>
        <time>2017-05-07T09:53:14.362Z</time>
      </trkpt>
      <trkpt lat="47.80342" lon="2.14124">
        <ele>99</ele>
        <time>2017-05-07T09:53:15.359Z</time>
      </trkpt>
      <trkpt lat="47.80336" lon="2.14118">
        <ele>100</ele>
        <time>2017-05-07T09:53:16.362Z</time>
      </trkpt>
      <trkpt lat="47.80336" lon="2.14118">
        <ele>100</ele>
        <time>2017-05-07T09:53:17.357Z</time>
      </trkpt>
      <trkpt lat="47.8033" lon="2.14113">
        <ele>101</ele>
        <time>2017-05-07T09:53:18.375Z</time>
      </trkpt>
      <trkpt lat="47.80327" lon="2.1411">
        <ele>101</ele>
        <time>2017-05-07T09:53:19.365Z</time>
      </trkpt>
      <trkpt lat="47.80327" lon="2.1411">
        <ele>101</ele>
        <time>2017-05-07T09:53:20.359Z</time>
      </trkpt>
      <trkpt lat="47.8032" lon="2.14105">
        <ele>102</ele>
        <time>2017-05-07T09:53:21.355Z</time>
      </trkpt>
      <trkpt lat="47.8032" lon="2.14105">
        <ele>102</ele>
        <time>2017-05-07T09:53:22.358Z</time>
      </trkpt>
      <trkpt lat="47.80313" lon="2.141">
        <ele>102</ele>
        <time>2017-05-07T09:53:23.363Z</time>
      </trkpt>
      <trkpt lat="47.80313" lon="2.141">
        <ele>102</ele>
        <time>2017-05-07T09:53:24.383Z</time>
      </trkpt>
      <trkpt lat="47.80306" lon="2.14095">
        <ele>103</ele>
        <time>2017-05-07T09:53:25.372Z</time>
      </trkpt>
      <trkpt lat="47.80303" lon="2.14093">
        <ele>103</ele>
        <time>2017-05-07T09:53:26.367Z</time>
      </trkpt>
      <trkpt lat="47.80303" lon="2.14093">
        <ele>103</ele>
        <time>2017-05-07T09:53:27.380Z</time>
      </trkpt>
      <trkpt lat="47.80296" lon="2.14088">
        <ele>103</ele>
        <time>2017-05-07T09:53:28.371Z</time>
      </trkpt>
      <trkpt lat="47.80296" lon="2.14088">
        <ele>103</ele>
        <time>2017-05-07T09:53:29.360Z</time>
      </trkpt>
      <trkpt lat="47.8029" lon="2.14084">
        <ele>104</ele>
        <time>2017-05-07T09:53:30.364Z</time>
      </trkpt>
      <trkpt lat="47.80286" lon="2.14081">
        <ele>104</ele>
        <time>2017-05-07T09:53:31.394Z</time>
      </trkpt>
      <trkpt lat="47.80282" lon="2.14079">
        <ele>104</ele>
        <time>2017-05-07T09:53:32.369Z</time>
      </trkpt>
      <trkpt lat="47.80282" lon="2.14079">
        <ele>104</ele>
        <time>2017-05-07T09:53:33.357Z</time>
      </trkpt>
      <trkpt lat="47.80275" lon="2.14076">
        <ele>105</ele>
        <time>2017-05-07T09:53:34.371Z</time>
      </trkpt>
      <trkpt lat="47.80275" lon="2.14076">
        <ele>105</ele>
        <time>2017-05-07T09:53:35.368Z</time>
      </trkpt>
      <trkpt lat="47.80268" lon="2.14073">
        <ele>105</ele>
        <time>2017-05-07T09:53:36.364Z</time>
      </trkpt>
      <trkpt lat="47.80268" lon="2.14073">
        <ele>105</ele>
        <time>2017-05-07T09:53:37.358Z</time>
      </trkpt>
      <trkpt lat="47.80263" lon="2.14075">
        <ele>105</ele>
        <time>2017-05-07T09:53:38.367Z</time>
      </trkpt>
      <trkpt lat="47.80263" lon="2.14075">
        <ele>105</ele>
        <time>2017-05-07T09:53:39.358Z</time>
      </trkpt>
      <trkpt lat="47.80259" lon="2.1408">
        <ele>105</ele>
        <time>2017-05-07T09:53:40.362Z</time>
      </trkpt>
      <trkpt lat="47.80259" lon="2.1408">
        <ele>105</ele>
        <time>2017-05-07T09:53:41.390Z</time>
      </trkpt>
      <trkpt lat="47.80257" lon="2.14088">
        <ele>105</ele>
        <time>2017-05-07T09:53:42.378Z</time>
      </trkpt>
      <trkpt lat="47.80257" lon="2.14088">
        <ele>105</ele>
        <time>2017-05-07T09:53:43.367Z</time>
      </trkpt>
      <trkpt lat="47.80254" lon="2.14098">
        <ele>105</ele>
        <time>2017-05-07T09:53:44.367Z</time>
      </trkpt>
      <trkpt lat="47.80254" lon="2.14098">
        <ele>105</ele>
        <time>2017-05-07T09:53:45.359Z</time>
      </trkpt>
      <trkpt lat="47.8025" lon="2.1411">
        <ele>104</ele>
        <time>2017-05-07T09:53:46.359Z</time>
      </trkpt>
      <trkpt lat="47.8025" lon="2.1411">
        <ele>104</ele>
        <time>2017-05-07T09:53:47.358Z</time>
      </trkpt>
      <trkpt lat="47.80247" lon="2.14124">
        <ele>104</ele>
        <time>2017-05-07T09:53:48.363Z</time>
      </trkpt>
      <trkpt lat="47.80247" lon="2.14124">
        <ele>104</ele>
        <time>2017-05-07T09:53:49.357Z</time>
      </trkpt>
      <trkpt lat="47.80242" lon="2.14137">
        <ele>104</ele>
        <time>2017-05-07T09:53:50.366Z</time>
      </trkpt>
      <trkpt lat="47.80242" lon="2.14137">
        <ele>104</ele>
        <time>2017-05-07T09:53:51.355Z</time>
      </trkpt>
      <trkpt lat="47.80239" lon="2.14152">
        <ele>103</ele>
        <time>2017-05-07T09:53:52.363Z</time>
      </trkpt>
      <trkpt lat="47.80239" lon="2.14152">
        <ele>103</ele>
        <time>2017-05-07T09:53:53.357Z</time>
      </trkpt>
      <trkpt lat="47.80237" lon="2.14169">
        <ele>103</ele>
        <time>2017-05-07T09:53:54.377Z</time>
      </trkpt>
      <trkpt lat="47.80237" lon="2.14169">
        <ele>103</ele>
        <time>2017-05-07T09:53:55.366Z</time>
      </trkpt>
      <trkpt lat="47.80238" lon="2.14185">
        <ele>102</ele>
        <time>2017-05-07T09:53:56.362Z</time>
      </trkpt>
      <trkpt lat="47.80238" lon="2.14185">
        <ele>102</ele>
        <time>2017-05-07T09:53:57.357Z</time>
      </trkpt>
      <trkpt lat="47.8024" lon="2.142">
        <ele>101</ele>
        <time>2017-05-07T09:53:58.360Z</time>
      </trkpt>
      <trkpt lat="47.8024" lon="2.142">
        <ele>101</ele>
        <time>2017-05-07T09:53:59.358Z</time>
      </trkpt>
      <trkpt lat="47.80241" lon="2.14215">
        <ele>101</ele>
        <time>2017-05-07T09:54:00.358Z</time>
      </trkpt>
      <trkpt lat="47.80241" lon="2.14222">
        <ele>101</ele>
        <time>2017-05-07T09:54:01.364Z</time>
      </trkpt>
      <trkpt lat="47.80241" lon="2.14229">
        <ele>101</ele>
        <time>2017-05-07T09:54:02.366Z</time>
      </trkpt>
      <trkpt lat="47.80241" lon="2.14229">
        <ele>101</ele>
        <time>2017-05-07T09:54:03.359Z</time>
      </trkpt>
      <trkpt lat="47.80236" lon="2.1424">
        <ele>100</ele>
        <time>2017-05-07T09:54:04.360Z</time>
      </trkpt>
      <trkpt lat="47.80236" lon="2.1424">
        <ele>100</ele>
        <time>2017-05-07T09:54:05.370Z</time>
      </trkpt>
      <trkpt lat="47.80227" lon="2.14246">
        <ele>100</ele>
        <time>2017-05-07T09:54:06.360Z</time>
      </trkpt>
      <trkpt lat="47.80227" lon="2.14246">
        <ele>100</ele>
        <time>2017-05-07T09:54:07.356Z</time>
      </trkpt>
      <trkpt lat="47.80218" lon="2.14247">
        <ele>100</ele>
        <time>2017-05-07T09:54:08.364Z</time>
      </trkpt>
      <trkpt lat="47.80218" lon="2.14247">
        <ele>100</ele>
        <time>2017-05-07T09:54:09.355Z</time>
      </trkpt>
      <trkpt lat="47.80208" lon="2.14247">
        <ele>100</ele>
        <time>2017-05-07T09:54:10.367Z</time>
      </trkpt>
      <trkpt lat="47.80208" lon="2.14247">
        <ele>100</ele>
        <time>2017-05-07T09:54:11.356Z</time>
      </trkpt>
      <trkpt lat="47.80199" lon="2.14247">
        <ele>100</ele>
        <time>2017-05-07T09:54:12.361Z</time>
      </trkpt>
      <trkpt lat="47.80199" lon="2.14247">
        <ele>100</ele>
        <time>2017-05-07T09:54:13.356Z</time>
      </trkpt>
      <trkpt lat="47.80192" lon="2.14247">
        <ele>100</ele>
        <time>2017-05-07T09:54:14.365Z</time>
      </trkpt>
      <trkpt lat="47.80192" lon="2.14247">
        <ele>100</ele>
        <time>2017-05-07T09:54:15.359Z</time>
      </trkpt>
      <trkpt lat="47.80186" lon="2.14246">
        <ele>100</ele>
        <time>2017-05-07T09:54:16.362Z</time>
      </trkpt>
      <trkpt lat="47.80183" lon="2.14244">
        <ele>100</ele>
        <time>2017-05-07T09:54:17.363Z</time>
      </trkpt>
      <trkpt lat="47.80183" lon="2.14244">
        <ele>100</ele>
        <time>2017-05-07T09:54:18.357Z</time>
      </trkpt>
      <trkpt lat="47.80179" lon="2.14238">
        <ele>101</ele>
        <time>2017-05-07T09:54:19.361Z</time>
      </trkpt>
      <trkpt lat="47.80178" lon="2.14234">
        <ele>101</ele>
        <time>2017-05-07T09:54:20.364Z</time>
      </trkpt>
      <trkpt lat="47.80178" lon="2.14234">
        <ele>101</ele>
        <time>2017-05-07T09:54:21.355Z</time>
      </trkpt>
      <trkpt lat="47.80172" lon="2.14232">
        <ele>101</ele>
        <time>2017-05-07T09:54:22.360Z</time>
      </trkpt>
      <trkpt lat="47.80172" lon="2.14232">
        <ele>101</ele>
        <time>2017-05-07T09:54:23.355Z</time>
      </trkpt>
      <trkpt lat="47.80165" lon="2.14233">
        <ele>101</ele>
        <time>2017-05-07T09:54:24.368Z</time>
      </trkpt>
      <trkpt lat="47.80165" lon="2.14233">
        <ele>101</ele>
        <time>2017-05-07T09:54:25.357Z</time>
      </trkpt>
      <trkpt lat="47.80157" lon="2.14235">
        <ele>101</ele>
        <time>2017-05-07T09:54:26.364Z</time>
      </trkpt>
      <trkpt lat="47.80157" lon="2.14235">
        <ele>101</ele>
        <time>2017-05-07T09:54:27.371Z</time>
      </trkpt>
      <trkpt lat="47.80149" lon="2.14237">
        <ele>102</ele>
        <time>2017-05-07T09:54:28.360Z</time>
      </trkpt>
      <trkpt lat="47.80145" lon="2.14236">
        <ele>102</ele>
        <time>2017-05-07T09:54:29.360Z</time>
      </trkpt>
      <trkpt lat="47.80145" lon="2.14236">
        <ele>102</ele>
        <time>2017-05-07T09:54:30.356Z</time>
      </trkpt>
      <trkpt lat="47.80136" lon="2.14238">
        <ele>102</ele>
        <time>2017-05-07T09:54:31.360Z</time>
      </trkpt>
      <trkpt lat="47.80132" lon="2.14239">
        <ele>102</ele>
        <time>2017-05-07T09:54:32.361Z</time>
      </trkpt>
      <trkpt lat="47.80132" lon="2.14239">
        <ele>102</ele>
        <time>2017-05-07T09:54:33.355Z</time>
      </trkpt>
      <trkpt lat="47.80122" lon="2.14241">
        <ele>103</ele>
        <time>2017-05-07T09:54:34.357Z</time>
      </trkpt>
      <trkpt lat="47.80122" lon="2.14241">
        <ele>103</ele>
        <time>2017-05-07T09:54:35.356Z</time>
      </trkpt>
      <trkpt lat="47.80113" lon="2.14242">
        <ele>103</ele>
        <time>2017-05-07T09:54:36.362Z</time>
      </trkpt>
      <trkpt lat="47.80113" lon="2.14242">
        <ele>103</ele>
        <time>2017-05-07T09:54:37.355Z</time>
      </trkpt>
      <trkpt lat="47.80103" lon="2.14244">
        <ele>103</ele>
        <time>2017-05-07T09:54:38.364Z</time>
      </trkpt>
      <trkpt lat="47.80103" lon="2.14244">
        <ele>103</ele>
        <time>2017-05-07T09:54:39.355Z</time>
      </trkpt>
      <trkpt lat="47.80094" lon="2.14246">
        <ele>103</ele>
        <time>2017-05-07T09:54:40.362Z</time>
      </trkpt>
      <trkpt lat="47.80094" lon="2.14246">
        <ele>103</ele>
        <time>2017-05-07T09:54:41.356Z</time>
      </trkpt>
      <trkpt lat="47.80085" lon="2.14248">
        <ele>103</ele>
        <time>2017-05-07T09:54:42.361Z</time>
      </trkpt>
      <trkpt lat="47.80085" lon="2.14248">
        <ele>103</ele>
        <time>2017-05-07T09:54:43.355Z</time>
      </trkpt>
      <trkpt lat="47.80076" lon="2.14249">
        <ele>103</ele>
        <time>2017-05-07T09:54:44.362Z</time>
      </trkpt>
      <trkpt lat="47.80076" lon="2.14249">
        <ele>103</ele>
        <time>2017-05-07T09:54:45.394Z</time>
      </trkpt>
      <trkpt lat="47.80069" lon="2.14249">
        <ele>102</ele>
        <time>2017-05-07T09:54:46.361Z</time>
      </trkpt>
      <trkpt lat="47.80069" lon="2.14249">
        <ele>102</ele>
        <time>2017-05-07T09:54:47.355Z</time>
      </trkpt>
      <trkpt lat="47.80066" lon="2.14248">
        <ele>102</ele>
        <time>2017-05-07T09:54:48.360Z</time>
      </trkpt>
      <trkpt lat="47.80066" lon="2.14248">
        <ele>102</ele>
        <time>2017-05-07T09:54:49.394Z</time>
      </trkpt>
      <trkpt lat="47.80065" lon="2.14248">
        <ele>102</ele>
        <time>2017-05-07T09:54:50.364Z</time>
      </trkpt>
    </trkseg>
  </trk>
</gpx>